<<back to data home page
Ready for Fall? Stay in touch!! - DONATE ANY AMOUNT BY CLICKING THIS LINK!!!


    Month/Day/Year       Maximum   Minimum    Rel    Dew       Rainfall  Seasonal  Soil     Soil      Baro       Wind    Wind        Peak    Peak Gust  Evap     Leaf     Net
    and                  Air Temp  Air Temp   Hum    Point     Inches    Rainfall  Temp     Moisture  Pressure   Speed   Direction   Gust    Direction  Pan      Wetness  Radiation
    Local Time           Deg F     Deg F      %      Deg F               Inches    Deg F    dS/m      mbar       MPH     comp  deg   MPH     comp  deg  Inches   mV       W_m2
----------------------------------------------------------------------------------------------------------------------------------------------------------------------------------
   10/21/2017 10:10      69.5      68.7       23     29.4      0.00      0.00      72.2     0.33      1019.0     6.2     NNE    13  13.1      NW   318   6.05    261      299.9
   10/21/2017 10:00      68.8      68.1       23     29.4      0.00      0.00      72.3     0.33      1018.8     6.3     NNE    11   9.3     NNE    21   6.02    261      283.9
   10/21/2017 09:50      68.4      67.4       23     29.2      0.00      0.00      72.3     0.33      1018.9     6.7     NNE    21  11.4     ENE    71   6.02    261      268.6
   10/21/2017 09:40      67.6      66.7       24     29.4      0.00      0.00      72.3     0.33      1018.7     7.0     NNE    13  13.3     NNE    26   5.91    261      252.5
   10/21/2017 09:30      67.0      66.2       25     29.3      0.00      0.00      72.4     0.33      1018.5     8.6     NNE    14  15.2     NNE    23   6.62    261      234.8
   10/21/2017 09:20      66.3      65.7       25     29.2      0.00      0.00      72.4     0.33      1018.5     7.1       N     7  15.7     NNE    18   6.68    261      215.9
   10/21/2017 09:10      66.0      65.1       25     29.0      0.00      0.00      72.4     0.33      1018.4     7.6       N     2  15.4     NNW   327   6.59    261      197.5
   10/21/2017 09:00      65.3      64.5       26     28.8      0.00      0.00      72.5     0.33      1018.4     7.6       N     7  15.4     NNW   329   6.59    262      179.6
   10/21/2017 08:50      64.6      63.7       26     28.9      0.00      0.00      72.5     0.33      1018.2     6.6       N     6  13.9       N   351   6.50    262      147.9
   10/21/2017 08:40      64.0      63.2       27     29.1      0.00      0.00      72.5     0.33      1018.2     4.3       N     5   8.1     NNE    12   6.58    262       86.0
   10/21/2017 08:30      63.5      62.4       28     29.1      0.00      0.00      72.6     0.33      1017.9     4.3       N   356   8.0      NW   318   6.21    263       87.5
   10/21/2017 08:20      62.5      61.8       28     28.5      0.00      0.00      72.6     0.33      1017.7     5.5       N   349  13.1     NNW   333   6.38    263       10.5
   10/21/2017 08:10      61.9      61.2       29     28.6      0.00      0.00      72.7     0.33      1017.6     6.1     NNW   344  10.9      NW   315   6.26    263      -48.5
   10/21/2017 08:00      61.3      60.6       29     28.5      0.00      0.00      72.7     0.33      1017.7     4.1     NNW   347  11.9     NNW   328   6.28    263      -49.4
   10/21/2017 07:50      60.8      59.8       29     28.3      0.00      0.00      72.7     0.33      1017.6     2.3       N   359   7.0     NNE    18   6.18    263      -50.5
   10/21/2017 07:40      60.0      59.4       29     27.9      0.00      0.00      72.7     0.33      1017.4     4.3     NNW   334   8.9      NW   324   6.64    263      -52.8
   10/21/2017 07:30      59.5      59.0       30     27.9      0.00      0.00      72.8     0.33      1017.2     3.6      NW   306   6.8      NW   310   6.59    263      -55.9
   10/21/2017 07:20      59.7      59.0       30     27.8      0.00      0.00      72.8     0.33      1017.1     3.0     WNW   282   6.5       W   275   6.60    263      -59.7
   10/21/2017 07:10      59.7      58.6       30     27.7      0.00      0.00      72.8     0.33      1017.0     3.6       W   280   6.9     WSW   247   6.58    263      -63.4
   10/21/2017 07:00      58.7      55.7       34     28.8      0.00      0.00      72.8     0.33      1017.1     2.9       W   277   6.0       W   265   6.58    263      -64.2
   10/21/2017 06:50      56.0      54.0       41     31.6      0.00      0.00      72.9     0.33      1017.2     2.3       S   184   4.6       S   186   6.48    264      -63.8
   10/21/2017 06:40      54.5      53.6       45     33.3      0.00      0.00      72.9     0.33      1017.1     2.0     SSE   150   4.6     SSE   167   6.49    264      -65.5
   10/21/2017 06:30      55.7      54.1       44     33.1      0.00      0.00      72.9     0.33      1017.3     2.9       S   169   4.6       S   185   6.41    264      -65.2
   10/21/2017 06:20      56.3      55.6       41     32.6      0.00      0.00      73.0     0.33      1017.3     1.6     WSW   242   3.9     WSW   256   6.49    264      -67.0
   10/21/2017 06:10      56.0      55.5       42     33.0      0.00      0.00      73.0     0.33      1017.1     3.3     WSW   246   5.6     WSW   253   6.39    263      -67.3
   10/21/2017 06:00      56.4      55.7       41     32.8      0.00      0.00      73.0     0.33      1017.1     2.2       W   273   4.7     SSW   207   6.32    264      -66.8
   10/21/2017 05:50      56.4      56.0       41     32.6      0.00      0.00      73.0     0.33      1017.0     2.7      NW   305   5.0       W   265   6.52    264      -66.5
   10/21/2017 05:40      56.3      55.9       40     32.2      0.00      0.00      73.0     0.33      1016.9     1.4     WNW   284   3.9       W   270   6.55    264      -65.6
   10/21/2017 05:30      57.3      56.0       39     31.9      0.00      0.00      73.1     0.33      1016.9     0.6      SE   130   1.8     NNE    33   6.66    264      -66.7
   10/21/2017 05:20      57.4      56.6       38     32.0      0.00      0.00      73.1     0.33      1016.9     1.0      NE    48   3.7       N    11   6.84    263      -67.4
   10/21/2017 05:10      57.4      57.0       38     32.2      0.00      0.00      73.1     0.33      1016.7     0.8       N     1   2.8     NNE    30   6.69    264      -68.0
   10/21/2017 05:00      57.1      56.5       40     32.6      0.00      0.00      73.2     0.33      1016.6     1.0     NNW   327   3.1       W   261   6.63    264      -67.6
   10/21/2017 04:50      56.8      56.1       41     33.0      0.00      0.00      73.2     0.33      1016.7     1.2      NE    40   3.2      NW   325   6.75    264      -68.3
   10/21/2017 04:40      56.9      56.0       42     33.3      0.00      0.00      73.2     0.33      1016.5     1.2       S   183   3.2     SSW   208   6.64    264      -69.2
   10/21/2017 04:30      57.7      56.6       41     33.5      0.00      0.00      73.3     0.33      1016.6     0.5       E    82   2.8      NE    54   6.69    263      -70.6
   10/21/2017 04:20      57.8      57.4       40     33.4      0.00      0.00      73.3     0.33      1016.5     1.6     ENE    69   4.5     ESE   102   6.52    263      -70.3
   10/21/2017 04:10      58.7      57.5       39     33.1      0.00      0.00      73.3     0.33      1016.5     1.6     ESE   120   3.6     ESE   109   6.56    264      -70.5
   10/21/2017 04:00      58.9      58.3       38     32.8      0.00      0.00      73.3     0.33      1016.5     1.9      NE    54   4.1     ENE    58   6.60    263      -70.5
   10/21/2017 03:50      59.4      58.6       37     33.0      0.00      0.00      73.3     0.33      1016.5     2.2      NE    36   5.0     NNE    18   6.69    263      -71.2
   10/21/2017 03:40      59.9      59.1       37     33.1      0.00      0.00      73.4     0.33      1016.4     1.5     ENE    73   4.8     ENE    57   6.93    263      -72.7
   10/21/2017 03:30      60.3      59.6       36     32.8      0.00      0.00      73.4     0.33      1016.3     4.1     NNE    21  11.9      NE    39   6.81    263      -72.8
   10/21/2017 03:20      60.4      59.9       35     32.4      0.00      0.00      73.4     0.33      1016.4     4.5       N    10   7.5      NE    44   6.93    263      -72.1
   10/21/2017 03:10      60.2      59.4       36     32.7      0.00      0.00      73.5     0.33      1016.5     4.6       N   358   8.8       N     9   7.31    263      -71.4
   10/21/2017 03:00      59.8      59.3       38     33.6      0.00      0.00      73.5     0.33      1016.5     4.2      NW   321   7.4      NW   320   7.27    263      -70.5
   10/21/2017 02:50      59.7      59.3       38     34.0      0.00      0.00      73.5     0.33      1016.7     5.6       N     4  10.9       N     7   7.08    263      -70.4
   10/21/2017 02:40      59.7      59.3       39     34.6      0.00      0.00      73.5     0.33      1016.7     5.6       N     0  11.4       N     2   6.44    263      -70.3
   10/21/2017 02:30      59.5      57.6       40     34.8      0.00      0.00      73.5     0.33      1016.5     6.2     NNE    12  13.5       W   260   6.69    264      -67.9
   10/21/2017 02:20      57.8      57.3       42     34.5      0.00      0.00      73.6     0.33      1016.5     1.4      NE    55   3.8      NE    48   6.60    264      -63.8
   10/21/2017 02:10      57.3      55.7       43     34.1      0.00      0.00      73.6     0.33      1016.4     1.5     ENE    59   4.8     ENE    73   7.02    264      -64.6
   10/21/2017 02:00      59.3      57.0       41     34.0      0.00      0.00      73.6     0.33      1016.4     0.8     ESE   117   2.0      SE   128   6.97    263      -64.5
   10/21/2017 01:50      59.7      59.1       38     33.7      0.00      0.00      73.7     0.33      1016.1     1.1     NNW   341   4.1     NNW   334   6.80    263      -66.8
   10/21/2017 01:40      59.3      57.9       39     33.6      0.00      0.00      73.7     0.33      1016.1     2.1      NW   319   4.9     NNW   331   6.86    263      -66.6
   10/21/2017 01:30      59.1      57.9       39     33.4      0.00      0.00      73.7     0.33      1016.3     1.0       E    88   3.3      NE    50   6.74    263      -66.9
   10/21/2017 01:20      59.1      57.7       38     33.3      0.00      0.00      73.7     0.33      1016.1     2.1      NE    40   3.3     NNE    21   6.99    263      -67.2
   10/21/2017 01:10      57.8      56.5       40     33.1      0.00      0.00      73.7     0.33      1016.2     1.5     ENE    61   3.1     ENE    59   6.82    264      -66.7
   10/21/2017 01:00      56.8      55.5       40     32.4      0.00      0.00      73.8     0.33      1016.0     1.2     ENE    71   5.0     NNE    21   6.97    263      -65.8
   10/21/2017 00:50      56.0      55.5       40     31.8      0.00      0.00      73.8     0.33      1015.8     0.7     SSW   196   1.4     SSW   207   7.07    263      -65.1
   10/21/2017 00:40      58.0      55.8       38     31.9      0.00      0.00      73.8     0.33      1015.8     0.5     SSE   158   1.3     SSE   163   6.87    263      -65.7
   10/21/2017 00:30      58.6      57.6       37     32.0      0.00      0.00      73.8     0.33      1015.8     0.5      SE   141   2.2      SE   140   7.01    263      -67.2
   10/21/2017 00:20      60.5      58.4       35     31.8      0.00      0.00      73.8     0.33      1015.7     0.8     SSE   150   2.7      SE   145   6.98    263      -68.6
   10/21/2017 00:10      60.9      60.2       34     31.9      0.00      0.00      73.8     0.33      1015.7     1.0     NNE    21   3.4     NNE    15   6.78    263      -70.7
   10/21/2017 00:00      60.8      60.4       34     32.0      0.00      0.00      73.8     0.33      1015.6     2.7       N     3   6.9     NNW   334   6.74    263      -71.2
   10/20/2017 23:50      60.6      59.9       34     32.1      0.00      0.00      73.8     0.33      1015.5     2.4     WNW   296   6.3       W   260   6.78    263      -70.3
   10/20/2017 23:40      61.5      60.3       33     32.0      0.00      0.00      73.9     0.33      1015.4     0.7      NW   317   3.5       N     8   6.95    263      -70.5
   10/20/2017 23:30      61.4      61.1       33     31.6      0.00      0.00      73.9     0.33      1015.3     2.9     NNW   345   9.4     NNW   334   6.88    263      -70.2
   10/20/2017 23:20      61.3      59.3       33     31.4      0.00      0.00      73.9     0.33      1015.4     3.6     NNW   340   9.7       N   353   6.90    263      -70.7
   10/20/2017 23:10      59.5      56.1       39     32.9      0.00      0.00      73.9     0.33      1015.3     1.4      NW   310   3.9     WNW   300   7.18    264      -67.9
   10/20/2017 23:00      56.4      56.0       44     34.4      0.00      0.00      73.9     0.33      1015.2     0.8     SSE   160   2.5       S   172   7.33    264      -67.2
   10/20/2017 22:50      57.4      56.0       44     35.1      0.00      0.00      73.9     0.33      1015.1     0.8     SSE   167   2.8     SSE   147   7.24    264      -68.1
   10/20/2017 22:40      57.7      57.0       42     34.2      0.00      0.00      73.9     0.33      1015.0     1.1     SSE   156   2.8      SE   142   7.20    264      -67.3
   10/20/2017 22:30      58.8      57.4       40     33.8      0.00      0.00      73.9     0.33      1015.1     1.1     SSE   167   2.2     SSW   193   7.42    263      -67.3
   10/20/2017 22:20      58.6      57.9       40     34.0      0.00      0.00      73.9     0.33      1015.0     1.4       S   179   2.7       S   187   7.04    263      -68.0
   10/20/2017 22:10      59.4      58.0       39     33.6      0.00      0.00      73.9     0.33      1014.9     1.8     SSE   165   3.5       S   183   6.98    263      -67.7
   10/20/2017 22:00      59.3      58.5       37     32.9      0.00      0.00      73.9     0.33      1014.9     1.2       S   186   2.5       S   179   6.96    263      -67.8
   10/20/2017 21:50      60.2      58.8       37     32.9      0.00      0.00      73.9     0.33      1014.8     1.1     SSW   193   2.5     SSW   205   7.11    263      -67.7
   10/20/2017 21:40      60.5      59.8       36     33.1      0.00      0.00      73.9     0.33      1014.7     1.0       S   184   1.9       S   173   7.30    263      -69.6
   10/20/2017 21:30      60.8      60.3       36     33.1      0.00      0.00      73.9     0.33      1014.6     1.5     SSE   153   2.9      SE   144   7.18    263      -70.5
   10/20/2017 21:20      62.0      60.5       35     33.0      0.00      0.00      73.9     0.33      1014.3     0.8     SSE   164   3.0       S   187   7.04    263      -71.7
   10/20/2017 21:10      62.4      61.7       33     32.9      0.00      0.00      73.9     0.33      1014.1     1.6      SE   133   3.3     ESE   113   7.08    263      -72.2
   10/20/2017 21:00      62.9      62.1       33     32.8      0.00      0.00      73.8     0.33      1014.0     1.5      SE   136   3.1      SE   138   6.74    263      -73.1
   10/20/2017 20:50      63.8      62.5       32     32.9      0.00      0.00      73.8     0.33      1014.0     0.8     ESE   105   3.7      NE    39   6.93    263      -74.0
   10/20/2017 20:40      64.2      63.5       31     32.8      0.00      0.00      73.8     0.33      1014.1     1.3      NE    56   3.5       N     4   7.02    263      -74.8
   10/20/2017 20:30      64.4      63.8       31     33.0      0.00      0.00      73.8     0.33      1014.0     1.9      NE    43   5.2      NE    38   7.08    263      -75.4
   10/20/2017 20:20      65.1      64.1       32     34.1      0.00      0.00      73.8     0.33      1014.1     1.4      NE    50   3.2     NNE    26   7.17    263      -75.4
   10/20/2017 20:10      65.4      64.7       33     35.2      0.00      0.00      73.8     0.33      1014.0     2.4     NNE    20   4.8       N     5   7.05    263      -75.6
   10/20/2017 20:00      65.7      65.1       35     37.0      0.00      0.00      73.8     0.33      1014.0     3.0     NNE    23   6.4       N   353   7.26    263      -75.5
   10/20/2017 19:50      65.9      65.3       37     38.2      0.00      0.00      73.7     0.33      1013.9     3.5     NNE    13   6.3      NW   324   7.08    263      -75.0
   10/20/2017 19:40      66.6      65.6       36     38.5      0.00      0.00      73.7     0.33      1013.9     3.6     NNE    13   7.0     NNE    28   7.16    263      -75.6
   10/20/2017 19:30      66.7      66.2       38     40.0      0.00      0.00      73.7     0.33      1013.7     3.0     NNE    19   6.2       N   350   7.22    264      -76.3
   10/20/2017 19:20      66.9      66.4       46     45.1      0.00      0.00      73.7     0.33      1013.5     1.5       N     4   4.7     NNW   330   7.00    264      -76.3
   10/20/2017 19:10      67.3      66.6       49     47.1      0.00      0.00      73.7     0.33      1013.5     2.1     WNW   297   3.6       N   353   7.00    264      -75.7
   10/20/2017 19:00      67.6      66.9       49     47.6      0.00      0.00      73.7     0.33      1013.3     1.9     WNW   298   4.8     NNW   336   6.91    264      -73.1
   10/20/2017 18:50      67.9      67.3       48     47.5      0.00      0.00      73.6     0.33      1013.2     2.5     WNW   284   4.5     WSW   257   7.02    264      -56.4
   10/20/2017 18:40      68.4      67.6       48     47.3      0.00      0.00      73.6     0.33      1013.0     2.7     WNW   291   6.2      NW   308   7.02    264      -43.8
   10/20/2017 18:30      68.7      68.0       48     47.6      0.00      0.00      73.6     0.33      1012.9     3.4       W   281   7.6       W   267   6.93    263      -50.5
   10/20/2017 18:20      69.3      68.3       47     47.8      0.00      0.00      73.6     0.33      1012.8     3.1     WNW   300   7.1     WNW   297   6.96    263      -58.7
   10/20/2017 18:10      69.3      69.0       46     47.6      0.00      0.00      73.5     0.33      1012.6     3.6       W   266   6.5     WSW   250   7.06    263      -65.1
   10/20/2017 18:00      69.6      69.0       47     47.9      0.00      0.00      73.5     0.33      1012.6     4.8      SW   236   7.4     WSW   257   7.20    263      -41.9
   10/20/2017 17:50      70.2      69.2       46     48.2      0.00      0.00      73.5     0.33      1012.7     5.4      SW   236   7.9     WSW   245   7.31    263      -20.8
   10/20/2017 17:40      70.7      69.9       46     48.5      0.00      0.00      73.5     0.33      1012.4     4.8      SW   234   8.8     WSW   252   7.10    263      -23.7
   10/20/2017 17:30      71.3      70.3       46     48.9      0.00      0.00      73.4     0.33      1012.1     4.4      SW   214   8.1      SW   220   7.10    263      -11.9
   10/20/2017 17:20      72.1      71.1       46     49.8      0.00      0.00      73.4     0.33      1012.2     5.0      SW   221   8.7       S   178   7.22    263       11.4
   10/20/2017 17:10      72.3      71.7       46     50.3      0.00      0.00      73.4     0.33      1012.1     6.2     WSW   244  10.3     WSW   248   7.21    263       52.6
   10/20/2017 17:00      73.6      72.0       46     50.8      0.00      0.00      73.3     0.33      1012.1     6.0      SW   228  11.6      SW   222   7.14    263       69.5
   10/20/2017 16:50      75.5      73.3       44     51.0      0.00      0.00      73.3     0.33      1011.9     5.2     WSW   248   8.7      SW   223   7.38    263      102.8
   10/20/2017 16:40      75.5      74.8       43     51.1      0.00      0.00      73.3     0.33      1011.9     3.3     WSW   240   7.4      SW   233   7.45    263      174.7
   10/20/2017 16:30      75.3      74.4       44     51.2      0.00      0.00      73.3     0.33      1011.9     2.8     WSW   242   6.0      SW   227   7.39    263      186.4
   10/20/2017 16:20      75.5      74.3       44     51.4      0.00      0.00      73.3     0.33      1011.9     4.4     SSW   209   8.2     WSW   240   7.26    263      199.8
   10/20/2017 16:10      78.5      75.2       40     50.2      0.00      0.00      73.2     0.33      1011.9     3.7       S   190   8.8     SSW   199   7.17    263      197.6
   10/20/2017 16:00      78.4      75.7       36     48.3      0.00      0.00      73.2     0.33      1011.9     0.9     WSW   256   2.7     SSW   213   7.21    262      208.2
   10/20/2017 15:50      75.7      75.0       38     47.6      0.00      0.00      73.2     0.33      1011.9     2.7     WSW   247   5.5      SW   214   7.18    262      169.4
   10/20/2017 15:40      75.9      75.3       36     46.9      0.00      0.00      73.1     0.33      1011.9     4.4      SW   225   7.4       W   267   7.08    262      235.0
   10/20/2017 15:30      76.3      75.2       35     46.5      0.00      0.00      73.1     0.33      1012.0     4.5     WSW   237   7.5      SW   236   7.61    262      243.8
   10/20/2017 15:20      75.8      75.1       37     47.3      0.00      0.00      73.1     0.33      1012.0     4.2       W   275   8.2       W   260   7.61    262      257.7
   10/20/2017 15:10      76.3      75.3       37     47.3      0.00      0.00      73.1     0.33      1012.0     4.7     WSW   246   9.4       W   263   7.90    262      305.4
   10/20/2017 15:00      77.6      75.8       39     49.4      0.00      0.00      73.0     0.33      1011.9     3.6     SSW   202   8.3     WSW   258   7.87    262      364.3
   10/20/2017 14:50      77.5      76.4       41     51.2      0.00      0.00      73.0     0.33      1012.0     2.0     WNW   282   6.6      SE   140   7.78    261      401.6
   10/20/2017 14:40      77.7      76.6       39     50.2      0.00      0.00      73.0     0.33      1012.1     2.0       W   262   5.8     WSW   242   7.42    262      415.3
   10/20/2017 14:30      77.4      75.3       43     52.1      0.00      0.00      73.0     0.33      1012.3     1.1      NE    34   3.8     NNE    17   7.57    262      463.6
   10/20/2017 14:20      75.3      73.7       46     52.5      0.00      0.00      73.0     0.33      1012.4     1.7      NE    54   5.3      SE   130   7.53    263      433.3
   10/20/2017 14:10      74.8      72.7       48     53.1      0.00      0.00      73.0     0.33      1012.5     2.4       E    79   5.7     ENE    75   7.47    262      472.1
   10/20/2017 14:00      73.1      72.1       51     53.3      0.00      0.00      72.9     0.33      1012.5     2.8       E    98   6.1     ENE    62   7.51    263      299.4
   10/20/2017 13:50      73.2      71.8       50     53.1      0.00      0.00      72.9     0.33      1012.7     2.9     ENE    70   6.2     ENE    74   7.39    263      188.3
   10/20/2017 13:40      73.0      72.5       50     52.8      0.00      0.00      72.9     0.33      1012.7     2.1     ENE    74   4.7      SE   141   7.54    263      154.7
   10/20/2017 13:30      72.8      72.5       50     53.1      0.00      0.00      72.9     0.33      1012.7     1.7     ENE    61   4.1     NNE    31   7.29    263      116.8
   10/20/2017 13:20      73.5      72.4       49     52.5      0.00      0.00      72.9     0.33      1012.7     1.6      NE    51   3.7     ENE    57   7.39    263      104.1
   10/20/2017 13:10      73.5      72.7       47     51.6      0.00      0.00      72.9     0.33      1012.8     1.1       N   351   2.2     WNW   286   7.39    263       98.1
   10/20/2017 13:00      73.7      73.2       48     52.6      0.00      0.00      72.8     0.33      1013.0     1.6     NNE    20   3.8       N     3   7.38    263       99.3
   10/20/2017 12:50      75.2      73.5       48     53.2      0.00      0.00      72.9     0.33      1013.1     2.3     NNE    29   5.4      NE    52   7.89    263      203.6
   10/20/2017 12:40      74.3      73.1       47     51.9      0.00      0.00      72.8     0.33      1013.3     1.7      NE    52   4.5     ENE    71   7.74    263      425.8
   10/20/2017 12:30      73.2      72.2       46     50.9      0.00      0.00      72.9     0.33      1013.3     0.4     WSW   242   1.9     WNW   294   7.60    263      106.0
   10/20/2017 12:20      73.9      72.2       46     50.8      0.00      0.00      72.8     0.33      1013.2     1.3     ESE   103   5.0      SE   135   7.46    263      157.1
   10/20/2017 12:10      73.2      70.8       47     50.3      0.00      0.00      72.9     0.33      1013.4     1.5       S   175   3.6       S   180   7.43    263      443.9
   10/20/2017 12:00      71.8      70.9       47     50.1      0.00      0.00      72.9     0.33      1013.7     2.0     SSW   193   6.3      SW   215   7.44    263       65.6
   10/20/2017 11:50      72.0      70.9       47     50.1      0.00      0.00      72.9     0.33      1014.0     3.0     WSW   247   6.6     WSW   244   7.60    263      208.5
   10/20/2017 11:40      73.3      71.7       47     51.1      0.00      0.00      72.9     0.33      1014.0     2.2      SW   227   7.6      SW   233   7.43    263      223.9
   10/20/2017 11:30      73.5      72.2       50     53.1      0.00      0.00      72.9     0.33      1014.1     1.4     SSE   148   4.2       S   174   7.58    262      439.1
   10/20/2017 11:20      72.8      71.7       52     53.6      0.00      0.00      72.9     0.33      1014.2     1.8       N   350   4.5      NW   317   7.46    262      409.4
   10/20/2017 11:10      72.2      71.1       53     53.5      0.00      0.00      73.0     0.33      1014.1     1.8     NNW   335   4.4       N   355   7.60    263      386.5
   10/20/2017 11:00      72.0      69.8       54     53.5      0.00      0.00      73.0     0.33      1014.2     1.0     NNE    34   3.3      NE    44   7.55    262      371.9
   10/20/2017 10:50      70.1      69.4       55     53.0      0.00      0.00      73.0     0.33      1014.3     2.0     WSW   257   5.8     WSW   253   7.49    263      346.7
   10/20/2017 10:40      69.8      68.6       57     53.2      0.00      0.00      73.0     0.33      1014.4     0.8     SSE   154   2.4      SE   141   7.64    263      271.0
   10/20/2017 10:30      69.0      68.3       59     53.6      0.00      0.00      73.0     0.33      1014.4     1.7       S   172   4.2      SE   142   7.70    263      347.2
   10/20/2017 10:20      68.5      68.0       60     53.7      0.00      0.00      73.1     0.33      1014.4     2.0      NW   321   4.7     WSW   252   7.67    263      319.8
   10/20/2017 10:10      68.3      66.2       62     53.9      0.00      0.00      73.1     0.33      1014.5     0.7      NW   310   1.7      NW   311   7.67    264      298.8
   10/20/2017 10:00      66.4      65.9       64     53.5      0.00      0.00      73.1     0.33      1014.7     2.5     WSW   243   4.7     WNW   287   7.82    264      209.2
   10/20/2017 09:50      66.3      65.2       65     53.8      0.00      0.00      73.1     0.34      1014.7     1.9     WNW   290   5.1      NW   305   7.92    264      273.0
   10/20/2017 09:40      65.5      64.9       67     53.9      0.00      0.00      73.1     0.34      1014.5     2.3     WSW   237   5.0       W   279   7.90    265      167.4
   10/20/2017 09:30      65.1      63.3       70     53.8      0.00      0.00      73.2     0.34      1014.7     2.7      SW   229   5.2     WSW   249   7.86    264      237.4
   10/20/2017 09:20      63.5      62.3       72     53.5      0.00      0.00      73.2     0.34      1014.9     3.1     WSW   247   6.2     WSW   249   7.70    266      145.8
   10/20/2017 09:10      62.6      62.2       72     53.4      0.00      0.00      73.2     0.34      1014.6     2.9     WSW   239   5.3     WSW   246   7.82    266       77.2
   10/20/2017 09:00      62.8      62.1       72     53.4      0.00      0.00      73.3     0.34      1014.6     3.2      SW   235   6.8      SW   230   7.75    267       77.1
   10/20/2017 08:50      62.9      62.4       72     53.4      0.00      0.00      73.2     0.34      1014.3     4.2     WSW   245   7.2     WSW   253   7.95    267       93.0
   10/20/2017 08:40      62.6      61.5       73     53.3      0.00      0.00      73.3     0.34      1014.3     3.8      SW   234   6.3     SSW   209   7.72    268      144.6
   10/20/2017 08:30      61.6      61.1       74     53.1      0.00      0.00      73.3     0.34      1014.3     4.1      SW   219   6.1      SW   218   7.69    268       98.9
   10/20/2017 08:20      61.4      60.4       75     53.1      0.00      0.00      73.3     0.34      1014.3     3.5      SW   219   6.3     WSW   244   7.56    268       25.3
   10/20/2017 08:10      60.5      59.5       77     52.8      0.00      0.00      73.4     0.34      1014.4     3.0      SW   233   4.8     WSW   250   7.97    269      -13.4
   10/20/2017 08:00      59.7      59.0       78     52.7      0.00      0.00      73.4     0.34      1014.2     2.8      SW   220   5.4     SSW   212   7.53    270      -25.8
   10/20/2017 07:50      59.1      58.3       80     52.5      0.00      0.00      73.4     0.34      1014.0     3.5     SSW   207   6.9      SW   216   7.44    271      -32.4
   10/20/2017 07:40      58.6      57.9       81     52.4      0.00      0.00      73.4     0.34      1013.9     3.1     SSW   199   5.3       S   176   7.45    273      -36.4
   10/20/2017 07:30      58.1      56.5       84     52.6      0.00      0.00      73.5     0.34      1014.0     3.5     SSW   209   5.3     SSW   206   7.31    282      -39.7
   10/20/2017 07:20      56.7      55.8       87     52.2      0.00      0.00      73.5     0.34      1013.9     1.4       S   175   3.7       S   179   7.13    295      -41.7
   10/20/2017 07:10      56.7      55.8       85     51.7      0.00      0.00      73.5     0.34      1013.9     0.9     SSE   167   1.8       S   176   7.09    293      -48.1
   10/20/2017 07:00      57.5      56.5       83     51.8      0.00      0.00      73.5     0.34      1014.1     0.5     SSE   165   1.4       S   171   7.04    291      -52.5
   10/20/2017 06:50      58.2      57.2       82     52.2      0.00      0.00      73.5     0.34      1014.0     0.0       N     0   0.0     SSW   192   7.25    288      -55.8
   10/20/2017 06:40      58.6      57.9       82     52.6      0.00      0.00      73.5     0.34      1014.0     0.4       S   184   1.5       S   179   7.31    285      -56.9
   10/20/2017 06:30      59.0      58.5       81     52.8      0.00      0.00      73.5     0.34      1014.1     1.3     WSW   241   4.4     WSW   255   7.37    281      -57.6
   10/20/2017 06:20      59.8      58.8       80     53.1      0.00      0.00      73.5     0.34      1014.1     1.2     WSW   257   3.0      SW   231   7.31    281      -57.3
   10/20/2017 06:10      60.1      59.4       81     53.8      0.00      0.00      73.6     0.34      1014.1     1.0     WNW   302   2.0      NW   324   7.64    284      -57.8
   10/20/2017 06:00      60.4      59.8       80     54.0      0.00      0.00      73.6     0.34      1013.9     0.4       N   354   1.4      NW   311   7.66    282      -58.9
   10/20/2017 05:50      60.5      60.2       80     54.1      0.00      0.00      73.6     0.34      1013.8     0.6     SSW   195   2.3     SSW   200   7.66    274      -32.6
   10/20/2017 05:40      60.7      60.2       80     54.0      0.00      0.00      73.7     0.34      1013.8     0.8     SSW   205   2.0      SW   226   7.58    270      -14.0
   10/20/2017 05:30      60.6      60.2       80     54.1      0.00      0.00      73.7     0.34      1013.8     0.6     SSW   209   2.1     WSW   250   7.64    270      -13.6
   10/20/2017 05:20      60.6      60.1       81     54.4      0.00      0.00      73.7     0.34      1013.8     0.9     WSW   249   2.7       W   270   7.63    269      -12.4
   10/20/2017 05:10      60.3      59.8       82     54.5      0.00      0.00      73.7     0.34      1013.7     1.2      SW   235   2.8     WSW   250   7.37    270      -11.7
   10/20/2017 05:00      60.1      58.7       84     54.6      0.00      0.00      73.8     0.34      1013.5     2.3     SSW   205   3.9     SSW   200   7.55    270       -9.4
   10/20/2017 04:50      59.0      58.2       85     53.8      0.00      0.00      73.8     0.34      1013.4     0.2      SW   221   1.8     WSW   248   7.48    271       -8.7
   10/20/2017 04:40      58.3      58.0       84     53.4      0.00      0.00      73.8     0.34      1013.3     0.7     SSW   202   2.4       S   184   7.48    273      -22.6
   10/20/2017 04:30      59.3      58.1       82     53.2      0.00      0.00      73.8     0.34      1013.2     0.7     SSE   165   2.4     SSW   192   7.34    279      -45.6
   10/20/2017 04:20      60.0      59.1       81     53.6      0.00      0.00      73.9     0.34      1013.3     0.6     SSW   196   1.7     SSW   203   7.48    279      -50.8
   10/20/2017 04:10      60.3      59.8       80     53.9      0.00      0.00      73.9     0.34      1013.2     0.5      SE   126   1.8     SSW   195   7.51    275      -50.3
   10/20/2017 04:00      60.2      59.8       81     54.0      0.00      0.00      73.9     0.34      1013.4     0.5     SSW   198   2.0     WSW   241   7.50    270      -21.4
   10/20/2017 03:50      60.1      59.3       81     54.0      0.00      0.00      74.0     0.34      1013.3     1.1     SSW   203   3.6     SSW   206   7.46    270      -11.0
   10/20/2017 03:40      59.5      59.0       82     53.8      0.00      0.00      74.0     0.34      1013.3     0.5       S   184   1.9     SSW   206   7.42    270      -10.5
   10/20/2017 03:30      59.1      58.4       84     54.0      0.00      0.00      74.0     0.34      1013.4     0.8       S   183   2.4      SW   225   7.45    270      -11.7
   10/20/2017 03:20      58.6      56.9       88     53.8      0.00      0.00      74.0     0.34      1013.7     0.9     SSW   192   2.0     SSW   209   7.49    276       -7.8
   10/20/2017 03:10      57.0      56.4       88     53.2      0.00      0.00      74.0     0.34      1013.6     0.4      SE   143   1.1      SE   141   7.54    294       -9.5
   10/20/2017 03:00      56.6      56.0       88     52.7      0.00      0.00      74.0     0.34      1013.7     0.3       S   171   1.0       S   174   7.47    300      -13.1
   10/20/2017 02:50      56.9      56.0       88     52.6      0.00      0.00      74.1     0.34      1013.7     0.6       S   171   1.3       S   187   7.59    301      -26.9
   10/20/2017 02:40      56.8      56.3       88     53.1      0.00      0.00      74.1     0.34      1013.8     1.0     WSW   241   2.5       W   275   7.57    300      -33.2
   10/20/2017 02:30      57.0      56.3       88     53.2      0.00      0.00      74.1     0.34      1013.7     0.0       N     0   0.0     SSW   204   7.59    299      -37.2
   10/20/2017 02:20      56.9      56.3       88     53.2      0.00      0.00      74.2     0.34      1013.7     0.9     SSW   195   2.0     SSW   198   7.39    296      -40.6
   10/20/2017 02:10      56.8      56.0       87     52.5      0.00      0.00      74.2     0.34      1013.6     0.7       S   169   1.9     SSE   168   7.65    291      -44.0
   10/20/2017 02:00      57.4      56.4       86     52.7      0.00      0.00      74.2     0.34      1013.8     0.2     ENE    77   1.4       E    83   7.80    288      -44.3
   10/20/2017 01:50      57.3      56.9       87     53.1      0.00      0.00      74.2     0.34      1013.9     0.5      SW   224   1.6      SW   222   7.76    285      -44.7
   10/20/2017 01:40      57.3      56.8       86     52.9      0.00      0.00      74.2     0.34      1013.8     1.2     SSE   167   2.1      SW   218   7.65    282      -46.3
   10/20/2017 01:30      57.7      56.9       86     53.1      0.00      0.00      74.2     0.34      1013.9     0.4     SSE   148   1.2      SE   136   7.53    281      -44.2
   10/20/2017 01:20      58.0      57.4       86     53.5      0.00      0.00      74.3     0.34      1013.9     0.3       S   174   1.4       S   183   7.61    280      -43.5
   10/20/2017 01:10      58.0      57.5       85     53.2      0.00      0.00      74.3     0.34      1013.8     0.1       S   187   0.8       S   187   7.49    278      -46.8
   10/20/2017 01:00      57.9      57.4       85     53.1      0.00      0.00      74.3     0.34      1013.9     1.1      SW   218   1.9     WSW   246   7.49    276      -48.7
   10/20/2017 00:50      57.6      57.1       83     52.3      0.00      0.00      74.3     0.34      1013.6     0.4      SE   132   1.6     WSW   247   7.39    277      -50.3
   10/20/2017 00:40      57.6      57.1       81     51.5      0.00      0.00      74.3     0.34      1013.8     0.0     ESE   116   0.7     ESE   116   7.58    275      -50.9
   10/20/2017 00:30      58.2      57.2       81     51.8      0.00      0.00      74.3     0.34      1014.1     0.3     SSE   153   0.8     SSE   161   7.64    272      -51.1
   10/20/2017 00:20      58.1      57.6       81     52.0      0.00      0.00      74.3     0.34      1014.2     1.3       S   175   2.4     WSW   238   7.71    272      -50.4
   10/20/2017 00:10      57.9      57.6       81     51.9      0.00      0.00      74.3     0.34      1014.0     0.2     SSE   163   1.4     SSE   146   7.53    272      -51.1
   10/20/2017 00:00      57.9      57.2       81     51.6      0.00      0.00      74.4     0.34      1013.9     1.1     SSW   208   2.7      SW   218   7.67    271      -50.8
   10/19/2017 23:50      58.2      57.6       81     52.0      0.00      0.00      74.4     0.34      1014.0     0.3       S   190   1.4     SSW   199   7.58    273      -50.5
   10/19/2017 23:40      58.6      57.9       80     52.1      0.00      0.00      74.4     0.34      1014.1     0.1     SSE   154   1.1     SSW   192   7.64    272      -51.2
   10/19/2017 23:30      58.7      58.2       80     52.3      0.00      0.00      74.4     0.34      1014.1     0.3       S   182   1.2       S   184   7.64    272      -51.7
   10/19/2017 23:20      58.7      58.3       81     52.6      0.00      0.00      74.4     0.34      1013.9     0.6     SSE   148   1.7      SE   145   7.65    272      -52.8
   10/19/2017 23:10      58.7      58.3       82     52.8      0.00      0.00      74.4     0.34      1013.9     0.3     SSE   162   1.6      SE   141   7.71    273      -53.5
   10/19/2017 23:00      58.8      58.3       82     52.9      0.00      0.00      74.4     0.34      1013.8     0.3     SSE   167   1.4       S   185   7.57    273      -54.3
   10/19/2017 22:50      59.2      58.5       82     53.2      0.00      0.00      74.4     0.34      1013.8     0.3     SSE   155   1.3     SSE   155   7.56    273      -54.5
   10/19/2017 22:40      59.4      58.9       81     53.3      0.00      0.00      74.4     0.34      1013.6     0.6     SSE   159   1.3     SSE   154   7.55    272      -55.8
   10/19/2017 22:30      60.1      59.2       79     53.2      0.00      0.00      74.4     0.34      1013.6     0.7     SSE   166   1.9     SSW   191   7.53    271      -56.0
   10/19/2017 22:20      60.3      59.8       80     53.9      0.00      0.00      74.4     0.34      1013.6     0.6     SSW   199   1.8     SSW   201   7.70    271      -55.9
   10/19/2017 22:10      60.3      59.6       81     54.0      0.00      0.00      74.4     0.34      1013.6     1.1     SSW   196   2.4     SSW   201   7.68    272      -57.2
   10/19/2017 22:00      60.1      59.6       80     53.8      0.00      0.00      74.4     0.34      1013.6     1.0       S   183   1.6     SSE   147   7.64    270      -57.5
   10/19/2017 21:50      60.4      59.8       81     54.0      0.00      0.00      74.4     0.34      1013.5     0.1      SE   136   0.9      SE   129   7.76    270      -57.3
   10/19/2017 21:40      60.5      59.9       80     54.0      0.00      0.00      74.4     0.34      1013.5     0.0     SSE   163   0.4     SSE   159   7.61    270      -58.2
   10/19/2017 21:30      61.1      60.2       80     54.4      0.00      0.00      74.4     0.34      1013.3     0.2       S   184   0.8       S   184   7.67    270      -58.3
   10/19/2017 21:20      61.1      60.5       79     54.1      0.00      0.00      74.4     0.34      1013.3     0.0       S   184   0.5       S   184   7.64    270      -58.8
   10/19/2017 21:10      61.7      60.8       77     53.9      0.00      0.00      74.4     0.34      1013.3     0.1       S   184   0.7       S   184   7.90    270      -60.7
   10/19/2017 21:00      62.6      61.4       76     54.5      0.00      0.00      74.3     0.34      1013.1     0.2       S   184   1.0       S   184   7.92    268      -62.2
   10/19/2017 20:50      63.0      62.3       76     54.8      0.00      0.00      74.3     0.34      1013.0     0.1     SSE   165   0.8       S   184   7.91    268      -64.5
   10/19/2017 20:40      63.5      62.7       74     54.6      0.00      0.00      74.3     0.34      1012.9     0.0       E    81   0.9       E    85   7.88    269      -65.7
   10/19/2017 20:30      63.8      63.1       73     54.4      0.00      0.00      74.3     0.34      1012.7     0.5       E    81   2.3     ESE   105   7.91    267      -66.1
   10/19/2017 20:20      64.1      63.3       71     54.1      0.00      0.00      74.3     0.34      1012.6     0.6     ENE    68   1.9       E    95   8.00    266      -65.9
   10/19/2017 20:10      64.6      63.7       69     53.8      0.00      0.00      74.3     0.34      1012.5     0.2       E    80   1.1     ESE   116   8.20    266      -65.8
   10/19/2017 20:00      65.2      64.3       68     53.6      0.00      0.00      74.3     0.34      1012.5     0.2     ENE    75   2.0       E   100   8.04    266      -66.3
   10/19/2017 19:50      65.6      64.9       66     53.6      0.00      0.00      74.3     0.34      1012.4     0.5     ENE    57   1.5      NE    54   7.99    266      -67.3
   10/19/2017 19:40      66.6      65.3       64     53.5      0.00      0.00      74.2     0.34      1012.3     0.6     ENE    78   2.2     ENE    65   7.91    266      -67.6
   10/19/2017 19:30      67.4      66.3       65     54.5      0.00      0.00      74.2     0.34      1012.2     1.2     NNW   345   2.7      NW   309   7.96    265      -68.3
   10/19/2017 19:20      67.3      66.6       64     54.5      0.00      0.00      74.2     0.34      1012.2     1.7      NW   324   3.2      NW   312   7.91    265      -68.2
   10/19/2017 19:10      67.4      66.3       61     53.0      0.00      0.00      74.2     0.34      1012.1     1.5     WSW   243   3.0      NW   325   7.81    264      -66.6
   10/19/2017 19:00      68.1      67.1       60     53.3      0.00      0.00      74.1     0.34      1012.0     0.2     SSE   160   1.3       S   179   7.93    264      -70.2
   10/19/2017 18:50      69.1      67.9       61     54.3      0.00      0.00      74.1     0.34      1011.8     1.0     ESE   115   2.5     ESE   118   8.31    264      -71.4
   10/19/2017 18:40      69.8      68.7       63     55.8      0.00      0.00      74.1     0.34      1011.8     0.9       E    91   2.5     ENE    65   8.15    264      -72.0
   10/19/2017 18:30      70.8      69.5       61     55.9      0.00      0.00      74.1     0.34      1011.7     0.8       E    85   2.4      SE   138   8.01    264      -73.1
   10/19/2017 18:20      71.6      70.5       59     55.8      0.00      0.00      74.0     0.34      1011.6     0.4      NE    55   2.8     ENE    71   8.10    263      -73.2
   10/19/2017 18:10      73.6      71.3       56     55.7      0.00      0.00      74.0     0.34      1011.5     1.7      NE    49   3.5      NE    49   8.02    263      -70.2
   10/19/2017 18:00      74.5      73.4       42     49.3      0.00      0.00      74.0     0.34      1011.3     1.1     NNW   346   2.7     NNE    24   8.13    263      -67.7
   10/19/2017 17:50      75.4      74.2       37     46.4      0.00      0.00      73.9     0.34      1011.3     1.0       W   260   2.9     WNW   288   8.14    262      -63.9
   10/19/2017 17:40      75.9      75.2       37     47.3      0.00      0.00      73.9     0.34      1011.3     0.6       W   277   2.7      SW   216   8.04    262      -60.5
   10/19/2017 17:30      76.7      75.7       39     49.5      0.00      0.00      73.9     0.34      1011.4     2.8     WSW   246   7.1      SW   232   8.22    262      -26.8
   10/19/2017 17:20      76.6      76.1       36     47.4      0.00      0.00      73.8     0.34      1011.4     2.0      NW   316   4.8     NNW   344   8.05    262       -9.5
   10/19/2017 17:10      76.7      76.0       37     47.8      0.00      0.00      73.8     0.34      1011.4     2.6     NNW   338   4.3       N     3   8.11    262       10.6
   10/19/2017 17:00      76.5      76.0       46     54.0      0.00      0.00      73.8     0.34      1011.4     2.6      SW   222   5.9      SW   235   8.14    263       31.4
   10/19/2017 16:50      76.5      75.8       47     54.5      0.00      0.00      73.7     0.34      1011.4     3.0     SSE   161   6.1      SE   136   8.13    263       53.8
   10/19/2017 16:40      76.6      76.1       47     54.9      0.00      0.00      73.7     0.34      1011.4     2.9       S   171   7.2       S   170   7.95    263       76.5
   10/19/2017 16:30      76.5      75.7       48     55.1      0.00      0.00      73.7     0.34      1011.5     4.1     SSW   198   6.6     SSW   195   8.00    263       98.8
   10/19/2017 16:20      76.5      75.7       50     56.2      0.00      0.00      73.7     0.34      1011.5     4.8     SSE   167   9.1     SSE   157   7.89    263      119.2
   10/19/2017 16:10      77.3      76.2       50     56.3      0.00      0.00      73.7     0.34      1011.6     5.1       S   180  10.0      SE   131   7.78    263      144.3
   10/19/2017 16:00      78.6      76.5       48     56.1      0.00      0.00      73.6     0.34      1011.6     6.0       S   189  11.0     SSW   213   7.80    263      168.2
   10/19/2017 15:50      78.6      78.2       46     55.8      0.00      0.00      73.6     0.34      1011.6     4.8     SSW   202   8.8     SSW   214   8.18    262      190.8
   10/19/2017 15:40      78.8      78.3       46     56.0      0.00      0.00      73.5     0.34      1011.6     4.9     SSW   196   8.1     SSW   194   7.96    262      205.2
   10/19/2017 15:30      80.0      78.5       42     54.2      0.00      0.00      73.5     0.34      1011.5     5.1       S   180   9.3      SE   135   8.00    262      217.2
   10/19/2017 15:20      80.3      79.4       40     53.7      0.00      0.00      73.4     0.34      1011.5     4.2       S   182  11.9     SSW   207   8.18    262      233.2
   10/19/2017 15:10      79.6      78.4       44     55.1      0.00      0.00      73.4     0.34      1011.4     4.7     SSE   168   7.2       S   170   8.33    262      260.3
   10/19/2017 15:00      79.8      78.4       45     55.9      0.00      0.00      73.4     0.34      1011.4     5.6       S   170   8.4     SSE   153   8.23    262      274.6
   10/19/2017 14:50      82.1      79.5       43     55.9      0.00      0.00      73.4     0.34      1011.3     5.9     SSW   195  10.3     SSW   198   7.96    261      305.4
   10/19/2017 14:40      83.4      81.5       40     55.5      0.00      0.00      73.4     0.34      1011.2     3.4      SW   230   7.3      SW   218   8.22    261      316.4
   10/19/2017 14:30      83.5      82.6       36     53.3      0.00      0.00      73.3     0.34      1011.2     1.6     ENE    63   3.7     ENE    73   8.31    261      328.7
   10/19/2017 14:20      82.9      81.4       35     51.9      0.00      0.00      73.3     0.34      1011.2     1.6     SSE   157   6.0       S   173   8.29    261      319.2
   10/19/2017 14:10      82.8      81.9       34     51.5      0.00      0.00      73.3     0.34      1011.2     2.5       E    89   5.0      NE    43   7.98    261      343.0
   10/19/2017 14:00      82.5      81.5       33     50.4      0.00      0.00      73.3     0.34      1011.5     1.6       N     6   3.9     NNW   347   7.81    261      359.2
   10/19/2017 13:50      82.2      80.3       34     50.0      0.00      0.00      73.3     0.34      1011.7     2.2      SE   127   6.7      SE   128   7.92    261      381.3
   10/19/2017 13:40      82.5      80.7       34     50.9      0.00      0.00      73.3     0.34      1011.9     1.3     SSE   152   4.0      SE   141   8.05    261      375.9
   10/19/2017 13:30      80.9      79.7       36     51.3      0.00      0.00      73.2     0.34      1012.1     1.9      NE    47   3.6       E    84   8.35    261      364.8
   10/19/2017 13:20      80.2      79.6       38     51.7      0.00      0.00      73.3     0.34      1012.3     1.7     NNE    24   4.1      NW   310   8.31    261      353.4
   10/19/2017 13:10      79.8      78.7       39     52.0      0.00      0.00      73.2     0.34      1012.4     1.5     NNW   344   3.5      NE    48   8.32    261      302.6
   10/19/2017 13:00      80.4      78.7       38     52.2      0.00      0.00      73.3     0.34      1012.7     2.6      NE    52   6.0       E    86   8.43    261      326.1
   10/19/2017 12:50      80.3      78.7       42     54.1      0.00      0.00      73.3     0.34      1012.8     1.1     WNW   300   3.7     WSW   251   8.48    261      419.6
   10/19/2017 12:40      79.0      78.4       43     54.2      0.00      0.00      73.3     0.34      1013.1     1.1     WNW   283   3.1     WSW   249   8.44    262      221.2
   10/19/2017 12:30      78.9      77.4       42     53.1      0.00      0.00      73.2     0.34      1013.3     0.8       N     9   3.2     NNE    29   8.09    261      286.9
   10/19/2017 12:20      78.0      76.8       43     53.6      0.00      0.00      73.3     0.34      1013.4     1.1       E    94   3.5       E    88   8.28    261      360.8
   10/19/2017 12:10      77.3      75.7       46     54.3      0.00      0.00      73.3     0.34      1013.6     1.1       E    90   3.4     ENE    63   8.05    262      327.1
   10/19/2017 12:00      75.9      74.4       48     54.0      0.00      0.00      73.3     0.34      1013.7     1.4     WSW   246   3.1       W   269   8.20    262      306.7
   10/19/2017 11:50      75.9      74.6       49     54.5      0.00      0.00      73.3     0.34      1013.9     2.8     WSW   242   4.6     WSW   241   8.25    262      277.1
   10/19/2017 11:40      75.8      73.6       50     54.8      0.00      0.00      73.3     0.34      1014.1     1.0       W   272   3.0     WNW   291   8.64    261      361.8
   10/19/2017 11:30      73.7      73.2       53     55.2      0.00      0.00      73.3     0.34      1014.1     1.9      SW   223   5.4       W   269   8.38    262      366.0
   10/19/2017 11:20      74.3      73.3       53     55.6      0.00      0.00      73.4     0.34      1014.2     2.1     WNW   300   4.3     WNW   289   8.44    262      389.6
   10/19/2017 11:10      74.6      72.8       53     55.8      0.00      0.00      73.4     0.34      1014.2     1.3      NW   316   3.9       W   266   8.34    261      376.2
   10/19/2017 11:00      73.5      72.5       54     55.5      0.00      0.00      73.5     0.34      1014.2     1.3     WNW   298   3.9      NW   326   8.49    262      362.9
   10/19/2017 10:50      73.5      71.3       57     56.1      0.00      0.00      73.5     0.34      1014.3     0.9       W   277   2.5      NW   320   8.40    262      348.9
   10/19/2017 10:40      71.4      69.7       62     56.6      0.00      0.00      73.5     0.34      1014.3     1.5       N   359   3.7       N    10   8.10    263      337.2
   10/19/2017 10:30      70.4      69.3       63     56.6      0.00      0.00      73.5     0.34      1014.3     1.7       N     4   4.0     NNE    26   8.13    263      319.9
   10/19/2017 10:20      70.4      69.6       63     56.9      0.00      0.00      73.6     0.34      1014.3     1.4     ENE    69   3.4      NW   305   8.11    263      300.7
   10/19/2017 10:10      70.1      69.3       64     56.9      0.00      0.00      73.6     0.34      1014.4     1.0      NE    41   2.7       E    89   8.22    263      287.4
   10/19/2017 10:00      69.5      69.1       65     56.9      0.00      0.00      73.6     0.34      1014.5     0.7     WSW   259   2.3      SW   234   8.26    263      269.1
   10/19/2017 09:50      69.0      67.2       68     57.0      0.00      0.00      73.7     0.34      1014.6     0.5     ENE    65   2.3       E    79   8.25    264      224.3
   10/19/2017 09:40      67.5      66.7       69     56.7      0.00      0.00      73.7     0.34      1014.6     0.8     NNW   328   2.3     NNW   339   8.22    264      191.1
   10/19/2017 09:30      66.8      65.7       71     56.5      0.00      0.00      73.8     0.34      1014.6     1.0     NNE    23   2.2       N     1   8.25    264      211.9
   10/19/2017 09:20      66.6      65.7       71     56.5      0.00      0.00      73.8     0.34      1014.7     1.0     WNW   303   2.7     WNW   302   8.36    264      198.0
   10/19/2017 09:10      65.7      65.2       73     56.5      0.00      0.00      73.8     0.34      1014.5     0.5      NW   311   2.1       N     7   8.25    265      158.5
   10/19/2017 09:00      65.5      65.0       67     54.2      0.00      0.00      73.9     0.34      1014.5     0.9     NNE    30   2.0     ENE    61   8.06    266      150.1
   10/19/2017 08:50      65.0      63.1       66     52.5      0.00      0.00      73.9     0.34      1014.6     0.3       W   279   1.2     WSW   253   7.91    265      127.1
   10/19/2017 08:40      63.3      61.9       66     51.1      0.00      0.00      73.9     0.34      1014.6     0.5     WNW   284   2.4      NW   317   8.11    266       80.8
   10/19/2017 08:30      62.2      61.1       67     50.7      0.00      0.00      74.0     0.34      1014.3     1.1     NNW   331   2.6      NW   321   8.06    267       81.3
   10/19/2017 08:20      61.3      60.1       70     50.8      0.00      0.00      74.0     0.34      1014.4     1.2      NW   317   2.7     WNW   301   8.33    275       31.3
   10/19/2017 08:10      60.4      59.0       73     51.0      0.00      0.00      74.0     0.34      1014.3     1.2     WNW   298   2.5     WSW   253   8.25    294       15.8
   10/19/2017 08:00      59.1      57.0       78     51.2      0.00      0.00      74.0     0.34      1014.2     0.8       W   260   1.8     WNW   288   8.30    319       14.3
   10/19/2017 07:50      57.1      54.9       83     50.6      0.00      0.00      74.1     0.34      1014.1     1.3     SSW   213   2.2      SW   228   8.55    329        3.4
   10/19/2017 07:40      55.2      54.0       86     50.2      0.00      0.00      74.1     0.34      1013.9     1.0     SSW   196   1.7     SSW   197   8.47    333       -0.1
   10/19/2017 07:30      54.3      53.6       86     49.9      0.00      0.00      74.2     0.34      1013.8     1.1     SSE   163   2.5     SSE   146   8.55    335      -12.0
   10/19/2017 07:20      54.0      53.6       86     49.6      0.00      0.00      74.2     0.34      1013.8     0.5     SSE   160   1.3       S   177   8.50    334      -19.8
   10/19/2017 07:10      54.1      53.6       87     50.0      0.00      0.00      74.2     0.34      1013.7     0.9      SW   214   1.6      SW   227   8.46    334      -24.2
   10/19/2017 07:00      54.2      53.7       88     50.4      0.00      0.00      74.2     0.34      1013.6     0.0       N     0   0.0     SSW   197   8.32    331      -28.1
   10/19/2017 06:50      54.2      53.7       88     50.4      0.00      0.00      74.3     0.34      1013.6     0.2     SSW   197   1.4     SSW   198   8.69    326      -29.9
   10/19/2017 06:40      54.4      53.6       86     49.8      0.00      0.00      74.3     0.34      1013.6     0.2     SSE   150   1.2     SSW   198   8.56    324      -31.4
   10/19/2017 06:30      54.6      54.1       87     50.5      0.00      0.00      74.3     0.34      1013.5     0.3     SSE   162   1.4     SSE   147   8.63    322      -30.7
   10/19/2017 06:20      54.6      54.0       85     50.0      0.00      0.00      74.4     0.34      1013.5     0.2     SSE   164   0.8     SSE   164   8.48    318      -32.1
   10/19/2017 06:10      54.9      54.2       86     50.4      0.00      0.00      74.4     0.34      1013.4     0.1     SSE   164   1.1     SSE   164   8.54    317      -31.8
   10/19/2017 06:00      54.9      54.3       87     50.8      0.00      0.00      74.4     0.34      1013.3     0.1     SSE   164   0.5     SSE   164   8.47    316      -32.6
   10/19/2017 05:50      54.8      54.2       86     50.4      0.00      0.00      74.5     0.34      1013.2     0.0       N     0   0.0     SSE   164   8.52    314      -34.7
   10/19/2017 05:40      55.1      54.4       86     50.4      0.00      0.00      74.5     0.34      1013.2     0.0     SSE   164   0.5     SSE   164   8.50    310      -36.8
   10/19/2017 05:30      55.4      54.9       86     50.8      0.00      0.00      74.5     0.34      1013.2     0.0     SSE   160   0.5     SSE   164   8.37    307      -36.9
   10/19/2017 05:20      55.7      55.1       85     51.0      0.00      0.00      74.5     0.34      1013.1     0.0       N     0   0.0     SSE   153   8.40    303      -38.6
   10/19/2017 05:10      55.7      55.4       86     51.4      0.00      0.00      74.5     0.34      1013.1     0.6     SSE   162   1.6     SSE   158   8.24    301      -38.7
   10/19/2017 05:00      55.9      55.5       85     51.2      0.00      0.00      74.6     0.34      1013.2     0.3     SSE   152   1.0     SSE   156   8.39    297      -40.1
   10/19/2017 04:50      56.1      55.5       85     51.1      0.00      0.00      74.6     0.34      1013.2     0.2     SSE   148   1.4     SSE   148   8.58    293      -43.1
   10/19/2017 04:40      56.4      55.7       85     51.6      0.00      0.00      74.6     0.34      1013.2     0.5      SE   145   1.4      SE   139   8.75    291      -43.4
   10/19/2017 04:30      56.4      55.9       85     51.8      0.00      0.00      74.7     0.34      1013.2     0.3     SSE   160   0.9     SSE   160   8.45    288      -44.9
   10/19/2017 04:20      56.7      56.1       84     51.6      0.00      0.00      74.7     0.34      1013.1     0.1     SSE   154   0.7     SSE   157   8.47    284      -47.7
   10/19/2017 04:10      56.8      56.3       83     51.5      0.00      0.00      74.7     0.34      1013.2     0.1      SE   142   0.7      SE   145   8.40    282      -50.9
   10/19/2017 04:00      57.3      56.5       83     51.7      0.00      0.00      74.7     0.34      1013.2     0.7       S   171   1.7     SSW   200   8.36    281      -49.8
   10/19/2017 03:50      57.7      57.0       83     52.3      0.00      0.00      74.8     0.34      1013.1     0.2     SSE   155   1.1     SSE   155   8.62    281      -48.2
   10/19/2017 03:40      58.0      57.4       83     52.6      0.00      0.00      74.8     0.34      1013.1     0.1     SSE   155   0.8     SSE   155   8.41    279      -48.7
   10/19/2017 03:30      57.8      57.4       84     52.7      0.00      0.00      74.8     0.34      1013.1     0.3     SSE   156   1.2     SSE   154   8.69    278      -49.9
   10/19/2017 03:20      58.1      57.5       84     53.0      0.00      0.00      74.8     0.34      1013.3     0.4       S   176   1.3       S   187   9.00    277      -50.4
   10/19/2017 03:10      58.2      57.6       84     53.0      0.00      0.00      74.8     0.34      1013.3     0.6     SSE   153   1.2     SSE   153   8.87    275      -51.8
   10/19/2017 03:00      58.5      57.6       83     52.8      0.00      0.00      74.9     0.34      1013.3     0.7     SSE   152   1.6     SSE   147   8.59    272      -54.8
   10/19/2017 02:50      58.5      58.1       82     52.9      0.00      0.00      74.9     0.34      1013.3     0.7     SSE   160   1.2     SSE   157   8.76    272      -55.9
   10/19/2017 02:40      58.5      58.0       81     52.4      0.00      0.00      74.9     0.34      1013.4     0.7       S   179   2.6     WSW   250   8.82    271      -56.9
   10/19/2017 02:30      58.9      58.2       80     52.4      0.00      0.00      75.0     0.34      1013.5     0.4     SSE   147   1.1     SSE   148   8.81    271      -57.4
   10/19/2017 02:20      59.3      58.4       79     52.3      0.00      0.00      75.0     0.34      1013.6     0.4     SSE   150   1.1     SSE   149   8.73    270      -57.4
   10/19/2017 02:10      59.1      58.8       79     52.5      0.00      0.00      75.0     0.34      1013.6     0.3     SSE   162   1.0     SSE   163   8.64    269      -56.9
   10/19/2017 02:00      59.6      58.7       77     51.8      0.00      0.00      75.0     0.34      1013.6     0.2      SE   143   1.7      SE   141   8.50    268      -58.7
   10/19/2017 01:50      59.9      59.3       77     52.3      0.00      0.00      75.0     0.34      1013.7     0.7     SSE   157   2.0     SSE   147   8.43    268      -58.5
   10/19/2017 01:40      60.2      59.3       75     51.7      0.00      0.00      75.0     0.34      1013.7     0.3     SSE   168   1.0       S   174   8.87    268      -58.5
   10/19/2017 01:30      60.2      59.8       75     51.9      0.00      0.00      75.0     0.34      1013.6     1.3      SE   144   2.3      SE   141   8.81    267      -59.5
   10/19/2017 01:20      60.3      59.9       75     52.3      0.00      0.00      75.0     0.34      1013.7     0.6     SSE   149   1.2     SSE   150   8.89    267      -57.9
   10/19/2017 01:10      60.2      59.7       75     52.0      0.00      0.00      75.0     0.34      1013.7     0.1     SSE   150   0.7     SSE   149   8.82    267      -57.7
   10/19/2017 01:00      60.8      59.9       74     51.8      0.00      0.00      75.1     0.34      1013.7     0.3     SSE   149   1.0     SSE   149   8.80    267      -58.3
   10/19/2017 00:50      61.3      60.4       73     52.1      0.00      0.00      75.1     0.34      1013.8     0.0     SSE   149   0.7     SSE   149   8.67    267      -58.1
   10/19/2017 00:40      61.3      60.8       72     51.9      0.00      0.00      75.1     0.34      1013.9     0.2     SSE   148   0.7     SSE   147   8.65    267      -57.5
   10/19/2017 00:30      61.4      60.9       72     52.1      0.00      0.00      75.1     0.34      1013.9     0.4     SSE   150   1.5     SSE   147   8.85    266      -58.1
   10/19/2017 00:20      61.5      60.9       72     51.9      0.00      0.00      75.1     0.34      1013.8     0.5     SSE   165   1.2       S   177   8.97    266      -59.2
   10/19/2017 00:10      61.6      61.2       71     51.8      0.00      0.00      75.1     0.34      1013.8     0.5     SSE   155   1.5      SE   139   8.76    266      -59.9
   10/19/2017 00:00      62.1      61.3       70     51.6      0.00      0.00      75.1     0.34      1013.8     0.6     SSE   157   1.8     SSE   149   8.70    266      -60.6
   10/18/2017 23:50      62.1      61.7       68     51.2      0.00      0.00      75.2     0.34      1013.8     1.1     SSE   158   1.9      SE   133   8.58    266      -60.5
   10/18/2017 23:40      62.2      61.8       68     51.1      0.00      0.00      75.2     0.34      1013.9     0.9       S   187   1.8      SW   221   8.64    266      -59.9
   10/18/2017 23:30      62.8      61.9       68     51.6      0.00      0.00      75.2     0.34      1013.9     0.2     SSE   159   1.3     SSE   158   8.63    266      -59.7
   10/18/2017 23:20      63.2      62.5       67     51.5      0.00      0.00      75.2     0.34      1013.9     0.4     SSE   156   1.8      SE   146   8.91    266      -60.7
   10/18/2017 23:10      63.4      62.8       66     51.6      0.00      0.00      75.2     0.34      1013.9     0.3     SSE   159   1.1     SSE   153   8.85    265      -60.5
   10/18/2017 23:00      64.2      63.1       65     51.4      0.00      0.00      75.2     0.34      1013.8     0.7     SSE   164   1.2     SSE   153   8.80    265      -61.0
   10/18/2017 22:50      64.5      63.9       63     51.5      0.00      0.00      75.1     0.34      1013.8     0.3       S   175   1.1       S   176   8.80    264      -60.4
   10/18/2017 22:40      64.5      64.1       64     51.7      0.00      0.00      75.2     0.34      1013.7     0.5     SSE   153   1.2     SSE   153   8.82    264      -61.1
   10/18/2017 22:30      64.9      64.1       63     51.6      0.00      0.00      75.2     0.34      1013.6     0.1     SSE   160   0.9     SSE   152   8.75    265      -61.5
   10/18/2017 22:20      65.7      64.7       62     51.7      0.00      0.00      75.1     0.34      1013.6     0.3     SSE   162   1.1     SSE   168   8.73    264      -61.6
   10/18/2017 22:10      66.2      65.4       60     51.6      0.00      0.00      75.2     0.34      1013.6     0.6     SSE   149   1.4     SSE   149   8.79    264      -62.6
   10/18/2017 22:00      66.2      65.7       60     51.5      0.00      0.00      75.1     0.34      1013.6     0.3     SSE   161   1.2       S   172   8.78    264      -62.1
   10/18/2017 21:50      66.0      65.5       60     51.4      0.00      0.00      75.1     0.34      1013.5     0.5     SSE   159   1.3     SSE   149   8.87    264      -63.0
   10/18/2017 21:40      66.6      65.8       59     51.3      0.00      0.00      75.1     0.34      1013.5     0.2       S   179   1.1       S   183   8.98    264      -62.2
   10/18/2017 21:30      67.0      66.3       58     51.5      0.00      0.00      75.1     0.34      1013.5     0.2       S   183   0.8       S   183   8.95    264      -62.7
   10/18/2017 21:20      67.4      66.7       58     51.6      0.00      0.00      75.1     0.34      1013.4     0.1       S   183   1.3       S   183   8.82    264      -62.3
   10/18/2017 21:10      67.6      67.1       57     51.5      0.00      0.00      75.1     0.34      1013.4     0.2       S   183   0.8       S   183   8.88    264      -62.0
   10/18/2017 21:00      68.2      67.3       57     51.7      0.00      0.00      75.0     0.34      1013.4     0.4       S   184   0.9       S   184   8.93    263      -63.0
   10/18/2017 20:50      68.5      67.9       54     51.1      0.00      0.00      75.0     0.34      1013.3     0.2       S   188   1.3       S   184   8.93    263      -64.2
   10/18/2017 20:40      68.5      68.1       55     51.7      0.00      0.00      75.0     0.34      1013.2     0.9       S   182   1.9     SSW   212   8.68    263      -65.0
   10/18/2017 20:30      69.0      68.1       55     51.3      0.00      0.00      75.0     0.34      1013.2     0.7     SSE   155   1.5      SE   142   8.88    263      -66.1
   10/18/2017 20:20      70.0      68.7       53     51.3      0.00      0.00      75.0     0.34      1013.2     0.6     SSE   169   1.4       S   187   9.00    263      -66.4
   10/18/2017 20:10      70.9      69.7       51     51.2      0.00      0.00      75.0     0.34      1013.1     0.4     SSE   160   1.4     SSE   159   8.99    263      -67.2
   10/18/2017 20:00      71.5      70.6       50     51.4      0.00      0.00      74.9     0.34      1013.0     0.0       S   182   0.7       S   176   8.91    263      -66.4
   10/18/2017 19:50      72.2      71.2       50     51.9      0.00      0.00      74.9     0.34      1012.9     0.0       N     0   0.0       E    98   8.86    262      -67.3
   10/18/2017 19:40      72.8      71.8       49     51.9      0.00      0.00      74.9     0.34      1012.9     0.0       E    98   0.2       E    98   9.03    262      -70.3
   10/18/2017 19:30      73.1      72.5       48     52.0      0.00      0.00      74.9     0.34      1012.9     0.8     ESE   111   2.2       E   100   9.10    262      -71.6
   10/18/2017 19:20      73.7      72.8       48     52.1      0.00      0.00      74.8     0.34      1012.8     0.8      SE   129   2.0     ESE   107   9.11    262      -72.9
   10/18/2017 19:10      74.2      73.4       47     51.9      0.00      0.00      74.8     0.34      1012.8     0.7     ESE   103   1.6     ENE    71   9.08    262      -74.0
   10/18/2017 19:00      74.8      73.8       46     52.0      0.00      0.00      74.8     0.34      1012.7     1.1     ESE   112   2.6     ENE    77   9.10    262      -75.2
   10/18/2017 18:50      75.5      74.6       45     52.1      0.00      0.00      74.7     0.34      1012.7     0.8       E    90   2.9     ENE    62   9.14    262      -76.7
   10/18/2017 18:40      76.6      75.3       43     52.0      0.00      0.00      74.7     0.34      1012.7     0.6       E   100   2.0     ENE    72   9.14    261      -78.4
   10/18/2017 18:30      78.0      76.4       42     52.0      0.00      0.00      74.7     0.34      1012.7     0.8       E    87   3.0       E    84   9.17    261      -79.8
   10/18/2017 18:20      79.2      77.7       40     51.9      0.00      0.00      74.6     0.34      1012.6     0.7     ENE    64   2.8     ENE    68   9.17    261      -78.8
   10/18/2017 18:10      80.9      78.8       37     51.5      0.00      0.00      74.6     0.34      1012.4     1.3     ENE    58   2.8       E    80   8.97    261      -76.0
   10/18/2017 18:00      81.7      80.6       35     51.0      0.00      0.00      74.6     0.34      1012.4     0.6      NE    48   2.2     ENE    67   9.10    261      -72.6
   10/18/2017 17:50      83.3      81.3       33     49.9      0.00      0.00      74.5     0.34      1012.4     1.5     ENE    59   3.4      NE    41   9.25    261      -70.6
   10/18/2017 17:40      84.9      83.1       29     48.6      0.00      0.00      74.5     0.34      1012.4     1.2     ENE    57   2.7     NNE    26   9.12    260      -65.0
   10/18/2017 17:30      86.4      84.7       26     47.1      0.00      0.00      74.4     0.34      1012.4     1.2     ENE    61   2.6     ENE    60   9.25    260      -28.9
   10/18/2017 17:20      88.2      86.2       21     43.0      0.00      0.00      74.4     0.34      1012.4     1.7     NNE    24   5.2     NNW   333   9.06    260      -15.1
   10/18/2017 17:10      88.4      87.6       17     37.3      0.00      0.00      74.4     0.34      1012.4     2.7      SW   232   5.1     WSW   250   9.10    260        6.2
   10/18/2017 17:00      88.9      88.0       16     36.5      0.00      0.00      74.3     0.34      1012.4     3.9     WSW   239   6.5      SW   225   9.19    260       28.1
   10/18/2017 16:50      88.9      88.4       16     36.2      0.00      0.00      74.3     0.34      1012.4     3.7     WSW   246   6.2     SSW   206   9.14    260       50.6
   10/18/2017 16:40      89.5      88.3       17     37.6      0.00      0.00      74.2     0.34      1012.5     4.9     WSW   237   9.2     WSW   248   9.13    260       73.5
   10/18/2017 16:30      90.2      89.1       15     36.4      0.00      0.00      74.2     0.34      1012.5     3.9      SW   225   8.4      SW   222   9.12    260       96.3
   10/18/2017 16:20      91.1      89.7       16     37.9      0.00      0.00      74.2     0.34      1012.6     4.7     WSW   252   7.9     WSW   250   9.13    260      122.4
   10/18/2017 16:10      91.1      90.3       16     39.0      0.00      0.00      74.1     0.34      1012.6     3.7       W   262   6.7     WNW   286   9.09    260      145.8
   10/18/2017 16:00      91.3      90.6       15     37.6      0.00      0.00      74.1     0.34      1012.6     4.0      SW   236   7.6      SW   229   9.00    260      167.4
   10/18/2017 15:50      91.3      90.6       15     37.0      0.00      0.00      74.0     0.34      1012.6     4.3       W   263   7.4     WSW   251   9.10    259      187.5
   10/18/2017 15:40      91.1      90.7       15     37.1      0.00      0.00      74.0     0.34      1012.6     4.7     WSW   238   7.4      SW   231   9.00    260      197.0
   10/18/2017 15:30      91.2      90.2       16     37.9      0.00      0.00      74.0     0.34      1012.6     5.0     WSW   238   8.8      SW   222   9.15    259      212.3
   10/18/2017 15:20      92.5      91.0       15     37.7      0.00      0.00      74.0     0.34      1012.6     5.3     WSW   256   9.9       W   263   9.20    259      228.7
   10/18/2017 15:10      92.5      91.3       16     39.2      0.00      0.00      73.9     0.34      1012.6     3.5     WSW   241   6.6     WNW   286   9.28    259      247.0
   10/18/2017 15:00      92.0      91.0       16     39.4      0.00      0.00      73.9     0.34      1012.6     4.2      SW   234   8.3      SW   226   9.24    259      276.3
   10/18/2017 14:50      92.0      91.1       18     41.8      0.00      0.00      73.8     0.34      1012.7     3.1     SSW   194   7.3      SW   216   9.36    259      293.1
   10/18/2017 14:40      91.6      90.8       18     42.2      0.00      0.00      73.8     0.34      1012.7     4.1     WSW   242  11.1       S   188   9.39    260      308.4
   10/18/2017 14:30      92.2      91.0       18     42.2      0.00      0.00      73.8     0.34      1012.8     5.6      SW   227   9.0      SW   227   9.28    259      321.2
   10/18/2017 14:20      92.0      90.9       18     41.9      0.00      0.00      73.8     0.34      1013.0     4.5      SW   235   8.2     SSW   192   9.38    259      332.1
   10/18/2017 14:10      91.8      90.9       17     41.0      0.00      0.00      73.7     0.34      1013.1     3.9     SSW   207   7.7      SW   221   9.31    259      344.6
   10/18/2017 14:00      92.4      91.1       16     38.8      0.00      0.00      73.7     0.34      1013.3     4.2      SW   233   7.5      SW   232   9.49    259      352.5
   10/18/2017 13:50      92.0      90.9       15     37.6      0.00      0.00      73.7     0.34      1013.4     4.0     WSW   240   8.9     WSW   250   9.40    259      361.0
   10/18/2017 13:40      91.8      91.3       15     36.5      0.00      0.00      73.7     0.34      1013.5     3.8      SW   233   8.2      SW   230   9.25    259      368.5
   10/18/2017 13:30      92.7      91.3       15     37.6      0.00      0.00      73.7     0.34      1013.8     4.3       W   278   8.2      NW   312   9.05    259      374.3
   10/18/2017 13:20      93.0      92.2       14     37.3      0.00      0.00      73.7     0.34      1013.9     2.6       S   190   5.5       S   186   9.21    259      381.3
   10/18/2017 13:10      93.0      91.7       14     37.2      0.00      0.00      73.7     0.34      1014.0     1.8       W   262   5.9       W   271   9.32    259      388.0
   10/18/2017 13:00      92.2      91.3       15     37.5      0.00      0.00      73.7     0.34      1014.1     2.3       W   268   7.1     WSW   243   9.12    259      393.4
   10/18/2017 12:50      91.8      89.5       16     38.8      0.00      0.00      73.7     0.34      1014.3     1.0       E   100   2.7     SSE   147   9.28    259      396.1
   10/18/2017 12:40      90.5      89.4       17     39.1      0.00      0.00      73.7     0.34      1014.5     1.9     ESE   113   6.0      SE   136   9.15    259      398.8
   10/18/2017 12:30      90.6      89.9       17     39.3      0.00      0.00      73.7     0.34      1014.6     2.0     ENE    59   3.4     ENE    72   9.26    259      399.6
   10/18/2017 12:20      90.4      89.4       16     38.0      0.00      0.00      73.7     0.34      1014.7     1.4       N     6   3.4       N     0   9.39    259      398.3
   10/18/2017 12:10      89.6      88.6       16     37.3      0.00      0.00      73.7     0.34      1014.9     1.2      NE    37   3.2     NNE    26   9.26    259      398.3
   10/18/2017 12:00      88.9      87.9       16     36.0      0.00      0.00      73.7     0.34      1015.0     1.6       E    82   3.4     ESE   109   9.28    259      398.1
   10/18/2017 11:50      88.0      87.2       16     35.5      0.00      0.00      73.7     0.34      1015.1     1.5       E    82   4.0       E    93   9.09    259      393.5
   10/18/2017 11:40      87.3      86.5       17     37.3      0.00      0.00      73.7     0.34      1015.1     1.6       N     8   3.6     NNE    28   9.20    259      388.8
   10/18/2017 11:30      86.9      84.8       19     38.3      0.00      0.00      73.7     0.34      1015.2     1.5       N   352   3.4     NNW   343   9.19    259      384.4
   10/18/2017 11:20      85.0      84.4       21     39.9      0.00      0.00      73.8     0.34      1015.3     2.6       N   359   4.4     NNW   346   9.11    259      396.4
   10/18/2017 11:10      84.5      83.1       24     43.3      0.00      0.00      73.8     0.34      1015.4     2.5       N    10   4.8       N     7   9.16    259      401.7
   10/18/2017 11:00      83.2      82.3       27     44.8      0.00      0.00      73.8     0.34      1015.4     2.0     NNW   346   4.4     NNE    33   8.99    260      376.6
   10/18/2017 10:50      82.6      81.8       28     46.3      0.00      0.00      73.8     0.34      1015.4     1.9     NNW   339   4.5      NW   308   9.14    260      365.8
   10/18/2017 10:40      82.0      81.3       29     46.6      0.00      0.00      73.9     0.34      1015.5     1.3     NNW   338   3.9     NNW   346   9.13    260      354.3
   10/18/2017 10:30      81.5      79.6       31     47.1      0.00      0.00      73.9     0.34      1015.6     0.8     NNE    18   2.6     NNE    15   9.14    260      336.1
   10/18/2017 10:20      79.6      78.6       33     47.3      0.00      0.00      73.9     0.34      1015.5     1.3     NNE    13   3.0     NNE    18   8.99    260      319.8
   10/18/2017 10:10      79.1      78.4       33     47.3      0.00      0.00      73.9     0.34      1015.6     1.1       N     3   2.7     NNW   345   9.04    260      303.7
   10/18/2017 10:00      79.2      77.4       34     47.5      0.00      0.00      74.0     0.35      1015.6     0.7       N   355   2.1     NNW   336   9.49    260      290.3
   10/18/2017 09:50      77.7      76.0       36     47.7      0.00      0.00      74.0     0.35      1015.7     0.7      NW   310   2.5       W   277   9.38    260      274.4
   10/18/2017 09:40      75.8      74.8       38     47.9      0.00      0.00      74.0     0.35      1015.7     1.3     NNE    25   2.5      NE    53   9.28    261      258.6
   10/18/2017 09:30      74.9      73.6       39     47.7      0.00      0.00      74.1     0.35      1015.7     1.3       N   352   3.0       N     7   9.20    261      241.8
   10/18/2017 09:20      73.9      73.5       39     47.5      0.00      0.00      74.0     0.35      1015.6     1.7       N     5   3.1       N     4   9.12    261      225.4
   10/18/2017 09:10      73.7      73.2       40     47.8      0.00      0.00      74.1     0.35      1015.6     1.3     NNW   327   2.6     WNW   303   8.85    261      205.7
   10/18/2017 09:00      73.5      72.7       40     47.4      0.00      0.00      74.1     0.35      1015.6     1.2     NNW   335   2.2       W   266   8.86    262      188.2
   10/18/2017 08:50      72.8      71.6       41     47.2      0.00      0.00      74.2     0.35      1015.5     0.8     NNW   336   2.3      NW   319   9.11    262      162.0
   10/18/2017 08:40      72.0      71.1       42     46.9      0.00      0.00      74.2     0.35      1015.6     1.4     NNW   344   2.4      NW   323   8.98    269      138.9
   10/18/2017 08:30      72.1      71.6       41     47.1      0.00      0.00      74.2     0.34      1015.6     1.0     NNW   327   1.8     NNW   328   9.02    263      122.1
   10/18/2017 08:20      69.5      67.0       46     46.3      0.00      0.00      74.3     0.34      1015.4     0.1     ESE   122   0.7      SE   136   0.94    263        5.7
   10/18/2017 08:00      65.0      61.8       54     46.3      0.00      0.09      74.4     0.34      1015.1     2.3     SSE   158   3.7       S   177   1.97    263      -12.8
   10/18/2017 07:50      62.0      60.4       58     46.4      0.00      0.09      74.4     0.34      1015.0     1.0     SSE   149   3.3      SE   135   9.14    264      -26.7
   10/18/2017 07:40      60.5      59.5       59     45.8      0.00      0.09      74.5     0.34      1014.9     0.3      SE   146   1.4      SE   146   9.14    264      -30.0
   10/18/2017 07:30      59.7      59.1       58     44.7      0.00      0.09      74.5     0.34      1014.7     0.9     SSE   160   1.6     SSW   206   9.16    264      -35.2
   10/18/2017 07:20      59.8      59.2       58     44.6      0.00      0.09      74.5     0.34      1014.6     0.4     SSE   150   1.8     SSE   148   9.15    264      -40.4
   10/18/2017 07:10      60.2      59.5       58     44.7      0.00      0.09      74.5     0.34      1014.6     0.1     SSE   165   0.5     SSE   165   9.19    264      -44.3
   10/18/2017 07:00      60.2      59.8       56     44.2      0.00      0.09      74.5     0.34      1014.5     0.0       N     0   0.0     SSE   165   9.17    263      -46.4
   10/18/2017 06:50      60.2      59.8       58     45.0      0.00      0.09      74.6     0.34      1014.5     0.6     SSE   154   1.8      SE   136   9.14    263      -48.3
   10/18/2017 06:40      60.1      59.3       57     44.5      0.00      0.09      74.6     0.34      1014.5     1.0     SSE   147   2.0      SE   141   9.14    264      -48.9
   10/18/2017 06:30      59.8      59.2       58     44.5      0.00      0.09      74.6     0.34      1014.5     0.2     SSE   160   1.1      SE   141   9.14    263      -48.9
   10/18/2017 06:20      60.2      59.4       56     44.2      0.00      0.09      74.6     0.34      1014.5     0.7     SSE   153   1.3     SSE   156   9.14    263      -49.0
   10/18/2017 06:10      60.2      59.6       53     42.7      0.00      0.09      74.6     0.34      1014.4     0.9       S   177   2.1     SSW   192   9.13    263      -47.9
   10/18/2017 06:00      60.2      59.8       53     42.8      0.00      0.09      74.7     0.34      1014.5     0.4     SSE   154   1.2       S   171   9.14    263      -47.6
   10/18/2017 05:50      60.5      59.9       54     43.4      0.00      0.09      74.7     0.34      1014.5     0.3      SE   136   1.1      SE   136   9.14    263      -47.5
   10/18/2017 05:40      61.2      60.2       52     43.1      0.00      0.09      74.7     0.34      1014.4     0.1      SE   136   0.8      SE   136   9.17    263      -47.7
   10/18/2017 05:30      61.1      60.7       53     43.7      0.00      0.09      74.7     0.34      1014.4     0.0       N     0   0.0      SE   136   9.16    263      -47.9
   10/18/2017 05:20      61.4      60.7       53     43.5      0.00      0.09      74.7     0.35      1014.2     0.0      SE   137   0.4      SE   137   9.14    263      -47.4
   10/18/2017 05:10      61.7      61.2       53     44.1      0.00      0.09      74.7     0.34      1014.1     0.1      SE   136   0.5      SE   136   9.17    263      -47.7
   10/18/2017 05:00      62.0      61.4       53     44.1      0.00      0.09      74.8     0.35      1014.1     0.1      SE   136   0.6      SE   136   9.16    263      -48.6
   10/18/2017 04:50      61.9      61.5       53     44.3      0.00      0.09      74.8     0.35      1014.1     0.8      SE   137   2.6      SE   139   9.16    263      -49.5
   10/18/2017 04:40      61.8      61.3       54     44.5      0.00      0.09      74.8     0.35      1014.1     0.6     SSE   152   1.7      SE   144   9.14    263      -49.1
   10/18/2017 04:30      62.0      61.5       52     44.1      0.00      0.09      74.8     0.35      1014.0     0.9      SE   133   1.5      SE   133   9.18    263      -49.5
   10/18/2017 04:20      61.9      61.3       52     43.5      0.00      0.09      74.8     0.35      1014.0     0.0      SE   133   0.6      SE   133   9.16    263      -48.0
   10/18/2017 04:10      62.0      61.4       51     43.2      0.00      0.09      74.8     0.35      1014.0     0.0      SE   133   0.4      SE   133   9.17    262      -48.2
   10/18/2017 04:00      62.7      61.8       49     42.7      0.00      0.09      74.8     0.35      1014.1     0.0      SE   133   0.7      SE   133   9.17    262      -48.5
   10/18/2017 03:50      63.1      62.4       47     42.1      0.00      0.09      74.9     0.35      1014.1     0.0       N     0   0.0      SE   133   9.19    262      -48.8
   10/18/2017 03:40      63.5      62.8       47     42.4      0.00      0.09      74.9     0.35      1014.2     0.0       N     0   0.0      SE   133   9.15    262      -48.4
   10/18/2017 03:30      63.9      63.1       46     42.5      0.00      0.09      74.9     0.35      1014.3     0.1      SE   133   0.6      SE   133   9.16    262      -48.7
   10/18/2017 03:20      64.0      63.5       46     42.4      0.00      0.09      74.9     0.35      1014.3     0.0       N     0   0.0      SE   133   9.17    262      -47.7
   10/18/2017 03:10      63.9      63.3       48     43.4      0.00      0.09      74.9     0.35      1014.3     0.0      SE   136   0.6      SE   133   9.20    262      -45.6
   10/18/2017 03:00      64.0      63.1       48     43.7      0.00      0.09      75.0     0.35      1014.3     0.8     SSE   153   1.9      SE   144   9.18    262      -44.6
   10/18/2017 02:50      64.0      63.3       49     44.0      0.00      0.09      75.0     0.35      1014.4     0.7     SSE   148   1.8      SE   139   9.19    262      -46.2
   10/18/2017 02:40      64.3      63.7       47     43.5      0.00      0.09      75.0     0.35      1014.4     0.4     SSE   147   1.3     SSE   147   9.22    262      -49.0
   10/18/2017 02:30      64.7      63.8       46     43.0      0.00      0.09      75.0     0.35      1014.5     0.0       N     0   0.0     SSE   147   9.20    262      -50.2
   10/18/2017 02:20      65.0      64.5       47     43.9      0.00      0.09      75.0     0.35      1014.5     0.3     SSE   147   1.5     SSE   147   9.18    262      -51.4
   10/18/2017 02:10      65.4      64.6       46     43.5      0.00      0.09      75.0     0.35      1014.6     0.9      SE   145   1.9      SE   141   9.19    262      -51.3
   10/18/2017 02:00      65.6      65.0       44     42.7      0.00      0.09      75.0     0.35      1014.6     0.4     SSE   147   1.3     SSE   147   9.22    262      -50.3
   10/18/2017 01:50      65.4      64.9       44     42.5      0.00      0.09      75.0     0.35      1014.6     1.0     SSE   149   2.1     SSE   149   9.19    262      -51.5
   10/18/2017 01:40      65.4      65.1       43     42.0      0.00      0.09      75.0     0.35      1014.6     1.4     SSE   148   2.3      SE   140   9.21    261      -51.4
   10/18/2017 01:30      65.4      64.8       42     41.1      0.00      0.09      75.0     0.35      1014.6     0.8     SSE   160   1.4     SSE   165   9.17    261      -51.1
   10/18/2017 01:20      66.0      65.2       40     40.6      0.00      0.09      75.0     0.35      1014.6     0.3     SSE   162   0.9     SSE   167   9.19    261      -50.9
   10/18/2017 01:10      66.3      65.7       39     40.5      0.00      0.09      75.1     0.35      1014.5     0.2       E    97   0.8     NNE    20   9.17    261      -50.8
   10/18/2017 01:00      66.5      65.8       38     40.1      0.00      0.09      75.1     0.35      1014.3     1.1     SSE   157   2.4       S   188   9.16    261      -49.6
   10/18/2017 00:50      66.4      66.0       37     39.0      0.00      0.09      75.0     0.35      1014.3     0.9       S   189   1.4     SSW   209   9.17    261      -49.8
   10/18/2017 00:40      66.2      65.7       37     38.7      0.00      0.09      75.0     0.35      1014.2     0.6       S   186   1.9      SW   222   9.18    261      -51.2
   10/18/2017 00:30      67.0      65.8       36     38.7      0.00      0.09      75.0     0.35      1014.2     0.1       S   176   1.4       S   176   9.18    261      -52.1
   10/18/2017 00:20      67.5      66.6       35     38.7      0.00      0.09      75.0     0.35      1014.3     0.4     SSE   155   1.2     SSE   152   9.20    261      -51.9
   10/18/2017 00:10      67.3      66.6       35     38.3      0.00      0.09      75.0     0.35      1014.3     0.4       S   169   1.3       S   174   9.21    261      -52.6
   10/18/2017 00:00      67.0      66.4       36     38.9      0.00      0.09      75.0     0.35      1014.4     0.1      SE   146   0.6      SE   146   9.22    261      -53.0
   10/17/2017 23:50      67.4      66.6       34     37.8      0.00      0.09      75.0     0.35      1014.4     0.4     SSE   151   1.6      SE   145   9.20    261      -53.1
   10/17/2017 23:40      67.6      67.1       35     38.4      0.00      0.09      75.0     0.35      1014.5     0.4     SSE   156   1.1     SSE   158   9.22    261      -53.4
   10/17/2017 23:30      68.1      67.1       34     38.2      0.00      0.09      75.0     0.35      1014.6     0.0       N     0   0.0      SE   137   9.24    261      -53.3
   10/17/2017 23:20      68.6      67.9       34     38.7      0.00      0.09      75.0     0.35      1014.5     0.2      SE   137   1.1      SE   137   9.20    261      -53.9
   10/17/2017 23:10      69.4      68.4       33     38.8      0.00      0.09      75.0     0.35      1014.6     0.3      SE   139   1.4      SE   142   9.16    261      -55.1
   10/17/2017 23:00      69.5      68.7       34     39.1      0.00      0.09      75.0     0.35      1014.5     1.2      SE   145   2.1      SE   142   9.17    261      -55.4
   10/17/2017 22:50      69.6      69.0       33     38.6      0.00      0.09      75.0     0.35      1014.6     0.9     SSE   160   2.4      SE   138   9.24    261      -54.9
   10/17/2017 22:40      69.9      69.2       33     39.4      0.00      0.09      75.0     0.35      1014.6     0.8     SSE   153   1.7      SE   143   9.23    261      -55.8
   10/17/2017 22:30      70.1      69.5       31     37.9      0.00      0.09      75.0     0.35      1014.6     0.9       S   187   2.0     SSW   209   9.24    261      -56.0
   10/17/2017 22:20      70.1      69.7       33     39.2      0.00      0.09      75.0     0.35      1014.6     0.2     SSW   210   1.1     SSW   210   9.24    261      -56.8
   10/17/2017 22:10      70.8      69.8       32     39.3      0.00      0.09      75.0     0.35      1014.5     0.1       S   188   1.2       S   181   9.23    261      -58.2
   10/17/2017 22:00      71.1      70.4       31     38.7      0.00      0.09      74.9     0.35      1014.5     1.0     SSE   151   2.2     ESE   102   9.25    261      -58.1
   10/17/2017 21:50      71.1      70.3       31     38.8      0.00      0.09      74.9     0.35      1014.5     0.4     SSE   162   1.5     SSE   147   9.25    261      -57.9
   10/17/2017 21:40      71.5      70.6       31     39.0      0.00      0.09      74.9     0.35      1014.4     0.6     SSE   158   2.3      SE   146   9.26    261      -59.2
   10/17/2017 21:30      71.9      71.3       31     39.0      0.00      0.09      74.9     0.35      1014.4     0.9     SSE   159   1.9       S   177   9.28    261      -59.9
   10/17/2017 21:20      73.2      71.5       28     37.0      0.00      0.09      74.9     0.35      1014.4     1.0     SSE   165   2.4      SE   139   9.23    261      -59.9
   10/17/2017 21:10      73.2      72.7       27     36.5      0.00      0.09      74.8     0.35      1014.4     0.7       S   186   1.7       S   189   9.23    261      -59.6
   10/17/2017 21:00      73.5      72.7       28     37.8      0.00      0.09      74.8     0.35      1014.3     0.2       S   185   1.0       S   191   9.25    261      -60.4
   10/17/2017 20:50      74.2      73.2       28     38.2      0.00      0.09      74.8     0.35      1014.3     0.3      SE   131   1.4      SE   135   9.22    260      -61.2
   10/17/2017 20:40      75.0      74.0       27     37.9      0.00      0.09      74.8     0.35      1014.2     0.5     SSE   159   1.7     SSE   147   9.23    260      -62.2
   10/17/2017 20:30      75.9      74.8       25     36.9      0.00      0.09      74.7     0.35      1014.2     1.2       S   182   2.1     SSW   209   9.21    260      -63.7
   10/17/2017 20:20      76.3      74.8       25     37.6      0.00      0.09      74.7     0.35      1014.3     1.3       S   176   2.3     SSW   194   9.23    260      -64.5
   10/17/2017 20:10      77.4      76.1       24     37.2      0.00      0.09      74.7     0.35      1014.2     0.9       S   174   2.7     SSW   209   9.25    260      -65.3
   10/17/2017 20:00      77.5      76.8       24     37.8      0.00      0.09      74.6     0.35      1014.1     1.0       S   178   2.1     SSW   194   9.29    260      -67.9
   10/17/2017 19:50      78.5      77.2       24     38.0      0.00      0.09      74.6     0.35      1014.0     1.2     SSE   152   3.0       S   181   9.27    260      -67.9
   10/17/2017 19:40      78.3      76.4       23     36.7      0.00      0.09      74.5     0.35      1014.0     2.1       S   175   4.3       S   180   9.27    260      -67.7
   10/17/2017 19:30      78.2      77.5       22     36.3      0.00      0.09      74.5     0.35      1014.0     0.9     SSW   192   2.2     SSW   199   9.28    260      -69.4
   10/17/2017 19:20      80.4      77.9       20     34.8      0.00      0.09      74.4     0.35      1013.9     0.8     SSE   159   2.0       S   176   9.30    260      -70.8
   10/17/2017 19:10      82.8      80.2       18     34.2      0.00      0.09      74.4     0.35      1014.0     0.5     SSE   163   1.6       S   177   9.30    260      -71.0
   10/17/2017 19:00      84.7      82.6       17     34.8      0.00      0.09      74.3     0.35      1014.0     1.4      SW   222   2.6     SSW   206   9.29    259      -71.5
   10/17/2017 18:50      86.0      84.5       17     35.4      0.00      0.09      74.3     0.35      1013.9     1.6      SW   231   2.8       W   279   9.28    259      -77.0
   10/17/2017 18:40      87.1      85.6       16     34.4      0.00      0.09      74.3     0.35      1013.9     1.6       W   276   3.3     WNW   304   9.28    259      -81.3
   10/17/2017 18:30      88.0      86.8       13     31.4      0.00      0.09      74.2     0.35      1013.8     1.0     WNW   296   4.2     WSW   249   9.29    259      -82.7
   10/17/2017 18:20      89.0      87.9       12     29.9      0.00      0.09      74.2     0.35      1013.7     2.4     WSW   258   5.0     WSW   245   9.29    259      -82.6
   10/17/2017 18:10      89.6      88.6       11     28.1      0.00      0.09      74.1     0.35      1013.7     3.6     WSW   245   7.7      SW   232   9.29    259      -80.4
   10/17/2017 18:00      90.3      89.4       10     25.9      0.00      0.09      74.1     0.35      1013.6     3.3     WSW   238   7.9       W   261   9.31    259      -77.4
   10/17/2017 17:50      91.2      90.1        9     24.6      0.00      0.09      74.0     0.35      1013.5     4.5      SW   234   8.7     WSW   240   9.32    259      -73.4
   10/17/2017 17:40      92.2      91.0        8     23.3      0.00      0.09      73.9     0.35      1013.5     4.5      SW   226   9.3       S   191   9.29    259      -55.3
   10/17/2017 17:30      93.0      91.9        8     24.2      0.00      0.09      73.9     0.35      1013.5     4.1      SW   216   8.0     SSW   212   9.29    259      -18.8
   10/17/2017 17:20      93.8      92.7        9     25.2      0.00      0.09      73.9     0.35      1013.5     4.4      SW   226   7.2       W   266   9.32    259       -5.6
   10/17/2017 17:10      94.0      93.4        8     24.7      0.00      0.09      73.8     0.35      1013.5     5.0      SW   230   8.5     WSW   241   9.34    259       18.1
   10/17/2017 17:00      94.0      93.4        8     24.2      0.00      0.09      73.8     0.35      1013.6     4.2     SSW   214   7.2     WSW   249   9.31    259       29.0
   10/17/2017 16:50      94.2      93.7        8     24.5      0.00      0.09      73.7     0.35      1013.7     5.2      SW   217   8.6     WSW   245   9.33    259       50.6
   10/17/2017 16:40      94.7      93.9        8     25.3      0.00      0.09      73.6     0.35      1013.7     5.8     SSW   213   9.8       S   179   9.32    259       94.8
   10/17/2017 16:30      95.4      94.4       10     28.7      0.00      0.09      73.6     0.35      1013.7     6.4      SW   220  11.8     SSW   202   9.30    259      109.3
   10/17/2017 16:20      95.9      94.9       11     31.4      0.00      0.09      73.5     0.35      1013.7     5.0      SW   232   9.2     WSW   259   9.29    259      108.6
   10/17/2017 16:10      96.3      95.4       11     32.9      0.00      0.09      73.5     0.35      1013.7     5.4     WSW   238   8.9       W   266   9.35    259      130.1
   10/17/2017 16:00      97.1      96.0       10     31.4      0.00      0.09      73.4     0.35      1013.7     5.4      SW   226   8.5      SW   214   9.34    259      174.7
   10/17/2017 15:50      97.6      96.7       10     32.1      0.00      0.09      73.4     0.35      1013.7     4.1       W   271   8.2     WSW   255   9.30    259      180.1
   10/17/2017 15:40      97.5      96.4       10     31.2      0.00      0.09      73.3     0.34      1013.8     5.4      SW   226   9.6       S   184   9.33    259      200.6
   10/17/2017 15:30      98.2      97.1       10     31.5      0.00      0.09      73.3     0.34      1013.8     4.7      SW   232   8.2     WSW   237   9.33    259      219.2
   10/17/2017 15:20      98.2      97.2       10     31.6      0.00      0.09      73.3     0.34      1013.8     4.4      SW   231   8.2       S   175   9.36    259      238.7
   10/17/2017 15:10      98.2      97.2       10     30.6      0.00      0.09      73.2     0.34      1013.8     4.5     SSW   208   7.4      SW   230   9.33    259      256.1
   10/17/2017 15:00      98.1      96.6       10     30.4      0.00      0.09      73.2     0.34      1013.9     4.8      SW   220   7.5     SSW   194   9.34    259      290.1
   10/17/2017 14:50      96.9      95.8        9     29.2      0.00      0.09      73.1     0.34      1014.0     6.6      SW   219  10.2      SW   214   9.30    259      312.4
   10/17/2017 14:40      97.8      96.1        9     28.1      0.00      0.09      73.1     0.34      1014.1     6.2      SW   233  11.2     WSW   238   9.32    259      239.5
   10/17/2017 14:30      97.7      96.7        9     30.1      0.00      0.09      73.0     0.34      1014.1     5.7      SW   218  11.0      SW   230   9.34    259      317.5
   10/17/2017 14:20      98.4      96.6       10     31.3      0.00      0.09      73.0     0.34      1014.2     6.7      SW   235  12.2      SW   216   9.35    259      344.9
   10/17/2017 14:10      98.7      98.0       10     31.5      0.00      0.09      73.0     0.34      1014.2     6.0      SW   230   9.2     SSW   207   9.35    259      356.3
   10/17/2017 14:00      99.3      98.3        9     30.6      0.00      0.09      73.0     0.34      1014.3     5.1      NW   308   9.8      SW   229   9.35    259      370.1
   10/17/2017 13:50      99.1      98.7        8     27.0      0.00      0.09      72.9     0.34      1014.4     4.2     WNW   289   8.2      NW   311   9.34    259      381.4
   10/17/2017 13:40      99.5      98.7        8     27.5      0.00      0.09      72.9     0.34      1014.6     4.4     WSW   246   9.3     WSW   239   9.35    259      359.3
   10/17/2017 13:30      99.6      98.2        9     30.1      0.00      0.09      72.9     0.34      1014.8     3.6     WSW   237   6.7       W   267   9.35    259      370.2
   10/17/2017 13:20      99.4      98.1        9     29.1      0.00      0.09      72.8     0.34      1015.0     1.6     WNW   290   4.8     WSW   238   9.35    259      371.1
   10/17/2017 13:10      99.0      97.4        8     27.3      0.00      0.09      72.8     0.34      1015.1     3.2     WNW   298   6.6       W   266   9.32    259      262.9
   10/17/2017 13:00      98.9      98.0        8     25.6      0.00      0.09      72.8     0.34      1015.3     1.8     SSE   149   5.3      SE   145   9.35    259      382.5
   10/17/2017 12:50      98.5      97.2        7     23.4      0.00      0.09      72.8     0.34      1015.4     3.4     WSW   247   6.7     WSW   256   9.36    259      413.3
   10/17/2017 12:40      98.2      96.1        7     22.0      0.00      0.09      72.8     0.34      1015.6     2.1     SSW   201   5.0     SSW   206   9.34    258      406.0
   10/17/2017 12:30      96.3      95.8        7     20.5      0.00      0.09      72.8     0.34      1015.9     3.6     WSW   240   7.0     WSW   247   9.33    258      408.8
   10/17/2017 12:20      96.6      95.8        7     20.5      0.00      0.09      72.8     0.34      1016.0     3.1     WSW   250   6.8      SW   235   9.33    259      403.7
   10/17/2017 12:10      96.8      95.8        7     23.5      0.00      0.09      72.8     0.34      1016.2     2.0     WNW   295   5.7     WSW   258   9.34    259      399.5
   10/17/2017 12:00      95.9      94.3        8     24.3      0.00      0.09      72.8     0.34      1016.4     1.3       W   280   3.6     WSW   246   9.33    258      396.5
   10/17/2017 11:50      94.4      92.9        9     26.1      0.00      0.09      72.9     0.34      1016.5     1.7     WNW   298   4.1       W   272   9.33    259      392.3
   10/17/2017 11:40      93.1      92.5       10     28.3      0.00      0.09      72.8     0.34      1016.7     1.6     NNE    17   3.6     NNE    24   9.35    259      389.8
   10/17/2017 11:30      92.5      91.6       10     28.8      0.00      0.09      72.9     0.34      1016.9     0.8     NNW   334   2.4     NNE    20   9.34    258      382.1
   10/17/2017 11:20      91.6      90.3       12     30.2      0.00      0.09      72.9     0.34      1017.0     1.3       N     6   3.2       N    10   9.32    259      377.5
   10/17/2017 11:10      90.2      88.8       12     30.2      0.00      0.09      73.0     0.34      1017.1     1.1     NNE    15   2.5     NNE    27   9.34    259      369.6
   10/17/2017 11:00      89.3      87.7       12     30.3      0.00      0.09      73.0     0.34      1017.3     0.8     NNE    21   2.6     NNE    26   9.33    258      361.8
   10/17/2017 10:50      87.8      86.6       13     29.8      0.00      0.09      73.0     0.34      1017.5     1.0      NW   318   2.4       W   280   9.34    258      351.2
   10/17/2017 10:40      86.7      84.6       13     29.1      0.00      0.09      73.0     0.34      1017.5     0.9       N     0   1.8       N   355   9.31    259      342.4
   10/17/2017 10:30      84.7      83.5       14     29.8      0.00      0.09      73.0     0.34      1017.6     1.7       N     0   2.8     NNE    19   9.34    259      329.3
   10/17/2017 10:20      83.7      83.3       15     30.4      0.00      0.09      73.1     0.34      1017.6     1.5       N   356   2.6     NNW   342   9.34    259      317.2
   10/17/2017 10:10      83.6      81.9       16     32.2      0.00      0.09      73.1     0.34      1017.6     0.7     NNE    32   2.3     NNE    26   9.33    259      302.4
   10/17/2017 10:00      82.0      81.0       17     33.1      0.00      0.09      73.2     0.34      1017.7     1.1     NNE    33   2.7     NNE    23   9.35    259      281.7
   10/17/2017 09:50      81.2      78.8       20     34.8      0.00      0.09      73.2     0.35      1017.8     0.8     NNE    13   1.9       N    11   9.34    259      276.3
   10/17/2017 09:40      78.8      77.5       22     36.2      0.00      0.09      73.2     0.35      1017.9     1.3       N   350   2.7     NNE    12   9.33    259      260.3
   10/17/2017 09:30      77.7      76.2       24     37.0      0.00      0.09      73.3     0.35      1018.0     0.9       N   355   2.1       N     9   9.33    259      243.8
   10/17/2017 09:20      76.2      74.7       25     36.7      0.00      0.09      73.3     0.35      1018.1     0.8     NNW   349   2.6     NNW   340   9.31    259      228.4
   10/17/2017 09:10      74.9      72.2       25     35.8      0.00      0.09      73.3     0.35      1018.0     0.3     NNW   346   1.6     NNW   344   9.32    259      212.7
   10/17/2017 09:00      72.3      70.8       26     35.0      0.00      0.09      73.3     0.35      1017.9     1.2     NNW   343   3.6      NW   319   9.30    259      195.8
   10/17/2017 08:50      71.0      68.6       30     36.5      0.00      0.09      73.4     0.35      1017.8     0.7     WNW   291   2.2       W   263   9.31    260      177.3
   10/17/2017 08:40      68.8      67.0       33     37.8      0.00      0.09      73.4     0.35      1017.6     0.2      NW   317   1.2      NW   310   9.30    262      123.5
   10/17/2017 08:30      67.0      65.6       34     37.4      0.00      0.09      73.4     0.35      1017.4     0.0       N     0   0.0     ESE   107   9.27    262       73.0
   10/17/2017 08:10      65.3      64.2       31     33.8      0.00      0.09      73.5     0.35      1017.2     0.4     ENE    56   1.5     NNW   340   9.05    262      -13.8
   10/17/2017 08:00      64.3      62.3       30     31.7      0.00      0.09      73.5     0.35      1017.1     0.1     SSW   199   0.9      SW   233   9.06    261        4.4
   10/17/2017 07:50      62.5      60.3       32     31.4      0.00      0.09      73.5     0.35      1017.0     0.1       S   170   0.9       S   170   9.07    262      -11.3
   10/17/2017 07:40      60.3      58.6       35     31.4      0.00      0.09      73.5     0.35      1016.8     0.3       S   170   1.1       S   170   9.06    262      -18.3
   10/17/2017 07:30      58.7      58.0       35     30.4      0.00      0.09      73.6     0.35      1016.7     0.2     SSE   168   1.1       S   170   9.05    262      -25.7
   10/17/2017 07:20      58.2      57.4       36     31.1      0.00      0.09      73.6     0.35      1016.7     0.4     ESE   114   1.6       E    90   9.05    262      -34.5
   10/17/2017 07:10      57.6      57.0       36     30.5      0.00      0.09      73.6     0.35      1016.6     0.5     SSE   151   1.8      SE   141   9.09    262      -40.1
   10/17/2017 07:00      57.9      57.1       35     30.1      0.00      0.09      73.7     0.35      1016.6     0.3     SSE   154   1.2      SE   126   9.07    262      -44.1
   10/17/2017 06:50      58.0      57.6       34     29.4      0.00      0.09      73.7     0.35      1016.5     0.4     SSW   194   2.5       S   183   9.06    262      -45.5
   10/17/2017 06:40      57.9      57.3       33     29.0      0.00      0.09      73.7     0.35      1016.4     1.2       S   180   2.7     SSW   203   9.09    262      -47.8
   10/17/2017 06:30      57.6      57.0       35     29.6      0.00      0.09      73.7     0.35      1016.4     1.3     SSE   164   3.5       S   188   9.08    262      -47.5
   10/17/2017 06:20      57.6      56.9       35     29.5      0.00      0.09      73.8     0.35      1016.4     0.6     SSW   201   1.9     SSW   202   9.06    261      -47.3
   10/17/2017 06:10      58.2      57.4       34     29.1      0.00      0.09      73.8     0.35      1016.4     0.5       S   186   1.8     NNE    23   9.09    261      -46.5
   10/17/2017 06:00      58.2      57.9       32     28.1      0.00      0.09      73.8     0.35      1016.4     0.9     SSE   148   2.8       S   184   9.07    261      -46.7
   10/17/2017 05:50      58.2      57.6       31     27.3      0.00      0.09      73.8     0.35      1016.4     0.5       S   188   1.6       S   179   9.05    261      -47.5
   10/17/2017 05:40      58.1      57.4       32     27.8      0.00      0.09      73.9     0.35      1016.4     0.9       S   181   2.2     SSW   204   9.09    261      -48.8
   10/17/2017 05:30      58.4      57.3       32     28.0      0.00      0.09      73.9     0.35      1016.3     0.1       S   183   1.1       S   183   9.07    261      -49.9
   10/17/2017 05:20      58.2      57.5       31     27.7      0.00      0.09      73.9     0.35      1016.2     0.0       N     0   0.0       S   182   9.08    261      -48.7
   10/17/2017 05:10      58.3      57.9       33     28.9      0.00      0.09      73.9     0.35      1016.2     0.1     SSE   161   0.8      SE   136   9.06    261      -49.6
   10/17/2017 05:00      58.6      57.9       31     27.5      0.00      0.09      73.9     0.35      1016.3     0.5     SSE   151   1.8       S   178   9.05    261      -50.8
   10/17/2017 04:50      58.7      58.3       30     27.1      0.00      0.09      74.0     0.35      1016.3     0.6     SSW   207   2.3      SW   219   9.11    261      -51.5
   10/17/2017 04:40      59.0      58.4       32     28.5      0.00      0.09      74.0     0.35      1016.2     0.1     SSW   197   0.8     SSW   197   9.07    261      -51.6
   10/17/2017 04:30      59.2      58.6       30     26.9      0.00      0.09      74.0     0.35      1016.2     0.2       S   180   1.4       S   190   9.08    261      -51.5
   10/17/2017 04:20      59.1      58.6       29     26.4      0.00      0.09      74.0     0.35      1016.1     0.3       S   171   1.2       S   191   9.11    261      -52.1
   10/17/2017 04:10      59.0      58.5       30     27.2      0.00      0.09      74.0     0.35      1016.1     0.3       S   180   1.2     SSE   162   9.12    261      -53.1
   10/17/2017 04:00      59.6      58.7       31     28.3      0.00      0.09      74.1     0.35      1016.2     0.2     SSW   203   1.1       E    93   9.14    261      -53.7
   10/17/2017 03:50      59.8      59.3       28     26.8      0.00      0.09      74.1     0.35      1016.3     0.3      SE   125   1.4      SE   140   9.12    261      -53.9
   10/17/2017 03:40      59.8      59.3       28     26.6      0.00      0.09      74.1     0.35      1016.3     0.6       S   175   1.6     SSW   194   9.08    261      -53.9
   10/17/2017 03:30      59.8      59.4       29     27.5      0.00      0.09      74.1     0.35      1016.4     0.2       S   183   1.1       S   183   9.05    261      -54.6
   10/17/2017 03:20      60.2      59.4       29     27.5      0.00      0.09      74.1     0.35      1016.6     0.3       S   180   1.9       S   183   9.09    261      -55.4
   10/17/2017 03:10      60.1      59.6       29     27.3      0.00      0.09      74.1     0.35      1016.7     0.1     SSE   161   0.6     SSE   161   9.13    261      -55.6
   10/17/2017 03:00      60.2      59.4       29     27.2      0.00      0.09      74.1     0.35      1016.8     0.0     SSE   161   0.4     SSE   161   9.12    261      -56.0
   10/17/2017 02:50      60.8      59.8       29     27.4      0.00      0.09      74.1     0.35      1016.9     0.3      SE   142   1.0     SSE   162   9.11    261      -56.7
   10/17/2017 02:40      61.5      60.5       25     24.9      0.00      0.09      74.2     0.35      1016.9     0.3     SSE   148   0.9      SE   144   9.10    261      -56.7
   10/17/2017 02:30      61.5      61.2       24     23.9      0.00      0.09      74.2     0.35      1016.9     0.3     SSW   193   1.2      SW   232   9.09    261      -56.4
   10/17/2017 02:20      61.4      60.8       27     26.5      0.00      0.09      74.2     0.35      1016.9     0.4     SSW   207   1.6     SSW   206   9.13    261      -57.3
   10/17/2017 02:10      61.6      60.9       26     25.8      0.00      0.09      74.2     0.35      1017.0     0.6       S   176   1.7       S   175   9.14    261      -58.3
   10/17/2017 02:00      62.2      61.3       27     27.2      0.00      0.09      74.2     0.35      1017.1     0.5     SSE   162   2.0       S   187   9.16    261      -59.2
   10/17/2017 01:50      62.8      61.8       26     26.8      0.00      0.09      74.2     0.35      1017.1     0.6       S   189   2.0     NNE    13   9.22    261      -60.0
   10/17/2017 01:40      63.4      62.6       24     25.5      0.00      0.09      74.2     0.35      1017.1     0.3     SSE   164   2.1       S   176   9.13    261      -58.6
   10/17/2017 01:30      63.4      62.9       25     26.5      0.00      0.09      74.2     0.35      1017.1     0.0     SSE   163   0.5     SSE   163   9.09    261      -59.0
   10/17/2017 01:20      63.9      62.9       24     25.4      0.00      0.09      74.2     0.35      1017.2     0.2       S   173   1.1       S   181   9.05    261      -59.1
   10/17/2017 01:10      64.2      63.4       22     24.6      0.00      0.09      74.2     0.35      1017.3     0.2       S   186   1.2       S   171   9.09    261      -59.6
   10/17/2017 01:00      65.2      63.8       25     27.4      0.00      0.09      74.2     0.35      1017.3     0.2     SSE   159   0.9     SSE   168   9.12    260      -60.8
   10/17/2017 00:50      65.1      64.3       22     25.4      0.00      0.09      74.2     0.35      1017.3     0.0     SSE   147   0.6     SSE   147   9.12    260      -60.0
   10/17/2017 00:40      65.5      64.3       23     25.7      0.00      0.09      74.2     0.35      1017.3     0.0       N     0   0.0     ESE   113   9.11    260      -61.3
   10/17/2017 00:30      66.4      65.2       24     27.4      0.00      0.09      74.2     0.35      1017.3     0.1      SE   137   0.9      SE   145   9.14    260      -61.8
   10/17/2017 00:20      66.7      66.2       21     25.5      0.00      0.09      74.2     0.35      1017.4     0.6     SSE   159   1.7       S   187   9.12    260      -61.6
   10/17/2017 00:10      67.5      66.4       21     26.2      0.00      0.09      74.2     0.35      1017.5     0.9     SSE   151   1.8       S   188   9.10    260      -62.6
   10/17/2017 00:00      67.5      66.9       20     24.9      0.00      0.09      74.2     0.35      1017.5     0.7     SSW   193   2.4     SSW   209   9.13    260      -62.2
   10/16/2017 23:50      67.8      67.0       20     24.9      0.00      0.09      74.2     0.35      1017.5     0.1     SSW   195   1.5     SSW   204   9.15    260      -63.4
   10/16/2017 23:40      68.8      67.5       20     24.9      0.00      0.09      74.2     0.35      1017.4     0.1     SSE   166   0.7     SSE   169   9.17    260      -62.2
   10/16/2017 23:30      69.7      68.6       19     24.6      0.00      0.09      74.2     0.35      1017.4     0.1     SSE   153   0.7     SSE   158   9.15    260      -62.1
   10/16/2017 23:20      70.6      69.3       18     24.5      0.00      0.09      74.2     0.35      1017.6     0.2     SSE   164   0.9     SSE   168   9.14    260      -62.7
   10/16/2017 23:10      71.4      70.3       17     23.6      0.00      0.09      74.1     0.35      1017.6     0.4     SSE   154   1.5     SSE   166   9.13    260      -63.7
   10/16/2017 23:00      72.2      71.2       16     23.0      0.00      0.09      74.1     0.35      1017.7     0.4     ENE    77   1.6     ESE   118   9.14    260      -64.9
   10/16/2017 22:50      72.5      71.9       15     22.5      0.00      0.09      74.1     0.35      1017.7     1.1     SSE   161   2.2     SSW   204   9.13    260      -64.5
   10/16/2017 22:40      72.7      71.4       15     22.7      0.00      0.09      74.1     0.35      1017.7     0.9     ESE   113   2.1     SSW   196   9.16    260      -66.1
   10/16/2017 22:30      72.7      71.5       16     23.2      0.00      0.09      74.1     0.35      1017.7     0.9       E    99   2.3     ENE    57   9.15    260      -66.7
   10/16/2017 22:20      73.2      72.3       15     22.7      0.00      0.09      74.1     0.35      1017.6     1.1      SE   139   2.8     SSE   161   9.16    260      -67.2
   10/16/2017 22:10      73.3      72.6       15     22.1      0.00      0.09      74.1     0.35      1017.6     1.1       S   188   2.5     SSW   212   9.15    260      -67.0
   10/16/2017 22:00      74.2      73.0       15     22.4      0.00      0.09      74.1     0.35      1017.5     0.8      SE   142   1.7     SSW   195   9.15    260      -69.0
   10/16/2017 21:50      75.0      73.9       14     22.2      0.00      0.09      74.0     0.35      1017.5     1.0      SE   140   1.8     SSE   161   9.17    260      -69.2
   10/16/2017 21:40      75.2      74.3       14     23.1      0.00      0.09      74.0     0.35      1017.4     1.3     ESE   122   2.7      SE   138   9.16    259      -71.1
   10/16/2017 21:30      77.5      75.0       14     22.8      0.00      0.09      74.0     0.35      1017.4     0.7      SE   144   2.2     SSE   162   9.18    259      -73.2
   10/16/2017 21:20      79.6      77.4       12     20.9      0.00      0.09      74.0     0.35      1017.2     2.0       S   172   4.9      SW   222   9.18    259      -76.5
   10/16/2017 21:10      79.6      79.2       11     20.2      0.00      0.09      73.9     0.35      1017.2     3.1     SSW   200   5.5       S   188   9.16    259      -78.6
   10/16/2017 21:00      79.6      79.0       11     20.6      0.00      0.09      73.9     0.35      1017.2     3.0     SSW   203   5.4     SSW   195   9.18    259      -79.7
   10/16/2017 20:50      79.6      79.2       11     21.1      0.00      0.09      73.9     0.35      1017.2     4.5     SSW   199   7.0     SSW   200   9.17    259      -80.6
   10/16/2017 20:40      79.8      79.2       11     21.3      0.00      0.09      73.8     0.35      1017.2     4.5     SSW   201   7.2       S   188   9.17    259      -81.5
   10/16/2017 20:30      80.1      79.4       12     21.5      0.00      0.09      73.8     0.35      1017.1     2.5     SSW   212   5.0      SW   235   9.20    259      -82.0
   10/16/2017 20:20      80.1      79.6       11     21.6      0.00      0.09      73.8     0.35      1017.2     3.1      SW   216   5.5      SW   232   9.20    259      -83.0
   10/16/2017 20:10      80.1      79.7       12     21.9      0.00      0.09      73.7     0.35      1017.2     4.3     SSW   209   7.8      SW   219   9.19    259      -83.9
   10/16/2017 20:00      80.6      79.7       12     22.8      0.00      0.09      73.7     0.35      1017.2     3.9     SSW   205   5.5      SW   224   9.18    259      -84.6
   10/16/2017 19:50      81.2      80.3       12     23.9      0.00      0.09      73.7     0.35      1017.1     4.1     SSW   206   8.2      SW   236   9.19    259      -86.1
   10/16/2017 19:40      81.5      80.8       12     24.7      0.00      0.09      73.6     0.35      1017.1     4.3     SSW   207   7.4     SSW   205   9.19    259      -87.4
   10/16/2017 19:30      82.0      81.3       12     25.0      0.00      0.09      73.6     0.35      1017.0     3.5     SSW   207   6.6      SW   220   9.20    259      -87.8
   10/16/2017 19:20      83.1      81.8       12     25.3      0.00      0.09      73.5     0.35      1016.9     2.4      SW   220   4.3      SW   227   9.19    259      -88.9
   10/16/2017 19:10      83.6      82.8       12     25.3      0.00      0.09      73.5     0.35      1016.8     3.3      SW   227   6.1     WSW   239   9.20    259      -90.2
   10/16/2017 19:00      84.4      83.3       12     25.3      0.00      0.09      73.4     0.35      1016.8     3.1      SW   221   6.0     WSW   237   9.18    259      -91.0
   10/16/2017 18:50      85.5      84.2       11     24.9      0.00      0.09      73.4     0.35      1016.7     4.2      SW   231   6.1      SW   234   9.17    259      -92.9
   10/16/2017 18:40      86.4      85.2       10     23.7      0.00      0.09      73.3     0.35      1016.6     4.0     WSW   240   7.7       W   259   9.18    259      -94.1
   10/16/2017 18:30      87.2      86.0       10     22.5      0.00      0.09      73.3     0.35      1016.5     4.1     WSW   257   6.7       W   260   9.19    259      -95.3
   10/16/2017 18:20      87.9      86.9        9     21.1      0.00      0.09      73.2     0.35      1016.5     3.5       W   272   7.4     WSW   253   9.22    259      -94.5
   10/16/2017 18:10      88.5      87.5        8     20.1      0.00      0.09      73.2     0.35      1016.5     3.1       W   275   6.4      SW   235   9.22    259      -92.7
   10/16/2017 18:00      89.2      88.1        8     19.8      0.00      0.09      73.1     0.35      1016.4     3.1       W   279   6.7      NW   309   9.21    259      -90.6
   10/16/2017 17:50      90.5      88.9        8     22.0      0.00      0.09      73.1     0.35      1016.3     3.4     WNW   293   8.2      NW   309   9.21    259      -89.1
   10/16/2017 17:40      91.4      90.2        9     22.9      0.00      0.09      73.0     0.35      1016.2     3.6     WNW   298   7.8     WNW   285   9.23    259      -62.0
   10/16/2017 17:30      92.2      91.2        9     24.8      0.00      0.09      73.0     0.35      1016.1     3.1      NW   307   6.4      NW   305   9.18    259      -39.0
   10/16/2017 17:20      93.3      92.0        9     25.6      0.00      0.09      72.9     0.35      1016.0     3.3      NW   307   6.2     WNW   284   9.20    259      -20.4
   10/16/2017 17:10      94.0      93.0        9     24.9      0.00      0.09      72.8     0.35      1016.0     4.5     WNW   292  10.9     WNW   293   9.24    259        1.0
   10/16/2017 17:00      94.2      93.5        9     26.1      0.00      0.09      72.8     0.35      1016.1     3.8     WNW   301   7.5      NW   309   9.23    259       22.1
   10/16/2017 16:50      94.7      93.9        9     26.3      0.00      0.09      72.8     0.35      1016.1     4.3     WNW   298   8.7      NW   308   9.23    259       44.2
   10/16/2017 16:40      95.5      94.4        9     27.0      0.00      0.09      72.7     0.35      1016.1     4.4      NW   305   9.4      NW   318   9.21    259       68.2
   10/16/2017 16:30      96.7      95.3        9     28.1      0.00      0.09      72.7     0.35      1016.0     3.4      NW   313   7.8      NW   307   9.24    259       92.4
   10/16/2017 16:20      97.1      96.3        9     28.4      0.00      0.09      72.6     0.35      1016.0     3.1     WNW   304   6.8      NW   308   9.26    259      117.1
   10/16/2017 16:10      99.5      96.6        8     27.3      0.00      0.09      72.5     0.35      1016.0     5.1     WNW   284   9.9     WNW   284   9.30    259      140.8
   10/16/2017 16:00     100.7      99.3        7     25.5      0.00      0.09      72.5     0.35      1016.1     2.1      NW   315   7.8     NNW   332   9.28    259      156.1
   10/16/2017 15:50     100.5      98.5        7     23.6      0.00      0.09      72.4     0.35      1016.1     1.4     WSW   256   4.5     NNW   331   9.27    259      176.4
   10/16/2017 15:40     100.5      98.4        7     23.6      0.00      0.09      72.4     0.35      1016.1     2.0     ESE   106   5.4      SE   131   9.31    259      184.8
   10/16/2017 15:30      99.6      98.7        7     23.5      0.00      0.09      72.3     0.35      1016.2     1.4       N     4   3.8       N     4   9.26    259      202.6
   10/16/2017 15:20      99.1      98.3        7     23.6      0.00      0.09      72.3     0.35      1016.2     2.3      NE    47   4.7     NNE    27   9.25    259      221.8
   10/16/2017 15:10      98.8      98.2        7     23.8      0.00      0.09      72.3     0.35      1016.3     2.9      NE    47   5.0     NNE    29   9.27    259      239.0
   10/16/2017 15:00      99.3      98.4        7     24.5      0.00      0.09      72.2     0.35      1016.4     2.5       N   357   6.4     NNE    12   9.27    259      271.1
   10/16/2017 14:50      99.6      98.3        7     24.9      0.00      0.09      72.2     0.35      1016.4     2.3     SSW   206   7.2       W   261   9.29    259      290.0
   10/16/2017 14:40      99.8      98.9        7     25.3      0.00      0.09      72.1     0.35      1016.4     1.8       N     1   4.5     NNW   347   9.23    258      302.7
   10/16/2017 14:30      99.6      98.8        7     24.9      0.00      0.09      72.1     0.35      1016.6     1.4     NNE    22   3.7     ENE    63   9.24    258      317.7
   10/16/2017 14:20      99.4      98.0        7     24.8      0.00      0.09      72.0     0.35      1016.7     1.4     WSW   257   4.0     NNW   347   9.24    258      330.8
   10/16/2017 14:10      98.7      97.8        8     25.9      0.00      0.09      72.0     0.35      1016.9     2.5     NNE    33   4.6      NE    39   9.25    258      341.1
   10/16/2017 14:00      97.7      96.2        8     24.9      0.00      0.09      72.0     0.35      1017.1     2.7       S   175   6.0     SSE   148   9.26    259      358.5
   10/16/2017 13:50      98.7      96.8        7     25.0      0.00      0.09      72.0     0.35      1017.3     2.8      SW   220   8.1       W   267   9.26    259      365.0
   10/16/2017 13:40      99.1      98.1        8     25.9      0.00      0.09      71.9     0.35      1017.4     1.7     NNE    29   4.5      NE    52   9.27    258      370.7
   10/16/2017 13:30      98.4      97.5        8     26.2      0.00      0.09      71.9     0.35      1017.6     1.9     NNW   340   4.4       W   281   9.35    259      380.2
   10/16/2017 13:20      97.9      96.8        7     24.5      0.00      0.09      71.9     0.35      1017.8     1.8     NNW   332   4.9     NNE    23   9.32    258      388.8
   10/16/2017 13:10      98.8      96.8        7     23.8      0.00      0.09      71.9     0.35      1018.0     2.3       E    95   4.5       E    96   9.26    259      394.5
   10/16/2017 13:00      98.8      97.3        7     24.2      0.00      0.09      71.8     0.35      1018.2     1.7      NE    46   5.6       N     2   9.29    258      397.4
   10/16/2017 12:50      97.9      97.4        7     24.2      0.00      0.09      71.8     0.35      1018.3     1.7       N   351   4.2     NNW   331   9.26    258      401.4
   10/16/2017 12:40      97.4      96.1        7     23.0      0.00      0.09      71.8     0.35      1018.5     1.1     NNE    18   3.0     NNE    20   9.27    259      404.5
   10/16/2017 12:30      97.5      96.2        7     23.2      0.00      0.09      71.8     0.35      1018.6     1.4      NE    45   3.7     NNE    31   9.29    258      405.4
   10/16/2017 12:20      97.2      96.2        7     22.7      0.00      0.09      71.9     0.35      1018.7     1.3       W   266   2.7     WSW   244   9.26    259      407.0
   10/16/2017 12:10      97.1      95.1        7     23.7      0.00      0.09      71.9     0.35      1018.8     0.9     WNW   302   3.5     WNW   282   9.27    259      404.5
   10/16/2017 12:00      95.2      93.9        8     23.2      0.00      0.09      71.9     0.35      1018.9     1.1       N     2   3.2      NE    45   9.29    259      401.9
   10/16/2017 11:50      94.3      93.3        8     22.4      0.00      0.09      71.9     0.35      1019.1     1.6     WNW   288   3.9       N    10   9.29    258      400.0
   10/16/2017 11:40      94.3      92.5        8     22.4      0.00      0.09      71.9     0.35      1019.3     0.9      NW   314   2.2     WNW   291   9.29    258      395.6
   10/16/2017 11:30      93.0      91.9        8     21.4      0.00      0.09      71.9     0.35      1019.4     1.8     WNW   289   3.4     WNW   299   9.26    258      390.0
   10/16/2017 11:20      93.1      91.9        8     21.7      0.00      0.09      71.9     0.35      1019.5     0.8      NE    56   2.7       N     0   9.27    258      384.5
   10/16/2017 11:10      91.8      90.1        8     22.0      0.00      0.09      72.0     0.35      1019.6     1.0     NNW   338   3.0     SSW   208   9.27    258      378.3
   10/16/2017 11:00      91.0      89.9        8     21.1      0.00      0.09      72.0     0.35      1019.6     1.6     SSW   208   3.6      SE   129   9.26    258      370.1
   10/16/2017 10:50      91.1      89.3        9     22.8      0.00      0.09      72.0     0.35      1019.7     0.9       E    90   3.0      SE   129   9.27    258      360.6
   10/16/2017 10:40      89.3      88.0        9     23.0      0.00      0.09      72.0     0.35      1019.9     1.4      SE   125   3.0     ENE    72   9.26    259      349.6
   10/16/2017 10:30      88.3      86.4       11     26.1      0.00      0.09      72.1     0.35      1019.9     0.7      SE   125   2.2      SE   135   9.25    259      336.5
   10/16/2017 10:20      86.6      84.5       15     33.5      0.00      0.09      72.1     0.35      1019.9     0.7      NE    45   1.5     NNE    21   9.27    259      324.1
   10/16/2017 10:10      84.6      83.0       20     38.9      0.00      0.09      72.1     0.35      1020.0     0.9     NNE    22   1.6       N     8   9.27    259      310.6
   10/16/2017 10:00      83.1      81.6       21     38.0      0.00      0.09      72.2     0.35      1020.0     0.5       N     0   1.6       N   351   9.30    259      293.6
   10/16/2017 09:50      81.7      80.0       21     37.5      0.00      0.09      72.2     0.35      1020.2     0.3     NNW   341   1.3       N   354   9.32    259      280.7
   10/16/2017 09:40      80.2      77.8       24     39.0      0.00      0.09      72.3     0.35      1020.2     0.6     NNE    20   1.4     NNE    31   9.30    259      265.4
   10/16/2017 09:30      78.0      76.2       24     37.7      0.00      0.09      72.3     0.35      1020.1     0.9       N   359   2.5      NW   312   9.26    259      249.5
   10/16/2017 09:20      76.5      75.2       25     37.7      0.00      0.09      72.3     0.35      1020.2     1.0     NNW   338   2.3     WNW   301   9.30    285      233.9
   10/16/2017 09:10      75.5      73.9       26     37.8      0.00      0.09      72.4     0.35      1020.2     0.3       N    11   1.4     NNE    18   9.32    302      219.0
   10/16/2017 09:00      74.4      72.2       26     36.0      0.00      0.09      72.4     0.35      1020.2     0.2     NNE    13   1.5     NNE    15   9.29    302      202.5
   10/16/2017 08:50      72.5      71.8       24     33.6      0.00      0.09      72.4     0.35      1020.3     0.2       N    11   1.4       N     6   9.28    315      183.6
   10/16/2017 08:40      72.1      69.0       25     33.2      0.00      0.09      72.5     0.35      1020.2     0.0       E    94   0.4       E    97   9.24    316      158.3
   10/16/2017 08:30      69.0      67.1       27     32.8      0.00      0.09      72.5     0.35      1020.2     0.2     ENE    57   1.1     ENE    68   9.00    321      134.5
   10/16/2017 08:10      63.4      61.0       29     29.8      0.00      0.09      72.5     0.35      1020.0     0.0       N     0   0.0      SE   128   8.86    261      -27.1
   10/16/2017 08:00      61.0      58.4       32     29.5      0.00      0.09      72.6     0.35      1019.9     0.0       N     0   0.0      SE   128   8.89    262        7.3
   10/16/2017 07:50      58.5      56.9       32     28.3      0.00      0.09      72.6     0.35      1019.9     0.3     SSE   148   1.3      SE   128   8.86    262      -27.1
   10/16/2017 07:40      57.0      55.8       32     27.0      0.00      0.09      72.6     0.35      1019.9     0.1     NNE    29   0.9     NNE    29   8.84    262      -33.4
   10/16/2017 07:30      56.0      55.0       34     27.4      0.00      0.09      72.6     0.35      1019.8     0.1      NE    35   0.8     NNE    29   8.86    262      -36.5
   10/16/2017 07:20      55.7      54.7       33     26.5      0.00      0.09      72.7     0.35      1019.6     0.5     SSE   150   1.6      SE   135   8.87    262      -40.5
   10/16/2017 07:10      55.6      55.0       28     23.0      0.00      0.09      72.7     0.35      1019.6     0.4       S   182   1.3       S   182   8.91    262      -44.9
   10/16/2017 07:00      55.3      54.6       29     23.3      0.00      0.09      72.7     0.35      1019.6     0.1       S   182   0.9       S   182   8.87    262      -48.0
   10/16/2017 06:50      55.3      54.5       32     25.2      0.00      0.09      72.8     0.35      1019.6     0.3     SSE   152   1.1      SE   142   8.87    262      -49.9
   10/16/2017 06:40      55.1      54.5       29     23.3      0.00      0.09      72.8     0.35      1019.6     0.3       S   188   1.2       S   189   8.84    261      -50.3
   10/16/2017 06:30      55.1      54.6       34     27.0      0.00      0.09      72.8     0.35      1019.6     0.4     SSE   153   1.5      SE   136   8.87    261      -50.2
   10/16/2017 06:20      55.5      54.7       32     25.3      0.00      0.09      72.8     0.35      1019.5     0.0      NE    48   0.4      NE    48   8.87    261      -49.2
   10/16/2017 06:10      55.3      55.0       32     25.7      0.00      0.09      72.8     0.35      1019.5     0.3     SSE   155   1.6       S   171   8.89    262      -48.4
   10/16/2017 06:00      55.7      55.0       33     26.7      0.00      0.09      72.9     0.35      1019.4     0.1     NNE    33   1.4     NNE    15   8.87    262      -47.3
   10/16/2017 05:50      55.6      55.2       30     24.1      0.00      0.09      72.9     0.35      1019.4     0.7     SSE   155   1.9      SE   141   8.89    262      -46.2
   10/16/2017 05:40      55.5      55.0       31     25.1      0.00      0.09      72.9     0.35      1019.3     0.4       S   182   1.2     SSW   198   8.89    261      -45.1
   10/16/2017 05:30      55.3      54.9       29     23.5      0.00      0.09      73.0     0.35      1019.3     0.1     SSW   198   0.7     SSW   198   8.91    262      -45.9
   10/16/2017 05:20      55.7      54.7       31     24.7      0.00      0.09      73.0     0.35      1019.2     0.3     SSE   166   2.0      SE   143   8.92    262      -46.5
   10/16/2017 05:10      55.6      55.0       33     26.9      0.00      0.09      73.0     0.35      1019.3     0.2       S   171   1.3     SSE   155   8.92    261      -47.5
   10/16/2017 05:00      55.8      55.1       34     27.4      0.00      0.09      73.0     0.35      1019.3     0.3     NNW   331   1.1      NW   324   8.91    262      -48.6
   10/16/2017 04:50      55.8      55.3       31     25.3      0.00      0.09      73.1     0.35      1019.3     0.4      SE   144   1.6      SE   141   8.89    261      -48.1
   10/16/2017 04:40      56.5      55.6       32     26.4      0.00      0.09      73.1     0.35      1019.3     0.1      SE   145   1.2      SE   146   8.90    261      -48.8
   10/16/2017 04:30      56.4      55.7       28     23.2      0.00      0.09      73.1     0.35      1019.3     0.3       S   172   1.3      SE   146   8.91    261      -48.6
   10/16/2017 04:20      56.2      55.7       29     23.8      0.00      0.09      73.1     0.35      1019.4     0.2     SSE   167   1.1     SSE   167   8.92    261      -50.2
   10/16/2017 04:10      56.1      55.6       29     23.9      0.00      0.09      73.1     0.35      1019.4     0.0       N     0   0.0     SSE   167   8.89    261      -51.9
   10/16/2017 04:00      56.1      55.8       29     24.4      0.00      0.09      73.2     0.35      1019.5     0.7     SSE   162   1.9       S   171   8.93    261      -52.6
   10/16/2017 03:50      56.3      55.6       30     24.9      0.00      0.09      73.2     0.36      1019.6     0.3       S   170   1.1       S   176   8.88    261      -53.5
   10/16/2017 03:40      56.7      56.1       30     25.1      0.00      0.09      73.2     0.36      1019.6     0.2     SSE   156   1.0     SSE   155   8.89    261      -55.0
   10/16/2017 03:30      56.8      56.2       29     24.4      0.00      0.09      73.2     0.36      1019.6     1.1     SSW   198   3.1     SSW   201   8.91    261      -55.4
   10/16/2017 03:20      57.3      56.4       29     25.1      0.00      0.09      73.3     0.36      1019.8     0.6     SSE   167   1.9       S   189   8.93    261      -54.9
   10/16/2017 03:10      57.5      57.0       29     25.3      0.00      0.09      73.2     0.36      1019.9     0.2       S   188   1.2      SE   144   8.93    261      -54.8
   10/16/2017 03:00      58.0      57.4       29     25.9      0.00      0.09      73.3     0.36      1019.9     0.1     SSW   202   1.1     SSW   202   8.92    261      -54.6
   10/16/2017 02:50      57.9      57.3       28     24.3      0.00      0.09      73.3     0.36      1019.9     0.2     SSW   202   1.6     SSW   203   8.90    261      -54.2
   10/16/2017 02:40      57.8      57.3       30     26.4      0.00      0.09      73.3     0.36      1019.9     0.0       S   169   0.5       S   169   8.92    261      -54.8
   10/16/2017 02:30      58.4      57.5       28     25.0      0.00      0.09      73.3     0.36      1019.8     0.3     SSE   162   1.2      SE   144   8.92    261      -54.2
   10/16/2017 02:20      58.7      58.2       25     23.3      0.00      0.09      73.3     0.36      1019.8     0.3     SSE   167   0.9     SSE   167   8.92    261      -53.0
   10/16/2017 02:10      58.9      58.2       26     23.7      0.00      0.09      73.4     0.36      1019.8     0.0       N     0   0.0     SSE   167   8.94    261      -52.0
   10/16/2017 02:00      58.9      58.5       26     24.1      0.00      0.09      73.4     0.36      1019.8     0.2     SSE   164   1.2     SSE   163   8.90    261      -50.5
   10/16/2017 01:50      59.1      58.4       25     23.4      0.00      0.09      73.4     0.36      1019.8     0.6     SSE   159   1.4      SE   146   8.94    261      -48.7
   10/16/2017 01:40      59.0      58.6       24     21.9      0.00      0.09      73.4     0.36      1019.7     0.3     NNE    33   1.3     NNE    11   8.96    261      -46.0
   10/16/2017 01:30      59.0      58.4       24     22.3      0.00      0.09      73.4     0.36      1019.7     0.2     NNE    11   1.1     NNE    11   8.95    261      -45.1
   10/16/2017 01:20      59.1      58.7       24     22.4      0.00      0.09      73.5     0.36      1019.7     0.1     SSE   168   0.8     SSE   163   8.94    261      -46.1
   10/16/2017 01:10      58.9      58.4       24     22.4      0.00      0.09      73.5     0.36      1019.7     0.8     SSE   157   1.6      SE   145   8.90    261      -49.1
   10/16/2017 01:00      59.4      58.6       25     23.4      0.00      0.09      73.5     0.36      1019.7     0.0       N     0   0.0     ESE   115   8.91    261      -51.9
   10/16/2017 00:50      59.4      59.1       25     23.7      0.00      0.09      73.5     0.36      1019.7     0.5     SSE   152   1.8       S   175   8.93    261      -54.8
   10/16/2017 00:40      59.8      59.0       26     24.2      0.00      0.09      73.5     0.36      1019.7     0.3     SSE   148   1.1      SE   144   8.90    261      -56.3
   10/16/2017 00:30      60.6      59.6       23     22.5      0.00      0.09      73.5     0.36      1019.7     0.5     SSE   152   2.1       S   183   8.90    261      -57.3
   10/16/2017 00:20      60.5      59.6       23     22.1      0.00      0.09      73.5     0.36      1019.8     0.2       S   184   1.4       S   184   8.89    261      -57.1
   10/16/2017 00:10      60.1      59.5       25     23.9      0.00      0.09      73.5     0.36      1019.7     0.1       S   170   1.3       S   187   8.91    261      -59.0
   10/16/2017 00:00      60.2      59.8       23     22.3      0.00      0.09      73.5     0.36      1019.7     0.6       S   176   1.9       S   170   8.93    261      -59.7
   10/15/2017 23:50      60.5      59.9       23     22.7      0.00      0.09      73.5     0.36      1019.8     0.2     SSE   167   1.1       S   170   8.91    261      -60.4
   10/15/2017 23:40      60.5      59.8       23     22.5      0.00      0.09      73.5     0.36      1019.8     0.6       S   178   1.4       S   184   8.90    261      -60.9
   10/15/2017 23:30      61.3      60.2       22     21.8      0.00      0.09      73.5     0.36      1019.9     0.4       S   180   1.3      SE   146   8.97    261      -61.1
   10/15/2017 23:20      61.7      61.1       23     23.3      0.00      0.09      73.5     0.36      1019.9     0.1       S   191   1.1       S   191   8.96    260      -62.4
   10/15/2017 23:10      61.9      61.3       22     22.6      0.00      0.09      73.5     0.36      1020.0     0.5     SSE   165   2.1       S   171   8.97    261      -62.8
   10/15/2017 23:00      62.1      61.5       21     21.3      0.00      0.09      73.5     0.36      1020.0     0.7     SSE   157   1.8      NW   324   8.96    261      -63.3
   10/15/2017 22:50      62.8      61.9       22     22.6      0.00      0.09      73.5     0.36      1020.0     0.3     SSE   156   1.6       S   176   8.96    260      -63.0
   10/15/2017 22:40      63.5      62.4       22     22.9      0.00      0.09      73.5     0.36      1019.9     0.5     SSE   160   1.4       S   178   8.97    260      -63.5
   10/15/2017 22:30      63.5      62.4       22     23.0      0.00      0.09      73.5     0.36      1020.0     1.0       S   173   2.3      SW   214   8.94    260      -64.3
   10/15/2017 22:20      63.6      62.5       22     23.9      0.00      0.09      73.5     0.36      1020.0     0.0     ENE    74   0.2     ENE    74   8.92    260      -66.8
   10/15/2017 22:10      64.4      63.3       21     23.6      0.00      0.09      73.5     0.36      1019.9     0.9     SSE   151   2.1     NNE    27   8.93    260      -67.4
   10/15/2017 22:00      64.9      64.2       21     24.2      0.00      0.09      73.4     0.36      1019.9     1.0     SSE   165   2.3       S   178   8.94    260      -68.9
   10/15/2017 21:50      65.3      64.7       19     21.7      0.00      0.09      73.4     0.36      1019.7     1.0     SSE   164   1.8     SSE   165   8.93    260      -70.1
   10/15/2017 21:40      65.9      65.1       18     21.0      0.00      0.09      73.4     0.36      1019.6     0.6       S   175   1.6       S   184   8.89    260      -70.4
   10/15/2017 21:30      66.1      65.6       19     22.2      0.00      0.09      73.4     0.36      1019.6     0.7     SSE   158   1.5       S   176   8.89    260      -70.5
   10/15/2017 21:20      66.3      65.7       19     22.0      0.00      0.09      73.4     0.36      1019.6     0.1     SSE   161   0.5     SSE   161   8.93    260      -70.5
   10/15/2017 21:10      67.0      66.1       19     23.0      0.00      0.09      73.3     0.36      1019.5     0.1     SSE   165   0.9       S   173   8.94    260      -71.7
   10/15/2017 21:00      68.4      66.7       19     23.2      0.00      0.09      73.3     0.36      1019.4     0.0     SSE   152   0.2     SSE   152   8.94    260      -73.2
   10/15/2017 20:50      68.9      68.0       17     22.3      0.00      0.09      73.3     0.36      1019.3     0.2     SSE   152   1.0     SSE   152   9.02    260      -74.6
   10/15/2017 20:40      69.6      68.6       16     21.4      0.00      0.09      73.3     0.36      1019.3     0.7     SSE   162   1.7      SE   133   9.00    260      -75.4
   10/15/2017 20:30      70.3      69.3       16     22.1      0.00      0.09      73.3     0.36      1019.2     1.2     SSE   150   2.5      SE   134   9.00    260      -76.7
   10/15/2017 20:20      71.1      69.9       16     22.0      0.00      0.09      73.2     0.36      1019.1     1.1     SSE   158   2.6      SE   140   9.03    260      -77.6
   10/15/2017 20:10      71.0      70.5       16     22.2      0.00      0.09      73.2     0.36      1019.0     1.7      SE   143   2.4      SE   144   8.99    260      -79.0
   10/15/2017 20:00      71.2      70.8       15     21.5      0.00      0.09      73.1     0.36      1019.0     0.9     SSE   154   2.1     SSE   150   8.99    260      -80.1
   10/15/2017 19:50      71.8      70.8       15     21.3      0.00      0.09      73.1     0.36      1018.9     0.3     SSE   162   1.4       S   185   8.99    260      -80.3
   10/15/2017 19:40      73.3      71.6       15     21.7      0.00      0.09      73.1     0.36      1018.8     0.9     SSE   152   3.0      SE   141   8.97    260      -82.1
   10/15/2017 19:30      74.7      73.1       14     21.7      0.00      0.09      73.0     0.36      1018.7     1.2     SSE   147   2.4     SSE   150   8.95    260      -84.1
   10/15/2017 19:20      75.2      74.5       12     18.8      0.00      0.09      73.0     0.36      1018.5     0.9     SSE   153   2.4      SE   143   8.95    260      -84.9
   10/15/2017 19:10      76.2      74.7       12     19.4      0.00      0.09      73.0     0.36      1018.4     1.2     SSE   151   3.1     SSE   152   9.01    260      -86.4
   10/15/2017 19:00      76.5      75.5       10     16.3      0.00      0.09      72.9     0.36      1018.2     1.1       S   169   3.0      SE   140   9.00    259      -86.5
   10/15/2017 18:50      77.8      75.9       11     19.0      0.00      0.09      72.9     0.36      1018.1     1.2     SSE   156   2.7      SE   139   9.00    259      -89.0
   10/15/2017 18:40      79.6      77.4       12     21.3      0.00      0.09      72.8     0.36      1017.9     1.8     SSE   153   3.1      SE   135   9.01    259      -91.7
   10/15/2017 18:30      81.6      79.5        9     16.9      0.00      0.09      72.8     0.36      1017.8     0.9     SSE   156   2.6      SE   139   8.97    259      -92.6
   10/15/2017 18:20      84.2      81.3        8     16.1      0.00      0.09      72.8     0.36      1017.8     1.2     SSE   152   3.1       S   191   9.01    259      -92.1
   10/15/2017 18:10      87.6      84.0        7     13.9      0.00      0.09      72.7     0.36      1017.7     1.1     WSW   237   3.1       S   189   9.03    259      -91.8
   10/15/2017 18:00      88.7      87.3        7     14.6      0.00      0.09      72.6     0.36      1017.7     1.1     NNW   341   3.8     NNW   342   9.04    259      -91.8
   10/15/2017 17:50      89.4      88.3        6     14.3      0.00      0.09      72.6     0.36      1017.6     2.0       N   354   5.4      NE    41   9.04    259      -91.5
   10/15/2017 17:40      90.1      89.1        6     13.7      0.00      0.09      72.5     0.36      1017.6     2.8       N     2   5.4       N     5   9.03    259      -57.4
   10/15/2017 17:30      90.6      89.8        6     14.1      0.00      0.09      72.5     0.36      1017.5     3.5       N   358   6.8      NW   321   9.06    259      -40.5
   10/15/2017 17:20      90.7      90.3        6     14.3      0.00      0.09      72.4     0.36      1017.5     2.5       N     1   7.3       N     1   9.04    259      -20.9
   10/15/2017 17:10      91.2      90.4        6     14.2      0.00      0.09      72.4     0.36      1017.5     4.0       N   355   6.9     ENE    64   9.05    259        0.5
   10/15/2017 17:00      91.2      90.7        6     14.1      0.00      0.09      72.3     0.36      1017.6     3.9     NNW   347   8.2       N   355   9.05    259       23.5
   10/15/2017 16:50      91.7      90.9        6     14.3      0.00      0.09      72.3     0.36      1017.6     4.4       N     5   9.3     NNE    27   9.05    259       46.0
   10/15/2017 16:40      92.0      91.5        6     14.8      0.00      0.09      72.3     0.36      1017.6     3.6       N     8   8.0      NE    38   9.06    259       69.5
   10/15/2017 16:30      92.1      91.5        6     14.4      0.00      0.09      72.2     0.36      1017.7     3.4       N     5   6.6       N     5   9.03    259       95.8
   10/15/2017 16:20      92.6      91.8        6     14.4      0.00      0.09      72.2     0.36      1017.7     4.2       N   359   7.6     NNE    13   9.05    259      120.8
   10/15/2017 16:10      92.6      91.8        6     14.8      0.00      0.09      72.1     0.36      1017.7     3.2       N   355   6.7     NNE    12   9.10    259      144.9
   10/15/2017 16:00      92.7      91.8        6     14.9      0.00      0.09      72.0     0.36      1017.8     4.4       N   359   9.7     NNW   332   9.12    259      170.1
   10/15/2017 15:50      92.4      91.8        6     14.3      0.00      0.09      72.0     0.36      1017.8     4.6       N   359   8.5      NW   324   9.12    259      192.6
   10/15/2017 15:40      92.7      92.0        6     14.7      0.00      0.09      72.0     0.36      1017.8     4.9       N     3   9.6       N    10   9.06    259      197.2
   10/15/2017 15:30      92.6      91.8        6     14.9      0.00      0.09      71.9     0.36      1017.9     4.5       N     3   8.0     NNE    28   9.05    259      217.0
   10/15/2017 15:20      92.6      91.8        6     15.4      0.00      0.09      71.9     0.36      1018.0     4.3       N     1   9.6       N   353   9.08    259      235.8
   10/15/2017 15:10      92.4      91.5        6     15.2      0.00      0.09      71.8     0.36      1018.0     4.8       N     7   9.7     NNE    13   9.07    259      255.4
   10/15/2017 15:00      92.6      91.7        6     16.2      0.00      0.09      71.8     0.36      1018.1     5.3       N     6   9.7     NNE    12   9.08    259      285.4
   10/15/2017 14:50      92.8      91.8        6     16.1      0.00      0.09      71.8     0.36      1018.1     4.9     NNE    13  10.0      NE    41   9.10    259      301.0
   10/15/2017 14:40      92.4      91.8        6     16.2      0.00      0.09      71.7     0.36      1018.2     4.3       N     9   7.9      NW   321   9.08    259      314.7
   10/15/2017 14:30      92.4      91.8        6     16.3      0.00      0.09      71.7     0.36      1018.2     4.4     NNE    16   7.7     NNE    32   9.07    258      328.6
   10/15/2017 14:20      92.3      91.6        6     15.9      0.00      0.09      71.7     0.36      1018.3     4.2     NNE    15   7.8     NNE    24   9.08    259      341.4
   10/15/2017 14:10      92.4      91.9        6     15.9      0.00      0.09      71.6     0.36      1018.5     4.2       N     7   7.8       E    88   9.11    258      352.2
   10/15/2017 14:00      92.7      91.8        6     15.4      0.00      0.09      71.6     0.36      1018.6     4.3       N    11   8.8     NNW   341   9.10    259      361.9
   10/15/2017 13:50      92.5      91.3        6     14.9      0.00      0.09      71.6     0.36      1018.7     3.1       N    11   6.8     NNW   329   9.11    258      371.2
   10/15/2017 13:40      91.5      90.7        6     15.1      0.00      0.09      71.6     0.36      1018.9     3.8     NNE    14   9.8     NNW   348   9.10    258      381.8
   10/15/2017 13:30      91.7      90.8        6     14.6      0.00      0.09      71.5     0.36      1019.1     4.8       N     4   8.9       N    11   9.13    258      390.3
   10/15/2017 13:20      92.1      90.8        6     14.6      0.00      0.09      71.5     0.36      1019.2     3.0     NNE    26   8.1     NNE    25   9.13    258      396.3
   10/15/2017 13:10      91.4      90.6        6     14.0      0.00      0.09      71.5     0.36      1019.4     3.1     NNE    23   6.8     NNE    11   9.11    258      402.0
   10/15/2017 13:00      91.6      90.8        6     13.9      0.00      0.09      71.5     0.35      1019.6     3.2       N   357   6.9     NNE    13   9.16    258      406.9
   10/15/2017 12:50      90.8      90.1        6     14.3      0.00      0.09      71.5     0.35      1019.8     3.3       N   358   7.6     NNW   340   9.15    259      411.9
   10/15/2017 12:40      90.4      89.1        6     13.8      0.00      0.09      71.5     0.35      1019.9     3.4       N     8   8.7     NNE    22   9.16    258      416.3
   10/15/2017 12:30      89.5      88.9        6     13.6      0.00      0.09      71.5     0.35      1020.0     5.5       N    10   9.6     NNE    17   9.13    259      418.1
   10/15/2017 12:20      89.7      88.8        6     14.5      0.00      0.09      71.5     0.35      1020.0     4.4     NNE    18   8.7      NE    39   9.15    259      417.0
   10/15/2017 12:10      89.6      88.2        7     15.2      0.00      0.09      71.5     0.35      1020.1     4.0     NNE    27   8.8       W   276   9.14    259      415.5
   10/15/2017 12:00      89.2      88.5        6     14.9      0.00      0.09      71.5     0.35      1020.2     4.5       N     4  10.9       N   354   9.13    258      411.5
   10/15/2017 11:50      89.1      88.2        7     15.4      0.00      0.09      71.5     0.35      1020.3     4.8       N     9   8.8       N   355   9.10    259      407.8
   10/15/2017 11:40      88.9      87.9        7     15.8      0.00      0.09      71.5     0.35      1020.3     4.3       N    10  10.1       N     4   9.09    259      402.7
   10/15/2017 11:30      88.2      87.1        7     15.7      0.00      0.09      71.6     0.35      1020.3     4.0       N    11   8.9       N     5   9.08    259      397.6
   10/15/2017 11:20      87.5      86.7        7     15.8      0.00      0.09      71.6     0.36      1020.3     4.1       N     5   8.3     NNW   327   9.09    259      390.6
   10/15/2017 11:10      87.1      85.6        7     16.5      0.00      0.09      71.6     0.35      1020.3     3.3     NNE    12   7.9      NE    48   9.10    258      381.8
   10/15/2017 11:00      87.2      85.6        7     14.6      0.00      0.09      71.7     0.36      1020.4     4.0     NNE    16   8.6     NNW   341   9.10    259      372.5
   10/15/2017 10:50      88.1      86.7        8     17.9      0.00      0.09      71.7     0.36      1020.5     1.3       N    11   5.3      NE    46   9.08    258      360.6
   10/15/2017 10:40      87.0      85.4        8     18.5      0.00      0.09      71.7     0.36      1020.5     0.8     WSW   245   2.4     SSW   209   9.08    258      348.7
   10/15/2017 10:30      85.5      84.3        9     18.8      0.00      0.09      71.7     0.36      1020.4     1.1     NNW   331   3.1     NNW   345   9.08    258      335.0
   10/15/2017 10:20      84.8      83.7        9     19.1      0.00      0.09      71.8     0.36      1020.5     0.7       N   351   3.1     NNE    21   9.08    258      320.8
   10/15/2017 10:10      83.7      82.2        9     19.3      0.00      0.09      71.8     0.36      1020.5     0.8     WNW   289   3.0     WNW   302   9.06    258      308.7
   10/15/2017 10:00      82.7      82.0        9     17.7      0.00      0.09      71.8     0.36      1020.5     1.6      SW   220   3.1     SSW   207   9.04    259      294.5
   10/15/2017 09:50      82.7      81.8        9     18.9      0.00      0.09      71.9     0.36      1020.4     1.2     WNW   290   3.0     WSW   255   9.10    258      278.9
   10/15/2017 09:40      82.5      81.6       10     19.1      0.00      0.09      71.9     0.36      1020.5     1.0       S   170   2.4     SSW   211   9.08    259      262.1
   10/15/2017 09:30      81.7      80.5       11     20.8      0.00      0.09      72.0     0.36      1020.4     1.1      SE   134   2.5      SE   138   9.12    259      246.7
   10/15/2017 09:20      80.6      78.6       13     24.2      0.00      0.09      72.0     0.36      1020.4     1.2     ESE   119   2.8      SE   128   9.08    259      230.4
   10/15/2017 09:10      78.7      77.1       18     31.1      0.00      0.09      72.0     0.36      1020.4     0.8     ESE   119   2.1      SE   136   9.08    260      215.9
   10/15/2017 09:00      77.1      73.5       21     32.7      0.00      0.09      72.1     0.36      1020.3     0.4     ESE   105   1.4      SE   130   9.05    260      198.9
   10/15/2017 08:50      73.6      71.3       22     31.9      0.00      0.09      72.1     0.36      1020.3     1.1     ESE   121   1.9      SE   140   9.08    261      179.3
   10/15/2017 08:40      71.3      69.1       24     31.9      0.00      0.09      72.1     0.36      1020.2     0.7     SSE   165   2.3       S   186   9.07    262      155.3
   10/15/2017 08:30      69.2      66.5       25     30.8      0.00      0.09      72.1     0.36      1020.2     0.1     NNE    12   0.8       N     1   9.05    262      131.0
   10/15/2017 08:20      66.4      63.3       27     29.7      0.00      0.09      72.2     0.36      1020.1     0.7      SE   145   2.5      SE   142   9.06    262       32.9
   10/15/2017 08:10      63.6      61.8       28     28.9      0.00      0.09      72.2     0.36      1019.9     0.9      SE   146   2.3       N   355   9.05    262      -26.7
   10/15/2017 08:00      62.0      59.6       29     28.2      0.00      0.09      72.2     0.36      1019.8     0.7      SE   146   2.0      SE   137   9.01    262       -2.4
   10/15/2017 07:50      59.8      57.9       29     26.4      0.00      0.09      72.3     0.36      1019.7     1.0     SSE   156   2.4      SE   142   9.05    262      -25.8
   10/15/2017 07:40      58.2      57.1       29     25.0      0.00      0.09      72.3     0.36      1019.6     0.6     SSE   158   2.1       S   183   9.06    262      -39.4
   10/15/2017 07:30      57.3      55.6       30     25.3      0.00      0.09      72.3     0.36      1019.6     0.9      SE   144   2.4      SE   145   9.08    262      -42.7
   10/15/2017 07:20      55.9      55.5       28     23.1      0.00      0.09      72.3     0.36      1019.5     0.5      SE   139   1.8     SSE   161   9.07    262      -46.1
   10/15/2017 07:10      56.3      55.5       28     23.1      0.00      0.09      72.4     0.36      1019.3     0.1      SE   137   1.2      SE   142   9.07    262      -50.4
   10/15/2017 07:00      56.4      55.8       28     23.3      0.00      0.09      72.4     0.36      1019.3     0.8       S   175   2.5       S   184   9.07    262      -54.2
   10/15/2017 06:50      57.3      56.0       27     23.0      0.00      0.09      72.4     0.36      1019.2     0.5       S   175   1.6     SSE   168   9.04    262      -56.1
   10/15/2017 06:40      57.5      57.0       28     24.1      0.00      0.09      72.5     0.36      1019.1     0.7     SSE   158   1.7     SSE   162   9.04    262      -56.8
   10/15/2017 06:30      57.6      57.1       27     23.8      0.00      0.09      72.5     0.36      1019.0     1.0     SSE   155   1.8      SE   145   9.06    262      -56.0
   10/15/2017 06:20      57.7      57.1       26     23.0      0.00      0.09      72.5     0.36      1019.0     1.1     SSE   159   2.7      SE   140   9.04    262      -56.7
   10/15/2017 06:10      57.5      56.9       28     24.4      0.00      0.09      72.5     0.36      1018.9     1.0     SSE   152   1.9      SE   143   9.05    262      -56.7
   10/15/2017 06:00      57.7      56.9       27     23.1      0.00      0.09      72.6     0.36      1018.9     0.6     SSE   158   1.9     SSE   148   9.09    262      -56.2
   10/15/2017 05:50      57.5      55.8       28     24.2      0.00      0.09      72.6     0.36      1018.8     1.0     SSE   156   2.0     SSE   153   9.06    262      -55.9
   10/15/2017 05:40      56.5      55.7       29     24.0      0.00      0.09      72.6     0.36      1018.8     0.9     SSE   155   1.8      SE   132   9.04    262      -56.5
   10/15/2017 05:30      57.7      56.4       27     23.0      0.00      0.09      72.6     0.36      1018.7     0.5     SSE   158   1.9      SW   220   9.05    262      -57.4
   10/15/2017 05:20      57.4      56.4       26     22.4      0.00      0.09      72.7     0.36      1018.6     1.0     SSW   203   3.5     SSW   192   9.07    262      -55.8
   10/15/2017 05:10      56.9      56.4       26     22.2      0.00      0.09      72.7     0.36      1018.6     0.3     SSW   212   1.4     WSW   250   9.08    262      -56.6
   10/15/2017 05:00      57.0      56.1       28     23.7      0.00      0.09      72.7     0.36      1018.5     0.9     SSE   167   1.7       S   176   9.09    262      -56.2
   10/15/2017 04:50      56.7      56.2       28     24.1      0.00      0.09      72.7     0.36      1018.5     0.5       S   173   1.2     SSE   147   9.08    262      -56.1
   10/15/2017 04:40      56.9      56.3       27     23.2      0.00      0.09      72.7     0.36      1018.4     0.1       S   175   0.7       S   175   9.04    262      -56.6
   10/15/2017 04:30      57.1      56.6       28     23.9      0.00      0.09      72.8     0.36      1018.3     0.2       S   175   0.9       S   175   9.05    262      -56.9
   10/15/2017 04:20      57.4      56.8       28     24.2      0.00      0.09      72.8     0.36      1018.4     0.2       S   173   1.6       S   175   9.07    262      -57.1
   10/15/2017 04:10      57.5      57.0       27     23.1      0.00      0.09      72.8     0.36      1018.4     0.3     SSE   166   0.9     SSE   165   9.10    262      -57.4
   10/15/2017 04:00      58.2      57.3       26     23.2      0.00      0.09      72.8     0.36      1018.4     0.2     SSE   164   1.2     SSE   165   9.12    262      -58.0
   10/15/2017 03:50      58.0      57.7       27     23.7      0.00      0.09      72.8     0.36      1018.4     0.5       S   172   1.1       S   183   9.15    262      -57.8
   10/15/2017 03:40      58.2      57.8       27     24.4      0.00      0.09      72.9     0.36      1018.4     0.5     SSE   165   1.4      SE   145   9.13    262      -58.3
   10/15/2017 03:30      58.4      57.8       28     24.7      0.00      0.09      72.9     0.36      1018.4     0.6     SSE   160   1.9      SE   139   9.08    262      -58.8
   10/15/2017 03:20      58.3      57.7       28     24.9      0.00      0.09      72.9     0.36      1018.4     0.9     SSE   162   2.8     SSE   150   9.09    262      -58.6
   10/15/2017 03:10      58.3      57.7       27     23.9      0.00      0.09      72.9     0.36      1018.4     0.2     SSE   159   1.3     SSE   159   9.03    262      -58.9
   10/15/2017 03:00      58.4      57.8       27     24.1      0.00      0.09      73.0     0.36      1018.4     0.5       S   172   1.6       S   186   9.04    262      -59.0
   10/15/2017 02:50      58.9      57.7       27     24.0      0.00      0.09      73.0     0.36      1018.4     0.1       S   185   1.2       S   183   9.11    262      -59.8
   10/15/2017 02:40      59.7      58.6       26     24.6      0.00      0.09      73.0     0.36      1018.4     0.3      SE   133   1.3     SSE   168   9.08    262      -59.7
   10/15/2017 02:30      59.7      59.2       28     26.1      0.00      0.09      73.0     0.36      1018.4     0.8     SSE   157   1.6     SSE   156   9.08    262      -59.8
   10/15/2017 02:20      59.8      59.1       26     24.9      0.00      0.09      73.0     0.36      1018.5     0.5       S   174   1.5     SSE   159   9.09    262      -59.8
   10/15/2017 02:10      60.1      59.5       27     26.3      0.00      0.09      73.0     0.36      1018.5     0.6     SSE   167   1.4       S   187   9.15    262      -59.7
   10/15/2017 02:00      60.3      59.7       29     27.4      0.00      0.09      73.0     0.36      1018.4     1.0     SSE   154   1.6      SE   141   9.09    262      -60.3
   10/15/2017 01:50      60.5      59.8       28     26.9      0.00      0.09      73.1     0.36      1018.4     0.4     SSE   163   1.3       S   186   9.13    262      -61.2
   10/15/2017 01:40      60.5      59.7       30     28.1      0.00      0.09      73.1     0.36      1018.3     1.0      SE   143   2.4      SE   144   9.14    262      -61.5
   10/15/2017 01:30      60.3      59.7       28     27.0      0.00      0.09      73.1     0.36      1018.2     0.8     SSE   160   1.9       S   187   9.14    262      -61.2
   10/15/2017 01:20      60.3      59.9       30     28.3      0.00      0.09      73.1     0.36      1018.2     0.6       S   181   2.7       S   181   9.14    261      -61.5
   10/15/2017 01:10      60.5      59.8       30     28.9      0.00      0.09      73.1     0.36      1018.1     0.2     SSW   201   1.3       S   176   9.19    262      -60.9
   10/15/2017 01:00      61.1      60.2       31     29.6      0.00      0.09      73.1     0.36      1018.1     0.1     SSW   205   1.0     SSW   205   9.19    262      -62.0
   10/15/2017 00:50      61.5      60.7       31     30.2      0.00      0.09      73.1     0.36      1018.1     0.5     SSE   155   1.6     SSW   204   9.14    261      -63.7
   10/15/2017 00:40      61.5      61.0       32     31.1      0.00      0.09      73.1     0.36      1018.0     0.9     SSE   158   2.6       S   182   9.18    261      -63.9
   10/15/2017 00:30      61.8      61.1       32     31.1      0.00      0.09      73.1     0.36      1017.9     0.8     SSE   164   2.1      NW   316   9.11    261      -64.1
   10/15/2017 00:20      61.2      60.3       33     31.4      0.00      0.09      73.1     0.36      1017.9     1.1     SSE   155   1.9     SSE   149   9.12    262      -62.5
   10/15/2017 00:10      61.0      60.0       32     30.3      0.00      0.09      73.1     0.36      1017.8     0.5     SSE   165   1.2     SSE   147   9.11    261      -63.1
   10/15/2017 00:00      61.3      60.5       30     28.9      0.00      0.09      73.1     0.36      1017.8     0.5     SSE   155   1.6       S   174   9.06    261      -63.4
   10/14/2017 23:50      61.3      60.2       28     27.8      0.00      0.09      73.1     0.36      1017.8     0.9       S   189   2.1     SSW   203   9.05    261      -63.6
   10/14/2017 23:40      61.3      60.2       27     26.7      0.00      0.09      73.1     0.36      1017.8     0.2      NW   313   1.6     NNW   329   9.07    261      -64.8
   10/14/2017 23:30      62.1      61.0       26     26.4      0.00      0.09      73.1     0.36      1017.7     0.2     SSE   150   1.3     SSE   166   9.09    261      -64.4
   10/14/2017 23:20      62.6      61.7       23     23.4      0.00      0.09      73.1     0.37      1017.7     0.3      SE   145   1.2      SE   138   9.08    261      -65.1
   10/14/2017 23:10      62.8      62.3       22     23.7      0.00      0.09      73.1     0.37      1017.7     0.4     SSE   154   1.2       S   173   9.11    261      -66.7
   10/14/2017 23:00      63.1      62.5       22     23.6      0.00      0.09      73.1     0.37      1017.7     0.4       S   188   2.3       S   188   9.10    261      -68.2
   10/14/2017 22:50      64.0      62.8       22     23.6      0.00      0.09      73.1     0.37      1017.6     0.7       E    87   2.7     NNE    15   9.10    261      -68.0
   10/14/2017 22:40      64.2      63.5       20     22.5      0.00      0.09      73.1     0.37      1017.5     0.5     SSE   167   2.1       S   190   9.10    261      -67.2
   10/14/2017 22:30      65.8      64.0       20     22.7      0.00      0.09      73.1     0.37      1017.4     0.8       S   171   2.3       S   171   9.12    260      -69.1
   10/14/2017 22:20      66.5      65.5       19     23.1      0.00      0.09      73.0     0.37      1017.4     0.8      SE   124   2.4     SSE   159   9.13    260      -71.8
   10/14/2017 22:10      67.5      66.3       19     22.9      0.00      0.09      73.0     0.37      1017.3     1.4     SSE   147   3.0      SE   145   9.11    260      -72.4
   10/14/2017 22:00      67.7      67.0       17     21.6      0.00      0.09      73.0     0.37      1017.1     1.6     SSE   148   2.6      SE   145   9.11    260      -72.2
   10/14/2017 21:50      69.8      67.4       17     21.7      0.00      0.09      73.0     0.37      1017.1     1.3     SSE   151   3.3      SE   140   9.13    260      -72.8
   10/14/2017 21:40      70.3      69.2       14     18.8      0.00      0.09      73.0     0.37      1017.0     1.0     SSE   157   2.1     SSE   168   9.15    260      -72.2
   10/14/2017 21:30      69.7      68.4       15     19.1      0.00      0.09      73.0     0.37      1016.9     1.4       S   176   2.8     SSW   210   9.17    260      -73.1
   10/14/2017 21:20      71.6      69.1       15     20.3      0.00      0.09      73.0     0.37      1016.9     1.8     SSE   156   3.3       S   177   9.12    260      -73.9
   10/14/2017 21:10      72.3      70.8       14     19.5      0.00      0.09      73.0     0.37      1016.9     1.3     SSE   164   2.9      SE   142   9.12    260      -74.4
   10/14/2017 21:00      72.3      71.3       12     16.4      0.00      0.09      73.0     0.37      1016.8     1.2       S   176   2.7       S   186   9.14    260      -75.3
   10/14/2017 20:50      71.6      70.7       14     20.0      0.00      0.09      72.9     0.37      1016.7     1.7     SSE   157   4.2     SSW   212   9.11    260      -75.6
   10/14/2017 20:40      73.3      71.3       13     18.9      0.00      0.09      72.9     0.37      1016.6     1.5     SSE   159   3.1      SE   136   9.12    260      -74.9
   10/14/2017 20:30      73.0      71.1       12     17.1      0.00      0.09      72.9     0.37      1016.5     1.6       S   190   2.6     SSW   207   9.10    260      -75.0
   10/14/2017 20:20      72.3      71.3       14     20.5      0.00      0.09      72.8     0.37      1016.4     1.4     SSE   161   3.2     SSW   196   9.11    260      -78.7
   10/14/2017 20:10      71.5      70.7       15     21.6      0.00      0.09      72.8     0.37      1016.3     1.4     SSE   159   3.0     SSE   159   9.14    260      -79.2
   10/14/2017 20:00      71.3      70.3       16     22.6      0.00      0.09      72.8     0.37      1016.2     1.5     SSE   149   3.2      SE   146   9.13    260      -80.0
   10/14/2017 19:50      72.5      71.1       15     21.6      0.00      0.09      72.8     0.37      1016.0     1.6     SSE   156   3.0      SE   141   9.16    260      -81.7
   10/14/2017 19:40      72.7      72.2       14     20.3      0.00      0.09      72.7     0.37      1015.9     0.8     SSE   163   2.5       S   170   9.15    260      -84.6
   10/14/2017 19:30      74.8      72.4       13     20.1      0.00      0.09      72.7     0.37      1015.7     1.5     SSE   158   3.4       S   178   9.16    260      -84.5
   10/14/2017 19:20      77.2      74.7       12     19.0      0.00      0.09      72.6     0.37      1015.6     1.2     SSE   160   2.5     SSE   157   9.17    260      -85.6
   10/14/2017 19:10      80.5      77.2       10     16.5      0.00      0.09      72.6     0.37      1015.4     1.0     SSE   165   2.7     SSE   148   9.17    260      -86.7
   10/14/2017 19:00      82.1      80.4        8     15.1      0.00      0.09      72.5     0.37      1015.3     0.4      NW   312   1.5       W   279   9.18    259      -89.9
   10/14/2017 18:50      83.1      81.8        8     15.6      0.00      0.09      72.5     0.37      1015.2     0.3      NW   316   1.6      NW   315   9.17    259      -92.9
   10/14/2017 18:40      83.9      82.8        8     15.8      0.00      0.09      72.5     0.37      1015.2     1.0     NNW   339   3.5      NW   305   9.16    259      -95.4
   10/14/2017 18:30      84.7      83.5        8     16.4      0.00      0.09      72.4     0.37      1015.1     1.6     NNW   340   3.5       N     1   9.18    259      -95.5
   10/14/2017 18:20      85.5      84.4        8     17.2      0.00      0.09      72.4     0.37      1015.0     1.3     NNW   348   3.2     NNW   334   9.18    259      -94.2
   10/14/2017 18:10      86.4      85.2        8     17.5      0.00      0.09      72.3     0.37      1015.0     1.8       N   351   4.7       W   274   9.18    259      -91.0
   10/14/2017 18:00      87.2      86.1        8     17.7      0.00      0.09      72.3     0.37      1014.9     2.0     NNW   335   5.4     NNW   333   9.19    259      -84.9
   10/14/2017 17:50      88.1      87.0        7     17.1      0.00      0.09      72.3     0.37      1014.9     2.6     NNW   347   4.7     NNW   345   9.20    259      -82.5
   10/14/2017 17:40      88.6      87.8        7     16.2      0.00      0.09      72.2     0.37      1014.9     3.1       N     2   7.8     NNE    22   9.19    259      -53.3
   10/14/2017 17:30      89.0      88.4        7     16.3      0.00      0.09      72.2     0.37      1014.9     3.3       N     3   7.1       N     7   9.19    259      -38.3
   10/14/2017 17:20      89.4      88.7        7     16.2      0.00      0.09      72.1     0.37      1014.9     3.6       N   349   6.6      NW   325   9.17    259      -19.1
   10/14/2017 17:10      89.6      89.1        7     16.5      0.00      0.09      72.0     0.37      1014.9     3.8       N     8   8.0      NE    34   9.20    259        1.0
   10/14/2017 17:00      90.0      89.2        7     16.5      0.00      0.09      72.0     0.37      1014.8     3.8     NNW   347   7.4       N   351   9.22    259       22.2
   10/14/2017 16:50      90.1      89.7        7     16.6      0.00      0.09      72.0     0.37      1014.8     4.4       N     4   8.1     NNE    33   9.18    259       45.7
   10/14/2017 16:40      90.1      89.6        7     16.3      0.00      0.09      71.9     0.37      1014.8     3.7       N   349   6.7     NNW   335   9.21    259       72.2
   10/14/2017 16:30      90.6      89.6        6     16.0      0.00      0.09      71.9     0.37      1014.8     5.0       N     5   9.7       N   355   9.20    259       96.8
   10/14/2017 16:20      91.2      90.4        7     17.1      0.00      0.09      71.8     0.37      1014.9     4.4       N   359   8.1     NNE    17   9.20    259      115.8
   10/14/2017 16:10      91.5      90.7        7     18.0      0.00      0.09      71.8     0.37      1014.9     3.3     NNE    29   7.2     NNE    18   9.20    259      142.3
   10/14/2017 16:00      92.1      91.1        7     17.9      0.00      0.09      71.8     0.37      1014.9     3.1     NNE    26   7.6     NNW   342   9.18    259      164.8
   10/14/2017 15:50      91.8      91.0        7     17.5      0.00      0.09      71.7     0.37      1015.0     2.6     NNE    19   6.8     WNW   299   9.17    259      179.0
   10/14/2017 15:40      91.6      90.7        7     18.1      0.00      0.09      71.7     0.37      1015.0     3.4       N   349   7.2      NE    35   9.20    259      193.5
   10/14/2017 15:30      91.1      90.3        7     18.2      0.00      0.09      71.6     0.37      1015.1     4.1     NNW   346   9.2      NW   319   9.21    259      215.8
   10/14/2017 15:20      91.0      90.3        7     18.2      0.00      0.09      71.6     0.37      1015.1     3.7     NNW   342   9.6     NNE    24   9.21    259      236.6
   10/14/2017 15:10      91.8      90.6        7     19.4      0.00      0.09      71.5     0.37      1015.2     4.4       N     2  11.5     NNE    33   9.22    259      254.3
   10/14/2017 15:00      91.1      90.4        8     19.9      0.00      0.09      71.5     0.37      1015.2     4.2     NNW   333   8.1      NW   319   9.22    259      284.6
   10/14/2017 14:50      91.0      90.5        8     20.8      0.00      0.09      71.5     0.37      1015.3     4.2     NNW   349   6.7      NE    35   9.23    259      301.0
   10/14/2017 14:40      91.2      89.9        8     21.4      0.00      0.09      71.4     0.37      1015.4     3.1       N   355   8.1      NW   313   9.22    259      311.5
   10/14/2017 14:30      91.2      90.6        8     22.3      0.00      0.09      71.4     0.37      1015.5     3.2       N   353   7.7     NNW   346   9.25    259      325.9
   10/14/2017 14:20      90.8      89.7        8     21.3      0.00      0.09      71.4     0.37      1015.5     2.8     NNW   343   7.2     NNE    26   9.22    259      337.9
   10/14/2017 14:10      89.8      88.6        8     20.7      0.00      0.09      71.4     0.37      1015.6     3.4     NNW   330   7.9      NW   309   9.21    259      354.0
   10/14/2017 14:00      89.1      87.9        8     21.0      0.00      0.09      71.3     0.37      1015.7     2.8     NNW   348   6.0     NNE    11   9.22    259      364.9
   10/14/2017 13:50      89.1      87.7        8     20.5      0.00      0.09      71.3     0.37      1015.8     4.8     NNW   347  10.8       N     3   9.21    259      375.5
   10/14/2017 13:40      89.1      88.7        8     20.9      0.00      0.09      71.3     0.37      1015.9     3.3     NNW   344   6.0      NW   315   9.22    259      381.3
   10/14/2017 13:30      88.9      87.6        8     20.6      0.00      0.09      71.3     0.37      1016.0     2.9     NNE    23   6.8      NW   323   9.21    259      392.2
   10/14/2017 13:20      88.4      87.6        8     20.4      0.00      0.09      71.3     0.37      1016.0     4.0       N     7   8.6     NNE    26   9.20    259      403.7
   10/14/2017 13:10      88.6      87.7        8     20.3      0.00      0.09      71.3     0.37      1016.1     3.9       N     6   7.7     NNE    14   9.19    259      408.1
   10/14/2017 13:00      88.4      87.6        8     19.9      0.00      0.09      71.3     0.37      1016.2     3.6       N     5   7.6     WNW   289   9.21    259      415.8
   10/14/2017 12:50      88.4      87.7        8     20.4      0.00      0.09      71.3     0.37      1016.3     3.5       N     4   6.7     NNW   343   9.23    259      418.3
   10/14/2017 12:40      87.8      86.0        9     19.8      0.00      0.09      71.3     0.37      1016.3     3.5     NNE    17   7.6     NNW   329   9.23    259      424.4
   10/14/2017 12:30      86.6      85.9        8     18.7      0.00      0.09      71.3     0.36      1016.3     5.4       N   353   9.5       N   352   9.22    259      425.0
   10/14/2017 12:20      86.8      86.2        8     19.1      0.00      0.09      71.3     0.37      1016.4     4.7       N   357   9.5       N     4   9.23    259      422.3
   10/14/2017 12:10      87.3      86.5       10     23.3      0.00      0.09      71.3     0.37      1016.5     3.5     NNE    14  10.8       N     9   9.25    259      418.9
   10/14/2017 12:00      87.2      85.1       13     30.3      0.00      0.09      71.3     0.37      1016.5     1.7     NNE    30   6.7      NE    43   9.27    259      417.6
   10/14/2017 11:50      85.7      84.6       16     33.4      0.00      0.09      71.3     0.37      1016.5     2.3     NNE    15   6.0     NNE    22   9.23    260      415.2
   10/14/2017 11:40      85.7      83.8       17     35.4      0.00      0.09      71.4     0.37      1016.6     1.4      NE    41   4.7      NW   324   9.25    259      411.1
   10/14/2017 11:30      84.3      82.3       18     35.1      0.00      0.09      71.4     0.37      1016.7     1.1     NNW   340   4.2     ENE    72   9.25    260      404.6
   10/14/2017 11:20      82.7      81.6       18     35.1      0.00      0.09      71.4     0.37      1016.7     1.3     NNE    12   3.6     NNW   344   9.22    260      397.6
   10/14/2017 11:10      81.8      80.8       19     35.7      0.00      0.09      71.5     0.37      1016.7     1.3     ESE   111   3.0     NNE    23   9.23    260      390.8
   10/14/2017 11:00      81.7      80.5       20     36.1      0.00      0.09      71.5     0.37      1016.7     1.0     ENE    67   2.9       E    86   9.23    260      381.2
   10/14/2017 10:50      80.5      79.6       20     35.6      0.00      0.09      71.5     0.37      1016.7     0.8      NE    35   2.4     NNE    32   9.22    260      370.0
   10/14/2017 10:40      80.4      78.4       20     35.3      0.00      0.09      71.6     0.37      1016.8     0.9       E    99   3.6      SE   126   9.23    260      357.3
   10/14/2017 10:30      78.4      77.4       22     36.1      0.00      0.09      71.6     0.37      1016.9     1.5       E    89   3.5     ESE   122   9.24    261      344.1
   10/14/2017 10:20      77.9      76.7       26     39.8      0.00      0.09      71.7     0.37      1016.9     1.2      NE    39   2.7     NNE    19   9.25    261      328.4
   10/14/2017 10:10      76.8      74.8       37     47.4      0.00      0.09      71.7     0.37      1016.9     0.5      NE    50   2.3     ENE    57   9.24    262      315.6
   10/14/2017 10:00      75.0      71.8       43     49.2      0.00      0.09      71.7     0.37      1017.0     0.5      NE    40   1.8       N     0   9.26    262      298.6
   10/14/2017 09:50      72.0      70.1       47     49.8      0.00      0.09      71.8     0.37      1017.0     0.8     NNW   340   2.9     NNW   342   9.27    262      282.7
   10/14/2017 09:40      70.2      68.4       52     50.5      0.00      0.09      71.8     0.37      1017.1     0.8     NNW   347   2.1      NW   306   9.25    263      266.1
   10/14/2017 09:30      68.3      66.7       56     51.1      0.00      0.09      71.9     0.37      1017.0     1.2      NE    35   3.5     NNW   345   9.23    264      247.3
   10/14/2017 09:20      66.7      64.5       60     51.0      0.00      0.09      71.9     0.37      1017.0     1.0      NE    55   3.8     NNE    16   9.19    272      235.2
   10/14/2017 09:10      64.6      62.8       63     50.9      0.00      0.09      71.9     0.37      1017.0     1.3      NE    47   3.6      SE   143   9.19    301      235.3
   10/14/2017 09:00      62.7      61.1       67     50.8      0.00      0.09      72.0     0.37      1017.1     1.0     ESE   115   3.0       S   175   9.19    363      243.5
   10/14/2017 08:50      61.1      59.0       72     50.7      0.00      0.09      72.0     0.37      1017.0     0.3       N     1   1.2     NNW   347   9.18    402      221.6
   10/14/2017 08:40      59.1      57.1       75     50.1      0.00      0.09      72.0     0.37      1016.9     0.6     ENE    60   1.8       N   355   9.22    410      196.9
   10/14/2017 08:30      57.3      54.9       83     50.7      0.00      0.09      72.1     0.37      1016.9     0.1     ENE    59   1.5     NNE    30   9.21    413      165.6
   10/14/2017 08:20      55.0      53.5       89     51.0      0.00      0.09      72.1     0.37      1016.8     0.1     NNE    30   0.7      NE    50   9.21    414       65.0
   10/14/2017 08:10      53.8      52.1       92     50.4      0.00      0.09      72.1     0.37      1016.8     0.0       N     0   0.0      NE    53   9.23    412       24.3
   10/14/2017 08:00      52.2      50.4       92     48.8      0.00      0.09      72.2     0.37      1016.7     0.0       N     0   0.0      NE    53   9.18    409       34.8
   10/14/2017 07:50      50.6      49.5       93     47.9      0.00      0.09      72.2     0.37      1016.7     0.0       N     0   0.0      NE    52   9.18    406       18.5
   10/14/2017 07:40      49.8      48.6       93     47.2      0.00      0.09      72.2     0.37      1016.6     0.3      SE   141   1.6       S   181   9.19    402        3.9
   10/14/2017 07:30      48.9      48.1       93     46.3      0.00      0.09      72.3     0.37      1016.6     0.3       S   173   1.2     SSE   166   9.17    397       -2.3
   10/14/2017 07:20      48.5      47.9       93     46.1      0.00      0.09      72.3     0.37      1016.6     0.3       S   171   1.3       S   174   9.23    394      -10.2
   10/14/2017 07:10      48.0      47.6       92     45.7      0.00      0.09      72.3     0.37      1016.6     0.0       S   174   0.4       S   174   9.20    389      -17.6
   10/14/2017 07:00      48.2      47.6       92     45.6      0.00      0.09      72.3     0.37      1016.6     0.0       S   173   0.4       S   173   9.23    383      -22.0
   10/14/2017 06:50      49.0      47.9       92     46.4      0.00      0.09      72.4     0.37      1016.6     0.2     SSE   158   1.0      SE   144   9.22    378      -23.5
   10/14/2017 06:40      49.1      48.5       92     46.5      0.00      0.09      72.4     0.37      1016.5     0.0     SSW   196   0.6     SSW   196   9.19    372      -24.3
   10/14/2017 06:30      49.1      48.7       92     46.5      0.00      0.09      72.4     0.37      1016.5     0.1     SSW   196   0.7     SSW   196   9.17    365      -24.8
   10/14/2017 06:20      49.3      48.8       91     46.5      0.00      0.09      72.5     0.37      1016.4     0.0       N     0   0.0     SSW   196   9.18    358      -25.3
   10/14/2017 06:10      49.4      48.8       91     46.5      0.00      0.09      72.5     0.37      1016.4     0.0     SSW   196   0.7     SSW   196   9.17    352      -25.5
   10/14/2017 06:00      49.3      48.8       91     46.6      0.00      0.09      72.5     0.37      1016.4     0.2     SSW   192   0.8     SSW   196   9.20    345      -26.1
   10/14/2017 05:50      49.5      48.8       90     46.5      0.00      0.09      72.5     0.37      1016.4     0.0       N     0   0.0     SSW   198   9.22    338      -26.8
   10/14/2017 05:40      49.6      49.1       90     46.6      0.00      0.09      72.6     0.37      1016.4     0.1     SSW   193   0.8       S   190   9.23    333      -27.6
   10/14/2017 05:30      49.6      49.2       90     46.5      0.00      0.09      72.6     0.37      1016.4     0.2     SSE   160   0.8     SSE   154   9.21    329      -28.2
   10/14/2017 05:20      50.4      49.3       89     46.8      0.00      0.09      72.6     0.37      1016.3     0.1      SE   137   0.9      SE   137   9.23    325      -29.0
   10/14/2017 05:10      50.5      49.9       90     47.4      0.00      0.09      72.7     0.37      1016.2     0.3     NNW   332   1.6     NNW   329   9.22    321      -28.2
   10/14/2017 05:00      50.5      49.8       90     47.2      0.00      0.09      72.7     0.37      1016.2     0.0       N     0   0.0      SE   143   9.22    314      -28.3
   10/14/2017 04:50      50.0      49.3       89     46.5      0.00      0.09      72.7     0.37      1016.2     0.0       N     0   0.0       E    82   9.25    310      -29.4
   10/14/2017 04:40      50.5      49.5       89     46.6      0.00      0.09      72.8     0.37      1016.1     0.1       E    82   0.9       E    82   9.25    307      -29.9
   10/14/2017 04:30      50.7      50.3       89     47.3      0.00      0.09      72.8     0.37      1016.0     0.1      SE   138   0.6       E    82   9.23    305      -30.3
   10/14/2017 04:20      50.9      50.4       89     47.5      0.00      0.09      72.8     0.37      1015.9     0.0     SSE   156   0.7     SSE   152   9.24    300      -31.4
   10/14/2017 04:10      50.7      50.2       88     47.0      0.00      0.09      72.8     0.37      1015.9     0.1     SSE   160   0.5     SSE   160   9.25    297      -32.9
   10/14/2017 04:00      50.5      50.2       87     46.5      0.00      0.09      72.8     0.38      1015.9     0.0     SSE   160   0.5     SSE   160   9.26    294      -34.2
   10/14/2017 03:50      51.0      50.3       87     46.8      0.00      0.09      72.9     0.38      1015.8     0.0     SSE   161   0.6     SSE   161   9.25    291      -35.1
   10/14/2017 03:40      51.0      50.5       87     46.9      0.00      0.09      72.9     0.38      1015.7     0.0     SSE   161   0.3     SSE   161   9.24    288      -36.7
   10/14/2017 03:30      51.0      50.5       85     46.4      0.00      0.09      72.9     0.38      1015.8     0.0       N     0   0.0     SSE   161   9.23    286      -38.8
   10/14/2017 03:20      51.5      50.8       85     46.7      0.00      0.09      73.0     0.38      1015.8     0.0     SSE   164   0.7     SSE   163   9.23    284      -39.9
   10/14/2017 03:10      51.8      51.2       85     46.9      0.00      0.09      73.0     0.38      1015.9     0.0       N     0   0.0       S   172   9.23    282      -41.6
   10/14/2017 03:00      51.7      51.2       84     46.9      0.00      0.09      73.0     0.38      1015.9     0.1       S   172   0.6       S   172   9.22    280      -43.4
   10/14/2017 02:50      51.7      51.3       84     46.8      0.00      0.09      73.0     0.38      1015.9     0.0       S   172   0.4       S   172   9.20    280      -45.7
   10/14/2017 02:40      51.7      51.2       83     46.6      0.00      0.09      73.0     0.38      1015.9     0.0       S   172   0.7       S   172   9.22    278      -48.1
   10/14/2017 02:30      51.8      51.2       82     46.2      0.00      0.09      73.0     0.38      1015.8     0.0       S   170   0.7     SSE   168   9.22    277      -50.6
   10/14/2017 02:20      52.0      51.4       81     46.1      0.00      0.09      73.1     0.38      1015.8     0.1       S   170   0.7       S   174   9.25    277      -52.1
   10/14/2017 02:10      52.5      51.6       82     46.4      0.00      0.09      73.1     0.38      1015.8     0.0       S   174   0.7       S   174   9.27    276      -53.2
   10/14/2017 02:00      52.5      52.0       82     46.7      0.00      0.09      73.1     0.38      1015.8     0.1       S   174   0.7       S   174   9.22    275      -55.2
   10/14/2017 01:50      52.5      52.1       80     46.4      0.00      0.09      73.1     0.38      1015.7     0.0       S   174   0.2       S   174   9.22    273      -58.0
   10/14/2017 01:40      52.6      52.2       80     46.4      0.00      0.09      73.2     0.38      1015.5     0.0       N     0   0.0       S   174   9.24    273      -59.8
   10/14/2017 01:30      52.6      52.1       80     46.2      0.00      0.09      73.2     0.38      1015.5     0.1     SSE   164   0.6     SSE   156   9.20    272      -62.0
   10/14/2017 01:20      52.6      52.1       79     45.9      0.00      0.09      73.2     0.38      1015.5     0.3     SSE   167   0.9     SSW   196   9.21    272      -63.2
   10/14/2017 01:10      53.1      52.4       77     45.9      0.00      0.09      73.2     0.38      1015.4     0.0     SSW   204   0.7     SSW   204   9.23    272      -64.7
   10/14/2017 01:00      53.6      52.9       77     46.3      0.00      0.09      73.2     0.38      1015.4     0.1     SSE   159   0.8     SSE   149   9.24    271      -65.9
   10/14/2017 00:50      53.7      53.1       77     46.4      0.00      0.09      73.3     0.38      1015.5     0.2     SSE   153   1.1       S   184   9.24    271      -66.6
   10/14/2017 00:40      54.3      53.5       74     45.9      0.00      0.09      73.3     0.38      1015.5     0.4     SSE   159   1.2     SSE   167   9.30    271      -67.1
   10/14/2017 00:30      54.2      53.6       75     46.2      0.00      0.09      73.3     0.38      1015.5     0.1       S   170   1.0       S   170   9.27    269      -67.4
   10/14/2017 00:20      55.0      53.9       76     46.8      0.00      0.09      73.3     0.38      1015.5     0.1       S   177   1.1       S   182   9.25    271      -68.9
   10/14/2017 00:10      55.3      54.6       75     47.2      0.00      0.09      73.3     0.38      1015.5     0.2       S   181   1.3      SW   226   9.27    271      -68.4
   10/14/2017 00:00      55.6      55.1       76     48.0      0.00      0.09      73.3     0.38      1015.6     0.4     SSE   165   0.9       S   169   9.26    271      -69.1
   10/13/2017 23:50      55.5      55.1       75     47.6      0.00      0.09      73.3     0.38      1015.7     0.5     SSW   209   1.6     WSW   247   9.25    270      -68.6
   10/13/2017 23:40      56.3      55.3       76     48.2      0.00      0.09      73.3     0.38      1015.6     0.5     SSE   159   1.6      SE   136   9.26    270      -69.5
   10/13/2017 23:30      56.3      55.6       76     48.3      0.00      0.09      73.3     0.38      1015.6     0.4     SSW   198   1.4       S   169   9.24    270      -68.3
   10/13/2017 23:20      57.1      56.0       77     49.5      0.00      0.09      73.3     0.38      1015.6     0.0     SSE   165   0.7     SSE   165   9.23    271      -68.8
   10/13/2017 23:10      57.8      56.9       76     49.9      0.00      0.09      73.3     0.38      1015.5     0.1     SSE   165   0.6     SSE   165   9.23    270      -68.4
   10/13/2017 23:00      57.8      57.4       75     49.5      0.00      0.09      73.3     0.38      1015.4     0.2     SSE   164   0.7     SSE   164   9.22    269      -69.0
   10/13/2017 22:50      58.0      57.4       74     49.4      0.00      0.09      73.3     0.38      1015.4     0.5     SSE   150   1.8      SE   143   9.25    269      -69.4
   10/13/2017 22:40      58.4      57.5       72     48.9      0.00      0.09      73.3     0.38      1015.4     0.3     SSE   161   1.1      SE   146   9.25    269      -68.8
   10/13/2017 22:30      59.0      58.0       70     48.7      0.00      0.09      73.3     0.38      1015.4     0.2     SSE   149   1.6      SE   144   9.26    267      -69.3
   10/13/2017 22:20      59.4      58.7       70     49.0      0.00      0.09      73.3     0.38      1015.4     0.8     SSE   166   2.0     SSW   195   9.29    267      -67.8
   10/13/2017 22:10      59.8      59.2       67     48.4      0.00      0.09      73.3     0.38      1015.4     0.1     SSE   147   0.7     SSE   147   9.29    266      -67.8
   10/13/2017 22:00      60.0      59.4       65     47.7      0.00      0.09      73.3     0.38      1015.4     0.1       S   171   0.6       S   171   9.30    266      -68.9
   10/13/2017 21:50      60.5      59.7       61     46.5      0.00      0.09      73.3     0.38      1015.3     0.1      SE   135   0.9      SE   136   9.28    266      -69.3
   10/13/2017 21:40      60.6      60.1       60     46.5      0.00      0.09      73.3     0.38      1015.3     0.3     SSE   156   1.0      SE   137   9.29    264      -69.3
   10/13/2017 21:30      60.6      60.3       58     45.6      0.00      0.09      73.2     0.38      1015.2     0.5     SSE   159   1.7      SE   146   9.25    264      -69.8
   10/13/2017 21:20      60.9      60.3       57     45.1      0.00      0.09      73.2     0.38      1015.2     0.4     SSE   161   1.6      SE   142   9.25    264      -70.0
   10/13/2017 21:10      61.8      60.6       55     44.8      0.00      0.09      73.2     0.38      1015.2     0.4       S   170   1.6       S   178   9.25    264      -70.0
   10/13/2017 21:00      62.8      61.5       54     45.0      0.00      0.09      73.2     0.38      1015.0     0.2      SE   143   1.1      SE   143   9.26    263      -72.3
   10/13/2017 20:50      63.0      62.4       52     45.0      0.00      0.09      73.2     0.38      1014.8     0.3     SSE   155   1.8      SE   132   9.25    263      -72.7
   10/13/2017 20:40      63.1      62.4       52     44.8      0.00      0.09      73.1     0.38      1014.7     1.2       S   173   2.7       S   183   9.25    263      -73.1
   10/13/2017 20:30      64.4      62.8       52     45.3      0.00      0.09      73.1     0.38      1014.7     0.2     SSE   165   1.4      SE   142   9.26    263      -74.4
   10/13/2017 20:20      65.0      64.1       51     45.8      0.00      0.09      73.1     0.38      1014.6     0.1     SSE   146   1.2      SE   142   9.28    263      -73.8
   10/13/2017 20:10      66.1      64.7       50     46.0      0.00      0.09      73.0     0.38      1014.5     0.2     SSE   156   1.2     SSE   149   9.25    263      -75.8
   10/13/2017 20:00      67.0      65.9       48     46.1      0.00      0.09      73.0     0.38      1014.5     1.1       S   174   2.2       S   180   9.25    262      -76.7
   10/13/2017 19:50      68.0      66.8       45     45.3      0.00      0.09      73.0     0.38      1014.5     1.0       S   191   2.0      SW   219   9.24    262      -75.5
   10/13/2017 19:40      68.5      67.7       45     46.0      0.00      0.09      73.0     0.38      1014.4     0.5     WSW   242   1.5      SW   217   9.24    262      -76.2
   10/13/2017 19:30      70.7      68.4       43     46.1      0.00      0.09      73.0     0.38      1014.3     0.0     NNW   332   0.4       N     0   9.24    262      -80.6
   10/13/2017 19:20      71.7      70.6       41     46.3      0.00      0.09      72.9     0.38      1014.1     0.1      NE    43   1.2      NE    46   9.27    262      -83.9
   10/13/2017 19:10      72.3      71.4       40     46.4      0.00      0.09      72.8     0.38      1014.0     0.3       S   183   2.5     SSW   213   9.27    262      -84.4
   10/13/2017 19:00      73.2      71.9       39     46.4      0.00      0.09      72.8     0.38      1013.9     0.4     SSW   214   1.8     SSW   214   9.24    262      -85.1
   10/13/2017 18:50      73.8      72.9       38     46.4      0.00      0.09      72.8     0.38      1013.9     2.1      SW   229   4.4       S   191   9.26    262      -88.0
   10/13/2017 18:40      74.5      73.4       37     45.9      0.00      0.09      72.8     0.38      1013.8     3.0      SW   215   5.5     SSW   211   9.29    262      -88.9
   10/13/2017 18:30      75.8      74.2       33     44.3      0.00      0.09      72.7     0.38      1013.7     1.9      SW   219   4.2     WSW   240   9.28    262      -87.6
   10/13/2017 18:20      76.7      75.6       31     43.1      0.00      0.09      72.7     0.38      1013.7     3.1      SW   235   5.5      SW   226   9.28    261      -85.1
   10/13/2017 18:10      77.6      76.4       30     42.7      0.00      0.09      72.6     0.38      1013.7     3.7     WSW   238   6.2      SW   222   9.25    261      -80.0
   10/13/2017 18:00      78.8      77.3       29     42.6      0.00      0.09      72.6     0.38      1013.7     2.0      SW   225   3.8     SSW   201   9.26    261      -73.1
   10/13/2017 17:50      79.9      78.5       26     41.2      0.00      0.09      72.6     0.38      1013.7     1.6     WSW   242   3.5      SW   222   9.27    261      -66.2
   10/13/2017 17:40      80.1      79.4       25     40.8      0.00      0.09      72.5     0.38      1013.7     1.5     WNW   281   4.1     WNW   300   9.28    261      -43.8
   10/13/2017 17:30      80.6      79.7       25     41.2      0.00      0.09      72.5     0.38      1013.6     2.2      NW   305   5.0      NW   306   9.28    261      -28.2
   10/13/2017 17:20      80.9      80.2       25     41.9      0.00      0.09      72.5     0.38      1013.6     2.4     WNW   290   6.5      NW   306   9.27    261       -9.1
   10/13/2017 17:10      81.2      80.3       25     42.0      0.00      0.09      72.4     0.38      1013.6     2.5     WNW   296   6.0     WNW   302   9.26    261       13.0
   10/13/2017 17:00      81.0      80.3       24     41.0      0.00      0.09      72.4     0.38      1013.6     2.6     WNW   289   4.9     WSW   257   9.28    261       36.8
   10/13/2017 16:50      80.9      80.5       24     40.7      0.00      0.09      72.3     0.38      1013.6     3.3     WNW   300   7.1     WNW   297   9.29    261       60.7
   10/13/2017 16:40      81.3      80.5       23     40.1      0.00      0.09      72.3     0.38      1013.6     4.2     WNW   301   7.2      NW   322   9.27    261       85.8
   10/13/2017 16:30      81.8      80.8       22     39.2      0.00      0.09      72.2     0.38      1013.6     4.7      NW   305   8.8       W   261   9.28    261      110.0
   10/13/2017 16:20      82.1      81.3       23     40.5      0.00      0.09      72.2     0.38      1013.5     3.6      NW   313   7.6       W   263   9.28    260      133.7
   10/13/2017 15:50      83.9      82.7       24     42.3      0.00      0.09      72.0     0.38      1013.5     4.6      NW   305   8.7     WNW   303   9.25    260      192.3
   10/13/2017 15:40      84.4      83.8       25     44.0      0.00      0.00      72.0     0.39      1013.4     4.0     WNW   287   7.7       W   278   9.27    260      210.4
   10/13/2017 15:40      84.4      83.8       25     44.0      0.00      0.00      72.0     0.39      1013.4     4.0     WNW   287   7.7       W   278   9.27    260      210.4
   10/13/2017 15:30      85.3      84.1       24     44.0      0.00      0.00      72.0     0.39      1013.4     3.9     WNW   287  11.3     WNW   303   9.30    260      229.1
   10/13/2017 15:30      85.3      84.1       24     44.0      0.00      0.00      72.0     0.39      1013.4     3.9     WNW   287  11.3     WNW   303   9.30    260      229.1
   10/13/2017 15:20      85.4      84.9       22     42.3      0.00      0.00      72.0     0.39      1013.4     1.6       W   279   6.7     SSW   211   9.29    260      247.0
   10/13/2017 15:20      85.4      84.9       22     42.3      0.00      0.00      72.0     0.39      1013.4     1.6       W   279   6.7     SSW   211   9.29    260      247.0
   10/13/2017 15:10      86.9      85.2       20     40.6      0.00      0.00      71.9     0.39      1013.0     4.8       W   263   8.0      NW   313   9.28    260      267.3
   10/13/2017 15:10      86.9      85.2       20     40.6      0.00      0.00      71.9     0.39      1013.0     4.8       W   263   8.0      NW   313   9.28    260      267.3
   10/13/2017 15:00      87.1      85.8       20     40.1      0.00      0.00      71.9     0.39      1013.0     2.4     WNW   287   6.0      SW   233   9.28    260      285.9
   10/13/2017 15:00      87.1      85.8       20     40.1      0.00      0.00      71.9     0.39      1013.0     2.4     WNW   287   6.0      SW   233   9.28    260      285.9
   10/13/2017 14:50      87.1      86.7       21     41.7      0.00      0.00      71.8     0.39      1013.0     2.1     WNW   298   6.2     NNW   340   9.30    259      303.9
   10/13/2017 14:50      87.1      86.7       21     41.7      0.00      0.00      71.8     0.39      1013.0     2.1     WNW   298   6.2     NNW   340   9.30    259      303.9
   10/13/2017 14:40      86.4      85.7       22     42.3      0.00      0.00      71.8     0.39      1014.0     1.5      NE    49   3.2       N     3   9.29    260      315.0
   10/13/2017 14:40      86.4      85.7       22     42.3      0.00      0.00      71.8     0.39      1014.0     1.5      NE    49   3.2       N     3   9.29    260      315.0
   10/13/2017 14:30      86.6      85.5       22     42.7      0.00      0.00      71.8     0.39      1014.0     2.3       N     5   4.4     NNW   348   9.29    260      331.6
   10/13/2017 14:30      86.6      85.5       22     42.7      0.00      0.00      71.8     0.39      1014.0     2.3       N     5   4.4     NNW   348   9.29    260      331.6
   10/13/2017 14:30      86.6      85.5       22     42.7      0.00      0.00      71.8     0.39      1014.0     2.3       N     5   4.4     NNW   348   9.29    260      331.6
   10/13/2017 14:30      86.6      85.5       22     42.7      0.00      0.00      71.8     0.39      1014.0     2.3       N     5   4.4     NNW   348   9.29    260      331.6
   10/13/2017 14:20      86.7      85.7       22     42.9      0.00      0.00      71.8     0.39      1014.0     1.5       E    96   4.0     ENE    73   9.28    260      342.5
   10/13/2017 14:20      86.7      85.7       22     42.9      0.00      0.00      71.8     0.39      1014.0     1.5       E    96   4.0     ENE    73   9.28    260      342.5
   10/13/2017 14:20      86.7      85.7       22     42.9      0.00      0.00      71.8     0.39      1014.0     1.5       E    96   4.0     ENE    73   9.28    260      342.5
   10/13/2017 14:20      86.7      85.7       22     42.9      0.00      0.00      71.8     0.39      1014.0     1.5       E    96   4.0     ENE    73   9.28    260      342.5
   10/13/2017 14:10      85.5      84.7       23     43.3      0.00      0.00      71.7     0.39      1014.0     1.5     ENE    77   3.6      SE   135   9.29    260      "NAN"
   10/13/2017 14:10      85.5      84.7       23     43.3      0.00      0.00      71.7     0.39      1014.0     1.5     ENE    77   3.6      SE   135   9.29    260      "NAN"
   10/13/2017 14:10      85.5      84.7       23     43.3      0.00      0.00      71.7     0.39      1014.0     1.5     ENE    77   3.6      SE   135   9.29    260      "NAN"
   10/13/2017 14:10      85.5      84.7       23     43.3      0.00      0.00      71.7     0.39      1014.0     1.5     ENE    77   3.6      SE   135   9.29    260      "NAN"
   10/13/2017 14:00      85.3      83.5       23     43.1      0.00      0.00      71.7     0.39      1014.0     0.9     ESE   102   4.0       E    99   9.28    260      374.1
   10/13/2017 14:00      85.3      83.5       23     43.1      0.00      0.00      71.7     0.39      1014.0     0.9     ESE   102   4.0       E    99   9.28    260      374.1
   10/13/2017 14:00      85.3      83.5       23     43.1      0.00      0.00      71.7     0.39      1014.0     0.9     ESE   102   4.0       E    99   9.28    260      374.1
   10/13/2017 14:00      85.3      83.5       23     43.1      0.00      0.00      71.7     0.39      1014.0     0.9     ESE   102   4.0       E    99   9.28    260      374.1
   10/13/2017 13:00      82.0      81.5       27     44.1      0.00      0.00     "NAN"     0.39      1015.0     1.6      NW   309   3.3      NW   311   9.29    267      "NAN"
   10/13/2017 13:00      82.0      81.5       27     44.1      0.00      0.00     "NAN"     0.39      1015.0     1.6      NW   309   3.3      NW   311   9.29    267      "NAN"
   10/13/2017 12:50      81.1      79.6       29     44.6      0.00      0.00     "NAN"     0.39      1015.0     1.3      NE    34   3.7      NE    45   0.93    267      "NAN"
   10/13/2017 12:50      81.1      79.6       29     44.6      0.00      0.00     "NAN"     0.39      1015.0     1.3      NE    34   3.7      NE    45   0.93    267      "NAN"
   10/13/2017 12:40      79.8      79.6       29     44.8      0.00      0.00     "NAN"     0.39      1015.0     2.0     NNE    17   3.8     NNW   339   0.93    267      "NAN"
   10/13/2017 12:40      79.8      79.6       29     44.8      0.00      0.00     "NAN"     0.39      1015.0     2.0     NNE    17   3.8     NNW   339   0.93    267      "NAN"
   10/13/2017 12:30      79.7      78.2       30     44.9      0.00      0.00     "NAN"     0.39      1016.0     1.5       N   358   3.9       N     7   0.93    267      "NAN"
   10/13/2017 12:30      79.7      78.2       30     44.9      0.00      0.00     "NAN"     0.39      1016.0     1.5       N   358   3.9       N     7   0.93    267      "NAN"
   10/13/2017 12:20      78.7      78.0       31     45.6      0.00      0.00     "NAN"     0.39      1016.0     2.0       N    11   3.7     NNE    13   0.93    267      "NAN"
   10/13/2017 12:20      78.7      78.0       31     45.6      0.00      0.00     "NAN"     0.39      1016.0     2.0       N    11   3.7     NNE    13   0.93    267      "NAN"
   10/13/2017 12:10      79.1      77.8       32     46.1      0.00      0.00     "NAN"     0.39      1016.0     1.0       N     5   3.3     NNE    33   0.93    267      "NAN"
   10/13/2017 12:10      79.1      77.8       32     46.1      0.00      0.00     "NAN"     0.39      1016.0     1.0       N     5   3.3     NNE    33   0.93    267      "NAN"
   10/13/2017 12:00      78.2      77.6       34     47.6      0.00      0.00     "NAN"     0.39      1016.0     1.6     ENE    60   3.9     NNE    17   0.93    267      "NAN"
   10/13/2017 12:00      78.2      77.6       34     47.6      0.00      0.00     "NAN"     0.39      1016.0     1.6     ENE    60   3.9     NNE    17   0.93    267      "NAN"
   10/13/2017 11:50      77.4      76.1       34     46.1      0.00      0.00     "NAN"     0.39      1016.0     1.5     ESE   118   4.1     ENE    77   0.93    268      "NAN"
   10/13/2017 11:50      77.4      76.1       34     46.1      0.00      0.00     "NAN"     0.39      1016.0     1.5     ESE   118   4.1     ENE    77   0.93    268      "NAN"
   10/13/2017 11:40      76.8      75.9       35     46.5      0.00      0.00     "NAN"     0.39      1016.0     1.7     NNE    30   5.6     NNE    14   0.93    267      "NAN"
   10/13/2017 11:40      76.8      75.9       35     46.5      0.00      0.00     "NAN"     0.39      1016.0     1.7     NNE    30   5.6     NNE    14   0.93    267      "NAN"
   10/13/2017 11:30      76.1      75.2       36     46.8      0.00      0.00     "NAN"     0.39      1016.0     0.4     NNE    16   3.9       S   181   0.93    267      "NAN"
   10/13/2017 11:30      76.1      75.2       36     46.8      0.00      0.00     "NAN"     0.39      1016.0     0.4     NNE    16   3.9       S   181   0.93    267      "NAN"
   10/13/2017 11:20      75.3      73.2       39     47.1      0.00      0.00     "NAN"     0.39      1016.0     0.0       N     0   0.0       N     1   0.93    267      "NAN"
   10/13/2017 11:20      75.3      73.2       39     47.1      0.00      0.00     "NAN"     0.39      1016.0     0.0       N     0   0.0       N     1   0.93    267      "NAN"
   10/13/2017 11:10      73.9      72.8       39     47.0      0.00      0.00     "NAN"     0.39      1016.0     0.0       N     0   0.0       N     1   0.93    267      "NAN"
   10/13/2017 11:10      73.9      72.8       39     47.0      0.00      0.00     "NAN"     0.39      1016.0     0.0       N     0   0.0       N     1   0.93    267      "NAN"
   10/13/2017 11:00      72.9      71.3       40     46.5      0.00      0.00     "NAN"     0.39      1016.0     0.0       N     0   0.0       N     1   0.93    267      "NAN"
   10/13/2017 11:00      72.9      71.3       40     46.5      0.00      0.00     "NAN"     0.39      1016.0     0.0       N     0   0.0       N     1   0.93    267      "NAN"
   10/13/2017 10:50      71.9      71.3       40     46.2      0.00      0.00     "NAN"     0.39      1016.0     0.1       N     1   4.0       N     1   0.93    267      "NAN"
   10/13/2017 10:50      71.9      71.3       40     46.2      0.00      0.00     "NAN"     0.39      1016.0     0.1       N     1   4.0       N     1   0.93    267      "NAN"
   10/13/2017 10:40      71.6     -39.9       39     43.6      0.00      0.00     "NAN"     0.40      1017.0     0.0       N     1   0.0       N     1   0.93    267      "NAN"
   10/13/2017 10:40      71.6     -39.9       39     43.6      0.00      0.00     "NAN"     0.40      1017.0     0.0       N     1   0.0       N     1   0.93    267      "NAN"
   10/13/2017 10:30      70.8      69.3       43     46.7      0.00      0.00     "NAN"     0.40      1017.0     0.0       N     0   0.0       N     1   0.93    267      "NAN"
   10/13/2017 10:30      70.8      69.3       43     46.7      0.00      0.00     "NAN"     0.40      1017.0     0.0       N     0   0.0       N     1   0.93    267      "NAN"
   10/13/2017 10:20      69.3      68.6       47     48.1      0.00      0.00     "NAN"     0.40      1017.0     0.0       N     0   0.0       N     1   0.00    268      "NAN"
   10/13/2017 10:20      69.3      68.6       47     48.1      0.00      0.00     "NAN"     0.40      1017.0     0.0       N     0   0.0       N     1   0.00    268      "NAN"
   10/13/2017 10:10      69.2      68.3       50     49.5      0.00      0.00     "NAN"     0.40      1017.0     0.0       N     0   0.0       N     1   0.00    268      "NAN"
   10/13/2017 10:10      69.2      68.3       50     49.5      0.00      0.00     "NAN"     0.40      1017.0     0.0       N     0   0.0       N     1   0.00    268      "NAN"
   10/13/2017 10:00      68.5      67.5       51     49.5      0.00      0.00     "NAN"     0.40      1017.0     0.0       N     0   0.0       N     1   0.00    268      "NAN"
   10/13/2017 10:00      68.5      67.5       51     49.5      0.00      0.00     "NAN"     0.40      1017.0     0.0       N     0   0.0       N     1   0.00    268      "NAN"
   10/13/2017 09:50      67.7      66.1       53     49.3      0.00      0.00     "NAN"     0.41      1017.0     0.0       N     0   0.0       N     1   0.00    268      "NAN"
   10/13/2017 09:50      67.7      66.1       53     49.3      0.00      0.00     "NAN"     0.41      1017.0     0.0       N     0   0.0       N     1   0.00    268      "NAN"
   10/13/2017 09:40      66.1      65.5       57     50.2      0.00      0.00     "NAN"     0.41      1017.0     0.0       N     0   0.0       N     1   0.00    268      "NAN"
   10/13/2017 09:40      66.1      65.5       57     50.2      0.00      0.00     "NAN"     0.41      1017.0     0.0       N     0   0.0       N     1   0.00    268      "NAN"
   10/13/2017 09:30      66.4      65.3       57     50.1      0.00      0.00     "NAN"    "NAN"      1017.0     0.0       N     0   0.0       N     1   0.00    261      "NAN"
   10/13/2017 09:30      66.4      65.3       57     50.1      0.00      0.00     "NAN"    "NAN"      1017.0     0.0       N     0   0.0       N     1   0.00    261      "NAN"
   10/13/2017 09:20      66.3      65.3       57     50.2      0.00      0.00      72.1    "NAN"      1017.0     0.0       N     0   0.0       N     1   0.00    276      "NAN"
   10/13/2017 09:20      66.3      65.3       57     50.2      0.00      0.00      72.1    "NAN"      1017.0     0.0       N     0   0.0       N     1   0.00    276      "NAN"
   10/13/2017 09:10      65.3      63.9       58     50.0      0.00      0.00      72.1    "NAN"      1017.0     0.0       N     0   0.0       N     1   0.00    -28      "NAN"
   10/13/2017 09:10      65.3      63.9       58     50.0      0.00      0.00      72.1    "NAN"      1017.0     0.0       N     0   0.0       N     1   0.00    -28      "NAN"
   10/13/2017 09:00      63.9      62.1       62     49.8      0.00      0.00     "NAN"    "NAN"      1017.0     0.0       N     0   0.0       N     1   0.00    -30      "NAN"
   10/13/2017 09:00      63.9      62.1       62     49.8      0.00      0.00     "NAN"    "NAN"      1017.0     0.0       N     0   0.0       N     1   0.00    -30      "NAN"
   10/13/2017 08:50      62.4      62.1       62     49.0      0.00      0.00     "NAN"    "NAN"      1017.0     0.0       N     0   0.0       N     1   0.00  "NAN"      "NAN"
   10/13/2017 08:50      62.4      62.1       62     49.0      0.00      0.00     "NAN"    "NAN"      1017.0     0.0       N     0   0.0       N     1   0.00  "NAN"      "NAN"
   10/13/2017 07:20      49.2      49.0       91     46.5      0.03      0.16      73.4     0.32      1015.0     1.2     SSE   152   2.1     SSE   148   9.23    272      -14.4
   10/13/2017 07:20      49.2      49.0       91     46.5      0.03      0.16      73.4     0.32      1015.0     1.2     SSE   152   2.1     SSE   148   9.23    272      -14.4
   10/13/2017 07:10      49.1      48.9       91     46.4      0.04      0.13      73.6     0.32      1015.0     0.3     ESE   122   1.1     SSE   151   9.33    272      -21.0
   10/13/2017 07:10      49.1      48.9       91     46.4      0.04      0.13      73.6     0.32      1015.0     0.3     ESE   122   1.1     SSE   151   9.33    272      -21.0
   10/13/2017 07:00      49.1      48.9       91     46.3      0.00      0.09      73.4     0.32      1015.0     0.3      SE   131   0.5     WNW   301   9.33    272      -24.7
   10/13/2017 07:00      49.1      48.9       91     46.3      0.00      0.09      73.4     0.32      1015.0     0.3      SE   131   0.5     WNW   301   9.33    272      -24.7
   10/13/2017 06:50      49.4      49.0       90     46.4      0.00      0.09      73.3     0.32      1015.0     0.9       S   169   1.5     ESE   121   9.33    272      -26.9
   10/13/2017 06:50      49.4      49.0       90     46.4      0.00      0.09      73.3     0.32      1015.0     0.9       S   169   1.5     ESE   121   9.33    272      -26.9
   10/13/2017 06:40      49.5      49.2       91     46.8      0.00      0.09      73.5     0.32      1015.0     0.5     SSW   208   0.8      SW   227   9.33    272      -27.9
   10/13/2017 06:40      49.5      49.2       91     46.8      0.00      0.09      73.5     0.32      1015.0     0.5     SSW   208   0.8      SW   227   9.33    272      -27.9
   10/13/2017 06:30      49.3      48.7       90     46.3      0.00      0.09      73.6     0.32      1015.0     1.6     SSE   151   2.7      SE   136   9.33    272      -29.1
   10/13/2017 06:30      49.3      48.7       90     46.3      0.00      0.09      73.6     0.32      1015.0     1.6     SSE   151   2.7      SE   136   9.33    272      -29.1
   10/13/2017 06:20      49.5      49.1       90     46.6      0.00      0.09      73.5     0.32      1015.0     1.7      SE   136   2.4      SE   129   9.33    272      -29.8
   10/13/2017 06:20      49.5      49.1       90     46.6      0.00      0.09      73.5     0.32      1015.0     1.7      SE   136   2.4      SE   129   9.33    272      -29.8
   10/13/2017 06:10      49.5      49.2       90     46.7      0.00      0.09      73.6     0.32      1015.0     1.0       S   178   1.7      SE   142   9.33    272      -29.6
   10/13/2017 06:10      49.5      49.2       90     46.7      0.00      0.09      73.6     0.32      1015.0     1.0       S   178   1.7      SE   142   9.33    272      -29.6
   10/13/2017 06:00      49.8      49.2       90     46.5      0.00      0.09      73.7     0.32      1015.0     1.4     SSE   151   1.9     ESE   119   9.33    272      -30.2
   10/13/2017 06:00      49.8      49.2       90     46.5      0.00      0.09      73.7     0.32      1015.0     1.4     SSE   151   1.9     ESE   119   9.33    272      -30.2
   10/13/2017 05:50      49.8      49.3       89     46.5      0.00      0.09      73.7     0.32      1015.0     1.1       S   189   2.3      SE   145   9.33    272      -31.4
   10/13/2017 05:50      49.8      49.3       89     46.5      0.00      0.09      73.7     0.32      1015.0     1.1       S   189   2.3      SE   145   9.33    272      -31.4
   10/13/2017 05:40      49.8      49.5       89     46.5      0.00      0.09      73.6     0.32      1015.0     1.1       S   178   2.0      SE   139   9.33    272      -31.7
   10/13/2017 05:40      49.8      49.5       89     46.5      0.00      0.09      73.6     0.32      1015.0     1.1       S   178   2.0      SE   139   9.33    272      -31.7
   10/13/2017 05:30      50.1      49.9       89     47.0      0.00      0.09      74.0     0.32      1015.0     1.2     SSE   149   1.5      SE   142   9.33    271      -32.2
   10/13/2017 05:30      50.1      49.9       89     47.0      0.00      0.09      74.0     0.32      1015.0     1.2     SSE   149   1.5      SE   142   9.33    271      -32.2
   10/13/2017 05:20      50.4      50.0       89     47.0      0.00      0.09      73.7     0.32      1014.0     0.4     ESE   111   0.8       E    92   9.33    271      -33.8
   10/13/2017 05:20      50.4      50.0       89     47.0      0.00      0.09      73.7     0.32      1014.0     0.4     ESE   111   0.8       E    92   9.33    271      -33.8
   10/13/2017 05:10      50.4      50.2       88     47.0      0.00      0.09      73.5     0.32      1014.0     0.8     SSE   148   1.1     ESE   122   9.33    271      -35.0
   10/13/2017 05:10      50.4      50.2       88     47.0      0.00      0.09      73.5     0.32      1014.0     0.8     SSE   148   1.1     ESE   122   9.33    271      -35.0
   10/13/2017 05:00      50.8      50.5       88     47.2      0.00      0.09      73.9     0.32      1014.0     1.4     SSE   149   1.8      SW   234   9.33    272      -36.7
   10/13/2017 05:00      50.8      50.5       88     47.2      0.00      0.09      73.9     0.32      1014.0     1.4     SSE   149   1.8      SW   234   9.33    272      -36.7
   10/13/2017 04:50      51.1      50.7       88     47.4      0.00      0.09      74.1     0.32      1014.0     1.2       S   170   1.8     WSW   242   9.33    271      -37.8
   10/13/2017 04:50      51.1      50.7       88     47.4      0.00      0.09      74.1     0.32      1014.0     1.2       S   170   1.8     WSW   242   9.33    271      -37.8
   10/13/2017 04:40      50.9      50.5       87     47.1      0.00      0.09      74.0     0.32      1014.0     1.7     SSE   152   2.4      SE   140   9.33    271      -40.3
   10/13/2017 04:40      50.9      50.5       87     47.1      0.00      0.09      74.0     0.32      1014.0     1.7     SSE   152   2.4      SE   140   9.33    271      -40.3
   10/13/2017 04:30      50.9      50.6       87     46.9      0.00      0.09      74.0     0.32      1014.0     1.5      SE   141   2.5      SE   137   9.33    271      -42.0
   10/13/2017 04:30      50.9      50.6       87     46.9      0.00      0.09      74.0     0.32      1014.0     1.5      SE   141   2.5      SE   137   9.33    271      -42.0
   10/13/2017 04:20      51.0      50.8       86     46.8      0.00      0.09      73.8     0.32      1014.0     2.1      SE   141   2.9      SE   140   9.33    271      -43.8
   10/13/2017 04:20      51.0      50.8       86     46.8      0.00      0.09      73.8     0.32      1014.0     2.1      SE   141   2.9      SE   140   9.33    271      -43.8
   10/13/2017 04:10      51.2      50.9       84     46.4      0.00      0.09      74.0     0.32      1014.0     1.7     SSE   152   2.2      SE   132   9.34    271      -46.4
   10/13/2017 04:10      51.2      50.9       84     46.4      0.00      0.09      74.0     0.32      1014.0     1.7     SSE   152   2.2      SE   132   9.34    271      -46.4
   10/13/2017 04:00      51.3      50.9       85     46.7      0.00      0.09      73.8     0.32      1014.0     1.4      SW   222   2.0     WSW   251   9.34    271      -45.9
   10/13/2017 04:00      51.3      50.9       85     46.7      0.00      0.09      73.8     0.32      1014.0     1.4      SW   222   2.0     WSW   251   9.34    271      -45.9
   10/13/2017 03:50      51.7      51.2       84     46.8      0.00      0.09      73.9     0.32      1014.0     2.1      SE   146   2.6      SE   144   9.34    271      -47.8
   10/13/2017 03:50      51.7      51.2       84     46.8      0.00      0.09      73.9     0.32      1014.0     2.1      SE   146   2.6      SE   144   9.34    271      -47.8
   10/13/2017 03:40      51.9      51.6       84     47.0      0.00      0.09      73.7     0.32      1014.0     1.1     SSW   202   1.3     SSW   199   9.34    271      -47.7
   10/13/2017 03:40      51.9      51.6       84     47.0      0.00      0.09      73.7     0.32      1014.0     1.1     SSW   202   1.3     SSW   199   9.34    271      -47.7
   10/13/2017 03:30      52.1      51.8       84     47.2      0.00      0.09      73.8     0.32      1014.0     1.1     SSE   152   1.4      SE   145   9.34    271      -48.8
   10/13/2017 03:30      52.1      51.8       84     47.2      0.00      0.09      73.8     0.32      1014.0     1.1     SSE   152   1.4      SE   145   9.34    271      -48.8
   10/13/2017 03:20      52.4      51.9       82     46.9      0.00      0.09      73.9     0.32      1014.0     1.1      SE   127   1.5     ESE   117   9.34    271      -50.6
   10/13/2017 03:20      52.4      51.9       82     46.9      0.00      0.09      73.9     0.32      1014.0     1.1      SE   127   1.5     ESE   117   9.34    271      -50.6
   10/13/2017 03:10      52.6      52.4       81     46.9      0.00      0.09      73.9     0.32      1014.0     1.0       N   353   1.5      NW   322   9.34    271      -50.9
   10/13/2017 03:10      52.6      52.4       81     46.9      0.00      0.09      73.9     0.32      1014.0     1.0       N   353   1.5      NW   322   9.34    271      -50.9
   10/13/2017 03:00      53.2      52.6       81     47.2      0.00      0.09      73.9     0.32      1014.0     1.4      NE    39   1.8     ESE   108   9.34    271      -51.3
   10/13/2017 03:00      53.2      52.6       81     47.2      0.00      0.09      73.9     0.32      1014.0     1.4      NE    39   1.8     ESE   108   9.34    271      -51.3
   10/13/2017 02:50      53.2      53.0       82     47.6      0.00      0.09      74.2     0.32      1014.0     1.8      SE   135   2.8     SSE   159   9.34    271      -50.7
   10/13/2017 02:50      53.2      53.0       82     47.6      0.00      0.09      74.2     0.32      1014.0     1.8      SE   135   2.8     SSE   159   9.34    271      -50.7
   10/13/2017 02:40      53.5      53.1       82     48.0      0.00      0.09      74.1     0.32      1014.0     3.0     SSE   148   4.1      SE   144   9.34    271      -50.9
   10/13/2017 02:40      53.5      53.1       82     48.0      0.00      0.09      74.1     0.32      1014.0     3.0     SSE   148   4.1      SE   144   9.34    271      -50.9
   10/13/2017 02:30      53.5      53.0       84     48.5      0.00      0.09      74.0     0.32      1014.0     0.9       S   182   1.5      SE   126   9.34    271      -50.0
   10/13/2017 02:30      53.5      53.0       84     48.5      0.00      0.09      74.0     0.32      1014.0     0.9       S   182   1.5      SE   126   9.34    271      -50.0
   10/13/2017 02:20      53.2      52.6       84     48.0      0.00      0.09      74.4     0.33      1014.0     1.9       S   170   3.2     SSE   167   9.34    271      -54.0
   10/13/2017 02:20      53.2      52.6       84     48.0      0.00      0.09      74.4     0.33      1014.0     1.9       S   170   3.2     SSE   167   9.34    271      -54.0
   10/13/2017 02:10      53.5      52.7       82     47.7      0.00      0.09      73.9     0.32      1014.0     1.8     SSE   151   2.2      SE   135   9.34    271      -56.0
   10/13/2017 02:10      53.5      52.7       82     47.7      0.00      0.09      73.9     0.32      1014.0     1.8     SSE   151   2.2      SE   135   9.34    271      -56.0
   10/13/2017 02:00      53.7      53.5       82     48.4      0.00      0.09      74.1     0.33      1014.0     1.2     SSW   199   2.0      SE   142   9.34    270      -54.5
   10/13/2017 02:00      53.7      53.5       82     48.4      0.00      0.09      74.1     0.33      1014.0     1.2     SSW   199   2.0      SE   142   9.34    270      -54.5
   10/13/2017 01:50      53.7      53.4       82     48.3      0.00      0.09      74.3     0.32      1014.0     0.7     WSW   251   1.0       W   268   9.34    270      -55.9
   10/13/2017 01:50      53.7      53.4       82     48.3      0.00      0.09      74.3     0.32      1014.0     0.7     WSW   251   1.0       W   268   9.34    270      -55.9
   10/13/2017 01:40      53.7      53.4       82     48.1      0.00      0.09      74.1     0.32      1014.0     0.7     WSW   245   1.0      SW   219   9.34    270      -57.8
   10/13/2017 01:40      53.7      53.4       82     48.1      0.00      0.09      74.1     0.32      1014.0     0.7     WSW   245   1.0      SW   219   9.34    270      -57.8
   10/13/2017 01:30      54.4      53.7       81     48.5      0.00      0.09      74.4     0.33      1014.0     1.5     SSE   148   2.4      SE   135   9.34    270      -58.0
   10/13/2017 01:30      54.4      53.7       81     48.5      0.00      0.09      74.4     0.33      1014.0     1.5     SSE   148   2.4      SE   135   9.34    270      -58.0
   10/13/2017 01:20      54.3      54.0       82     48.7      0.00      0.09      74.3     0.33      1014.0     0.8     SSW   195   1.1     WSW   239   9.34    270      -58.2
   10/13/2017 01:20      54.3      54.0       82     48.7      0.00      0.09      74.3     0.33      1014.0     0.8     SSW   195   1.1     WSW   239   9.34    270      -58.2
   10/13/2017 01:10      54.5      54.1       81     48.3      0.00      0.09      74.2     0.33      1014.0     1.8     SSE   151   2.5      SE   137   9.34    270      -61.5
   10/13/2017 01:10      54.5      54.1       81     48.3      0.00      0.09      74.2     0.33      1014.0     1.8     SSE   151   2.5      SE   137   9.34    270      -61.5
   10/13/2017 01:00      54.6      54.3       80     48.5      0.00      0.09      74.3     0.33      1014.0     1.6       S   173   2.6     SSE   157   9.34    270      -61.3
   10/13/2017 01:00      54.6      54.3       80     48.5      0.00      0.09      74.3     0.33      1014.0     1.6       S   173   2.6     SSE   157   9.34    270      -61.3
   10/13/2017 00:50      54.9      54.4       81     48.8      0.00      0.09      74.3     0.33      1014.0     2.2      SE   139   2.9      SE   135   9.34    270      -61.4
   10/13/2017 00:50      54.9      54.4       81     48.8      0.00      0.09      74.3     0.33      1014.0     2.2      SE   139   2.9      SE   135   9.34    270      -61.4
   10/13/2017 00:40      54.9      54.6       81     48.9      0.00      0.09      74.0     0.33      1014.0     1.2      SE   137   2.0      SE   132   9.34    270      -61.5
   10/13/2017 00:40      54.9      54.6       81     48.9      0.00      0.09      74.0     0.33      1014.0     1.2      SE   137   2.0      SE   132   9.34    270      -61.5
   10/13/2017 00:30      55.5      54.9       80     49.0      0.00      0.09      74.4     0.33      1014.0     1.6      SE   136   2.3      SE   135   9.34    270      -61.9
   10/13/2017 00:30      55.5      54.9       80     49.0      0.00      0.09      74.4     0.33      1014.0     1.6      SE   136   2.3      SE   135   9.34    270      -61.9
   10/13/2017 00:20      55.5      55.3       79     49.1      0.00      0.09      74.3     0.33      1014.0     0.5      NE    42   1.0      SE   140   9.34    270      -61.1
   10/13/2017 00:20      55.5      55.3       79     49.1      0.00      0.09      74.3     0.33      1014.0     0.5      NE    42   1.0      SE   140   9.34    270      -61.1
   10/13/2017 00:10      56.5      55.8       77     49.0      0.00      0.09      74.3     0.33      1014.0     1.2      SE   133   2.0      SE   134   9.34    270      -62.2
   10/13/2017 00:10      56.5      55.8       77     49.0      0.00      0.09      74.3     0.33      1014.0     1.2      SE   133   2.0      SE   134   9.34    270      -62.2
   10/13/2017 00:00      56.5      56.0       76     49.0      0.00      0.09      74.5     0.33      1014.0     1.0     SSE   155   1.8      SE   131   9.34    270      -62.0
   10/13/2017 00:00      56.5      56.0       76     49.0      0.00      0.09      74.5     0.33      1014.0     1.0     SSE   155   1.8      SE   131   9.34    270      -62.0
   10/12/2017 23:50      56.6      56.1       78     49.7      0.00      0.09      74.4     0.33      1014.0     0.4      NW   320   1.0      NW   322   9.34    270      -61.9
   10/12/2017 23:50      56.6      56.1       78     49.7      0.00      0.09      74.4     0.33      1014.0     0.4      NW   320   1.0      NW   322   9.34    270      -61.9
   10/12/2017 23:40      57.5      56.8       78     50.2      0.00      0.09      74.3     0.33      1014.0     0.9     SSE   163   1.5     SSE   148   9.34    270      -62.3
   10/12/2017 23:40      57.5      56.8       78     50.2      0.00      0.09      74.3     0.33      1014.0     0.9     SSE   163   1.5     SSE   148   9.34    270      -62.3
   10/12/2017 23:30      57.5      57.0       76     49.9      0.00      0.09      74.2     0.33      1014.0     0.9       S   187   1.2      SW   232   9.34    270      -62.1
   10/12/2017 23:30      57.5      57.0       76     49.9      0.00      0.09      74.2     0.33      1014.0     0.9       S   187   1.2      SW   232   9.34    270      -62.1
   10/12/2017 23:20      57.5      57.3       78     50.5      0.00      0.09      74.4     0.33      1014.0     1.1       S   187   1.7      SE   137   9.34    270      -62.5
   10/12/2017 23:20      57.5      57.3       78     50.5      0.00      0.09      74.4     0.33      1014.0     1.1       S   187   1.7      SE   137   9.34    270      -62.5
   10/12/2017 23:10      57.6      57.3       76     49.8      0.00      0.09      74.5     0.33      1014.0     1.9      SE   137   2.4      SE   133   9.34    270      -62.5
   10/12/2017 23:10      57.6      57.3       76     49.8      0.00      0.09      74.5     0.33      1014.0     1.9      SE   137   2.4      SE   133   9.34    270      -62.5
   10/12/2017 23:00      57.6      57.4       74     49.2      0.00      0.09      74.3     0.33      1014.0     1.4      SE   145   1.8      SE   138   9.35    270      -63.0
   10/12/2017 23:00      57.6      57.4       74     49.2      0.00      0.09      74.3     0.33      1014.0     1.4      SE   145   1.8      SE   138   9.35    270      -63.0
   10/12/2017 22:50      58.0      57.6       71     48.5      0.00      0.09      74.5     0.33      1014.0     1.7     SSE   149   2.0      SE   136   9.35    270      -63.0
   10/12/2017 22:50      58.0      57.6       71     48.5      0.00      0.09      74.5     0.33      1014.0     1.7     SSE   149   2.0      SE   136   9.35    270      -63.0
   10/12/2017 22:40      58.4      58.2       70     48.6      0.00      0.09      74.6     0.33      1014.0     0.7       S   176   1.6      SE   139   9.35    270      -62.5
   10/12/2017 22:40      58.4      58.2       70     48.6      0.00      0.09      74.6     0.33      1014.0     0.7       S   176   1.6      SE   139   9.35    270      -62.5
   10/12/2017 22:30      58.6      58.3       69     48.3      0.00      0.09      74.4     0.33      1014.0     1.0     SSE   148   1.5      SE   136   9.35    270      -63.2
   10/12/2017 22:30      58.6      58.3       69     48.3      0.00      0.09      74.4     0.33      1014.0     1.0     SSE   148   1.5      SE   136   9.35    270      -63.2
   10/12/2017 22:20      58.5      58.4       68     48.1      0.00      0.09      74.5     0.33      1014.0     1.0     SSE   151   1.3     SSE   165   9.35    270      -63.8
   10/12/2017 22:20      58.5      58.4       68     48.1      0.00      0.09      74.5     0.33      1014.0     1.0     SSE   151   1.3     SSE   165   9.35    270      -63.8
   10/12/2017 22:10      58.8      58.5       67     47.7      0.00      0.09      74.4     0.33      1014.0     1.6     SSE   156   2.4      SE   140   9.35    270      -64.7
   10/12/2017 22:10      58.8      58.5       67     47.7      0.00      0.09      74.4     0.33      1014.0     1.6     SSE   156   2.4      SE   140   9.35    270      -64.7
   10/12/2017 22:00      59.3      58.9       67     48.2      0.00      0.09      74.3     0.33      1014.0     1.7     SSE   164   2.5      SE   143   9.35    269      -65.3
   10/12/2017 22:00      59.3      58.9       67     48.2      0.00      0.09      74.3     0.33      1014.0     1.7     SSE   164   2.5      SE   143   9.35    269      -65.3
   10/12/2017 21:50      59.6      59.1       67     48.3      0.00      0.09      74.3     0.33      1014.0     1.7     SSE   147   2.4      SE   137   9.35    269      -65.9
   10/12/2017 21:50      59.6      59.1       67     48.3      0.00      0.09      74.3     0.33      1014.0     1.7     SSE   147   2.4      SE   137   9.35    269      -65.9
   10/12/2017 21:40      60.1      59.6       65     48.1      0.00      0.09      74.6     0.33      1013.0     1.1       S   175   2.0      SE   136   9.35    269      -65.6
   10/12/2017 21:40      60.1      59.6       65     48.1      0.00      0.09      74.6     0.33      1013.0     1.1       S   175   2.0      SE   136   9.35    269      -65.6
   10/12/2017 21:30      61.0      60.2       64     48.5      0.00      0.09      74.2     0.33      1013.0     1.7      SE   143   2.2      SE   136   9.35    269      -66.5
   10/12/2017 21:30      61.0      60.2       64     48.5      0.00      0.09      74.2     0.33      1013.0     1.7      SE   143   2.2      SE   136   9.35    269      -66.5
   10/12/2017 21:20      61.3      61.1       64     48.8      0.00      0.09      74.3     0.33      1013.0     0.5       S   181   1.1      SE   142   9.35    269      -66.1
   10/12/2017 21:20      61.3      61.1       64     48.8      0.00      0.09      74.3     0.33      1013.0     0.5       S   181   1.1      SE   142   9.35    269      -66.1
   10/12/2017 21:10      61.5      61.1       65     49.3      0.00      0.09      74.4     0.33      1013.0     0.5       S   174   0.8      SE   134   9.35    269      -66.1
   10/12/2017 21:10      61.5      61.1       65     49.3      0.00      0.09      74.4     0.33      1013.0     0.5       S   174   0.8      SE   134   9.35    269      -66.1
   10/12/2017 21:00      61.5      61.2       65     49.5      0.00      0.09      74.3     0.33      1013.0     0.7     ESE   106   1.5      SW   215   9.35    269      -67.3
   10/12/2017 21:00      61.5      61.2       65     49.5      0.00      0.09      74.3     0.33      1013.0     0.7     ESE   106   1.5      SW   215   9.35    269      -67.3
   10/12/2017 20:50      62.0      61.4       64     49.4      0.00      0.09      74.4     0.33      1013.0     0.7      NE    52   1.5     ENE    68   9.36    269      -68.4
   10/12/2017 20:50      62.0      61.4       64     49.4      0.00      0.09      74.4     0.33      1013.0     0.7      NE    52   1.5     ENE    68   9.36    269      -68.4
   10/12/2017 20:40      63.4      62.3       62     49.7      0.00      0.09      74.3     0.33      1013.0     1.2     ESE   105   2.0      SE   127   9.36    269      -69.3
   10/12/2017 20:40      63.4      62.3       62     49.7      0.00      0.09      74.3     0.33      1013.0     1.2     ESE   105   2.0      SE   127   9.36    269      -69.3
   10/12/2017 20:30      64.4      63.5       60     49.8      0.00      0.09      74.1     0.32      1013.0     0.7     ENE    63   1.3     ENE    75   9.36    269      -72.0
   10/12/2017 20:30      64.4      63.5       60     49.8      0.00      0.09      74.1     0.32      1013.0     0.7     ENE    63   1.3     ENE    75   9.36    269      -72.0
   10/12/2017 20:20      65.0      64.5       59     50.3      0.00      0.09      74.2     0.32      1013.0     1.1     ESE   116   3.0     SSE   167   9.36    269      -74.7
   10/12/2017 20:20      65.0      64.5       59     50.3      0.00      0.09      74.2     0.32      1013.0     1.1     ESE   116   3.0     SSE   167   9.36    269      -74.7
   10/12/2017 20:10      65.6      65.1       58     50.4      0.00      0.09      74.1     0.32      1013.0     2.0       S   185   4.4     SSW   213   9.36    269      -75.3
   10/12/2017 20:10      65.6      65.1       58     50.4      0.00      0.09      74.1     0.32      1013.0     2.0       S   185   4.4     SSW   213   9.36    269      -75.3
   10/12/2017 20:00      66.0      65.7       57     50.2      0.00      0.09      74.2     0.32      1013.0     2.0      SW   226   3.8     SSW   210   9.36    269      -75.1
   10/12/2017 20:00      66.0      65.7       57     50.2      0.00      0.09      74.2     0.32      1013.0     2.0      SW   226   3.8     SSW   210   9.36    269      -75.1
   10/12/2017 19:50      66.7      66.0       55     49.8      0.00      0.09      74.3     0.32      1013.0     2.1     SSW   204   3.5      SW   214   9.36    269      -76.8
   10/12/2017 19:50      66.7      66.0       55     49.8      0.00      0.09      74.3     0.32      1013.0     2.1     SSW   204   3.5      SW   214   9.36    269      -76.8
   10/12/2017 19:40      67.0      66.9       54     49.6      0.00      0.09      74.3     0.32      1013.0     4.0     WSW   239   5.1     WSW   240   9.36    269      -78.3
   10/12/2017 19:40      67.0      66.9       54     49.6      0.00      0.09      74.3     0.32      1013.0     4.0     WSW   239   5.1     WSW   240   9.36    269      -78.3
   10/12/2017 19:30      67.4      67.0       53     49.2      0.00      0.09      74.2     0.32      1013.0     2.7      SW   231   4.3      SW   233   9.37    268      -77.9
   10/12/2017 19:30      67.4      67.0       53     49.2      0.00      0.09      74.2     0.32      1013.0     2.7      SW   231   4.3      SW   233   9.37    268      -77.9
   10/12/2017 19:20      68.1      67.4       51     49.1      0.00      0.09      74.4     0.32      1013.0     2.0      SW   228   4.2      SW   233   9.37    268      -78.9
   10/12/2017 19:20      68.1      67.4       51     49.1      0.00      0.09      74.4     0.32      1013.0     2.0      SW   228   4.2      SW   233   9.37    268      -78.9
   10/12/2017 19:10      68.3      68.1       51     49.4      0.00      0.09      74.1     0.32      1012.0     3.9      SW   232   5.8      SW   221   9.37    269      -80.6
   10/12/2017 19:10      68.3      68.1       51     49.4      0.00      0.09      74.1     0.32      1012.0     3.9      SW   232   5.8      SW   221   9.37    269      -80.6
   10/12/2017 19:00      68.8      68.4       49     48.9      0.00      0.09      74.1     0.32      1012.0     3.1      SW   227   6.3     WSW   256   9.37    268      -81.0
   10/12/2017 19:00      68.8      68.4       49     48.9      0.00      0.09      74.1     0.32      1012.0     3.1      SW   227   6.3     WSW   256   9.37    268      -81.0
   10/12/2017 18:50      69.9      69.1       46     47.8      0.00      0.09      74.1     0.32      1012.0     2.7     SSW   209   4.3      SW   219   9.37    268      -82.8
   10/12/2017 18:50      69.9      69.1       46     47.8      0.00      0.09      74.1     0.32      1012.0     2.7     SSW   209   4.3      SW   219   9.37    268      -82.8
   10/12/2017 18:40      70.6      70.1       45     47.8      0.00      0.09      74.1     0.32      1012.0     2.6      SW   227   4.9      SW   236   9.37    268      -83.8
   10/12/2017 18:40      70.6      70.1       45     47.8      0.00      0.09      74.1     0.32      1012.0     2.6      SW   227   4.9      SW   236   9.37    268      -83.8
   10/12/2017 18:30      71.5      70.8       43     47.6      0.00      0.09      74.0     0.32      1012.0     5.1      SW   230   7.1     WSW   240   9.38    268      -82.9
   10/12/2017 18:30      71.5      70.8       43     47.6      0.00      0.09      74.0     0.32      1012.0     5.1      SW   230   7.1     WSW   240   9.38    268      -82.9
   10/12/2017 18:20      72.8      71.8       41     47.2      0.00      0.09      73.9     0.32      1012.0     4.8     WSW   237   5.9      SW   229   9.38    268      -79.8
   10/12/2017 18:20      72.8      71.8       41     47.2      0.00      0.09      73.9     0.32      1012.0     4.8     WSW   237   5.9      SW   229   9.38    268      -79.8
   10/12/2017 18:10      73.5      72.9       39     46.8      0.00      0.09      74.0     0.32      1012.0     3.8     WSW   247   4.6      SW   234   9.38    268      -75.0
   10/12/2017 18:10      73.5      72.9       39     46.8      0.00      0.09      74.0     0.32      1012.0     3.8     WSW   247   4.6      SW   234   9.38    268      -75.0
   10/12/2017 18:00      74.2      73.5       38     46.8      0.00      0.09      73.9     0.32      1012.0     3.7     WSW   259   6.5     WSW   253   9.38    268      -67.8
   10/12/2017 18:00      74.2      73.5       38     46.8      0.00      0.09      73.9     0.32      1012.0     3.7     WSW   259   6.5     WSW   253   9.38    268      -67.8
   10/12/2017 17:50      75.3      74.4       37     46.5      0.00      0.09      73.9     0.32      1012.0     4.1     WNW   294   6.1      NW   305   9.38    268      -61.1
   10/12/2017 17:50      75.3      74.4       37     46.5      0.00      0.09      73.9     0.32      1012.0     4.1     WNW   294   6.1      NW   305   9.38    268      -61.1
   10/12/2017 17:40      76.1      75.6       35     46.4      0.00      0.09      73.7     0.32      1011.0     4.4       W   275   8.1      NW   309   9.39    268      -43.4
   10/12/2017 17:40      76.1      75.6       35     46.4      0.00      0.09      73.7     0.32      1011.0     4.4       W   275   8.1      NW   309   9.39    268      -43.4
   10/12/2017 17:30      76.3      75.6       36     47.2      0.00      0.09      73.8     0.32      1011.0     3.6     WNW   282   7.5     WNW   297   9.39    268      -19.2
   10/12/2017 17:30      76.3      75.6       36     47.2      0.00      0.09      73.8     0.32      1011.0     3.6     WNW   282   7.5     WNW   297   9.39    268      -19.2
   10/12/2017 17:20      76.3      75.9       37     47.8      0.00      0.09      73.7     0.32      1011.0     4.6     WNW   290   6.4      NW   321   9.39    268        2.4
   10/12/2017 17:20      76.3      75.9       37     47.8      0.00      0.09      73.7     0.32      1011.0     4.6     WNW   290   6.4      NW   321   9.39    268        2.4
   10/12/2017 17:10      77.2      76.5       37     48.3      0.00      0.09      73.8     0.32      1011.0     5.7     WNW   290   9.3     WNW   300   9.39    268       22.9
   10/12/2017 17:10      77.2      76.5       37     48.3      0.00      0.09      73.8     0.32      1011.0     5.7     WNW   290   9.3     WNW   300   9.39    268       22.9
   10/12/2017 17:00      77.4      77.0       37     48.6      0.00      0.09      73.9     0.32      1011.0     5.1     WNW   298   7.4     WNW   295   9.39    268       43.1
   10/12/2017 17:00      77.4      77.0       37     48.6      0.00      0.09      73.9     0.32      1011.0     5.1     WNW   298   7.4     WNW   295   9.39    268       43.1
   10/12/2017 16:50      77.9      77.3       36     48.3      0.00      0.09      73.5     0.32      1011.0     6.7     WNW   301   9.5     WNW   289   9.39    268       67.0
   10/12/2017 16:50      77.9      77.3       36     48.3      0.00      0.09      73.5     0.32      1011.0     6.7     WNW   301   9.5     WNW   289   9.39    268       67.0
   10/12/2017 16:40      78.6      78.0       37     49.9      0.00      0.09      73.6     0.32      1011.0     6.1       W   269  10.4       S   186   9.39    268       92.9
   10/12/2017 16:40      78.6      78.0       37     49.9      0.00      0.09      73.6     0.32      1011.0     6.1       W   269  10.4       S   186   9.39    268       92.9
   10/12/2017 16:30      79.5      78.6       41     53.2      0.00      0.09      73.5     0.32      1011.0     3.9       S   186   5.5     SSW   204   9.39    268      116.5
   10/12/2017 16:30      79.5      78.6       41     53.2      0.00      0.09      73.5     0.32      1011.0     3.9       S   186   5.5     SSW   204   9.39    268      116.5
   10/12/2017 16:20      80.1      79.2       39     52.7      0.00      0.09      73.5     0.32      1011.0     2.6     ESE   121   4.3     SSW   210   9.39    268      137.3
   10/12/2017 16:20      80.1      79.2       39     52.7      0.00      0.09      73.5     0.32      1011.0     2.6     ESE   121   4.3     SSW   210   9.39    268      137.3
   10/12/2017 16:10      80.1      78.7       41     53.5      0.00      0.09      73.5     0.32      1011.0     3.5     ESE   122   5.3      SE   144   9.39    268      162.7
   10/12/2017 16:10      80.1      78.7       41     53.5      0.00      0.09      73.5     0.32      1011.0     3.5     ESE   122   5.3      SE   144   9.39    268      162.7
   10/12/2017 16:00      80.6      79.8       38     52.3      0.00      0.09      73.5     0.32      1011.0     2.7     ENE    73   5.0     SSE   157   9.39    268      180.6
   10/12/2017 16:00      80.6      79.8       38     52.3      0.00      0.09      73.5     0.32      1011.0     2.7     ENE    73   5.0     SSE   157   9.39    268      180.6
   10/12/2017 15:50      80.5      79.5       38     52.3      0.00      0.09      73.3     0.32      1011.0     3.0      NE    45   4.9     ENE    58   9.39    268      188.0
   10/12/2017 15:50      80.5      79.5       38     52.3      0.00      0.09      73.3     0.32      1011.0     3.0      NE    45   4.9     ENE    58   9.39    268      188.0
   10/12/2017 15:40      79.7      78.9       39     52.1      0.00      0.09      73.2     0.32      1011.0     3.8     ENE    79   5.9     ENE    69   9.39    268      212.3
   10/12/2017 15:40      79.7      78.9       39     52.1      0.00      0.09      73.2     0.32      1011.0     3.8     ENE    79   5.9     ENE    69   9.39    268      212.3
   10/12/2017 15:30      80.0      79.5       37     50.9      0.00      0.09      73.2     0.32      1011.0     4.6      NE    51   6.6     ENE    74   9.39    269      229.5
   10/12/2017 15:30      80.0      79.5       37     50.9      0.00      0.09      73.2     0.32      1011.0     4.6      NE    51   6.6     ENE    74   9.39    269      229.5
   10/12/2017 15:20      79.9      79.2       37     50.9      0.00      0.09      73.3     0.32      1012.0     3.5     ENE    57   7.4     ENE    66   9.39    269      247.0
   10/12/2017 15:20      79.9      79.2       37     50.9      0.00      0.09      73.3     0.32      1012.0     3.5     ENE    57   7.4     ENE    66   9.39    269      247.0
   10/12/2017 15:10      79.7      78.6       37     50.6      0.00      0.09      73.2     0.32      1012.0     4.9     ENE    63   5.9     ENE    65   9.39    269      268.6
   10/12/2017 15:10      79.7      78.6       37     50.6      0.00      0.09      73.2     0.32      1012.0     4.9     ENE    63   5.9     ENE    65   9.39    269      268.6
   10/12/2017 15:00      80.2      79.2       37     50.9      0.00      0.09      73.3     0.32      1012.0     5.0     ENE    77   7.8     ESE   115   9.39    269      296.8
   10/12/2017 15:00      80.2      79.2       37     50.9      0.00      0.09      73.3     0.32      1012.0     5.0     ENE    77   7.8     ESE   115   9.39    269      296.8
   10/12/2017 14:50      80.3      79.4       37     51.1      0.00      0.09      73.1     0.32      1012.0     5.2     ENE    58   7.6     ENE    75   9.39    269      313.6
   10/12/2017 14:50      80.3      79.4       37     51.1      0.00      0.09      73.1     0.32      1012.0     5.2     ENE    58   7.6     ENE    75   9.39    269      313.6
   10/12/2017 14:40      80.5      79.5       36     50.8      0.00      0.09      73.0     0.32      1012.0     4.3      NE    55   6.3     ESE   110   9.39    269      326.4
   10/12/2017 14:40      80.5      79.5       36     50.8      0.00      0.09      73.0     0.32      1012.0     4.3      NE    55   6.3     ESE   110   9.39    269      326.4
   10/12/2017 14:30      81.5      79.5       35     49.9      0.00      0.09      73.1     0.32      1012.0     4.8     ENE    77   8.7     ENE    74   9.39    269      341.0
   10/12/2017 14:30      81.5      79.5       35     49.9      0.00      0.09      73.1     0.32      1012.0     4.8     ENE    77   8.7     ENE    74   9.39    269      341.0
   10/12/2017 14:20      81.8      81.3       26     42.9      0.00      0.09      73.0     0.32      1012.0     3.1     ENE    69   5.1      NE    36   9.39    269      349.3
   10/12/2017 14:20      81.8      81.3       26     42.9      0.00      0.09      73.0     0.32      1012.0     3.1     ENE    69   5.1      NE    36   9.39    269      349.3
   10/12/2017 14:10      81.8      81.1       23     40.4      0.00      0.09      73.0     0.32      1012.0     3.1     NNE    31   4.9     ENE    60   9.39    268      357.9
   10/12/2017 14:10      81.8      81.1       23     40.4      0.00      0.09      73.0     0.32      1012.0     3.1     NNE    31   4.9     ENE    60   9.39    268      357.9
   10/12/2017 14:00      81.9      80.5       23     40.1      0.00      0.09      72.9     0.32      1012.0     3.3     NNE    21   5.1     NNE    25   9.39    269      372.3
   10/12/2017 14:00      81.9      80.5       23     40.1      0.00      0.09      72.9     0.32      1012.0     3.3     NNE    21   5.1     NNE    25   9.39    269      372.3
   10/12/2017 13:50      81.8      81.0       23     39.6      0.00      0.09      72.9     0.32      1012.0     3.8     ENE    62   6.0       E    79   9.39    269      381.9
   10/12/2017 13:50      81.8      81.0       23     39.6      0.00      0.09      72.9     0.32      1012.0     3.8     ENE    62   6.0       E    79   9.39    269      381.9
   10/12/2017 13:40      81.6      80.3       23     39.9      0.00      0.09      72.8     0.32      1012.0     2.4      NE    35   5.4     ENE    62   9.39    269      392.2
   10/12/2017 13:40      81.6      80.3       23     39.9      0.00      0.09      72.8     0.32      1012.0     2.4      NE    35   5.4     ENE    62   9.39    269      392.2
   10/12/2017 13:30      81.0      80.7       23     40.1      0.00      0.09      73.0     0.32      1012.0     3.1     NNE    14   4.0       N   354   9.39    269      398.1
   10/12/2017 13:30      81.0      80.7       23     40.1      0.00      0.09      73.0     0.32      1012.0     3.1     NNE    14   4.0       N   354   9.39    269      398.1
   10/12/2017 13:20      81.4      80.9       24     40.4      0.00      0.09      72.9     0.32      1012.0     2.5     NNE    15   4.7     NNE    32   9.39    269      407.0
   10/12/2017 13:20      81.4      80.9       24     40.4      0.00      0.09      72.9     0.32      1012.0     2.5     NNE    15   4.7     NNE    32   9.39    269      407.0
   10/12/2017 13:10      81.0      79.5       25     41.0      0.00      0.09      72.8     0.32      1013.0     2.4     NNW   328   3.8      NE    50   9.39    270      413.9
   10/12/2017 13:10      81.0      79.5       25     41.0      0.00      0.09      72.8     0.32      1013.0     2.4     NNW   328   3.8      NE    50   9.39    270      413.9
   10/12/2017 13:00      80.0      79.5       25     41.3      0.00      0.09      72.8     0.32      1013.0     3.3       N   358   4.7       N    11   9.39    270      419.2
   10/12/2017 13:00      80.0      79.5       25     41.3      0.00      0.09      72.8     0.32      1013.0     3.3       N   358   4.7       N    11   9.39    270      419.2
   10/12/2017 12:50      79.5      78.4       26     41.4      0.00      0.09      72.8     0.32      1013.0     1.8       N    10   3.0       N     4   9.39    270      423.1
   10/12/2017 12:50      79.5      78.4       26     41.4      0.00      0.09      72.8     0.32      1013.0     1.8       N    10   3.0       N     4   9.39    270      423.1
   10/12/2017 12:40      78.9      77.8       27     41.5      0.00      0.09      72.8     0.32      1013.0     2.6       N     5   4.2       N     6   9.39    270      426.5
   10/12/2017 12:40      78.9      77.8       27     41.5      0.00      0.09      72.8     0.32      1013.0     2.6       N     5   4.2       N     6   9.39    270      426.5
   10/12/2017 12:30      78.4      76.9       28     41.9      0.00      0.09      73.0     0.32      1013.0     2.1     NNW   336   4.4       N   357   9.39    270      428.1
   10/12/2017 12:30      78.4      76.9       28     41.9      0.00      0.09      73.0     0.32      1013.0     2.1     NNW   336   4.4       N   357   9.39    270      428.1
   10/12/2017 12:20      77.1      75.6       29     41.8      0.00      0.09      72.8     0.32      1013.0     3.4     NNW   329   4.6     NNW   346   9.39    270      428.1
   10/12/2017 12:20      77.1      75.6       29     41.8      0.00      0.09      72.8     0.32      1013.0     3.4     NNW   329   4.6     NNW   346   9.39    270      428.1
   10/12/2017 12:10      75.8      74.7       30     41.7      0.00      0.09      72.8     0.32      1014.0     2.3     SSE   157   3.7      SW   226   9.39    270      428.6
   10/12/2017 12:10      75.8      74.7       30     41.7      0.00      0.09      72.8     0.32      1014.0     2.3     SSE   157   3.7      SW   226   9.39    270      428.6
   10/12/2017 12:00      75.5      74.4       30     41.6      0.00      0.09      72.8     0.32      1014.0     2.4       E    88   5.1     ENE    65   9.39    271      424.5
   10/12/2017 12:00      75.5      74.4       30     41.6      0.00      0.09      72.8     0.32      1014.0     2.4       E    88   5.1     ENE    65   9.39    271      424.5
   10/12/2017 11:50      74.8      73.7       29     39.8      0.00      0.09      72.8     0.32      1014.0     2.7     WSW   250   5.5      SW   225   9.39    271      419.1
   10/12/2017 11:50      74.8      73.7       29     39.8      0.00      0.09      72.8     0.32      1014.0     2.7     WSW   250   5.5      SW   225   9.39    271      419.1
   10/12/2017 11:40      74.0      73.1       29     39.2      0.00      0.09      72.9     0.32      1014.0     3.2      SW   232   4.2       W   268   9.39    271      413.5
   10/12/2017 11:40      74.0      73.1       29     39.2      0.00      0.09      72.9     0.32      1014.0     3.2      SW   232   4.2       W   268   9.39    271      413.5
   10/12/2017 11:30      73.1      72.7       30     39.6      0.00      0.09      73.0     0.32      1014.0     3.5       W   267   5.3       W   261   9.39    271      406.7
   10/12/2017 11:30      73.1      72.7       30     39.6      0.00      0.09      73.0     0.32      1014.0     3.5       W   267   5.3       W   261   9.39    271      406.7
   10/12/2017 11:20      73.1      72.7       32     41.0      0.00      0.09      72.8     0.32      1014.0     3.4       W   272   5.9     WSW   246   9.39    271      398.4
   10/12/2017 11:20      73.1      72.7       32     41.0      0.00      0.09      72.8     0.32      1014.0     3.4       W   272   5.9     WSW   246   9.39    271      398.4
   10/12/2017 11:10      72.8      71.0       34     41.5      0.00      0.09      73.0     0.32      1014.0     2.2       E    87   3.7       W   264   9.39    271      392.0
   10/12/2017 11:10      72.8      71.0       34     41.5      0.00      0.09      73.0     0.32      1014.0     2.2       E    87   3.7       W   264   9.39    271      392.0
   10/12/2017 11:00      71.6      70.9       36     43.2      0.00      0.09      72.8     0.32      1014.0     3.3      SW   219   4.5     WSW   243   9.39    271      380.6
   10/12/2017 11:00      71.6      70.9       36     43.2      0.00      0.09      72.8     0.32      1014.0     3.3      SW   219   4.5     WSW   243   9.39    271      380.6
   10/12/2017 10:50      71.0      70.3       39     44.8      0.00      0.09      72.9     0.32      1014.0     3.2     WSW   237   5.1     WSW   242   9.39    271      367.5
   10/12/2017 10:50      71.0      70.3       39     44.8      0.00      0.09      72.9     0.32      1014.0     3.2     WSW   237   5.1     WSW   242   9.39    271      367.5
   10/12/2017 10:40      70.1      68.8       43     45.9      0.00      0.09      72.7     0.32      1014.0     2.6       W   263   5.2     SSW   194   9.39    272      356.0
   10/12/2017 10:40      70.1      68.8       43     45.9      0.00      0.09      72.7     0.32      1014.0     2.6       W   263   5.2     SSW   194   9.39    272      356.0
   10/12/2017 10:30      69.3      68.6       45     46.7      0.00      0.09      73.1     0.32      1015.0     2.9     SSW   193   4.7      SW   236   9.39    272      341.8
   10/12/2017 10:30      69.3      68.6       45     46.7      0.00      0.09      73.1     0.32      1015.0     2.9     SSW   193   4.7      SW   236   9.39    272      341.8
   10/12/2017 10:20      68.5      67.3       51     49.2      0.00      0.09      73.1     0.32      1015.0     2.2      SW   235   4.9       W   265   9.39    273      326.7
   10/12/2017 10:20      68.5      67.3       51     49.2      0.00      0.09      73.1     0.32      1015.0     2.2      SW   235   4.9       W   265   9.39    273      326.7
   10/12/2017 10:10      67.6      66.7       55     50.4      0.00      0.09      72.8     0.32      1015.0     2.4     NNW   337   3.6     NNW   338   9.39    273      310.5
   10/12/2017 10:10      67.6      66.7       55     50.4      0.00      0.09      72.8     0.32      1015.0     2.4     NNW   337   3.6     NNW   338   9.39    273      310.5
   10/12/2017 10:00      66.5      65.6       57     50.3      0.00      0.09      73.0     0.32      1015.0     1.7     ENE    59   3.3      SE   126   9.39    273      293.0
   10/12/2017 10:00      66.5      65.6       57     50.3      0.00      0.09      73.0     0.32      1015.0     1.7     ENE    59   3.3      SE   126   9.39    273      293.0
   10/12/2017 09:50      65.5      64.8       60     51.1      0.00      0.09      72.8     0.32      1015.0     2.3     NNE    24   3.6     NNE    24   9.39    273      274.9
   10/12/2017 09:50      65.5      64.8       60     51.1      0.00      0.09      72.8     0.32      1015.0     2.3     NNE    24   3.6     NNE    24   9.39    273      274.9
   10/12/2017 09:40      65.1      64.6       63     51.9      0.00      0.09      73.0     0.32      1015.0     2.9     NNE    19   3.6      NE    35   9.40    273      257.2
   10/12/2017 09:40      65.1      64.6       63     51.9      0.00      0.09      73.0     0.32      1015.0     2.9     NNE    19   3.6      NE    35   9.40    273      257.2
   10/12/2017 09:30      65.0      64.0       65     52.4      0.00      0.09      73.2     0.32      1015.0     2.4      NE    48   3.7     ENE    72   9.39    273      239.0
   10/12/2017 09:30      65.0      64.0       65     52.4      0.00      0.09      73.2     0.32      1015.0     2.4      NE    48   3.7     ENE    72   9.39    273      239.0
   10/12/2017 09:20      64.6      63.3       66     52.6      0.00      0.09      73.0     0.32      1015.0     1.8      NE    48   2.7      NE    34   9.39    273      220.1
   10/12/2017 09:20      64.6      63.3       66     52.6      0.00      0.09      73.0     0.32      1015.0     1.8      NE    48   2.7      NE    34   9.39    273      220.1
   10/12/2017 09:10      63.4      60.9       74     53.7      0.00      0.09      73.2     0.32      1015.0     1.4      NE    35   2.1       N     1   9.39    273      201.3
   10/12/2017 09:10      63.4      60.9       74     53.7      0.00      0.09      73.2     0.32      1015.0     1.4      NE    35   2.1       N     1   9.39    273      201.3
   10/12/2017 09:00      60.7      58.3       86     55.2      0.00      0.09      73.1     0.32      1015.0     0.9     NNW   341   1.6      NW   304   9.39    273      180.8
   10/12/2017 09:00      60.7      58.3       86     55.2      0.00      0.09      73.1     0.32      1015.0     0.9     NNW   341   1.6      NW   304   9.39    273      180.8
   10/12/2017 08:50      58.3      56.4       92     55.0      0.00      0.09      73.4     0.32      1015.0     1.4       W   265   2.4     WSW   251   9.39    273      189.7
   10/12/2017 08:50      58.3      56.4       92     55.0      0.00      0.09      73.4     0.32      1015.0     1.4       W   265   2.4     WSW   251   9.39    273      189.7
   10/12/2017 08:40      56.5      55.2       93     53.7      0.00      0.09      73.2     0.32      1015.0     2.0       W   266   3.6      NW   311   9.40    273      179.0
   10/12/2017 08:40      56.5      55.2       93     53.7      0.00      0.09      73.2     0.32      1015.0     2.0       W   266   3.6      NW   311   9.40    273      179.0
   10/12/2017 08:30      55.2      54.0       94     52.8      0.00      0.09      73.2     0.32      1014.0     2.3     WSW   258   3.4     WSW   252   9.40    273      142.4
   10/12/2017 08:30      55.2      54.0       94     52.8      0.00      0.09      73.2     0.32      1014.0     2.3     WSW   258   3.4     WSW   252   9.40    273      142.4
   10/12/2017 08:20      54.0      53.7       94     52.1      0.00      0.09      73.2     0.32      1014.0     3.1     WSW   243   5.1       W   260   9.40    273       84.1
   10/12/2017 08:20      54.0      53.7       94     52.1      0.00      0.09      73.2     0.32      1014.0     3.1     WSW   243   5.1       W   260   9.40    273       84.1
   10/12/2017 08:10      53.8      53.6       94     51.9      0.00      0.09      73.2     0.32      1014.0     2.5       W   262   3.8     WSW   249   9.40    273       50.9
   10/12/2017 08:10      53.8      53.6       94     51.9      0.00      0.09      73.2     0.32      1014.0     2.5       W   262   3.8     WSW   249   9.40    273       50.9
   10/12/2017 08:00      53.8      53.5       93     51.8      0.00      0.09      73.2     0.32      1014.0     2.6      SW   232   3.5     WSW   249   8.83    273       44.6
   10/12/2017 08:00      53.8      53.5       93     51.8      0.00      0.09      73.2     0.32      1014.0     2.6      SW   232   3.5     WSW   249   8.83    273       44.6
   10/12/2017 07:50      53.9      53.5       93     51.8      0.00      0.09      73.3     0.32      1014.0     2.3     SSW   212   3.2     SSW   208   8.76    273       35.0
   10/12/2017 07:50      53.9      53.5       93     51.8      0.00      0.09      73.3     0.32      1014.0     2.3     SSW   212   3.2     SSW   208   8.76    273       35.0
   10/12/2017 07:40      54.0      53.7       93     51.9      0.00      0.09      73.4     0.33      1014.0     2.5      SW   218   3.2     SSW   200   8.76    273       22.9
   10/12/2017 07:40      54.0      53.7       93     51.9      0.00      0.09      73.4     0.33      1014.0     2.5      SW   218   3.2     SSW   200   8.76    273       22.9
   10/12/2017 07:30      53.9      53.6       93     51.7      0.00      0.09      73.3     0.33      1014.0     2.7      SW   228   3.2      SW   234   8.76    273       12.3
   10/12/2017 07:30      53.9      53.6       93     51.7      0.00      0.09      73.3     0.33      1014.0     2.7      SW   228   3.2      SW   234   8.76    273       12.3
   10/12/2017 07:20      53.8      53.4       93     51.7      0.00      0.09      73.4     0.33      1014.0     2.1     SSW   199   2.8     SSW   200   8.76    272        4.8
   10/12/2017 07:20      53.8      53.4       93     51.7      0.00      0.09      73.4     0.33      1014.0     2.1     SSW   199   2.8     SSW   200   8.76    272        4.8
   10/12/2017 07:10      53.7      52.7       93     51.0      0.00      0.09      73.3     0.33      1014.0     2.6     SSW   201   3.3     SSW   203   8.76    272        0.0
   10/12/2017 07:10      53.7      52.7       93     51.0      0.00      0.09      73.3     0.33      1014.0     2.6     SSW   201   3.3     SSW   203   8.76    272        0.0
   10/12/2017 07:00      52.8      52.2       92     50.2      0.00      0.09      73.4     0.33      1014.0     1.5       S   182   2.8       S   172   8.76    272       -6.5
   10/12/2017 07:00      52.8      52.2       92     50.2      0.00      0.09      73.4     0.33      1014.0     1.5       S   182   2.8       S   172   8.76    272       -6.5
   10/12/2017 06:50      52.7      52.5       91     50.1      0.00      0.09      73.3     0.33      1014.0     2.0     SSE   152   2.4     SSE   152   8.76    272      -23.5
   10/12/2017 06:50      52.7      52.5       91     50.1      0.00      0.09      73.3     0.33      1014.0     2.0     SSE   152   2.4     SSE   152   8.76    272      -23.5
   10/12/2017 06:40      53.7      53.0       91     50.7      0.00      0.09      73.5     0.33      1013.0     2.5     SSE   163   3.7     SSE   161   8.76    272      -25.6
   10/12/2017 06:40      53.7      53.0       91     50.7      0.00      0.09      73.5     0.33      1013.0     2.5     SSE   163   3.7     SSE   161   8.76    272      -25.6
   10/12/2017 06:30      54.3      53.8       91     51.4      0.00      0.09      73.2     0.33      1013.0     2.7       S   182   3.9       S   188   8.76    272      -20.9
   10/12/2017 06:30      54.3      53.8       91     51.4      0.00      0.09      73.2     0.33      1013.0     2.7       S   182   3.9       S   188   8.76    272      -20.9
   10/12/2017 06:20      54.5      54.1       90     51.6      0.00      0.09      73.2     0.33      1013.0     3.2     SSW   202   3.8     SSW   200   8.76    272      -18.1
   10/12/2017 06:20      54.5      54.1       90     51.6      0.00      0.09      73.2     0.33      1013.0     3.2     SSW   202   3.8     SSW   200   8.76    272      -18.1
   10/12/2017 06:10      54.4      53.8       90     51.3      0.00      0.09      73.3     0.33      1013.0     2.9     SSW   212   3.3      SW   214   8.77    271       -6.8
   10/12/2017 06:10      54.4      53.8       90     51.3      0.00      0.09      73.3     0.33      1013.0     2.9     SSW   212   3.3      SW   214   8.77    271       -6.8
   10/12/2017 06:00      53.8      53.0       91     50.9      0.00      0.09      73.6     0.33      1013.0     2.4      SW   234   4.0     WSW   253   8.77    272       -2.9
   10/12/2017 06:00      53.8      53.0       91     50.9      0.00      0.09      73.6     0.33      1013.0     2.4      SW   234   4.0     WSW   253   8.77    272       -2.9
   10/12/2017 05:50      53.0      52.5       92     50.5      0.00      0.09      73.3     0.33      1013.0     2.1      SW   233   2.7      SW   231   8.77    271       -5.1
   10/12/2017 05:50      53.0      52.5       92     50.5      0.00      0.09      73.3     0.33      1013.0     2.1      SW   233   2.7      SW   231   8.77    271       -5.1
   10/12/2017 05:40      52.7      50.9       92     49.5      0.00      0.09      73.6     0.33      1013.0     2.1      SW   226   2.8      SW   217   8.77    271       -6.8
   10/12/2017 05:40      52.7      50.9       92     49.5      0.00      0.09      73.6     0.33      1013.0     2.1      SW   226   2.8      SW   217   8.77    271       -6.8
   10/12/2017 05:30      51.0      50.7       92     48.5      0.00      0.09      73.6     0.33      1013.0     1.4     SSW   196   1.9      SW   230   8.77    271      -19.8
   10/12/2017 05:30      51.0      50.7       92     48.5      0.00      0.09      73.6     0.33      1013.0     1.4     SSW   196   1.9      SW   230   8.77    271      -19.8
   10/12/2017 05:20      51.6      50.9       92     49.0      0.00      0.09      73.6     0.33      1013.0     1.4      SW   230   2.0     WSW   239   8.77    271      -25.2
   10/12/2017 05:20      51.6      50.9       92     49.0      0.00      0.09      73.6     0.33      1013.0     1.4      SW   230   2.0     WSW   239   8.77    271      -25.2
   10/12/2017 05:10      51.7      51.4       92     49.2      0.00      0.09      73.6     0.33      1013.0     1.0     SSW   212   1.7      SW   230   8.77    271      -25.9
   10/12/2017 05:10      51.7      51.4       92     49.2      0.00      0.09      73.6     0.33      1013.0     1.0     SSW   212   1.7      SW   230   8.77    271      -25.9
   10/12/2017 05:00      52.0      51.6       92     49.5      0.00      0.09      73.3     0.33      1013.0     0.9     WSW   244   1.3       W   280   8.77    271      -26.1
   10/12/2017 05:00      52.0      51.6       92     49.5      0.00      0.09      73.3     0.33      1013.0     0.9     WSW   244   1.3       W   280   8.77    271      -26.1
   10/12/2017 04:50      52.4      51.8       91     49.7      0.00      0.09      73.7     0.33      1013.0     0.5      NW   308   0.8     WSW   254   8.77    271      -27.7
   10/12/2017 04:50      52.4      51.8       91     49.7      0.00      0.09      73.7     0.33      1013.0     0.5      NW   308   0.8     WSW   254   8.77    271      -27.7
   10/12/2017 04:40      52.7      52.2       91     50.0      0.00      0.09      73.8     0.33      1013.0     0.4      NE    36   0.9     SSW   202   8.77    271      -28.7
   10/12/2017 04:40      52.7      52.2       91     50.0      0.00      0.09      73.8     0.33      1013.0     0.4      NE    36   0.9     SSW   202   8.77    271      -28.7
   10/12/2017 04:30      52.9      52.6       91     50.4      0.00      0.09      73.7     0.33      1013.0     0.7     ESE   122   1.4       S   174   8.77    271      -30.1
   10/12/2017 04:30      52.9      52.6       91     50.4      0.00      0.09      73.7     0.33      1013.0     0.7     ESE   122   1.4       S   174   8.77    271      -30.1
   10/12/2017 04:20      53.8      52.7       91     50.5      0.00      0.09      73.7     0.33      1013.0     1.3      SE   141   2.2      SE   138   8.77    271      -31.5
   10/12/2017 04:20      53.8      52.7       91     50.5      0.00      0.09      73.7     0.33      1013.0     1.3      SE   141   2.2      SE   138   8.77    271      -31.5
   10/12/2017 04:10      54.1      53.8       91     51.3      0.00      0.09      73.8     0.33      1013.0     1.1     SSE   166   1.5       S   169   8.77    271      -32.6
   10/12/2017 04:10      54.1      53.8       91     51.3      0.00      0.09      73.8     0.33      1013.0     1.1     SSE   166   1.5       S   169   8.77    271      -32.6
   10/12/2017 04:00      54.5      54.0       90     51.5      0.00      0.09      73.7     0.33      1012.0     0.8       S   175   1.2       S   169   8.77    271      -34.5
   10/12/2017 04:00      54.5      54.0       90     51.5      0.00      0.09      73.7     0.33      1012.0     0.8       S   175   1.2       S   169   8.77    271      -34.5
   10/12/2017 03:50      55.0      54.6       90     51.9      0.00      0.09      73.7     0.33      1013.0     1.2     SSE   157   1.8       S   178   8.77    271      -36.9
   10/12/2017 03:50      55.0      54.6       90     51.9      0.00      0.09      73.7     0.33      1013.0     1.2     SSE   157   1.8       S   178   8.77    271      -36.9
   10/12/2017 03:40      55.9      55.0       89     52.4      0.00      0.09      73.8     0.33      1013.0     0.9       S   170   1.4       S   176   8.77    271      -40.5
   10/12/2017 03:40      55.9      55.0       89     52.4      0.00      0.09      73.8     0.33      1013.0     0.9       S   170   1.4       S   176   8.77    271      -40.5
   10/12/2017 03:30      55.5      54.0       88     51.3      0.00      0.09      74.0     0.33      1013.0     0.7     WSW   239   1.1     WSW   241   8.77    271      -25.4
   10/12/2017 03:30      55.5      54.0       88     51.3      0.00      0.09      74.0     0.33      1013.0     0.7     WSW   239   1.1     WSW   241   8.77    271      -25.4
   10/12/2017 03:20      53.8      53.2       87     49.8      0.00      0.09      74.1     0.33      1013.0     1.0     SSE   148   1.3      SE   139   8.77    271       -7.3
   10/12/2017 03:20      53.8      53.2       87     49.8      0.00      0.09      74.1     0.33      1013.0     1.0     SSE   148   1.3      SE   139   8.77    271       -7.3
   10/12/2017 03:10      53.5      52.7       88     49.6      0.00      0.09      73.9     0.33      1013.0     1.0     SSE   150   1.8      SE   139   8.77    271      -14.3
   10/12/2017 03:10      53.5      52.7       88     49.6      0.00      0.09      73.9     0.33      1013.0     1.0     SSE   150   1.8      SE   139   8.77    271      -14.3
   10/12/2017 03:00      52.7      52.3       87     48.8      0.00      0.09      73.8     0.33      1013.0     1.6      SE   144   2.3      SE   146   8.77    271      -23.9
   10/12/2017 03:00      52.7      52.3       87     48.8      0.00      0.09      73.8     0.33      1013.0     1.6      SE   144   2.3      SE   146   8.77    271      -23.9
   10/12/2017 02:50      53.3      52.5       86     49.0      0.00      0.09      74.1     0.33      1013.0     1.6      SE   139   2.3      SE   139   8.77    271      -42.5
   10/12/2017 02:50      53.3      52.5       86     49.0      0.00      0.09      74.1     0.33      1013.0     1.6      SE   139   2.3      SE   139   8.77    271      -42.5
   10/12/2017 02:40      53.5      53.1       86     49.3      0.00      0.09      74.3     0.33      1013.0     0.7      SE   139   1.5     SSE   158   8.77    270      -46.1
   10/12/2017 02:40      53.5      53.1       86     49.3      0.00      0.09      74.3     0.33      1013.0     0.7      SE   139   1.5     SSE   158   8.77    270      -46.1
   10/12/2017 02:30      53.2      53.0       85     48.9      0.00      0.09      74.3     0.33      1013.0     0.7       W   278   1.0      SW   226   8.77    270      -50.0
   10/12/2017 02:30      53.2      53.0       85     48.9      0.00      0.09      74.3     0.33      1013.0     0.7       W   278   1.0      SW   226   8.77    270      -50.0
   10/12/2017 02:20      53.1      53.0       84     48.5      0.00      0.09      74.1     0.33      1013.0     1.0     SSE   168   1.6      SE   139   8.78    270      -53.5
   10/12/2017 02:20      53.1      53.0       84     48.5      0.00      0.09      74.1     0.33      1013.0     1.0     SSE   168   1.6      SE   139   8.78    270      -53.5
   10/12/2017 02:10      53.3      53.0       83     48.2      0.00      0.09      74.0     0.33      1013.0     1.4     SSE   164   2.1      SE   142   8.78    270      -55.6
   10/12/2017 02:10      53.3      53.0       83     48.2      0.00      0.09      74.0     0.33      1013.0     1.4     SSE   164   2.1      SE   142   8.78    270      -55.6
   10/12/2017 02:00      53.4      53.0       82     47.8      0.00      0.09      74.1     0.33      1013.0     1.8     SSE   159   2.9      SE   142   8.78    270      -58.2
   10/12/2017 02:00      53.4      53.0       82     47.8      0.00      0.09      74.1     0.33      1013.0     1.8     SSE   159   2.9      SE   142   8.78    270      -58.2
   10/12/2017 01:50      53.7      53.5       82     48.2      0.00      0.09      74.1     0.33      1013.0     2.2      SE   139   2.6      SE   133   8.78    270      -58.2
   10/12/2017 01:50      53.7      53.5       82     48.2      0.00      0.09      74.1     0.33      1013.0     2.2      SE   139   2.6      SE   133   8.78    270      -58.2
   10/12/2017 01:40      54.2      53.8       82     48.5      0.00      0.09      74.2     0.33      1013.0     1.7     SSE   161   2.6      SE   141   8.78    270      -57.1
   10/12/2017 01:40      54.2      53.8       82     48.5      0.00      0.09      74.2     0.33      1013.0     1.7     SSE   161   2.6      SE   141   8.78    270      -57.1
   10/12/2017 01:30      54.3      54.0       83     48.9      0.00      0.09      74.1     0.33      1013.0     1.3       S   182   2.0     SSE   152   8.78    270      -56.6
   10/12/2017 01:30      54.3      54.0       83     48.9      0.00      0.09      74.1     0.33      1013.0     1.3       S   182   2.0     SSE   152   8.78    270      -56.6
   10/12/2017 01:20      54.5      54.1       82     48.9      0.00      0.09      74.1     0.33      1013.0     1.8      SE   143   2.6      SE   135   8.78    270      -58.3
   10/12/2017 01:20      54.5      54.1       82     48.9      0.00      0.09      74.1     0.33      1013.0     1.8      SE   143   2.6      SE   135   8.78    270      -58.3
   10/12/2017 01:10      54.7      54.4       81     49.0      0.00      0.09      74.3     0.33      1013.0     1.4     SSE   151   1.9     SSE   156   8.78    270      -59.3
   10/12/2017 01:10      54.7      54.4       81     49.0      0.00      0.09      74.3     0.33      1013.0     1.4     SSE   151   1.9     SSE   156   8.78    270      -59.3
   10/12/2017 01:00      54.9      54.7       80     48.9      0.00      0.09      74.1     0.33      1012.0     1.8      SE   141   2.5      SE   131   8.78    270      -60.2
   10/12/2017 01:00      54.9      54.7       80     48.9      0.00      0.09      74.1     0.33      1012.0     1.8      SE   141   2.5      SE   131   8.78    270      -60.2
   10/12/2017 00:50      55.0      54.6       79     48.6      0.00      0.09      74.2     0.33      1012.0     1.1     WSW   246   1.8     WSW   244   8.78    270      -60.2
   10/12/2017 00:50      55.0      54.6       79     48.6      0.00      0.09      74.2     0.33      1012.0     1.1     WSW   246   1.8     WSW   244   8.78    270      -60.2
   10/12/2017 00:40      55.3      54.9       80     48.9      0.00      0.09      74.2     0.33      1012.0     1.0     SSE   156   1.7     SSE   158   8.78    270      -60.6
   10/12/2017 00:40      55.3      54.9       80     48.9      0.00      0.09      74.2     0.33      1012.0     1.0     SSE   156   1.7     SSE   158   8.78    270      -60.6
   10/12/2017 00:30      55.5      55.3       80     49.3      0.00      0.09      74.1     0.33      1012.0     0.8       S   174   1.8      SE   125   8.78    270      -61.0
   10/12/2017 00:30      55.5      55.3       80     49.3      0.00      0.09      74.1     0.33      1012.0     0.8       S   174   1.8      SE   125   8.78    270      -61.0
   10/12/2017 00:20      55.9      55.6       80     49.7      0.00      0.09      74.1     0.33      1012.0     0.6       S   171   1.2      SE   146   8.78    270      -60.8
   10/12/2017 00:20      55.9      55.6       80     49.7      0.00      0.09      74.1     0.33      1012.0     0.6       S   171   1.2      SE   146   8.78    270      -60.8
   10/12/2017 00:10      55.9      55.6       80     49.7      0.00      0.09      74.3     0.33      1012.0     1.1     SSW   208   1.3      SW   234   8.78    269      -61.1
   10/12/2017 00:10      55.9      55.6       80     49.7      0.00      0.09      74.3     0.33      1012.0     1.1     SSW   208   1.3      SW   234   8.78    269      -61.1
   10/12/2017 00:00      55.8      55.5       79     49.2      0.00      0.09      74.2     0.33      1012.0     1.6     SSE   165   2.3      SE   127   8.78    270      -62.1
   10/12/2017 00:00      55.8      55.5       79     49.2      0.00      0.09      74.2     0.33      1012.0     1.6     SSE   165   2.3      SE   127   8.78    270      -62.1
   10/11/2017 23:50      56.6      55.9       78     49.3      0.00      0.09      74.3     0.33      1012.0     2.0      SE   135   2.7     SSE   149   8.78    269      -62.9
   10/11/2017 23:50      56.6      55.9       78     49.3      0.00      0.09      74.3     0.33      1012.0     2.0      SE   135   2.7     SSE   149   8.78    269      -62.9
   10/11/2017 23:40      56.7      56.5       78     49.6      0.00      0.09      74.2     0.33      1012.0     0.8     SSE   167   1.5      SE   142   8.79    269      -62.5
   10/11/2017 23:40      56.7      56.5       78     49.6      0.00      0.09      74.2     0.33      1012.0     0.8     SSE   167   1.5      SE   142   8.79    269      -62.5
   10/11/2017 23:30      57.0      56.5       77     49.6      0.00      0.09      74.2     0.33      1012.0     2.0      SE   132   2.8      SE   133   8.79    270      -64.6
   10/11/2017 23:30      57.0      56.5       77     49.6      0.00      0.09      74.2     0.33      1012.0     2.0      SE   132   2.8      SE   133   8.79    270      -64.6
   10/11/2017 23:20      57.1      56.6       78     49.9      0.00      0.09      74.2     0.33      1012.0     1.6     SSE   148   2.3      SE   127   8.80    269      -64.2
   10/11/2017 23:20      57.1      56.6       78     49.9      0.00      0.09      74.2     0.33      1012.0     1.6     SSE   148   2.3      SE   127   8.80    269      -64.2
   10/11/2017 23:10      57.5      56.9       77     50.1      0.00      0.09      74.2     0.33      1012.0     2.1      SE   144   2.7      SE   133   8.80    269      -64.8
   10/11/2017 23:10      57.5      56.9       77     50.1      0.00      0.09      74.2     0.33      1012.0     2.1      SE   144   2.7      SE   133   8.80    269      -64.8
   10/11/2017 23:00      57.8      57.5       76     50.1      0.00      0.09      74.2     0.33      1012.0     1.4     SSE   162   1.9      SE   129   8.81    269      -65.1
   10/11/2017 23:00      57.8      57.5       76     50.1      0.00      0.09      74.2     0.33      1012.0     1.4     SSE   162   1.9      SE   129   8.81    269      -65.1
   10/11/2017 22:50      58.1      57.8       75     50.2      0.00      0.09      74.1     0.33      1012.0     1.0     SSW   194   1.4     SSE   153   8.81    269      -65.0
   10/11/2017 22:50      58.1      57.8       75     50.2      0.00      0.09      74.1     0.33      1012.0     1.0     SSW   194   1.4     SSE   153   8.81    269      -65.0
   10/11/2017 22:40      58.7      58.3       73     49.9      0.00      0.09      74.2     0.33      1012.0     1.4      SE   142   2.2      SE   132   8.81    269      -66.3
   10/11/2017 22:40      58.7      58.3       73     49.9      0.00      0.09      74.2     0.33      1012.0     1.4      SE   142   2.2      SE   132   8.81    269      -66.3
   10/11/2017 22:30      58.9      58.3       75     50.6      0.00      0.09      74.3     0.33      1012.0     1.4      SW   224   1.7      SW   236   8.81    269      -65.8
   10/11/2017 22:30      58.9      58.3       75     50.6      0.00      0.09      74.3     0.33      1012.0     1.4      SW   224   1.7      SW   236   8.81    269      -65.8
   10/11/2017 22:20      58.7      58.4       74     50.4      0.00      0.09      74.2     0.33      1012.0     2.2     SSE   157   2.8       S   178   8.81    269      -67.4
   10/11/2017 22:20      58.7      58.4       74     50.4      0.00      0.09      74.2     0.33      1012.0     2.2     SSE   157   2.8       S   178   8.81    269      -67.4
   10/11/2017 22:10      59.3      58.5       73     50.1      0.00      0.09      74.5     0.33      1012.0     2.3     SSE   147   3.2     SSE   150   8.82    269      -67.3
   10/11/2017 22:10      59.3      58.5       73     50.1      0.00      0.09      74.5     0.33      1012.0     2.3     SSE   147   3.2     SSE   150   8.82    269      -67.3
   10/11/2017 22:00      59.5      58.9       75     51.0      0.00      0.09      74.1     0.33      1012.0     1.9     SSE   151   2.8     SSE   153   8.82    269      -66.8
   10/11/2017 22:00      59.5      58.9       75     51.0      0.00      0.09      74.1     0.33      1012.0     1.9     SSE   151   2.8     SSE   153   8.82    269      -66.8
   10/11/2017 21:50      59.5      59.1       74     51.1      0.00      0.09      74.2     0.33      1012.0     1.9     SSE   153   2.5     SSE   157   8.82    269      -67.7
   10/11/2017 21:50      59.5      59.1       74     51.1      0.00      0.09      74.2     0.33      1012.0     1.9     SSE   153   2.5     SSE   157   8.82    269      -67.7
   10/11/2017 21:40      60.2      59.6       74     51.4      0.00      0.09      74.3     0.33      1012.0     1.4     SSE   167   2.1      SE   139   8.82    269      -67.6
   10/11/2017 21:40      60.2      59.6       74     51.4      0.00      0.09      74.3     0.33      1012.0     1.4     SSE   167   2.1      SE   139   8.82    269      -67.6
   10/11/2017 21:30      60.2      60.1       73     51.5      0.00      0.09      74.3     0.33      1012.0     1.1     SSE   164   1.4       S   190   8.82    269      -68.0
   10/11/2017 21:30      60.2      60.1       73     51.5      0.00      0.09      74.3     0.33      1012.0     1.1     SSE   164   1.4       S   190   8.82    269      -68.0
   10/11/2017 21:20      61.0      60.5       70     50.8      0.00      0.09      74.2     0.33      1012.0     1.6      SE   131   2.3      SE   137   8.82    269      -70.8
   10/11/2017 21:20      61.0      60.5       70     50.8      0.00      0.09      74.2     0.33      1012.0     1.6      SE   131   2.3      SE   137   8.82    269      -70.8
   10/11/2017 21:10      61.5      61.0       69     50.9      0.00      0.09      74.3     0.33      1012.0     1.7      SW   218   2.3     WSW   249   8.82    269      -71.1
   10/11/2017 21:10      61.5      61.0       69     50.9      0.00      0.09      74.3     0.33      1012.0     1.7      SW   218   2.3     WSW   249   8.82    269      -71.1
   10/11/2017 21:00      61.7      61.3       69     51.3      0.00      0.09      74.4     0.33      1012.0     1.3     SSW   200   2.1     WSW   250   8.82    269      -71.5
   10/11/2017 21:00      61.7      61.3       69     51.3      0.00      0.09      74.4     0.33      1012.0     1.3     SSW   200   2.1     WSW   250   8.82    269      -71.5
   10/11/2017 20:50      62.2      61.8       68     51.3      0.00      0.09      74.2     0.33      1012.0     0.9     SSE   163   1.6     SSE   166   8.82    268      -71.5
   10/11/2017 20:50      62.2      61.8       68     51.3      0.00      0.09      74.2     0.33      1012.0     0.9     SSE   163   1.6     SSE   166   8.82    268      -71.5
   10/11/2017 20:40      62.6      62.2       66     50.8      0.00      0.09      74.0     0.33      1012.0     0.9      SE   125   2.3       S   174   8.82    268      -73.5
   10/11/2017 20:40      62.6      62.2       66     50.8      0.00      0.09      74.0     0.33      1012.0     0.9      SE   125   2.3       S   174   8.82    268      -73.5
   10/11/2017 20:30      63.6      62.8       64     51.0      0.00      0.09      74.1     0.33      1011.0     1.8      SE   145   2.8     SSE   154   8.82    268      -74.5
   10/11/2017 20:30      63.6      62.8       64     51.0      0.00      0.09      74.1     0.33      1011.0     1.8      SE   145   2.8     SSE   154   8.82    268      -74.5
   10/11/2017 20:20      64.3      63.7       63     51.3      0.00      0.09      74.1     0.33      1011.0     0.8      SE   137   1.3       S   186   8.82    268      -74.8
   10/11/2017 20:20      64.3      63.7       63     51.3      0.00      0.09      74.1     0.33      1011.0     0.8      SE   137   1.3       S   186   8.82    268      -74.8
   10/11/2017 20:10      65.0      64.2       60     50.1      0.00      0.09      74.1     0.33      1011.0     0.8      SE   132   1.3     ENE    73   8.82    268      -76.3
   10/11/2017 20:10      65.0      64.2       60     50.1      0.00      0.09      74.1     0.33      1011.0     0.8      SE   132   1.3     ENE    73   8.82    268      -76.3
   10/11/2017 20:00      65.1      64.8       57     49.5      0.00      0.09      74.2     0.33      1011.0     1.1      NE    47   2.0       E    81   8.82    268      -77.0
   10/11/2017 20:00      65.1      64.8       57     49.5      0.00      0.09      74.2     0.33      1011.0     1.1      NE    47   2.0       E    81   8.82    268      -77.0
   10/11/2017 19:50      66.4      65.2       53     47.9      0.00      0.09      74.1     0.33      1011.0     1.2     ENE    73   2.1     ENE    68   8.82    268      -78.2
   10/11/2017 19:50      66.4      65.2       53     47.9      0.00      0.09      74.1     0.33      1011.0     1.2     ENE    73   2.1     ENE    68   8.82    268      -78.2
   10/11/2017 19:40      67.4      66.6       51     48.3      0.00      0.09      74.0     0.33      1011.0     1.3     SSE   152   2.7       S   174   8.82    268      -80.1
   10/11/2017 19:40      67.4      66.6       51     48.3      0.00      0.09      74.0     0.33      1011.0     1.3     SSE   152   2.7       S   174   8.82    268      -80.1
   10/11/2017 19:30      68.3      67.4       49     48.0      0.00      0.09      73.9     0.33      1011.0     2.4       S   191   3.4       S   188   8.82    268      -79.1
   10/11/2017 19:30      68.3      67.4       49     48.0      0.00      0.09      73.9     0.33      1011.0     2.4       S   191   3.4       S   188   8.82    268      -79.1
   10/11/2017 19:20      69.9      68.6       45     47.0      0.00      0.09      74.2     0.33      1011.0     1.7     SSW   193   2.1      SW   234   8.83    267      -78.8
   10/11/2017 19:20      69.9      68.6       45     47.0      0.00      0.09      74.2     0.33      1011.0     1.7     SSW   193   2.1      SW   234   8.83    267      -78.8
   10/11/2017 19:10      70.8      70.3       43     47.1      0.00      0.09      73.8     0.33      1011.0     1.6       W   276   2.3       W   276   8.83    267      -81.8
   10/11/2017 19:10      70.8      70.3       43     47.1      0.00      0.09      73.8     0.33      1011.0     1.6       W   276   2.3       W   276   8.83    267      -81.8
   10/11/2017 19:00      71.4      71.0       43     47.4      0.00      0.09      74.0     0.33      1011.0     2.8       W   278   5.1     WNW   301   8.83    267      -83.1
   10/11/2017 19:00      71.4      71.0       43     47.4      0.00      0.09      74.0     0.33      1011.0     2.8       W   278   5.1     WNW   301   8.83    267      -83.1
   10/11/2017 18:50      72.1      71.5       41     46.7      0.00      0.09      73.9     0.33      1011.0     3.2     WNW   294   4.8      NW   313   8.83    267      -83.7
   10/11/2017 18:50      72.1      71.5       41     46.7      0.00      0.09      73.9     0.33      1011.0     3.2     WNW   294   4.8      NW   313   8.83    267      -83.7
   10/11/2017 18:40      72.7      72.3       39     46.3      0.00      0.09      74.0     0.33      1011.0     3.4     WNW   287   4.4       W   279   8.83    267      -84.9
   10/11/2017 18:40      72.7      72.3       39     46.3      0.00      0.09      74.0     0.33      1011.0     3.4     WNW   287   4.4       W   279   8.83    267      -84.9
   10/11/2017 18:30      72.9      72.6       40     47.2      0.00      0.09      73.8     0.33      1011.0     3.3       W   266   4.6      NW   305   8.83    267      -83.2
   10/11/2017 18:30      72.9      72.6       40     47.2      0.00      0.09      73.8     0.33      1011.0     3.3       W   266   4.6      NW   305   8.83    267      -83.2
   10/11/2017 18:20      73.4      72.8       40     47.6      0.00      0.09      73.9     0.33      1010.0     2.8     SSW   201   4.1     SSW   199   8.83    267      -80.6
   10/11/2017 18:20      73.4      72.8       40     47.6      0.00      0.09      73.9     0.33      1010.0     2.8     SSW   201   4.1     SSW   199   8.83    267      -80.6
   10/11/2017 18:10      74.4      73.6       40     47.9      0.00      0.09      73.5     0.33      1010.0     2.5       S   171   4.4       S   185   8.83    267      -78.1
   10/11/2017 18:10      74.4      73.6       40     47.9      0.00      0.09      73.5     0.33      1010.0     2.5       S   171   4.4       S   185   8.83    267      -78.1
   10/11/2017 18:00      75.8      74.8       37     47.1      0.00      0.09      73.7     0.33      1010.0     3.2     SSE   167   4.5       S   177   8.83    267      -68.9
   10/11/2017 18:00      75.8      74.8       37     47.1      0.00      0.09      73.7     0.33      1010.0     3.2     SSE   167   4.5       S   177   8.83    267      -68.9
   10/11/2017 17:50      77.6      76.1       32     44.9      0.00      0.09      73.7     0.33      1010.0     3.2       S   177   5.7       S   177   8.83    267      -62.3
   10/11/2017 17:50      77.6      76.1       32     44.9      0.00      0.09      73.7     0.33      1010.0     3.2       S   177   5.7       S   177   8.83    267      -62.3
   10/11/2017 17:40      78.7      77.9       29     43.5      0.00      0.09      73.7     0.32      1010.0     3.2      SW   218   5.1     SSW   197   8.83    266      -40.1
   10/11/2017 17:40      78.7      77.9       29     43.5      0.00      0.09      73.7     0.32      1010.0     3.2      SW   218   5.1     SSW   197   8.83    266      -40.1
   10/11/2017 17:30      79.0      78.5       26     41.5      0.00      0.09      73.6     0.33      1010.0     2.3       S   181   3.5     SSE   166   8.83    266      -19.1
   10/11/2017 17:30      79.0      78.5       26     41.5      0.00      0.09      73.6     0.33      1010.0     2.3       S   181   3.5     SSE   166   8.83    266      -19.1
   10/11/2017 17:20      78.8      78.5       24     39.3      0.00      0.09      73.6     0.32      1010.0     4.0     SSE   165   6.0     SSE   166   8.83    266        3.3
   10/11/2017 17:20      78.8      78.5       24     39.3      0.00      0.09      73.6     0.32      1010.0     4.0     SSE   165   6.0     SSE   166   8.83    266        3.3
   10/11/2017 17:10      79.1      78.7       21     35.3      0.00      0.09      73.5     0.32      1010.0     4.9       S   174   6.7       S   178   8.83    266       27.8
   10/11/2017 17:10      79.1      78.7       21     35.3      0.00      0.09      73.5     0.32      1010.0     4.9       S   174   6.7       S   178   8.83    266       27.8
   10/11/2017 17:00      79.6      79.2       19     33.3      0.00      0.09      73.5     0.32      1010.0     5.0       S   181   9.4     SSE   156   8.83    266       50.3
   10/11/2017 17:00      79.6      79.2       19     33.3      0.00      0.09      73.5     0.32      1010.0     5.0       S   181   9.4     SSE   156   8.83    266       50.3
   10/11/2017 16:50      79.9      79.4       17     31.3      0.00      0.09      73.4     0.32      1010.0     6.6     SSE   155   9.8     SSE   166   8.83    266       74.5
   10/11/2017 16:50      79.9      79.4       17     31.3      0.00      0.09      73.4     0.32      1010.0     6.6     SSE   155   9.8     SSE   166   8.83    266       74.5
   10/11/2017 16:40      79.9      79.6       17     31.6      0.00      0.09      73.3     0.32      1010.0     5.8     SSE   163   8.6      SE   133   8.83    266      101.3
   10/11/2017 16:40      79.9      79.6       17     31.6      0.00      0.09      73.3     0.32      1010.0     5.8     SSE   163   8.6      SE   133   8.83    266      101.3
   10/11/2017 16:30      81.0      79.8       17     30.8      0.00      0.09      73.3     0.32      1010.0     6.2     SSE   165   7.9     SSE   151   8.83    266      128.1
   10/11/2017 16:30      81.0      79.8       17     30.8      0.00      0.09      73.3     0.32      1010.0     6.2     SSE   165   7.9     SSE   151   8.83    266      128.1
   10/11/2017 16:20      81.3      80.6       17     31.4      0.00      0.09      73.2     0.32      1010.0     7.8     SSE   164  10.1       S   177   9.08    266      152.9
   10/11/2017 16:20      81.3      80.6       17     31.4      0.00      0.09      73.2     0.32      1010.0     7.8     SSE   164  10.1       S   177   9.08    266      152.9
   10/11/2017 16:10      82.1      81.1       17     32.0      0.00      0.09      73.2     0.32      1010.0     7.9     SSE   150  10.3       S   169   9.09    266      177.5
   10/11/2017 16:10      82.1      81.1       17     32.0      0.00      0.09      73.2     0.32      1010.0     7.9     SSE   150  10.3       S   169   9.09    266      177.5
   10/11/2017 16:00      82.5      81.6       17     32.7      0.00      0.09      73.2     0.32      1010.0     5.3       S   185   6.8       S   190   9.09    266      196.4
   10/11/2017 16:00      82.5      81.6       17     32.7      0.00      0.09      73.2     0.32      1010.0     5.3       S   185   6.8       S   190   9.09    266      196.4
   10/11/2017 15:50      82.6      81.8       18     33.8      0.00      0.09      73.1     0.32      1010.0     6.6       S   175   9.9       S   185   9.09    266      205.2
   10/11/2017 15:50      82.6      81.8       18     33.8      0.00      0.09      73.1     0.32      1010.0     6.6       S   175   9.9       S   185   9.09    266      205.2
   10/11/2017 15:40      83.0      82.3       20     37.3      0.00      0.09      73.2     0.32      1010.0     5.5     SSE   167  10.3      SE   129   9.09    267      223.2
   10/11/2017 15:40      83.0      82.3       20     37.3      0.00      0.09      73.2     0.32      1010.0     5.5     SSE   167  10.3      SE   129   9.09    267      223.2
   10/11/2017 15:30      82.5      82.0       20     37.6      0.00      0.09      73.1     0.32      1010.0     5.2       S   176   7.0       S   188   9.10    267      245.9
   10/11/2017 15:30      82.5      82.0       20     37.6      0.00      0.09      73.1     0.32      1010.0     5.2       S   176   7.0       S   188   9.10    267      245.9
   10/11/2017 15:20      82.6      82.3       20     37.9      0.00      0.09      73.0     0.32      1010.0     6.3     SSE   163   8.1     SSE   158   9.10    267      261.9
   10/11/2017 15:20      82.6      82.3       20     37.9      0.00      0.09      73.0     0.32      1010.0     6.3     SSE   163   8.1     SSE   158   9.10    267      261.9
   10/11/2017 15:10      83.9      82.6       21     39.3      0.00      0.09      73.0     0.32      1010.0     6.0     ESE   122   8.2      SE   125   9.10    268      279.1
   10/11/2017 15:10      83.9      82.6       21     39.3      0.00      0.09      73.0     0.32      1010.0     6.0     ESE   122   8.2      SE   125   9.10    268      279.1
   10/11/2017 15:00      84.0      83.3       22     41.0      0.00      0.09      72.9     0.32      1010.0     5.2     NNE    19  11.4       N   354   9.10    268      302.8
   10/11/2017 15:00      84.0      83.3       22     41.0      0.00      0.09      72.9     0.32      1010.0     5.2     NNE    19  11.4       N   354   9.10    268      302.8
   10/11/2017 14:50      83.9      82.9       24     42.6      0.00      0.09      72.9     0.32      1010.0     3.9     NNE    24   6.2       N     1   9.10    268      316.6
   10/11/2017 14:50      83.9      82.9       24     42.6      0.00      0.09      72.9     0.32      1010.0     3.9     NNE    24   6.2       N     1   9.10    268      316.6
   10/11/2017 14:40      83.5      82.9       25     44.0      0.00      0.09      72.9     0.32      1010.0     4.1     ENE    56   5.8       N     2   9.10    268      326.7
   10/11/2017 14:40      83.5      82.9       25     44.0      0.00      0.09      72.9     0.32      1010.0     4.1     ENE    56   5.8       N     2   9.10    268      326.7
   10/11/2017 14:30      83.4      82.8       28     46.4      0.00      0.09      72.8     0.32      1010.0     4.6      NE    41   7.1       E    89   9.10    268      341.5
   10/11/2017 14:30      83.4      82.8       28     46.4      0.00      0.09      72.8     0.32      1010.0     4.6      NE    41   7.1       E    89   9.10    268      341.5
   10/11/2017 14:20      82.8      81.9       29     47.3      0.00      0.09      72.7     0.32      1010.0     3.4      NE    35   5.6     NNE    13   9.10    268      358.6
   10/11/2017 14:20      82.8      81.9       29     47.3      0.00      0.09      72.7     0.32      1010.0     3.4      NE    35   5.6     NNE    13   9.10    268      358.6
   10/11/2017 14:10      82.5      81.9       30     47.3      0.00      0.09      72.8     0.32      1010.0     4.3      NE    47   7.7     ENE    70   9.10    268      371.0
   10/11/2017 14:10      82.5      81.9       30     47.3      0.00      0.09      72.8     0.32      1010.0     4.3      NE    47   7.7     ENE    70   9.10    268      371.0
   10/11/2017 14:00      82.5      81.8       30     48.1      0.00      0.09      72.8     0.32      1011.0     4.0     NNE    30   7.1       N     3   9.10    269      378.5
   10/11/2017 14:00      82.5      81.8       30     48.1      0.00      0.09      72.8     0.32      1011.0     4.0     NNE    30   7.1       N     3   9.10    269      378.5
   10/11/2017 13:50      81.8      81.0       31     48.2      0.00      0.09      72.6     0.32      1011.0     3.8     ENE    66   5.1     ENE    74   9.10    269      390.0
   10/11/2017 13:50      81.8      81.0       31     48.2      0.00      0.09      72.6     0.32      1011.0     3.8     ENE    66   5.1     ENE    74   9.10    269      390.0
   10/11/2017 13:40      82.1      81.6       31     48.6      0.00      0.09      72.6     0.32      1011.0     2.8      NE    45   5.3     ENE    65   9.10    269      399.4
   10/11/2017 13:40      82.1      81.6       31     48.6      0.00      0.09      72.6     0.32      1011.0     2.8      NE    45   5.3     ENE    65   9.10    269      399.4
   10/11/2017 13:30      82.3      81.3       32     48.7      0.00      0.09      72.7     0.32      1011.0     3.9     ENE    64   5.9     ENE    68   9.10    269      420.4
   10/11/2017 13:30      82.3      81.3       32     48.7      0.00      0.09      72.7     0.32      1011.0     3.9     ENE    64   5.9     ENE    68   9.10    269      420.4
   10/11/2017 13:20      82.3      81.3       31     48.2      0.00      0.09      72.5     0.32      1011.0     2.7      NE    48   4.6      NE    38   9.10    269      420.1
   10/11/2017 13:20      82.3      81.3       31     48.2      0.00      0.09      72.5     0.32      1011.0     2.7      NE    48   4.6      NE    38   9.10    269      420.1
   10/11/2017 13:10      81.8      81.0       31     48.0      0.00      0.09      72.6     0.32      1011.0     3.8     ENE    58   5.8     ENE    78   9.11    269      419.9
   10/11/2017 13:10      81.8      81.0       31     48.0      0.00      0.09      72.6     0.32      1011.0     3.8     ENE    58   5.8     ENE    78   9.11    269      419.9
   10/11/2017 13:00      80.9      80.2       32     47.8      0.00      0.09      72.5     0.32      1012.0     3.2     ENE    60   4.3     ENE    62   9.11    269      427.2
   10/11/2017 13:00      80.9      80.2       32     47.8      0.00      0.09      72.5     0.32      1012.0     3.2     ENE    60   4.3     ENE    62   9.11    269      427.2
   10/11/2017 12:50      80.9      80.2       33     48.5      0.00      0.09      72.6     0.32      1012.0     2.7     NNE    24   5.3     ESE   105   9.11    269      428.7
   10/11/2017 12:50      80.9      80.2       33     48.5      0.00      0.09      72.6     0.32      1012.0     2.7     NNE    24   5.3     ESE   105   9.11    269      428.7
   10/11/2017 12:40      80.4      79.6       34     48.9      0.00      0.09      72.6     0.32      1012.0     3.3       N     8   6.4       N   354   9.11    270      428.6
   10/11/2017 12:40      80.4      79.6       34     48.9      0.00      0.09      72.6     0.32      1012.0     3.3       N     8   6.4       N   354   9.11    270      428.6
   10/11/2017 12:30      79.8      79.1       33     47.8      0.00      0.09      72.6     0.32      1012.0     3.5       N    10   5.7       N   349   9.11    269      425.4
   10/11/2017 12:30      79.8      79.1       33     47.8      0.00      0.09      72.6     0.32      1012.0     3.5       N    10   5.7       N   349   9.11    269      425.4
   10/11/2017 12:20      80.5      79.4       32     47.1      0.00      0.09      72.6     0.32      1012.0     4.2       N     6   5.9       N   349   9.11    269      423.6
   10/11/2017 12:20      80.5      79.4       32     47.1      0.00      0.09      72.6     0.32      1012.0     4.2       N     6   5.9       N   349   9.11    269      423.6
   10/11/2017 12:10      80.5      79.7       31     46.3      0.00      0.09      72.8     0.32      1012.0     2.2     NNE    20   4.0      NE    39   9.11    270      422.9
   10/11/2017 12:10      80.5      79.7       31     46.3      0.00      0.09      72.8     0.32      1012.0     2.2     NNE    20   4.0      NE    39   9.11    270      422.9
   10/11/2017 12:00      80.0      78.3       29     44.3      0.00      0.09      72.8     0.32      1012.0     2.5     NNE    32   5.0     ENE    72   9.11    270      421.4
   10/11/2017 12:00      80.0      78.3       29     44.3      0.00      0.09      72.8     0.32      1012.0     2.5     NNE    32   5.0     ENE    72   9.11    270      421.4
   10/11/2017 11:50      78.6      78.2       29     43.3      0.00      0.09      72.7     0.32      1012.0     2.8     NNW   332   5.5       N     5   9.11    270      416.3
   10/11/2017 11:50      78.6      78.2       29     43.3      0.00      0.09      72.7     0.32      1012.0     2.8     NNW   332   5.5       N     5   9.11    270      416.3
   10/11/2017 11:40      78.2      76.8       29     43.3      0.00      0.09      72.6     0.32      1012.0     2.3     NNE    28   4.1       N   352   9.11    269      414.0
   10/11/2017 11:40      78.2      76.8       29     43.3      0.00      0.09      72.6     0.32      1012.0     2.3     NNE    28   4.1       N   352   9.11    269      414.0
   10/11/2017 11:30      77.3      76.8       29     42.5      0.00      0.09      72.8     0.32      1012.0     2.8     NNE    30   4.1      NE    41   9.11    269      408.6
   10/11/2017 11:30      77.3      76.8       29     42.5      0.00      0.09      72.8     0.32      1012.0     2.8     NNE    30   4.1      NE    41   9.11    269      408.6
   10/11/2017 11:20      77.4      76.4       28     41.1      0.00      0.09      72.8     0.32      1012.0     3.0     ENE    62   4.8       E    93   9.11    269      401.1
   10/11/2017 11:20      77.4      76.4       28     41.1      0.00      0.09      72.8     0.32      1012.0     3.0     ENE    62   4.8       E    93   9.11    269      401.1
   10/11/2017 11:10      76.5      76.0       26     39.0      0.00      0.09      72.7     0.32      1012.0     2.4     NNE    30   4.1     ENE    77   9.11    269      395.3
   10/11/2017 11:10      76.5      76.0       26     39.0      0.00      0.09      72.7     0.32      1012.0     2.4     NNE    30   4.1     ENE    77   9.11    269      395.3
   10/11/2017 11:00      76.1      74.5       26     37.5      0.00      0.09      72.8     0.32      1012.0     2.4      NE    38   4.1      NE    52   9.11    269      387.1
   10/11/2017 11:00      76.1      74.5       26     37.5      0.00      0.09      72.8     0.32      1012.0     2.4      NE    38   4.1      NE    52   9.11    269      387.1
   10/11/2017 10:50      74.9      73.9       25     36.3      0.00      0.09      72.9     0.32      1012.0     3.2     NNE    23   4.0       N     9   9.11    269      375.1
   10/11/2017 10:50      74.9      73.9       25     36.3      0.00      0.09      72.9     0.32      1012.0     3.2     NNE    23   4.0       N     9   9.11    269      375.1
   10/11/2017 10:40      73.9      73.2       25     35.6      0.00      0.09      73.0     0.32      1013.0     2.2     NNE    20   3.1     NNE    15   9.11    270      362.1
   10/11/2017 10:40      73.9      73.2       25     35.6      0.00      0.09      73.0     0.32      1013.0     2.2     NNE    20   3.1     NNE    15   9.11    270      362.1
   10/11/2017 10:30      73.3      71.8       29     38.5      0.00      0.09      73.0     0.32      1013.0     2.5     NNW   348   4.6     ENE    73   9.12    270      349.0
   10/11/2017 10:30      73.3      71.8       29     38.5      0.00      0.09      73.0     0.32      1013.0     2.5     NNW   348   4.6     ENE    73   9.12    270      349.0
   10/11/2017 10:20      71.8      71.6       32     39.9      0.00      0.09      73.0     0.32      1013.0     2.1     NNW   349   4.0     NNW   338   9.12    270      333.5
   10/11/2017 10:20      71.8      71.6       32     39.9      0.00      0.09      73.0     0.32      1013.0     2.1     NNW   349   4.0     NNW   338   9.12    270      333.5
   10/11/2017 10:10      71.5      70.9       34     41.3      0.00      0.09      72.9     0.32      1013.0     1.7       N     4   3.1     NNE    29   9.12    270      319.5
   10/11/2017 10:10      71.5      70.9       34     41.3      0.00      0.09      72.9     0.32      1013.0     1.7       N     4   3.1     NNE    29   9.12    270      319.5
   10/11/2017 10:00      70.8      69.7       34     40.7      0.00      0.09      73.1     0.33      1013.0     1.7       N    11   3.0     NNE    16   9.12    270      304.2
   10/11/2017 10:00      70.8      69.7       34     40.7      0.00      0.09      73.1     0.33      1013.0     1.7       N    11   3.0     NNE    16   9.12    270      304.2
   10/11/2017 09:50      69.7      68.7       36     41.0      0.00      0.09      73.1     0.33      1013.0     1.9     NNE    33   3.4     NNE    33   9.12    270      287.7
   10/11/2017 09:50      69.7      68.7       36     41.0      0.00      0.09      73.1     0.33      1013.0     1.9     NNE    33   3.4     NNE    33   9.12    270      287.7
   10/11/2017 09:40      68.6      67.4       38     41.3      0.00      0.09      73.1     0.33      1013.0     1.6       N   358   2.8     NNE    24   9.12    270      270.8
   10/11/2017 09:40      68.6      67.4       38     41.3      0.00      0.09      73.1     0.33      1013.0     1.6       N   358   2.8     NNE    24   9.12    270      270.8
   10/11/2017 09:30      67.7      67.0       43     44.2      0.00      0.09      72.9     0.33      1013.0     1.8       N     9   2.4       N   350   9.12    270      253.1
   10/11/2017 09:30      67.7      67.0       43     44.2      0.00      0.09      72.9     0.33      1013.0     1.8       N     9   2.4       N   350   9.12    270      253.1
   10/11/2017 09:20      66.9      66.2       45     44.2      0.00      0.09      73.1     0.33      1013.0     1.4       N     2   2.0       N   353   9.12    271      236.4
   10/11/2017 09:20      66.9      66.2       45     44.2      0.00      0.09      73.1     0.33      1013.0     1.4       N     2   2.0       N   353   9.12    271      236.4
   10/11/2017 09:10      66.5      65.2       44     43.6      0.00      0.09      72.9     0.33      1013.0     1.7     NNE    21   2.6       N    10   9.12    271      220.8
   10/11/2017 09:10      66.5      65.2       44     43.6      0.00      0.09      72.9     0.33      1013.0     1.7     NNE    21   2.6       N    10   9.12    271      220.8
   10/11/2017 09:00      65.3      63.9       46     43.2      0.00      0.09      73.3     0.33      1013.0     1.0       N   351   2.2       N   353   9.12    270      202.1
   10/11/2017 09:00      65.3      63.9       46     43.2      0.00      0.09      73.3     0.33      1013.0     1.0       N   351   2.2       N   353   9.12    270      202.1
   10/11/2017 08:50      64.2      63.8       46     42.9      0.00      0.09      73.4     0.33      1013.0     0.7       N     5   1.1       N   353   9.12    270      182.2
   10/11/2017 08:50      64.2      63.8       46     42.9      0.00      0.09      73.4     0.33      1013.0     0.7       N     5   1.1       N   353   9.12    270      182.2
   10/11/2017 08:40      63.9      61.9       47     42.6      0.00      0.09      73.2     0.33      1013.0     0.7     ENE    68   1.3      NE    38   9.12    270      159.0
   10/11/2017 08:40      63.9      61.9       47     42.6      0.00      0.09      73.2     0.33      1013.0     0.7     ENE    68   1.3      NE    38   9.12    270      159.0
   10/11/2017 08:30      61.6      58.9       52     42.3      0.00      0.09      73.4     0.33      1013.0     0.5     NNW   334   1.1      NW   307   9.12    270      126.1
   10/11/2017 08:30      61.6      58.9       52     42.3      0.00      0.09      73.4     0.33      1013.0     0.5     NNW   334   1.1      NW   307   9.12    270      126.1
   10/11/2017 08:20      58.6      55.9       56     41.8      0.00      0.09      73.0     0.33      1012.0     0.4       E    85   0.8     ENE    74   9.12    269       84.3
   10/11/2017 08:20      58.6      55.9       56     41.8      0.00      0.09      73.0     0.33      1012.0     0.4       E    85   0.8     ENE    74   9.12    269       84.3
   10/11/2017 08:10      55.8      54.5       60     41.6      0.00      0.09      73.2     0.33      1012.0     0.5       E    99   0.7     ENE    69   9.12    269       31.2
   10/11/2017 08:10      55.8      54.5       60     41.6      0.00      0.09      73.2     0.33      1012.0     0.5       E    99   0.7     ENE    69   9.12    269       31.2
   10/11/2017 08:00      54.1      52.6       64     41.3      0.00      0.09      73.2     0.33      1012.0     0.5     ESE   110   0.9      SE   140   9.13    270        4.5
   10/11/2017 08:00      54.1      52.6       64     41.3      0.00      0.09      73.2     0.33      1012.0     0.5     ESE   110   0.9      SE   140   9.13    270        4.5
   10/11/2017 07:50      52.6      51.4       66     41.1      0.00      0.09      73.3     0.33      1012.0     0.5      SE   129   1.1      SE   132   9.13    269      -15.8
   10/11/2017 07:50      52.6      51.4       66     41.1      0.00      0.09      73.3     0.33      1012.0     0.5      SE   129   1.1      SE   132   9.13    269      -15.8
   10/11/2017 07:40      51.2      49.7       69     40.5      0.00      0.09      73.4     0.33      1012.0     0.4     ESE   102   0.6      SE   140   9.13    269      -36.6
   10/11/2017 07:40      51.2      49.7       69     40.5      0.00      0.09      73.4     0.33      1012.0     0.4     ESE   102   0.6      SE   140   9.13    269      -36.6
   10/11/2017 07:30      49.8      49.2       71     40.3      0.00      0.09      73.3     0.33      1012.0     0.8     ESE   113   1.3      SE   125   9.13    269      -40.8
   10/11/2017 07:30      49.8      49.2       71     40.3      0.00      0.09      73.3     0.33      1012.0     0.8     ESE   113   1.3      SE   125   9.13    269      -40.8
   10/11/2017 07:20      49.4      49.0       71     40.3      0.00      0.09      73.4     0.33      1012.0     0.7      NE    51   1.1      SE   137   9.13    269      -45.8
   10/11/2017 07:20      49.4      49.0       71     40.3      0.00      0.09      73.4     0.33      1012.0     0.7      NE    51   1.1      SE   137   9.13    269      -45.8
   10/11/2017 07:10      49.4      49.1       69     39.6      0.00      0.09      73.4     0.33      1012.0     1.3      SE   146   2.0      SE   140   9.13    269      -50.4
   10/11/2017 07:10      49.4      49.1       69     39.6      0.00      0.09      73.4     0.33      1012.0     1.3      SE   146   2.0      SE   140   9.13    269      -50.4
   10/11/2017 07:00      49.1      48.8       70     39.5      0.00      0.09      73.6     0.33      1012.0     0.5      SE   146   0.8     ESE   107   9.13    269      -54.5
   10/11/2017 07:00      49.1      48.8       70     39.5      0.00      0.09      73.6     0.33      1012.0     0.5      SE   146   0.8     ESE   107   9.13    269      -54.5
   10/11/2017 06:50      48.9      48.4       70     39.1      0.00      0.09      73.5     0.33      1012.0     1.0       S   178   2.0     SSE   156   9.13    269      -56.7
   10/11/2017 06:50      48.9      48.4       70     39.1      0.00      0.09      73.5     0.33      1012.0     1.0       S   178   2.0     SSE   156   9.13    269      -56.7
   10/11/2017 06:40      49.5      48.6       67     38.8      0.00      0.09      73.4     0.33      1012.0     1.3      SE   132   1.9      SE   125   9.13    269      -58.0
   10/11/2017 06:40      49.5      48.6       67     38.8      0.00      0.09      73.4     0.33      1012.0     1.3      SE   132   1.9      SE   125   9.13    269      -58.0
   10/11/2017 06:30      49.7      49.4       66     38.8      0.00      0.09      73.5     0.33      1012.0     0.8     SSE   159   1.2      SE   143   9.13    269      -57.9
   10/11/2017 06:30      49.7      49.4       66     38.8      0.00      0.09      73.5     0.33      1012.0     0.8     SSE   159   1.2      SE   143   9.13    269      -57.9
   10/11/2017 06:20      49.5      49.2       64     37.7      0.00      0.09      73.5     0.33      1012.0     0.5     SSW   205   0.8     SSE   157   9.13    269      -58.2
   10/11/2017 06:20      49.5      49.2       64     37.7      0.00      0.09      73.5     0.33      1012.0     0.5     SSW   205   0.8     SSE   157   9.13    269      -58.2
   10/11/2017 06:10      49.6      49.2       67     39.1      0.00      0.09      73.4     0.33      1012.0     1.4      SE   136   2.1      SE   138   9.13    269      -59.1
   10/11/2017 06:10      49.6      49.2       67     39.1      0.00      0.09      73.4     0.33      1012.0     1.4      SE   136   2.1      SE   138   9.13    269      -59.1
   10/11/2017 06:00      49.6      49.2       66     38.6      0.00      0.09      73.6     0.33      1012.0     1.1     SSE   154   1.7     SSE   149   9.13    269      -59.3
   10/11/2017 06:00      49.6      49.2       66     38.6      0.00      0.09      73.6     0.33      1012.0     1.1     SSE   154   1.7     SSE   149   9.13    269      -59.3
   10/11/2017 05:50      49.8      49.5       64     38.0      0.00      0.09      74.0     0.33      1012.0     0.9       S   183   1.3     SSE   148   9.13    268      -59.3
   10/11/2017 05:50      49.8      49.5       64     38.0      0.00      0.09      74.0     0.33      1012.0     0.9       S   183   1.3     SSE   148   9.13    268      -59.3
   10/11/2017 05:40      49.6      49.2       62     37.1      0.00      0.09      73.7     0.33      1011.0     0.6     SSE   166   1.0       S   184   9.13    269      -58.9
   10/11/2017 05:40      49.6      49.2       62     37.1      0.00      0.09      73.7     0.33      1011.0     0.6     SSE   166   1.0       S   184   9.13    269      -58.9
   10/11/2017 05:30      49.8      49.6       64     38.2      0.00      0.09      73.7     0.33      1011.0     0.8     ESE   122   1.6      SE   141   9.13    269      -59.8
   10/11/2017 05:30      49.8      49.6       64     38.2      0.00      0.09      73.7     0.33      1011.0     0.8     ESE   122   1.6      SE   141   9.13    269      -59.8
   10/11/2017 05:20      50.2      49.8       64     38.1      0.00      0.09      73.8     0.33      1011.0     1.3     SSE   148   2.0      SE   137   9.13    269      -59.8
   10/11/2017 05:20      50.2      49.8       64     38.1      0.00      0.09      73.8     0.33      1011.0     1.3     SSE   148   2.0      SE   137   9.13    269      -59.8
   10/11/2017 05:10      50.3      50.0       62     37.6      0.00      0.09      73.9     0.33      1011.0     1.0     SSE   162   1.5      SE   142   9.13    268      -60.0
   10/11/2017 05:10      50.3      50.0       62     37.6      0.00      0.09      73.9     0.33      1011.0     1.0     SSE   162   1.5      SE   142   9.13    268      -60.0
   10/11/2017 05:00      50.3      49.9       61     37.4      0.00      0.09      73.9     0.33      1011.0     1.4      SE   138   1.7      SE   127   9.13    268      -60.4
   10/11/2017 05:00      50.3      49.9       61     37.4      0.00      0.09      73.9     0.33      1011.0     1.4      SE   138   1.7      SE   127   9.13    268      -60.4
   10/11/2017 04:50      50.6      50.1       60     37.0      0.00      0.09      74.0     0.33      1011.0     0.7     SSE   164   1.0      SE   142   9.13    268      -59.8
   10/11/2017 04:50      50.6      50.1       60     37.0      0.00      0.09      74.0     0.33      1011.0     0.7     SSE   164   1.0      SE   142   9.13    268      -59.8
   10/11/2017 04:40      50.8      50.2       59     36.6      0.00      0.09      73.8     0.33      1011.0     0.5     ENE    66   1.1     ENE    71   9.13    268      -60.8
   10/11/2017 04:40      50.8      50.2       59     36.6      0.00      0.09      73.8     0.33      1011.0     0.5     ENE    66   1.1     ENE    71   9.13    268      -60.8
   10/11/2017 04:30      50.8      50.6       60     37.4      0.00      0.09      74.0     0.33      1011.0     0.5     WSW   258   0.7      SW   230   9.13    268      -60.8
   10/11/2017 04:30      50.8      50.6       60     37.4      0.00      0.09      74.0     0.33      1011.0     0.5     WSW   258   0.7      SW   230   9.13    268      -60.8
   10/11/2017 04:20      51.4      50.7       60     37.7      0.00      0.09      73.9     0.33      1011.0     0.5     NNW   334   1.0     ENE    70   9.13    268      -61.9
   10/11/2017 04:20      51.4      50.7       60     37.7      0.00      0.09      73.9     0.33      1011.0     0.5     NNW   334   1.0     ENE    70   9.13    268      -61.9
   10/11/2017 04:10      51.6      51.4       60     38.1      0.00      0.09      74.0     0.33      1011.0     1.4      SE   143   2.0      SE   132   9.13    269      -62.1
   10/11/2017 04:10      51.6      51.4       60     38.1      0.00      0.09      74.0     0.33      1011.0     1.4      SE   143   2.0      SE   132   9.13    269      -62.1
   10/11/2017 04:00      51.9      51.4       60     38.1      0.00      0.09      73.9     0.33      1011.0     1.6     SSE   149   2.4     SSE   157   9.13    268      -62.3
   10/11/2017 04:00      51.9      51.4       60     38.1      0.00      0.09      73.9     0.33      1011.0     1.6     SSE   149   2.4     SSE   157   9.13    268      -62.3
   10/11/2017 03:50      52.2      52.0       56     37.1      0.00      0.09      74.0     0.33      1011.0     1.0     SSE   155   2.6      SE   141   9.13    268      -61.8
   10/11/2017 03:50      52.2      52.0       56     37.1      0.00      0.09      74.0     0.33      1011.0     1.0     SSE   155   2.6      SE   141   9.13    268      -61.8
   10/11/2017 03:40      52.3      52.0       57     37.2      0.00      0.09      73.8     0.33      1011.0     0.7     SSE   156   1.0     SSE   164   9.13    268      -62.5
   10/11/2017 03:40      52.3      52.0       57     37.2      0.00      0.09      73.8     0.33      1011.0     0.7     SSE   156   1.0     SSE   164   9.13    268      -62.5
   10/11/2017 03:30      52.3      52.1       59     38.3      0.00      0.09      74.1     0.33      1011.0     0.9       S   171   1.5      SE   128   9.13    268      -62.1
   10/11/2017 03:30      52.3      52.1       59     38.3      0.00      0.09      74.1     0.33      1011.0     0.9       S   171   1.5      SE   128   9.13    268      -62.1
   10/11/2017 03:20      52.6      52.1       60     38.7      0.00      0.09      74.1     0.33      1012.0     1.4      SE   132   1.8      SE   138   9.13    268      -62.6
   10/11/2017 03:20      52.6      52.1       60     38.7      0.00      0.09      74.1     0.33      1012.0     1.4      SE   132   1.8      SE   138   9.13    268      -62.6
   10/11/2017 03:10      53.1      52.8       56     37.6      0.00      0.09      74.1     0.33      1012.0     1.6     SSE   165   2.1      SE   132   9.13    268      -62.8
   10/11/2017 03:10      53.1      52.8       56     37.6      0.00      0.09      74.1     0.33      1012.0     1.6     SSE   165   2.1      SE   132   9.13    268      -62.8
   10/11/2017 03:00      53.0      52.6       61     39.7      0.00      0.09      74.2     0.33      1012.0     1.0     SSE   154   1.4      SE   146   9.13    268      -61.6
   10/11/2017 03:00      53.0      52.6       61     39.7      0.00      0.09      74.2     0.33      1012.0     1.0     SSE   154   1.4      SE   146   9.13    268      -61.6
   10/11/2017 02:50      53.4      52.6       58     38.5      0.00      0.09      74.1     0.33      1012.0     1.7      SE   126   1.9      SE   126   9.13    268      -59.6
   10/11/2017 02:50      53.4      52.6       58     38.5      0.00      0.09      74.1     0.33      1012.0     1.7      SE   126   1.9      SE   126   9.13    268      -59.6
   10/11/2017 02:40      53.8      53.5       56     38.4      0.00      0.09      74.2     0.33      1012.0     1.2     ESE   124   1.7      SE   130   9.13    268      -59.6
   10/11/2017 02:40      53.8      53.5       56     38.4      0.00      0.09      74.2     0.33      1012.0     1.2     ESE   124   1.7      SE   130   9.13    268      -59.6
   10/11/2017 02:30      54.0      53.9       54     37.8      0.00      0.09      74.1     0.33      1012.0     1.1      SE   136   1.2      SE   143   9.13    268      -57.7
   10/11/2017 02:30      54.0      53.9       54     37.8      0.00      0.09      74.1     0.33      1012.0     1.1      SE   136   1.2      SE   143   9.13    268      -57.7
   10/11/2017 02:20      54.2      54.0       53     37.3      0.00      0.09      74.3     0.33      1012.0     0.5     ESE   109   1.4      SE   143   9.13    268      -53.2
   10/11/2017 02:20      54.2      54.0       53     37.3      0.00      0.09      74.3     0.33      1012.0     0.5     ESE   109   1.4      SE   143   9.13    268      -53.2
   10/11/2017 02:10      54.6      54.1       53     37.5      0.00      0.09      74.3     0.33      1012.0     0.6       E    85   1.0       E    98   9.13    268      -52.1
   10/11/2017 02:10      54.6      54.1       53     37.5      0.00      0.09      74.3     0.33      1012.0     0.6       E    85   1.0       E    98   9.13    268      -52.1
   10/11/2017 02:00      54.8      54.6       50     36.4      0.00      0.09      74.3     0.33      1012.0     0.9      SE   145   1.4      SE   132   9.13    268      -51.4
   10/11/2017 02:00      54.8      54.6       50     36.4      0.00      0.09      74.3     0.33      1012.0     0.9      SE   145   1.4      SE   132   9.13    268      -51.4
   10/11/2017 01:50      54.7      54.3       50     36.2      0.00      0.09      74.4     0.33      1012.0     0.5     SSW   205   0.8     SSW   206   9.13    268      -53.5
   10/11/2017 01:50      54.7      54.3       50     36.2      0.00      0.09      74.4     0.33      1012.0     0.5     SSW   205   0.8     SSW   206   9.13    268      -53.5
   10/11/2017 01:40      54.6      54.3       51     36.5      0.00      0.09      74.2     0.33      1012.0     0.7       E    93   1.6     NNW   337   9.13    268      -57.8
   10/11/2017 01:40      54.6      54.3       51     36.5      0.00      0.09      74.2     0.33      1012.0     0.7       E    93   1.6     NNW   337   9.13    268      -57.8
   10/11/2017 01:30      54.6      54.3       50     36.4      0.00      0.09      74.2     0.33      1012.0     1.1      SE   126   1.8      SE   132   9.13    268      -64.6
   10/11/2017 01:30      54.6      54.3       50     36.4      0.00      0.09      74.2     0.33      1012.0     1.1      SE   126   1.8      SE   132   9.13    268      -64.6
   10/11/2017 01:20      55.0      54.6       50     36.5      0.00      0.09      74.3     0.33      1012.0     2.5      SE   135   3.0      SE   137   9.13    268      -65.6
   10/11/2017 01:20      55.0      54.6       50     36.5      0.00      0.09      74.3     0.33      1012.0     2.5      SE   135   3.0      SE   137   9.13    268      -65.6
   10/11/2017 01:10      55.4      55.1       51     37.4      0.00      0.09      74.5     0.33      1012.0     2.0      SE   140   2.9      SE   137   9.13    268      -64.7
   10/11/2017 01:10      55.4      55.1       51     37.4      0.00      0.09      74.5     0.33      1012.0     2.0      SE   140   2.9      SE   137   9.13    268      -64.7
   10/11/2017 01:00      55.5      55.3       50     37.3      0.00      0.09      74.3     0.33      1012.0     1.1      SW   227   1.9     WSW   249   9.13    268      -64.5
   10/11/2017 01:00      55.5      55.3       50     37.3      0.00      0.09      74.3     0.33      1012.0     1.1      SW   227   1.9     WSW   249   9.13    268      -64.5
   10/11/2017 00:50      55.6      55.4       52     38.0      0.00      0.09      74.3     0.33      1012.0     1.7      SE   146   2.4      SE   146   9.13    268      -65.3
   10/11/2017 00:50      55.6      55.4       52     38.0      0.00      0.09      74.3     0.33      1012.0     1.7      SE   146   2.4      SE   146   9.13    268      -65.3
   10/11/2017 00:40      56.3      55.8       49     37.4      0.00      0.09      74.3     0.33      1012.0     1.4      SE   130   2.1      SE   135   9.13    268      -67.0
   10/11/2017 00:40      56.3      55.8       49     37.4      0.00      0.09      74.3     0.33      1012.0     1.4      SE   130   2.1      SE   135   9.13    268      -67.0
   10/11/2017 00:30      56.6      56.4       48     37.0      0.00      0.09      74.3     0.33      1012.0     2.4      SE   134   3.3      SE   132   9.13    268      -67.2
   10/11/2017 00:30      56.6      56.4       48     37.0      0.00      0.09      74.3     0.33      1012.0     2.4      SE   134   3.3      SE   132   9.13    268      -67.2
   10/11/2017 00:20      57.0      56.9       46     36.3      0.00      0.09      74.2     0.33      1012.0     1.3       S   177   2.5      SE   129   9.14    268      -66.3
   10/11/2017 00:20      57.0      56.9       46     36.3      0.00      0.09      74.2     0.33      1012.0     1.3       S   177   2.5      SE   129   9.14    268      -66.3
   10/11/2017 00:10      57.0      56.9       46     36.5      0.00      0.09      74.4     0.33      1012.0     1.4     SSE   164   2.0      SE   129   9.14    268      -68.1
   10/11/2017 00:10      57.0      56.9       46     36.5      0.00      0.09      74.4     0.33      1012.0     1.4     SSE   164   2.0      SE   129   9.14    268      -68.1
   10/11/2017 00:00      57.7      57.5       44     35.6      0.00      0.09      74.4     0.33      1012.0     1.5       S   170   2.6     SSE   162   9.14    268      -68.2
   10/11/2017 00:00      57.7      57.5       44     35.6      0.00      0.09      74.4     0.33      1012.0     1.5       S   170   2.6     SSE   162   9.14    268      -68.2
   10/10/2017 23:50      58.1      57.7       44     35.9      0.00      0.09      74.4     0.33      1012.0     1.3     SSE   161   2.4      SE   140   9.14    268      -69.0
   10/10/2017 23:50      58.1      57.7       44     35.9      0.00      0.09      74.4     0.33      1012.0     1.3     SSE   161   2.4      SE   140   9.14    268      -69.0
   10/10/2017 23:40      58.6      58.0       42     35.3      0.00      0.09      74.6     0.33      1012.0     2.3     SSE   165   3.1      SE   141   9.14    268      -68.3
   10/10/2017 23:40      58.6      58.0       42     35.3      0.00      0.09      74.6     0.33      1012.0     2.3     SSE   165   3.1      SE   141   9.14    268      -68.3
   10/10/2017 23:30      59.2      58.1       42     35.4      0.00      0.09      74.3     0.33      1012.0     2.0      SE   143   3.0      SE   125   9.14    268      -68.6
   10/10/2017 23:30      59.2      58.1       42     35.4      0.00      0.09      74.3     0.33      1012.0     2.0      SE   143   3.0      SE   125   9.14    268      -68.6
   10/10/2017 23:20      59.1      58.7       42     35.9      0.00      0.09      74.5     0.33      1012.0     0.8      NW   325   1.3     WNW   293   9.14    268      -67.4
   10/10/2017 23:20      59.1      58.7       42     35.9      0.00      0.09      74.5     0.33      1012.0     0.8      NW   325   1.3     WNW   293   9.14    268      -67.4
   10/10/2017 23:10      59.8      59.3       42     36.4      0.00      0.09      74.4     0.33      1012.0     1.0       E    91   2.1      SE   134   9.14    268      -69.1
   10/10/2017 23:10      59.8      59.3       42     36.4      0.00      0.09      74.4     0.33      1012.0     1.0       E    91   2.1      SE   134   9.14    268      -69.1
   10/10/2017 23:00      61.0      60.1       39     35.7      0.00      0.09      74.3     0.33      1012.0     0.8     ENE    59   1.5     WNW   289   9.14    268      -69.9
   10/10/2017 23:00      61.0      60.1       39     35.7      0.00      0.09      74.3     0.33      1012.0     0.8     ENE    59   1.5     WNW   289   9.14    268      -69.9
   10/10/2017 22:50      61.0      60.9       39     35.7      0.00      0.09      74.5     0.33      1012.0     1.0       W   264   1.7       W   260   9.14    267      -68.4
   10/10/2017 22:50      61.0      60.9       39     35.7      0.00      0.09      74.5     0.33      1012.0     1.0       W   264   1.7       W   260   9.14    267      -68.4
   10/10/2017 22:40      61.2      60.8       40     36.3      0.00      0.09      74.4     0.33      1012.0     1.0       W   264   1.4     WSW   239   9.14    267      -68.9
   10/10/2017 22:40      61.2      60.8       40     36.3      0.00      0.09      74.4     0.33      1012.0     1.0       W   264   1.4     WSW   239   9.14    267      -68.9
   10/10/2017 22:30      61.0      60.6       41     36.8      0.00      0.09      74.4     0.33      1012.0     0.4       E    81   0.9     SSW   209   9.14    268      -70.2
   10/10/2017 22:30      61.0      60.6       41     36.8      0.00      0.09      74.4     0.33      1012.0     0.4       E    81   0.9     SSW   209   9.14    268      -70.2
   10/10/2017 22:20      61.0      60.4       43     37.8      0.00      0.09      74.6     0.33      1012.0     0.6     ESE   109   1.4     SSE   159   9.14    267      -69.9
   10/10/2017 22:20      61.0      60.4       43     37.8      0.00      0.09      74.6     0.33      1012.0     0.6     ESE   109   1.4     SSE   159   9.14    267      -69.9
   10/10/2017 22:10      62.1      61.2       42     38.2      0.00      0.09      74.4     0.33      1012.0     1.3       E   100   2.4      SE   126   9.14    267      -72.5
   10/10/2017 22:10      62.1      61.2       42     38.2      0.00      0.09      74.4     0.33      1012.0     1.3       E   100   2.4      SE   126   9.14    267      -72.5
   10/10/2017 22:00      63.0      62.2       41     38.7      0.00      0.09      74.4     0.33      1012.0     1.0     ENE    60   2.0     ESE   102   9.14    267      -73.7
   10/10/2017 22:00      63.0      62.2       41     38.7      0.00      0.09      74.4     0.33      1012.0     1.0     ENE    60   2.0     ESE   102   9.14    267      -73.7
   10/10/2017 21:50      64.2      63.0       40     38.9      0.00      0.09      74.4     0.33      1012.0     0.7      SE   129   1.1     SSW   198   9.14    267      -74.5
   10/10/2017 21:50      64.2      63.0       40     38.9      0.00      0.09      74.4     0.33      1012.0     0.7      SE   129   1.1     SSW   198   9.14    267      -74.5
   10/10/2017 21:40      65.3      64.4       38     38.9      0.00      0.09      74.2     0.33      1012.0     1.0       N   357   1.5     ENE    57   9.14    267      -76.9
   10/10/2017 21:40      65.3      64.4       38     38.9      0.00      0.09      74.2     0.33      1012.0     1.0       N   357   1.5     ENE    57   9.14    267      -76.9
   10/10/2017 21:30      66.1      65.5       38     39.3      0.00      0.09      74.3     0.33      1012.0     1.3       S   177   2.9     SSE   160   9.14    267      -78.7
   10/10/2017 21:30      66.1      65.5       38     39.3      0.00      0.09      74.3     0.33      1012.0     1.3       S   177   2.9     SSE   160   9.14    267      -78.7
   10/10/2017 21:20      66.2      65.9       38     40.0      0.00      0.09      74.2     0.33      1012.0     1.8     SSE   159   3.6     SSE   148   9.14    267      -79.5
   10/10/2017 21:20      66.2      65.9       38     40.0      0.00      0.09      74.2     0.33      1012.0     1.8     SSE   159   3.6     SSE   148   9.14    267      -79.5
   10/10/2017 21:10      66.7      65.8       40     41.2      0.00      0.09      74.4     0.33      1012.0     2.3       S   174   4.0       S   187   9.14    267      -79.5
   10/10/2017 21:10      66.7      65.8       40     41.2      0.00      0.09      74.4     0.33      1012.0     2.3       S   174   4.0       S   187   9.14    267      -79.5
   10/10/2017 21:00      67.1      66.6       40     41.7      0.00      0.09      74.3     0.33      1012.0     2.8     SSW   192   3.8     SSW   203   9.14    267      -79.4
   10/10/2017 21:00      67.1      66.6       40     41.7      0.00      0.09      74.3     0.33      1012.0     2.8     SSW   192   3.8     SSW   203   9.14    267      -79.4
   10/10/2017 20:50      67.8      67.2       40     42.3      0.00      0.09      74.3     0.33      1012.0     2.1       S   188   3.4      SW   217   9.14    267      -80.9
   10/10/2017 20:50      67.8      67.2       40     42.3      0.00      0.09      74.3     0.33      1012.0     2.1       S   188   3.4      SW   217   9.14    267      -80.9
   10/10/2017 20:40      67.9      67.7       40     42.7      0.00      0.09      74.2     0.33      1012.0     2.4     SSW   198   3.7       S   188   9.14    267      -83.5
   10/10/2017 20:40      67.9      67.7       40     42.7      0.00      0.09      74.2     0.33      1012.0     2.4     SSW   198   3.7       S   188   9.14    267      -83.5
   10/10/2017 20:30      67.9      67.7       41     43.0      0.00      0.09      74.3     0.33      1012.0     3.7     SSW   206   4.8     SSW   202   9.14    267      -82.7
   10/10/2017 20:30      67.9      67.7       41     43.0      0.00      0.09      74.3     0.33      1012.0     3.7     SSW   206   4.8     SSW   202   9.14    267      -82.7
   10/10/2017 20:20      68.8      68.1       39     42.8      0.00      0.09      74.2     0.33      1012.0     2.7       S   187   3.7       S   177   9.14    266      -83.7
   10/10/2017 20:20      68.8      68.1       39     42.8      0.00      0.09      74.2     0.33      1012.0     2.7       S   187   3.7       S   177   9.14    266      -83.7
   10/10/2017 20:10      68.8      68.5       38     42.2      0.00      0.09      74.1     0.33      1012.0     3.3      SW   220   5.7     WSW   242   9.14    267      -84.2
   10/10/2017 20:10      68.8      68.5       38     42.2      0.00      0.09      74.1     0.33      1012.0     3.3      SW   220   5.7     WSW   242   9.14    267      -84.2
   10/10/2017 20:00      69.5      68.1       36     40.7      0.00      0.09      74.1     0.33      1012.0     2.1      SW   219   4.6      SW   218   9.14    266      -82.5
   10/10/2017 20:00      69.5      68.1       36     40.7      0.00      0.09      74.1     0.33      1012.0     2.1      SW   219   4.6      SW   218   9.14    266      -82.5
   10/10/2017 19:50      70.4      69.7       34     40.4      0.00      0.09      74.2     0.33      1012.0     2.7     WSW   246   5.1      SW   224   9.15    266      -84.7
   10/10/2017 19:50      70.4      69.7       34     40.4      0.00      0.09      74.2     0.33      1012.0     2.7     WSW   246   5.1      SW   224   9.15    266      -84.7
   10/10/2017 19:40      71.0      70.3       32     39.1      0.00      0.09      74.1     0.33      1012.0     2.5     WSW   240   4.2       W   260   9.15    266      -82.6
   10/10/2017 19:40      71.0      70.3       32     39.1      0.00      0.09      74.1     0.33      1012.0     2.5     WSW   240   4.2       W   260   9.15    266      -82.6
   10/10/2017 19:30      71.6      71.2       30     38.6      0.00      0.09      74.1     0.33      1012.0     2.3      SW   231   3.3     WSW   237   9.15    266      -78.5
   10/10/2017 19:30      71.6      71.2       30     38.6      0.00      0.09      74.1     0.33      1012.0     2.3      SW   231   3.3     WSW   237   9.15    266      -78.5
   10/10/2017 19:20      72.2      71.7       30     38.8      0.00      0.09      74.2     0.33      1012.0     2.2      SW   235   3.0     WSW   247   9.15    266      -82.3
   10/10/2017 19:20      72.2      71.7       30     38.8      0.00      0.09      74.2     0.33      1012.0     2.2      SW   235   3.0     WSW   247   9.15    266      -82.3
   10/10/2017 19:10      73.3      72.4       29     38.7      0.00      0.09      74.0     0.33      1012.0     2.4     WSW   238   4.2     WSW   247   9.15    266      -86.6
   10/10/2017 19:10      73.3      72.4       29     38.7      0.00      0.09      74.0     0.33      1012.0     2.4     WSW   238   4.2     WSW   247   9.15    266      -86.6
   10/10/2017 19:00      73.8      73.4       28     38.6      0.00      0.09      74.0     0.33      1012.0     3.1     WNW   293   4.2      NW   313   9.15    266      -89.8
   10/10/2017 19:00      73.8      73.4       28     38.6      0.00      0.09      74.0     0.33      1012.0     3.1     WNW   293   4.2      NW   313   9.15    266      -89.8
   10/10/2017 18:50      74.3      73.8       28     39.1      0.00      0.09      74.0     0.33      1012.0     4.0     WNW   300   7.7     WNW   299   9.15    266      -91.5
   10/10/2017 18:50      74.3      73.8       28     39.1      0.00      0.09      74.0     0.33      1012.0     4.0     WNW   300   7.7     WNW   299   9.15    266      -91.5
   10/10/2017 18:40      75.0      74.4       30     41.0      0.00      0.09      74.0     0.33      1012.0     3.1     WNW   292   4.3     WNW   294   9.15    266      -92.0
   10/10/2017 18:40      75.0      74.4       30     41.0      0.00      0.09      74.0     0.33      1012.0     3.1     WNW   292   4.3     WNW   294   9.15    266      -92.0
   10/10/2017 18:30      76.1      75.2       29     41.3      0.00      0.09      73.8     0.33      1011.0     4.4     WNW   294   5.4       W   279   9.15    266      -90.2
   10/10/2017 18:30      76.1      75.2       29     41.3      0.00      0.09      73.8     0.33      1011.0     4.4     WNW   294   5.4       W   279   9.15    266      -90.2
   10/10/2017 18:20      77.3      76.2       28     41.3      0.00      0.09      73.8     0.33      1011.0     5.8     WNW   299   7.5      NW   304   9.15    266      -84.6
   10/10/2017 18:20      77.3      76.2       28     41.3      0.00      0.09      73.8     0.33      1011.0     5.8     WNW   299   7.5      NW   304   9.15    266      -84.6
   10/10/2017 18:10      79.4      77.5       27     41.4      0.00      0.09      73.8     0.33      1011.0     3.9     WNW   293   5.8     WNW   300   9.15    266      -82.1
   10/10/2017 18:10      79.4      77.5       27     41.4      0.00      0.09      73.8     0.33      1011.0     3.9     WNW   293   5.8     WNW   300   9.15    266      -82.1
   10/10/2017 18:00      81.1      79.7       17     30.4      0.00      0.09      73.7     0.33      1011.0     3.9       W   275   6.2       W   277   9.15    265      -79.5
   10/10/2017 18:00      81.1      79.7       17     30.4      0.00      0.09      73.7     0.33      1011.0     3.9       W   275   6.2       W   277   9.15    265      -79.5
   10/10/2017 17:50      81.6      80.9       11     21.8      0.00      0.09      73.7     0.33      1011.0     4.0     WSW   250   6.5     WSW   240   9.16    265      -70.1
   10/10/2017 17:50      81.6      80.9       11     21.8      0.00      0.09      73.7     0.33      1011.0     4.0     WSW   250   6.5     WSW   240   9.16    265      -70.1
   10/10/2017 17:40      81.9      81.6       10     21.0      0.00      0.09      73.7     0.33      1011.0     2.9      SW   224   4.3     SSW   210   9.16    265      -53.3
   10/10/2017 17:40      81.9      81.6       10     21.0      0.00      0.09      73.7     0.33      1011.0     2.9      SW   224   4.3     SSW   210   9.16    265      -53.3
   10/10/2017 17:30      83.0      82.1        9     19.4      0.00      0.09      73.7     0.33      1011.0     4.0      SW   217   7.2       S   173   9.16    264      -48.6
   10/10/2017 17:30      83.0      82.1        9     19.4      0.00      0.09      73.7     0.33      1011.0     4.0      SW   217   7.2       S   173   9.16    264      -48.6
   10/10/2017 17:20      83.0      82.6        9     18.4      0.00      0.09      73.5     0.33      1011.0     3.8       S   176   7.0       S   182   9.16    265       -6.7
   10/10/2017 17:20      83.0      82.6        9     18.4      0.00      0.09      73.5     0.33      1011.0     3.8       S   176   7.0       S   182   9.16    265       -6.7
   10/10/2017 17:10      83.4      82.7        9     18.1      0.00      0.09      73.6     0.33      1011.0     5.2       S   170   7.3     SSE   165   9.16    264       17.6
   10/10/2017 17:10      83.4      82.7        9     18.1      0.00      0.09      73.6     0.33      1011.0     5.2       S   170   7.3     SSE   165   9.16    264       17.6
   10/10/2017 17:00      83.9      83.4        9     19.1      0.00      0.09      73.5     0.33      1011.0     4.6       S   177   7.0       S   180   9.16    265       39.9
   10/10/2017 17:00      83.9      83.4        9     19.1      0.00      0.09      73.5     0.33      1011.0     4.6       S   177   7.0       S   180   9.16    265       39.9
   10/10/2017 16:50      84.0      83.8        9     19.6      0.00      0.09      73.5     0.33      1011.0     4.5       S   187   8.0      SW   225   9.16    265       64.8
   10/10/2017 16:50      84.0      83.8        9     19.6      0.00      0.09      73.5     0.33      1011.0     4.5       S   187   8.0      SW   225   9.16    265       64.8
   10/10/2017 16:40      84.7      84.0        9     20.3      0.00      0.09      73.3     0.33      1011.0     5.6       S   189   8.2       S   183   9.17    265       90.9
   10/10/2017 16:40      84.7      84.0        9     20.3      0.00      0.09      73.3     0.33      1011.0     5.6       S   189   8.2       S   183   9.17    265       90.9
   10/10/2017 16:30      84.8      84.5        9     20.3      0.00      0.09      73.3     0.33      1011.0     5.2       S   184   7.6     SSE   161   9.17    265      116.8
   10/10/2017 16:30      84.8      84.5        9     20.3      0.00      0.09      73.3     0.33      1011.0     5.2       S   184   7.6     SSE   161   9.17    265      116.8
   10/10/2017 16:20      85.6      85.0        9     19.6      0.00      0.09      73.3     0.33      1011.0     6.0     SSE   168   8.3     SSE   162   9.17    265      144.3
   10/10/2017 16:20      85.6      85.0        9     19.6      0.00      0.09      73.3     0.33      1011.0     6.0     SSE   168   8.3     SSE   162   9.17    265      144.3
   10/10/2017 16:10      85.4      85.0        9     19.2      0.00      0.09      73.3     0.33      1011.0     5.7     SSE   148   8.9      SE   133   9.17    265      168.5
   10/10/2017 16:10      85.4      85.0        9     19.2      0.00      0.09      73.3     0.33      1011.0     5.7     SSE   148   8.9      SE   133   9.17    265      168.5
   10/10/2017 16:00      86.0      85.4        9     19.2      0.00      0.09      73.4     0.33      1011.0     7.0      SE   137   9.1     ESE   114   9.17    265      183.4
   10/10/2017 16:00      86.0      85.4        9     19.2      0.00      0.09      73.4     0.33      1011.0     7.0      SE   137   9.1     ESE   114   9.17    265      183.4
   10/10/2017 15:50      86.5      85.9        8     18.7      0.00      0.09      73.3     0.33      1011.0     6.4       S   172   8.5      SE   140   9.17    265      195.9
   10/10/2017 15:50      86.5      85.9        8     18.7      0.00      0.09      73.3     0.33      1011.0     6.4       S   172   8.5      SE   140   9.17    265      195.9
   10/10/2017 15:40      86.1      85.6        8     18.7      0.00      0.09      73.1     0.33      1011.0     6.9     SSE   153  10.2      SE   146   9.17    265      217.9
   10/10/2017 15:40      86.1      85.6        8     18.7      0.00      0.09      73.1     0.33      1011.0     6.9     SSE   153  10.2      SE   146   9.17    265      217.9
   10/10/2017 15:30      86.0      85.6        8     18.5      0.00      0.09      73.0     0.33      1011.0     7.0     SSE   152   9.9     SSE   158   9.17    266      237.0
   10/10/2017 15:30      86.0      85.6        8     18.5      0.00      0.09      73.0     0.33      1011.0     7.0     SSE   152   9.9     SSE   158   9.17    266      237.0
   10/10/2017 15:20      87.1      86.3        8     18.3      0.00      0.09      73.0     0.33      1011.0     4.6     SSW   201   9.7      SE   143   9.17    266      254.2
   10/10/2017 15:20      87.1      86.3        8     18.3      0.00      0.09      73.0     0.33      1011.0     4.6     SSW   201   9.7      SE   143   9.17    266      254.2
   10/10/2017 15:10      88.4      86.7        8     18.9      0.00      0.09      73.0     0.33      1011.0     5.3       S   177   7.5      SE   142   9.17    267      275.7
   10/10/2017 15:10      88.4      86.7        8     18.9      0.00      0.09      73.0     0.33      1011.0     5.3       S   177   7.5      SE   142   9.17    267      275.7
   10/10/2017 15:00      88.2      87.0        9     21.5      0.00      0.09      72.9     0.33      1011.0     2.5      NE    35   5.3     NNE    30   9.17    267      299.5
   10/10/2017 15:00      88.2      87.0        9     21.5      0.00      0.09      72.9     0.33      1011.0     2.5      NE    35   5.3     NNE    30   9.17    267      299.5
   10/10/2017 14:50      87.7      86.6        9     20.8      0.00      0.09      72.8     0.33      1011.0     3.5      NE    55   5.5      NE    35   9.17    266      315.3
   10/10/2017 14:50      87.7      86.6        9     20.8      0.00      0.09      72.8     0.33      1011.0     3.5      NE    55   5.5      NE    35   9.17    266      315.3
   10/10/2017 14:40      88.0      86.6        9     20.9      0.00      0.09      73.0     0.33      1011.0     3.6     ESE   108   7.1       E    80   9.17    267      329.0
   10/10/2017 14:40      88.0      86.6        9     20.9      0.00      0.09      73.0     0.33      1011.0     3.6     ESE   108   7.1       E    80   9.17    267      329.0
   10/10/2017 14:30      88.6      87.5        8     20.4      0.00      0.09      72.9     0.33      1011.0     4.0     NNE    34   6.6       N   350   9.17    266      337.7
   10/10/2017 14:30      88.6      87.5        8     20.4      0.00      0.09      72.9     0.33      1011.0     4.0     NNE    34   6.6       N   350   9.17    266      337.7
   10/10/2017 14:20      88.8      87.6        8     20.6      0.00      0.09      72.7     0.33      1012.0     2.5     ESE   122   5.1       N   357   9.17    267      350.2
   10/10/2017 14:20      88.8      87.6        8     20.6      0.00      0.09      72.7     0.33      1012.0     2.5     ESE   122   5.1       N   357   9.17    267      350.2
   10/10/2017 14:10      87.9      87.0        9     20.8      0.00      0.09      72.8     0.33      1012.0     3.0      NW   322   4.8      NW   318   9.17    266      362.5
   10/10/2017 14:10      87.9      87.0        9     20.8      0.00      0.09      72.8     0.33      1012.0     3.0      NW   322   4.8      NW   318   9.17    266      362.5
   10/10/2017 14:00      87.9      86.5        8     20.0      0.00      0.09      72.8     0.33      1012.0     2.9     NNE    18   5.3     NNE    32   9.17    267      376.2
   10/10/2017 14:00      87.9      86.5        8     20.0      0.00      0.09      72.8     0.33      1012.0     2.9     NNE    18   5.3     NNE    32   9.17    267      376.2
   10/10/2017 13:50      86.9      86.6        7     16.3      0.00      0.09      72.9     0.32      1012.0     4.0     NNE    18   5.3       N   358   9.17    266      386.0
   10/10/2017 13:50      86.9      86.6        7     16.3      0.00      0.09      72.9     0.32      1012.0     4.0     NNE    18   5.3       N   358   9.17    266      386.0
   10/10/2017 13:40      86.7      86.3        7     15.8      0.00      0.09      72.7     0.32      1012.0     4.9       N   358   7.1       N   359   9.17    267      395.9
   10/10/2017 13:40      86.7      86.3        7     15.8      0.00      0.09      72.7     0.32      1012.0     4.9       N   358   7.1       N   359   9.17    267      395.9
   10/10/2017 13:30      86.8      85.6        7     14.9      0.00      0.09      72.7     0.32      1013.0     3.3     ENE    65   7.0       N    10   9.17    267      407.6
   10/10/2017 13:30      86.8      85.6        7     14.9      0.00      0.09      72.7     0.32      1013.0     3.3     ENE    65   7.0       N    10   9.17    267      407.6
   10/10/2017 13:20      86.1      85.6        7     15.0      0.00      0.09      72.7     0.32      1013.0     4.5       N     8   6.6       N   358   9.17    266      414.1
   10/10/2017 13:20      86.1      85.6        7     15.0      0.00      0.09      72.7     0.32      1013.0     4.5       N     8   6.6       N   358   9.17    266      414.1
   10/10/2017 13:10      86.0      85.0        7     15.5      0.00      0.09      72.7     0.32      1013.0     3.0     NNE    23   5.3       N   353   9.17    267      418.9
   10/10/2017 13:10      86.0      85.0        7     15.5      0.00      0.09      72.7     0.32      1013.0     3.0     NNE    23   5.3       N   353   9.17    267      418.9
   10/10/2017 13:00      85.5      84.5        7     14.3      0.00      0.09      72.6     0.32      1013.0     3.6     WNW   295   4.7      NW   321   9.17    267      428.5
   10/10/2017 13:00      85.5      84.5        7     14.3      0.00      0.09      72.6     0.32      1013.0     3.6     WNW   295   4.7      NW   321   9.17    267      428.5
   10/10/2017 12:50      86.1      85.4        7     14.2      0.00      0.09      72.6     0.32      1013.0     3.4      NE    54   5.9     ENE    58   9.17    267      431.4
   10/10/2017 12:50      86.1      85.4        7     14.2      0.00      0.09      72.6     0.32      1013.0     3.4      NE    54   5.9     ENE    58   9.17    267      431.4
   10/10/2017 12:40      86.1      85.1        7     13.6      0.00      0.09      72.7     0.32      1013.0     3.2      NE    55   5.9     ESE   118   9.17    267      431.7
   10/10/2017 12:40      86.1      85.1        7     13.6      0.00      0.09      72.7     0.32      1013.0     3.2      NE    55   5.9     ESE   118   9.17    267      431.7
   10/10/2017 12:30      85.3      83.4        7     13.6      0.00      0.09      72.7     0.32      1014.0     3.6     NNE    26   6.6      SE   127   9.17    267      433.5
   10/10/2017 12:30      85.3      83.4        7     13.6      0.00      0.09      72.7     0.32      1014.0     3.6     NNE    26   6.6      SE   127   9.17    267      433.5
   10/10/2017 12:20      84.4      83.5        7     12.5      0.00      0.09      72.8     0.32      1014.0     3.8     ESE   120   7.6      SE   130   9.17    267      433.6
   10/10/2017 12:20      84.4      83.5        7     12.5      0.00      0.09      72.8     0.32      1014.0     3.8     ESE   120   7.6      SE   130   9.17    267      433.6
   10/10/2017 12:10      84.6      83.5        7     13.5      0.00      0.09      72.6     0.32      1014.0     4.1      NE    46   7.1      SE   132   9.17    267      428.1
   10/10/2017 12:10      84.6      83.5        7     13.5      0.00      0.09      72.6     0.32      1014.0     4.1      NE    46   7.1      SE   132   9.17    267      428.1
   10/10/2017 12:00      84.3      82.8        7     12.1      0.00      0.09      72.7     0.32      1014.0     3.6      NE    52   5.4      NE    48   9.17    267      422.9
   10/10/2017 12:00      84.3      82.8        7     12.1      0.00      0.09      72.7     0.32      1014.0     3.6      NE    52   5.4      NE    48   9.17    267      422.9
   10/10/2017 11:50      83.0      82.3        7     12.9      0.00      0.09      72.7     0.32      1014.0     2.6       N     3   4.0      NE    38   9.17    267      419.4
   10/10/2017 11:50      83.0      82.3        7     12.9      0.00      0.09      72.7     0.32      1014.0     2.6       N     3   4.0      NE    38   9.17    267      419.4
   10/10/2017 11:40      82.9      81.9        7     13.8      0.00      0.09      72.8     0.32      1014.0     4.2     NNE    24   5.7     ENE    64   9.17    267      419.4
   10/10/2017 11:40      82.9      81.9        7     13.8      0.00      0.09      72.8     0.32      1014.0     4.2     NNE    24   5.7     ENE    64   9.17    267      419.4
   10/10/2017 11:30      82.8      82.3        8     14.4      0.00      0.09      72.8     0.32      1014.0     3.0     SSW   208   5.9       E    92   9.17    267      413.3
   10/10/2017 11:30      82.8      82.3        8     14.4      0.00      0.09      72.8     0.32      1014.0     3.0     SSW   208   5.9       E    92   9.17    267      413.3
   10/10/2017 11:20      82.6      81.7        8     15.1      0.00      0.09      72.9     0.32      1014.0     2.1     ENE    70   3.5     ESE   113   9.17    267      405.5
   10/10/2017 11:20      82.6      81.7        8     15.1      0.00      0.09      72.9     0.32      1014.0     2.1     ENE    70   3.5     ESE   113   9.17    267      405.5
   10/10/2017 11:10      81.8      81.0        9     16.7      0.00      0.09      72.9     0.32      1014.0     1.5     ENE    62   2.8       E    90   9.17    268      398.0
   10/10/2017 11:10      81.8      81.0        9     16.7      0.00      0.09      72.9     0.32      1014.0     1.5     ENE    62   2.8       E    90   9.17    268      398.0
   10/10/2017 11:00      81.4      79.7       10     19.7      0.00      0.09      73.0     0.32      1014.0     2.4     ENE    68   3.2     ENE    62   9.17    268      387.3
   10/10/2017 11:00      81.4      79.7       10     19.7      0.00      0.09      73.0     0.32      1014.0     2.4     ENE    68   3.2     ENE    62   9.17    268      387.3
   10/10/2017 10:50      80.0      79.0       11     20.3      0.00      0.09      73.0     0.32      1015.0     2.1       N    10   3.0       N   355   9.17    268      377.0
   10/10/2017 10:50      80.0      79.0       11     20.3      0.00      0.09      73.0     0.32      1015.0     2.1       N    10   3.0       N   355   9.17    268      377.0
   10/10/2017 10:40      78.8      78.0       11     20.4      0.00      0.09      73.0     0.33      1015.0     1.8       N   351   2.8       N   352   9.17    269      364.8
   10/10/2017 10:40      78.8      78.0       11     20.4      0.00      0.09      73.0     0.33      1015.0     1.8       N   351   2.8       N   352   9.17    269      364.8
   10/10/2017 10:30      78.6      78.1       11     20.4      0.00      0.09      73.0     0.33      1015.0     2.5     ENE    61   4.7      SE   126   9.18    269      352.2
   10/10/2017 10:30      78.6      78.1       11     20.4      0.00      0.09      73.0     0.33      1015.0     2.5     ENE    61   4.7      SE   126   9.18    269      352.2
   10/10/2017 10:20      78.5      76.2       12     21.8      0.00      0.09      73.1     0.33      1015.0     1.2     NNE    17   2.6      SE   129   9.17    269      336.9
   10/10/2017 10:20      78.5      76.2       12     21.8      0.00      0.09      73.1     0.33      1015.0     1.2     NNE    17   2.6      SE   129   9.17    269      336.9
   10/10/2017 10:10      76.4      75.7       13     21.9      0.00      0.09      73.1     0.33      1015.0     1.6     SSW   197   2.7     WSW   243   9.17    269      323.0
   10/10/2017 10:10      76.4      75.7       13     21.9      0.00      0.09      73.1     0.33      1015.0     1.6     SSW   197   2.7     WSW   243   9.17    269      323.0
   10/10/2017 10:00      75.5      74.3       17     27.0      0.00      0.09      73.0     0.33      1015.0     2.4      NE    48   3.4     ESE   103   9.17    269      306.0
   10/10/2017 10:00      75.5      74.3       17     27.0      0.00      0.09      73.0     0.33      1015.0     2.4      NE    48   3.4     ESE   103   9.17    269      306.0
   10/10/2017 09:50      74.5      73.1       20     30.9      0.00      0.09      73.2     0.33      1015.0     1.6     NNE    16   2.5       N     8   9.17    270      292.0
   10/10/2017 09:50      74.5      73.1       20     30.9      0.00      0.09      73.2     0.33      1015.0     1.6     NNE    16   2.5       N     8   9.17    270      292.0
   10/10/2017 09:40      73.0      72.2       22     32.1      0.00      0.09      73.2     0.33      1015.0     1.8     NNE    11   3.5       N   349   9.17    270      274.4
   10/10/2017 09:40      73.0      72.2       22     32.1      0.00      0.09      73.2     0.33      1015.0     1.8     NNE    11   3.5       N   349   9.17    270      274.4
   10/10/2017 09:30      72.5      70.6       23     32.4      0.00      0.09      73.0     0.33      1015.0     1.5      NE    35   2.3       N     9   9.17    269      259.1
   10/10/2017 09:30      72.5      70.6       23     32.4      0.00      0.09      73.0     0.33      1015.0     1.5      NE    35   2.3       N     9   9.17    269      259.1
   10/10/2017 09:20      70.7      69.8       22     30.3      0.00      0.09      73.1     0.33      1015.0     1.3     NNE    12   2.5     NNW   346   9.17    269      235.1
   10/10/2017 09:20      70.7      69.8       22     30.3      0.00      0.09      73.1     0.33      1015.0     1.3     NNE    12   2.5     NNW   346   9.17    269      235.1
   10/10/2017 09:10      69.7      68.0       23     29.0      0.00      0.09      73.3     0.33      1015.0     0.9       N   358   1.4     NNW   343   9.17    269      227.8
   10/10/2017 09:10      69.7      68.0       23     29.0      0.00      0.09      73.3     0.33      1015.0     0.9       N   358   1.4     NNW   343   9.17    269      227.8
   10/10/2017 09:00      67.9      67.3       24     29.2      0.00      0.09      73.4     0.33      1015.0     1.0     NNW   347   2.8       N    10   9.17    269      208.2
   10/10/2017 09:00      67.9      67.3       24     29.2      0.00      0.09      73.4     0.33      1015.0     1.0     NNW   347   2.8       N    10   9.17    269      208.2
   10/10/2017 08:50      67.7      65.8       26     30.4      0.00      0.09      73.3     0.33      1015.0     0.7     NNE    24   1.9       N     4   9.17    269      187.1
   10/10/2017 08:50      67.7      65.8       26     30.4      0.00      0.09      73.3     0.33      1015.0     0.7     NNE    24   1.9       N     4   9.17    269      187.1
   10/10/2017 08:40      65.5      63.7       28     30.5      0.00      0.09      73.3     0.33      1015.0     0.7     ENE    57   1.3     NNE    17   9.17    269      163.4
   10/10/2017 08:40      65.5      63.7       28     30.5      0.00      0.09      73.3     0.33      1015.0     0.7     ENE    57   1.3     NNE    17   9.17    269      163.4
   10/10/2017 08:30      63.5      62.1       29     29.9      0.00      0.09      73.3     0.33      1015.0     0.7     NNE    26   1.6       N   352   9.17    269      138.0
   10/10/2017 08:30      63.5      62.1       29     29.9      0.00      0.09      73.3     0.33      1015.0     0.7     NNE    26   1.6       N   352   9.17    269      138.0
   10/10/2017 08:20      62.4      61.3       29     29.3      0.00      0.09      73.6     0.33      1015.0     0.6     ESE   116   1.1       S   177   9.17    269      114.9
   10/10/2017 08:20      62.4      61.3       29     29.3      0.00      0.09      73.6     0.33      1015.0     0.6     ESE   116   1.1       S   177   9.17    269      114.9
   10/10/2017 08:10      60.7      56.9       31     27.6      0.00      0.09      73.5     0.33      1015.0     0.5     NNW   331   0.9     NNW   338   9.12    269       77.4
   10/10/2017 08:10      60.7      56.9       31     27.6      0.00      0.09      73.5     0.33      1015.0     0.5     NNW   331   0.9     NNW   338   9.12    269       77.4
   10/10/2017 08:00      57.0      53.9       33     26.9      0.00      0.09      73.5     0.33      1015.0     0.3     ENE    66   0.5      NE    45   9.12    269       33.1
   10/10/2017 08:00      57.0      53.9       33     26.9      0.00      0.09      73.5     0.33      1015.0     0.3     ENE    66   0.5      NE    45   9.12    269       33.1
   10/10/2017 07:50      53.5      52.0       38     27.4      0.00      0.09      73.6     0.33      1015.0     0.6     ESE   119   1.0      SE   141   9.12    269       -7.9
   10/10/2017 07:50      53.5      52.0       38     27.4      0.00      0.09      73.6     0.33      1015.0     0.6     ESE   119   1.0      SE   141   9.12    269       -7.9
   10/10/2017 07:40      51.9      50.3       39     26.7      0.00      0.09      73.6     0.33      1015.0     1.3     ESE   123   2.0      SE   129   9.12    268      -40.4
   10/10/2017 07:40      51.9      50.3       39     26.7      0.00      0.09      73.6     0.33      1015.0     1.3     ESE   123   2.0      SE   129   9.12    268      -40.4
   10/10/2017 07:30      50.3      49.5       37     24.7      0.00      0.09      73.4     0.33      1015.0     0.6     ESE   115   1.1      SE   131   9.12    268      -42.9
   10/10/2017 07:30      50.3      49.5       37     24.7      0.00      0.09      73.4     0.33      1015.0     0.6     ESE   115   1.1      SE   131   9.12    268      -42.9
   10/10/2017 07:20      49.5      49.0       34     22.2      0.00      0.09      74.0     0.33      1015.0     0.4      SE   146   0.9     SSE   168   9.12    268      -46.5
   10/10/2017 07:20      49.5      49.0       34     22.2      0.00      0.09      74.0     0.33      1015.0     0.4      SE   146   0.9     SSE   168   9.12    268      -46.5
   10/10/2017 07:10      48.9      48.7       32     20.0      0.00      0.09      73.5     0.34      1015.0     0.5     ENE    59   1.2     SSE   162   9.12    268      -51.9
   10/10/2017 07:10      48.9      48.7       32     20.0      0.00      0.09      73.5     0.34      1015.0     0.5     ENE    59   1.2     SSE   162   9.12    268      -51.9
   10/10/2017 07:00      48.9      48.6       36     23.2      0.00      0.09      73.9     0.34      1015.0     1.1       S   171   1.9      SE   146   9.12    268      -55.6
   10/10/2017 07:00      48.9      48.6       36     23.2      0.00      0.09      73.9     0.34      1015.0     1.1       S   171   1.9      SE   146   9.12    268      -55.6
   10/10/2017 06:50      48.8      48.6       35     21.9      0.00      0.09      73.8     0.34      1014.0     0.7       S   173   1.4      SE   139   9.12    268      -57.9
   10/10/2017 06:50      48.8      48.6       35     21.9      0.00      0.09      73.8     0.34      1014.0     0.7       S   173   1.4      SE   139   9.12    268      -57.9
   10/10/2017 06:40      48.9      48.6       35     22.2      0.00      0.09      73.7     0.34      1014.0     0.8      SE   142   1.2     SSE   155   9.12    268      -58.0
   10/10/2017 06:40      48.9      48.6       35     22.2      0.00      0.09      73.7     0.34      1014.0     0.8      SE   142   1.2     SSE   155   9.12    268      -58.0
   10/10/2017 06:30      48.6      48.3       37     23.1      0.00      0.09      74.1     0.34      1014.0     1.3      SE   144   1.8      SE   132   9.12    268      -59.3
   10/10/2017 06:30      48.6      48.3       37     23.1      0.00      0.09      74.1     0.34      1014.0     1.3      SE   144   1.8      SE   132   9.12    268      -59.3
   10/10/2017 06:20      49.1      48.8       38     24.5      0.00      0.09      73.9     0.34      1014.0     1.7      SE   141   2.3     ESE   115   9.12    268      -60.1
   10/10/2017 06:20      49.1      48.8       38     24.5      0.00      0.09      73.9     0.34      1014.0     1.7      SE   141   2.3     ESE   115   9.12    268      -60.1
   10/10/2017 06:10      49.2      48.7       34     21.7      0.00      0.09      73.8     0.34      1014.0     0.7       S   177   1.0      NE    36   9.12    268      -60.0
   10/10/2017 06:10      49.2      48.7       34     21.7      0.00      0.09      73.8     0.34      1014.0     0.7       S   177   1.0      NE    36   9.12    268      -60.0
   10/10/2017 06:00      49.2      48.8       33     20.9      0.00      0.09      74.1     0.34      1014.0     0.8       S   176   1.3     SSE   162   9.12    268      -60.5
   10/10/2017 06:00      49.2      48.8       33     20.9      0.00      0.09      74.1     0.34      1014.0     0.8       S   176   1.3     SSE   162   9.12    268      -60.5
   10/10/2017 05:50      49.9      49.2       35     23.0      0.00      0.09      74.0     0.34      1014.0     1.2      SE   127   1.7     SSE   150   9.12    268      -61.1
   10/10/2017 05:50      49.9      49.2       35     23.0      0.00      0.09      74.0     0.34      1014.0     1.2      SE   127   1.7     SSE   150   9.12    268      -61.1
   10/10/2017 05:40      50.2      49.7       33     22.0      0.00      0.09      74.1     0.34      1014.0     1.0      SE   127   1.9     SSE   157   9.12    268      -61.3
   10/10/2017 05:40      50.2      49.7       33     22.0      0.00      0.09      74.1     0.34      1014.0     1.0      SE   127   1.9     SSE   157   9.12    268      -61.3
   10/10/2017 05:30      50.5      50.2       34     23.1      0.00      0.09      74.0     0.34      1014.0     0.8     SSE   158   1.2     SSE   157   9.12    268      -61.8
   10/10/2017 05:30      50.5      50.2       34     23.1      0.00      0.09      74.0     0.34      1014.0     0.8     SSE   158   1.2     SSE   157   9.12    268      -61.8
   10/10/2017 05:20      50.7      50.2       33     22.1      0.00      0.09      74.1     0.34      1014.0     1.2     SSE   157   2.0      SE   146   9.12    268      -61.8
   10/10/2017 05:20      50.7      50.2       33     22.1      0.00      0.09      74.1     0.34      1014.0     1.2     SSE   157   2.0      SE   146   9.12    268      -61.8
   10/10/2017 05:10      50.8      50.2       30     20.2      0.00      0.09      73.9     0.34      1014.0     0.9     SSW   192   1.3     SSW   193   9.12    268      -61.9
   10/10/2017 05:10      50.8      50.2       30     20.2      0.00      0.09      73.9     0.34      1014.0     0.9     SSW   192   1.3     SSW   193   9.12    268      -61.9
   10/10/2017 05:00      50.5      50.2       31     21.1      0.00      0.09      74.3     0.34      1014.0     0.6      SW   223   1.1     SSW   203   9.12    267      -61.3
   10/10/2017 05:00      50.5      50.2       31     21.1      0.00      0.09      74.3     0.34      1014.0     0.6      SW   223   1.1     SSW   203   9.12    267      -61.3
   10/10/2017 04:50      50.8      50.1       35     23.5      0.00      0.09      74.1     0.34      1014.0     0.7     SSE   165   0.9       S   171   9.12    268      -62.3
   10/10/2017 04:50      50.8      50.1       35     23.5      0.00      0.09      74.1     0.34      1014.0     0.7     SSE   165   0.9       S   171   9.12    268      -62.3
   10/10/2017 04:40      50.7      50.3       35     24.2      0.00      0.09      74.2     0.34      1014.0     1.4     SSE   147   2.4      SE   132   9.12    268      -62.6
   10/10/2017 04:40      50.7      50.3       35     24.2      0.00      0.09      74.2     0.34      1014.0     1.4     SSE   147   2.4      SE   132   9.12    268      -62.6
   10/10/2017 04:30      50.8      50.2       34     23.3      0.00      0.09      74.2     0.34      1014.0     2.2      SE   130   2.7      SE   129   9.12    268      -62.8
   10/10/2017 04:30      50.8      50.2       34     23.3      0.00      0.09      74.2     0.34      1014.0     2.2      SE   130   2.7      SE   129   9.12    268      -62.8
   10/10/2017 04:20      51.6      50.9       31     21.5      0.00      0.09      74.3     0.34      1014.0     2.0      SE   133   2.6      SE   142   9.12    268      -63.1
   10/10/2017 04:20      51.6      50.9       31     21.5      0.00      0.09      74.3     0.34      1014.0     2.0      SE   133   2.6      SE   142   9.12    268      -63.1
   10/10/2017 04:10      51.8      51.3       31     21.7      0.00      0.09      74.4     0.34      1014.0     0.9     SSW   198   1.5      SE   146   9.12    268      -62.5
   10/10/2017 04:10      51.8      51.3       31     21.7      0.00      0.09      74.4     0.34      1014.0     0.9     SSW   198   1.5      SE   146   9.12    268      -62.5
   10/10/2017 04:00      51.8      51.3       30     21.3      0.00      0.09      74.3     0.34      1014.0     0.8      SW   217   1.6     NNW   338   9.12    268      -63.4
   10/10/2017 04:00      51.8      51.3       30     21.3      0.00      0.09      74.3     0.34      1014.0     0.8      SW   217   1.6     NNW   338   9.12    268      -63.4
   10/10/2017 03:50      52.1      51.6       30     21.2      0.00      0.09      74.2     0.34      1014.0     1.3       E    79   2.1     SSE   147   9.12    268      -63.5
   10/10/2017 03:50      52.1      51.6       30     21.2      0.00      0.09      74.2     0.34      1014.0     1.3       E    79   2.1     SSE   147   9.12    268      -63.5
   10/10/2017 03:40      52.7      52.1       27     19.5      0.00      0.09      74.4     0.34      1014.0     1.2      SE   143   2.1       S   171   9.12    267      -62.3
   10/10/2017 03:40      52.7      52.1       27     19.5      0.00      0.09      74.4     0.34      1014.0     1.2      SE   143   2.1       S   171   9.12    267      -62.3
   10/10/2017 03:30      53.0      52.6       26     18.8      0.00      0.09      74.5     0.34      1014.0     0.5     NNE    25   1.6     NNE    18   9.12    268      -61.9
   10/10/2017 03:30      53.0      52.6       26     18.8      0.00      0.09      74.5     0.34      1014.0     0.5     NNE    25   1.6     NNE    18   9.12    268      -61.9
   10/10/2017 03:20      53.5      52.9       26     19.4      0.00      0.09      74.5     0.34      1014.0     0.7      SE   125   1.3      SE   144   9.12    267      -62.0
   10/10/2017 03:20      53.5      52.9       26     19.4      0.00      0.09      74.5     0.34      1014.0     0.7      SE   125   1.3      SE   144   9.12    267      -62.0
   10/10/2017 03:10      54.5      53.7       26     19.8      0.00      0.09      74.4     0.34      1014.0     0.6     ENE    66   0.9      NE    34   9.12    267      -61.9
   10/10/2017 03:10      54.5      53.7       26     19.8      0.00      0.09      74.4     0.34      1014.0     0.6     ENE    66   0.9      NE    34   9.12    267      -61.9
   10/10/2017 03:00      54.7      54.0       27     21.3      0.00      0.09      74.4     0.34      1014.0     0.8     SSE   152   1.2     SSE   152   9.12    268      -60.0
   10/10/2017 03:00      54.7      54.0       27     21.3      0.00      0.09      74.4     0.34      1014.0     0.8     SSE   152   1.2     SSE   152   9.12    268      -60.0
   10/10/2017 02:50      54.0      53.6       27     20.8      0.00      0.09      74.5     0.34      1014.0     1.2      SE   143   2.4     SSE   155   9.12    267      -61.4
   10/10/2017 02:50      54.0      53.6       27     20.8      0.00      0.09      74.5     0.34      1014.0     1.2      SE   143   2.4     SSE   155   9.12    267      -61.4
   10/10/2017 02:40      54.0      53.5       26     19.4      0.00      0.09      74.6     0.34      1014.0     1.0     SSE   150   1.5      SE   132   9.13    267      -62.2
   10/10/2017 02:40      54.0      53.5       26     19.4      0.00      0.09      74.6     0.34      1014.0     1.0     SSE   150   1.5      SE   132   9.13    267      -62.2
   10/10/2017 02:30      54.6      54.0       25     18.9      0.00      0.09      74.6     0.34      1014.0     0.8     SSE   148   1.7       S   182   9.13    267      -64.2
   10/10/2017 02:30      54.6      54.0       25     18.9      0.00      0.09      74.6     0.34      1014.0     0.8     SSE   148   1.7       S   182   9.13    267      -64.2
   10/10/2017 02:20      54.8      54.3       25     19.1      0.00      0.09      74.7     0.34      1014.0     1.1     SSE   147   1.9      SE   140   9.13    267      -63.7
   10/10/2017 02:20      54.8      54.3       25     19.1      0.00      0.09      74.7     0.34      1014.0     1.1     SSE   147   1.9      SE   140   9.13    267      -63.7
   10/10/2017 02:10      55.5      55.1       25     20.3      0.00      0.09      74.7     0.34      1014.0     1.1      SE   138   2.4     SSE   149   9.13    267      -63.3
   10/10/2017 02:10      55.5      55.1       25     20.3      0.00      0.09      74.7     0.34      1014.0     1.1      SE   138   2.4     SSE   149   9.13    267      -63.3
   10/10/2017 02:00      55.7      55.4       24     18.9      0.00      0.09      74.7     0.34      1014.0     1.2      SE   135   2.0      SE   135   9.13    267      -63.6
   10/10/2017 02:00      55.7      55.4       24     18.9      0.00      0.09      74.7     0.34      1014.0     1.2      SE   135   2.0      SE   135   9.13    267      -63.6
   10/10/2017 01:50      55.8      55.4       24     19.2      0.00      0.09      74.7     0.34      1014.0     0.8     SSE   156   2.3      SE   146   9.12    267      -63.5
   10/10/2017 01:50      55.8      55.4       24     19.2      0.00      0.09      74.7     0.34      1014.0     0.8     SSE   156   2.3      SE   146   9.12    267      -63.5
   10/10/2017 01:40      56.0      55.5       25     20.8      0.00      0.09      74.6     0.34      1014.0     1.1     SSE   152   2.2     SSE   147   9.13    267      -61.9
   10/10/2017 01:40      56.0      55.5       25     20.8      0.00      0.09      74.6     0.34      1014.0     1.1     SSE   152   2.2     SSE   147   9.13    267      -61.9
   10/10/2017 01:30      55.6      55.0       25     20.1      0.00      0.09      74.7     0.34      1014.0     1.4      SE   141   1.8     SSE   148   9.13    267      -61.1
   10/10/2017 01:30      55.6      55.0       25     20.1      0.00      0.09      74.7     0.34      1014.0     1.4      SE   141   1.8     SSE   148   9.13    267      -61.1
   10/10/2017 01:20      55.8      55.3       27     22.0      0.00      0.09      74.9     0.34      1014.0     2.2      SE   139   2.6      SE   145   9.13    267      -62.2
   10/10/2017 01:20      55.8      55.3       27     22.0      0.00      0.09      74.9     0.34      1014.0     2.2      SE   139   2.6      SE   145   9.13    267      -62.2
   10/10/2017 01:10      55.6      55.5       27     22.3      0.00      0.09      74.8     0.34      1014.0     2.2      SE   142   3.2      SE   145   9.13    267      -65.4
   10/10/2017 01:10      55.6      55.5       27     22.3      0.00      0.09      74.8     0.34      1014.0     2.2      SE   142   3.2      SE   145   9.13    267      -65.4
   10/10/2017 01:00      56.5      55.8       26     21.4      0.00      0.09      74.7     0.34      1014.0     2.0      SE   129   2.7      SE   131   9.13    267      -65.8
   10/10/2017 01:00      56.5      55.8       26     21.4      0.00      0.09      74.7     0.34      1014.0     2.0      SE   129   2.7      SE   131   9.13    267      -65.8
   10/10/2017 00:50      56.7      56.5       23     19.5      0.00      0.09      74.7     0.34      1014.0     1.1     SSE   153   2.2      SE   134   9.13    267      -65.3
   10/10/2017 00:50      56.7      56.5       23     19.5      0.00      0.09      74.7     0.34      1014.0     1.1     SSE   153   2.2      SE   134   9.13    267      -65.3
   10/10/2017 00:40      57.0      56.7       23     19.6      0.00      0.09      74.8     0.34      1014.0     1.0     SSE   159   1.9      SE   138   9.13    267      -65.6
   10/10/2017 00:40      57.0      56.7       23     19.6      0.00      0.09      74.8     0.34      1014.0     1.0     SSE   159   1.9      SE   138   9.13    267      -65.6
   10/10/2017 00:30      57.5      56.8       24     20.1      0.00      0.09      74.8     0.34      1014.0     1.0      SE   134   1.8     SSE   147   9.13    267      -66.3
   10/10/2017 00:30      57.5      56.8       24     20.1      0.00      0.09      74.8     0.34      1014.0     1.0      SE   134   1.8     SSE   147   9.13    267      -66.3
   10/10/2017 00:20      58.4      57.3       23     20.8      0.00      0.09      75.1     0.34      1014.0     1.6      SE   131   1.9      SE   135   9.13    267      -67.8
   10/10/2017 00:20      58.4      57.3       23     20.8      0.00      0.09      75.1     0.34      1014.0     1.6      SE   131   1.9      SE   135   9.13    267      -67.8
   10/10/2017 00:10      58.8      58.6       21     19.0      0.00      0.09      75.0     0.34      1014.0     0.6     SSE   160   1.2      SE   126   9.13    267      -67.6
   10/10/2017 00:10      58.8      58.6       21     19.0      0.00      0.09      75.0     0.34      1014.0     0.6     SSE   160   1.2      SE   126   9.13    267      -67.6
   10/10/2017 00:00      59.3      58.7       22     19.9      0.00      0.09      74.7     0.34      1014.0     0.8     ESE   119   1.2      SE   143   9.13    267      -68.9
   10/10/2017 00:00      59.3      58.7       22     19.9      0.00      0.09      74.7     0.34      1014.0     0.8     ESE   119   1.2      SE   143   9.13    267      -68.9
   10/09/2017 23:50      59.8      59.3       23     21.8      0.00      0.09      74.8     0.34      1014.0     1.6     SSE   149   2.7     SSE   149   9.13    267      -71.3
   10/09/2017 23:50      59.8      59.3       23     21.8      0.00      0.09      74.8     0.34      1014.0     1.6     SSE   149   2.7     SSE   149   9.13    267      -71.3
   10/09/2017 23:40      60.5      59.8       21     20.5      0.00      0.09      75.0     0.34      1014.0     1.9     SSE   158   2.8     SSE   153   9.13    267      -73.1
   10/09/2017 23:40      60.5      59.8       21     20.5      0.00      0.09      75.0     0.34      1014.0     1.9     SSE   158   2.8     SSE   153   9.13    267      -73.1
   10/09/2017 23:30      60.7      59.8       21     20.7      0.00      0.09      75.0     0.34      1014.0     1.8      SE   138   3.7      SE   139   9.13    267      -73.6
   10/09/2017 23:30      60.7      59.8       21     20.7      0.00      0.09      75.0     0.34      1014.0     1.8      SE   138   3.7      SE   139   9.13    267      -73.6
   10/09/2017 23:20      60.9      60.4       22     21.3      0.00      0.09      74.9     0.34      1014.0     2.9      SE   141   4.3     SSE   149   9.13    267      -73.7
   10/09/2017 23:20      60.9      60.4       22     21.3      0.00      0.09      74.9     0.34      1014.0     2.9      SE   141   4.3     SSE   149   9.13    267      -73.7
   10/09/2017 23:10      61.6      61.0       21     21.1      0.00      0.09      75.0     0.34      1014.0     2.2     SSE   150   3.1     ESE   112   9.13    267      -73.6
   10/09/2017 23:10      61.6      61.0       21     21.1      0.00      0.09      75.0     0.34      1014.0     2.2     SSE   150   3.1     ESE   112   9.13    267      -73.6
   10/09/2017 23:00      62.1      61.7       20     20.7      0.00      0.09      75.0     0.34      1014.0     2.3     SSE   148   2.9      SE   142   9.13    267      -73.5
   10/09/2017 23:00      62.1      61.7       20     20.7      0.00      0.09      75.0     0.34      1014.0     2.3     SSE   148   2.9      SE   142   9.13    267      -73.5
   10/09/2017 22:50      62.2      61.6       20     20.9      0.00      0.09      74.9     0.34      1014.0     3.0     SSE   151   4.1      SE   145   9.13    267      -73.6
   10/09/2017 22:50      62.2      61.6       20     20.9      0.00      0.09      74.9     0.34      1014.0     3.0     SSE   151   4.1      SE   145   9.13    267      -73.6
   10/09/2017 22:40      62.3      62.2       20     20.6      0.00      0.09      74.9     0.34      1014.0     2.2     SSE   149   3.2     SSE   155   9.13    267      -73.7
   10/09/2017 22:40      62.3      62.2       20     20.6      0.00      0.09      74.9     0.34      1014.0     2.2     SSE   149   3.2     SSE   155   9.13    267      -73.7
   10/09/2017 22:30      62.7      61.8       21     21.5      0.00      0.09      74.9     0.34      1014.0     2.5     SSE   147   3.3      SE   137   9.13    267      -73.9
   10/09/2017 22:30      62.7      61.8       21     21.5      0.00      0.09      74.9     0.34      1014.0     2.5     SSE   147   3.3      SE   137   9.13    267      -73.9
   10/09/2017 22:20      62.8      62.3       19     20.2      0.00      0.09      75.0     0.34      1014.0     2.1     SSE   155   2.8      SE   126   9.13    267      -72.8
   10/09/2017 22:20      62.8      62.3       19     20.2      0.00      0.09      75.0     0.34      1014.0     2.1     SSE   155   2.8      SE   126   9.13    267      -72.8
   10/09/2017 22:10      62.6      62.3       20     21.0      0.00      0.09      74.8     0.34      1014.0     3.0      SE   140   3.5      SE   140   9.13    267      -73.8
   10/09/2017 22:10      62.6      62.3       20     21.0      0.00      0.09      74.8     0.34      1014.0     3.0      SE   140   3.5      SE   140   9.13    267      -73.8
   10/09/2017 22:00      63.3      62.7       19     20.5      0.00      0.09      75.0     0.34      1014.0     3.3      SE   141   4.1     SSE   156   9.13    267      -73.6
   10/09/2017 22:00      63.3      62.7       19     20.5      0.00      0.09      75.0     0.34      1014.0     3.3      SE   141   4.1     SSE   156   9.13    267      -73.6
   10/09/2017 21:50      63.6      62.8       19     20.4      0.00      0.09      75.0     0.34      1014.0     2.8     SSE   157   3.6     SSE   148   9.13    267      -73.6
   10/09/2017 21:50      63.6      62.8       19     20.4      0.00      0.09      75.0     0.34      1014.0     2.8     SSE   157   3.6     SSE   148   9.13    267      -73.6
   10/09/2017 21:40      63.7      63.2       19     19.9      0.00      0.09      74.8     0.34      1014.0     2.6     SSE   149   3.4     SSE   149   9.13    267      -73.4
   10/09/2017 21:40      63.7      63.2       19     19.9      0.00      0.09      74.8     0.34      1014.0     2.6     SSE   149   3.4     SSE   149   9.13    267      -73.4
   10/09/2017 21:30      64.5      63.6       18     19.2      0.00      0.09      74.9     0.34      1014.0     2.2     SSE   147   3.4     SSE   150   9.13    267      -73.8
   10/09/2017 21:30      64.5      63.6       18     19.2      0.00      0.09      74.9     0.34      1014.0     2.2     SSE   147   3.4     SSE   150   9.13    267      -73.8
   10/09/2017 21:20      65.0      64.6       17     19.1      0.00      0.09      75.0     0.34      1014.0     2.1       S   169   2.9     SSE   154   9.13    267      -75.0
   10/09/2017 21:20      65.0      64.6       17     19.1      0.00      0.09      75.0     0.34      1014.0     2.1       S   169   2.9     SSE   154   9.13    267      -75.0
   10/09/2017 21:10      65.1      64.8       17     19.2      0.00      0.09      75.0     0.34      1014.0     1.7       S   179   2.3     SSE   164   9.13    267      -75.4
   10/09/2017 21:10      65.1      64.8       17     19.2      0.00      0.09      75.0     0.34      1014.0     1.7       S   179   2.3     SSE   164   9.13    267      -75.4
   10/09/2017 21:00      65.4      64.9       17     19.2      0.00      0.09      74.9     0.34      1014.0     2.3     SSE   162   2.7     ESE   123   9.14    266      -76.6
   10/09/2017 21:00      65.4      64.9       17     19.2      0.00      0.09      74.9     0.34      1014.0     2.3     SSE   162   2.7     ESE   123   9.14    266      -76.6
   10/09/2017 20:50      66.2      65.4       17     19.8      0.00      0.09      75.0     0.34      1014.0     2.1     SSE   159   3.1     SSE   149   9.13    266      -77.8
   10/09/2017 20:50      66.2      65.4       17     19.8      0.00      0.09      75.0     0.34      1014.0     2.1     SSE   159   3.1     SSE   149   9.13    266      -77.8
   10/09/2017 20:40      67.4      66.3       16     18.7      0.00      0.09      75.0     0.34      1013.0     1.6     SSE   164   2.4      SE   134   9.14    266      -78.7
   10/09/2017 20:40      67.4      66.3       16     18.7      0.00      0.09      75.0     0.34      1013.0     1.6     SSE   164   2.4      SE   134   9.14    266      -78.7
   10/09/2017 20:30      68.2      67.5       14     16.6      0.00      0.09      75.0     0.34      1013.0     1.8       S   178   2.4       E    96   9.14    266      -77.7
   10/09/2017 20:30      68.2      67.5       14     16.6      0.00      0.09      75.0     0.34      1013.0     1.8       S   178   2.4       E    96   9.14    266      -77.7
   10/09/2017 20:20      68.3      67.7       14     17.5      0.00      0.09      74.8     0.34      1013.0     1.1     SSE   155   2.3       N    10   9.14    266      -79.9
   10/09/2017 20:20      68.3      67.7       14     17.5      0.00      0.09      74.8     0.34      1013.0     1.1     SSE   155   2.3       N    10   9.14    266      -79.9
   10/09/2017 20:10      68.7      67.5       15     18.6      0.00      0.09      74.9     0.34      1013.0     2.4      SE   125   3.5      SE   139   9.14    266      -81.5
   10/09/2017 20:10      68.7      67.5       15     18.6      0.00      0.09      74.9     0.34      1013.0     2.4      SE   125   3.5      SE   139   9.14    266      -81.5
   10/09/2017 20:00      70.3      68.4       13     17.2      0.00      0.09      75.0     0.34      1013.0     2.0     SSE   148   2.9     SSE   164   9.14    266      -81.6
   10/09/2017 20:00      70.3      68.4       13     17.2      0.00      0.09      75.0     0.34      1013.0     2.0     SSE   148   2.9     SSE   164   9.14    266      -81.6
   10/09/2017 19:50      71.4      70.5       12     15.1      0.00      0.09      74.9     0.34      1013.0     1.2     SSE   147   2.1       S   172   9.14    266      -83.2
   10/09/2017 19:50      71.4      70.5       12     15.1      0.00      0.09      74.9     0.34      1013.0     1.2     SSE   147   2.1       S   172   9.14    266      -83.2
   10/09/2017 19:40      71.9      70.9       11     14.6      0.00      0.09      74.9     0.34      1013.0     2.4     SSE   162   3.5     SSW   194   9.14    266      -83.3
   10/09/2017 19:40      71.9      70.9       11     14.6      0.00      0.09      74.9     0.34      1013.0     2.4     SSE   162   3.5     SSW   194   9.14    266      -83.3
   10/09/2017 19:30      73.9      72.2       10     12.8      0.00      0.09      74.8     0.34      1013.0     1.6     SSE   163   2.4     ESE   122   9.14    266      -85.1
   10/09/2017 19:30      73.9      72.2       10     12.8      0.00      0.09      74.8     0.34      1013.0     1.6     SSE   163   2.4     ESE   122   9.14    266      -85.1
   10/09/2017 19:20      75.7      74.2        9     12.2      0.00      0.09      74.9     0.34      1013.0     1.8       E    85   3.0      NE    53   9.14    266      -87.9
   10/09/2017 19:20      75.7      74.2        9     12.2      0.00      0.09      74.9     0.34      1013.0     1.8       E    85   3.0      NE    53   9.14    266      -87.9
   10/09/2017 19:10      76.2      75.8        8     11.7      0.00      0.09      74.9     0.34      1013.0     3.6       N   359   7.7       N   355   9.14    266      -90.5
   10/09/2017 19:10      76.2      75.8        8     11.7      0.00      0.09      74.9     0.34      1013.0     3.6       N   359   7.7       N   355   9.14    266      -90.5
   10/09/2017 19:00      76.5      76.0        9     12.2      0.00      0.09      74.8     0.34      1012.0     4.9     NNE    13   9.2       N     4   9.15    266      -91.6
   10/09/2017 19:00      76.5      76.0        9     12.2      0.00      0.09      74.8     0.34      1012.0     4.9     NNE    13   9.2       N     4   9.15    266      -91.6
   10/09/2017 18:50      76.9      76.5        8     12.4      0.00      0.09      74.9     0.34      1012.0     4.0     NNW   346   6.8     NNW   340   9.15    266      -93.0
   10/09/2017 18:50      76.9      76.5        8     12.4      0.00      0.09      74.9     0.34      1012.0     4.0     NNW   346   6.8     NNW   340   9.15    266      -93.0
   10/09/2017 18:40      77.4      76.9        8     12.0      0.00      0.09      74.7     0.34      1012.0     3.0     NNW   342   4.2     NNW   327   9.15    266      -94.1
   10/09/2017 18:40      77.4      76.9        8     12.0      0.00      0.09      74.7     0.34      1012.0     3.0     NNW   342   4.2     NNW   327   9.15    266      -94.1
   10/09/2017 18:30      77.8      77.4        8     11.4      0.00      0.09      74.8     0.34      1012.0     5.8     NNW   338   9.9       N   354   9.15    266      -93.8
   10/09/2017 18:30      77.8      77.4        8     11.4      0.00      0.09      74.8     0.34      1012.0     5.8     NNW   338   9.9       N   354   9.15    266      -93.8
   10/09/2017 18:20      78.3      77.9        8     11.6      0.00      0.09      74.7     0.34      1012.0     6.6     NNW   343  11.3     NNW   328   9.15    266      -90.2
   10/09/2017 18:20      78.3      77.9        8     11.6      0.00      0.09      74.7     0.34      1012.0     6.6     NNW   343  11.3     NNW   328   9.15    266      -90.2
   10/09/2017 18:10      79.0      78.3        8     12.2      0.00      0.09      74.7     0.34      1012.0     4.6     NNW   333   8.1      NW   319   9.15    266      -84.3
   10/09/2017 18:10      79.0      78.3        8     12.2      0.00      0.09      74.7     0.34      1012.0     4.6     NNW   333   8.1      NW   319   9.15    266      -84.3
   10/09/2017 18:00      79.5      79.0        8     11.7      0.00      0.09      74.8     0.34      1012.0     6.6     NNW   335  11.5      NW   324   9.15    266      -76.3
   10/09/2017 18:00      79.5      79.0        8     11.7      0.00      0.09      74.8     0.34      1012.0     6.6     NNW   335  11.5      NW   324   9.15    266      -76.3
   10/09/2017 17:50      79.8      79.5        7     10.8      0.00      0.09      74.7     0.34      1012.0     7.3       N   349  13.1     NNW   342   9.15    266      -68.9
   10/09/2017 17:50      79.8      79.5        7     10.8      0.00      0.09      74.7     0.34      1012.0     7.3       N   349  13.1     NNW   342   9.15    266      -68.9
   10/09/2017 17:40      80.4      80.0        7     10.7      0.00      0.09      74.7     0.34      1012.0     8.5       N   355  16.6     NNE    16   9.16    266      -50.5
   10/09/2017 17:40      80.4      80.0        7     10.7      0.00      0.09      74.7     0.34      1012.0     8.5       N   355  16.6     NNE    16   9.16    266      -50.5
   10/09/2017 17:30      80.8      80.5        7     11.4      0.00      0.09      74.7     0.34      1012.0     7.6       N   351  11.4       N     4   9.16    266      -39.0
   10/09/2017 17:30      80.8      80.5        7     11.4      0.00      0.09      74.7     0.34      1012.0     7.6       N   351  11.4       N     4   9.16    266      -39.0
   10/09/2017 17:20      81.3      80.9        7     11.5      0.00      0.09      74.7     0.33      1012.0    10.1       N   357  14.7     NNW   331   9.16    266      -20.2
   10/09/2017 17:20      81.3      80.9        7     11.5      0.00      0.09      74.7     0.33      1012.0    10.1       N   357  14.7     NNW   331   9.16    266      -20.2
   10/09/2017 17:10      81.6      81.4        7     11.5      0.00      0.09      74.6     0.33      1011.0     9.2     NNW   348  13.8      NW   318   9.16    266        3.1
   10/09/2017 17:10      81.6      81.4        7     11.5      0.00      0.09      74.6     0.33      1011.0     9.2     NNW   348  13.8      NW   318   9.16    266        3.1
   10/09/2017 17:00      82.1      81.7        7     11.3      0.00      0.09      74.6     0.33      1011.0     8.9     NNW   348  14.8     NNW   333   9.16    266       26.1
   10/09/2017 17:00      82.1      81.7        7     11.3      0.00      0.09      74.6     0.33      1011.0     8.9     NNW   348  14.8     NNW   333   9.16    266       26.1
   10/09/2017 16:50      82.4      82.0        7     10.8      0.00      0.09      74.6     0.33      1011.0     9.7     NNW   347  20.3     NNW   343   9.16    266       60.8
   10/09/2017 16:50      82.4      82.0        7     10.8      0.00      0.09      74.6     0.33      1011.0     9.7     NNW   347  20.3     NNW   343   9.16    266       60.8
   10/09/2017 16:40      82.6      82.5        6     10.5      0.00      0.09      74.5     0.33      1011.0    12.3       N   353  18.0       N     6   9.17    265      100.3
   10/09/2017 16:40      82.6      82.5        6     10.5      0.00      0.09      74.5     0.33      1011.0    12.3       N   353  18.0       N     6   9.17    265      100.3
   10/09/2017 16:30      83.0      82.5        6     10.1      0.00      0.09      74.5     0.33      1011.0    10.2       N     0  13.6       N   350   9.17    266      129.6
   10/09/2017 16:30      83.0      82.5        6     10.1      0.00      0.09      74.5     0.33      1011.0    10.2       N     0  13.6       N   350   9.17    266      129.6
   10/09/2017 16:20      83.1      82.5        6      9.6      0.00      0.09      74.5     0.33      1011.0    12.4       N   351  18.6       N     7   9.17    266      152.3
   10/09/2017 16:20      83.1      82.5        6      9.6      0.00      0.09      74.5     0.33      1011.0    12.4       N   351  18.6       N     7   9.17    266      152.3
   10/09/2017 16:10      83.3      83.0        6     10.1      0.00      0.09      74.5     0.33      1011.0    10.5       N   353  13.6       N     6   9.17    266      175.7
   10/09/2017 16:10      83.3      83.0        6     10.1      0.00      0.09      74.5     0.33      1011.0    10.5       N   353  13.6       N     6   9.17    266      175.7
   10/09/2017 16:00      83.6      83.2        6     10.0      0.00      0.09      74.6     0.33      1011.0    12.6       N   355  22.2     NNW   347   9.17    266      188.7
   10/09/2017 16:00      83.6      83.2        6     10.0      0.00      0.09      74.6     0.33      1011.0    12.6       N   355  22.2     NNW   347   9.17    266      188.7
   10/09/2017 15:50      83.3      83.0        6      9.9      0.00      0.09      74.5     0.33      1011.0    11.6       N   355  15.7       N     1   9.17    267      205.4
   10/09/2017 15:50      83.3      83.0        6      9.9      0.00      0.09      74.5     0.33      1011.0    11.6       N   355  15.7       N     1   9.17    267      205.4
   10/09/2017 15:40      83.6      83.3        6     10.3      0.00      0.09      74.4     0.33      1011.0    11.1       N   351  17.7       N     7   9.18    267      223.1
   10/09/2017 15:40      83.6      83.3        6     10.3      0.00      0.09      74.4     0.33      1011.0    11.1       N   351  17.7       N     7   9.18    267      223.1
   10/09/2017 15:30      83.6      83.1        6      9.8      0.00      0.09      74.6     0.33      1011.0    12.9       N   359  20.6     NNW   348   9.18    267      248.0
   10/09/2017 15:30      83.6      83.1        6      9.8      0.00      0.09      74.6     0.33      1011.0    12.9       N   359  20.6     NNW   348   9.18    267      248.0
   10/09/2017 15:20      83.2      82.7        6      9.7      0.00      0.09      74.4     0.33      1011.0    12.3       N   351  16.8      NW   319   9.18    267      268.6
   10/09/2017 15:20      83.2      82.7        6      9.7      0.00      0.09      74.4     0.33      1011.0    12.3       N   351  16.8      NW   319   9.18    267      268.6
   10/09/2017 15:10      83.5      83.2        6      9.9      0.00      0.09      74.5     0.33      1011.0    14.1       N     4  18.5       N   359   9.18    268      292.2
   10/09/2017 15:10      83.5      83.2        6      9.9      0.00      0.09      74.5     0.33      1011.0    14.1       N     4  18.5       N   359   9.18    268      292.2
   10/09/2017 15:00      83.7      83.2        6     10.6      0.00      0.09      74.4     0.33      1011.0    12.1       N     7  22.6     NNE    21   9.18    269      318.1
   10/09/2017 15:00      83.7      83.2        6     10.6      0.00      0.09      74.4     0.33      1011.0    12.1       N     7  22.6     NNE    21   9.18    269      318.1
   10/09/2017 14:50      83.7      82.7        7     11.8      0.00      0.09      74.4     0.33      1011.0    10.5     NNW   347  19.5       N   351   9.18    269      335.3
   10/09/2017 14:50      83.7      82.7        7     11.8      0.00      0.09      74.4     0.33      1011.0    10.5     NNW   347  19.5       N   351   9.18    269      335.3
   10/09/2017 14:40      83.3      82.5        7     11.6      0.00      0.09      74.4     0.33      1012.0    13.0       N   355  21.3     NNW   342   9.18    270      352.0
   10/09/2017 14:40      83.3      82.5        7     11.6      0.00      0.09      74.4     0.33      1012.0    13.0       N   355  21.3     NNW   342   9.18    270      352.0
   10/09/2017 14:30      83.3      82.8        7     11.6      0.00      0.09      74.5     0.33      1012.0    12.7       N   359  19.0       N    11   9.18    271      364.9
   10/09/2017 14:30      83.3      82.8        7     11.6      0.00      0.09      74.5     0.33      1012.0    12.7       N   359  19.0       N    11   9.18    271      364.9
   10/09/2017 14:20      83.9      82.9        7     12.4      0.00      0.09      74.2     0.33      1012.0     9.2       N     4  15.1       N    11   9.18    272      375.6
   10/09/2017 14:20      83.9      82.9        7     12.4      0.00      0.09      74.2     0.33      1012.0     9.2       N     4  15.1       N    11   9.18    272      375.6
   10/09/2017 14:10      83.3      82.4        7     12.3      0.00      0.09      74.3     0.33      1012.0    13.4     NNW   337  20.5      NW   315   9.18    272      388.2
   10/09/2017 14:10      83.3      82.4        7     12.3      0.00      0.09      74.3     0.33      1012.0    13.4     NNW   337  20.5      NW   315   9.18    272      388.2
   10/09/2017 14:00      83.2      82.5        7     12.2      0.00      0.09      74.5     0.33      1012.0    12.8       N   359  19.4     NNW   345   9.18    273      399.6
   10/09/2017 14:00      83.2      82.5        7     12.2      0.00      0.09      74.5     0.33      1012.0    12.8       N   359  19.4     NNW   345   9.18    273      399.6
   10/09/2017 13:50      83.4      82.4        7     12.7      0.00      0.09      74.3     0.33      1012.0    11.6       N   349  18.7       N   353   9.18    274      407.3
   10/09/2017 13:50      83.4      82.4        7     12.7      0.00      0.09      74.3     0.33      1012.0    11.6       N   349  18.7       N   353   9.18    274      407.3
   10/09/2017 13:40      82.5      82.3        7     12.7      0.00      0.09      74.3     0.33      1012.0    12.1       N   357  16.9     NNW   344   9.18    274      420.7
   10/09/2017 13:40      82.5      82.3        7     12.7      0.00      0.09      74.3     0.33      1012.0    12.1       N   357  16.9     NNW   344   9.18    274      420.7
   10/09/2017 13:30      82.8      82.1        7     13.4      0.00      0.09      74.3     0.33      1012.0    11.5       N     2  22.4     NNE    12   9.18    276      429.6
   10/09/2017 13:30      82.8      82.1        7     13.4      0.00      0.09      74.3     0.33      1012.0    11.5       N     2  22.4     NNE    12   9.18    276      429.6
   10/09/2017 13:20      82.2      81.3        8     13.5      0.00      0.09      74.6     0.33      1012.0    11.7       N     2  17.1       N     4   9.18    277      435.9
   10/09/2017 13:20      82.2      81.3        8     13.5      0.00      0.09      74.6     0.33      1012.0    11.7       N     2  17.1       N     4   9.18    277      435.9
   10/09/2017 13:10      81.9      81.0        8     14.2      0.00      0.09      74.5     0.33      1012.0    10.6       N     5  15.9       N   353   9.18    278      439.9
   10/09/2017 13:10      81.9      81.0        8     14.2      0.00      0.09      74.5     0.33      1012.0    10.6       N     5  15.9       N   353   9.18    278      439.9
   10/09/2017 13:00      81.1      80.3        8     13.8      0.00      0.09      74.3     0.33      1013.0    10.2     NNW   344  20.4     NNW   340   9.18    280      445.3
   10/09/2017 13:00      81.1      80.3        8     13.8      0.00      0.09      74.3     0.33      1013.0    10.2     NNW   344  20.4     NNW   340   9.18    280      445.3
   10/09/2017 12:50      80.4      79.9        8     13.8      0.00      0.09      74.4     0.33      1013.0    12.1       N   349  17.1       N   352   9.18    281      449.4
   10/09/2017 12:50      80.4      79.9        8     13.8      0.00      0.09      74.4     0.33      1013.0    12.1       N   349  17.1       N   352   9.18    281      449.4
   10/09/2017 12:40      79.9      79.6        8     13.6      0.00      0.09      74.2     0.33      1013.0    12.6       N   360  18.4     NNE    14   9.18    282      451.6
   10/09/2017 12:40      79.9      79.6        8     13.6      0.00      0.09      74.2     0.33      1013.0    12.6       N   360  18.4     NNE    14   9.18    282      451.6
   10/09/2017 12:30      79.9      79.2        8     13.7      0.00      0.09      74.3     0.33      1013.0    13.1       N   357  28.1       N   352   9.18    283      451.3
   10/09/2017 12:30      79.9      79.2        8     13.7      0.00      0.09      74.3     0.33      1013.0    13.1       N   357  28.1       N   352   9.18    283      451.3
   10/09/2017 12:20      79.5      78.8        8     13.6      0.00      0.09      74.2     0.33      1013.0    13.1       N     3  22.6       N     0   9.18    284      447.1
   10/09/2017 12:20      79.5      78.8        8     13.6      0.00      0.09      74.2     0.33      1013.0    13.1       N     3  22.6       N     0   9.18    284      447.1
   10/09/2017 12:10      78.8      77.8        8     13.0      0.00      0.09      74.8     0.33      1013.0    14.3       N   359  18.6       N   355   9.18    286      451.1
   10/09/2017 12:10      78.8      77.8        8     13.0      0.00      0.09      74.8     0.33      1013.0    14.3       N   359  18.6       N   355   9.18    286      451.1
   10/09/2017 12:00      78.3      77.6        8     12.4      0.00      0.09      74.5     0.33      1013.0    17.4       N   360  25.4       N     4   9.18    289      445.4
   10/09/2017 12:00      78.3      77.6        8     12.4      0.00      0.09      74.5     0.33      1013.0    17.4       N   360  25.4       N     4   9.18    289      445.4
   10/09/2017 11:50      77.9      77.6        8     12.5      0.00      0.09      74.5     0.33      1013.0    16.8       N     3  22.7       N   350   9.18    291      440.6
   10/09/2017 11:50      77.9      77.6        8     12.5      0.00      0.09      74.5     0.33      1013.0    16.8       N     3  22.7       N   350   9.18    291      440.6
   10/09/2017 11:40      77.8      77.2        8     12.2      0.00      0.09      74.7     0.33      1013.0    14.6       N     0  25.4     NNE    19   9.18    295      433.3
   10/09/2017 11:40      77.8      77.2        8     12.2      0.00      0.09      74.7     0.33      1013.0    14.6       N     0  25.4     NNE    19   9.18    295      433.3
   10/09/2017 11:30      77.6      77.0        8     12.2      0.00      0.09      74.5     0.33      1013.0    13.6     NNW   344  22.0       N   351   9.18    300      425.4
   10/09/2017 11:30      77.6      77.0        8     12.2      0.00      0.09      74.5     0.33      1013.0    13.6     NNW   344  22.0       N   351   9.18    300      425.4
   10/09/2017 11:20      77.2      76.9        8     11.7      0.00      0.09      74.5     0.33      1013.0    15.7       N   350  21.1       N    10   9.18    305      417.8
   10/09/2017 11:20      77.2      76.9        8     11.7      0.00      0.09      74.5     0.33      1013.0    15.7       N   350  21.1       N    10   9.18    305      417.8
   10/09/2017 11:10      77.1      76.5        8     11.1      0.00      0.09      74.7     0.33      1013.0    14.1       N   358  19.6     NNE    19   9.18    312      402.9
   10/09/2017 11:10      77.1      76.5        8     11.1      0.00      0.09      74.7     0.33      1013.0    14.1       N   358  19.6     NNE    19   9.18    312      402.9
   10/09/2017 11:00      76.7      76.2        8     11.7      0.00      0.09      74.5     0.33      1013.0    13.2       N   356  21.6       N     2   9.18    319      388.9
   10/09/2017 11:00      76.7      76.2        8     11.7      0.00      0.09      74.5     0.33      1013.0    13.2       N   356  21.6       N     2   9.18    319      388.9
   10/09/2017 10:50      76.8      76.1        8     11.9      0.00      0.09      74.7     0.33      1013.0    13.5       N   358  20.1       N   355   9.18    327      379.3
   10/09/2017 10:50      76.8      76.1        8     11.9      0.00      0.09      74.7     0.33      1013.0    13.5       N   358  20.1       N   355   9.18    327      379.3
   10/09/2017 10:40      76.7      76.1        9     12.5      0.00      0.09      74.5     0.34      1013.0    13.5       N   349  18.1      NW   326   9.18    341      366.6
   10/09/2017 10:40      76.7      76.1        9     12.5      0.00      0.09      74.5     0.34      1013.0    13.5       N   349  18.1      NW   326   9.18    341      366.6
   10/09/2017 10:30      76.5      76.1        9     13.6      0.00      0.09      74.9     0.34      1013.0    12.9     NNW   348  20.3       N   357   9.18    360      351.5
   10/09/2017 10:30      76.5      76.1        9     13.6      0.00      0.09      74.9     0.34      1013.0    12.9     NNW   348  20.3       N   357   9.18    360      351.5
   10/09/2017 10:20      76.1      75.7       10     14.4      0.00      0.09      74.5     0.34      1013.0    10.6     NNW   345  17.7     NNW   343   9.18    389      337.0
   10/09/2017 10:20      76.1      75.7       10     14.4      0.00      0.09      74.5     0.34      1013.0    10.6     NNW   345  17.7     NNW   343   9.18    389      337.0
   10/09/2017 10:10      75.8      75.5       11     16.8      0.00      0.09      74.8     0.34      1013.0     8.5       N     2  11.3       N     8   9.18    431      320.2
   10/09/2017 10:10      75.8      75.5       11     16.8      0.00      0.09      74.8     0.34      1013.0     8.5       N     2  11.3       N     8   9.18    431      320.2
   10/09/2017 10:00      75.7      74.5       27     38.3      0.00      0.09      74.3     0.34      1013.0     2.8      NE    39   7.2     NNE    23   9.18    458      303.8
   10/09/2017 10:00      75.7      74.5       27     38.3      0.00      0.09      74.3     0.34      1013.0     2.8      NE    39   7.2     NNE    23   9.18    458      303.8
   10/09/2017 09:50      74.9      73.9       31     41.7      0.00      0.09      74.7     0.34      1013.0     2.1     ENE    61   2.6      NE    51   9.18    478      288.3
   10/09/2017 09:50      74.9      73.9       31     41.7      0.00      0.09      74.7     0.34      1013.0     2.1     ENE    61   2.6      NE    51   9.18    478      288.3
   10/09/2017 09:40      73.9      72.2       33     42.0      0.00      0.09      74.7     0.34      1013.0     1.2       N     3   2.6     NNE    27   9.18    500      270.6
   10/09/2017 09:40      73.9      72.2       33     42.0      0.00      0.09      74.7     0.34      1013.0     1.2       N     3   2.6     NNE    27   9.18    500      270.6
   10/09/2017 09:30      72.4      71.2       39     45.5      0.00      0.09      74.9     0.34      1013.0     2.2       E    85   4.0       E    88   9.18    522      251.2
   10/09/2017 09:30      72.4      71.2       39     45.5      0.00      0.09      74.9     0.34      1013.0     2.2       E    85   4.0       E    88   9.18    522      251.2
   10/09/2017 09:20      71.2      69.8       43     47.2      0.00      0.09      74.9     0.34      1013.0     1.5     ENE    68   2.7     NNE    20   9.18    535      231.4
   10/09/2017 09:20      71.2      69.8       43     47.2      0.00      0.09      74.9     0.34      1013.0     1.5     ENE    68   2.7     NNE    20   9.18    535      231.4
   10/09/2017 09:10      70.0      69.2       46     47.9      0.00      0.09      74.8     0.34      1013.0     1.9     NNE    28   3.2      NE    41   9.18    549      214.5
   10/09/2017 09:10      70.0      69.2       46     47.9      0.00      0.09      74.8     0.34      1013.0     1.9     NNE    28   3.2      NE    41   9.18    549      214.5
   10/09/2017 09:00      69.4      68.3       48     48.4      0.00      0.09      75.2     0.34      1013.0     2.2       E    85   3.3       E    83   9.18    567      192.2
   10/09/2017 09:00      69.4      68.3       48     48.4      0.00      0.09      75.2     0.34      1013.0     2.2       E    85   3.3       E    83   9.18    567      192.2
   10/09/2017 08:50      68.0      66.4       51     48.5      0.00      0.09      75.6     0.34      1013.0     1.7       E    90   4.2     SSE   165   9.18    602      164.4
   10/09/2017 08:50      68.0      66.4       51     48.5      0.00      0.09      75.6     0.34      1013.0     1.7       E    90   4.2     SSE   165   9.18    602      164.4
   10/09/2017 08:40      66.3      64.2       57     49.6      0.00      0.09      75.0     0.34      1013.0     1.6     SSE   155   2.7     SSE   160   9.18    667      125.5
   10/09/2017 08:40      66.3      64.2       57     49.6      0.00      0.09      75.0     0.34      1013.0     1.6     SSE   155   2.7     SSE   160   9.18    667      125.5
   10/09/2017 08:30      63.9      62.5       70     53.2      0.00      0.09      74.8     0.34      1013.0     2.4     SSE   154   3.1      SE   139   9.18    678      116.6
   10/09/2017 08:30      63.9      62.5       70     53.2      0.00      0.09      74.8     0.34      1013.0     2.4     SSE   154   3.1      SE   139   9.18    678      116.6
   10/09/2017 08:20      62.6      60.8       75     53.9      0.00      0.09      74.9     0.34      1012.0     1.0     SSE   149   2.5      SE   132   9.18    691      102.9
   10/09/2017 08:20      62.6      60.8       75     53.9      0.00      0.09      74.9     0.34      1012.0     1.0     SSE   149   2.5      SE   132   9.18    691      102.9
   10/09/2017 08:10      60.6      58.5       81     53.9      0.00      0.09      74.8     0.34      1012.0     1.5     WSW   257   3.2     SSW   202   9.18    660       89.8
   10/09/2017 08:10      60.6      58.5       81     53.9      0.00      0.09      74.8     0.34      1012.0     1.5     WSW   257   3.2     SSW   202   9.18    660       89.8
   10/09/2017 08:00      58.5      57.0       86     53.7      0.00      0.09      75.0     0.34      1012.0     2.1     ENE    60   3.3      NW   306   8.02    273       74.5
   10/09/2017 08:00      58.5      57.0       86     53.7      0.00      0.09      75.0     0.34      1012.0     2.1     ENE    60   3.3      NW   306   8.02    273       74.5
   10/09/2017 07:50      57.0      55.4       89     52.9      0.00      0.09      75.0     0.34      1012.0     1.7      SE   137   3.0     SSE   155   8.02    273       47.3
   10/09/2017 07:50      57.0      55.4       89     52.9      0.00      0.09      75.0     0.34      1012.0     1.7      SE   137   3.0     SSE   155   8.02    273       47.3
   10/09/2017 07:40      55.5      54.4       90     52.3      0.00      0.09      75.0     0.34      1012.0     1.8     SSE   165   2.9      SE   132   8.02    273        9.5
   10/09/2017 07:40      55.5      54.4       90     52.3      0.00      0.09      75.0     0.34      1012.0     1.8     SSE   165   2.9      SE   132   8.02    273        9.5
   10/09/2017 07:30      54.6      53.8       91     51.6      0.00      0.09      75.1     0.34      1012.0     1.5      SW   217   2.1      SW   229   8.02    273       -0.9
   10/09/2017 07:30      54.6      53.8       91     51.6      0.00      0.09      75.1     0.34      1012.0     1.5      SW   217   2.1      SW   229   8.02    273       -0.9
   10/09/2017 07:20      54.0      53.6       91     51.1      0.00      0.09      75.0     0.34      1012.0     2.1      SE   139   3.2      SE   126   8.02    273      -10.8
   10/09/2017 07:20      54.0      53.6       91     51.1      0.00      0.09      75.0     0.34      1012.0     2.1      SE   139   3.2      SE   126   8.02    273      -10.8
   10/09/2017 07:10      54.1      53.6       90     51.1      0.00      0.09      75.4     0.34      1012.0     2.2     SSE   157   2.9      SE   138   8.02    273      -18.9
   10/09/2017 07:10      54.1      53.6       90     51.1      0.00      0.09      75.4     0.34      1012.0     2.2     SSE   157   2.9      SE   138   8.02    273      -18.9
   10/09/2017 07:00      54.3      54.1       90     51.4      0.00      0.09      75.3     0.34      1012.0     0.6     SSE   165   1.1     SSE   154   8.02    273      -24.9
   10/09/2017 07:00      54.3      54.1       90     51.4      0.00      0.09      75.3     0.34      1012.0     0.6     SSE   165   1.1     SSE   154   8.02    273      -24.9
   10/09/2017 06:50      54.7      54.1       90     51.6      0.00      0.09      75.1     0.34      1012.0     1.4     SSE   163   1.8       S   178   8.02    273      -28.0
   10/09/2017 06:50      54.7      54.1       90     51.6      0.00      0.09      75.1     0.34      1012.0     1.4     SSE   163   1.8       S   178   8.02    273      -28.0
   10/09/2017 06:40      54.3      54.0       90     51.2      0.00      0.09      75.2     0.34      1012.0     1.5      SE   138   2.8     SSE   150   8.02    272      -31.3
   10/09/2017 06:40      54.3      54.0       90     51.2      0.00      0.09      75.2     0.34      1012.0     1.5      SE   138   2.8     SSE   150   8.02    272      -31.3
   10/09/2017 06:30      54.8      54.0       90     51.5      0.00      0.09      75.1     0.34      1012.0     2.1     ESE   123   4.0      SE   146   8.02    273      -32.3
   10/09/2017 06:30      54.8      54.0       90     51.5      0.00      0.09      75.1     0.34      1012.0     2.1     ESE   123   4.0      SE   146   8.02    273      -32.3
   10/09/2017 06:20      54.6      54.4       90     51.6      0.00      0.09      75.1     0.34      1011.0     1.6      SE   143   3.0      SE   143   8.02    273      -33.7
   10/09/2017 06:20      54.6      54.4       90     51.6      0.00      0.09      75.1     0.34      1011.0     1.6      SE   143   3.0      SE   143   8.02    273      -33.7
   10/09/2017 06:10      55.0      54.5       90     51.7      0.00      0.09      75.5     0.34      1011.0     2.3     SSE   168   4.1     SSE   167   8.02    273      -33.4
   10/09/2017 06:10      55.0      54.5       90     51.7      0.00      0.09      75.5     0.34      1011.0     2.3     SSE   168   4.1     SSE   167   8.02    273      -33.4
   10/09/2017 06:00      55.3      54.8       89     52.0      0.00      0.09      74.9     0.34      1011.0     1.5     SSE   162   3.3     SSE   160   8.02    272      -35.1
   10/09/2017 06:00      55.3      54.8       89     52.0      0.00      0.09      74.9     0.34      1011.0     1.5     SSE   162   3.3     SSE   160   8.02    272      -35.1
   10/09/2017 05:50      55.4      55.1       89     52.1      0.00      0.09      75.2     0.34      1011.0     1.4       S   181   2.4     SSE   151   8.02    272      -36.2
   10/09/2017 05:50      55.4      55.1       89     52.1      0.00      0.09      75.2     0.34      1011.0     1.4       S   181   2.4     SSE   151   8.02    272      -36.2
   10/09/2017 05:40      55.6      55.1       89     52.2      0.00      0.09      75.1     0.34      1011.0     1.4     SSE   155   2.3       S   172   8.02    272      -37.9
   10/09/2017 05:40      55.6      55.1       89     52.2      0.00      0.09      75.1     0.34      1011.0     1.4     SSE   155   2.3       S   172   8.02    272      -37.9
   10/09/2017 05:30      56.1      55.6       89     52.6      0.00      0.09      75.2     0.34      1011.0     1.0       S   188   1.6     SSW   192   8.02    272      -39.4
   10/09/2017 05:30      56.1      55.6       89     52.6      0.00      0.09      75.2     0.34      1011.0     1.0       S   188   1.6     SSW   192   8.02    272      -39.4
   10/09/2017 05:20      55.6      55.5       88     52.2      0.00      0.09      75.2     0.34      1011.0     0.9     SSW   204   1.6      SE   142   8.02    272      -41.7
   10/09/2017 05:20      55.6      55.5       88     52.2      0.00      0.09      75.2     0.34      1011.0     0.9     SSW   204   1.6      SE   142   8.02    272      -41.7
   10/09/2017 05:10      56.0      55.6       88     52.5      0.00      0.09      75.1     0.34      1011.0     1.5     SSE   156   2.7      SE   146   8.02    272      -43.5
   10/09/2017 05:10      56.0      55.6       88     52.5      0.00      0.09      75.1     0.34      1011.0     1.5     SSE   156   2.7      SE   146   8.02    272      -43.5
   10/09/2017 05:00      56.5      56.0       88     52.7      0.00      0.09      75.1     0.34      1011.0     1.3     SSE   157   2.5     SSE   148   8.03    272      -46.6
   10/09/2017 05:00      56.5      56.0       88     52.7      0.00      0.09      75.1     0.34      1011.0     1.3     SSE   157   2.5     SSE   148   8.03    272      -46.6
   10/09/2017 04:50      56.5      56.3       88     52.8      0.00      0.09      75.1     0.34      1011.0     0.6     SSW   196   1.3      SE   141   8.03    272      -49.0
   10/09/2017 04:50      56.5      56.3       88     52.8      0.00      0.09      75.1     0.34      1011.0     0.6     SSW   196   1.3      SE   141   8.03    272      -49.0
   10/09/2017 04:40      57.1      56.7       87     53.2      0.00      0.09      75.3     0.34      1011.0     1.0     SSE   152   1.6     SSE   165   8.03    272      -49.5
   10/09/2017 04:40      57.1      56.7       87     53.2      0.00      0.09      75.3     0.34      1011.0     1.0     SSE   152   1.6     SSE   165   8.03    272      -49.5
   10/09/2017 04:30      57.5      57.2       87     53.4      0.00      0.09      75.2     0.34      1010.0     0.5      NE    52   0.8      NE    35   8.03    272      -53.9
   10/09/2017 04:30      57.5      57.2       87     53.4      0.00      0.09      75.2     0.34      1010.0     0.5      NE    52   0.8      NE    35   8.03    272      -53.9
   10/09/2017 04:20      57.8      57.4       86     53.5      0.00      0.09      75.4     0.34      1010.0     0.9     ESE   103   1.3     ESE   120   8.03    272      -53.6
   10/09/2017 04:20      57.8      57.4       86     53.5      0.00      0.09      75.4     0.34      1010.0     0.9     ESE   103   1.3     ESE   120   8.03    272      -53.6
   10/09/2017 04:10      57.9      57.6       86     53.5      0.00      0.09      75.6     0.34      1010.0     1.9      SE   143   2.3     SSE   149   8.03    272      -52.5
   10/09/2017 04:10      57.9      57.6       86     53.5      0.00      0.09      75.6     0.34      1010.0     1.9      SE   143   2.3     SSE   149   8.03    272      -52.5
   10/09/2017 04:00      57.9      57.6       85     53.3      0.00      0.09      75.4     0.34      1010.0     2.2      SE   138   2.8      SE   138   8.03    272      -59.4
   10/09/2017 04:00      57.9      57.6       85     53.3      0.00      0.09      75.4     0.34      1010.0     2.2      SE   138   2.8      SE   138   8.03    272      -59.4
   10/09/2017 03:50      58.7      58.1       83     53.5      0.00      0.09      75.2     0.34      1010.0     2.5     SSE   153   2.9     SSE   148   8.03    272      -63.8
   10/09/2017 03:50      58.7      58.1       83     53.5      0.00      0.09      75.2     0.34      1010.0     2.5     SSE   153   2.9     SSE   148   8.03    272      -63.8
   10/09/2017 03:40      59.6      58.9       82     53.9      0.00      0.09      75.4     0.34      1010.0     1.8       S   184   2.0       S   179   8.03    272      -63.8
   10/09/2017 03:40      59.6      58.9       82     53.9      0.00      0.09      75.4     0.34      1010.0     1.8       S   184   2.0       S   179   8.03    272      -63.8
   10/09/2017 03:30      60.7      59.9       81     54.3      0.00      0.09      75.4     0.34      1010.0     1.2      SE   146   1.5     SSE   156   8.03    272      -63.9
   10/09/2017 03:30      60.7      59.9       81     54.3      0.00      0.09      75.4     0.34      1010.0     1.2      SE   146   1.5     SSE   156   8.03    272      -63.9
   10/09/2017 03:20      61.3      60.8       79     54.4      0.00      0.09      75.3     0.34      1010.0     0.5       E    96   1.0       S   170   8.03    272      -66.0
   10/09/2017 03:20      61.3      60.8       79     54.4      0.00      0.09      75.3     0.34      1010.0     0.5       E    96   1.0       S   170   8.03    272      -66.0
   10/09/2017 03:10      62.2      61.6       78     55.0      0.00      0.09      75.5     0.34      1010.0     1.8     ESE   104   2.3     ESE   103   8.03    272      -65.8
   10/09/2017 03:10      62.2      61.6       78     55.0      0.00      0.09      75.5     0.34      1010.0     1.8     ESE   104   2.3     ESE   103   8.03    272      -65.8
   10/09/2017 03:00      62.5      62.2       78     55.2      0.00      0.09      75.4     0.34      1010.0     2.0       E    98   2.7     ENE    69   8.03    272      -56.5
   10/09/2017 03:00      62.5      62.2       78     55.2      0.00      0.09      75.4     0.34      1010.0     2.0       E    98   2.7     ENE    69   8.03    272      -56.5
   10/09/2017 02:50      62.5      62.3       78     55.5      0.00      0.09      75.5     0.34      1010.0     2.1       E    96   3.0       E    86   8.03    272      -41.9
   10/09/2017 02:50      62.5      62.3       78     55.5      0.00      0.09      75.5     0.34      1010.0     2.1       E    96   3.0       E    86   8.03    272      -41.9
   10/09/2017 02:40      62.7      62.5       78     55.7      0.00      0.09      75.4     0.34      1010.0     1.7     ESE   108   2.3      SE   127   8.03    273      -30.7
   10/09/2017 02:40      62.7      62.5       78     55.7      0.00      0.09      75.4     0.34      1010.0     1.7     ESE   108   2.3      SE   127   8.03    273      -30.7
   10/09/2017 02:30      62.9      62.7       78     55.8      0.00      0.09      75.5     0.34      1010.0     1.6     ESE   119   2.7      SE   128   8.03    272      -29.8
   10/09/2017 02:30      62.9      62.7       78     55.8      0.00      0.09      75.5     0.34      1010.0     1.6     ESE   119   2.7      SE   128   8.03    272      -29.8
   10/09/2017 02:20      62.9      62.7       78     55.8      0.00      0.09      75.4     0.34      1010.0     1.9       E    97   2.3     ENE    68   8.03    272      -24.3
   10/09/2017 02:20      62.9      62.7       78     55.8      0.00      0.09      75.4     0.34      1010.0     1.9       E    97   2.3     ENE    68   8.03    272      -24.3
   10/09/2017 02:10      63.0      62.8       78     55.8      0.00      0.09      75.5     0.34      1010.0     2.2     ESE   116   3.5      SE   127   8.03    272      -44.7
   10/09/2017 02:10      63.0      62.8       78     55.8      0.00      0.09      75.5     0.34      1010.0     2.2     ESE   116   3.5      SE   127   8.03    272      -44.7
   10/09/2017 02:00      63.1      62.8       78     55.9      0.00      0.09      75.5     0.34      1010.0     1.2       E    89   2.0       E    82   8.03    272      -14.1
   10/09/2017 02:00      63.1      62.8       78     55.9      0.00      0.09      75.5     0.34      1010.0     1.2       E    89   2.0       E    82   8.03    272      -14.1
   10/09/2017 01:50      63.0      62.8       78     56.0      0.00      0.09      75.6     0.34      1010.0     1.7     ESE   102   2.5       E    86   8.03    272      -16.7
   10/09/2017 01:50      63.0      62.8       78     56.0      0.00      0.09      75.6     0.34      1010.0     1.7     ESE   102   2.5       E    86   8.03    272      -16.7
   10/09/2017 01:40      63.0      62.8       78     56.0      0.00      0.09      75.5     0.34      1010.0     2.4     ESE   102   3.5     ESE   113   8.03    272      -17.0
   10/09/2017 01:40      63.0      62.8       78     56.0      0.00      0.09      75.5     0.34      1010.0     2.4     ESE   102   3.5     ESE   113   8.03    272      -17.0
   10/09/2017 01:30      63.0      62.7       78     55.9      0.00      0.09      75.5     0.34      1010.0     1.5     ESE   111   2.8      SE   144   8.03    272      -16.3
   10/09/2017 01:30      63.0      62.7       78     55.9      0.00      0.09      75.5     0.34      1010.0     1.5     ESE   111   2.8      SE   144   8.03    272      -16.3
   10/09/2017 01:20      62.9      62.6       79     56.1      0.00      0.09      75.5     0.34      1009.0     2.5       E    94   4.3      SE   141   8.03    272      -13.8
   10/09/2017 01:20      62.9      62.6       79     56.1      0.00      0.09      75.5     0.34      1009.0     2.5       E    94   4.3      SE   141   8.03    272      -13.8
   10/09/2017 01:10      62.8      62.5       79     56.1      0.00      0.09      75.6     0.34      1009.0     2.3       E    93   3.9       E    98   8.04    272      -13.0
   10/09/2017 01:10      62.8      62.5       79     56.1      0.00      0.09      75.6     0.34      1009.0     2.3       E    93   3.9       E    98   8.04    272      -13.0
   10/09/2017 01:00      62.9      62.6       79     56.2      0.00      0.09      75.5     0.34      1009.0     1.8     ENE    62   4.2     ENE    74   8.04    272      -20.1
   10/09/2017 01:00      62.9      62.6       79     56.2      0.00      0.09      75.5     0.34      1009.0     1.8     ENE    62   4.2     ENE    74   8.04    272      -20.1
   10/09/2017 00:50      62.8      62.5       80     56.2      0.00      0.09      75.7     0.34      1009.0     1.6      NE    48   4.6     ENE    72   8.04    272      -23.5
   10/09/2017 00:50      62.8      62.5       80     56.2      0.00      0.09      75.7     0.34      1009.0     1.6      NE    48   4.6     ENE    72   8.04    272      -23.5
   10/09/2017 00:40      62.9      62.4       80     56.3      0.00      0.09      75.6     0.34      1009.0     1.9       E    88   5.3      SE   136   8.04    272      -16.5
   10/09/2017 00:40      62.9      62.4       80     56.3      0.00      0.09      75.6     0.34      1009.0     1.9       E    88   5.3      SE   136   8.04    272      -16.5
   10/09/2017 00:30      62.6      62.3       80     56.3      0.00      0.09      75.5     0.34      1009.0     1.7     ENE    63   2.6      NE    40   8.04    272      -12.6
   10/09/2017 00:30      62.6      62.3       80     56.3      0.00      0.09      75.5     0.34      1009.0     1.7     ENE    63   2.6      NE    40   8.04    272      -12.6
   10/09/2017 00:20      62.4      62.1       81     56.3      0.00      0.09      75.8     0.34      1009.0     2.4       E    93   4.3       E    96   8.04    271      -12.4
   10/09/2017 00:20      62.4      62.1       81     56.3      0.00      0.09      75.8     0.34      1009.0     2.4       E    93   4.3       E    96   8.04    271      -12.4
   10/09/2017 00:10      62.4      62.1       81     56.2      0.00      0.09      75.7     0.34      1009.0     3.4      SE   128   5.5      SE   124   8.04    271      -14.8
   10/09/2017 00:10      62.4      62.1       81     56.2      0.00      0.09      75.7     0.34      1009.0     3.4      SE   128   5.5      SE   124   8.04    271      -14.8
   10/09/2017 00:00      62.3      61.7       81     56.1      0.00      0.09      75.6     0.34      1009.0     2.0       E    98   3.5       E    83   8.04    271      -12.5
   10/09/2017 00:00      62.3      61.7       81     56.1      0.00      0.09      75.6     0.34      1009.0     2.0       E    98   3.5       E    83   8.04    271      -12.5
   10/08/2017 23:50      61.8      61.1       83     56.2      0.00      0.09      75.6     0.34      1009.0     2.3     ESE   120   3.2       E    84   8.05    271      -22.9
   10/08/2017 23:50      61.8      61.1       83     56.2      0.00      0.09      75.6     0.34      1009.0     2.3     ESE   120   3.2       E    84   8.05    271      -22.9
   10/08/2017 23:40      61.1      60.0       85     56.0      0.00      0.09      75.4     0.34      1009.0     2.0     ESE   102   3.6     ENE    73   8.05    271       -8.3
   10/08/2017 23:40      61.1      60.0       85     56.0      0.00      0.09      75.4     0.34      1009.0     2.0     ESE   102   3.6     ENE    73   8.05    271       -8.3
   10/08/2017 23:30      59.9      59.0       85     54.8      0.00      0.09      75.4     0.34      1009.0     1.6       E    94   2.6       E    93   8.05    271      -13.6
   10/08/2017 23:30      59.9      59.0       85     54.8      0.00      0.09      75.4     0.34      1009.0     1.6       E    94   2.6       E    93   8.05    271      -13.6
   10/08/2017 23:20      59.2      58.7       84     54.2      0.00      0.09      75.8     0.34      1009.0     0.6       E    91   1.1     ESE   108   8.05    270      -48.9
   10/08/2017 23:20      59.2      58.7       84     54.2      0.00      0.09      75.8     0.34      1009.0     0.6       E    91   1.1     ESE   108   8.05    270      -48.9
   10/08/2017 23:10      59.4      58.9       84     54.2      0.00      0.09      75.7     0.34      1009.0     1.1     ESE   116   1.4      SE   132   8.06    270      -57.2
   10/08/2017 23:10      59.4      58.9       84     54.2      0.00      0.09      75.7     0.34      1009.0     1.1     ESE   116   1.4      SE   132   8.06    270      -57.2
   10/08/2017 23:00      59.6      58.9       82     54.0      0.00      0.09      75.5     0.34      1009.0     1.2     SSW   212   1.8      SW   216   8.06    270      -60.8
   10/08/2017 23:00      59.6      58.9       82     54.0      0.00      0.09      75.5     0.34      1009.0     1.2     SSW   212   1.8      SW   216   8.06    270      -60.8
   10/08/2017 22:50      59.9      59.7       83     54.7      0.00      0.09      75.6     0.34      1009.0     0.8     SSE   164   1.3     SSW   200   8.06    270      -59.6
   10/08/2017 22:50      59.9      59.7       83     54.7      0.00      0.09      75.6     0.34      1009.0     0.8     SSE   164   1.3     SSW   200   8.06    270      -59.6
   10/08/2017 22:40      60.3      59.9       83     54.8      0.00      0.09      75.6     0.34      1009.0     0.7     SSE   155   1.4      SE   133   8.06    270      -60.4
   10/08/2017 22:40      60.3      59.9       83     54.8      0.00      0.09      75.6     0.34      1009.0     0.7     SSE   155   1.4      SE   133   8.06    270      -60.4
   10/08/2017 22:30      60.9      60.4       82     55.0      0.00      0.09      75.6     0.34      1008.0     0.9     SSE   148   1.2      SE   133   8.07    270      -60.8
   10/08/2017 22:30      60.9      60.4       82     55.0      0.00      0.09      75.6     0.34      1008.0     0.9     SSE   148   1.2      SE   133   8.07    270      -60.8
   10/08/2017 22:20      61.4      61.0       80     55.1      0.00      0.09      75.5     0.34      1008.0     0.5       N   353   0.8       N     2   8.07    270      -62.9
   10/08/2017 22:20      61.4      61.0       80     55.1      0.00      0.09      75.5     0.34      1008.0     0.5       N   353   0.8       N     2   8.07    270      -62.9
   10/08/2017 22:10      62.0      61.3       79     55.3      0.00      0.09      75.7     0.34      1008.0     1.3       E   101   2.0     ENE    70   8.07    270      -65.7
   10/08/2017 22:10      62.0      61.3       79     55.3      0.00      0.09      75.7     0.34      1008.0     1.3       E   101   2.0     ENE    70   8.07    270      -65.7
   10/08/2017 22:00      62.2      62.0       79     55.5      0.00      0.09      75.7     0.34      1008.0     2.6     ENE    73   4.2       E    96   8.07    270      -67.6
   10/08/2017 22:00      62.2      62.0       79     55.5      0.00      0.09      75.7     0.34      1008.0     2.6     ENE    73   4.2       E    96   8.07    270      -67.6
   10/08/2017 21:50      62.3      62.2       78     55.4      0.00      0.09      75.7     0.34      1008.0     1.9       E    95   3.3     ESE   103   8.08    270      -67.6
   10/08/2017 21:50      62.3      62.2       78     55.4      0.00      0.09      75.7     0.34      1008.0     1.9       E    95   3.3     ESE   103   8.08    270      -67.6
   10/08/2017 21:40      62.5      62.0       78     55.1      0.00      0.09      75.6     0.34      1008.0     2.5     ESE   108   4.3       E    92   8.08    270      -67.5
   10/08/2017 21:40      62.5      62.0       78     55.1      0.00      0.09      75.6     0.34      1008.0     2.5     ESE   108   4.3       E    92   8.08    270      -67.5
   10/08/2017 21:30      62.5      61.8       75     54.2      0.00      0.09      75.5     0.34      1008.0     1.6       E    93   2.2     ENE    77   8.08    270      -66.3
   10/08/2017 21:30      62.5      61.8       75     54.2      0.00      0.09      75.5     0.34      1008.0     1.6       E    93   2.2     ENE    77   8.08    270      -66.3
   10/08/2017 21:20      63.2      62.8       74     54.7      0.00      0.09      75.5     0.34      1008.0     1.4       E    88   2.3     ENE    60   8.08    269      -68.0
   10/08/2017 21:20      63.2      62.8       74     54.7      0.00      0.09      75.5     0.34      1008.0     1.4       E    88   2.3     ENE    60   8.08    269      -68.0
   10/08/2017 21:10      63.2      62.3       73     54.0      0.00      0.09      75.6     0.34      1007.0     2.5     ESE   111   4.7      SE   131   8.08    269      -67.9
   10/08/2017 21:10      63.2      62.3       73     54.0      0.00      0.09      75.6     0.34      1007.0     2.5     ESE   111   4.7      SE   131   8.08    269      -67.9
   10/08/2017 21:00      62.5      62.3       70     52.4      0.00      0.09      75.5     0.34      1007.0     1.4     ESE   105   1.8      SE   124   8.08    269      -67.6
   10/08/2017 21:00      62.5      62.3       70     52.4      0.00      0.09      75.5     0.34      1007.0     1.4     ESE   105   1.8      SE   124   8.08    269      -67.6
   10/08/2017 20:50      62.8      62.4       68     51.7      0.00      0.09      75.4     0.34      1007.0     1.7     ESE   113   2.5       E    91   8.08    269      -68.8
   10/08/2017 20:50      62.8      62.4       68     51.7      0.00      0.09      75.4     0.34      1007.0     1.7     ESE   113   2.5       E    91   8.08    269      -68.8
   10/08/2017 20:40      63.1      62.7       66     51.3      0.00      0.09      75.5     0.34      1007.0     2.2     ESE   112   2.5      SE   131   8.09    269      -69.7
   10/08/2017 20:40      63.1      62.7       66     51.3      0.00      0.09      75.5     0.34      1007.0     2.2     ESE   112   2.5      SE   131   8.09    269      -69.7
   10/08/2017 20:30      63.8      63.0       64     50.9      0.00      0.09      75.6     0.34      1007.0     0.9       E    79   1.5      SE   137   8.09    269      -69.4
   10/08/2017 20:30      63.8      63.0       64     50.9      0.00      0.09      75.6     0.34      1007.0     0.9       E    79   1.5      SE   137   8.09    269      -69.4
   10/08/2017 20:20      64.3      63.9       63     51.3      0.00      0.09      75.4     0.34      1007.0     1.0     ESE   114   1.2     ESE   117   8.09    269      -71.2
   10/08/2017 20:20      64.3      63.9       63     51.3      0.00      0.09      75.4     0.34      1007.0     1.0     ESE   114   1.2     ESE   117   8.09    269      -71.2
   10/08/2017 20:10      64.5      64.3       62     51.2      0.00      0.09      75.4     0.34      1007.0     1.2       S   187   1.6       S   180   8.09    269      -70.7
   10/08/2017 20:10      64.5      64.3       62     51.2      0.00      0.09      75.4     0.34      1007.0     1.2       S   187   1.6       S   180   8.09    269      -70.7
   10/08/2017 20:00      64.8      64.3       63     51.9      0.00      0.09      75.5     0.34      1007.0     0.7       E    88   0.9     ESE   104   8.09    269      -71.6
   10/08/2017 20:00      64.8      64.3       63     51.9      0.00      0.09      75.5     0.34      1007.0     0.7       E    88   0.9     ESE   104   8.09    269      -71.6
   10/08/2017 19:50      65.4      64.8       64     52.5      0.00      0.09      75.5     0.34      1007.0     1.4       E   100   2.0     ESE   121   8.09    269      -73.0
   10/08/2017 19:50      65.4      64.8       64     52.5      0.00      0.09      75.5     0.34      1007.0     1.4       E   100   2.0     ESE   121   8.09    269      -73.0
   10/08/2017 19:40      66.0      65.5       63     52.7      0.00      0.09      75.3     0.34      1007.0     1.1       E    83   1.5       E    92   8.09    269      -74.0
   10/08/2017 19:40      66.0      65.5       63     52.7      0.00      0.09      75.3     0.34      1007.0     1.1       E    83   1.5       E    92   8.09    269      -74.0
   10/08/2017 19:30      66.8      66.2       61     52.6      0.00      0.09      75.6     0.34      1007.0     1.8     ENE    70   3.1       E    82   8.09    268      -75.3
   10/08/2017 19:30      66.8      66.2       61     52.6      0.00      0.09      75.6     0.34      1007.0     1.8     ENE    70   3.1       E    82   8.09    268      -75.3
   10/08/2017 19:20      67.8      66.9       59     52.4      0.00      0.09      75.2     0.34      1006.0     1.9       E    89   3.0     ENE    71   8.09    269      -75.9
   10/08/2017 19:20      67.8      66.9       59     52.4      0.00      0.09      75.2     0.34      1006.0     1.9       E    89   3.0     ENE    71   8.09    269      -75.9
   10/08/2017 19:10      69.1      68.1       56     52.2      0.00      0.09      75.3     0.34      1007.0     1.4     ENE    66   1.9     ENE    68   8.09    268      -76.5
   10/08/2017 19:10      69.1      68.1       56     52.2      0.00      0.09      75.3     0.34      1007.0     1.4     ENE    66   1.9     ENE    68   8.09    268      -76.5
   10/08/2017 19:00      69.9      69.2       54     52.2      0.00      0.09      75.3     0.34      1006.0     1.0     ENE    73   1.7     ESE   116   8.09    269      -78.4
   10/08/2017 19:00      69.9      69.2       54     52.2      0.00      0.09      75.3     0.34      1006.0     1.0     ENE    73   1.7     ESE   116   8.09    269      -78.4
   10/08/2017 18:50      70.4      69.9       54     52.5      0.00      0.09      75.2     0.34      1006.0     2.2     ESE   113   3.0      SE   128   8.09    269      -78.9
   10/08/2017 18:50      70.4      69.9       54     52.5      0.00      0.09      75.2     0.34      1006.0     2.2     ESE   113   3.0      SE   128   8.09    269      -78.9
   10/08/2017 18:40      71.0      70.3       53     52.7      0.00      0.09      75.2     0.34      1006.0     2.8     ESE   102   4.1     ENE    60   8.09    268      -78.1
   10/08/2017 18:40      71.0      70.3       53     52.7      0.00      0.09      75.2     0.34      1006.0     2.8     ESE   102   4.1     ENE    60   8.09    268      -78.1
   10/08/2017 18:30      71.8      71.2       52     52.8      0.00      0.09      75.2     0.34      1006.0     3.5       E    92   4.9     ENE    76   8.09    268      -75.8
   10/08/2017 18:30      71.8      71.2       52     52.8      0.00      0.09      75.2     0.34      1006.0     3.5       E    92   4.9     ENE    76   8.09    268      -75.8
   10/08/2017 18:20      72.3      71.7       52     53.5      0.00      0.09      75.1     0.34      1006.0     3.1     ENE    78   4.4     ENE    75   8.09    268      -70.9
   10/08/2017 18:20      72.3      71.7       52     53.5      0.00      0.09      75.1     0.34      1006.0     3.1     ENE    78   4.4     ENE    75   8.09    268      -70.9
   10/08/2017 18:10      73.2      72.3       52     53.9      0.00      0.09      75.2     0.34      1006.0     3.5     ESE   104   5.7       E    91   8.10    268      -64.8
   10/08/2017 18:10      73.2      72.3       52     53.9      0.00      0.09      75.2     0.34      1006.0     3.5     ESE   104   5.7       E    91   8.10    268      -64.8
   10/08/2017 18:00      73.8      73.4       51     54.4      0.00      0.09      75.0     0.34      1006.0     3.7     ESE   113   7.0      SE   128   8.09    268      -52.7
   10/08/2017 18:00      73.8      73.4       51     54.4      0.00      0.09      75.0     0.34      1006.0     3.7     ESE   113   7.0      SE   128   8.09    268      -52.7
   10/08/2017 17:50      74.6      73.8       53     55.9      0.00      0.09      75.0     0.34      1006.0     4.3      SE   141   5.8     SSE   159   8.10    268      -38.8
   10/08/2017 17:50      74.6      73.8       53     55.9      0.00      0.09      75.0     0.34      1006.0     4.3      SE   141   5.8     SSE   159   8.10    268      -38.8
   10/08/2017 17:40      75.1      74.6       53     56.4      0.00      0.09      75.0     0.34      1006.0     4.1       S   183   8.0     SSE   147   8.09    268      -17.2
   10/08/2017 17:40      75.1      74.6       53     56.4      0.00      0.09      75.0     0.34      1006.0     4.1       S   183   8.0     SSE   147   8.09    268      -17.2
   10/08/2017 17:30      75.9      75.1       51     56.2      0.00      0.09      74.9     0.34      1006.0     4.7       S   171   7.0       S   172   8.10    268        0.5
   10/08/2017 17:30      75.9      75.1       51     56.2      0.00      0.09      74.9     0.34      1006.0     4.7       S   171   7.0       S   172   8.10    268        0.5
   10/08/2017 17:20      76.6      76.2       49     56.0      0.00      0.09      74.9     0.34      1006.0     4.2     SSE   163   5.1     SSE   158   8.10    268       21.5
   10/08/2017 17:20      76.6      76.2       49     56.0      0.00      0.09      74.9     0.34      1006.0     4.2     SSE   163   5.1     SSE   158   8.10    268       21.5
   10/08/2017 17:10      77.0      76.3       49     56.0      0.00      0.09      74.8     0.34      1006.0     4.6     SSE   151   7.0     SSE   168   8.10    268       43.8
   10/08/2017 17:10      77.0      76.3       49     56.0      0.00      0.09      74.8     0.34      1006.0     4.6     SSE   151   7.0     SSE   168   8.10    268       43.8
   10/08/2017 17:00      77.3      76.4       49     56.1      0.00      0.09      74.7     0.34      1006.0     4.1       S   175   6.4     SSW   205   8.10    268       66.7
   10/08/2017 17:00      77.3      76.4       49     56.1      0.00      0.09      74.7     0.34      1006.0     4.1       S   175   6.4     SSW   205   8.10    268       66.7
   10/08/2017 16:50      77.5      76.5       49     56.2      0.00      0.09      74.7     0.34      1006.0     5.4     SSE   166   7.0       S   173   8.10    268       92.6
   10/08/2017 16:50      77.5      76.5       49     56.2      0.00      0.09      74.7     0.34      1006.0     5.4     SSE   166   7.0       S   173   8.10    268       92.6
   10/08/2017 16:40      78.4      77.6       47     56.2      0.00      0.09      74.7     0.34      1006.0     4.7       S   176   7.7       S   176   8.10    268      116.7
   10/08/2017 16:40      78.4      77.6       47     56.2      0.00      0.09      74.7     0.34      1006.0     4.7       S   176   7.7       S   176   8.10    268      116.7
   10/08/2017 16:30      78.3      77.4       47     56.1      0.00      0.09      74.6     0.34      1006.0     4.8     SSE   166   8.1       S   172   8.10    268      142.7
   10/08/2017 16:30      78.3      77.4       47     56.1      0.00      0.09      74.6     0.34      1006.0     4.8     SSE   166   8.1       S   172   8.10    268      142.7
   10/08/2017 16:20      79.0      78.2       46     56.0      0.00      0.09      74.7     0.34      1006.0     5.1     SSE   156   7.8       S   170   8.25    268      167.1
   10/08/2017 16:20      79.0      78.2       46     56.0      0.00      0.09      74.7     0.34      1006.0     5.1     SSE   156   7.8       S   170   8.25    268      167.1
   10/08/2017 16:10      78.8      78.5       45     55.7      0.00      0.09      74.5     0.34      1006.0     4.9     SSE   155   6.0     SSE   158   8.26    268      190.4
   10/08/2017 16:10      78.8      78.5       45     55.7      0.00      0.09      74.5     0.34      1006.0     4.9     SSE   155   6.0     SSE   158   8.26    268      190.4
   10/08/2017 16:00      79.4      78.4       45     55.7      0.00      0.09      74.5     0.34      1006.0     6.2       S   171   7.8       S   187   8.26    268      206.1
   10/08/2017 16:00      79.4      78.4       45     55.7      0.00      0.09      74.5     0.34      1006.0     6.2       S   171   7.8       S   187   8.26    268      206.1
   10/08/2017 15:50      79.9      79.2       43     55.3      0.00      0.09      74.4     0.34      1006.0     5.5     SSE   153   8.8     SSE   149   8.27    268      217.4
   10/08/2017 15:50      79.9      79.2       43     55.3      0.00      0.09      74.4     0.34      1006.0     5.5     SSE   153   8.8     SSE   149   8.27    268      217.4
   10/08/2017 15:40      80.0      79.1       43     55.3      0.00      0.09      74.3     0.34      1006.0     6.1     SSE   166  10.3       S   174   8.27    267      238.9
   10/08/2017 15:40      80.0      79.1       43     55.3      0.00      0.09      74.3     0.34      1006.0     6.1     SSE   166  10.3       S   174   8.27    267      238.9
   10/08/2017 15:30      80.5      79.2       42     55.0      0.00      0.09      74.4     0.34      1006.0     7.3       S   170  10.6       S   188   8.27    268      259.9
   10/08/2017 15:30      80.5      79.2       42     55.0      0.00      0.09      74.4     0.34      1006.0     7.3       S   170  10.6       S   188   8.27    268      259.9
   10/08/2017 15:20      80.8      80.3       41     54.8      0.00      0.09      74.4     0.34      1006.0     6.4     SSE   163  10.4      SE   146   8.27    268      278.9
   10/08/2017 15:20      80.8      80.3       41     54.8      0.00      0.09      74.4     0.34      1006.0     6.4     SSE   163  10.4      SE   146   8.27    268      278.9
   10/08/2017 15:10      80.5      80.3       41     54.4      0.00      0.09      74.3     0.34      1005.0     7.3     SSE   164   9.8     SSE   152   8.27    268      304.8
   10/08/2017 15:10      80.5      80.3       41     54.4      0.00      0.09      74.3     0.34      1005.0     7.3     SSE   164   9.8     SSE   152   8.27    268      304.8
   10/08/2017 15:00      81.8      80.4       39     53.9      0.00      0.09      74.4     0.34      1005.0     7.8     SSE   165  12.5     SSE   156   8.28    268      328.7
   10/08/2017 15:00      81.8      80.4       39     53.9      0.00      0.09      74.4     0.34      1005.0     7.8     SSE   165  12.5     SSE   156   8.28    268      328.7
   10/08/2017 14:50      83.4      82.2       37     54.1      0.00      0.09      74.2     0.34      1005.0     5.2     SSE   160  10.3     SSE   168   8.28    268      341.6
   10/08/2017 14:50      83.4      82.2       37     54.1      0.00      0.09      74.2     0.34      1005.0     5.2     SSE   160  10.3     SSE   168   8.28    268      341.6
   10/08/2017 14:40      83.6      83.0       36     53.8      0.00      0.09      74.3     0.34      1005.0     4.1     ENE    61   5.5     ESE   103   8.28    268      350.2
   10/08/2017 14:40      83.6      83.0       36     53.8      0.00      0.09      74.3     0.34      1005.0     4.1     ENE    61   5.5     ESE   103   8.28    268      350.2
   10/08/2017 14:30      83.6      82.7       36     53.6      0.00      0.09      74.0     0.34      1005.0     3.3      NE    48   5.9     ENE    76   8.28    269      365.3
   10/08/2017 14:30      83.6      82.7       36     53.6      0.00      0.09      74.0     0.34      1005.0     3.3      NE    48   5.9     ENE    76   8.28    269      365.3
   10/08/2017 14:20      84.2      83.2       35     53.0      0.00      0.09      74.1     0.33      1006.0     4.2      NE    54   9.1     ENE    72   8.28    268      376.4
   10/08/2017 14:20      84.2      83.2       35     53.0      0.00      0.09      74.1     0.33      1006.0     4.2      NE    54   9.1     ENE    72   8.28    268      376.4
   10/08/2017 14:10      83.6      82.3       34     51.6      0.00      0.09      74.1     0.33      1006.0     4.0      NE    43   5.8     ESE   103   8.28    268      386.3
   10/08/2017 14:10      83.6      82.3       34     51.6      0.00      0.09      74.1     0.33      1006.0     4.0      NE    43   5.8     ESE   103   8.28    268      386.3
   10/08/2017 14:00      83.4      82.6       33     50.7      0.00      0.09      74.2     0.33      1006.0     4.0     NNE    20   7.5     NNE    21   8.28    268      396.4
   10/08/2017 14:00      83.4      82.6       33     50.7      0.00      0.09      74.2     0.33      1006.0     4.0     NNE    20   7.5     NNE    21   8.28    268      396.4
   10/08/2017 13:50      83.3      82.1       33     50.1      0.00      0.09      74.1     0.33      1006.0     3.4      NE    38   5.2     NNE    19   8.28    268      407.0
   10/08/2017 13:50      83.3      82.1       33     50.1      0.00      0.09      74.1     0.33      1006.0     3.4      NE    38   5.2     NNE    19   8.28    268      407.0
   10/08/2017 13:40      82.3      81.6       33     50.2      0.00      0.09      74.2     0.33      1006.0     3.3     NNE    26   5.2     NNE    30   8.28    268      416.1
   10/08/2017 13:40      82.3      81.6       33     50.2      0.00      0.09      74.2     0.33      1006.0     3.3     NNE    26   5.2     NNE    30   8.28    268      416.1
   10/08/2017 13:30      82.4      81.9       33     49.8      0.00      0.09      74.0     0.33      1006.0     3.6      NE    46   7.5     ENE    67   8.28    268      427.7
   10/08/2017 13:30      82.4      81.9       33     49.8      0.00      0.09      74.0     0.33      1006.0     3.6      NE    46   7.5     ENE    67   8.28    268      427.7
   10/08/2017 13:20      82.5      81.1       33     50.1      0.00      0.09      74.0     0.33      1006.0     3.7     NNE    24   4.9     NNE    33   8.28    268      434.0
   10/08/2017 13:20      82.5      81.1       33     50.1      0.00      0.09      74.0     0.33      1006.0     3.7     NNE    24   4.9     NNE    33   8.28    268      434.0
   10/08/2017 13:10      81.7      80.6       34     50.0      0.00      0.09      74.0     0.33      1007.0     4.6     ENE    58   8.1       E    96   8.28    268      442.2
   10/08/2017 13:10      81.7      80.6       34     50.0      0.00      0.09      74.0     0.33      1007.0     4.6     ENE    58   8.1       E    96   8.28    268      442.2
   10/08/2017 13:00      82.3      81.4       34     50.3      0.00      0.09      74.1     0.33      1007.0     3.3      NE    52   5.7     NNE    17   8.28    268      445.4
   10/08/2017 13:00      82.3      81.4       34     50.3      0.00      0.09      74.1     0.33      1007.0     3.3      NE    52   5.7     NNE    17   8.28    268      445.4
   10/08/2017 12:50      81.4      80.1       35     50.4      0.00      0.09      74.1     0.33      1007.0     3.5     ENE    71   6.6     ESE   113   8.28    269      450.4
   10/08/2017 12:50      81.4      80.1       35     50.4      0.00      0.09      74.1     0.33      1007.0     3.5     ENE    71   6.6     ESE   113   8.28    269      450.4
   10/08/2017 12:40      80.9      80.1       35     50.1      0.00      0.09      74.0     0.33      1007.0     5.0     NNE    32   6.9     NNE    19   8.28    269      450.7
   10/08/2017 12:40      80.9      80.1       35     50.1      0.00      0.09      74.0     0.33      1007.0     5.0     NNE    32   6.9     NNE    19   8.28    269      450.7
   10/08/2017 12:30      80.5      79.5       34     49.5      0.00      0.09      74.0     0.33      1007.0     5.7      NE    46   9.4       N     5   8.28    269      450.7
   10/08/2017 12:30      80.5      79.5       34     49.5      0.00      0.09      74.0     0.33      1007.0     5.7      NE    46   9.4       N     5   8.28    269      450.7
   10/08/2017 12:20      79.8      78.9       35     49.3      0.00      0.09      74.1     0.33      1007.0     3.6     NNE    25   4.6       N     8   8.29    269      449.3
   10/08/2017 12:20      79.8      78.9       35     49.3      0.00      0.09      74.1     0.33      1007.0     3.6     NNE    25   4.6       N     8   8.29    269      449.3
   10/08/2017 12:10      79.8      79.2       35     49.2      0.00      0.09      74.0     0.33      1008.0     3.4      NE    40   6.2     NNE    23   8.29    269      446.1
   10/08/2017 12:10      79.8      79.2       35     49.2      0.00      0.09      74.0     0.33      1008.0     3.4      NE    40   6.2     NNE    23   8.29    269      446.1
   10/08/2017 12:00      79.7      78.9       36     49.7      0.00      0.09      74.1     0.33      1008.0     4.1      NE    50   5.9     ENE    72   8.29    269      445.2
   10/08/2017 12:00      79.7      78.9       36     49.7      0.00      0.09      74.1     0.33      1008.0     4.1      NE    50   5.9     ENE    72   8.29    269      445.2
   10/08/2017 11:50      79.4      78.5       37     50.0      0.00      0.09      74.0     0.33      1008.0     3.7     NNE    32   4.7      NE    53   8.29    269      436.8
   10/08/2017 11:50      79.4      78.5       37     50.0      0.00      0.09      74.0     0.33      1008.0     3.7     NNE    32   4.7      NE    53   8.29    269      436.8
   10/08/2017 11:40      78.6      77.4       37     49.3      0.00      0.09      74.1     0.33      1008.0     3.6      NE    51   6.7      SE   124   8.29    269      433.9
   10/08/2017 11:40      78.6      77.4       37     49.3      0.00      0.09      74.1     0.33      1008.0     3.6      NE    51   6.7      SE   124   8.29    269      433.9
   10/08/2017 11:30      77.8      77.1       37     49.1      0.00      0.09      74.1     0.33      1008.0     4.5     NNE    29   6.6     NNE    13   8.29    269      425.4
   10/08/2017 11:30      77.8      77.1       37     49.1      0.00      0.09      74.1     0.33      1008.0     4.5     NNE    29   6.6     NNE    13   8.29    269      425.4
   10/08/2017 11:20      77.2      75.6       41     50.7      0.00      0.09      74.0     0.33      1008.0     4.1     ENE    63   6.8     ENE    77   8.29    269      417.7
   10/08/2017 11:20      77.2      75.6       41     50.7      0.00      0.09      74.0     0.33      1008.0     4.1     ENE    63   6.8     ENE    77   8.29    269      417.7
   10/08/2017 11:10      75.7      74.7       45     52.3      0.00      0.09      74.1     0.33      1008.0     3.9      NE    50   6.2     ENE    73   8.29    269      408.9
   10/08/2017 11:10      75.7      74.7       45     52.3      0.00      0.09      74.1     0.33      1008.0     3.9      NE    50   6.2     ENE    73   8.29    269      408.9
   10/08/2017 11:00      75.0      74.1       46     52.5      0.00      0.09      74.2     0.33      1008.0     3.7     NNE    30   5.5       N     7   8.29    269      396.9
   10/08/2017 11:00      75.0      74.1       46     52.5      0.00      0.09      74.2     0.33      1008.0     3.7     NNE    30   5.5       N     7   8.29    269      396.9
   10/08/2017 10:50      74.8      73.8       46     52.4      0.00      0.09      74.1     0.33      1008.0     3.3      NE    39   4.7     ENE    57   8.29    269      385.2
   10/08/2017 10:50      74.8      73.8       46     52.4      0.00      0.09      74.1     0.33      1008.0     3.3      NE    39   4.7     ENE    57   8.29    269      385.2
   10/08/2017 10:40      74.1      73.4       46     52.1      0.00      0.09      74.3     0.33      1008.0     3.2      NE    41   4.5     ENE    64   8.29    270      369.2
   10/08/2017 10:40      74.1      73.4       46     52.1      0.00      0.09      74.3     0.33      1008.0     3.2      NE    41   4.5     ENE    64   8.29    270      369.2
   10/08/2017 10:30      73.3      72.2       48     51.7      0.00      0.09      74.2     0.34      1008.0     2.8      NE    51   4.0     ESE   103   8.29    269      355.8
   10/08/2017 10:30      73.3      72.2       48     51.7      0.00      0.09      74.2     0.34      1008.0     2.8      NE    51   4.0     ESE   103   8.29    269      355.8
   10/08/2017 10:20      72.7      72.2       44     49.4      0.00      0.09      74.4     0.34      1008.0     3.4     NNE    18   5.7      NE    47   8.29    270      341.5
   10/08/2017 10:20      72.7      72.2       44     49.4      0.00      0.09      74.4     0.34      1008.0     3.4     NNE    18   5.7      NE    47   8.29    270      341.5
   10/08/2017 10:10      72.9      71.6       41     47.1      0.00      0.09      74.4     0.34      1008.0     3.2      NE    50   4.9      NE    56   8.29    269      326.3
   10/08/2017 10:10      72.9      71.6       41     47.1      0.00      0.09      74.4     0.34      1008.0     3.2      NE    50   4.9      NE    56   8.29    269      326.3
   10/08/2017 10:00      71.9      70.3       40     45.4      0.00      0.09      74.4     0.34      1008.0     3.9      NE    56   6.3       E    85   8.29    269      310.6
   10/08/2017 10:00      71.9      70.3       40     45.4      0.00      0.09      74.4     0.34      1008.0     3.9      NE    56   6.3       E    85   8.29    269      310.6
   10/08/2017 09:50      70.3      69.6       39     43.9      0.00      0.09      74.4     0.34      1008.0     3.0      NE    34   4.3     NNE    20   8.29    269      294.6
   10/08/2017 09:50      70.3      69.6       39     43.9      0.00      0.09      74.4     0.34      1008.0     3.0      NE    34   4.3     NNE    20   8.29    269      294.6
   10/08/2017 09:40      69.8      69.2       38     42.6      0.00      0.09      74.4     0.34      1008.0     2.6      NE    53   4.4     ESE   105   8.29    269      279.1
   10/08/2017 09:40      69.8      69.2       38     42.6      0.00      0.09      74.4     0.34      1008.0     2.6      NE    53   4.4     ESE   105   8.29    269      279.1
   10/08/2017 09:30      69.0      68.2       37     41.5      0.00      0.09      74.4     0.34      1008.0     2.8     ENE    78   4.1     ENE    62   8.29    269      262.1
   10/08/2017 09:30      69.0      68.2       37     41.5      0.00      0.09      74.4     0.34      1008.0     2.8     ENE    78   4.1     ENE    62   8.29    269      262.1
   10/08/2017 09:20      68.7      68.1       37     41.1      0.00      0.09      74.5     0.34      1008.0     2.7      NE    54   4.2     ENE    58   8.29    269      244.1
   10/08/2017 09:20      68.7      68.1       37     41.1      0.00      0.09      74.5     0.34      1008.0     2.7      NE    54   4.2     ENE    58   8.29    269      244.1
   10/08/2017 09:10      68.2      67.1       37     40.5      0.00      0.09      74.5     0.34      1008.0     2.2      NE    36   3.6       N   355   8.30    269      227.8
   10/08/2017 09:10      68.2      67.1       37     40.5      0.00      0.09      74.5     0.34      1008.0     2.2      NE    36   3.6       N   355   8.30    269      227.8
   10/08/2017 09:00      67.3      67.0       36     39.6      0.00      0.09      74.5     0.34      1008.0     2.2     NNE    28   3.1     NNE    19   8.30    269      210.2
   10/08/2017 09:00      67.3      67.0       36     39.6      0.00      0.09      74.5     0.34      1008.0     2.2     NNE    28   3.1     NNE    19   8.30    269      210.2
   10/08/2017 08:50      67.1      65.2       38     39.4      0.00      0.09      74.5     0.34      1008.0     1.8     NNE    33   2.5     NNW   344   8.30    269      190.0
   10/08/2017 08:50      67.1      65.2       38     39.4      0.00      0.09      74.5     0.34      1008.0     1.8     NNE    33   2.5     NNW   344   8.30    269      190.0
   10/08/2017 08:40      65.3      64.2       40     39.6      0.00      0.09      74.6     0.34      1008.0     1.7       E    79   2.4       N   359   8.30    269      166.9
   10/08/2017 08:40      65.3      64.2       40     39.6      0.00      0.09      74.6     0.34      1008.0     1.7       E    79   2.4       N   359   8.30    269      166.9
   10/08/2017 08:30      65.3      64.3       39     39.1      0.00      0.09      74.7     0.34      1008.0     0.9       E    93   1.4     ESE   113   8.30    269      141.4
   10/08/2017 08:30      65.3      64.3       39     39.1      0.00      0.09      74.7     0.34      1008.0     0.9       E    93   1.4     ESE   113   8.30    269      141.4
   10/08/2017 08:20      64.3      62.3       41     38.9      0.00      0.09      74.6     0.34      1008.0     0.5       N     1   0.9     NNE    25   8.30    269      114.8
   10/08/2017 08:20      64.3      62.3       41     38.9      0.00      0.09      74.6     0.34      1008.0     0.5       N     1   0.9     NNE    25   8.30    269      114.8
   10/08/2017 08:10      62.2      58.1       45     38.6      0.00      0.09      74.7     0.34      1008.0     0.5      NE    52   0.8       E    80   8.30    268       84.7
   10/08/2017 08:10      62.2      58.1       45     38.6      0.00      0.09      74.7     0.34      1008.0     0.5      NE    52   0.8       E    80   8.30    268       84.7
   10/08/2017 08:00      58.0      56.3       49     38.2      0.00      0.09      74.8     0.34      1008.0     0.6       E    85   1.0      SE   126   8.30    268       42.6
   10/08/2017 08:00      58.0      56.3       49     38.2      0.00      0.09      74.8     0.34      1008.0     0.6       E    85   1.0      SE   126   8.30    268       42.6
   10/08/2017 07:50      56.0      54.1       54     38.6      0.00      0.09      74.8     0.34      1008.0     1.1     NNE    14   1.7       N     4   8.30    268        3.6
   10/08/2017 07:50      56.0      54.1       54     38.6      0.00      0.09      74.8     0.34      1008.0     1.1     NNE    14   1.7       N     4   8.30    268        3.6
   10/08/2017 07:40      54.1      52.1       58     38.9      0.00      0.09      74.8     0.34      1008.0     0.8      SE   127   1.9      SE   139   8.30    268      -35.1
   10/08/2017 07:40      54.1      52.1       58     38.9      0.00      0.09      74.8     0.34      1008.0     0.8      SE   127   1.9      SE   139   8.30    268      -35.1
   10/08/2017 07:30      52.3      51.6       60     38.3      0.00      0.09      74.9     0.34      1008.0     1.4      SE   135   2.1      SE   143   8.30    268      -43.8
   10/08/2017 07:30      52.3      51.6       60     38.3      0.00      0.09      74.9     0.34      1008.0     1.4      SE   135   2.1      SE   143   8.30    268      -43.8
   10/08/2017 07:20      51.8      51.6       58     37.6      0.00      0.09      74.9     0.34      1007.0     1.0      SE   135   1.5      SE   126   8.30    268      -47.5
   10/08/2017 07:20      51.8      51.6       58     37.6      0.00      0.09      74.9     0.34      1007.0     1.0      SE   135   1.5      SE   126   8.30    268      -47.5
   10/08/2017 07:10      52.1      51.6       57     37.3      0.00      0.09      74.9     0.34      1008.0     1.3       W   259   2.6      NW   306   8.30    268      -53.2
   10/08/2017 07:10      52.1      51.6       57     37.3      0.00      0.09      74.9     0.34      1008.0     1.3       W   259   2.6      NW   306   8.30    268      -53.2
   10/08/2017 07:00      51.8      51.5       61     38.7      0.00      0.09      74.8     0.34      1008.0     1.3      NW   312   3.4      NW   315   8.30    268      -56.3
   10/08/2017 07:00      51.8      51.5       61     38.7      0.00      0.09      74.8     0.34      1008.0     1.3      NW   312   3.4      NW   315   8.30    268      -56.3
   10/08/2017 06:50      51.8      51.6       62     39.1      0.00      0.09      74.9     0.34      1007.0     0.8      NE    54   1.5      SE   126   8.30    268      -58.7
   10/08/2017 06:50      51.8      51.6       62     39.1      0.00      0.09      74.9     0.34      1007.0     0.8      NE    54   1.5      SE   126   8.30    268      -58.7
   10/08/2017 06:40      51.7      51.4       61     38.5      0.00      0.09      74.8     0.34      1007.0     2.3      SE   139   2.8      SE   131   8.30    267      -59.9
   10/08/2017 06:40      51.7      51.4       61     38.5      0.00      0.09      74.8     0.34      1007.0     2.3      SE   139   2.8      SE   131   8.30    267      -59.9
   10/08/2017 06:30      52.1      51.6       58     37.5      0.00      0.09      75.0     0.34      1008.0     1.5     SSE   151   2.4      SE   138   8.30    267      -59.5
   10/08/2017 06:30      52.1      51.6       58     37.5      0.00      0.09      75.0     0.34      1008.0     1.5     SSE   151   2.4      SE   138   8.30    267      -59.5
   10/08/2017 06:20      52.0      51.6       56     36.5      0.00      0.09      75.0     0.34      1008.0     0.8       E    98   1.9      SE   131   8.30    267      -60.1
   10/08/2017 06:20      52.0      51.6       56     36.5      0.00      0.09      75.0     0.34      1008.0     0.8       E    98   1.9      SE   131   8.30    267      -60.1
   10/08/2017 06:10      52.3      52.0       55     36.6      0.00      0.09      75.0     0.34      1007.0     1.1     SSE   155   2.0     SSE   151   8.30    267      -59.8
   10/08/2017 06:10      52.3      52.0       55     36.6      0.00      0.09      75.0     0.34      1007.0     1.1     SSE   155   2.0     SSE   151   8.30    267      -59.8
   10/08/2017 06:00      52.6      52.1       55     36.7      0.00      0.09      75.1     0.34      1007.0     0.5      NE    47   1.2      NW   317   8.30    267      -59.6
   10/08/2017 06:00      52.6      52.1       55     36.7      0.00      0.09      75.1     0.34      1007.0     0.5      NE    47   1.2      NW   317   8.30    267      -59.6
   10/08/2017 05:50      52.9      52.6       53     36.3      0.00      0.09      74.9     0.34      1007.0     0.7      SE   126   1.2      SE   143   8.30    267      -60.0
   10/08/2017 05:50      52.9      52.6       53     36.3      0.00      0.09      74.9     0.34      1007.0     0.7      SE   126   1.2      SE   143   8.30    267      -60.0
   10/08/2017 05:40      53.0      52.8       54     36.7      0.00      0.09      75.1     0.34      1007.0     1.4     SSE   150   1.9      SE   138   8.30    267      -60.1
   10/08/2017 05:40      53.0      52.8       54     36.7      0.00      0.09      75.1     0.34      1007.0     1.4     SSE   150   1.9      SE   138   8.30    267      -60.1
   10/08/2017 05:30      53.1      52.7       52     35.6      0.00      0.09      75.2     0.34      1007.0     2.3      SE   142   3.6     SSE   154   8.30    267      -61.4
   10/08/2017 05:30      53.1      52.7       52     35.6      0.00      0.09      75.2     0.34      1007.0     2.3      SE   142   3.6     SSE   154   8.30    267      -61.4
   10/08/2017 05:20      53.5      53.2       47     33.6      0.00      0.09      75.2     0.34      1007.0     2.0     SSE   163   3.9     SSE   155   8.30    267      -60.4
   10/08/2017 05:20      53.5      53.2       47     33.6      0.00      0.09      75.2     0.34      1007.0     2.0     SSE   163   3.9     SSE   155   8.30    267      -60.4
   10/08/2017 05:10      53.6      53.4       46     33.1      0.00      0.09      75.3     0.34      1007.0     0.5     SSE   159   1.0     SSE   152   8.30    267      -61.0
   10/08/2017 05:10      53.6      53.4       46     33.1      0.00      0.09      75.3     0.34      1007.0     0.5     SSE   159   1.0     SSE   152   8.30    267      -61.0
   10/08/2017 05:00      54.9      53.8       45     33.3      0.00      0.09      75.2     0.34      1007.0     0.8     NNE    14   1.5     NNE    15   8.30    267      -63.0
   10/08/2017 05:00      54.9      53.8       45     33.3      0.00      0.09      75.2     0.34      1007.0     0.8     NNE    14   1.5     NNE    15   8.30    267      -63.0
   10/08/2017 04:50      54.9      54.5       45     33.7      0.00      0.09      75.2     0.34      1007.0     1.6     NNW   337   2.4     NNW   344   8.30    267      -62.8
   10/08/2017 04:50      54.9      54.5       45     33.7      0.00      0.09      75.2     0.34      1007.0     1.6     NNW   337   2.4     NNW   344   8.30    267      -62.8
   10/08/2017 04:40      54.7      54.5       45     33.8      0.00      0.09      75.3     0.34      1007.0     1.4     SSE   160   3.0      SE   140   8.31    267      -62.4
   10/08/2017 04:40      54.7      54.5       45     33.8      0.00      0.09      75.3     0.34      1007.0     1.4     SSE   160   3.0      SE   140   8.31    267      -62.4
   10/08/2017 04:30      54.5      53.5       46     33.7      0.00      0.09      75.2     0.34      1007.0     2.7      SE   142   3.7      SE   138   8.31    267      -62.4
   10/08/2017 04:30      54.5      53.5       46     33.7      0.00      0.09      75.2     0.34      1007.0     2.7      SE   142   3.7      SE   138   8.31    267      -62.4
   10/08/2017 04:20      54.6      54.3       46     33.9      0.00      0.09      75.3     0.34      1007.0     2.9      SE   139   3.6      SE   140   8.31    267      -62.1
   10/08/2017 04:20      54.6      54.3       46     33.9      0.00      0.09      75.3     0.34      1007.0     2.9      SE   139   3.6      SE   140   8.31    267      -62.1
   10/08/2017 04:10      54.5      54.1       44     32.8      0.00      0.09      75.6     0.34      1007.0     0.7     NNE    23   1.3      SE   133   8.31    267      -61.4
   10/08/2017 04:10      54.5      54.1       44     32.8      0.00      0.09      75.6     0.34      1007.0     0.7     NNE    23   1.3      SE   133   8.31    267      -61.4
   10/08/2017 04:00      55.0      54.3       47     34.6      0.00      0.09      75.4     0.34      1007.0     1.7     SSE   156   2.7      SE   134   8.31    267      -61.9
   10/08/2017 04:00      55.0      54.3       47     34.6      0.00      0.09      75.4     0.34      1007.0     1.7     SSE   156   2.7      SE   134   8.31    267      -61.9
   10/08/2017 03:50      55.3      55.0       45     34.2      0.00      0.09      75.3     0.34      1007.0     1.0      SE   135   1.4      SE   144   8.31    267      -61.7
   10/08/2017 03:50      55.3      55.0       45     34.2      0.00      0.09      75.3     0.34      1007.0     1.0      SE   135   1.4      SE   144   8.31    267      -61.7
   10/08/2017 03:40      55.4      55.2       43     33.2      0.00      0.09      75.5     0.34      1007.0     0.9     WSW   240   1.3     SSW   202   8.31    267      -61.9
   10/08/2017 03:40      55.4      55.2       43     33.2      0.00      0.09      75.5     0.34      1007.0     0.9     WSW   240   1.3     SSW   202   8.31    267      -61.9
   10/08/2017 03:30      55.3      54.8       45     34.0      0.00      0.09      75.4     0.34      1007.0     1.6     SSE   149   2.5     SSE   160   8.31    267      -63.5
   10/08/2017 03:30      55.3      54.8       45     34.0      0.00      0.09      75.4     0.34      1007.0     1.6     SSE   149   2.5     SSE   160   8.31    267      -63.5
   10/08/2017 03:20      55.5      55.0       42     32.4      0.00      0.09      75.6     0.34      1007.0     2.3      SE   144   3.6      SE   138   8.34    267      -63.8
   10/08/2017 03:20      55.5      55.0       42     32.4      0.00      0.09      75.6     0.34      1007.0     2.3      SE   144   3.6      SE   138   8.34    267      -63.8
   10/08/2017 03:10      55.8      55.0       42     32.9      0.00      0.09      75.5     0.34      1007.0     0.8       E    97   1.7       S   171   8.35    267      -63.4
   10/08/2017 03:10      55.8      55.0       42     32.9      0.00      0.09      75.5     0.34      1007.0     0.8       E    97   1.7       S   171   8.35    267      -63.4
   10/08/2017 03:00      56.3      55.6       42     33.5      0.00      0.09      75.6     0.34      1007.0     0.9     NNW   344   1.3     NNW   337   8.35    267      -63.3
   10/08/2017 03:00      56.3      55.6       42     33.5      0.00      0.09      75.6     0.34      1007.0     0.9     NNW   344   1.3     NNW   337   8.35    267      -63.3
   10/08/2017 02:50      56.5      56.2       43     34.1      0.00      0.09      75.7     0.34      1007.0     0.7     WNW   300   1.3     NNW   342   8.35    267      -64.2
   10/08/2017 02:50      56.5      56.2       43     34.1      0.00      0.09      75.7     0.34      1007.0     0.7     WNW   300   1.3     NNW   342   8.35    267      -64.2
   10/08/2017 02:40      56.5      55.9       41     33.0      0.00      0.09      75.5     0.34      1007.0     1.7       S   171   2.5     SSW   194   8.36    267      -63.4
   10/08/2017 02:40      56.5      55.9       41     33.0      0.00      0.09      75.5     0.34      1007.0     1.7       S   171   2.5     SSW   194   8.36    267      -63.4
   10/08/2017 02:30      57.2      56.5       39     32.5      0.00      0.09      75.8     0.34      1007.0     1.7      SE   127   2.4      SE   130   8.36    267      -64.4
   10/08/2017 02:30      57.2      56.5       39     32.5      0.00      0.09      75.8     0.34      1007.0     1.7      SE   127   2.4      SE   130   8.36    267      -64.4
   10/08/2017 02:20      57.3      56.9       38     31.8      0.00      0.09      75.6     0.34      1007.0     0.5     SSW   198   1.1       S   176   8.36    267      -63.3
   10/08/2017 02:20      57.3      56.9       38     31.8      0.00      0.09      75.6     0.34      1007.0     0.5     SSW   198   1.1       S   176   8.36    267      -63.3
   10/08/2017 02:10      57.2      56.9       38     31.5      0.00      0.09      75.7     0.34      1007.0     0.5       E    87   0.9       E    85   8.36    267      -63.5
   10/08/2017 02:10      57.2      56.9       38     31.5      0.00      0.09      75.7     0.34      1007.0     0.5       E    87   0.9       E    85   8.36    267      -63.5
   10/08/2017 02:00      57.8      57.3       39     32.6      0.00      0.09      75.7     0.34      1007.0     1.3      SE   130   2.4      SE   129   8.36    267      -64.5
   10/08/2017 02:00      57.8      57.3       39     32.6      0.00      0.09      75.7     0.34      1007.0     1.3      SE   130   2.4      SE   129   8.36    267      -64.5
   10/08/2017 01:50      58.2      57.7       38     32.5      0.00      0.09      75.5     0.34      1007.0     1.0      SE   137   1.7     SSE   163   8.36    266      -64.3
   10/08/2017 01:50      58.2      57.7       38     32.5      0.00      0.09      75.5     0.34      1007.0     1.0      SE   137   1.7     SSE   163   8.36    266      -64.3
   10/08/2017 01:40      58.4      58.2       39     33.3      0.00      0.09      75.6     0.34      1007.0     1.7      SE   130   3.5      SE   136   8.36    266      -65.8
   10/08/2017 01:40      58.4      58.2       39     33.3      0.00      0.09      75.6     0.34      1007.0     1.7      SE   130   3.5      SE   136   8.36    266      -65.8
   10/08/2017 01:30      58.6      58.3       38     33.1      0.00      0.09      75.8     0.34      1007.0     1.7     SSE   159   2.1      SE   143   8.36    267      -65.7
   10/08/2017 01:30      58.6      58.3       38     33.1      0.00      0.09      75.8     0.34      1007.0     1.7     SSE   159   2.1      SE   143   8.36    267      -65.7
   10/08/2017 01:20      58.8      58.4       36     32.0      0.00      0.09      75.8     0.34      1007.0     1.7     SSE   164   2.3     SSE   160   8.36    266      -65.4
   10/08/2017 01:20      58.8      58.4       36     32.0      0.00      0.09      75.8     0.34      1007.0     1.7     SSE   164   2.3     SSE   160   8.36    266      -65.4
   10/08/2017 01:10      58.8      58.7       36     31.9      0.00      0.09      75.7     0.34      1007.0     1.0       S   176   2.3      SE   135   8.37    266      -65.4
   10/08/2017 01:10      58.8      58.7       36     31.9      0.00      0.09      75.7     0.34      1007.0     1.0       S   176   2.3      SE   135   8.37    266      -65.4
   10/08/2017 01:00      59.7      58.7       36     32.0      0.00      0.09      75.9     0.34      1007.0     2.1      SE   137   2.5      SE   140   8.37    266      -66.1
   10/08/2017 01:00      59.7      58.7       36     32.0      0.00      0.09      75.9     0.34      1007.0     2.1      SE   137   2.5      SE   140   8.37    266      -66.1
   10/08/2017 00:50      60.1      59.8       33     31.1      0.00      0.09      75.8     0.34      1007.0     0.8       E    85   2.4      SE   130   8.37    266      -65.1
   10/08/2017 00:50      60.1      59.8       33     31.1      0.00      0.09      75.8     0.34      1007.0     0.8       E    85   2.4      SE   130   8.37    266      -65.1
   10/08/2017 00:40      60.5      60.2       33     31.1      0.00      0.09      75.7     0.34      1007.0     0.6       W   262   1.0     NNW   336   8.37    266      -64.9
   10/08/2017 00:40      60.5      60.2       33     31.1      0.00      0.09      75.7     0.34      1007.0     0.6       W   262   1.0     NNW   336   8.37    266      -64.9
   10/08/2017 00:30      60.5      60.3       34     32.0      0.00      0.09      75.8     0.34      1007.0     0.6       S   187   1.1      SE   144   8.37    266      -65.8
   10/08/2017 00:30      60.5      60.3       34     32.0      0.00      0.09      75.8     0.34      1007.0     0.6       S   187   1.1      SE   144   8.37    266      -65.8
   10/08/2017 00:20      60.6      60.4       33     31.1      0.00      0.09      75.8     0.34      1007.0     1.1       S   182   1.5      SE   145   8.37    266      -66.3
   10/08/2017 00:20      60.6      60.4       33     31.1      0.00      0.09      75.8     0.34      1007.0     1.1       S   182   1.5      SE   145   8.37    266      -66.3
   10/08/2017 00:10      60.6      60.3       34     31.9      0.00      0.09      75.8     0.34      1007.0     1.4       S   172   1.8     SSE   150   8.37    266      -67.7
   10/08/2017 00:10      60.6      60.3       34     31.9      0.00      0.09      75.8     0.34      1007.0     1.4       S   172   1.8     SSE   150   8.37    266      -67.7
   10/08/2017 00:00      60.9      60.6       34     32.0      0.00      0.09      75.9     0.34      1008.0     1.9      SE   140   2.5      SE   130   8.37    266      -69.0
   10/08/2017 00:00      60.9      60.6       34     32.0      0.00      0.09      75.9     0.34      1008.0     1.9      SE   140   2.5      SE   130   8.37    266      -69.0
   10/07/2017 23:50      62.0      61.3       33     32.0      0.00      0.09      75.7     0.34      1008.0     1.2     SSE   149   2.2      SE   134   8.37    266      -68.8
   10/07/2017 23:50      62.0      61.3       33     32.0      0.00      0.09      75.7     0.34      1008.0     1.2     SSE   149   2.2      SE   134   8.37    266      -68.8
   10/07/2017 23:40      62.4      62.1       31     31.6      0.00      0.09      76.0     0.34      1008.0     0.6     WSW   248   1.0      SW   235   8.37    266      -69.3
   10/07/2017 23:40      62.4      62.1       31     31.6      0.00      0.09      76.0     0.34      1008.0     0.6     WSW   248   1.0      SW   235   8.37    266      -69.3
   10/07/2017 23:30      63.1      62.7       32     32.3      0.00      0.09      75.9     0.34      1008.0     1.5     ESE   122   2.6      SE   129   8.40    266      -71.0
   10/07/2017 23:30      63.1      62.7       32     32.3      0.00      0.09      75.9     0.34      1008.0     1.5     ESE   122   2.6      SE   129   8.40    266      -71.0
   10/07/2017 23:20      62.7      62.4       32     31.9      0.00      0.09      75.8     0.34      1008.0     1.3     SSE   150   2.2       S   175   8.41    266      -71.4
   10/07/2017 23:20      62.7      62.4       32     31.9      0.00      0.09      75.8     0.34      1008.0     1.3     SSE   150   2.2       S   175   8.41    266      -71.4
   10/07/2017 23:10      62.8      62.3       32     32.3      0.00      0.09      75.9     0.34      1008.0     3.1      SE   142   4.8      SE   139   8.42    266      -73.1
   10/07/2017 23:10      62.8      62.3       32     32.3      0.00      0.09      75.9     0.34      1008.0     3.1      SE   142   4.8      SE   139   8.42    266      -73.1
   10/07/2017 23:00      62.7      62.4       32     32.0      0.00      0.09      75.9     0.34      1008.0     1.8     SSE   164   2.6     SSE   155   8.42    266      -72.3
   10/07/2017 23:00      62.7      62.4       32     32.0      0.00      0.09      75.9     0.34      1008.0     1.8     SSE   164   2.6     SSE   155   8.42    266      -72.3
   10/07/2017 22:50      64.6      62.8       30     31.5      0.00      0.09      75.8     0.34      1008.0     2.3      SE   142   2.9      SE   145   8.43    266      -72.8
   10/07/2017 22:50      64.6      62.8       30     31.5      0.00      0.09      75.8     0.34      1008.0     2.3      SE   142   2.9      SE   145   8.43    266      -72.8
   10/07/2017 22:40      64.7      64.2       28     30.6      0.00      0.09      75.8     0.34      1008.0     0.8       S   189   1.2     SSW   204   8.43    266      -72.4
   10/07/2017 22:40      64.7      64.2       28     30.6      0.00      0.09      75.8     0.34      1008.0     0.8       S   189   1.2     SSW   204   8.43    266      -72.4
   10/07/2017 22:30      65.5      64.9       26     29.9      0.00      0.09      75.8     0.34      1008.0     0.9     WNW   301   1.6     WSW   255   8.44    266      -72.2
   10/07/2017 22:30      65.5      64.9       26     29.9      0.00      0.09      75.8     0.34      1008.0     0.9     WNW   301   1.6     WSW   255   8.44    266      -72.2
   10/07/2017 22:20      65.3      65.2       27     30.0      0.00      0.09      75.8     0.34      1007.0     0.5     WNW   287   0.7       N     0   8.44    266      -72.2
   10/07/2017 22:20      65.3      65.2       27     30.0      0.00      0.09      75.8     0.34      1007.0     0.5     WNW   287   0.7       N     0   8.44    266      -72.2
   10/07/2017 22:10      65.8      65.5       26     30.0      0.00      0.09      75.8     0.34      1007.0     0.8     WNW   299   1.4     NNW   328   8.44    265      -72.6
   10/07/2017 22:10      65.8      65.5       26     30.0      0.00      0.09      75.8     0.34      1007.0     0.8     WNW   299   1.4     NNW   328   8.44    265      -72.6
   10/07/2017 22:00      66.1      65.6       28     32.2      0.00      0.09      75.8     0.34      1007.0     1.0     ESE   106   1.5      SE   136   8.44    265      -74.0
   10/07/2017 22:00      66.1      65.6       28     32.2      0.00      0.09      75.8     0.34      1007.0     1.0     ESE   106   1.5      SE   136   8.44    265      -74.0
   10/07/2017 21:50      67.2      66.2       27     31.7      0.00      0.09      75.7     0.34      1007.0     2.0      SE   125   3.1      SE   136   8.44    265      -75.7
   10/07/2017 21:50      67.2      66.2       27     31.7      0.00      0.09      75.7     0.34      1007.0     2.0      SE   125   3.1      SE   136   8.44    265      -75.7
   10/07/2017 21:40      67.7      67.0       25     30.8      0.00      0.09      75.8     0.34      1008.0     2.1       S   188   3.3      SE   136   8.44    265      -74.5
   10/07/2017 21:40      67.7      67.0       25     30.8      0.00      0.09      75.8     0.34      1008.0     2.1       S   188   3.3      SE   136   8.44    265      -74.5
   10/07/2017 21:30      67.6      67.1       26     31.3      0.00      0.09      75.7     0.34      1008.0     0.8       S   175   1.4     SSW   197   8.44    265      -75.9
   10/07/2017 21:30      67.6      67.1       26     31.3      0.00      0.09      75.7     0.34      1008.0     0.8       S   175   1.4     SSW   197   8.44    265      -75.9
   10/07/2017 21:20      68.7      67.9       26     31.7      0.00      0.09      75.7     0.34      1007.0     1.4     ENE    72   1.9     ESE   111   8.44    265      -77.6
   10/07/2017 21:20      68.7      67.9       26     31.7      0.00      0.09      75.7     0.34      1007.0     1.4     ENE    72   1.9     ESE   111   8.44    265      -77.6
   10/07/2017 21:10      69.3      68.8       25     31.6      0.00      0.09      75.7     0.34      1007.0     1.1      SE   129   2.1     ESE   114   8.45    265      -77.8
   10/07/2017 21:10      69.3      68.8       25     31.6      0.00      0.09      75.7     0.34      1007.0     1.1      SE   129   2.1     ESE   114   8.45    265      -77.8
   10/07/2017 21:00      70.2      69.3       25     32.0      0.00      0.09      75.7     0.34      1007.0     2.0     SSE   153   2.7       S   182   8.45    265      -80.7
   10/07/2017 21:00      70.2      69.3       25     32.0      0.00      0.09      75.7     0.34      1007.0     2.0     SSE   153   2.7       S   182   8.45    265      -80.7
   10/07/2017 20:50      70.9      70.3       24     32.2      0.00      0.09      75.7     0.34      1007.0     2.7       S   189   3.2       S   186   8.45    265      -81.9
   10/07/2017 20:50      70.9      70.3       24     32.2      0.00      0.09      75.7     0.34      1007.0     2.7       S   189   3.2       S   186   8.45    265      -81.9
   10/07/2017 20:40      72.2      71.1       23     32.0      0.00      0.09      75.6     0.34      1007.0     3.7       S   186   5.1       S   189   8.45    265      -82.4
   10/07/2017 20:40      72.2      71.1       23     32.0      0.00      0.09      75.6     0.34      1007.0     3.7       S   186   5.1       S   189   8.45    265      -82.4
   10/07/2017 20:30      74.7      72.4       21     31.3      0.00      0.09      75.7     0.34      1007.0     4.0       S   189   5.0       S   190   8.45    265      -83.1
   10/07/2017 20:30      74.7      72.4       21     31.3      0.00      0.09      75.7     0.34      1007.0     4.0       S   189   5.0       S   190   8.45    265      -83.1
   10/07/2017 20:20      74.8      73.1       19     29.7      0.00      0.09      75.6     0.34      1007.0     3.4     SSW   198   4.3     SSW   210   8.45    265      -83.1
   10/07/2017 20:20      74.8      73.1       19     29.7      0.00      0.09      75.6     0.34      1007.0     3.4     SSW   198   4.3     SSW   210   8.45    265      -83.1
   10/07/2017 20:10      73.3      72.9       19     28.7      0.00      0.09      75.5     0.34      1007.0     2.0     WSW   238   3.0     SSW   213   8.45    264      -80.8
   10/07/2017 20:10      73.3      72.9       19     28.7      0.00      0.09      75.5     0.34      1007.0     2.0     WSW   238   3.0     SSW   213   8.45    264      -80.8
   10/07/2017 20:00      74.6      73.2       19     28.7      0.00      0.09      75.5     0.34      1007.0     2.1     SSW   210   2.6     SSW   213   8.45    265      -81.5
   10/07/2017 20:00      74.6      73.2       19     28.7      0.00      0.09      75.5     0.34      1007.0     2.1     SSW   210   2.6     SSW   213   8.45    265      -81.5
   10/07/2017 19:50      76.1      74.9       17     27.9      0.00      0.09      75.4     0.34      1007.0     1.7      SW   228   2.3      SW   219   8.45    264      -82.3
   10/07/2017 19:50      76.1      74.9       17     27.9      0.00      0.09      75.4     0.34      1007.0     1.7      SW   228   2.3      SW   219   8.45    264      -82.3
   10/07/2017 19:40      77.3      76.2       16     27.2      0.00      0.09      75.5     0.34      1007.0     1.7      SW   229   2.3      SW   221   8.45    264      -84.1
   10/07/2017 19:40      77.3      76.2       16     27.2      0.00      0.09      75.5     0.34      1007.0     1.7      SW   229   2.3      SW   221   8.45    264      -84.1
   10/07/2017 19:30      79.2      77.6       14     25.9      0.00      0.09      75.5     0.34      1007.0     1.7     WSW   237   2.5      SW   219   8.45    264      -87.1
   10/07/2017 19:30      79.2      77.6       14     25.9      0.00      0.09      75.5     0.34      1007.0     1.7     WSW   237   2.5      SW   219   8.45    264      -87.1
   10/07/2017 19:20      80.3      79.3       13     24.6      0.00      0.09      75.4     0.34      1007.0     2.8      SW   217   3.9     WSW   245   8.45    264      -91.5
   10/07/2017 19:20      80.3      79.3       13     24.6      0.00      0.09      75.4     0.34      1007.0     2.8      SW   217   3.9     WSW   245   8.45    264      -91.5
   10/07/2017 19:10      81.4      80.4       13     24.6      0.00      0.09      75.2     0.34      1007.0     3.2      SW   220   4.9      SW   227   8.45    264      -94.2
   10/07/2017 19:10      81.4      80.4       13     24.6      0.00      0.09      75.2     0.34      1007.0     3.2      SW   220   4.9      SW   227   8.45    264      -94.2
   10/07/2017 19:00      82.1      81.3       12     23.7      0.00      0.09      75.4     0.34      1007.0     3.7      SW   223   7.4     WSW   237   8.46    264      -98.0
   10/07/2017 19:00      82.1      81.3       12     23.7      0.00      0.09      75.4     0.34      1007.0     3.7      SW   223   7.4     WSW   237   8.46    264      -98.0
   10/07/2017 18:50      82.9      82.1       11     23.3      0.00      0.09      75.2     0.34      1007.0     2.8      SW   220   3.8      SW   232   8.46    264      -99.2
   10/07/2017 18:50      82.9      82.1       11     23.3      0.00      0.09      75.2     0.34      1007.0     2.8      SW   220   3.8      SW   232   8.46    264      -99.2
   10/07/2017 18:40      84.3      83.0       11     22.6      0.00      0.09      75.2     0.34      1007.0     2.8      SW   222   5.4     WSW   240   8.46    264     -100.4
   10/07/2017 18:40      84.3      83.0       11     22.6      0.00      0.09      75.2     0.34      1007.0     2.8      SW   222   5.4     WSW   240   8.46    264     -100.4
   10/07/2017 18:30      85.1      84.5        9     20.7      0.00      0.09      75.2     0.34      1007.0     4.0      SW   234   5.3     WSW   244   8.46    264     -101.4
   10/07/2017 18:30      85.1      84.5        9     20.7      0.00      0.09      75.2     0.34      1007.0     4.0      SW   234   5.3     WSW   244   8.46    264     -101.4
   10/07/2017 18:20      86.1      85.5        9     20.4      0.00      0.09      75.2     0.34      1007.0     6.3      SW   234   9.1      SW   218   8.46    264     -100.2
   10/07/2017 18:20      86.1      85.5        9     20.4      0.00      0.09      75.2     0.34      1007.0     6.3      SW   234   9.1      SW   218   8.46    264     -100.2
   10/07/2017 18:10      87.1      86.2        9     20.9      0.00      0.09      75.0     0.34      1007.0     4.5      SW   230   6.7      SW   230   8.46    264      -98.0
   10/07/2017 18:10      87.1      86.2        9     20.9      0.00      0.09      75.0     0.34      1007.0     4.5      SW   230   6.7      SW   230   8.46    264      -98.0
   10/07/2017 18:00      88.2      87.3        8     20.6      0.00      0.09      75.1     0.34      1007.0     5.5     WSW   237   9.4     WNW   284   8.46    264      -80.0
   10/07/2017 18:00      88.2      87.3        8     20.6      0.00      0.09      75.1     0.34      1007.0     5.5     WSW   237   9.4     WNW   284   8.46    264      -80.0
   10/07/2017 17:50      89.1      88.5        8     20.1      0.00      0.09      75.1     0.34      1007.0     6.2     WSW   241  10.2     WSW   247   8.46    264      -59.8
   10/07/2017 17:50      89.1      88.5        8     20.1      0.00      0.09      75.1     0.34      1007.0     6.2     WSW   241  10.2     WSW   247   8.46    264      -59.8
   10/07/2017 17:40      89.8      89.2        8     19.9      0.00      0.09      74.9     0.34      1007.0     6.4     WSW   255  11.7      SW   235   8.47    264      -38.0
   10/07/2017 17:40      89.8      89.2        8     19.9      0.00      0.09      74.9     0.34      1007.0     6.4     WSW   255  11.7      SW   235   8.47    264      -38.0
   10/07/2017 17:30      90.7      90.2        8     20.1      0.00      0.09      74.7     0.34      1007.0     6.2       W   264  11.2       W   272   8.47    264      -17.9
   10/07/2017 17:30      90.7      90.2        8     20.1      0.00      0.09      74.7     0.34      1007.0     6.2       W   264  11.2       W   272   8.47    264      -17.9
   10/07/2017 17:20      91.1      90.7        7     19.7      0.00      0.09      74.7     0.34      1007.0     7.6     WSW   257   9.5      SW   236   8.47    264        5.6
   10/07/2017 17:20      91.1      90.7        7     19.7      0.00      0.09      74.7     0.34      1007.0     7.6     WSW   257   9.5      SW   236   8.47    264        5.6
   10/07/2017 17:10      91.8      91.5        7     19.8      0.00      0.09      74.8     0.34      1007.0     6.7       W   271  14.8       W   260   8.47    264       27.6
   10/07/2017 17:10      91.8      91.5        7     19.8      0.00      0.09      74.8     0.34      1007.0     6.7       W   271  14.8       W   260   8.47    264       27.6
   10/07/2017 17:00      92.1      91.8        7     20.4      0.00      0.09      74.7     0.34      1007.0     6.1       W   272  10.7      NW   320   8.48    264       51.6
   10/07/2017 17:00      92.1      91.8        7     20.4      0.00      0.09      74.7     0.34      1007.0     6.1       W   272  10.7      NW   320   8.48    264       51.6
   10/07/2017 16:50      92.8      92.1        7     21.1      0.00      0.09      74.5     0.34      1007.0     7.4       W   267  11.4     WSW   244   8.48    264       79.3
   10/07/2017 16:50      92.8      92.1        7     21.1      0.00      0.09      74.5     0.34      1007.0     7.4       W   267  11.4     WSW   244   8.48    264       79.3
   10/07/2017 16:40      93.0      92.8        8     21.7      0.00      0.09      74.6     0.34      1007.0     8.0       W   259  11.0     WSW   246   8.48    265      105.3
   10/07/2017 16:40      93.0      92.8        8     21.7      0.00      0.09      74.6     0.34      1007.0     8.0       W   259  11.0     WSW   246   8.48    265      105.3
   10/07/2017 16:30      94.0      92.8        8     22.6      0.00      0.09      74.8     0.34      1007.0     6.3     WSW   258   8.8     WSW   254   8.48    265      130.5
   10/07/2017 16:30      94.0      92.8        8     22.6      0.00      0.09      74.8     0.34      1007.0     6.3     WSW   258   8.8     WSW   254   8.48    265      130.5
   10/07/2017 16:20      94.0      93.1        8     24.2      0.00      0.09      74.7     0.34      1007.0     4.9       W   280   8.0       W   274   8.49    265      155.2
   10/07/2017 16:20      94.0      93.1        8     24.2      0.00      0.09      74.7     0.34      1007.0     4.9       W   280   8.0       W   274   8.49    265      155.2
   10/07/2017 16:10      94.0      93.2        9     25.3      0.00      0.09      74.3     0.34      1007.0     7.5     WSW   257   9.7       W   263   8.54    265      180.5
   10/07/2017 16:10      94.0      93.2        9     25.3      0.00      0.09      74.3     0.34      1007.0     7.5     WSW   257   9.7       W   263   8.54    265      180.5
   10/07/2017 16:00      94.3      93.6        9     27.5      0.00      0.09      74.4     0.34      1007.0     6.7      SW   233   8.6      SW   232   8.55    265      192.2
   10/07/2017 16:00      94.3      93.6        9     27.5      0.00      0.09      74.4     0.34      1007.0     6.7      SW   233   8.6      SW   232   8.55    265      192.2
   10/07/2017 15:50      94.9      94.3       10     28.9      0.00      0.09      74.3     0.34      1007.0     6.2     WSW   247   8.6      SW   235   8.55    265      206.9
   10/07/2017 15:50      94.9      94.3       10     28.9      0.00      0.09      74.3     0.34      1007.0     6.2     WSW   247   8.6      SW   235   8.55    265      206.9
   10/07/2017 15:40      95.0      94.4       10     28.8      0.00      0.09      74.3     0.34      1007.0     8.2     SSW   209  12.3     WSW   249   8.55    265      227.5
   10/07/2017 15:40      95.0      94.4       10     28.8      0.00      0.09      74.3     0.34      1007.0     8.2     SSW   209  12.3     WSW   249   8.55    265      227.5
   10/07/2017 15:30      95.9      94.8        9     27.6      0.00      0.09      74.2     0.34      1007.0     8.3     SSW   212  11.1     WSW   242   8.56    265      245.2
   10/07/2017 15:30      95.9      94.8        9     27.6      0.00      0.09      74.2     0.34      1007.0     8.3     SSW   212  11.1     WSW   242   8.56    265      245.2
   10/07/2017 15:20      96.5      95.4        8     26.6      0.00      0.09      74.0     0.34      1007.0     7.4      SW   236  10.9      SW   232   8.56    266      262.3
   10/07/2017 15:20      96.5      95.4        8     26.6      0.00      0.09      74.0     0.34      1007.0     7.4      SW   236  10.9      SW   232   8.56    266      262.3
   10/07/2017 15:10      97.7      96.9        7     24.0      0.00      0.09      74.0     0.34      1007.0     5.1       W   268   9.1     WSW   249   8.56    266      283.9
   10/07/2017 15:10      97.7      96.9        7     24.0      0.00      0.09      74.0     0.34      1007.0     5.1       W   268   9.1     WSW   249   8.56    266      283.9
   10/07/2017 15:00      99.0      97.8        7     25.1      0.00      0.09      73.9     0.34      1007.0     6.5     WNW   302  10.7      NW   312   8.56    266      306.5
   10/07/2017 15:00      99.0      97.8        7     25.1      0.00      0.09      73.9     0.34      1007.0     6.5     WNW   302  10.7      NW   312   8.56    266      306.5
   10/07/2017 14:50      99.6      97.0        8     25.6      0.00      0.09      73.8     0.34      1007.0     2.3       W   271   4.2     WSW   239   8.56    266      319.6
   10/07/2017 14:50      99.6      97.0        8     25.6      0.00      0.09      73.8     0.34      1007.0     2.3       W   271   4.2     WSW   239   8.56    266      319.6
   10/07/2017 14:40      98.4      96.8        8     26.1      0.00      0.09      74.0     0.34      1007.0     3.8      SE   128   6.5       E    96   8.56    266      336.4
   10/07/2017 14:40      98.4      96.8        8     26.1      0.00      0.09      74.0     0.34      1007.0     3.8      SE   128   6.5       E    96   8.56    266      336.4
   10/07/2017 14:30      98.7      98.0        8     26.7      0.00      0.09      74.0     0.34      1008.0     3.1      NE    51   7.4      SE   124   8.57    266      347.5
   10/07/2017 14:30      98.7      98.0        8     26.7      0.00      0.09      74.0     0.34      1008.0     3.1      NE    51   7.4      SE   124   8.57    266      347.5
   10/07/2017 14:20      98.2      97.3        8     27.2      0.00      0.09      73.9     0.34      1008.0     4.2      NE    38  10.5     ESE   110   8.57    266      360.1
   10/07/2017 14:20      98.2      97.3        8     27.2      0.00      0.09      73.9     0.34      1008.0     4.2      NE    38  10.5     ESE   110   8.57    266      360.1
   10/07/2017 14:10      97.8      97.3        8     27.4      0.00      0.09      73.9     0.34      1008.0     3.8       E    92   6.1     ESE   119   8.57    266      373.4
   10/07/2017 14:10      97.8      97.3        8     27.4      0.00      0.09      73.9     0.34      1008.0     3.8       E    92   6.1     ESE   119   8.57    266      373.4
   10/07/2017 14:00      98.4      97.7        8     27.8      0.00      0.09      73.7     0.34      1008.0     3.0     NNE    26   5.6     ENE    73   8.57    266      382.4
   10/07/2017 14:00      98.4      97.7        8     27.8      0.00      0.09      73.7     0.34      1008.0     3.0     NNE    26   5.6     ENE    73   8.57    266      382.4
   10/07/2017 13:50      98.2      95.8        8     26.9      0.00      0.09      73.7     0.34      1008.0     3.4      NE    34   5.4     ENE    77   8.57    266      393.9
   10/07/2017 13:50      98.2      95.8        8     26.9      0.00      0.09      73.7     0.34      1008.0     3.4      NE    34   5.4     ENE    77   8.57    266      393.9
   10/07/2017 13:40      97.6      95.5        8     25.4      0.00      0.09      73.8     0.34      1008.0     3.2       S   176   6.6      SW   217   8.57    266      407.5
   10/07/2017 13:40      97.6      95.5        8     25.4      0.00      0.09      73.8     0.34      1008.0     3.2       S   176   6.6      SW   217   8.57    266      407.5
   10/07/2017 13:30      98.4      96.1        8     26.2      0.00      0.09      73.8     0.33      1008.0     2.6     NNE    30   4.1     NNE    17   8.57    266      414.2
   10/07/2017 13:30      98.4      96.1        8     26.2      0.00      0.09      73.8     0.33      1008.0     2.6     NNE    30   4.1     NNE    17   8.57    266      414.2
   10/07/2017 13:20      96.6      96.0        8     25.4      0.00      0.09      73.7     0.33      1009.0     3.3      NE    55   4.7      NE    47   8.57    266      422.6
   10/07/2017 13:20      96.6      96.0        8     25.4      0.00      0.09      73.7     0.33      1009.0     3.3      NE    55   4.7      NE    47   8.57    266      422.6
   10/07/2017 13:10      95.8      95.0        8     24.5      0.00      0.09      73.7     0.33      1009.0     3.1     SSE   162   5.2      SE   131   8.57    267      429.4
   10/07/2017 13:10      95.8      95.0        8     24.5      0.00      0.09      73.7     0.33      1009.0     3.1     SSE   162   5.2      SE   131   8.57    267      429.4
   10/07/2017 13:00      96.2      95.6        8     25.8      0.00      0.09      73.7     0.33      1009.0     3.0       N    10   6.3     NNW   343   8.57    266      432.5
   10/07/2017 13:00      96.2      95.6        8     25.8      0.00      0.09      73.7     0.33      1009.0     3.0       N    10   6.3     NNW   343   8.57    266      432.5
   10/07/2017 12:50      95.7      94.0        8     25.3      0.00      0.09      73.5     0.33      1009.0     2.4     NNW   340   4.3      NW   319   8.57    267      436.3
   10/07/2017 12:50      95.7      94.0        8     25.3      0.00      0.09      73.5     0.33      1009.0     2.4     NNW   340   4.3      NW   319   8.57    267      436.3
   10/07/2017 12:40      95.0      94.1        8     24.9      0.00      0.09      73.6     0.33      1009.0     3.4     ENE    73   5.0       E    82   8.57    267      438.9
   10/07/2017 12:40      95.0      94.1        8     24.9      0.00      0.09      73.6     0.33      1009.0     3.4     ENE    73   5.0       E    82   8.57    267      438.9
   10/07/2017 12:30      95.2      92.8        8     24.7      0.00      0.09      73.6     0.33      1010.0     2.2     NNE    32   4.4     ENE    59   8.57    267      436.5
   10/07/2017 12:30      95.2      92.8        8     24.7      0.00      0.09      73.6     0.33      1010.0     2.2     NNE    32   4.4     ENE    59   8.57    267      436.5
   10/07/2017 12:20      93.0      92.2        9     24.3      0.00      0.09      73.7     0.33      1010.0     2.4       N   350   4.2      NW   326   8.57    266      436.7
   10/07/2017 12:20      93.0      92.2        9     24.3      0.00      0.09      73.7     0.33      1010.0     2.4       N   350   4.2      NW   326   8.57    266      436.7
   10/07/2017 12:10      93.5      92.4        8     24.3      0.00      0.09      73.8     0.33      1010.0     3.6     NNE    23   5.6       N     2   8.57    267      435.7
   10/07/2017 12:10      93.5      92.4        8     24.3      0.00      0.09      73.8     0.33      1010.0     3.6     NNE    23   5.6       N     2   8.57    267      435.7
   10/07/2017 12:00      93.2      91.9        9     24.0      0.00      0.09      73.6     0.33      1010.0     1.8     NNE    19   3.7       N   353   8.57    267      433.1
   10/07/2017 12:00      93.2      91.9        9     24.0      0.00      0.09      73.6     0.33      1010.0     1.8     NNE    19   3.7       N   353   8.57    267      433.1
   10/07/2017 11:50      92.2      91.2        9     24.7      0.00      0.09      73.7     0.33      1010.0     2.9       N   349   4.6     NNW   348   8.57    267      429.3
   10/07/2017 11:50      92.2      91.2        9     24.7      0.00      0.09      73.7     0.33      1010.0     2.9       N   349   4.6     NNW   348   8.57    267      429.3
   10/07/2017 11:40      91.8      90.3        9     23.8      0.00      0.09      73.7     0.33      1010.0     2.2      NE    50   3.6     NNE    17   8.57    267      424.8
   10/07/2017 11:40      91.8      90.3        9     23.8      0.00      0.09      73.7     0.33      1010.0     2.2      NE    50   3.6     NNE    17   8.57    267      424.8
   10/07/2017 11:30      90.7      90.1        9     24.6      0.00      0.09      73.8     0.33      1011.0     3.2       N   355   4.8       N   359   8.57    267      419.4
   10/07/2017 11:30      90.7      90.1        9     24.6      0.00      0.09      73.8     0.33      1011.0     3.2       N   355   4.8       N   359   8.57    267      419.4
   10/07/2017 11:20      90.3      88.7       10     25.4      0.00      0.09      73.7     0.33      1011.0     2.5     NNE    11   3.5       N   357   8.57    267      411.9
   10/07/2017 11:20      90.3      88.7       10     25.4      0.00      0.09      73.7     0.33      1011.0     2.5     NNE    11   3.5       N   357   8.57    267      411.9
   10/07/2017 11:10      89.1      88.5       11     26.5      0.00      0.09      74.0     0.33      1011.0     2.8       N   351   4.0       N     3   8.57    267      402.8
   10/07/2017 11:10      89.1      88.5       11     26.5      0.00      0.09      74.0     0.33      1011.0     2.8       N   351   4.0       N     3   8.57    267      402.8
   10/07/2017 11:00      89.3      88.1       11     26.5      0.00      0.09      73.8     0.33      1011.0     1.6       N   358   2.5     NNE    23   8.57    267      394.4
   10/07/2017 11:00      89.3      88.1       11     26.5      0.00      0.09      73.8     0.33      1011.0     1.6       N   358   2.5     NNE    23   8.57    267      394.4
   10/07/2017 10:50      88.4      87.8       11     26.8      0.00      0.09      73.9     0.34      1011.0     2.3      NE    41   3.8      NE    34   8.58    267      385.0
   10/07/2017 10:50      88.4      87.8       11     26.8      0.00      0.09      73.9     0.34      1011.0     2.3      NE    41   3.8      NE    34   8.58    267      385.0
   10/07/2017 10:40      88.2      85.4       14     31.3      0.00      0.09      73.8     0.34      1011.0     1.5     ENE    74   3.1      SE   139   8.57    268      374.4
   10/07/2017 10:40      88.2      85.4       14     31.3      0.00      0.09      73.8     0.34      1011.0     1.5     ENE    74   3.1      SE   139   8.57    268      374.4
   10/07/2017 10:30      85.4      83.3       16     33.0      0.00      0.09      73.9     0.34      1011.0     1.6     NNE    21   2.9       N     0   8.57    268      360.0
   10/07/2017 10:30      85.4      83.3       16     33.0      0.00      0.09      73.9     0.34      1011.0     1.6     NNE    21   2.9       N     0   8.57    268      360.0
   10/07/2017 10:20      83.1      82.4       16     31.5      0.00      0.09      73.9     0.34      1011.0     2.5       N    10   3.2     NNE    23   8.58    269      346.2
   10/07/2017 10:20      83.1      82.4       16     31.5      0.00      0.09      73.9     0.34      1011.0     2.5       N    10   3.2     NNE    23   8.58    269      346.2
   10/07/2017 10:10      82.4      81.3       16     31.6      0.00      0.09      73.9     0.34      1011.0     2.4       N     4   3.1       N     5   8.58    269      331.9
   10/07/2017 10:10      82.4      81.3       16     31.6      0.00      0.09      73.9     0.34      1011.0     2.4       N     4   3.1       N     5   8.58    269      331.9
   10/07/2017 10:00      81.3      80.8       17     32.0      0.00      0.09      73.9     0.34      1011.0     2.2       N   359   3.1       N    11   8.58    268      317.1
   10/07/2017 10:00      81.3      80.8       17     32.0      0.00      0.09      73.9     0.34      1011.0     2.2       N   359   3.1       N    11   8.58    268      317.1
   10/07/2017 09:50      80.6      78.9       18     32.7      0.00      0.09      74.0     0.34      1011.0     1.4     NNW   333   2.0       N   359   8.69    268      302.2
   10/07/2017 09:50      80.6      78.9       18     32.7      0.00      0.09      74.0     0.34      1011.0     1.4     NNW   333   2.0       N   359   8.69    268      302.2
   10/07/2017 09:40      78.7      76.9       20     34.0      0.00      0.09      74.1     0.34      1011.0     1.6       N   349   2.1       N     0   8.70    269      286.5
   10/07/2017 09:40      78.7      76.9       20     34.0      0.00      0.09      74.1     0.34      1011.0     1.6       N   349   2.1       N     0   8.70    269      286.5
   10/07/2017 09:30      77.0      75.6       24     36.5      0.00      0.09      74.2     0.34      1011.0     1.7     NNW   342   2.1     NNW   342   8.70    269      270.4
   10/07/2017 09:30      77.0      75.6       24     36.5      0.00      0.09      74.2     0.34      1011.0     1.7     NNW   342   2.1     NNW   342   8.70    269      270.4
   10/07/2017 09:20      75.7      74.2       26     37.3      0.00      0.09      74.2     0.34      1011.0     1.0     NNW   344   1.5     NNW   348   8.71    269      255.4
   10/07/2017 09:20      75.7      74.2       26     37.3      0.00      0.09      74.2     0.34      1011.0     1.0     NNW   344   1.5     NNW   348   8.71    269      255.4
   10/07/2017 09:10      74.0      71.6       28     37.8      0.00      0.09      74.1     0.34      1011.0     1.0      NE    43   1.9       E    79   8.71    268      238.9
   10/07/2017 09:10      74.0      71.6       28     37.8      0.00      0.09      74.1     0.34      1011.0     1.0      NE    43   1.9       E    79   8.71    268      238.9
   10/07/2017 09:00      71.5      71.0       29     37.8      0.00      0.09      74.2     0.34      1011.0     1.6     NNW   347   2.5       N   350   8.72    268      212.9
   10/07/2017 09:00      71.5      71.0       29     37.8      0.00      0.09      74.2     0.34      1011.0     1.6     NNW   347   2.5       N   350   8.72    268      212.9
   10/07/2017 08:50      71.6      70.2       28     36.1      0.00      0.09      74.3     0.34      1011.0     1.3     NNE    14   1.7      NE    37   8.72    269      207.6
   10/07/2017 08:50      71.6      70.2       28     36.1      0.00      0.09      74.3     0.34      1011.0     1.3     NNE    14   1.7      NE    37   8.72    269      207.6
   10/07/2017 08:40      69.7      68.5       28     34.6      0.00      0.09      74.2     0.34      1011.0     1.0      NE    38   1.8       N     3   8.72    269      182.5
   10/07/2017 08:40      69.7      68.5       28     34.6      0.00      0.09      74.2     0.34      1011.0     1.0      NE    38   1.8       N     3   8.72    269      182.5
   10/07/2017 08:30      68.5      67.7       28     34.1      0.00      0.09      74.1     0.34      1011.0     0.4     ESE   113   0.9      SE   146   8.72    268      136.0
   10/07/2017 08:30      68.5      67.7       28     34.1      0.00      0.09      74.1     0.34      1011.0     0.4     ESE   113   0.9      SE   146   8.72    268      136.0
   10/07/2017 08:20      67.7      65.6       29     33.9      0.00      0.09      74.3     0.34      1011.0     0.6     NNE    31   1.4     NNE    27   8.72    268      107.3
   10/07/2017 08:20      67.7      65.6       29     33.9      0.00      0.09      74.3     0.34      1011.0     0.6     NNE    31   1.4     NNE    27   8.72    268      107.3
   10/07/2017 08:10      65.5      62.4       31     33.0      0.00      0.09      74.5     0.34      1011.0     1.1       N     2   1.8       N     3   8.72    268      107.5
   10/07/2017 08:10      65.5      62.4       31     33.0      0.00      0.09      74.5     0.34      1011.0     1.1       N     2   1.8       N     3   8.72    268      107.5
   10/07/2017 08:00      62.0      59.5       34     32.4      0.00      0.09      74.2     0.34      1011.0     0.4     WNW   289   0.6       W   272   8.72    268       50.8
   10/07/2017 08:00      62.0      59.5       34     32.4      0.00      0.09      74.2     0.34      1011.0     0.4     WNW   289   0.6       W   272   8.72    268       50.8
   10/07/2017 07:50      59.3      56.0       36     30.5      0.00      0.09      74.5     0.34      1011.0     0.6      SE   142   1.2     SSE   168   8.72    268        9.7
   10/07/2017 07:50      59.3      56.0       36     30.5      0.00      0.09      74.5     0.34      1011.0     0.6      SE   142   1.2     SSE   168   8.72    268        9.7
   10/07/2017 07:40      56.0      55.4       39     31.3      0.00      0.09      74.5     0.34      1011.0     1.1       E    96   1.6       E    80   8.73    267      -34.5
   10/07/2017 07:40      56.0      55.4       39     31.3      0.00      0.09      74.5     0.34      1011.0     1.1       E    96   1.6       E    80   8.73    267      -34.5
   10/07/2017 07:30      55.4      53.5       37     28.8      0.00      0.09      74.6     0.34      1011.0     0.7     WNW   286   1.5     NNW   344   8.73    267      -43.5
   10/07/2017 07:30      55.4      53.5       37     28.8      0.00      0.09      74.6     0.34      1011.0     0.7     WNW   286   1.5     NNW   344   8.73    267      -43.5
   10/07/2017 07:20      53.7      53.1       39     28.7      0.00      0.09      74.5     0.34      1011.0     0.8     SSE   149   1.3     SSE   168   8.73    267      -45.6
   10/07/2017 07:20      53.7      53.1       39     28.7      0.00      0.09      74.5     0.34      1011.0     0.8     SSE   149   1.3     SSE   168   8.73    267      -45.6
   10/07/2017 07:10      53.3      53.1       39     28.8      0.00      0.09      74.4     0.34      1011.0     0.4       S   177   0.7     WNW   288   8.73    267      -48.0
   10/07/2017 07:10      53.3      53.1       39     28.8      0.00      0.09      74.4     0.34      1011.0     0.4       S   177   0.7     WNW   288   8.73    267      -48.0
   10/07/2017 07:00      53.5      53.2       38     28.2      0.00      0.09      74.6     0.34      1011.0     1.3      SE   124   2.1      SE   143   8.73    267      -53.1
   10/07/2017 07:00      53.5      53.2       38     28.2      0.00      0.09      74.6     0.34      1011.0     1.3      SE   124   2.1      SE   143   8.73    267      -53.1
   10/07/2017 06:50      53.8      53.4       36     27.0      0.00      0.09      74.7     0.34      1011.0     1.2      SE   129   2.1     SSE   147   8.73    267      -55.3
   10/07/2017 06:50      53.8      53.4       36     27.0      0.00      0.09      74.7     0.34      1011.0     1.2      SE   129   2.1     SSE   147   8.73    267      -55.3
   10/07/2017 06:40      54.1      53.7       35     27.1      0.00      0.09      74.8     0.34      1011.0     0.8     ESE   116   1.4     SSE   153   8.73    267      -56.6
   10/07/2017 06:40      54.1      53.7       35     27.1      0.00      0.09      74.8     0.34      1011.0     0.8     ESE   116   1.4     SSE   153   8.73    267      -56.6
   10/07/2017 06:30      54.2      54.0       33     25.8      0.00      0.09      74.4     0.34      1011.0     0.5     SSE   149   1.1     SSE   150   8.73    267      -57.7
   10/07/2017 06:30      54.2      54.0       33     25.8      0.00      0.09      74.4     0.34      1011.0     0.5     SSE   149   1.1     SSE   150   8.73    267      -57.7
   10/07/2017 06:20      54.5      54.1       36     28.1      0.00      0.09      74.5     0.34      1011.0     1.5      SE   140   1.9      SE   137   8.73    267      -58.3
   10/07/2017 06:20      54.5      54.1       36     28.1      0.00      0.09      74.5     0.34      1011.0     1.5      SE   140   1.9      SE   137   8.73    267      -58.3
   10/07/2017 06:10      54.6      54.4       34     26.9      0.00      0.09      74.7     0.34      1011.0     1.0     ESE   122   1.7      SE   143   8.73    267      -58.9
   10/07/2017 06:10      54.6      54.4       34     26.9      0.00      0.09      74.7     0.34      1011.0     1.0     ESE   122   1.7      SE   143   8.73    267      -58.9
   10/07/2017 06:00      54.7      54.5       36     28.3      0.00      0.09      74.8     0.35      1011.0     0.9      SE   135   1.4      SE   133   8.73    267      -58.5
   10/07/2017 06:00      54.7      54.5       36     28.3      0.00      0.09      74.8     0.35      1011.0     0.9      SE   135   1.4      SE   133   8.73    267      -58.5
   10/07/2017 05:50      54.8      54.4       36     28.3      0.00      0.09      74.7     0.35      1011.0     0.8      SW   222   1.5      SW   217   8.73    267      -59.3
   10/07/2017 05:50      54.8      54.4       36     28.3      0.00      0.09      74.7     0.35      1011.0     0.8      SW   222   1.5      SW   217   8.73    267      -59.3
   10/07/2017 05:40      55.4      54.8       37     29.4      0.00      0.09      74.5     0.35      1011.0     1.1     ESE   115   2.0      SE   127   8.73    267      -60.5
   10/07/2017 05:40      55.4      54.8       37     29.4      0.00      0.09      74.5     0.35      1011.0     1.1     ESE   115   2.0      SE   127   8.73    267      -60.5
   10/07/2017 05:30      55.5      54.9       35     28.0      0.00      0.09      74.6     0.35      1011.0     1.2     SSE   147   1.5      SE   146   8.73    267      -60.3
   10/07/2017 05:30      55.5      54.9       35     28.0      0.00      0.09      74.6     0.35      1011.0     1.2     SSE   147   1.5      SE   146   8.73    267      -60.3
   10/07/2017 05:20      55.5      54.9       36     28.5      0.00      0.09      74.7     0.35      1011.0     1.1     ESE   122   1.6      SE   128   8.73    267      -61.3
   10/07/2017 05:20      55.5      54.9       36     28.5      0.00      0.09      74.7     0.35      1011.0     1.1     ESE   122   1.6      SE   128   8.73    267      -61.3
   10/07/2017 05:10      56.4      55.8       35     29.0      0.00      0.09      74.9     0.35      1011.0     1.1      SE   129   2.3     SSE   153   8.73    267      -61.7
   10/07/2017 05:10      56.4      55.8       35     29.0      0.00      0.09      74.9     0.35      1011.0     1.1      SE   129   2.3     SSE   153   8.73    267      -61.7
   10/07/2017 05:00      56.9      56.4       34     28.6      0.00      0.09      74.8     0.35      1011.0     0.8      NW   308   1.4     NNE    25   8.73    267      -61.5
   10/07/2017 05:00      56.9      56.4       34     28.6      0.00      0.09      74.8     0.35      1011.0     0.8      NW   308   1.4     NNE    25   8.73    267      -61.5
   10/07/2017 04:50      57.5      56.9       34     29.1      0.00      0.09      74.9     0.35      1011.0     1.4      SE   134   2.3      SE   125   8.73    267      -62.5
   10/07/2017 04:50      57.5      56.9       34     29.1      0.00      0.09      74.9     0.35      1011.0     1.4      SE   134   2.3      SE   125   8.73    267      -62.5
   10/07/2017 04:40      57.6      56.6       32     27.6      0.00      0.09      75.0     0.35      1011.0     1.4     SSE   166   1.9       S   191   8.73    267      -62.1
   10/07/2017 04:40      57.6      56.6       32     27.6      0.00      0.09      75.0     0.35      1011.0     1.4     SSE   166   1.9       S   191   8.73    267      -62.1
   10/07/2017 04:30      57.3      56.5       34     29.0      0.00      0.09      74.8     0.35      1011.0     2.3      SE   137   2.9      SE   136   8.73    267      -62.6
   10/07/2017 04:30      57.3      56.5       34     29.0      0.00      0.09      74.8     0.35      1011.0     2.3      SE   137   2.9      SE   136   8.73    267      -62.6
   10/07/2017 04:20      57.7      57.6       31     27.6      0.00      0.09      75.1     0.35      1011.0     1.2     SSE   158   1.9     ESE   122   8.73    267      -62.9
   10/07/2017 04:20      57.7      57.6       31     27.6      0.00      0.09      75.1     0.35      1011.0     1.2     SSE   158   1.9     ESE   122   8.73    267      -62.9
   10/07/2017 04:10      58.0      57.8       30     26.3      0.00      0.09      74.8     0.35      1011.0     0.8     WSW   254   1.1       W   262   8.73    267      -62.9
   10/07/2017 04:10      58.0      57.8       30     26.3      0.00      0.09      74.8     0.35      1011.0     0.8     WSW   254   1.1       W   262   8.73    267      -62.9
   10/07/2017 04:00      58.2      57.8       30     27.1      0.00      0.09      75.0     0.35      1011.0     1.0     SSE   162   1.5       S   178   8.73    267      -62.7
   10/07/2017 04:00      58.2      57.8       30     27.1      0.00      0.09      75.0     0.35      1011.0     1.0     SSE   162   1.5       S   178   8.73    267      -62.7
   10/07/2017 03:50      58.6      58.1       31     27.7      0.00      0.09      75.0     0.35      1011.0     0.6       S   190   1.4       S   179   8.74    267      -62.8
   10/07/2017 03:50      58.6      58.1       31     27.7      0.00      0.09      75.0     0.35      1011.0     0.6       S   190   1.4       S   179   8.74    267      -62.8
   10/07/2017 03:40      58.8      58.7       29     26.8      0.00      0.09      74.9     0.35      1011.0     0.9      SW   216   1.2     WSW   242   8.74    267      -62.3
   10/07/2017 03:40      58.8      58.7       29     26.8      0.00      0.09      74.9     0.35      1011.0     0.9      SW   216   1.2     WSW   242   8.74    267      -62.3
   10/07/2017 03:30      59.2      58.8       29     26.7      0.00      0.09      75.1     0.35      1011.0     0.7      SE   129   1.1     ESE   123   8.74    267      -62.4
   10/07/2017 03:30      59.2      58.8       29     26.7      0.00      0.09      75.1     0.35      1011.0     0.7      SE   129   1.1     ESE   123   8.74    267      -62.4
   10/07/2017 03:20      59.4      59.0       29     26.6      0.00      0.09      75.1     0.35      1011.0     0.5     SSE   162   0.7      SE   135   8.74    267      -61.7
   10/07/2017 03:20      59.4      59.0       29     26.6      0.00      0.09      75.1     0.35      1011.0     0.5     SSE   162   0.7      SE   135   8.74    267      -61.7
   10/07/2017 03:10      59.6      59.2       28     26.7      0.00      0.09      75.2     0.35      1011.0     0.7      NE    53   1.5       N   355   8.74    267      -63.5
   10/07/2017 03:10      59.6      59.2       28     26.7      0.00      0.09      75.2     0.35      1011.0     0.7      NE    53   1.5       N   355   8.74    267      -63.5
   10/07/2017 03:00      60.3      59.8       28     26.4      0.00      0.09      75.2     0.35      1011.0     1.5      SE   141   2.2     SSE   161   8.74    267      -63.5
   10/07/2017 03:00      60.3      59.8       28     26.4      0.00      0.09      75.2     0.35      1011.0     1.5      SE   141   2.2     SSE   161   8.74    267      -63.5
   10/07/2017 02:50      60.4      60.0       28     26.6      0.00      0.09      75.2     0.35      1011.0     1.2     SSE   168   2.7       S   169   8.74    267      -63.7
   10/07/2017 02:50      60.4      60.0       28     26.6      0.00      0.09      75.2     0.35      1011.0     1.2     SSE   168   2.7       S   169   8.74    267      -63.7
   10/07/2017 02:40      60.8      60.4       28     27.3      0.00      0.09      75.2     0.35      1011.0     1.0     ESE   121   1.6       S   187   8.74    267      -63.6
   10/07/2017 02:40      60.8      60.4       28     27.3      0.00      0.09      75.2     0.35      1011.0     1.0     ESE   121   1.6       S   187   8.74    267      -63.6
   10/07/2017 02:30      61.0      60.4       28     27.2      0.00      0.09      75.1     0.35      1011.0     1.1     SSE   167   2.0     SSW   201   8.74    267      -63.7
   10/07/2017 02:30      61.0      60.4       28     27.2      0.00      0.09      75.1     0.35      1011.0     1.1     SSE   167   2.0     SSW   201   8.74    267      -63.7
   10/07/2017 02:20      60.9      60.6       27     26.4      0.00      0.09      75.1     0.35      1011.0     1.6     SSE   160   2.5     NNW   336   8.74    267      -63.7
   10/07/2017 02:20      60.9      60.6       27     26.4      0.00      0.09      75.1     0.35      1011.0     1.6     SSE   160   2.5     NNW   336   8.74    267      -63.7
   10/07/2017 02:10      61.4      61.0       27     27.3      0.00      0.09      75.4     0.35      1011.0     1.4      SE   126   2.2      SE   145   8.74    267      -63.7
   10/07/2017 02:10      61.4      61.0       27     27.3      0.00      0.09      75.4     0.35      1011.0     1.4      SE   126   2.2      SE   145   8.74    267      -63.7
   10/07/2017 02:00      61.4      60.9       27     26.8      0.00      0.09      75.0     0.35      1011.0     0.9     SSE   153   1.4     SSE   149   8.74    267      -64.3
   10/07/2017 02:00      61.4      60.9       27     26.8      0.00      0.09      75.0     0.35      1011.0     0.9     SSE   153   1.4     SSE   149   8.74    267      -64.3
   10/07/2017 01:50      61.7      61.4       27     27.5      0.00      0.09      75.1     0.35      1012.0     1.0      SE   125   1.8      SE   144   8.74    267      -64.1
   10/07/2017 01:50      61.7      61.4       27     27.5      0.00      0.09      75.1     0.35      1012.0     1.0      SE   125   1.8      SE   144   8.74    267      -64.1
   10/07/2017 01:40      62.6      62.0       26     27.2      0.00      0.09      75.2     0.35      1012.0     1.2      SE   132   2.0      SE   131   8.74    267      -63.6
   10/07/2017 01:40      62.6      62.0       26     27.2      0.00      0.09      75.2     0.35      1012.0     1.2      SE   132   2.0      SE   131   8.74    267      -63.6
   10/07/2017 01:30      62.6      62.0       26     26.9      0.00      0.09      75.3     0.35      1012.0     0.6      SW   222   1.1     SSW   212   8.74    267      -63.9
   10/07/2017 01:30      62.6      62.0       26     26.9      0.00      0.09      75.3     0.35      1012.0     0.6      SW   222   1.1     SSW   212   8.74    267      -63.9
   10/07/2017 01:20      62.7      62.3       26     26.9      0.00      0.09      75.3     0.35      1012.0     0.6      NE    53   1.5      SE   134   8.74    266      -65.6
   10/07/2017 01:20      62.7      62.3       26     26.9      0.00      0.09      75.3     0.35      1012.0     0.6      NE    53   1.5      SE   134   8.74    266      -65.6
   10/07/2017 01:10      63.2      62.4       25     26.9      0.00      0.09      75.1     0.35      1012.0     0.6       E    93   1.1      SE   125   8.74    267      -65.7
   10/07/2017 01:10      63.2      62.4       25     26.9      0.00      0.09      75.1     0.35      1012.0     0.6       E    93   1.1      SE   125   8.74    267      -65.7
   10/07/2017 01:00      63.7      63.4       25     27.1      0.00      0.09      75.2     0.35      1012.0     1.0      SE   136   2.1     SSE   157   8.74    267      -66.1
   10/07/2017 01:00      63.7      63.4       25     27.1      0.00      0.09      75.2     0.35      1012.0     1.0      SE   136   2.1     SSE   157   8.74    267      -66.1
   10/07/2017 00:50      63.7      63.2       25     26.9      0.00      0.09      75.3     0.35      1012.0     1.7      SE   137   2.7      SE   129   8.74    266      -67.1
   10/07/2017 00:50      63.7      63.2       25     26.9      0.00      0.09      75.3     0.35      1012.0     1.7      SE   137   2.7      SE   129   8.74    266      -67.1
   10/07/2017 00:40      64.7      64.0       24     26.5      0.00      0.09      75.2     0.35      1012.0     1.2     SSE   150   2.6     SSE   154   8.74    267      -67.5
   10/07/2017 00:40      64.7      64.0       24     26.5      0.00      0.09      75.2     0.35      1012.0     1.2     SSE   150   2.6     SSE   154   8.74    267      -67.5
   10/07/2017 00:30      65.1      64.3       23     26.4      0.00      0.09      75.3     0.35      1012.0     1.3      SE   138   2.1     NNW   347   8.74    266      -68.0
   10/07/2017 00:30      65.1      64.3       23     26.4      0.00      0.09      75.3     0.35      1012.0     1.3      SE   138   2.1     NNW   347   8.74    266      -68.0
   10/07/2017 00:20      65.5      65.2       23     26.9      0.00      0.09      75.4     0.35      1012.0     1.4      SE   126   2.1       N   358   8.74    267      -68.2
   10/07/2017 00:20      65.5      65.2       23     26.9      0.00      0.09      75.4     0.35      1012.0     1.4      SE   126   2.1       N   358   8.74    267      -68.2
   10/07/2017 00:10      67.0      65.7       22     26.4      0.00      0.09      75.3     0.35      1012.0     1.7       E    81   3.0      SE   140   8.74    267      -69.0
   10/07/2017 00:10      67.0      65.7       22     26.4      0.00      0.09      75.3     0.35      1012.0     1.7       E    81   3.0      SE   140   8.74    267      -69.0
   10/07/2017 00:00      67.6      66.9       22     27.1      0.00      0.09      75.2     0.35      1012.0     1.6     ESE   115   2.5     SSE   165   8.74    266      -69.9
   10/07/2017 00:00      67.6      66.9       22     27.1      0.00      0.09      75.2     0.35      1012.0     1.6     ESE   115   2.5     SSE   165   8.74    266      -69.9
   10/06/2017 23:50      68.1      67.5       22     27.2      0.00      0.09      75.3     0.35      1012.0     2.5      SE   139   3.4      SE   139   8.74    267      -68.8
   10/06/2017 23:50      68.1      67.5       22     27.2      0.00      0.09      75.3     0.35      1012.0     2.5      SE   139   3.4      SE   139   8.74    267      -68.8
   10/06/2017 23:40      67.8      67.3       21     26.7      0.00      0.09      75.3     0.35      1012.0     1.9     SSE   151   2.7      SE   133   8.75    266      -68.3
   10/06/2017 23:40      67.8      67.3       21     26.7      0.00      0.09      75.3     0.35      1012.0     1.9     SSE   151   2.7      SE   133   8.75    266      -68.3
   10/06/2017 23:30      67.8      67.3       22     27.5      0.00      0.09      75.4     0.35      1012.0     2.3      SE   128   2.8      SE   140   8.75    267      -69.7
   10/06/2017 23:30      67.8      67.3       22     27.5      0.00      0.09      75.4     0.35      1012.0     2.3      SE   128   2.8      SE   140   8.75    267      -69.7
   10/06/2017 23:20      68.1      67.7       21     27.0      0.00      0.09      75.3     0.35      1012.0     2.9      SE   132   3.4     SSE   153   8.75    266      -69.9
   10/06/2017 23:20      68.1      67.7       21     27.0      0.00      0.09      75.3     0.35      1012.0     2.9      SE   132   3.4     SSE   153   8.75    266      -69.9
   10/06/2017 23:10      68.0      67.7       22     27.3      0.00      0.09      75.2     0.35      1012.0     2.7      SE   140   3.8      SE   145   8.82    266      -69.8
   10/06/2017 23:10      68.0      67.7       22     27.3      0.00      0.09      75.2     0.35      1012.0     2.7      SE   140   3.8      SE   145   8.82    266      -69.8
   10/06/2017 23:00      68.5      67.8       21     27.0      0.00      0.09      75.3     0.35      1012.0     2.5      SE   133   2.8      SE   126   8.83    266      -71.0
   10/06/2017 23:00      68.5      67.8       21     27.0      0.00      0.09      75.3     0.35      1012.0     2.5      SE   133   2.8      SE   126   8.83    266      -71.0
   10/06/2017 22:50      69.0      68.7       20     26.6      0.00      0.09      75.3     0.35      1012.0     1.7      SE   130   2.8      SE   140   8.83    266      -71.5
   10/06/2017 22:50      69.0      68.7       20     26.6      0.00      0.09      75.3     0.35      1012.0     1.7      SE   130   2.8      SE   140   8.83    266      -71.5
   10/06/2017 22:40      69.3      68.7       21     26.9      0.00      0.09      75.2     0.35      1012.0     2.7      SE   142   3.8      SE   143   8.83    266      -71.8
   10/06/2017 22:40      69.3      68.7       21     26.9      0.00      0.09      75.2     0.35      1012.0     2.7      SE   142   3.8      SE   143   8.83    266      -71.8
   10/06/2017 22:30      69.5      69.0       20     26.7      0.00      0.09      75.3     0.35      1012.0     2.2      SE   137   3.5      SE   144   8.83    266      -72.2
   10/06/2017 22:30      69.5      69.0       20     26.7      0.00      0.09      75.3     0.35      1012.0     2.2      SE   137   3.5      SE   144   8.83    266      -72.2
   10/06/2017 22:20      69.5      69.1       20     26.3      0.00      0.09      75.2     0.35      1012.0     1.7      SE   125   2.9      SE   130   8.84    266      -73.4
   10/06/2017 22:20      69.5      69.1       20     26.3      0.00      0.09      75.2     0.35      1012.0     1.7      SE   125   2.9      SE   130   8.84    266      -73.4
   10/06/2017 22:10      70.1      69.2       19     26.0      0.00      0.09      75.3     0.35      1012.0     1.7     SSE   154   2.9      SE   124   8.84    266      -73.2
   10/06/2017 22:10      70.1      69.2       19     26.0      0.00      0.09      75.3     0.35      1012.0     1.7     SSE   154   2.9      SE   124   8.84    266      -73.2
   10/06/2017 22:00      70.3      70.1       19     26.4      0.00      0.09      75.3     0.35      1012.0     2.4      SE   128   3.2     SSE   147   8.84    266      -74.4
   10/06/2017 22:00      70.3      70.1       19     26.4      0.00      0.09      75.3     0.35      1012.0     2.4      SE   128   3.2     SSE   147   8.84    266      -74.4
   10/06/2017 21:50      70.9      70.1       18     25.4      0.00      0.09      75.2     0.35      1012.0     2.2      SE   144   3.6     SSE   162   8.84    266      -75.9
   10/06/2017 21:50      70.9      70.1       18     25.4      0.00      0.09      75.2     0.35      1012.0     2.2      SE   144   3.6     SSE   162   8.84    266      -75.9
   10/06/2017 21:40      71.8      71.1       17     24.6      0.00      0.09      75.2     0.35      1012.0     2.7      SE   143   3.6      SE   146   8.84    266      -75.9
   10/06/2017 21:40      71.8      71.1       17     24.6      0.00      0.09      75.2     0.35      1012.0     2.7      SE   143   3.6      SE   146   8.84    266      -75.9
   10/06/2017 21:30      72.0      71.6       17     24.9      0.00      0.09      75.1     0.35      1012.0     1.9      SE   138   2.9      SE   137   8.84    266      -77.1
   10/06/2017 21:30      72.0      71.6       17     24.9      0.00      0.09      75.1     0.35      1012.0     1.9      SE   138   2.9      SE   137   8.84    266      -77.1
   10/06/2017 21:20      72.6      71.8       17     25.1      0.00      0.09      75.2     0.35      1012.0     3.0     SSE   157   4.5     SSE   149   8.84    266      -78.7
   10/06/2017 21:20      72.6      71.8       17     25.1      0.00      0.09      75.2     0.35      1012.0     3.0     SSE   157   4.5     SSE   149   8.84    266      -78.7
   10/06/2017 21:10      72.8      72.5       16     24.3      0.00      0.09      75.2     0.35      1012.0     2.7     SSE   156   3.7     SSE   167   8.84    266      -79.4
   10/06/2017 21:10      72.8      72.5       16     24.3      0.00      0.09      75.2     0.35      1012.0     2.7     SSE   156   3.7     SSE   167   8.84    266      -79.4
   10/06/2017 21:00      73.2      72.5       17     25.0      0.00      0.09      75.1     0.35      1012.0     2.9     SSE   148   4.3      SE   143   8.85    266      -80.9
   10/06/2017 21:00      73.2      72.5       17     25.0      0.00      0.09      75.1     0.35      1012.0     2.9     SSE   148   4.3      SE   143   8.85    266      -80.9
   10/06/2017 20:50      73.2      72.2       17     25.4      0.00      0.09      75.0     0.35      1012.0     2.5      SE   138   3.4     SSE   151   8.85    265      -81.3
   10/06/2017 20:50      73.2      72.2       17     25.4      0.00      0.09      75.0     0.35      1012.0     2.5      SE   138   3.4     SSE   151   8.85    265      -81.3
   10/06/2017 20:40      74.3      73.4       17     25.8      0.00      0.09      74.9     0.34      1012.0     2.7      SE   146   3.6     SSE   148   8.85    265      -82.2
   10/06/2017 20:40      74.3      73.4       17     25.8      0.00      0.09      74.9     0.34      1012.0     2.7      SE   146   3.6     SSE   148   8.85    265      -82.2
   10/06/2017 20:30      75.1      74.5       16     25.3      0.00      0.09      75.0     0.35      1012.0     1.9     SSE   149   3.3      SE   131   8.85    266      -83.6
   10/06/2017 20:30      75.1      74.5       16     25.3      0.00      0.09      75.0     0.35      1012.0     1.9     SSE   149   3.3      SE   131   8.85    266      -83.6
   10/06/2017 20:20      75.8      74.8       14     23.3      0.00      0.09      75.0     0.34      1012.0     2.0       S   176   3.0       S   182   8.85    265      -84.0
   10/06/2017 20:20      75.8      74.8       14     23.3      0.00      0.09      75.0     0.34      1012.0     2.0       S   176   3.0       S   182   8.85    265      -84.0
   10/06/2017 20:10      76.6      75.4       14     22.5      0.00      0.09      74.9     0.34      1012.0     1.4       S   179   3.5       S   180   8.85    265      -85.9
   10/06/2017 20:10      76.6      75.4       14     22.5      0.00      0.09      74.9     0.34      1012.0     1.4       S   179   3.5       S   180   8.85    265      -85.9
   10/06/2017 20:00      78.4      77.0       12     20.6      0.00      0.09      74.9     0.34      1011.0     2.6       S   185   3.8     SSW   210   8.85    265      -87.3
   10/06/2017 20:00      78.4      77.0       12     20.6      0.00      0.09      74.9     0.34      1011.0     2.6       S   185   3.8     SSW   210   8.85    265      -87.3
   10/06/2017 19:50      79.1      77.1       11     19.7      0.00      0.09      74.8     0.34      1011.0     3.3     SSW   198   4.3     SSW   210   8.85    265      -87.9
   10/06/2017 19:50      79.1      77.1       11     19.7      0.00      0.09      74.8     0.34      1011.0     3.3     SSW   198   4.3     SSW   210   8.85    265      -87.9
   10/06/2017 19:40      82.9      79.5       10     19.7      0.00      0.09      74.8     0.34      1011.0     2.2      SW   229   4.6       W   269   8.86    265      -89.8
   10/06/2017 19:40      82.9      79.5       10     19.7      0.00      0.09      74.8     0.34      1011.0     2.2      SW   229   4.6       W   269   8.86    265      -89.8
   10/06/2017 19:30      85.8      83.5        8     17.8      0.00      0.09      74.7     0.34      1011.0     2.1       W   265   3.1      SW   223   8.86    265      -94.3
   10/06/2017 19:30      85.8      83.5        8     17.8      0.00      0.09      74.7     0.34      1011.0     2.1       W   265   3.1      SW   223   8.86    265      -94.3
   10/06/2017 19:20      86.2      85.9        8     18.0      0.00      0.09      74.6     0.34      1011.0     2.7      NW   319   6.1       N   355   8.86    265      -97.7
   10/06/2017 19:20      86.2      85.9        8     18.0      0.00      0.09      74.6     0.34      1011.0     2.7      NW   319   6.1       N   355   8.86    265      -97.7
   10/06/2017 19:10      86.7      86.0        8     17.9      0.00      0.09      74.7     0.34      1011.0     1.9     NNW   329   3.6     NNE    21   8.86    265      -99.3
   10/06/2017 19:10      86.7      86.0        8     17.9      0.00      0.09      74.7     0.34      1011.0     1.9     NNW   329   3.6     NNE    21   8.86    265      -99.3
   10/06/2017 19:00      87.6      86.7        8     17.9      0.00      0.09      74.7     0.34      1011.0     2.4      NW   309   4.9      NW   309   8.86    265     -101.6
   10/06/2017 19:00      87.6      86.7        8     17.9      0.00      0.09      74.7     0.34      1011.0     2.4      NW   309   4.9      NW   309   8.86    265     -101.6
   10/06/2017 18:50      88.0      87.5        7     17.7      0.00      0.09      74.6     0.34      1011.0     2.8      NW   317   5.0       N   349   8.87    265     -103.6
   10/06/2017 18:50      88.0      87.5        7     17.7      0.00      0.09      74.6     0.34      1011.0     2.8      NW   317   5.0       N   349   8.87    265     -103.6
   10/06/2017 18:40      88.8      88.1        7     17.9      0.00      0.09      74.4     0.34      1011.0     3.4      NW   325   7.7      NW   316   8.87    265     -103.9
   10/06/2017 18:40      88.8      88.1        7     17.9      0.00      0.09      74.4     0.34      1011.0     3.4      NW   325   7.7      NW   316   8.87    265     -103.9
   10/06/2017 18:30      89.8      89.0        7     18.1      0.00      0.09      74.5     0.34      1011.0     3.0      NW   312   4.9      NW   325   8.87    265     -102.8
   10/06/2017 18:30      89.8      89.0        7     18.1      0.00      0.09      74.5     0.34      1011.0     3.0      NW   312   4.9      NW   325   8.87    265     -102.8
   10/06/2017 18:20      90.6      90.1        7     18.3      0.00      0.09      74.4     0.34      1011.0     4.2      NW   323   7.7      NW   317   8.87    265     -100.7
   10/06/2017 18:20      90.6      90.1        7     18.3      0.00      0.09      74.4     0.34      1011.0     4.2      NW   323   7.7      NW   317   8.87    265     -100.7
   10/06/2017 18:10      91.7      90.8        7     18.5      0.00      0.09      74.5     0.34      1011.0     3.9     NNW   331   6.6     NNW   348   8.87    265      -98.2
   10/06/2017 18:10      91.7      90.8        7     18.5      0.00      0.09      74.5     0.34      1011.0     3.9     NNW   331   6.6     NNW   348   8.87    265      -98.2
   10/06/2017 18:00      92.7      91.8        7     18.3      0.00      0.09      74.3     0.34      1011.0     7.3     NNW   345  10.4       N     3   8.88    265      -78.3
   10/06/2017 18:00      92.7      91.8        7     18.3      0.00      0.09      74.3     0.34      1011.0     7.3     NNW   345  10.4       N     3   8.88    265      -78.3
   10/06/2017 17:50      93.4      92.8        7     19.3      0.00      0.09      74.3     0.34      1011.0     4.7       N   349   7.2       N   349   8.88    265      -56.1
   10/06/2017 17:50      93.4      92.8        7     19.3      0.00      0.09      74.3     0.34      1011.0     4.7       N   349   7.2       N   349   8.88    265      -56.1
   10/06/2017 17:40      93.9      93.5        6     18.1      0.00      0.09      74.3     0.34      1011.0     4.5     NNW   327   7.7       N   349   8.89    265      -41.7
   10/06/2017 17:40      93.9      93.5        6     18.1      0.00      0.09      74.3     0.34      1011.0     4.5     NNW   327   7.7       N   349   8.89    265      -41.7
   10/06/2017 17:30      94.3      94.0        6     17.9      0.00      0.09      74.2     0.34      1011.0     5.1      NW   325   7.5      NW   317   8.89    265      -21.1
   10/06/2017 17:30      94.3      94.0        6     17.9      0.00      0.09      74.2     0.34      1011.0     5.1      NW   325   7.5      NW   317   8.89    265      -21.1
   10/06/2017 17:20      94.8      94.2        6     17.8      0.00      0.09      74.0     0.34      1011.0     6.4      NW   320  12.4     NNW   332   8.90    265        1.3
   10/06/2017 17:20      94.8      94.2        6     17.8      0.00      0.09      74.0     0.34      1011.0     6.4      NW   320  12.4     NNW   332   8.90    265        1.3
   10/06/2017 17:10      95.2      94.8        6     18.0      0.00      0.09      74.0     0.34      1011.0     4.7     NNW   340   7.0     NNW   345   8.90    265       22.4
   10/06/2017 17:10      95.2      94.8        6     18.0      0.00      0.09      74.0     0.34      1011.0     4.7     NNW   340   7.0     NNW   345   8.90    265       22.4
   10/06/2017 17:00      95.7      94.9        6     17.7      0.00      0.09      74.1     0.34      1011.0     4.2     WSW   250   7.4     SSW   208   8.91    265       45.9
   10/06/2017 17:00      95.7      94.9        6     17.7      0.00      0.09      74.1     0.34      1011.0     4.2     WSW   250   7.4     SSW   208   8.91    265       45.9
   10/06/2017 16:50      95.7      95.3        6     18.3      0.00      0.09      73.9     0.34      1011.0     3.4      NW   320   5.8       N   351   8.91    265       70.2
   10/06/2017 16:50      95.7      95.3        6     18.3      0.00      0.09      73.9     0.34      1011.0     3.4      NW   320   5.8       N   351   8.91    265       70.2
   10/06/2017 16:40      95.3      95.2        6     18.7      0.00      0.09      73.9     0.34      1011.0     3.5      NW   315   5.3      NW   320   8.92    265       97.2
   10/06/2017 16:40      95.3      95.2        6     18.7      0.00      0.09      73.9     0.34      1011.0     3.5      NW   315   5.3      NW   320   8.92    265       97.2
   10/06/2017 16:30      96.7      95.7        7     22.4      0.00      0.09      73.9     0.34      1011.0     2.8      SW   230   4.1       S   177   8.92    265      123.2
   10/06/2017 16:30      96.7      95.7        7     22.4      0.00      0.09      73.9     0.34      1011.0     2.8      SW   230   4.1       S   177   8.92    265      123.2
   10/06/2017 16:20      96.9      96.1        6     20.6      0.00      0.09      73.9     0.34      1011.0     2.3      NE    41   3.2      NE    44   8.93    265      149.4
   10/06/2017 16:20      96.9      96.1        6     20.6      0.00      0.09      73.9     0.34      1011.0     2.3      NE    41   3.2      NE    44   8.93    265      149.4
   10/06/2017 16:10      96.1      95.6        7     21.3      0.00      0.09      73.6     0.34      1011.0     3.1       E    94   6.5     ENE    60   8.93    265      174.1
   10/06/2017 16:10      96.1      95.6        7     21.3      0.00      0.09      73.6     0.34      1011.0     3.1       E    94   6.5     ENE    60   8.93    265      174.1
   10/06/2017 16:00      96.2      95.5        7     20.4      0.00      0.09      73.6     0.34      1011.0     5.2     ESE   119   7.1     ENE    78   8.93    265      183.6
   10/06/2017 16:00      96.2      95.5        7     20.4      0.00      0.09      73.6     0.34      1011.0     5.2     ESE   119   7.1     ENE    78   8.93    265      183.6
   10/06/2017 15:50      96.2      95.5        6     19.4      0.00      0.09      73.6     0.34      1011.0     4.5       S   177   6.6     SSW   192   8.93    266      200.0
   10/06/2017 15:50      96.2      95.5        6     19.4      0.00      0.09      73.6     0.34      1011.0     4.5       S   177   6.6     SSW   192   8.93    266      200.0
   10/06/2017 15:40      96.1      95.6        6     19.2      0.00      0.09      73.7     0.34      1011.0     2.6      NW   325   4.5     NNW   328   8.93    266      219.4
   10/06/2017 15:40      96.1      95.6        6     19.2      0.00      0.09      73.7     0.34      1011.0     2.6      NW   325   4.5     NNW   328   8.93    266      219.4
   10/06/2017 15:30      96.2      95.0        6     18.7      0.00      0.09      73.5     0.34      1011.0     3.0       E    99   6.0       E    97   8.94    266      244.0
   10/06/2017 15:30      96.2      95.0        6     18.7      0.00      0.09      73.5     0.34      1011.0     3.0       E    99   6.0       E    97   8.94    266      244.0
   10/06/2017 15:20      95.5      94.7        6     18.8      0.00      0.09      73.3     0.34      1011.0     4.1      SE   136   6.1     SSE   149   8.94    266      267.3
   10/06/2017 15:20      95.5      94.7        6     18.8      0.00      0.09      73.3     0.34      1011.0     4.1      SE   136   6.1     SSE   149   8.94    266      267.3
   10/06/2017 15:10      95.9      95.4        6     19.8      0.00      0.09      73.0     0.34      1011.0     6.6     ESE   113   9.2       E    84   8.94    266      292.7
   10/06/2017 15:10      95.9      95.4        6     19.8      0.00      0.09      73.0     0.34      1011.0     6.6     ESE   113   9.2       E    84   8.94    266      292.7
   10/06/2017 15:00      96.6      95.6        6     19.9      0.00      0.09      73.2     0.34      1011.0     5.4     SSE   164   9.5     ESE   109   8.94    266      312.9
   10/06/2017 15:00      96.6      95.6        6     19.9      0.00      0.09      73.2     0.34      1011.0     5.4     SSE   164   9.5     ESE   109   8.94    266      312.9
   10/06/2017 14:50      97.5      95.9        7     21.6      0.00      0.09      73.3     0.34      1012.0     5.7       N   354   9.1       N   351   8.94    267      322.8
   10/06/2017 14:50      97.5      95.9        7     21.6      0.00      0.09      73.3     0.34      1012.0     5.7       N   354   9.1       N   351   8.94    267      322.8
   10/06/2017 14:40      95.8      95.4        7     20.6      0.00      0.09      73.3     0.34      1012.0     5.9       N   359   9.8     NNW   343   8.94    267      342.5
   10/06/2017 14:40      95.8      95.4        7     20.6      0.00      0.09      73.3     0.34      1012.0     5.9       N   359   9.8     NNW   343   8.94    267      342.5
   10/06/2017 14:30      95.6      94.7        7     20.7      0.00      0.09      73.2     0.34      1012.0     6.6       N   349  12.8       N    11   8.94    267      359.1
   10/06/2017 14:30      95.6      94.7        7     20.7      0.00      0.09      73.2     0.34      1012.0     6.6       N   349  12.8       N    11   8.94    267      359.1
   10/06/2017 14:20      95.5      94.8        7     20.4      0.00      0.09      73.1     0.34      1012.0     8.0     NNW   344  11.3       N   352   8.94    267      371.7
   10/06/2017 14:20      95.5      94.8        7     20.4      0.00      0.09      73.1     0.34      1012.0     8.0     NNW   344  11.3       N   352   8.94    267      371.7
   10/06/2017 14:10      95.4      94.3        7     20.5      0.00      0.09      73.1     0.34      1012.0     6.9       N   350  11.6       N   352   9.07    267      381.5
   10/06/2017 14:10      95.4      94.3        7     20.5      0.00      0.09      73.1     0.34      1012.0     6.9       N   350  11.6       N   352   9.07    267      381.5
   10/06/2017 14:00      96.2      94.7        7     21.0      0.00      0.09      73.1     0.34      1012.0     7.0       N   357   9.7     NNE    23   9.08    267      388.5
   10/06/2017 14:00      96.2      94.7        7     21.0      0.00      0.09      73.1     0.34      1012.0     7.0       N   357   9.7     NNE    23   9.08    267      388.5
   10/06/2017 13:50      95.0      94.1        7     20.0      0.00      0.09      73.0     0.34      1012.0     4.9     NNW   331   7.5      NW   316   9.08    268      402.4
   10/06/2017 13:50      95.0      94.1        7     20.0      0.00      0.09      73.0     0.34      1012.0     4.9     NNW   331   7.5      NW   316   9.08    268      402.4
   10/06/2017 13:40      95.0      94.4        7     21.1      0.00      0.09      73.1     0.34      1013.0     4.1     NNW   340   9.4     NNW   335   9.09    268      410.0
   10/06/2017 13:40      95.0      94.4        7     21.1      0.00      0.09      73.1     0.34      1013.0     4.1     NNW   340   9.4     NNW   335   9.09    268      410.0
   10/06/2017 13:30      94.5      93.4        8     22.8      0.00      0.09      73.0     0.34      1013.0     4.4       E    81   6.5      SE   135   9.09    268      422.5
   10/06/2017 13:30      94.5      93.4        8     22.8      0.00      0.09      73.0     0.34      1013.0     4.4       E    81   6.5      SE   135   9.09    268      422.5
   10/06/2017 13:20      94.7      93.1        8     22.2      0.00      0.09      73.0     0.34      1013.0     3.4      SW   228   5.4      SW   223   9.09    268      429.4
   10/06/2017 13:20      94.7      93.1        8     22.2      0.00      0.09      73.0     0.34      1013.0     3.4      SW   228   5.4      SW   223   9.09    268      429.4
   10/06/2017 13:10      93.9      93.3        8     22.5      0.00      0.09      72.9     0.34      1013.0     2.4     SSW   194   3.5     WSW   252   9.09    268      434.2
   10/06/2017 13:10      93.9      93.3        8     22.5      0.00      0.09      72.9     0.34      1013.0     2.4     SSW   194   3.5     WSW   252   9.09    268      434.2
   10/06/2017 13:00      93.3      91.9        8     22.8      0.00      0.09      72.9     0.34      1013.0     4.0     ESE   105   6.0     ENE    60   9.09    268      441.8
   10/06/2017 13:00      93.3      91.9        8     22.8      0.00      0.09      72.9     0.34      1013.0     4.0     ESE   105   6.0     ENE    60   9.09    268      441.8
   10/06/2017 12:50      93.4      91.8        8     23.0      0.00      0.09      72.9     0.34      1013.0     3.7     SSW   205   6.7     SSW   194   9.09    269      443.9
   10/06/2017 12:50      93.4      91.8        8     23.0      0.00      0.09      72.9     0.34      1013.0     3.7     SSW   205   6.7     SSW   194   9.09    269      443.9
   10/06/2017 12:40      93.3      93.2        8     24.4      0.00      0.09      72.9     0.33      1013.0     3.3     NNW   327   5.7     NNW   345   9.09    269      440.3
   10/06/2017 12:40      93.3      93.2        8     24.4      0.00      0.09      72.9     0.33      1013.0     3.3     NNW   327   5.7     NNW   345   9.09    269      440.3
   10/06/2017 12:30      93.0      91.9        9     25.1      0.00      0.09      72.9     0.33      1014.0     3.0       E    90   4.7      NE    47   9.10    269      441.1
   10/06/2017 12:30      93.0      91.9        9     25.1      0.00      0.09      72.9     0.33      1014.0     3.0       E    90   4.7      NE    47   9.10    269      441.1
   10/06/2017 12:20      91.7      91.3        9     24.8      0.00      0.09      73.0     0.33      1014.0     3.2     NNW   343   5.3     WNW   301   9.10    269      441.2
   10/06/2017 12:20      91.7      91.3        9     24.8      0.00      0.09      73.0     0.33      1014.0     3.2     NNW   343   5.3     WNW   301   9.10    269      441.2
   10/06/2017 12:10      91.5      90.2        9     25.2      0.00      0.09      72.9     0.33      1014.0     2.2      NE    43   3.5      NE    41   9.10    269      439.3
   10/06/2017 12:10      91.5      90.2        9     25.2      0.00      0.09      72.9     0.33      1014.0     2.2      NE    43   3.5      NE    41   9.10    269      439.3
   10/06/2017 12:00      90.5      89.8       10     25.2      0.00      0.09      72.9     0.33      1014.0     3.4     NNE    16   5.5      NE    37   9.11    269      437.4
   10/06/2017 12:00      90.5      89.8       10     25.2      0.00      0.09      72.9     0.33      1014.0     3.4     NNE    16   5.5      NE    37   9.11    269      437.4
   10/06/2017 11:50      90.9      89.8       10     25.7      0.00      0.09      72.9     0.33      1014.0     2.9       N     2   6.3       N   349   9.11    269      432.8
   10/06/2017 11:50      90.9      89.8       10     25.7      0.00      0.09      72.9     0.33      1014.0     2.9       N     2   6.3       N   349   9.11    269      432.8
   10/06/2017 11:40      90.3      89.5       10     25.8      0.00      0.09      72.9     0.33      1014.0     2.6       N     0   5.0     NNE    32   9.11    269      428.7
   10/06/2017 11:40      90.3      89.5       10     25.8      0.00      0.09      72.9     0.33      1014.0     2.6       N     0   5.0     NNE    32   9.11    269      428.7
   10/06/2017 11:30      90.0      89.7       10     25.4      0.00      0.09      73.0     0.33      1014.0     3.1     NNE    22   5.3     NNW   346   9.11    270      422.5
   10/06/2017 11:30      90.0      89.7       10     25.4      0.00      0.09      73.0     0.33      1014.0     3.1     NNE    22   5.3     NNW   346   9.11    270      422.5
   10/06/2017 11:20      90.0      88.9       10     25.4      0.00      0.09      72.9     0.34      1014.0     3.5     NNE    26   7.2     ENE    71   9.11    270      414.8
   10/06/2017 11:20      90.0      88.9       10     25.4      0.00      0.09      72.9     0.34      1014.0     3.5     NNE    26   7.2     ENE    71   9.11    270      414.8
   10/06/2017 11:10      89.5      88.7       10     25.8      0.00      0.09      72.9     0.34      1014.0     3.2      NE    49   6.6     NNE    21   9.11    270      407.1
   10/06/2017 11:10      89.5      88.7       10     25.8      0.00      0.09      72.9     0.34      1014.0     3.2      NE    49   6.6     NNE    21   9.11    270      407.1
   10/06/2017 11:00      89.7      89.0       11     26.7      0.00      0.09      73.1     0.34      1014.0     2.0     NNE    18   3.0     ENE    62   9.11    270      397.3
   10/06/2017 11:00      89.7      89.0       11     26.7      0.00      0.09      73.1     0.34      1014.0     2.0     NNE    18   3.0     ENE    62   9.11    270      397.3
   10/06/2017 10:50      88.8      86.5       12     29.3      0.00      0.09      73.2     0.34      1014.0     1.5     NNW   330   3.1       N   354   9.11    270      386.2
   10/06/2017 10:50      88.8      86.5       12     29.3      0.00      0.09      73.2     0.34      1014.0     1.5     NNW   330   3.1       N   354   9.11    270      386.2
   10/06/2017 10:40      86.2      84.6       14     30.5      0.00      0.09      73.2     0.34      1014.0     1.8      NW   314   3.9       N   356   9.11    271      374.7
   10/06/2017 10:40      86.2      84.6       14     30.5      0.00      0.09      73.2     0.34      1014.0     1.8      NW   314   3.9       N   356   9.11    271      374.7
   10/06/2017 10:30      85.0      84.3       14     30.3      0.00      0.09      73.2     0.34      1015.0     2.1      NW   307   4.0     NNE    19   9.12    272      361.3
   10/06/2017 10:30      85.0      84.3       14     30.3      0.00      0.09      73.2     0.34      1015.0     2.1      NW   307   4.0     NNE    19   9.12    272      361.3
   10/06/2017 10:20      85.0      84.0       14     30.9      0.00      0.09      73.1     0.34      1015.0     1.5     NNE    17   2.4       N     9   9.12    272      345.9
   10/06/2017 10:20      85.0      84.0       14     30.9      0.00      0.09      73.1     0.34      1015.0     1.5     NNE    17   2.4       N     9   9.12    272      345.9
   10/06/2017 10:10      83.8      82.4       15     31.5      0.00      0.09      73.2     0.34      1015.0     1.6     NNE    30   2.4     ENE    77   9.12    272      330.4
   10/06/2017 10:10      83.8      82.4       15     31.5      0.00      0.09      73.2     0.34      1015.0     1.6     NNE    30   2.4     ENE    77   9.12    272      330.4
   10/06/2017 10:00      82.3      80.4       17     31.6      0.00      0.09      73.4     0.34      1015.0     2.7     ESE   113   4.4     SSE   147   9.12    272      316.6
   10/06/2017 10:00      82.3      80.4       17     31.6      0.00      0.09      73.4     0.34      1015.0     2.7     ESE   113   4.4     SSE   147   9.12    272      316.6
   10/06/2017 09:50      80.6      78.8       18     31.9      0.00      0.09      73.4     0.34      1015.0     1.9      SE   131   2.9      SE   144   9.12    272      301.3
   10/06/2017 09:50      80.6      78.8       18     31.9      0.00      0.09      73.4     0.34      1015.0     1.9      SE   131   2.9      SE   144   9.12    272      301.3
   10/06/2017 09:40      78.6      77.0       19     32.9      0.00      0.09      73.2     0.34      1015.0     2.3     ESE   114   4.8     ESE   115   9.12    272      285.2
   10/06/2017 09:40      78.6      77.0       19     32.9      0.00      0.09      73.2     0.34      1015.0     2.3     ESE   114   4.8     ESE   115   9.12    272      285.2
   10/06/2017 09:30      76.8      75.4       21     32.7      0.00      0.09      73.2     0.34      1015.0     2.0     ESE   118   3.0     ESE   119   9.12    272      268.5
   10/06/2017 09:30      76.8      75.4       21     32.7      0.00      0.09      73.2     0.34      1015.0     2.0     ESE   118   3.0     ESE   119   9.12    272      268.5
   10/06/2017 09:20      75.8      74.7       22     33.8      0.00      0.09      73.3     0.34      1015.0     3.1       E    99   4.6      SE   140   9.12    272      249.8
   10/06/2017 09:20      75.8      74.7       22     33.8      0.00      0.09      73.3     0.34      1015.0     3.1       E    99   4.6      SE   140   9.12    272      249.8
   10/06/2017 09:10      74.5      73.3       23     34.0      0.00      0.09      73.4     0.34      1015.0     2.4     ESE   112   4.2      SE   142   9.12    273      234.0
   10/06/2017 09:10      74.5      73.3       23     34.0      0.00      0.09      73.4     0.34      1015.0     2.4     ESE   112   4.2      SE   142   9.12    273      234.0
   10/06/2017 09:00      73.7      72.2       24     33.9      0.00      0.09      73.3     0.34      1015.0     2.8       E    94   3.7     ESE   104   9.12    273      217.9
   10/06/2017 09:00      73.7      72.2       24     33.9      0.00      0.09      73.3     0.34      1015.0     2.8       E    94   3.7     ESE   104   9.12    273      217.9
   10/06/2017 08:50      72.0      69.5       27     34.6      0.00      0.09      73.3     0.34      1015.0     1.7     ESE   105   4.6      SE   138   9.13    273      197.7
   10/06/2017 08:50      72.0      69.5       27     34.6      0.00      0.09      73.3     0.34      1015.0     1.7     ESE   105   4.6      SE   138   9.13    273      197.7
   10/06/2017 08:40      69.5      66.8       30     35.9      0.00      0.09      73.4     0.34      1014.0     2.6     ESE   123   4.9       E    98   9.13    274      174.8
   10/06/2017 08:40      69.5      66.8       30     35.9      0.00      0.09      73.4     0.34      1014.0     2.6     ESE   123   4.9       E    98   9.13    274      174.8
   10/06/2017 08:30      66.7      64.8       36     38.2      0.00      0.09      73.6     0.34      1014.0     2.3      SE   124   3.2     ESE   109   9.13    273      150.0
   10/06/2017 08:30      66.7      64.8       36     38.2      0.00      0.09      73.6     0.34      1014.0     2.3      SE   124   3.2     ESE   109   9.13    273      150.0
   10/06/2017 08:20      64.5      62.0       41     38.7      0.00      0.09      73.5     0.35      1014.0     2.2     ESE   116   3.7       E    83   9.13    273      121.4
   10/06/2017 08:20      64.5      62.0       41     38.7      0.00      0.09      73.5     0.35      1014.0     2.2     ESE   116   3.7       E    83   9.13    273      121.4
   10/06/2017 08:10      61.9      59.9       44     38.8      0.00      0.09      73.3     0.35      1014.0     1.2      NE    42   2.3       E    79   9.13    273       91.8
   10/06/2017 08:10      61.9      59.9       44     38.8      0.00      0.09      73.3     0.35      1014.0     1.2      NE    42   2.3       E    79   9.13    273       91.8
   10/06/2017 08:00      59.6      58.5       47     38.8      0.00      0.09      73.5     0.35      1014.0     1.3       S   174   2.1      SE   133   9.13    273       48.2
   10/06/2017 08:00      59.6      58.5       47     38.8      0.00      0.09      73.5     0.35      1014.0     1.3       S   174   2.1      SE   133   9.13    273       48.2
   10/06/2017 07:50      58.4      57.6       48     38.5      0.00      0.09      73.6     0.35      1014.0     1.5      NE    44   2.8       N     5   9.13    274       11.7
   10/06/2017 07:50      58.4      57.6       48     38.5      0.00      0.09      73.6     0.35      1014.0     1.5      NE    44   2.8       N     5   9.13    274       11.7
   10/06/2017 07:40      57.8      57.4       45     36.4      0.00      0.09      73.4     0.35      1014.0     1.7      NE    35   3.8       N     9   9.13    274      -30.9
   10/06/2017 07:40      57.8      57.4       45     36.4      0.00      0.09      73.4     0.35      1014.0     1.7      NE    35   3.8       N     9   9.13    274      -30.9
   10/06/2017 07:30      57.6      57.1       39     32.7      0.00      0.09      73.4     0.35      1013.0     2.2       E    92   3.7     ESE   123   9.13    273      -45.7
   10/06/2017 07:30      57.6      57.1       39     32.7      0.00      0.09      73.4     0.35      1013.0     2.2       E    92   3.7     ESE   123   9.13    273      -45.7
   10/06/2017 07:20      57.6      56.8       36     30.8      0.00      0.09      73.8     0.35      1013.0     1.9      SE   141   4.0      SE   136   9.13    274      -47.4
   10/06/2017 07:20      57.6      56.8       36     30.8      0.00      0.09      73.8     0.35      1013.0     1.9      SE   141   4.0      SE   136   9.13    274      -47.4
   10/06/2017 07:10      56.9      56.5       38     31.6      0.00      0.09      73.6     0.35      1013.0     3.2      SE   133   4.3      SE   142   9.13    274      -51.7
   10/06/2017 07:10      56.9      56.5       38     31.6      0.00      0.09      73.6     0.35      1013.0     3.2      SE   133   4.3      SE   142   9.13    274      -51.7
   10/06/2017 07:00      56.9      53.4       37     29.2      0.00      0.09      73.8     0.35      1013.0     2.1     SSW   210   3.7      SW   228   9.13    273      -53.3
   10/06/2017 07:00      56.9      53.4       37     29.2      0.00      0.09      73.8     0.35      1013.0     2.1     SSW   210   3.7      SW   228   9.13    273      -53.3
   10/06/2017 06:50      53.4      51.7       47     32.6      0.00      0.09      73.9     0.35      1013.0     2.3     SSE   167   3.3     SSE   158   9.13    274      -56.4
   10/06/2017 06:50      53.4      51.7       47     32.6      0.00      0.09      73.9     0.35      1013.0     2.3     SSE   167   3.3     SSE   158   9.13    274      -56.4
   10/06/2017 06:40      52.1      51.1       52     34.8      0.00      0.09      73.8     0.35      1013.0     1.8     SSW   213   2.9       S   187   9.13    274      -59.3
   10/06/2017 06:40      52.1      51.1       52     34.8      0.00      0.09      73.8     0.35      1013.0     1.8     SSW   213   2.9       S   187   9.13    274      -59.3
   10/06/2017 06:30      51.3      51.0       55     35.5      0.00      0.09      73.8     0.35      1013.0     1.2     NNE    13   2.1     NNW   333   9.13    274      -59.6
   10/06/2017 06:30      51.3      51.0       55     35.5      0.00      0.09      73.8     0.35      1013.0     1.2     NNE    13   2.1     NNW   333   9.13    274      -59.6
   10/06/2017 06:20      51.0      50.7       56     35.7      0.00      0.09      73.8     0.35      1013.0     1.4     SSW   206   2.4      SE   132   9.13    274      -58.9
   10/06/2017 06:20      51.0      50.7       56     35.7      0.00      0.09      73.8     0.35      1013.0     1.4     SSW   206   2.4      SE   132   9.13    274      -58.9
   10/06/2017 06:10      51.3      50.8       55     35.5      0.00      0.09      74.3     0.35      1013.0     0.9     ESE   106   1.8      NE    42   9.13    274      -60.0
   10/06/2017 06:10      51.3      50.8       55     35.5      0.00      0.09      74.3     0.35      1013.0     0.9     ESE   106   1.8      NE    42   9.13    274      -60.0
   10/06/2017 06:00      50.8      50.6       57     35.8      0.00      0.09      73.7     0.35      1012.0     1.9       S   184   2.7      SE   143   9.13    274      -59.9
   10/06/2017 06:00      50.8      50.6       57     35.8      0.00      0.09      73.7     0.35      1012.0     1.9       S   184   2.7      SE   143   9.13    274      -59.9
   10/06/2017 05:50      51.0      50.8       56     36.0      0.00      0.09      74.0     0.35      1013.0     2.1      SE   142   3.0     SSE   154   9.13    274      -61.6
   10/06/2017 05:50      51.0      50.8       56     36.0      0.00      0.09      74.0     0.35      1013.0     2.1      SE   142   3.0     SSE   154   9.13    274      -61.6
   10/06/2017 05:40      50.9      50.8       56     35.8      0.00      0.09      74.0     0.35      1013.0     1.6     SSE   162   2.3     SSW   195   9.13    274      -61.9
   10/06/2017 05:40      50.9      50.8       56     35.8      0.00      0.09      74.0     0.35      1013.0     1.6     SSE   162   2.3     SSW   195   9.13    274      -61.9
   10/06/2017 05:30      51.0      50.6       56     35.6      0.00      0.09      74.0     0.35      1013.0     1.2     WSW   237   2.3      SE   145   9.13    273      -63.1
   10/06/2017 05:30      51.0      50.6       56     35.6      0.00      0.09      74.0     0.35      1013.0     1.2     WSW   237   2.3      SE   145   9.13    273      -63.1
   10/06/2017 05:20      50.7      50.3       56     35.6      0.00      0.09      74.2     0.35      1012.0     1.6     SSE   152   3.8      SE   141   9.14    274      -63.1
   10/06/2017 05:20      50.7      50.3       56     35.6      0.00      0.09      74.2     0.35      1012.0     1.6     SSE   152   3.8      SE   141   9.14    274      -63.1
   10/06/2017 05:10      51.2      50.7       55     35.5      0.00      0.09      74.1     0.35      1012.0     1.2     ESE   102   1.8      SE   125   9.14    273      -63.7
   10/06/2017 05:10      51.2      50.7       55     35.5      0.00      0.09      74.1     0.35      1012.0     1.2     ESE   102   1.8      SE   125   9.14    273      -63.7
   10/06/2017 05:00      51.5      51.2       54     35.2      0.00      0.09      74.2     0.35      1012.0     0.7      SE   146   1.2     WNW   303   9.14    274      -61.5
   10/06/2017 05:00      51.5      51.2       54     35.2      0.00      0.09      74.2     0.35      1012.0     0.7      SE   146   1.2     WNW   303   9.14    274      -61.5
   10/06/2017 04:50      52.1      51.6       53     35.3      0.00      0.09      74.0     0.35      1012.0     0.6      NE    55   0.9     SSW   192   9.14    273      -61.6
   10/06/2017 04:50      52.1      51.6       53     35.3      0.00      0.09      74.0     0.35      1012.0     0.6      NE    55   0.9     SSW   192   9.14    273      -61.6
   10/06/2017 04:40      52.3      52.1       53     35.5      0.00      0.09      74.2     0.35      1012.0     1.2      SW   221   2.6      NW   325   9.14    273      -62.3
   10/06/2017 04:40      52.3      52.1       53     35.5      0.00      0.09      74.2     0.35      1012.0     1.2      SW   221   2.6      NW   325   9.14    273      -62.3
   10/06/2017 04:30      52.2      51.2       55     35.9      0.00      0.09      74.2     0.35      1012.0     1.3     SSE   161   2.3     ESE   123   9.14    273      -61.0
   10/06/2017 04:30      52.2      51.2       55     35.9      0.00      0.09      74.2     0.35      1012.0     1.3     SSE   161   2.3     ESE   123   9.14    273      -61.0
   10/06/2017 04:20      51.8      51.6       56     36.3      0.00      0.09      74.2     0.35      1012.0     1.8      SE   142   2.9     SSE   161   9.14    273      -63.1
   10/06/2017 04:20      51.8      51.6       56     36.3      0.00      0.09      74.2     0.35      1012.0     1.8      SE   142   2.9     SSE   161   9.14    273      -63.1
   10/06/2017 04:10      52.1      51.7       53     35.4      0.00      0.09      74.3     0.35      1012.0     1.6      SE   132   2.8     SSE   148   9.14    273      -63.9
   10/06/2017 04:10      52.1      51.7       53     35.4      0.00      0.09      74.3     0.35      1012.0     1.6      SE   132   2.8     SSE   148   9.14    273      -63.9
   10/06/2017 04:00      52.5      52.0       53     35.5      0.00      0.09      74.3     0.35      1012.0     1.2     SSE   147   2.0      SE   144   9.14    273      -63.7
   10/06/2017 04:00      52.5      52.0       53     35.5      0.00      0.09      74.3     0.35      1012.0     1.2     SSE   147   2.0      SE   144   9.14    273      -63.7
   10/06/2017 03:50      52.8      52.4       51     35.0      0.00      0.09      74.4     0.35      1012.0     1.1      SE   146   3.1       N   349   9.14    273      -65.0
   10/06/2017 03:50      52.8      52.4       51     35.0      0.00      0.09      74.4     0.35      1012.0     1.1      SE   146   3.1       N   349   9.14    273      -65.0
   10/06/2017 03:40      53.0      52.7       50     34.5      0.00      0.09      74.4     0.35      1012.0     1.0      SW   228   2.1     SSE   166   9.14    273      -63.4
   10/06/2017 03:40      53.0      52.7       50     34.5      0.00      0.09      74.4     0.35      1012.0     1.0      SW   228   2.1     SSE   166   9.14    273      -63.4
   10/06/2017 03:30      52.9      52.6       51     34.8      0.00      0.09      74.2     0.35      1012.0     1.0       S   178   1.7      SE   144   9.14    273      -64.2
   10/06/2017 03:30      52.9      52.6       51     34.8      0.00      0.09      74.2     0.35      1012.0     1.0       S   178   1.7      SE   144   9.14    273      -64.2
   10/06/2017 03:20      53.1      52.7       51     35.1      0.00      0.09      74.5     0.35      1012.0     0.8     SSW   201   1.7       N     5   9.14    273      -66.6
   10/06/2017 03:20      53.1      52.7       51     35.1      0.00      0.09      74.5     0.35      1012.0     0.8     SSW   201   1.7       N     5   9.14    273      -66.6
   10/06/2017 03:10      53.2      53.0       52     35.8      0.00      0.09      74.4     0.35      1012.0     1.6     SSE   155   3.4       N   353   9.14    273      -65.7
   10/06/2017 03:10      53.2      53.0       52     35.8      0.00      0.09      74.4     0.35      1012.0     1.6     SSE   155   3.4       N   353   9.14    273      -65.7
   10/06/2017 03:00      53.8      53.5       51     35.8      0.00      0.09      74.4     0.35      1012.0     1.2      SE   135   2.1      SE   139   9.14    273      -65.3
   10/06/2017 03:00      53.8      53.5       51     35.8      0.00      0.09      74.4     0.35      1012.0     1.2      SE   135   2.1      SE   139   9.14    273      -65.3
   10/06/2017 02:50      54.1      53.5       51     35.9      0.00      0.09      74.7     0.35      1012.0     0.9     SSE   162   1.9      SE   136   9.14    273      -65.0
   10/06/2017 02:50      54.1      53.5       51     35.9      0.00      0.09      74.7     0.35      1012.0     0.9     SSE   162   1.9      SE   136   9.14    273      -65.0
   10/06/2017 02:40      54.1      54.0       49     35.4      0.00      0.09      74.5     0.35      1012.0     1.4     SSE   149   1.7      SE   141   9.14    272      -64.4
   10/06/2017 02:40      54.1      54.0       49     35.4      0.00      0.09      74.5     0.35      1012.0     1.4     SSE   149   1.7      SE   141   9.14    272      -64.4
   10/06/2017 02:30      54.6      54.3       48     35.2      0.00      0.09      74.5     0.35      1012.0     0.8     SSE   159   1.2      SE   138   9.15    272      -64.7
   10/06/2017 02:30      54.6      54.3       48     35.2      0.00      0.09      74.5     0.35      1012.0     0.8     SSE   159   1.2      SE   138   9.15    272      -64.7
   10/06/2017 02:20      54.8      54.6       47     34.9      0.00      0.09      74.4     0.35      1013.0     0.8     SSE   161   2.3       S   172   9.15    272      -65.1
   10/06/2017 02:20      54.8      54.6       47     34.9      0.00      0.09      74.4     0.35      1013.0     0.8     SSE   161   2.3       S   172   9.15    272      -65.1
   10/06/2017 02:10      55.3      54.7       48     35.8      0.00      0.09      74.5     0.35      1013.0     1.7     ESE   110   3.1     SSE   168   9.15    272      -65.1
   10/06/2017 02:10      55.3      54.7       48     35.8      0.00      0.09      74.5     0.35      1013.0     1.7     ESE   110   3.1     SSE   168   9.15    272      -65.1
   10/06/2017 02:00      55.5      55.1       45     34.3      0.00      0.09      74.6     0.35      1013.0     1.1       S   180   2.3     SSE   149   9.15    272      -63.7
   10/06/2017 02:00      55.5      55.1       45     34.3      0.00      0.09      74.6     0.35      1013.0     1.1       S   180   2.3     SSE   149   9.15    272      -63.7
   10/06/2017 01:50      56.0      55.5       47     35.5      0.00      0.09      74.7     0.35      1013.0     0.8      SE   129   1.7      SE   129   9.15    272      -64.3
   10/06/2017 01:50      56.0      55.5       47     35.5      0.00      0.09      74.7     0.35      1013.0     0.8      SE   129   1.7      SE   129   9.15    272      -64.3
   10/06/2017 01:40      56.0      55.5       48     36.3      0.00      0.09      74.6     0.35      1013.0     0.8     SSW   202   1.5      SE   141   9.15    272      -64.2
   10/06/2017 01:40      56.0      55.5       48     36.3      0.00      0.09      74.6     0.35      1013.0     0.8     SSW   202   1.5      SE   141   9.15    272      -64.2
   10/06/2017 01:30      56.1      55.5       47     36.0      0.00      0.09      74.8     0.35      1013.0     1.6      SE   144   2.1      SE   134   9.15    272      -64.4
   10/06/2017 01:30      56.1      55.5       47     36.0      0.00      0.09      74.8     0.35      1013.0     1.6      SE   144   2.1      SE   134   9.15    272      -64.4
   10/06/2017 01:20      56.5      56.1       46     36.0      0.00      0.09      74.7     0.35      1013.0     1.2      SE   132   1.7     SSE   148   9.15    272      -64.5
   10/06/2017 01:20      56.5      56.1       46     36.0      0.00      0.09      74.7     0.35      1013.0     1.2      SE   132   1.7     SSE   148   9.15    272      -64.5
   10/06/2017 01:10      56.7      56.5       44     35.0      0.00      0.09      74.6     0.35      1012.0     0.9     SSE   162   1.4      SE   144   9.15    272      -65.2
   10/06/2017 01:10      56.7      56.5       44     35.0      0.00      0.09      74.6     0.35      1012.0     0.9     SSE   162   1.4      SE   144   9.15    272      -65.2
   10/06/2017 01:00      57.0      56.7       43     34.5      0.00      0.09      74.7     0.35      1012.0     1.3     SSE   160   1.9     SSE   155   9.15    272      -65.3
   10/06/2017 01:00      57.0      56.7       43     34.5      0.00      0.09      74.7     0.35      1012.0     1.3     SSE   160   1.9     SSE   155   9.15    272      -65.3
   10/06/2017 00:50      57.0      56.7       43     34.6      0.00      0.09      75.0     0.35      1012.0     0.8       S   184   1.2     SSE   168   9.15    272      -65.2
   10/06/2017 00:50      57.0      56.7       43     34.6      0.00      0.09      75.0     0.35      1012.0     0.8       S   184   1.2     SSE   168   9.15    272      -65.2
   10/06/2017 00:40      57.5      57.0       44     35.4      0.00      0.09      74.8     0.35      1012.0     1.0       E   101   2.1      SE   126   9.15    271      -66.6
   10/06/2017 00:40      57.5      57.0       44     35.4      0.00      0.09      74.8     0.35      1012.0     1.0       E   101   2.1      SE   126   9.15    271      -66.6
   10/06/2017 00:30      58.1      57.6       43     35.4      0.00      0.09      74.7     0.35      1012.0     1.5      SE   146   2.3     SSE   157   9.15    272      -67.3
   10/06/2017 00:30      58.1      57.6       43     35.4      0.00      0.09      74.7     0.35      1012.0     1.5      SE   146   2.3     SSE   157   9.15    272      -67.3
   10/06/2017 00:20      58.5      58.3       40     34.3      0.00      0.09      74.8     0.35      1012.0     1.3     SSE   159   2.4      SE   135   9.15    271      -67.2
   10/06/2017 00:20      58.5      58.3       40     34.3      0.00      0.09      74.8     0.35      1012.0     1.3     SSE   159   2.4      SE   135   9.15    271      -67.2
   10/06/2017 00:10      58.8      58.3       40     34.3      0.00      0.09      74.7     0.35      1012.0     1.0     SSW   193   1.7      SE   144   9.15    271      -67.5
   10/06/2017 00:10      58.8      58.3       40     34.3      0.00      0.09      74.7     0.35      1012.0     1.0     SSW   193   1.7      SE   144   9.15    271      -67.5
   10/06/2017 00:00      59.4      58.9       38     33.8      0.00      0.09      74.9     0.35      1012.0     1.9     SSE   155   2.6     SSW   193   9.16    271      -68.8
   10/06/2017 00:00      59.4      58.9       38     33.8      0.00      0.09      74.9     0.35      1012.0     1.9     SSE   155   2.6     SSW   193   9.16    271      -68.8
   10/05/2017 23:50      59.5      59.3       37     33.1      0.00      0.09      74.9     0.35      1012.0     0.9     SSW   192   1.7       S   169   9.16    271      -67.3
   10/05/2017 23:50      59.5      59.3       37     33.1      0.00      0.09      74.9     0.35      1012.0     0.9     SSW   192   1.7       S   169   9.16    271      -67.3
   10/05/2017 23:40      60.1      59.5       37     33.8      0.00      0.09      74.9     0.35      1012.0     0.5     ESE   108   1.0      NE    54   9.16    271      -68.8
   10/05/2017 23:40      60.1      59.5       37     33.8      0.00      0.09      74.9     0.35      1012.0     0.5     ESE   108   1.0      NE    54   9.16    271      -68.8
   10/05/2017 23:30      60.5      60.1       37     34.0      0.00      0.09      74.7     0.35      1012.0     1.5     SSE   147   3.6      SE   144   9.16    271      -69.9
   10/05/2017 23:30      60.5      60.1       37     34.0      0.00      0.09      74.7     0.35      1012.0     1.5     SSE   147   3.6      SE   144   9.16    271      -69.9
   10/05/2017 23:20      60.8      60.0       36     33.4      0.00      0.09      74.7     0.35      1012.0     1.9     SSE   153   2.7     SSE   165   9.16    271      -68.8
   10/05/2017 23:20      60.8      60.0       36     33.4      0.00      0.09      74.7     0.35      1012.0     1.9     SSE   153   2.7     SSE   165   9.16    271      -68.8
   10/05/2017 23:10      61.3      61.0       35     33.1      0.00      0.09      74.9     0.35      1012.0     1.3       S   180   2.0     SSW   194   9.16    271      -67.8
   10/05/2017 23:10      61.3      61.0       35     33.1      0.00      0.09      74.9     0.35      1012.0     1.3       S   180   2.0     SSW   194   9.16    271      -67.8
   10/05/2017 23:00      61.3      61.2       34     32.7      0.00      0.09      74.8     0.35      1012.0     0.7       S   180   1.3     SSE   163   9.16    271      -67.3
   10/05/2017 23:00      61.3      61.2       34     32.7      0.00      0.09      74.8     0.35      1012.0     0.7       S   180   1.3     SSE   163   9.16    271      -67.3
   10/05/2017 22:50      61.8      61.3       35     34.0      0.00      0.09      74.9     0.35      1012.0     0.9     ESE   121   1.4      SE   142   9.16    271      -67.2
   10/05/2017 22:50      61.8      61.3       35     34.0      0.00      0.09      74.9     0.35      1012.0     0.9     ESE   121   1.4      SE   142   9.16    271      -67.2
   10/05/2017 22:40      62.5      62.2       33     33.0      0.00      0.09      74.8     0.35      1012.0     0.5     ESE   116   0.8       E   100   9.17    271      -67.8
   10/05/2017 22:40      62.5      62.2       33     33.0      0.00      0.09      74.8     0.35      1012.0     0.5     ESE   116   0.8       E   100   9.17    271      -67.8
   10/05/2017 22:30      63.1      62.7       32     32.7      0.00      0.09      74.8     0.35      1012.0     1.0     SSE   153   1.7      SE   143   9.17    271      -68.2
   10/05/2017 22:30      63.1      62.7       32     32.7      0.00      0.09      74.8     0.35      1012.0     1.0     SSE   153   1.7      SE   143   9.17    271      -68.2
   10/05/2017 22:20      63.1      62.7       33     33.6      0.00      0.09      74.9     0.35      1012.0     1.2     SSE   153   1.9      SE   139   9.17    271      -68.2
   10/05/2017 22:20      63.1      62.7       33     33.6      0.00      0.09      74.9     0.35      1012.0     1.2     SSE   153   1.9      SE   139   9.17    271      -68.2
   10/05/2017 22:10      63.6      63.1       35     34.9      0.00      0.09      74.8     0.35      1012.0     1.3      SE   137   2.0      SE   138   9.17    271      -69.2
   10/05/2017 22:10      63.6      63.1       35     34.9      0.00      0.09      74.8     0.35      1012.0     1.3      SE   137   2.0      SE   138   9.17    271      -69.2
   10/05/2017 22:00      64.8      63.8       33     35.0      0.00      0.09      74.7     0.35      1012.0     1.8     SSE   152   2.4      SE   130   9.17    271      -69.8
   10/05/2017 22:00      64.8      63.8       33     35.0      0.00      0.09      74.7     0.35      1012.0     1.8     SSE   152   2.4      SE   130   9.17    271      -69.8
   10/05/2017 21:50      65.2      64.7       33     35.3      0.00      0.09      74.8     0.35      1012.0     1.3     SSW   208   1.7     SSW   213   9.17    271      -70.0
   10/05/2017 21:50      65.2      64.7       33     35.3      0.00      0.09      74.8     0.35      1012.0     1.3     SSW   208   1.7     SSW   213   9.17    271      -70.0
   10/05/2017 21:40      65.4      65.0       33     35.1      0.00      0.09      74.8     0.35      1012.0     1.1     ENE    63   2.0      SW   219   9.17    271      -71.6
   10/05/2017 21:40      65.4      65.0       33     35.1      0.00      0.09      74.8     0.35      1012.0     1.1     ENE    63   2.0      SW   219   9.17    271      -71.6
   10/05/2017 21:30      65.9      65.6       32     35.1      0.00      0.09      74.6     0.35      1012.0     1.1     ENE    58   1.3      NE    49   9.18    271      -72.7
   10/05/2017 21:30      65.9      65.6       32     35.1      0.00      0.09      74.6     0.35      1012.0     1.1     ENE    58   1.3      NE    49   9.18    271      -72.7
   10/05/2017 21:20      66.9      65.9       32     35.4      0.00      0.09      74.7     0.35      1012.0     1.3      NE    52   2.0     ESE   105   9.18    271      -73.9
   10/05/2017 21:20      66.9      65.9       32     35.4      0.00      0.09      74.7     0.35      1012.0     1.3      NE    52   2.0     ESE   105   9.18    271      -73.9
   10/05/2017 21:10      68.8      67.4       29     35.1      0.00      0.09      74.7     0.35      1012.0     1.3     SSE   157   2.0     ESE   112   9.18    271      -74.8
   10/05/2017 21:10      68.8      67.4       29     35.1      0.00      0.09      74.7     0.35      1012.0     1.3     SSE   157   2.0     ESE   112   9.18    271      -74.8
   10/05/2017 21:00      70.4      69.0       28     35.2      0.00      0.09      74.7     0.35      1012.0     1.5     WSW   238   2.7       S   184   9.18    270      -77.2
   10/05/2017 21:00      70.4      69.0       28     35.2      0.00      0.09      74.7     0.35      1012.0     1.5     WSW   238   2.7       S   184   9.18    270      -77.2
   10/05/2017 20:50      70.5      70.0       28     35.8      0.00      0.09      74.7     0.35      1012.0     2.4     WSW   240   4.1     WSW   246   9.18    270      -80.0
   10/05/2017 20:50      70.5      70.0       28     35.8      0.00      0.09      74.7     0.35      1012.0     2.4     WSW   240   4.1     WSW   246   9.18    270      -80.0
   10/05/2017 20:40      70.7      70.3       29     36.4      0.00      0.09      74.6     0.35      1012.0     1.4      SW   216   2.3     WSW   237   9.18    270      -81.4
   10/05/2017 20:40      70.7      70.3       29     36.4      0.00      0.09      74.6     0.35      1012.0     1.4      SW   216   2.3     WSW   237   9.18    270      -81.4
   10/05/2017 20:30      71.1      70.8       29     36.8      0.00      0.09      74.5     0.35      1012.0     2.7      SW   215   4.6      SW   221   9.18    270      -83.2
   10/05/2017 20:30      71.1      70.8       29     36.8      0.00      0.09      74.5     0.35      1012.0     2.7      SW   215   4.6      SW   221   9.18    270      -83.2
   10/05/2017 20:20      71.5      71.3       28     36.9      0.00      0.09      74.6     0.35      1012.0     3.3     SSW   206   5.6      SW   217   9.18    270      -84.4
   10/05/2017 20:20      71.5      71.3       28     36.9      0.00      0.09      74.6     0.35      1012.0     3.3     SSW   206   5.6      SW   217   9.18    270      -84.4
   10/05/2017 20:10      71.9      71.6       27     36.3      0.00      0.09      74.6     0.35      1011.0     3.5     SSW   205   4.6      SW   218   9.18    270      -85.1
   10/05/2017 20:10      71.9      71.6       27     36.3      0.00      0.09      74.6     0.35      1011.0     3.5     SSW   205   4.6      SW   218   9.18    270      -85.1
   10/05/2017 20:00      72.4      72.0       26     35.6      0.00      0.09      74.6     0.35      1011.0     3.2     SSW   192   4.9     SSW   213   9.18    270      -86.4
   10/05/2017 20:00      72.4      72.0       26     35.6      0.00      0.09      74.6     0.35      1011.0     3.2     SSW   192   4.9     SSW   213   9.18    270      -86.4
   10/05/2017 19:50      72.7      72.2       26     35.6      0.00      0.09      74.5     0.35      1011.0     3.4     SSW   191   6.3     SSW   206   9.18    270      -87.1
   10/05/2017 19:50      72.7      72.2       26     35.6      0.00      0.09      74.5     0.35      1011.0     3.4     SSW   191   6.3     SSW   206   9.18    270      -87.1
   10/05/2017 19:40      72.8      72.6       26     35.5      0.00      0.09      74.5     0.35      1011.0     3.2     SSW   196   4.0     SSW   201   9.18    270      -87.1
   10/05/2017 19:40      72.8      72.6       26     35.5      0.00      0.09      74.5     0.35      1011.0     3.2     SSW   196   4.0     SSW   201   9.18    270      -87.1
   10/05/2017 19:30      73.4      72.8       25     35.4      0.00      0.09      74.4     0.35      1011.0     2.6     SSW   205   3.8       S   181   9.18    270      -86.9
   10/05/2017 19:30      73.4      72.8       25     35.4      0.00      0.09      74.4     0.35      1011.0     2.6     SSW   205   3.8       S   181   9.18    270      -86.9
   10/05/2017 19:20      74.2      73.5       25     35.3      0.00      0.09      74.4     0.35      1011.0     2.6     SSW   212   4.6     WSW   242   9.18    270      -88.1
   10/05/2017 19:20      74.2      73.5       25     35.3      0.00      0.09      74.4     0.35      1011.0     2.6     SSW   212   4.6     WSW   242   9.18    270      -88.1
   10/05/2017 19:10      75.1      74.3       24     35.1      0.00      0.09      74.4     0.35      1011.0     2.3     SSW   214   3.2     SSW   203   9.18    270      -91.6
   10/05/2017 19:10      75.1      74.3       24     35.1      0.00      0.09      74.4     0.35      1011.0     2.3     SSW   214   3.2     SSW   203   9.18    270      -91.6
   10/05/2017 19:00      76.0      75.4       23     35.1      0.00      0.09      74.4     0.35      1011.0     3.6      SW   222   6.1      SW   225   9.18    270      -94.5
   10/05/2017 19:00      76.0      75.4       23     35.1      0.00      0.09      74.4     0.35      1011.0     3.6      SW   222   6.1      SW   225   9.18    270      -94.5
   10/05/2017 18:50      76.9      76.1       23     36.3      0.00      0.09      74.2     0.35      1011.0     3.3      SW   223   5.7     WSW   240   9.18    270      -94.6
   10/05/2017 18:50      76.9      76.1       23     36.3      0.00      0.09      74.2     0.35      1011.0     3.3      SW   223   5.7     WSW   240   9.18    270      -94.6
   10/05/2017 18:40      78.0      76.9       23     36.8      0.00      0.09      74.2     0.35      1010.0     3.6     WSW   243   5.6      SW   231   9.18    270      -93.6
   10/05/2017 18:40      78.0      76.9       23     36.8      0.00      0.09      74.2     0.35      1010.0     3.6     WSW   243   5.6      SW   231   9.18    270      -93.6
   10/05/2017 18:30      78.7      78.2       22     36.7      0.00      0.09      74.2     0.35      1010.0     2.8       W   277   4.1     WNW   286   9.18    270      -92.8
   10/05/2017 18:30      78.7      78.2       22     36.7      0.00      0.09      74.2     0.35      1010.0     2.8       W   277   4.1     WNW   286   9.18    270      -92.8
   10/05/2017 18:20      79.5      79.0       22     36.9      0.00      0.09      74.2     0.35      1010.0     3.2     WNW   299   5.1     WNW   289   9.18    270      -89.6
   10/05/2017 18:20      79.5      79.0       22     36.9      0.00      0.09      74.2     0.35      1010.0     3.2     WNW   299   5.1     WNW   289   9.18    270      -89.6
   10/05/2017 18:10      80.4      79.8       21     37.0      0.00      0.09      74.3     0.35      1010.0     4.1     WNW   295   6.3     WNW   295   9.18    270      -85.5
   10/05/2017 18:10      80.4      79.8       21     37.0      0.00      0.09      74.3     0.35      1010.0     4.1     WNW   295   6.3     WNW   295   9.18    270      -85.5
   10/05/2017 18:00      81.3      80.5       21     36.9      0.00      0.09      74.0     0.35      1010.0     4.7     WNW   293   6.4     NNW   332   9.18    270      -63.1
   10/05/2017 18:00      81.3      80.5       21     36.9      0.00      0.09      74.0     0.35      1010.0     4.7     WNW   293   6.4     NNW   332   9.18    270      -63.1
   10/05/2017 17:50      81.9      81.3       20     37.1      0.00      0.09      74.1     0.35      1010.0     6.0     WNW   296   7.8      NW   321   9.18    270      -43.4
   10/05/2017 17:50      81.9      81.3       20     37.1      0.00      0.09      74.1     0.35      1010.0     6.0     WNW   296   7.8      NW   321   9.18    270      -43.4
   10/05/2017 17:40      82.9      82.0       20     37.6      0.00      0.09      74.1     0.35      1010.0     5.2      NW   305   8.9      NW   319   9.18    270      -26.0
   10/05/2017 17:40      82.9      82.0       20     37.6      0.00      0.09      74.1     0.35      1010.0     5.2      NW   305   8.9      NW   319   9.18    270      -26.0
   10/05/2017 17:30      83.6      82.8       19     37.3      0.00      0.09      73.9     0.34      1010.0     4.3      NW   310   8.3     WNW   295   9.18    270       -4.4
   10/05/2017 17:30      83.6      82.8       19     37.3      0.00      0.09      73.9     0.34      1010.0     4.3      NW   310   8.3     WNW   295   9.18    270       -4.4
   10/05/2017 17:20      83.6      82.9       21     38.8      0.00      0.09      74.0     0.34      1010.0     5.6     WNW   295   8.7       W   281   9.18    270       20.0
   10/05/2017 17:20      83.6      82.9       21     38.8      0.00      0.09      74.0     0.34      1010.0     5.6     WNW   295   8.7       W   281   9.18    270       20.0
   10/05/2017 17:10      84.1      83.4       20     38.4      0.00      0.09      73.9     0.34      1010.0     7.1     WNW   296  11.7      NW   320   9.18    270       43.6
   10/05/2017 17:10      84.1      83.4       20     38.4      0.00      0.09      73.9     0.34      1010.0     7.1     WNW   296  11.7      NW   320   9.18    270       43.6
   10/05/2017 17:00      84.5      83.9       20     38.4      0.00      0.09      73.9     0.34      1010.0     6.1     WNW   297  10.0     WNW   284   9.18    270       68.4
   10/05/2017 17:00      84.5      83.9       20     38.4      0.00      0.09      73.9     0.34      1010.0     6.1     WNW   297  10.0     WNW   284   9.18    270       68.4
   10/05/2017 16:50      85.4      84.2       19     37.3      0.00      0.09      73.7     0.34      1010.0     8.3     WNW   300  12.3      NW   309   9.18    270       94.7
   10/05/2017 16:50      85.4      84.2       19     37.3      0.00      0.09      73.7     0.34      1010.0     8.3     WNW   300  12.3      NW   309   9.18    270       94.7
   10/05/2017 16:40      86.4      85.8       18     37.6      0.00      0.09      73.8     0.34      1010.0     5.7     WNW   303   9.1     WSW   255   9.18    271      119.1
   10/05/2017 16:40      86.4      85.8       18     37.6      0.00      0.09      73.8     0.34      1010.0     5.7     WNW   303   9.1     WSW   255   9.18    271      119.1
   10/05/2017 16:30      87.0      86.1       19     38.7      0.00      0.09      73.7     0.34      1010.0     7.1     WNW   297  11.6     WNW   284   9.18    271      145.1
   10/05/2017 16:30      87.0      86.1       19     38.7      0.00      0.09      73.7     0.34      1010.0     7.1     WNW   297  11.6     WNW   284   9.18    271      145.1
   10/05/2017 16:20      87.7      87.0       19     39.6      0.00      0.09      73.7     0.34      1010.0     6.0      NW   311   9.0       W   265   9.18    272      168.8
   10/05/2017 16:20      87.7      87.0       19     39.6      0.00      0.09      73.7     0.34      1010.0     6.0      NW   311   9.0       W   265   9.18    272      168.8
   10/05/2017 16:10      87.8      87.5       20     41.5      0.00      0.09      73.6     0.34      1010.0     5.3      NW   313   8.6     NNW   342   9.18    272      189.2
   10/05/2017 16:10      87.8      87.5       20     41.5      0.00      0.09      73.6     0.34      1010.0     5.3      NW   313   8.6     NNW   342   9.18    272      189.2
   10/05/2017 16:00      88.6      87.7       21     43.1      0.00      0.09      73.5     0.34      1010.0     6.1     WSW   247   9.0     WSW   251   9.18    273      199.6
   10/05/2017 16:00      88.6      87.7       21     43.1      0.00      0.09      73.5     0.34      1010.0     6.1     WSW   247   9.0     WSW   251   9.18    273      199.6
   10/05/2017 15:50      89.2      87.8       18     39.2      0.00      0.09      73.5     0.34      1010.0     4.6     SSW   207  11.0      SW   232   9.18    273      215.2
   10/05/2017 15:50      89.2      87.8       18     39.2      0.00      0.09      73.5     0.34      1010.0     4.6     SSW   207  11.0      SW   232   9.18    273      215.2
   10/05/2017 15:40      88.4      87.9       17     37.6      0.00      0.09      73.4     0.34      1010.0     4.2      SE   130   6.1     SSE   149   9.18    274      237.9
   10/05/2017 15:40      88.4      87.9       17     37.6      0.00      0.09      73.4     0.34      1010.0     4.2      SE   130   6.1     SSE   149   9.18    274      237.9
   10/05/2017 15:30      88.8      87.8       16     36.8      0.00      0.09      73.3     0.34      1010.0     5.4      SE   143   7.8      SE   138   9.18    276      258.0
   10/05/2017 15:30      88.8      87.8       16     36.8      0.00      0.09      73.3     0.34      1010.0     5.4      SE   143   7.8      SE   138   9.18    276      258.0
   10/05/2017 15:20      90.1      88.4       16     37.1      0.00      0.09      73.3     0.34      1010.0     4.8     SSE   157   8.4      SE   135   9.18    277      277.6
   10/05/2017 15:20      90.1      88.4       16     37.1      0.00      0.09      73.3     0.34      1010.0     4.8     SSE   157   8.4      SE   135   9.18    277      277.6
   10/05/2017 15:10      91.9      90.9       13     33.9      0.00      0.09      73.3     0.34      1010.0     4.9       E    89   9.8      SE   129   9.19    280      297.6
   10/05/2017 15:10      91.9      90.9       13     33.9      0.00      0.09      73.3     0.34      1010.0     4.9       E    89   9.8      SE   129   9.19    280      297.6
   10/05/2017 15:00      92.3      91.8       10     28.1      0.00      0.09      73.3     0.34      1010.0     2.7     NNE    24   3.8      NE    34   9.18    282      314.3
   10/05/2017 15:00      92.3      91.8       10     28.1      0.00      0.09      73.3     0.34      1010.0     2.7     NNE    24   3.8      NE    34   9.18    282      314.3
   10/05/2017 14:50      91.9      90.8       10     27.3      0.00      0.09      73.2     0.34      1010.0     2.0       W   280   3.3       N     0   9.19    284      329.3
   10/05/2017 14:50      91.9      90.8       10     27.3      0.00      0.09      73.2     0.34      1010.0     2.0       W   280   3.3       N     0   9.19    284      329.3
   10/05/2017 14:40      91.0      90.2       10     27.3      0.00      0.09      73.1     0.34      1010.0     3.6       N     9   5.7       N     0   9.19    286      348.5
   10/05/2017 14:40      91.0      90.2       10     27.3      0.00      0.09      73.1     0.34      1010.0     3.6       N     9   5.7       N     0   9.19    286      348.5
   10/05/2017 14:30      91.0      89.8       10     26.7      0.00      0.09      73.2     0.34      1010.0     3.5     ENE    70   6.2     NNE    24   9.19    288      366.3
   10/05/2017 14:30      91.0      89.8       10     26.7      0.00      0.09      73.2     0.34      1010.0     3.5     ENE    70   6.2     NNE    24   9.19    288      366.3
   10/05/2017 14:20      92.1      91.0       10     27.1      0.00      0.09      73.1     0.34      1010.0     3.1     NNE    24   5.0       N     7   9.19    289      378.0
   10/05/2017 14:20      92.1      91.0       10     27.1      0.00      0.09      73.1     0.34      1010.0     3.1     NNE    24   5.0       N     7   9.19    289      378.0
   10/05/2017 14:10      92.6      90.6       10     27.5      0.00      0.09      73.1     0.34      1010.0     2.8      NE    55   4.9       E    87   9.18    292      390.6
   10/05/2017 14:10      92.6      90.6       10     27.5      0.00      0.09      73.1     0.34      1010.0     2.8      NE    55   4.9       E    87   9.18    292      390.6
   10/05/2017 14:00      90.4      89.6       10     27.1      0.00      0.09      73.0     0.34      1010.0     3.5       N     9   6.9       N   349   9.19    293      401.4
   10/05/2017 14:00      90.4      89.6       10     27.1      0.00      0.09      73.0     0.34      1010.0     3.5       N     9   6.9       N   349   9.19    293      401.4
   10/05/2017 13:50      90.5      89.6       11     27.4      0.00      0.09      72.9     0.34      1011.0     3.6      NE    46   4.9     NNE    14   9.19    294      411.7
   10/05/2017 13:50      90.5      89.6       11     27.4      0.00      0.09      72.9     0.34      1011.0     3.6      NE    46   4.9     NNE    14   9.19    294      411.7
   10/05/2017 13:40      89.9      89.5       10     27.0      0.00      0.09      73.1     0.34      1011.0     1.8     WNW   301   3.6       W   269   9.19    296      423.9
   10/05/2017 13:40      89.9      89.5       10     27.0      0.00      0.09      73.1     0.34      1011.0     1.8     WNW   301   3.6       W   269   9.19    296      423.9
   10/05/2017 13:30      89.8      88.5       11     27.4      0.00      0.09      72.9     0.34      1011.0     3.6      NE    47   5.1       N   358   9.19    298      432.5
   10/05/2017 13:30      89.8      88.5       11     27.4      0.00      0.09      72.9     0.34      1011.0     3.6      NE    47   5.1       N   358   9.19    298      432.5
   10/05/2017 13:20      88.2      87.9       11     27.4      0.00      0.09      73.3     0.34      1011.0     2.9      NE    44   4.7     ENE    68   9.18    298      439.0
   10/05/2017 13:20      88.2      87.9       11     27.4      0.00      0.09      73.3     0.34      1011.0     2.9      NE    44   4.7     ENE    68   9.18    298      439.0
   10/05/2017 13:10      89.4      88.0       11     27.0      0.00      0.09      73.2     0.34      1011.0     3.3     NNE    26   4.8     NNE    30   9.18    300      444.7
   10/05/2017 13:10      89.4      88.0       11     27.0      0.00      0.09      73.2     0.34      1011.0     3.3     NNE    26   4.8     NNE    30   9.18    300      444.7
   10/05/2017 13:00      88.6      87.3       11     26.7      0.00      0.09      73.0     0.34      1012.0     1.6     ENE    63   2.7     ESE   111   9.19    303      450.3
   10/05/2017 13:00      88.6      87.3       11     26.7      0.00      0.09      73.0     0.34      1012.0     1.6     ENE    63   2.7     ESE   111   9.19    303      450.3
   10/05/2017 12:50      87.3      86.7       12     27.6      0.00      0.09      73.0     0.34      1012.0     2.4     NNW   333   3.6      NW   322   9.19    307      453.0
   10/05/2017 12:50      87.3      86.7       12     27.6      0.00      0.09      73.0     0.34      1012.0     2.4     NNW   333   3.6      NW   322   9.19    307      453.0
   10/05/2017 12:40      87.1      85.8       13     29.0      0.00      0.09      72.9     0.34      1012.0     2.9     NNW   333   4.7      NW   323   9.18    309      455.9
   10/05/2017 12:40      87.1      85.8       13     29.0      0.00      0.09      72.9     0.34      1012.0     2.9     NNW   333   4.7      NW   323   9.18    309      455.9
   10/05/2017 12:30      85.6      84.6       14     30.3      0.00      0.09      73.0     0.34      1012.0     1.9       N   355   2.9     NNW   328   9.18    311      455.8
   10/05/2017 12:30      85.6      84.6       14     30.3      0.00      0.09      73.0     0.34      1012.0     1.9       N   355   2.9     NNW   328   9.18    311      455.8
   10/05/2017 12:20      85.1      83.6       15     31.8      0.00      0.09      73.0     0.34      1012.0     2.7     NNW   346   4.6     NNW   346   9.19    313      456.9
   10/05/2017 12:20      85.1      83.6       15     31.8      0.00      0.09      73.0     0.34      1012.0     2.7     NNW   346   4.6     NNW   346   9.19    313      456.9
   10/05/2017 12:10      83.7      83.2       16     32.4      0.00      0.09      72.9     0.34      1012.0     2.5     NNW   345   4.7     NNW   339   9.19    317      455.9
   10/05/2017 12:10      83.7      83.2       16     32.4      0.00      0.09      72.9     0.34      1012.0     2.5     NNW   345   4.7     NNW   339   9.19    317      455.9
   10/05/2017 12:00      83.6      82.8       16     32.5      0.00      0.09      73.0     0.34      1012.0     2.6      NW   308   4.6       N     6   9.18    321      451.9
   10/05/2017 12:00      83.6      82.8       16     32.5      0.00      0.09      73.0     0.34      1012.0     2.6      NW   308   4.6       N     6   9.18    321      451.9
   10/05/2017 11:50      83.3      81.6       17     33.7      0.00      0.09      73.1     0.34      1013.0     2.2      NW   315   3.7       N   359   9.18    323      450.5
   10/05/2017 11:50      83.3      81.6       17     33.7      0.00      0.09      73.1     0.34      1013.0     2.2      NW   315   3.7       N   359   9.18    323      450.5
   10/05/2017 11:40      81.9      81.0       17     33.1      0.00      0.09      73.3     0.34      1013.0     3.2       E   100   5.5      SE   126   9.19    326      446.8
   10/05/2017 11:40      81.9      81.0       17     33.1      0.00      0.09      73.3     0.34      1013.0     3.2       E   100   5.5      SE   126   9.19    326      446.8
   10/05/2017 11:30      81.3      80.4       18     32.8      0.00      0.09      73.1     0.34      1013.0     2.2      NE    37   5.3       N   357   9.18    330      440.4
   10/05/2017 11:30      81.3      80.4       18     32.8      0.00      0.09      73.1     0.34      1013.0     2.2      NE    37   5.3       N   357   9.18    330      440.4
   10/05/2017 11:20      81.3      80.2       17     32.1      0.00      0.09      73.2     0.34      1013.0     3.0     ENE    72   4.4       E    97   9.18    334      432.4
   10/05/2017 11:20      81.3      80.2       17     32.1      0.00      0.09      73.2     0.34      1013.0     3.0     ENE    72   4.4       E    97   9.18    334      432.4
   10/05/2017 11:10      80.9      79.6       18     32.6      0.00      0.09      73.0     0.34      1013.0     2.9      NE    36   4.6      NE    34   9.18    339      424.3
   10/05/2017 11:10      80.9      79.6       18     32.6      0.00      0.09      73.0     0.34      1013.0     2.9      NE    36   4.6      NE    34   9.18    339      424.3
   10/05/2017 11:00      79.9      78.3       19     33.5      0.00      0.09      73.0     0.34      1013.0     2.6     ESE   116   5.0     ESE   107   9.18    344      414.4
   10/05/2017 11:00      79.9      78.3       19     33.5      0.00      0.09      73.0     0.34      1013.0     2.6     ESE   116   5.0     ESE   107   9.18    344      414.4
   10/05/2017 10:50      78.0      77.0       20     33.6      0.00      0.09      73.2     0.34      1013.0     3.2      NE    35   4.7      NE    39   9.19    351      403.6
   10/05/2017 10:50      78.0      77.0       20     33.6      0.00      0.09      73.2     0.34      1013.0     3.2      NE    35   4.7      NE    39   9.19    351      403.6
   10/05/2017 10:40      76.8      76.2       21     34.2      0.00      0.09      73.2     0.34      1013.0     3.0     ESE   106   5.8     ENE    76   9.18    362      392.1
   10/05/2017 10:40      76.8      76.2       21     34.2      0.00      0.09      73.2     0.34      1013.0     3.0     ESE   106   5.8     ENE    76   9.18    362      392.1
   10/05/2017 10:30      76.2      75.3       22     34.5      0.00      0.09      73.5     0.34      1013.0     2.8      SE   126   4.1     ENE    77   9.18    375      379.1
   10/05/2017 10:30      76.2      75.3       22     34.5      0.00      0.09      73.5     0.34      1013.0     2.8      SE   126   4.1     ENE    77   9.18    375      379.1
   10/05/2017 10:20      75.6      73.8       27     38.4      0.00      0.09      73.5     0.34      1013.0     2.2     ENE    68   4.0      NE    50   9.19    395      364.4
   10/05/2017 10:20      75.6      73.8       27     38.4      0.00      0.09      73.5     0.34      1013.0     2.2     ENE    68   4.0      NE    50   9.19    395      364.4
   10/05/2017 10:10      73.9      72.4       30     39.8      0.00      0.09      73.7     0.34      1014.0     2.4     NNE    22   3.8       N    11   9.18    416      348.2
   10/05/2017 10:10      73.9      72.4       30     39.8      0.00      0.09      73.7     0.34      1014.0     2.4     NNE    22   3.8       N    11   9.18    416      348.2
   10/05/2017 10:00      72.7      71.6       31     40.2      0.00      0.09      73.5     0.35      1014.0     2.4       N     9   3.7     NNE    19   9.18    438      333.1
   10/05/2017 10:00      72.7      71.6       31     40.2      0.00      0.09      73.5     0.35      1014.0     2.4       N     9   3.7     NNE    19   9.18    438      333.1
   10/05/2017 09:50      71.6      70.4       33     40.4      0.00      0.09      73.7     0.35      1014.0     2.7     NNE    18   3.3     NNE    13   9.18    456      317.7
   10/05/2017 09:50      71.6      70.4       33     40.4      0.00      0.09      73.7     0.35      1014.0     2.7     NNE    18   3.3     NNE    13   9.18    456      317.7
   10/05/2017 09:40      71.3      70.5       33     40.5      0.00      0.09      73.3     0.35      1014.0     2.5     NNE    16   3.4     NNE    24   9.18    469      301.5
   10/05/2017 09:40      71.3      70.5       33     40.5      0.00      0.09      73.3     0.35      1014.0     2.5     NNE    16   3.4     NNE    24   9.18    469      301.5
   10/05/2017 09:30      70.9      69.6       34     40.7      0.00      0.09      73.3     0.35      1014.0     2.1     NNE    19   3.7     NNE    14   9.19    486      282.9
   10/05/2017 09:30      70.9      69.6       34     40.7      0.00      0.09      73.3     0.35      1014.0     2.1     NNE    19   3.7     NNE    14   9.19    486      282.9
   10/05/2017 09:20      69.6      68.0       36     40.5      0.00      0.09      73.3     0.35      1014.0     1.1     NNW   338   1.9     NNW   343   9.18    510      264.6
   10/05/2017 09:20      69.6      68.0       36     40.5      0.00      0.09      73.3     0.35      1014.0     1.1     NNW   338   1.9     NNW   343   9.18    510      264.6
   10/05/2017 09:10      68.1      66.4       38     40.7      0.00      0.09      73.6     0.35      1014.0     1.1      NE    45   2.2      NE    56   9.18    524      247.6
   10/05/2017 09:10      68.1      66.4       38     40.7      0.00      0.09      73.6     0.35      1014.0     1.1      NE    45   2.2      NE    56   9.18    524      247.6
   10/05/2017 09:00      66.3      65.7       39     40.5      0.00      0.09      73.4     0.35      1014.0     1.8      NE    38   2.1       N     6   9.18    544      228.0
   10/05/2017 09:00      66.3      65.7       39     40.5      0.00      0.09      73.4     0.35      1014.0     1.8      NE    38   2.1       N     6   9.18    544      228.0
   10/05/2017 08:50      66.4      65.7       39     40.1      0.00      0.09      73.8     0.35      1014.0     1.4     NNE    23   2.1       N     9   9.18    551      206.0
   10/05/2017 08:50      66.4      65.7       39     40.1      0.00      0.09      73.8     0.35      1014.0     1.4     NNE    23   2.1       N     9   9.18    551      206.0
   10/05/2017 08:40      66.1      63.7       40     40.3      0.00      0.09      73.9     0.35      1014.0     0.6       E    94   1.2     ENE    63   9.18    571      179.1
   10/05/2017 08:40      66.1      63.7       40     40.3      0.00      0.09      73.9     0.35      1014.0     0.6       E    94   1.2     ENE    63   9.18    571      179.1
   10/05/2017 08:30      63.3      61.6       43     39.8      0.00      0.09      73.8     0.35      1014.0     0.8       N   356   1.5     NNW   345   9.17    271      152.5
   10/05/2017 08:30      63.3      61.6       43     39.8      0.00      0.09      73.8     0.35      1014.0     0.8       N   356   1.5     NNW   345   9.17    271      152.5
   10/05/2017 08:20      61.8      59.2       46     39.5      0.00      0.09      73.7     0.35      1014.0     1.0     NNW   346   1.5     NNE    32   8.39    271      125.3
   10/05/2017 08:20      61.8      59.2       46     39.5      0.00      0.09      73.7     0.35      1014.0     1.0     NNW   346   1.5     NNE    32   8.39    271      125.3
   10/05/2017 08:10      59.0      57.6       49     39.3      0.00      0.09      73.9     0.35      1013.0     0.7       E    94   0.9     ESE   120   8.39    271       96.8
   10/05/2017 08:10      59.0      57.6       49     39.3      0.00      0.09      73.9     0.35      1013.0     0.7       E    94   0.9     ESE   120   8.39    271       96.8
   10/05/2017 08:00      58.5      54.8       53     39.6      0.00      0.09      73.8     0.35      1013.0     0.4       N   355   0.8       E   100   8.39    271       62.0
   10/05/2017 08:00      58.5      54.8       53     39.6      0.00      0.09      73.8     0.35      1013.0     0.4       N   355   0.8       E   100   8.39    271       62.0
   10/05/2017 07:50      54.5      52.2       60     39.6      0.00      0.09      73.8     0.35      1013.0     0.5      SE   138   1.2      SE   136   8.39    271       19.2
   10/05/2017 07:50      54.5      52.2       60     39.6      0.00      0.09      73.8     0.35      1013.0     0.5      SE   138   1.2      SE   136   8.39    271       19.2
   10/05/2017 07:40      52.2      50.3       62     38.8      0.00      0.09      73.9     0.35      1013.0     0.6     SSW   198   0.9      SW   222   8.39    271      -16.8
   10/05/2017 07:40      52.2      50.3       62     38.8      0.00      0.09      73.9     0.35      1013.0     0.6     SSW   198   0.9      SW   222   8.39    271      -16.8
   10/05/2017 07:30      50.1      48.1       67     38.3      0.00      0.09      74.0     0.35      1013.0     0.4      SW   221   0.7     WSW   253   8.39    271      -43.9
   10/05/2017 07:30      50.1      48.1       67     38.3      0.00      0.09      74.0     0.35      1013.0     0.4      SW   221   0.7     WSW   253   8.39    271      -43.9
   10/05/2017 07:20      48.1      47.6       67     37.3      0.00      0.09      73.7     0.35      1013.0     0.9     ESE   119   1.4     ESE   113   8.39    270      -47.0
   10/05/2017 07:20      48.1      47.6       67     37.3      0.00      0.09      73.7     0.35      1013.0     0.9     ESE   119   1.4     ESE   113   8.39    270      -47.0
   10/05/2017 07:10      47.5      47.3       68     37.4      0.00      0.09      74.1     0.35      1013.0     0.9      SE   132   1.1     SSE   159   8.39    270      -51.0
   10/05/2017 07:10      47.5      47.3       68     37.4      0.00      0.09      74.1     0.35      1013.0     0.9      SE   132   1.1     SSE   159   8.39    270      -51.0
   10/05/2017 07:00      47.8      47.4       68     37.6      0.00      0.09      74.3     0.35      1013.0     2.1      SE   129   2.7      SE   141   8.39    271      -56.4
   10/05/2017 07:00      47.8      47.4       68     37.6      0.00      0.09      74.3     0.35      1013.0     2.1      SE   129   2.7      SE   141   8.39    271      -56.4
   10/05/2017 06:50      47.9      47.5       68     37.7      0.00      0.09      74.3     0.35      1013.0     1.0      SE   130   1.5      SE   142   8.39    270      -58.0
   10/05/2017 06:50      47.9      47.5       68     37.7      0.00      0.09      74.3     0.35      1013.0     1.0      SE   130   1.5      SE   142   8.39    270      -58.0
   10/05/2017 06:40      47.9      47.6       66     36.8      0.00      0.09      73.9     0.35      1013.0     0.8     ESE   118   1.5     SSW   194   8.39    270      -60.1
   10/05/2017 06:40      47.9      47.6       66     36.8      0.00      0.09      73.9     0.35      1013.0     0.8     ESE   118   1.5     SSW   194   8.39    270      -60.1
   10/05/2017 06:30      47.8      47.2       66     36.6      0.00      0.09      74.3     0.35      1013.0     1.6     SSW   207   3.1      SE   140   8.39    270      -60.2
   10/05/2017 06:30      47.8      47.2       66     36.6      0.00      0.09      74.3     0.35      1013.0     1.6     SSW   207   3.1      SE   140   8.39    270      -60.2
   10/05/2017 06:20      48.5      48.1       66     37.4      0.00      0.09      74.3     0.35      1013.0     1.1      SE   137   2.2      SE   143   8.39    270      -60.3
   10/05/2017 06:20      48.5      48.1       66     37.4      0.00      0.09      74.3     0.35      1013.0     1.1      SE   137   2.2      SE   143   8.39    270      -60.3
   10/05/2017 06:10      48.7      48.0       66     37.4      0.00      0.09      74.0     0.35      1013.0     0.8     SSE   166   1.1     SSE   148   8.40    270      -59.7
   10/05/2017 06:10      48.7      48.0       66     37.4      0.00      0.09      74.0     0.35      1013.0     0.8     SSE   166   1.1     SSE   148   8.40    270      -59.7
   10/05/2017 06:00      48.1      47.8       67     37.7      0.00      0.09      74.1     0.35      1013.0     0.5     SSW   211   0.9      SW   236   8.40    270      -60.0
   10/05/2017 06:00      48.1      47.8       67     37.7      0.00      0.09      74.1     0.35      1013.0     0.5     SSW   211   0.9      SW   236   8.40    270      -60.0
   10/05/2017 05:50      48.0      47.8       66     37.2      0.00      0.09      74.3     0.35      1013.0     0.5     WSW   247   0.7     WSW   256   8.40    270      -60.8
   10/05/2017 05:50      48.0      47.8       66     37.2      0.00      0.09      74.3     0.35      1013.0     0.5     WSW   247   0.7     WSW   256   8.40    270      -60.8
   10/05/2017 05:40      48.3      47.8       68     37.8      0.00      0.09      74.4     0.35      1013.0     0.7     SSE   155   1.4      SE   144   8.40    270      -61.3
   10/05/2017 05:40      48.3      47.8       68     37.8      0.00      0.09      74.4     0.35      1013.0     0.7     SSE   155   1.4      SE   144   8.40    270      -61.3
   10/05/2017 05:30      48.7      48.3       67     38.2      0.00      0.09      74.2     0.35      1013.0     1.5      SE   124   2.4      SE   125   8.40    270      -62.4
   10/05/2017 05:30      48.7      48.3       67     38.2      0.00      0.09      74.2     0.35      1013.0     1.5      SE   124   2.4      SE   125   8.40    270      -62.4
   10/05/2017 05:20      48.8      48.3       68     38.4      0.00      0.09      74.6     0.35      1013.0     1.3      SE   141   1.7     SSE   157   8.40    270      -62.3
   10/05/2017 05:20      48.8      48.3       68     38.4      0.00      0.09      74.6     0.35      1013.0     1.3      SE   141   1.7     SSE   157   8.40    270      -62.3
   10/05/2017 05:10      49.0      48.8       65     37.8      0.00      0.09      74.4     0.35      1013.0     1.9      SE   143   2.3      SE   126   8.40    270      -62.5
   10/05/2017 05:10      49.0      48.8       65     37.8      0.00      0.09      74.4     0.35      1013.0     1.9      SE   143   2.3      SE   126   8.40    270      -62.5
   10/05/2017 05:00      49.5      48.9       67     38.6      0.00      0.09      74.7     0.35      1013.0     0.8     ESE   120   1.5     ESE   120   8.40    270      -61.9
   10/05/2017 05:00      49.5      48.9       67     38.6      0.00      0.09      74.7     0.35      1013.0     0.8     ESE   120   1.5     ESE   120   8.40    270      -61.9
   10/05/2017 04:50      49.9      49.5       65     38.2      0.00      0.09      74.2     0.35      1013.0     1.5      SE   140   2.0      SE   140   8.40    270      -62.8
   10/05/2017 04:50      49.9      49.5       65     38.2      0.00      0.09      74.2     0.35      1013.0     1.5      SE   140   2.0      SE   140   8.40    270      -62.8
   10/05/2017 04:40      49.7      49.6       63     37.6      0.00      0.09      74.7     0.35      1013.0     1.1      SW   225   1.7     WSW   247   8.40    270      -62.0
   10/05/2017 04:40      49.7      49.6       63     37.6      0.00      0.09      74.7     0.35      1013.0     1.1      SW   225   1.7     WSW   247   8.40    270      -62.0
   10/05/2017 04:30      49.9      49.7       64     38.2      0.00      0.09      74.7     0.35      1013.0     1.4     SSE   161   2.2      SE   144   8.41    270      -62.6
   10/05/2017 04:30      49.9      49.7       64     38.2      0.00      0.09      74.7     0.35      1013.0     1.4     SSE   161   2.2      SE   144   8.41    270      -62.6
   10/05/2017 04:20      50.2      49.7       63     37.7      0.00      0.09      74.8     0.35      1013.0     1.4      SE   144   1.8      SE   141   8.40    270      -62.7
   10/05/2017 04:20      50.2      49.7       63     37.7      0.00      0.09      74.8     0.35      1013.0     1.4      SE   144   1.8      SE   141   8.40    270      -62.7
   10/05/2017 04:10      50.1      49.9       63     37.7      0.00      0.09      74.6     0.35      1013.0     0.5     SSE   167   1.1       S   171   8.40    270      -62.1
   10/05/2017 04:10      50.1      49.9       63     37.7      0.00      0.09      74.6     0.35      1013.0     0.5     SSE   167   1.1       S   171   8.40    270      -62.1
   10/05/2017 04:00      50.4      50.0       63     38.0      0.00      0.09      74.3     0.35      1013.0     0.5     NNE    14   0.8     NNW   348   8.41    270      -62.2
   10/05/2017 04:00      50.4      50.0       63     38.0      0.00      0.09      74.3     0.35      1013.0     0.5     NNE    14   0.8     NNW   348   8.41    270      -62.2
   10/05/2017 03:50      50.4      50.2       64     38.4      0.00      0.09      74.7     0.35      1013.0     0.7      SE   143   1.3      SE   130   8.41    270      -62.1
   10/05/2017 03:50      50.4      50.2       64     38.4      0.00      0.09      74.7     0.35      1013.0     0.7      SE   143   1.3      SE   130   8.41    270      -62.1
   10/05/2017 03:40      50.8      50.5       63     38.8      0.00      0.09      74.8     0.35      1013.0     1.8      SE   143   2.6      SE   129   8.41    270      -63.2
   10/05/2017 03:40      50.8      50.5       63     38.8      0.00      0.09      74.8     0.35      1013.0     1.8      SE   143   2.6      SE   129   8.41    270      -63.2
   10/05/2017 03:30      50.8      50.6       64     38.8      0.00      0.09      74.7     0.35      1013.0     1.3     SSE   159   1.7      SE   137   8.41    269      -63.1
   10/05/2017 03:30      50.8      50.6       64     38.8      0.00      0.09      74.7     0.35      1013.0     1.3     SSE   159   1.7      SE   137   8.41    269      -63.1
   10/05/2017 03:20      51.0      50.7       63     38.8      0.00      0.09      75.0     0.35      1013.0     1.6      SE   145   2.3      SE   130   8.41    269      -63.6
   10/05/2017 03:20      51.0      50.7       63     38.8      0.00      0.09      75.0     0.35      1013.0     1.6      SE   145   2.3      SE   130   8.41    269      -63.6
   10/05/2017 03:10      50.9      50.7       63     38.8      0.00      0.09      74.8     0.35      1013.0     1.5     SSE   150   2.1     SSE   164   8.41    269      -63.3
   10/05/2017 03:10      50.9      50.7       63     38.8      0.00      0.09      74.8     0.35      1013.0     1.5     SSE   150   2.1     SSE   164   8.41    269      -63.3
   10/05/2017 03:00      51.3      51.0       62     38.6      0.00      0.09      74.9     0.35      1013.0     1.5      SE   133   1.9      SE   127   8.41    269      -64.0
   10/05/2017 03:00      51.3      51.0       62     38.6      0.00      0.09      74.9     0.35      1013.0     1.5      SE   133   1.9      SE   127   8.41    269      -64.0
   10/05/2017 02:50      52.0      51.4       58     37.2      0.00      0.09      74.8     0.35      1013.0     1.4     SSE   153   2.2      SE   140   8.41    269      -63.7
   10/05/2017 02:50      52.0      51.4       58     37.2      0.00      0.09      74.8     0.35      1013.0     1.4     SSE   153   2.2      SE   140   8.41    269      -63.7
   10/05/2017 02:40      51.6      51.4       59     37.6      0.00      0.09      75.2     0.35      1013.0     0.6     SSW   209   0.9       S   175   8.41    269      -63.4
   10/05/2017 02:40      51.6      51.4       59     37.6      0.00      0.09      75.2     0.35      1013.0     0.6     SSW   209   0.9       S   175   8.41    269      -63.4
   10/05/2017 02:30      51.8      51.4       60     38.2      0.00      0.09      75.0     0.35      1013.0     0.4       N     6   0.8       S   172   8.41    269      -63.4
   10/05/2017 02:30      51.8      51.4       60     38.2      0.00      0.09      75.0     0.35      1013.0     0.4       N     6   0.8       S   172   8.41    269      -63.4
   10/05/2017 02:20      52.3      51.8       59     38.2      0.00      0.09      74.9     0.35      1013.0     1.4     ESE   124   1.7     SSE   152   8.41    269      -63.9
   10/05/2017 02:20      52.3      51.8       59     38.2      0.00      0.09      74.9     0.35      1013.0     1.4     ESE   124   1.7     SSE   152   8.41    269      -63.9
   10/05/2017 02:10      52.5      52.1       57     37.6      0.00      0.09      75.2     0.35      1013.0     0.7      SW   214   1.6     SSE   148   8.41    269      -63.7
   10/05/2017 02:10      52.5      52.1       57     37.6      0.00      0.09      75.2     0.35      1013.0     0.7      SW   214   1.6     SSE   148   8.41    269      -63.7
   10/05/2017 02:00      52.5      52.3       59     38.4      0.00      0.09      74.9     0.35      1013.0     1.3     SSE   149   1.9     SSE   150   8.41    269      -64.2
   10/05/2017 02:00      52.5      52.3       59     38.4      0.00      0.09      74.9     0.35      1013.0     1.3     SSE   149   1.9     SSE   150   8.41    269      -64.2
   10/05/2017 01:50      52.6      52.3       60     38.8      0.00      0.09      75.1     0.35      1013.0     1.4     SSE   146   2.3     SSE   152   8.41    269      -64.6
   10/05/2017 01:50      52.6      52.3       60     38.8      0.00      0.09      75.1     0.35      1013.0     1.4     SSE   146   2.3     SSE   152   8.41    269      -64.6
   10/05/2017 01:40      53.2      53.0       57     38.5      0.00      0.09      75.2     0.35      1013.0     1.4      SE   144   2.2      SE   129   8.41    269      -65.9
   10/05/2017 01:40      53.2      53.0       57     38.5      0.00      0.09      75.2     0.35      1013.0     1.4      SE   144   2.2      SE   129   8.41    269      -65.9
   10/05/2017 01:30      53.5      52.9       56     38.0      0.00      0.09      75.0     0.35      1013.0     1.4     SSE   156   2.3     SSE   157   8.41    269      -66.1
   10/05/2017 01:30      53.5      52.9       56     38.0      0.00      0.09      75.0     0.35      1013.0     1.4     SSE   156   2.3     SSE   157   8.41    269      -66.1
   10/05/2017 01:20      53.5      53.0       55     37.5      0.00      0.09      75.1     0.35      1013.0     0.8     SSE   165   1.3      SE   146   8.41    269      -66.6
   10/05/2017 01:20      53.5      53.0       55     37.5      0.00      0.09      75.1     0.35      1013.0     0.8     SSE   165   1.3      SE   146   8.41    269      -66.6
   10/05/2017 01:10      53.7      53.1       56     38.0      0.00      0.09      75.2     0.35      1013.0     1.0     ESE   110   1.5     SSE   158   8.41    269      -67.3
   10/05/2017 01:10      53.7      53.1       56     38.0      0.00      0.09      75.2     0.35      1013.0     1.0     ESE   110   1.5     SSE   158   8.41    269      -67.3
   10/05/2017 01:00      54.1      53.8       53     37.3      0.00      0.09      75.1     0.35      1013.0     0.7     NNE    27   1.2       E    91   8.41    269      -67.1
   10/05/2017 01:00      54.1      53.8       53     37.3      0.00      0.09      75.1     0.35      1013.0     0.7     NNE    27   1.2       E    91   8.41    269      -67.1
   10/05/2017 00:50      54.4      54.1       55     38.5      0.00      0.09      75.2     0.35      1013.0     1.2      SE   138   1.5     ESE   119   8.58    269      -68.8
   10/05/2017 00:50      54.4      54.1       55     38.5      0.00      0.09      75.2     0.35      1013.0     1.2      SE   138   1.5     ESE   119   8.58    269      -68.8
   10/05/2017 00:40      54.6      54.4       54     38.3      0.00      0.09      75.1     0.35      1013.0     1.5       S   170   2.5      SE   146   8.59    269      -69.5
   10/05/2017 00:40      54.6      54.4       54     38.3      0.00      0.09      75.1     0.35      1013.0     1.5       S   170   2.5      SE   146   8.59    269      -69.5
   10/05/2017 00:30      55.0      54.5       54     38.4      0.00      0.09      75.1     0.35      1013.0     2.0     SSE   156   2.9      SE   138   8.59    269      -70.2
   10/05/2017 00:30      55.0      54.5       54     38.4      0.00      0.09      75.1     0.35      1013.0     2.0     SSE   156   2.9      SE   138   8.59    269      -70.2
   10/05/2017 00:20      55.6      55.1       52     38.1      0.00      0.09      75.2     0.35      1014.0     1.5      SE   145   2.0      SE   143   8.59    269      -69.2
   10/05/2017 00:20      55.6      55.1       52     38.1      0.00      0.09      75.2     0.35      1014.0     1.5      SE   145   2.0      SE   143   8.59    269      -69.2
   10/05/2017 00:10      55.8      55.6       51     37.8      0.00      0.09      75.3     0.35      1013.0     0.6     SSE   158   1.2      SE   143   8.59    269      -68.2
   10/05/2017 00:10      55.8      55.6       51     37.8      0.00      0.09      75.3     0.35      1013.0     0.6     SSE   158   1.2      SE   143   8.59    269      -68.2
   10/05/2017 00:00      56.1      55.5       53     38.8      0.00      0.09      75.1     0.35      1013.0     1.5      SE   146   2.4      SE   127   8.59    269      -69.8
   10/05/2017 00:00      56.1      55.5       53     38.8      0.00      0.09      75.1     0.35      1013.0     1.5      SE   146   2.4      SE   127   8.59    269      -69.8
   10/04/2017 23:50      56.1      55.6       53     39.2      0.00      0.09      75.2     0.35      1014.0     1.4      SE   141   3.1      SE   144   8.59    269      -69.6
   10/04/2017 23:50      56.1      55.6       53     39.2      0.00      0.09      75.2     0.35      1014.0     1.4      SE   141   3.1      SE   144   8.59    269      -69.6
   10/04/2017 23:40      56.5      56.0       53     39.2      0.00      0.09      75.1     0.35      1014.0     1.6      SE   139   2.5      SE   142   8.59    269      -70.2
   10/04/2017 23:40      56.5      56.0       53     39.2      0.00      0.09      75.1     0.35      1014.0     1.6      SE   139   2.5      SE   142   8.59    269      -70.2
   10/04/2017 23:30      57.0      56.6       52     39.3      0.00      0.09      75.3     0.35      1014.0     1.5     SSE   147   2.1      SE   131   8.60    269      -70.0
   10/04/2017 23:30      57.0      56.6       52     39.3      0.00      0.09      75.3     0.35      1014.0     1.5     SSE   147   2.1      SE   131   8.60    269      -70.0
   10/04/2017 23:20      57.5      57.2       51     39.2      0.00      0.09      75.3     0.35      1013.0     1.2     SSE   161   1.7     SSE   160   8.60    269      -69.6
   10/04/2017 23:20      57.5      57.2       51     39.2      0.00      0.09      75.3     0.35      1013.0     1.2     SSE   161   1.7     SSE   160   8.60    269      -69.6
   10/04/2017 23:10      57.6      57.3       49     38.4      0.00      0.09      75.3     0.35      1013.0     1.3     SSE   167   1.9      SE   142   8.60    269      -70.2
   10/04/2017 23:10      57.6      57.3       49     38.4      0.00      0.09      75.3     0.35      1013.0     1.3     SSE   167   1.9      SE   142   8.60    269      -70.2
   10/04/2017 23:00      58.4      57.6       49     38.8      0.00      0.09      75.3     0.35      1013.0     1.5     SSE   148   2.3      SE   140   8.60    269      -70.8
   10/04/2017 23:00      58.4      57.6       49     38.8      0.00      0.09      75.3     0.35      1013.0     1.5     SSE   148   2.3      SE   140   8.60    269      -70.8
   10/04/2017 22:50      58.8      58.6       47     38.4      0.00      0.09      75.3     0.35      1013.0     0.8       S   171   1.3       S   182   8.60    269      -70.7
   10/04/2017 22:50      58.8      58.6       47     38.4      0.00      0.09      75.3     0.35      1013.0     0.8       S   171   1.3       S   182   8.60    269      -70.7
   10/04/2017 22:40      58.9      58.5       46     38.2      0.00      0.09      75.2     0.35      1013.0     1.3     SSE   161   1.9       S   173   8.60    269      -71.7
   10/04/2017 22:40      58.9      58.5       46     38.2      0.00      0.09      75.2     0.35      1013.0     1.3     SSE   161   1.9       S   173   8.60    269      -71.7
   10/04/2017 22:30      59.4      58.8       45     37.7      0.00      0.09      75.3     0.35      1013.0     1.4     SSE   153   2.3      SE   129   8.60    269      -71.2
   10/04/2017 22:30      59.4      58.8       45     37.7      0.00      0.09      75.3     0.35      1013.0     1.4     SSE   153   2.3      SE   129   8.60    269      -71.2
   10/04/2017 22:20      59.8      59.3       44     37.5      0.00      0.09      75.2     0.35      1013.0     0.9     SSE   155   1.2      SE   124   8.60    269      -72.0
   10/04/2017 22:20      59.8      59.3       44     37.5      0.00      0.09      75.2     0.35      1013.0     0.9     SSE   155   1.2      SE   124   8.60    269      -72.0
   10/04/2017 22:10      60.7      60.1       43     37.8      0.00      0.09      75.4     0.35      1013.0     0.8      SE   146   2.3      SE   128   8.60    269      -72.5
   10/04/2017 22:10      60.7      60.1       43     37.8      0.00      0.09      75.4     0.35      1013.0     0.8      SE   146   2.3      SE   128   8.60    269      -72.5
   10/04/2017 22:00      60.9      60.2       43     37.8      0.00      0.09      75.2     0.35      1013.0     0.7       S   177   1.1       S   170   8.60    269      -72.3
   10/04/2017 22:00      60.9      60.2       43     37.8      0.00      0.09      75.2     0.35      1013.0     0.7       S   177   1.1       S   170   8.60    269      -72.3
   10/04/2017 21:50      61.2      60.5       43     38.0      0.00      0.09      75.0     0.35      1013.0     0.8     ENE    63   1.1     ESE   122   8.60    269      -73.9
   10/04/2017 21:50      61.2      60.5       43     38.0      0.00      0.09      75.0     0.35      1013.0     0.8     ENE    63   1.1     ESE   122   8.60    269      -73.9
   10/04/2017 21:40      61.7      61.3       42     38.1      0.00      0.09      75.1     0.35      1013.0     1.1       N   351   1.4     NNW   333   8.60    269      -74.5
   10/04/2017 21:40      61.7      61.3       42     38.1      0.00      0.09      75.1     0.35      1013.0     1.1       N   351   1.4     NNW   333   8.60    269      -74.5
   10/04/2017 21:30      62.2      61.7       41     38.2      0.00      0.09      75.5     0.35      1013.0     0.9     NNE    28   1.2     SSE   167   8.60    268      -75.8
   10/04/2017 21:30      62.2      61.7       41     38.2      0.00      0.09      75.5     0.35      1013.0     0.9     NNE    28   1.2     SSE   167   8.60    268      -75.8
   10/04/2017 21:20      63.5      62.5       40     38.3      0.00      0.09      75.1     0.35      1013.0     1.2       N     8   1.6      NE    44   8.60    269      -77.5
   10/04/2017 21:20      63.5      62.5       40     38.3      0.00      0.09      75.1     0.35      1013.0     1.2       N     8   1.6      NE    44   8.60    269      -77.5
   10/04/2017 21:10      65.1      63.6       38     38.4      0.00      0.09      75.2     0.35      1013.0     1.1     ENE    71   2.0       E    80   8.60    268      -80.0
   10/04/2017 21:10      65.1      63.6       38     38.4      0.00      0.09      75.2     0.35      1013.0     1.1     ENE    71   2.0       E    80   8.60    268      -80.0
   10/04/2017 21:00      66.2      65.3       36     38.4      0.00      0.09      75.3     0.35      1013.0     1.2       E    88   2.5     ESE   121   8.60    268      -82.5
   10/04/2017 21:00      66.2      65.3       36     38.4      0.00      0.09      75.3     0.35      1013.0     1.2       E    88   2.5     ESE   121   8.60    268      -82.5
   10/04/2017 20:50      66.9      66.2       36     38.4      0.00      0.09      75.0     0.35      1013.0     1.7       S   180   3.6     SSW   211   8.60    268      -83.8
   10/04/2017 20:50      66.9      66.2       36     38.4      0.00      0.09      75.0     0.35      1013.0     1.7       S   180   3.6     SSW   211   8.60    268      -83.8
   10/04/2017 20:40      67.3      67.0       35     38.3      0.00      0.09      75.2     0.35      1013.0     2.5       S   186   5.9     SSW   199   8.60    268      -85.5
   10/04/2017 20:40      67.3      67.0       35     38.3      0.00      0.09      75.2     0.35      1013.0     2.5       S   186   5.9     SSW   199   8.60    268      -85.5
   10/04/2017 20:30      67.4      67.1       35     38.5      0.00      0.09      75.1     0.35      1013.0     4.0     SSW   196   5.9       S   185   8.60    268      -86.1
   10/04/2017 20:30      67.4      67.1       35     38.5      0.00      0.09      75.1     0.35      1013.0     4.0     SSW   196   5.9       S   185   8.60    268      -86.1
   10/04/2017 20:20      67.5      67.2       35     38.8      0.00      0.09      75.1     0.35      1013.0     2.6      SW   227   4.4      SW   220   8.60    268      -86.7
   10/04/2017 20:20      67.5      67.2       35     38.8      0.00      0.09      75.1     0.35      1013.0     2.6      SW   227   4.4      SW   220   8.60    268      -86.7
   10/04/2017 20:10      67.7      67.6       35     39.1      0.00      0.09      75.3     0.35      1013.0     3.1     SSW   204   5.6     SSW   210   8.60    268      -87.1
   10/04/2017 20:10      67.7      67.6       35     39.1      0.00      0.09      75.3     0.35      1013.0     3.1     SSW   204   5.6     SSW   210   8.60    268      -87.1
   10/04/2017 20:00      68.0      67.6       35     39.0      0.00      0.09      74.9     0.35      1013.0     4.3     SSW   207   7.7     SSW   199   8.60    268      -87.4
   10/04/2017 20:00      68.0      67.6       35     39.0      0.00      0.09      74.9     0.35      1013.0     4.3     SSW   207   7.7     SSW   199   8.60    268      -87.4
   10/04/2017 19:50      68.3      68.0       34     38.7      0.00      0.09      74.9     0.35      1013.0     4.8      SW   219   6.5     SSW   194   8.60    268      -88.3
   10/04/2017 19:50      68.3      68.0       34     38.7      0.00      0.09      74.9     0.35      1013.0     4.8      SW   219   6.5     SSW   194   8.60    268      -88.3
   10/04/2017 19:40      68.9      68.5       33     38.2      0.00      0.09      75.1     0.35      1013.0     5.5     SSW   213  10.9     SSW   212   8.70    268      -89.0
   10/04/2017 19:40      68.9      68.5       33     38.2      0.00      0.09      75.1     0.35      1013.0     5.5     SSW   213  10.9     SSW   212   8.70    268      -89.0
   10/04/2017 19:30      69.3      69.0       31     37.5      0.00      0.09      75.0     0.35      1013.0     5.1      SW   214   8.2     SSW   201   8.71    268      -90.0
   10/04/2017 19:30      69.3      69.0       31     37.5      0.00      0.09      75.0     0.35      1013.0     5.1      SW   214   8.2     SSW   201   8.71    268      -90.0
   10/04/2017 19:20      69.7      69.2       30     36.9      0.00      0.09      74.9     0.35      1013.0     5.0     SSW   211   8.2     SSW   199   8.72    268      -90.9
   10/04/2017 19:20      69.7      69.2       30     36.9      0.00      0.09      74.9     0.35      1013.0     5.0     SSW   211   8.2     SSW   199   8.72    268      -90.9
   10/04/2017 19:10      70.3      69.8       29     36.4      0.00      0.09      74.7     0.35      1013.0     5.6     SSW   209   8.3     SSW   201   8.72    268      -91.7
   10/04/2017 19:10      70.3      69.8       29     36.4      0.00      0.09      74.7     0.35      1013.0     5.6     SSW   209   8.3     SSW   201   8.72    268      -91.7
   10/04/2017 19:00      71.1      70.5       28     35.9      0.00      0.09      75.0     0.35      1013.0     5.3     SSW   207   9.0       S   186   8.72    268      -93.1
   10/04/2017 19:00      71.1      70.5       28     35.9      0.00      0.09      75.0     0.35      1013.0     5.3     SSW   207   9.0       S   186   8.72    268      -93.1
   10/04/2017 18:50      72.0      71.2       27     35.5      0.00      0.09      74.9     0.35      1012.0     5.1     SSW   212   7.2     SSW   200   8.72    268      -94.1
   10/04/2017 18:50      72.0      71.2       27     35.5      0.00      0.09      74.9     0.35      1012.0     5.1     SSW   212   7.2     SSW   200   8.72    268      -94.1
   10/04/2017 18:40      72.7      72.1       26     35.6      0.00      0.09      74.8     0.35      1012.0     5.2      SW   223   6.7     SSW   207   8.72    268      -93.3
   10/04/2017 18:40      72.7      72.1       26     35.6      0.00      0.09      74.8     0.35      1012.0     5.2      SW   223   6.7     SSW   207   8.72    268      -93.3
   10/04/2017 18:30      73.6      72.9       26     36.7      0.00      0.09      74.9     0.35      1012.0     4.6      SW   220   7.7     SSW   202   8.72    268      -90.6
   10/04/2017 18:30      73.6      72.9       26     36.7      0.00      0.09      74.9     0.35      1012.0     4.6      SW   220   7.7     SSW   202   8.72    268      -90.6
   10/04/2017 18:20      74.6      73.9       29     40.1      0.00      0.09      74.8     0.35      1012.0     4.8      SW   226   7.0     WSW   242   8.73    268      -85.7
   10/04/2017 18:20      74.6      73.9       29     40.1      0.00      0.09      74.8     0.35      1012.0     4.8      SW   226   7.0     WSW   242   8.73    268      -85.7
   10/04/2017 18:10      75.7      74.8       28     40.1      0.00      0.09      74.8     0.35      1012.0     7.6     WSW   250  11.5     WSW   241   8.73    268      -80.9
   10/04/2017 18:10      75.7      74.8       28     40.1      0.00      0.09      74.8     0.35      1012.0     7.6     WSW   250  11.5     WSW   241   8.73    268      -80.9
   10/04/2017 18:00      77.0      75.8       28     40.6      0.00      0.09      74.8     0.35      1012.0     7.3     WSW   242   9.3      SW   230   8.73    268      -56.2
   10/04/2017 18:00      77.0      75.8       28     40.6      0.00      0.09      74.8     0.35      1012.0     7.3     WSW   242   9.3      SW   230   8.73    268      -56.2
   10/04/2017 17:50      78.7      77.3       27     41.4      0.00      0.09      74.6     0.35      1012.0     6.2     WSW   243  11.5      SW   226   8.73    268      -38.9
   10/04/2017 17:50      78.7      77.3       27     41.4      0.00      0.09      74.6     0.35      1012.0     6.2     WSW   243  11.5      SW   226   8.73    268      -38.9
   10/04/2017 17:40      79.9      79.0       26     41.7      0.00      0.09      74.5     0.35      1012.0     4.5     WSW   256   7.1      SW   229   8.73    268      -20.6
   10/04/2017 17:40      79.9      79.0       26     41.7      0.00      0.09      74.5     0.35      1012.0     4.5     WSW   256   7.1      SW   229   8.73    268      -20.6
   10/04/2017 17:30      80.7      79.9       26     41.8      0.00      0.09      74.5     0.35      1012.0     6.0     WSW   247   9.7     WSW   254   8.73    268        2.2
   10/04/2017 17:30      80.7      79.9       26     41.8      0.00      0.09      74.5     0.35      1012.0     6.0     WSW   247   9.7     WSW   254   8.73    268        2.2
   10/04/2017 17:20      81.1      80.8       25     42.1      0.00      0.09      74.3     0.35      1012.0     6.0     WSW   244   8.0     WSW   249   8.73    268       24.8
   10/04/2017 17:20      81.1      80.8       25     42.1      0.00      0.09      74.3     0.35      1012.0     6.0     WSW   244   8.0     WSW   249   8.73    268       24.8
   10/04/2017 17:10      81.1      80.8       26     42.5      0.00      0.09      74.5     0.35      1012.0     4.8       W   271   8.1       W   261   8.74    268       47.9
   10/04/2017 17:10      81.1      80.8       26     42.5      0.00      0.09      74.5     0.35      1012.0     4.8       W   271   8.1       W   261   8.74    268       47.9
   10/04/2017 17:00      81.1      80.9       26     42.6      0.00      0.09      74.5     0.35      1012.0     6.0       W   265   9.2     WSW   244   8.74    267       73.1
   10/04/2017 17:00      81.1      80.9       26     42.6      0.00      0.09      74.5     0.35      1012.0     6.0       W   265   9.2     WSW   244   8.74    267       73.1
   10/04/2017 16:50      82.5      81.2       26     43.7      0.00      0.09      74.3     0.35      1012.0     6.5     WSW   255   9.5       W   272   8.74    267      100.1
   10/04/2017 16:50      82.5      81.2       26     43.7      0.00      0.09      74.3     0.35      1012.0     6.5     WSW   255   9.5       W   272   8.74    267      100.1
   10/04/2017 16:40      82.5      81.9       26     44.1      0.00      0.09      74.2     0.35      1012.0     5.5     WSW   239   8.0      SW   229   8.74    267      125.3
   10/04/2017 16:40      82.5      81.9       26     44.1      0.00      0.09      74.2     0.35      1012.0     5.5     WSW   239   8.0      SW   229   8.74    267      125.3
   10/04/2017 16:30      83.7      82.3       25     43.9      0.00      0.09      74.3     0.35      1012.0     5.9     SSW   201   7.8       S   182   8.74    267      147.4
   10/04/2017 16:30      83.7      82.3       25     43.9      0.00      0.09      74.3     0.35      1012.0     5.9     SSW   201   7.8       S   182   8.74    267      147.4
   10/04/2017 16:20      86.5      84.3       18     37.3      0.00      0.09      74.2     0.35      1012.0     4.0     SSW   210   7.6      SW   235   8.74    268      163.6
   10/04/2017 16:20      86.5      84.3       18     37.3      0.00      0.09      74.2     0.35      1012.0     4.0     SSW   210   7.6      SW   235   8.74    268      163.6
   10/04/2017 16:10      86.6      86.0       16     34.5      0.00      0.09      74.3     0.35      1012.0     1.8      NE    42   2.5     NNE    16   8.74    268      179.2
   10/04/2017 16:10      86.6      86.0       16     34.5      0.00      0.09      74.3     0.35      1012.0     1.8      NE    42   2.5     NNE    16   8.74    268      179.2
   10/04/2017 16:00      86.2      85.6       17     36.5      0.00      0.09      74.3     0.35      1012.0     3.9     ENE    59   6.5       E    82   8.75    267      194.0
   10/04/2017 16:00      86.2      85.6       17     36.5      0.00      0.09      74.3     0.35      1012.0     3.9     ENE    59   6.5       E    82   8.75    267      194.0
   10/04/2017 15:50      86.1      85.8       15     32.4      0.00      0.09      74.2     0.35      1012.0     4.3     ESE   106   7.5       E    87   8.75    267      214.9
   10/04/2017 15:50      86.1      85.8       15     32.4      0.00      0.09      74.2     0.35      1012.0     4.3     ESE   106   7.5       E    87   8.75    267      214.9
   10/04/2017 15:40      86.4      86.1       13     29.3      0.00      0.09      74.2     0.35      1012.0     3.2     ESE   105   4.2     ESE   112   8.75    267      230.3
   10/04/2017 15:40      86.4      86.1       13     29.3      0.00      0.09      74.2     0.35      1012.0     3.2     ESE   105   4.2     ESE   112   8.75    267      230.3
   10/04/2017 15:30      86.7      86.2       13     29.2      0.00      0.09      74.1     0.35      1012.0     2.6     NNE    12   4.5       N     6   8.75    268      246.4
   10/04/2017 15:30      86.7      86.2       13     29.2      0.00      0.09      74.1     0.35      1012.0     2.6     NNE    12   4.5       N     6   8.75    268      246.4
   10/04/2017 15:20      87.2      86.7       12     28.0      0.00      0.09      74.1     0.35      1013.0     3.3     NNW   342   5.3      NW   306   8.75    268      263.4
   10/04/2017 15:20      87.2      86.7       12     28.0      0.00      0.09      74.1     0.35      1013.0     3.3     NNW   342   5.3      NW   306   8.75    268      263.4
   10/04/2017 15:10      86.8      85.8       12     27.4      0.00      0.09      74.0     0.35      1013.0     2.3     WSW   249   4.0       N   359   8.76    269      284.1
   10/04/2017 15:10      86.8      85.8       12     27.4      0.00      0.09      74.0     0.35      1013.0     2.3     WSW   249   4.0       N   359   8.76    269      284.1
   10/04/2017 15:00      86.3      85.3       12     28.0      0.00      0.09      74.0     0.35      1013.0     4.0     NNW   342   6.2       N     8   8.76    269      302.6
   10/04/2017 15:00      86.3      85.3       12     28.0      0.00      0.09      74.0     0.35      1013.0     4.0     NNW   342   6.2       N     8   8.76    269      302.6
   10/04/2017 14:50      86.1      84.5       13     28.1      0.00      0.09      73.8     0.35      1013.0     3.4     NNW   327   6.2     NNW   327   8.76    269      317.2
   10/04/2017 14:50      86.1      84.5       13     28.1      0.00      0.09      73.8     0.35      1013.0     3.4     NNW   327   6.2     NNW   327   8.76    269      317.2
   10/04/2017 14:40      84.5      84.1       13     27.4      0.00      0.09      74.0     0.35      1013.0     3.1     WSW   248   4.0     SSW   195   8.76    269      331.7
   10/04/2017 14:40      84.5      84.1       13     27.4      0.00      0.09      74.0     0.35      1013.0     3.1     WSW   248   4.0     SSW   195   8.76    269      331.7
   10/04/2017 14:30      84.6      84.0       14     29.3      0.00      0.09      73.7     0.35      1013.0     3.3      SW   227   5.6      SW   217   8.77    269      352.1
   10/04/2017 14:30      84.6      84.0       14     29.3      0.00      0.09      73.7     0.35      1013.0     3.3      SW   227   5.6      SW   217   8.77    269      352.1
   10/04/2017 14:20      84.5      83.8       14     29.4      0.00      0.09      73.8     0.35      1013.0     3.0     WNW   287   5.6     WSW   240   8.77    269      385.4
   10/04/2017 14:20      84.5      83.8       14     29.4      0.00      0.09      73.8     0.35      1013.0     3.0     WNW   287   5.6     WSW   240   8.77    269      385.4
   10/04/2017 14:10      84.0      83.4       15     31.4      0.00      0.09      74.0     0.35      1013.0     3.2     NNE    27   4.6      NE    41   8.77    269      386.4
   10/04/2017 14:10      84.0      83.4       15     31.4      0.00      0.09      74.0     0.35      1013.0     3.2     NNE    27   4.6      NE    41   8.77    269      386.4
   10/04/2017 14:00      83.5      82.8       16     32.6      0.00      0.09      73.8     0.35      1014.0     3.2     ENE    66   5.8     ENE    75   8.78    270      405.2
   10/04/2017 14:00      83.5      82.8       16     32.6      0.00      0.09      73.8     0.35      1014.0     3.2     ENE    66   5.8     ENE    75   8.78    270      405.2
   10/04/2017 13:50      82.9      81.5       18     34.3      0.00      0.09      73.9     0.35      1014.0     3.3       N   351   5.2     NNW   332   8.78    270      421.8
   10/04/2017 13:50      82.9      81.5       18     34.3      0.00      0.09      73.9     0.35      1014.0     3.3       N   351   5.2     NNW   332   8.78    270      421.8
   10/04/2017 13:40      82.1      81.0       18     34.0      0.00      0.09      73.7     0.35      1014.0     2.9       E    89   4.8     ENE    73   8.78    270      433.2
   10/04/2017 13:40      82.1      81.0       18     34.0      0.00      0.09      73.7     0.35      1014.0     2.9       E    89   4.8     ENE    73   8.78    270      433.2
   10/04/2017 13:30      81.5      81.0       19     35.2      0.00      0.09      73.7     0.35      1014.0     3.9       E    96   5.5       E    94   8.79    270      442.5
   10/04/2017 13:30      81.5      81.0       19     35.2      0.00      0.09      73.7     0.35      1014.0     3.9       E    96   5.5       E    94   8.79    270      442.5
   10/04/2017 13:20      81.9      81.0       20     36.2      0.00      0.09      73.8     0.35      1014.0     4.3     NNE    29   6.4      NE    40   8.79    270      448.4
   10/04/2017 13:20      81.9      81.0       20     36.2      0.00      0.09      73.8     0.35      1014.0     4.3     NNE    29   6.4      NE    40   8.79    270      448.4
   10/04/2017 13:10      81.4      80.3       20     36.4      0.00      0.09      73.9     0.35      1015.0     3.3     ENE    77   6.1     ENE    70   8.79    271      454.2
   10/04/2017 13:10      81.4      80.3       20     36.4      0.00      0.09      73.9     0.35      1015.0     3.3     ENE    77   6.1     ENE    70   8.79    271      454.2
   10/04/2017 13:00      81.4      80.4       20     36.4      0.00      0.09      73.7     0.35      1015.0     3.3     ENE    76   6.2     ENE    63   8.79    271      458.8
   10/04/2017 13:00      81.4      80.4       20     36.4      0.00      0.09      73.7     0.35      1015.0     3.3     ENE    76   6.2     ENE    63   8.79    271      458.8
   10/04/2017 12:50      80.6      79.3       21     36.8      0.00      0.09      73.5     0.35      1015.0     3.4      NE    39   5.3     ENE    78   8.80    272      458.9
   10/04/2017 12:50      80.6      79.3       21     36.8      0.00      0.09      73.5     0.35      1015.0     3.4      NE    39   5.3     ENE    78   8.80    272      458.9
   10/04/2017 12:40      80.4      79.2       22     37.4      0.00      0.09      73.7     0.35      1015.0     3.6      SE   143   6.0     ESE   121   8.80    272      465.1
   10/04/2017 12:40      80.4      79.2       22     37.4      0.00      0.09      73.7     0.35      1015.0     3.6      SE   143   6.0     ESE   121   8.80    272      465.1
   10/04/2017 12:30      80.6      78.6       22     36.9      0.00      0.09      73.8     0.35      1015.0     3.8       E    94   6.8     ESE   123   8.80    272      464.0
   10/04/2017 12:30      80.6      78.6       22     36.9      0.00      0.09      73.8     0.35      1015.0     3.8       E    94   6.8     ESE   123   8.80    272      464.0
   10/04/2017 12:20      79.3      78.0       24     39.0      0.00      0.09      74.0     0.35      1015.0     2.7     ENE    79   3.5       E    88   8.80    272      467.6
   10/04/2017 12:20      79.3      78.0       24     39.0      0.00      0.09      74.0     0.35      1015.0     2.7     ENE    79   3.5       E    88   8.80    272      467.6
   10/04/2017 12:10      78.5      77.7       24     38.3      0.00      0.09      73.8     0.35      1015.0     3.2     ENE    60   5.1       E    91   8.80    272      462.7
   10/04/2017 12:10      78.5      77.7       24     38.3      0.00      0.09      73.8     0.35      1015.0     3.2     ENE    60   5.1       E    91   8.80    272      462.7
   10/04/2017 12:00      77.3      76.3       27     40.0      0.00      0.09      73.7     0.35      1015.0     3.6       E    80   6.5      SE   128   8.80    273      462.4
   10/04/2017 12:00      77.3      76.3       27     40.0      0.00      0.09      73.7     0.35      1015.0     3.6       E    80   6.5      SE   128   8.80    273      462.4
   10/04/2017 11:50      77.0      76.3       27     40.4      0.00      0.09      74.0     0.35      1015.0     4.6       E    89   6.9     ENE    63   8.81    272      459.6
   10/04/2017 11:50      77.0      76.3       27     40.4      0.00      0.09      74.0     0.35      1015.0     4.6       E    89   6.9     ENE    63   8.81    272      459.6
   10/04/2017 11:40      76.3      75.8       28     40.9      0.00      0.09      74.0     0.35      1015.0     3.5     ENE    69   7.9     ENE    75   8.81    273      452.4
   10/04/2017 11:40      76.3      75.8       28     40.9      0.00      0.09      74.0     0.35      1015.0     3.5     ENE    69   7.9     ENE    75   8.81    273      452.4
   10/04/2017 11:30      75.9      74.1       31     41.9      0.00      0.09      73.9     0.35      1015.0     3.0     ENE    67   4.8     ENE    70   8.81    274      445.3
   10/04/2017 11:30      75.9      74.1       31     41.9      0.00      0.09      73.9     0.35      1015.0     3.0     ENE    67   4.8     ENE    70   8.81    274      445.3
   10/04/2017 11:20      75.3      74.8       30     41.8      0.00      0.09      73.9     0.35      1016.0     3.8     ENE    71   6.5     ENE    71   8.81    274      436.3
   10/04/2017 11:20      75.3      74.8       30     41.8      0.00      0.09      73.9     0.35      1016.0     3.8     ENE    71   6.5     ENE    71   8.81    274      436.3
   10/04/2017 11:10      74.7      74.2       30     41.0      0.00      0.09      74.0     0.35      1016.0     3.1     ENE    66   5.2     NNE    30   8.81    274      427.9
   10/04/2017 11:10      74.7      74.2       30     41.0      0.00      0.09      74.0     0.35      1016.0     3.1     ENE    66   5.2     NNE    30   8.81    274      427.9
   10/04/2017 11:00      74.1      72.2       32     41.2      0.00      0.09      73.8     0.35      1015.0     4.0     ENE    70   7.0     ENE    78   8.81    274      420.5
   10/04/2017 11:00      74.1      72.2       32     41.2      0.00      0.09      73.8     0.35      1015.0     4.0     ENE    70   7.0     ENE    78   8.81    274      420.5
   10/04/2017 10:50      72.3      71.2       34     41.7      0.00      0.09      74.4     0.35      1016.0     4.4     ENE    67   7.5     ENE    77   8.81    274      409.0
   10/04/2017 10:50      72.3      71.2       34     41.7      0.00      0.09      74.4     0.35      1016.0     4.4     ENE    67   7.5     ENE    77   8.81    274      409.0
   10/04/2017 10:40      71.3      70.2       35     41.8      0.00      0.09      74.1     0.35      1016.0     4.3     ESE   105   6.7     ESE   107   8.81    275      395.0
   10/04/2017 10:40      71.3      70.2       35     41.8      0.00      0.09      74.1     0.35      1016.0     4.3     ESE   105   6.7     ESE   107   8.81    275      395.0
   10/04/2017 10:30      70.1      69.6       36     41.8      0.00      0.09      74.2     0.35      1016.0     5.2      SE   127   8.0      SE   132   8.81    276      380.7
   10/04/2017 10:30      70.1      69.6       36     41.8      0.00      0.09      74.2     0.35      1016.0     5.2      SE   127   8.0      SE   132   8.81    276      380.7
   10/04/2017 10:20      69.8      68.8       36     41.4      0.00      0.09      74.3     0.35      1016.0     5.1     ESE   108   7.4      SE   132   8.81    276      364.9
   10/04/2017 10:20      69.8      68.8       36     41.4      0.00      0.09      74.3     0.35      1016.0     5.1     ESE   108   7.4      SE   132   8.81    276      364.9
   10/04/2017 10:10      69.9      69.1       35     40.7      0.00      0.09      74.2     0.35      1016.0     4.5     ESE   106   7.0     ESE   110   8.81    277      346.4
   10/04/2017 10:10      69.9      69.1       35     40.7      0.00      0.09      74.2     0.35      1016.0     4.5     ESE   106   7.0     ESE   110   8.81    277      346.4
   10/04/2017 10:00      69.9      68.7       33     38.9      0.00      0.09      73.9     0.35      1015.0     4.4       E    91   6.8     ESE   111   8.81    278      327.8
   10/04/2017 10:00      69.9      68.7       33     38.9      0.00      0.09      73.9     0.35      1015.0     4.4       E    91   6.8     ESE   111   8.81    278      327.8
   10/04/2017 09:50      69.6      68.3       31     37.5      0.00      0.09      74.5     0.35      1016.0     3.5     ESE   104   6.4     ENE    65   8.82    278      309.8
   10/04/2017 09:50      69.6      68.3       31     37.5      0.00      0.09      74.5     0.35      1016.0     3.5     ESE   104   6.4     ENE    65   8.82    278      309.8
   10/04/2017 09:40      68.7      67.1       32     37.1      0.00      0.09      74.5     0.35      1016.0     2.8       E    96   4.5       E    92   8.82    279      293.5
   10/04/2017 09:40      68.7      67.1       32     37.1      0.00      0.09      74.5     0.35      1016.0     2.8       E    96   4.5       E    92   8.82    279      293.5
   10/04/2017 09:30      68.4      67.2       32     36.4      0.00      0.09      74.2     0.35      1016.0     3.9     ENE    72   5.5     ESE   105   8.82    279      275.5
   10/04/2017 09:30      68.4      67.2       32     36.4      0.00      0.09      74.2     0.35      1016.0     3.9     ENE    72   5.5     ESE   105   8.82    279      275.5
   10/04/2017 09:20      68.7      66.9       30     35.3      0.00      0.09      74.5     0.35      1015.0     1.9      NE    53   3.3       N     2   8.82    280      257.7
   10/04/2017 09:20      68.7      66.9       30     35.3      0.00      0.09      74.5     0.35      1015.0     1.9      NE    53   3.3       N     2   8.82    280      257.7
   10/04/2017 09:10      67.0      65.2       32     35.4      0.00      0.09      74.2     0.35      1015.0     1.6     ESE   105   2.9     ESE   123   8.82    280      241.7
   10/04/2017 09:10      67.0      65.2       32     35.4      0.00      0.09      74.2     0.35      1015.0     1.6     ESE   105   2.9     ESE   123   8.82    280      241.7
   10/04/2017 09:00      65.4      63.2       38     38.3      0.00      0.09      74.6     0.35      1015.0     2.0      SE   132   2.5     ESE   117   8.82    280      222.9
   10/04/2017 09:00      65.4      63.2       38     38.3      0.00      0.09      74.6     0.35      1015.0     2.0      SE   132   2.5     ESE   117   8.82    280      222.9
   10/04/2017 08:50      63.2      62.3       43     39.6      0.00      0.09      74.6     0.35      1015.0     3.8      SE   133   6.5      SE   141   8.82    280      201.1
   10/04/2017 08:50      63.2      62.3       43     39.6      0.00      0.09      74.6     0.35      1015.0     3.8      SE   133   6.5      SE   141   8.82    280      201.1
   10/04/2017 08:40      62.6      61.4       46     41.4      0.00      0.09      74.4     0.35      1015.0     2.9      SE   131   5.5     SSE   149   8.82    282      176.2
   10/04/2017 08:40      62.6      61.4       46     41.4      0.00      0.09      74.4     0.35      1015.0     2.9      SE   131   5.5     SSE   149   8.82    282      176.2
   10/04/2017 08:30      61.4      59.1       52     42.8      0.00      0.09      74.7     0.35      1015.0     1.7      SE   131   3.0      SE   124   8.82    282      146.1
   10/04/2017 08:30      61.4      59.1       52     42.8      0.00      0.09      74.7     0.35      1015.0     1.7      SE   131   3.0      SE   124   8.82    282      146.1
   10/04/2017 08:20      58.8      56.3       60     43.7      0.00      0.09      74.7     0.36      1015.0     3.5      SE   130   5.1      SE   124   8.82    282      120.3
   10/04/2017 08:20      58.8      56.3       60     43.7      0.00      0.09      74.7     0.36      1015.0     3.5      SE   130   5.1      SE   124   8.82    282      120.3
   10/04/2017 08:10      56.0      54.2       66     44.1      0.00      0.09      75.0     0.36      1015.0     2.4     SSE   155   4.3      SE   146   8.82    282      121.2
   10/04/2017 08:10      56.0      54.2       66     44.1      0.00      0.09      75.0     0.36      1015.0     2.4     SSE   155   4.3      SE   146   8.82    282      121.2
   10/04/2017 08:00      54.4      53.8       68     43.8      0.00      0.09      74.6     0.36      1015.0     1.6     SSE   147   2.5      SE   137   8.83    282       97.3
   10/04/2017 08:00      54.4      53.8       68     43.8      0.00      0.09      74.6     0.36      1015.0     1.6     SSE   147   2.5      SE   137   8.83    282       97.3
   10/04/2017 07:50      53.8      52.0       72     44.2      0.00      0.09      74.7     0.36      1015.0     0.6      SE   145   0.9      SE   124   8.83    282       58.2
   10/04/2017 07:50      53.8      52.0       72     44.2      0.00      0.09      74.7     0.36      1015.0     0.6      SE   145   0.9      SE   124   8.83    282       58.2
   10/04/2017 07:40      51.7      49.6       78     44.0      0.00      0.09      74.8     0.36      1015.0     1.3     NNW   333   2.8     NNE    18   9.05    282       18.3
   10/04/2017 07:40      51.7      49.6       78     44.0      0.00      0.09      74.8     0.36      1015.0     1.3     NNW   333   2.8     NNE    18   9.05    282       18.3
   10/04/2017 07:30      49.7      48.3       80     43.2      0.00      0.09      74.9     0.36      1015.0     1.6       E    99   2.7     SSE   160   9.05    281      -11.9
   10/04/2017 07:30      49.7      48.3       80     43.2      0.00      0.09      74.9     0.36      1015.0     1.6       E    99   2.7     SSE   160   9.05    281      -11.9
   10/04/2017 07:20      48.3      47.5       82     42.8      0.00      0.09      74.9     0.36      1015.0     1.4       W   271   2.6     NNW   346   9.05    282      -15.8
   10/04/2017 07:20      48.3      47.5       82     42.8      0.00      0.09      74.9     0.36      1015.0     1.4       W   271   2.6     NNW   346   9.05    282      -15.8
   10/04/2017 07:10      47.5      46.8       83     42.4      0.00      0.09      75.0     0.36      1015.0     3.4      SE   129   4.7     ESE   123   9.05    281      -19.9
   10/04/2017 07:10      47.5      46.8       83     42.4      0.00      0.09      75.0     0.36      1015.0     3.4      SE   129   4.7     ESE   123   9.05    281      -19.9
   10/04/2017 07:00      46.9      46.5       84     42.1      0.00      0.09      75.0     0.36      1015.0     1.8      SE   144   3.4     SSE   149   9.05    281      -24.4
   10/04/2017 07:00      46.9      46.5       84     42.1      0.00      0.09      75.0     0.36      1015.0     1.8      SE   144   3.4     SSE   149   9.05    281      -24.4
   10/04/2017 06:50      47.3      46.5       83     42.1      0.00      0.09      75.2     0.36      1015.0     2.2      SW   219   3.2       S   176   9.06    282      -26.9
   10/04/2017 06:50      47.3      46.5       83     42.1      0.00      0.09      75.2     0.36      1015.0     2.2      SW   219   3.2       S   176   9.06    282      -26.9
   10/04/2017 06:40      47.4      47.0       84     42.4      0.00      0.09      74.8     0.36      1015.0     1.1     SSE   157   2.3       S   180   9.06    282      -28.2
   10/04/2017 06:40      47.4      47.0       84     42.4      0.00      0.09      74.8     0.36      1015.0     1.1     SSE   157   2.3       S   180   9.06    282      -28.2
   10/04/2017 06:30      47.4      47.0       82     41.9      0.00      0.09      75.0     0.36      1015.0     1.4       E    91   2.3      NE    56   9.06    282      -30.0
   10/04/2017 06:30      47.4      47.0       82     41.9      0.00      0.09      75.0     0.36      1015.0     1.4       E    91   2.3      NE    56   9.06    282      -30.0
   10/04/2017 06:20      47.5      47.2       83     42.3      0.00      0.09      75.0     0.36      1015.0     2.0     SSE   148   2.9       S   171   9.06    282      -29.2
   10/04/2017 06:20      47.5      47.2       83     42.3      0.00      0.09      75.0     0.36      1015.0     2.0     SSE   148   2.9       S   171   9.06    282      -29.2
   10/04/2017 06:10      47.4      47.0       83     42.2      0.00      0.09      74.9     0.36      1015.0     1.7     SSE   157   3.0       S   171   9.06    282      -29.6
   10/04/2017 06:10      47.4      47.0       83     42.2      0.00      0.09      74.9     0.36      1015.0     1.7     SSE   157   3.0       S   171   9.06    282      -29.6
   10/04/2017 06:00      47.4      47.0       82     42.1      0.00      0.09      74.9     0.36      1015.0     2.4      SE   129   4.9     SSE   163   9.06    282      -29.4
   10/04/2017 06:00      47.4      47.0       82     42.1      0.00      0.09      74.9     0.36      1015.0     2.4      SE   129   4.9     SSE   163   9.06    282      -29.4
   10/04/2017 05:50      47.4      47.3       83     42.4      0.00      0.09      75.1     0.36      1015.0     0.9       W   266   1.4     SSW   197   9.06    282      -29.0
   10/04/2017 05:50      47.4      47.3       83     42.4      0.00      0.09      75.1     0.36      1015.0     0.9       W   266   1.4     SSW   197   9.06    282      -29.0
   10/04/2017 05:40      47.8      47.5       84     42.9      0.00      0.09      75.0     0.36      1015.0     1.5       S   172   2.6     SSE   151   9.06    282      -29.1
   10/04/2017 05:40      47.8      47.5       84     42.9      0.00      0.09      75.0     0.36      1015.0     1.5       S   172   2.6     SSE   151   9.06    282      -29.1
   10/04/2017 05:30      47.9      47.5       84     43.0      0.00      0.09      75.2     0.36      1015.0     1.8      SE   144   3.7     SSE   156   9.07    282      -29.2
   10/04/2017 05:30      47.9      47.5       84     43.0      0.00      0.09      75.2     0.36      1015.0     1.8      SE   144   3.7     SSE   156   9.07    282      -29.2
   10/04/2017 05:20      48.1      47.8       84     43.3      0.00      0.09      75.4     0.36      1015.0     0.8     SSE   153   1.7       S   169   9.07    282      -28.8
   10/04/2017 05:20      48.1      47.8       84     43.3      0.00      0.09      75.4     0.36      1015.0     0.8     SSE   153   1.7       S   169   9.07    282      -28.8
   10/04/2017 05:10      49.1      48.2       84     43.8      0.00      0.09      75.4     0.36      1015.0     1.7       S   175   3.9     SSE   149   9.06    282      -29.0
   10/04/2017 05:10      49.1      48.2       84     43.8      0.00      0.09      75.4     0.36      1015.0     1.7       S   175   3.9     SSE   149   9.06    282      -29.0
   10/04/2017 05:00      49.2      48.7       84     44.2      0.00      0.09      75.3     0.36      1015.0     1.2     SSE   152   1.9     SSE   167   9.07    282      -29.4
   10/04/2017 05:00      49.2      48.7       84     44.2      0.00      0.09      75.3     0.36      1015.0     1.2     SSE   152   1.9     SSE   167   9.07    282      -29.4
   10/04/2017 04:50      49.3      48.7       84     44.3      0.00      0.09      75.3     0.36      1015.0     1.4       S   182   3.1      SE   137   9.07    282      -30.6
   10/04/2017 04:50      49.3      48.7       84     44.3      0.00      0.09      75.3     0.36      1015.0     1.4       S   182   3.1      SE   137   9.07    282      -30.6
   10/04/2017 04:40      50.0      49.5       84     45.3      0.00      0.09      75.3     0.36      1015.0     1.9       S   184   3.5      SE   136   9.07    281      -30.0
   10/04/2017 04:40      50.0      49.5       84     45.3      0.00      0.09      75.3     0.36      1015.0     1.9       S   184   3.5      SE   136   9.07    281      -30.0
   10/04/2017 04:30      50.0      49.2       86     45.6      0.00      0.09      75.4     0.36      1015.0     1.6     NNW   332   2.9      NW   309   9.07    282      -30.6
   10/04/2017 04:30      50.0      49.2       86     45.6      0.00      0.09      75.4     0.36      1015.0     1.6     NNW   332   2.9      NW   309   9.07    282      -30.6
   10/04/2017 04:20      49.5      49.2       85     45.1      0.00      0.09      75.2     0.36      1015.0     2.1     SSE   149   3.3      SE   134   9.07    281      -30.6
   10/04/2017 04:20      49.5      49.2       85     45.1      0.00      0.09      75.2     0.36      1015.0     2.1     SSE   149   3.3      SE   134   9.07    281      -30.6
   10/04/2017 04:10      49.8      49.3       86     45.5      0.00      0.09      75.2     0.36      1015.0     2.5      SE   140   3.6      SE   138   9.07    281      -30.5
   10/04/2017 04:10      49.8      49.3       86     45.5      0.00      0.09      75.2     0.36      1015.0     2.5      SE   140   3.6      SE   138   9.07    281      -30.5
   10/04/2017 04:00      49.8      49.6       85     45.4      0.00      0.09      75.6     0.36      1015.0     1.8      SE   145   3.1     SSE   147   9.07    281      -30.6
   10/04/2017 04:00      49.8      49.6       85     45.4      0.00      0.09      75.6     0.36      1015.0     1.8      SE   145   3.1     SSE   147   9.07    281      -30.6
   10/04/2017 03:50      50.1      49.7       85     45.6      0.00      0.09      75.8     0.36      1015.0     0.8     SSE   152   1.9     ESE   115   9.07    281      -30.4
   10/04/2017 03:50      50.1      49.7       85     45.6      0.00      0.09      75.8     0.36      1015.0     0.8     SSE   152   1.9     ESE   115   9.07    281      -30.4
   10/04/2017 03:40      50.3      49.7       84     45.5      0.00      0.09      75.5     0.36      1015.0     0.7      SE   145   1.7      SE   125   9.07    281      -31.3
   10/04/2017 03:40      50.3      49.7       84     45.5      0.00      0.09      75.5     0.36      1015.0     0.7      SE   145   1.7      SE   125   9.07    281      -31.3
   10/04/2017 03:30      50.3      50.1       87     46.4      0.00      0.09      75.8     0.36      1014.0     0.7     WSW   248   1.3     WSW   237   9.07    281      -30.7
   10/04/2017 03:30      50.3      50.1       87     46.4      0.00      0.09      75.8     0.36      1014.0     0.7     WSW   248   1.3     WSW   237   9.07    281      -30.7
   10/04/2017 03:20      50.8      50.2       88     46.9      0.00      0.09      75.5     0.36      1015.0     1.7     SSE   147   2.1      SE   126   9.07    282      -30.8
   10/04/2017 03:20      50.8      50.2       88     46.9      0.00      0.09      75.5     0.36      1015.0     1.7     SSE   147   2.1      SE   126   9.07    282      -30.8
   10/04/2017 03:10      50.8      50.5       89     47.4      0.00      0.09      75.7     0.36      1014.0     1.8      SE   141   2.3      SE   129   9.07    282      -31.9
   10/04/2017 03:10      50.8      50.5       89     47.4      0.00      0.09      75.7     0.36      1014.0     1.8      SE   141   2.3      SE   129   9.07    282      -31.9
   10/04/2017 03:00      51.2      50.7       89     47.9      0.00      0.09      75.7     0.36      1014.0     1.4     SSE   167   3.0      SE   130   9.07    281      -31.5
   10/04/2017 03:00      51.2      50.7       89     47.9      0.00      0.09      75.7     0.36      1014.0     1.4     SSE   167   3.0      SE   130   9.07    281      -31.5
   10/04/2017 02:50      51.9      51.2       89     48.3      0.00      0.09      75.9     0.36      1014.0     1.1     ESE   120   1.9      SE   129   9.07    282      -32.8
   10/04/2017 02:50      51.9      51.2       89     48.3      0.00      0.09      75.9     0.36      1014.0     1.1     ESE   120   1.9      SE   129   9.07    282      -32.8
   10/04/2017 02:40      51.9      51.6       90     48.8      0.00      0.09      76.0     0.36      1014.0     1.3      SE   143   1.9      SE   133   9.07    282      -33.7
   10/04/2017 02:40      51.9      51.6       90     48.8      0.00      0.09      76.0     0.36      1014.0     1.3      SE   143   1.9      SE   133   9.07    282      -33.7
   10/04/2017 02:30      52.7      51.8       89     49.4      0.00      0.09      76.0     0.36      1014.0     1.9     SSE   149   2.5      SE   139   9.07    282      -34.4
   10/04/2017 02:30      52.7      51.8       89     49.4      0.00      0.09      76.0     0.36      1014.0     1.9     SSE   149   2.5      SE   139   9.07    282      -34.4
   10/04/2017 02:20      52.9      52.6       90     49.8      0.00      0.09      76.1     0.36      1014.0     0.4     ESE   118   1.3       S   177   9.07    282      -35.7
   10/04/2017 02:20      52.9      52.6       90     49.8      0.00      0.09      76.1     0.36      1014.0     0.4     ESE   118   1.3       S   177   9.07    282      -35.7
   10/04/2017 02:10      53.2      52.7       89     49.7      0.00      0.09      76.1     0.36      1014.0     1.2       S   176   1.9      SE   143   9.07    282      -37.9
   10/04/2017 02:10      53.2      52.7       89     49.7      0.00      0.09      76.1     0.36      1014.0     1.2       S   176   1.9      SE   143   9.07    282      -37.9
   10/04/2017 02:00      53.4      53.1       88     49.8      0.00      0.09      76.0     0.36      1014.0     1.0      SE   133   1.3      SE   146   9.08    281      -40.4
   10/04/2017 02:00      53.4      53.1       88     49.8      0.00      0.09      76.0     0.36      1014.0     1.0      SE   133   1.3      SE   146   9.08    281      -40.4
   10/04/2017 01:50      54.0      53.5       88     50.3      0.00      0.09      76.3     0.36      1014.0     1.3     SSE   155   1.9      SE   129   9.08    281      -42.8
   10/04/2017 01:50      54.0      53.5       88     50.3      0.00      0.09      76.3     0.36      1014.0     1.3     SSE   155   1.9      SE   129   9.08    281      -42.8
   10/04/2017 01:40      53.9      53.4       87     49.8      0.00      0.09      76.1     0.36      1014.0     1.2     SSE   167   1.9     SSE   167   9.08    281      -46.8
   10/04/2017 01:40      53.9      53.4       87     49.8      0.00      0.09      76.1     0.36      1014.0     1.2     SSE   167   1.9     SSE   167   9.08    281      -46.8
   10/04/2017 01:30      54.3      53.6       86     49.8      0.00      0.09      76.0     0.36      1014.0     1.0     ESE   124   1.7      SE   129   9.08    281      -50.5
   10/04/2017 01:30      54.3      53.6       86     49.8      0.00      0.09      76.0     0.36      1014.0     1.0     ESE   124   1.7      SE   129   9.08    281      -50.5
   10/04/2017 01:20      54.4      53.7       86     49.9      0.00      0.09      75.8     0.36      1014.0     1.4      SW   221   2.5     SSE   147   9.08    281      -52.7
   10/04/2017 01:20      54.4      53.7       86     49.9      0.00      0.09      75.8     0.36      1014.0     1.4      SW   221   2.5     SSE   147   9.08    281      -52.7
   10/04/2017 01:10      54.7      53.8       86     50.1      0.00      0.09      75.9     0.36      1014.0     1.4      SE   131   2.3      SE   137   9.08    281      -55.2
   10/04/2017 01:10      54.7      53.8       86     50.1      0.00      0.09      75.9     0.36      1014.0     1.4      SE   131   2.3      SE   137   9.08    281      -55.2
   10/04/2017 01:00      54.7      54.0       85     50.1      0.00      0.09      76.1     0.36      1014.0     2.2       S   182   3.1       S   186   9.08    281      -57.5
   10/04/2017 01:00      54.7      54.0       85     50.1      0.00      0.09      76.1     0.36      1014.0     2.2       S   182   3.1       S   186   9.08    281      -57.5
   10/04/2017 00:50      54.8      54.5       85     50.2      0.00      0.09      76.1     0.36      1014.0     1.4      SE   141   2.4      SE   135   9.08    281      -58.9
   10/04/2017 00:50      54.8      54.5       85     50.2      0.00      0.09      76.1     0.36      1014.0     1.4      SE   141   2.4      SE   135   9.08    281      -58.9
   10/04/2017 00:40      55.0      54.8       84     50.3      0.00      0.09      76.2     0.36      1014.0     1.4     SSE   153   2.0       S   172   9.08    281      -63.3
   10/04/2017 00:40      55.0      54.8       84     50.3      0.00      0.09      76.2     0.36      1014.0     1.4     SSE   153   2.0       S   172   9.08    281      -63.3
   10/04/2017 00:30      55.8      55.2       83     50.5      0.00      0.09      75.8     0.36      1014.0     1.4      SE   129   2.7      SE   141   9.08    281      -62.5
   10/04/2017 00:30      55.8      55.2       83     50.5      0.00      0.09      75.8     0.36      1014.0     1.4      SE   129   2.7      SE   141   9.08    281      -62.5
   10/04/2017 00:20      56.0      55.8       84     51.0      0.00      0.09      76.5     0.36      1014.0     0.6     WSW   244   0.9       W   260   9.08    281      -62.9
   10/04/2017 00:20      56.0      55.8       84     51.0      0.00      0.09      76.5     0.36      1014.0     0.6     WSW   244   0.9       W   260   9.08    281      -62.9
   10/04/2017 00:10      56.1      55.9       83     51.0      0.00      0.09      76.1     0.36      1014.0     1.8       S   184   2.8     SSE   165   9.08    281      -64.6
   10/04/2017 00:10      56.1      55.9       83     51.0      0.00      0.09      76.1     0.36      1014.0     1.8       S   184   2.8     SSE   165   9.08    281      -64.6
   10/04/2017 00:00      56.6      56.3       82     51.1      0.00      0.09      76.4     0.36      1014.0     1.5     SSE   152   2.1     SSE   147   9.08    280      -64.6
   10/04/2017 00:00      56.6      56.3       82     51.1      0.00      0.09      76.4     0.36      1014.0     1.5     SSE   152   2.1     SSE   147   9.08    280      -64.6
   10/03/2017 23:50      57.0      56.4       81     50.8      0.00      0.09      76.5     0.36      1014.0     1.0     ESE   121   1.4     ESE   110   9.08    280      -63.9
   10/03/2017 23:50      57.0      56.4       81     50.8      0.00      0.09      76.5     0.36      1014.0     1.0     ESE   121   1.4     ESE   110   9.08    280      -63.9
   10/03/2017 23:40      57.5      57.0       81     51.4      0.00      0.09      76.1     0.36      1014.0     1.1      SE   124   1.8      SE   138   9.08    280      -64.3
   10/03/2017 23:40      57.5      57.0       81     51.4      0.00      0.09      76.1     0.36      1014.0     1.1      SE   124   1.8      SE   138   9.08    280      -64.3
   10/03/2017 23:30      57.7      57.5       80     51.5      0.00      0.09      76.5     0.36      1014.0     0.8     SSE   161   1.1     SSE   167   9.08    279      -65.1
   10/03/2017 23:30      57.7      57.5       80     51.5      0.00      0.09      76.5     0.36      1014.0     0.8     SSE   161   1.1     SSE   167   9.08    279      -65.1
   10/03/2017 23:20      58.2      57.5       78     51.0      0.00      0.09      76.0     0.36      1014.0     1.8       S   174   2.7       S   176   9.08    280      -65.0
   10/03/2017 23:20      58.2      57.5       78     51.0      0.00      0.09      76.0     0.36      1014.0     1.8       S   174   2.7       S   176   9.08    280      -65.0
   10/03/2017 23:10      59.0      58.4       78     51.7      0.00      0.09      76.5     0.36      1014.0     2.3     SSE   162   3.4     SSE   161   9.08    279      -64.3
   10/03/2017 23:10      59.0      58.4       78     51.7      0.00      0.09      76.5     0.36      1014.0     2.3     SSE   162   3.4     SSE   161   9.08    279      -64.3
   10/03/2017 23:00      59.3      58.9       76     51.6      0.00      0.09      76.6     0.36      1014.0     1.1       S   173   1.6     SSE   147   9.08    279      -64.3
   10/03/2017 23:00      59.3      58.9       76     51.6      0.00      0.09      76.6     0.36      1014.0     1.1       S   173   1.6     SSE   147   9.08    279      -64.3
   10/03/2017 22:50      59.3      59.2       75     51.4      0.00      0.09      76.2     0.36      1014.0     1.6       S   172   2.1       S   189   9.08    279      -56.7
   10/03/2017 22:50      59.3      59.2       75     51.4      0.00      0.09      76.2     0.36      1014.0     1.6       S   172   2.1       S   189   9.08    279      -56.7
   10/03/2017 22:40      59.5      59.2       75     51.5      0.00      0.09      76.4     0.36      1014.0     1.6      SE   145   2.6     SSE   157   9.08    279      -42.0
   10/03/2017 22:40      59.5      59.2       75     51.5      0.00      0.09      76.4     0.36      1014.0     1.6      SE   145   2.6     SSE   157   9.08    279      -42.0
   10/03/2017 22:30      59.5      58.9       76     51.7      0.00      0.09      76.0     0.36      1014.0     1.7      SE   134   2.1      SE   143   9.08    279      -40.1
   10/03/2017 22:30      59.5      58.9       76     51.7      0.00      0.09      76.0     0.36      1014.0     1.7      SE   134   2.1      SE   143   9.08    279      -40.1
   10/03/2017 22:20      59.1      58.3       77     51.5      0.00      0.09      76.5     0.36      1014.0     2.2      SE   143   2.5      SE   139   9.08    279      -25.2
   10/03/2017 22:20      59.1      58.3       77     51.5      0.00      0.09      76.5     0.36      1014.0     2.2      SE   143   2.5      SE   139   9.08    279      -25.2
   10/03/2017 22:10      58.4      58.1       78     51.6      0.00      0.09      76.5     0.36      1013.0     1.3      SE   128   2.1      SE   142   9.08    279      -31.3
   10/03/2017 22:10      58.4      58.1       78     51.6      0.00      0.09      76.5     0.36      1013.0     1.3      SE   128   2.1      SE   142   9.08    279      -31.3
   10/03/2017 22:00      58.5      58.1       78     51.3      0.00      0.09      76.1     0.36      1013.0     1.3     SSE   154   1.9     SSE   162   9.08    279      -54.0
   10/03/2017 22:00      58.5      58.1       78     51.3      0.00      0.09      76.1     0.36      1013.0     1.3     SSE   154   1.9     SSE   162   9.08    279      -54.0
   10/03/2017 21:50      58.7      58.4       77     51.3      0.00      0.09      76.6     0.36      1013.0     1.9       S   179   2.3      SE   141   9.08    279      -59.1
   10/03/2017 21:50      58.7      58.4       77     51.3      0.00      0.09      76.6     0.36      1013.0     1.9       S   179   2.3      SE   141   9.08    279      -59.1
   10/03/2017 21:40      59.0      58.7       77     51.8      0.00      0.09      76.3     0.36      1013.0     1.1      SE   145   1.9     SSE   163   9.08    279      -63.5
   10/03/2017 21:40      59.0      58.7       77     51.8      0.00      0.09      76.3     0.36      1013.0     1.1      SE   145   1.9     SSE   163   9.08    279      -63.5
   10/03/2017 21:30      59.4      59.1       77     51.9      0.00      0.09      76.2     0.36      1013.0     0.9     SSE   147   1.6      SE   143   9.09    279      -66.6
   10/03/2017 21:30      59.4      59.1       77     51.9      0.00      0.09      76.2     0.36      1013.0     0.9     SSE   147   1.6      SE   143   9.09    279      -66.6
   10/03/2017 21:20      59.6      59.4       76     51.9      0.00      0.09      76.2     0.36      1013.0     1.2       S   183   1.9       S   186   9.09    278      -66.9
   10/03/2017 21:20      59.6      59.4       76     51.9      0.00      0.09      76.2     0.36      1013.0     1.2       S   183   1.9       S   186   9.09    278      -66.9
   10/03/2017 21:10      59.6      59.4       74     51.3      0.00      0.09      76.5     0.36      1013.0     0.8      SE   134   1.9     SSE   167   9.09    278      -67.0
   10/03/2017 21:10      59.6      59.4       74     51.3      0.00      0.09      76.5     0.36      1013.0     0.8      SE   134   1.9     SSE   167   9.09    278      -67.0
   10/03/2017 21:00      60.5      59.8       72     51.2      0.00      0.09      76.5     0.36      1013.0     2.5      SE   143   3.4     SSE   156   9.09    278      -69.1
   10/03/2017 21:00      60.5      59.8       72     51.2      0.00      0.09      76.5     0.36      1013.0     2.5      SE   143   3.4     SSE   156   9.09    278      -69.1
   10/03/2017 20:50      60.9      60.5       72     51.5      0.00      0.09      76.3     0.36      1013.0     1.8     SSE   166   2.7     SSE   153   9.09    278      -65.7
   10/03/2017 20:50      60.9      60.5       72     51.5      0.00      0.09      76.3     0.36      1013.0     1.8     SSE   166   2.7     SSE   153   9.09    278      -65.7
   10/03/2017 20:40      60.9      60.4       72     51.6      0.00      0.09      76.4     0.36      1013.0     0.6      SE   134   1.1     SSE   158   9.09    278      -52.2
   10/03/2017 20:40      60.9      60.4       72     51.6      0.00      0.09      76.4     0.36      1013.0     0.6      SE   134   1.1     SSE   158   9.09    278      -52.2
   10/03/2017 20:30      60.6      60.4       72     51.3      0.00      0.09      76.5     0.36      1013.0     0.5      NE    44   0.7      NE    44   9.09    278      -39.1
   10/03/2017 20:30      60.6      60.4       72     51.3      0.00      0.09      76.5     0.36      1013.0     0.5      NE    44   0.7      NE    44   9.09    278      -39.1
   10/03/2017 20:20      61.3      60.6       70     51.3      0.00      0.09      76.5     0.36      1012.0     1.8     SSE   147   2.5     SSE   164   9.09    277      -63.0
   10/03/2017 20:20      61.3      60.6       70     51.3      0.00      0.09      76.5     0.36      1012.0     1.8     SSE   147   2.5     SSE   164   9.09    277      -63.0
   10/03/2017 20:10      61.9      61.6       69     51.5      0.00      0.09      76.4     0.36      1012.0     1.4     SSE   162   2.2     SSW   200   9.09    277      -70.7
   10/03/2017 20:10      61.9      61.6       69     51.5      0.00      0.09      76.4     0.36      1012.0     1.4     SSE   162   2.2     SSW   200   9.09    277      -70.7
   10/03/2017 20:00      62.4      62.0       68     51.6      0.00      0.09      76.7     0.36      1012.0     2.6       S   191   3.5       S   190   9.09    277      -70.3
   10/03/2017 20:00      62.4      62.0       68     51.6      0.00      0.09      76.7     0.36      1012.0     2.6       S   191   3.5       S   190   9.09    277      -70.3
   10/03/2017 19:50      62.8      62.3       67     51.5      0.00      0.09      76.4     0.36      1012.0     2.5       S   188   3.0       S   182   9.09    277      -70.9
   10/03/2017 19:50      62.8      62.3       67     51.5      0.00      0.09      76.4     0.36      1012.0     2.5       S   188   3.0       S   182   9.09    277      -70.9
   10/03/2017 19:40      63.2      62.9       66     51.5      0.00      0.09      76.4     0.36      1012.0     1.2     SSW   200   1.9       S   171   9.09    277      -73.7
   10/03/2017 19:40      63.2      62.9       66     51.5      0.00      0.09      76.4     0.36      1012.0     1.2     SSW   200   1.9       S   171   9.09    277      -73.7
   10/03/2017 19:30      63.3      63.1       66     51.5      0.00      0.09      76.5     0.36      1012.0     2.5       S   185   3.5       S   172   9.09    276      -75.5
   10/03/2017 19:30      63.3      63.1       66     51.5      0.00      0.09      76.5     0.36      1012.0     2.5       S   185   3.5       S   172   9.09    276      -75.5
   10/03/2017 19:20      63.7      63.4       65     51.7      0.00      0.09      76.3     0.36      1012.0     2.9       S   175   4.2      SE   145   9.09    276      -73.0
   10/03/2017 19:20      63.7      63.4       65     51.7      0.00      0.09      76.3     0.36      1012.0     2.9       S   175   4.2      SE   145   9.09    276      -73.0
   10/03/2017 19:10      63.9      63.7       65     51.7      0.00      0.09      76.4     0.36      1012.0     2.2       S   182   3.1       S   175   9.09    276      -62.7
   10/03/2017 19:10      63.9      63.7       65     51.7      0.00      0.09      76.4     0.36      1012.0     2.2       S   182   3.1       S   175   9.09    276      -62.7
   10/03/2017 19:00      64.2      64.0       64     51.7      0.00      0.09      76.3     0.36      1012.0     3.5       S   170   5.5      SE   145   9.09    275      -74.5
   10/03/2017 19:00      64.2      64.0       64     51.7      0.00      0.09      76.3     0.36      1012.0     3.5       S   170   5.5      SE   145   9.09    275      -74.5
   10/03/2017 18:50      64.5      64.2       63     51.5      0.00      0.09      76.3     0.36      1012.0     3.9       S   174   5.5       S   172   9.09    275      -76.3
   10/03/2017 18:50      64.5      64.2       63     51.5      0.00      0.09      76.3     0.36      1012.0     3.9       S   174   5.5       S   172   9.09    275      -76.3
   10/03/2017 18:40      65.0      64.6       62     51.4      0.00      0.09      76.5     0.36      1011.0     3.4       S   184   4.6     SSW   196   9.09    275      -75.0
   10/03/2017 18:40      65.0      64.6       62     51.4      0.00      0.09      76.5     0.36      1011.0     3.4       S   184   4.6     SSW   196   9.09    275      -75.0
   10/03/2017 18:30      65.2      65.0       61     51.4      0.00      0.09      76.3     0.36      1011.0     3.5       S   171   5.1     SSE   166   9.10    275      -72.2
   10/03/2017 18:30      65.2      65.0       61     51.4      0.00      0.09      76.3     0.36      1011.0     3.5       S   171   5.1     SSE   166   9.10    275      -72.2
   10/03/2017 18:20      65.8      65.4       60     51.3      0.00      0.09      76.1     0.36      1011.0     5.1       S   178   6.8       S   176   9.10    275      -66.1
   10/03/2017 18:20      65.8      65.4       60     51.3      0.00      0.09      76.1     0.36      1011.0     5.1       S   178   6.8       S   176   9.10    275      -66.1
   10/03/2017 18:10      66.6      65.9       58     51.3      0.00      0.09      76.2     0.36      1011.0     5.4     SSE   159   8.4     SSE   148   9.10    275      -58.8
   10/03/2017 18:10      66.6      65.9       58     51.3      0.00      0.09      76.2     0.36      1011.0     5.4     SSE   159   8.4     SSE   148   9.10    275      -58.8
   10/03/2017 18:00      66.8      66.5       58     51.3      0.00      0.09      76.5     0.36      1011.0     4.2     SSE   167   6.9     SSW   203   9.10    275      -35.6
   10/03/2017 18:00      66.8      66.5       58     51.3      0.00      0.09      76.5     0.36      1011.0     4.2     SSE   167   6.9     SSW   203   9.10    275      -35.6
   10/03/2017 17:50      67.2      66.7       57     51.2      0.00      0.09      76.3     0.36      1011.0     5.2     SSE   167   7.4     SSE   166   9.10    275      -17.8
   10/03/2017 17:50      67.2      66.7       57     51.2      0.00      0.09      76.3     0.36      1011.0     5.2     SSE   167   7.4     SSE   166   9.10    275      -17.8
   10/03/2017 17:40      67.5      67.2       56     51.2      0.00      0.09      76.0     0.36      1011.0     5.3     SSE   155   8.1      SE   136   9.10    275      -10.1
   10/03/2017 17:40      67.5      67.2       56     51.2      0.00      0.09      76.0     0.36      1011.0     5.3     SSE   155   8.1      SE   136   9.10    275      -10.1
   10/03/2017 17:30      67.9      67.5       56     51.3      0.00      0.09      76.2     0.36      1011.0     6.1       S   190   9.1     SSE   162   9.11    275       21.2
   10/03/2017 17:30      67.9      67.5       56     51.3      0.00      0.09      76.2     0.36      1011.0     6.1       S   190   9.1     SSE   162   9.11    275       21.2
   10/03/2017 17:20      68.4      67.6       55     51.4      0.00      0.09      76.1     0.36      1011.0     5.2     SSW   205   9.4     SSW   204   9.11    275       19.7
   10/03/2017 17:20      68.4      67.6       55     51.4      0.00      0.09      76.1     0.36      1011.0     5.2     SSW   205   9.4     SSW   204   9.11    275       19.7
   10/03/2017 17:10      68.8      68.4       55     51.6      0.00      0.09      76.2     0.36      1011.0     4.7       S   185   7.3     SSE   157   9.11    276       63.3
   10/03/2017 17:10      68.8      68.4       55     51.6      0.00      0.09      76.2     0.36      1011.0     4.7       S   185   7.3     SSE   157   9.11    276       63.3
   10/03/2017 17:00      68.7      68.1       55     51.8      0.00      0.09      76.2     0.36      1011.0     5.5      SW   214   9.0      SW   218   9.11    276       78.8
   10/03/2017 17:00      68.7      68.1       55     51.8      0.00      0.09      76.2     0.36      1011.0     5.5      SW   214   9.0      SW   218   9.11    276       78.8
   10/03/2017 16:50      68.7      68.1       55     51.9      0.00      0.09      76.3     0.36      1011.0     6.2      SW   218   9.7     SSW   205   9.12    276      125.7
   10/03/2017 16:50      68.7      68.1       55     51.9      0.00      0.09      76.3     0.36      1011.0     6.2      SW   218   9.7     SSW   205   9.12    276      125.7
   10/03/2017 16:40      69.0      68.5       55     52.1      0.00      0.09      76.1     0.36      1011.0     5.2     SSW   192   8.2       S   183   9.12    276      146.9
   10/03/2017 16:40      69.0      68.5       55     52.1      0.00      0.09      76.1     0.36      1011.0     5.2     SSW   192   8.2       S   183   9.12    276      146.9
   10/03/2017 16:30      69.8      69.1       54     52.2      0.00      0.09      76.2     0.36      1011.0     5.3      SE   142  11.3     SSE   154   9.13    276      174.2
   10/03/2017 16:30      69.8      69.1       54     52.2      0.00      0.09      76.2     0.36      1011.0     5.3      SE   142  11.3     SSE   154   9.13    276      174.2
   10/03/2017 16:20      69.5      69.1       53     51.6      0.00      0.09      76.0     0.36      1011.0     6.5     SSE   151  13.2       S   191   9.13    277      202.0
   10/03/2017 16:20      69.5      69.1       53     51.6      0.00      0.09      76.0     0.36      1011.0     6.5     SSE   151  13.2       S   191   9.13    277      202.0
   10/03/2017 16:10      69.6      69.2       53     51.5      0.00      0.09      76.0     0.36      1011.0     7.2     SSE   148  14.5      SE   140   9.13    277      219.4
   10/03/2017 16:10      69.6      69.2       53     51.5      0.00      0.09      76.0     0.36      1011.0     7.2     SSE   148  14.5      SE   140   9.13    277      219.4
   10/03/2017 16:00      70.0      69.2       52     51.5      0.00      0.09      76.2     0.36      1011.0     8.8      SE   144  15.0      SE   136   9.13    278      233.2
   10/03/2017 16:00      70.0      69.2       52     51.5      0.00      0.09      76.2     0.36      1011.0     8.8      SE   144  15.0      SE   136   9.13    278      233.2
   10/03/2017 15:50      70.2      69.5       52     51.5      0.00      0.09      75.9     0.36      1011.0     8.2       S   175  11.8       S   176   9.13    278      255.4
   10/03/2017 15:50      70.2      69.5       52     51.5      0.00      0.09      75.9     0.36      1011.0     8.2       S   175  11.8       S   176   9.13    278      255.4
   10/03/2017 15:40      69.9      69.4       54     52.2      0.00      0.09      76.2     0.36      1011.0     9.1     SSE   156  12.8      SE   133   9.13    280      277.2
   10/03/2017 15:40      69.9      69.4       54     52.2      0.00      0.09      76.2     0.36      1011.0     9.1     SSE   156  12.8      SE   133   9.13    280      277.2
   10/03/2017 15:30      70.7      69.8       53     52.2      0.00      0.09      75.8     0.36      1011.0     9.7     SSE   147  16.2       S   182   9.13    281      297.5
   10/03/2017 15:30      70.7      69.8       53     52.2      0.00      0.09      75.8     0.36      1011.0     9.7     SSE   147  16.2       S   182   9.13    281      297.5
   10/03/2017 15:20      71.3      70.2       52     52.4      0.00      0.09      76.2     0.36      1011.0     8.2     SSE   162  12.5     SSE   157   9.13    282      320.9
   10/03/2017 15:20      71.3      70.2       52     52.4      0.00      0.09      76.2     0.36      1011.0     8.2     SSE   162  12.5     SSE   157   9.13    282      320.9
   10/03/2017 15:10      70.8      70.1       52     52.4      0.00      0.09      75.9     0.36      1011.0     9.0     SSE   161  15.8     SSE   168   9.13    284      346.8
   10/03/2017 15:10      70.8      70.1       52     52.4      0.00      0.09      75.9     0.36      1011.0     9.0     SSE   161  15.8     SSE   168   9.13    284      346.8
   10/03/2017 15:00      70.6      69.7       53     52.3      0.00      0.09      75.9     0.36      1011.0     9.3     SSE   157  11.5       S   181   9.13    286      366.1
   10/03/2017 15:00      70.6      69.7       53     52.3      0.00      0.09      75.9     0.36      1011.0     9.3     SSE   157  11.5       S   181   9.13    286      366.1
   10/03/2017 14:50      70.5      70.2       53     52.6      0.00      0.09      76.1     0.36      1011.0    10.5     SSE   158  15.7     SSE   153   9.13    287      387.3
   10/03/2017 14:50      70.5      70.2       53     52.6      0.00      0.09      76.1     0.36      1011.0    10.5     SSE   158  15.7     SSE   153   9.13    287      387.3
   10/03/2017 14:40      71.1      70.3       53     52.8      0.00      0.09      76.0     0.36      1011.0     9.4     SSE   155  13.0     SSE   167   9.13    288      372.6
   10/03/2017 14:40      71.1      70.3       53     52.8      0.00      0.09      76.0     0.36      1011.0     9.4     SSE   155  13.0     SSE   167   9.13    288      372.6
   10/03/2017 14:30      71.9      70.3       53     53.3      0.00      0.09      76.0     0.36      1011.0     9.6     SSE   164  15.1       S   178   9.13    289      440.9
   10/03/2017 14:30      71.9      70.3       53     53.3      0.00      0.09      76.0     0.36      1011.0     9.6     SSE   164  15.1       S   178   9.13    289      440.9
   10/03/2017 14:20      71.3      70.7       54     53.6      0.00      0.09      75.8     0.36      1011.0     7.8     SSE   153  11.7       S   179   9.13    290      439.8
   10/03/2017 14:20      71.3      70.7       54     53.6      0.00      0.09      75.8     0.36      1011.0     7.8     SSE   153  11.7       S   179   9.13    290      439.8
   10/03/2017 14:10      71.7      71.1       53     53.3      0.00      0.09      75.7     0.36      1011.0     7.3     SSE   152  12.6     SSE   151   9.13    291      469.1
   10/03/2017 14:10      71.7      71.1       53     53.3      0.00      0.09      75.7     0.36      1011.0     7.3     SSE   152  12.6     SSE   151   9.13    291      469.1
   10/03/2017 14:00      71.3      70.6       54     53.2      0.00      0.09      76.0     0.36      1011.0     9.1     SSE   165  16.6       S   183   9.13    292      443.6
   10/03/2017 14:00      71.3      70.6       54     53.2      0.00      0.09      76.0     0.36      1011.0     9.1     SSE   165  16.6       S   183   9.13    292      443.6
   10/03/2017 13:50      71.7      70.9       52     53.0      0.00      0.09      75.8     0.36      1011.0     8.2     SSE   150  12.0     SSE   150   9.13    294      453.5
   10/03/2017 13:50      71.7      70.9       52     53.0      0.00      0.09      75.8     0.36      1011.0     8.2     SSE   150  12.0     SSE   150   9.13    294      453.5
   10/03/2017 13:40      71.5      70.7       53     53.2      0.00      0.09      75.8     0.36      1011.0     9.9     SSE   150  14.2     SSE   148   9.13    295      528.2
   10/03/2017 13:40      71.5      70.7       53     53.2      0.00      0.09      75.8     0.36      1011.0     9.9     SSE   150  14.2     SSE   148   9.13    295      528.2
   10/03/2017 13:30      71.9      70.5       53     53.2      0.00      0.09      75.9     0.36      1011.0    10.0     SSE   151  13.8     SSE   168   9.13    297      491.4
   10/03/2017 13:30      71.9      70.5       53     53.2      0.00      0.09      75.9     0.36      1011.0    10.0     SSE   151  13.8     SSE   168   9.13    297      491.4
   10/03/2017 13:20      71.6      70.9       52     52.9      0.00      0.09      75.6     0.36      1011.0    10.0     SSE   147  13.6     SSE   152   9.13    299      503.1
   10/03/2017 13:20      71.6      70.9       52     52.9      0.00      0.09      75.6     0.36      1011.0    10.0     SSE   147  13.6     SSE   152   9.13    299      503.1
   10/03/2017 13:10      71.5      70.7       54     53.4      0.00      0.09      75.6     0.36      1011.0     8.9      SE   144  13.7       S   176   9.13    301      514.6
   10/03/2017 13:10      71.5      70.7       54     53.4      0.00      0.09      75.6     0.36      1011.0     8.9      SE   144  13.7       S   176   9.13    301      514.6
   10/03/2017 13:00      71.6      71.0       53     53.3      0.00      0.09      75.7     0.36      1011.0     8.8     SSE   160  12.7     SSE   150   9.13    303      519.8
   10/03/2017 13:00      71.6      71.0       53     53.3      0.00      0.09      75.7     0.36      1011.0     8.8     SSE   160  12.7     SSE   150   9.13    303      519.8
   10/03/2017 12:50      72.3      71.1       53     53.7      0.00      0.09      76.0     0.36      1011.0     6.5     SSE   155  12.2       S   179   9.13    307      513.3
   10/03/2017 12:50      72.3      71.1       53     53.7      0.00      0.09      76.0     0.36      1011.0     6.5     SSE   155  12.2       S   179   9.13    307      513.3
   10/03/2017 12:40      71.5      70.4       54     53.5      0.00      0.09      75.9     0.36      1011.0     7.1     SSE   152   9.8      SE   137   9.14    310      507.1
   10/03/2017 12:40      71.5      70.4       54     53.5      0.00      0.09      75.9     0.36      1011.0     7.1     SSE   152   9.8      SE   137   9.14    310      507.1
   10/03/2017 12:30      71.1      70.4       55     53.8      0.00      0.09      75.4     0.36      1011.0     7.6     SSE   147  10.4      SE   146   9.14    311      511.3
   10/03/2017 12:30      71.1      70.4       55     53.8      0.00      0.09      75.4     0.36      1011.0     7.6     SSE   147  10.4      SE   146   9.14    311      511.3
   10/03/2017 12:20      70.7      69.6       57     54.4      0.00      0.09      75.7     0.36      1011.0     8.8     SSE   161  14.4     SSE   159   9.13    314      503.3
   10/03/2017 12:20      70.7      69.6       57     54.4      0.00      0.09      75.7     0.36      1011.0     8.8     SSE   161  14.4     SSE   159   9.13    314      503.3
   10/03/2017 12:10      70.6      69.8       58     54.5      0.00      0.09      76.0     0.36      1011.0     9.3     SSE   160  12.8       S   170   9.13    318      500.5
   10/03/2017 12:10      70.6      69.8       58     54.5      0.00      0.09      76.0     0.36      1011.0     9.3     SSE   160  12.8       S   170   9.13    318      500.5
   10/03/2017 12:00      70.4      69.4       58     54.4      0.00      0.09      75.8     0.36      1011.0     8.8     SSE   155  11.5      SE   144   9.14    322      483.9
   10/03/2017 12:00      70.4      69.4       58     54.4      0.00      0.09      75.8     0.36      1011.0     8.8     SSE   155  11.5      SE   144   9.14    322      483.9
   10/03/2017 11:50      69.6      68.8       59     54.6      0.00      0.09      76.1     0.36      1011.0     8.6     SSE   149  13.0     SSE   150   9.14    325      496.0
   10/03/2017 11:50      69.6      68.8       59     54.6      0.00      0.09      76.1     0.36      1011.0     8.6     SSE   149  13.0     SSE   150   9.14    325      496.0
   10/03/2017 11:40      69.6      68.9       60     54.6      0.00      0.09      75.9     0.36      1011.0    10.0     SSE   152  13.4     SSE   153   9.14    330      483.3
   10/03/2017 11:40      69.6      68.9       60     54.6      0.00      0.09      75.9     0.36      1011.0    10.0     SSE   152  13.4     SSE   153   9.14    330      483.3
   10/03/2017 11:30      69.0      68.5       61     54.6      0.00      0.09      76.1     0.36      1011.0     8.7     SSE   167  13.4     SSE   149   9.14    335      454.7
   10/03/2017 11:30      69.0      68.5       61     54.6      0.00      0.09      76.1     0.36      1011.0     8.7     SSE   167  13.4     SSE   149   9.14    335      454.7
   10/03/2017 11:20      69.7      68.6       60     54.8      0.00      0.09      75.8     0.36      1011.0     8.7     SSE   154  12.5       S   179   9.14    340      370.0
   10/03/2017 11:20      69.7      68.6       60     54.8      0.00      0.09      75.8     0.36      1011.0     8.7     SSE   154  12.5       S   179   9.14    340      370.0
   10/03/2017 11:10      69.8      68.1       62     55.0      0.00      0.09      76.0     0.36      1011.0     8.3     SSE   155  11.8       S   181   9.14    345      286.2
   10/03/2017 11:10      69.8      68.1       62     55.0      0.00      0.09      76.0     0.36      1011.0     8.3     SSE   155  11.8       S   181   9.14    345      286.2
   10/03/2017 11:00      69.8      67.5       62     55.3      0.00      0.09      75.9     0.36      1011.0     6.2     SSE   152  11.5     SSE   156   9.14    352      390.4
   10/03/2017 11:00      69.8      67.5       62     55.3      0.00      0.09      75.9     0.36      1011.0     6.2     SSE   152  11.5     SSE   156   9.14    352      390.4
   10/03/2017 10:50      67.4      66.6       65     55.1      0.00      0.09      75.6     0.36      1011.0     6.5     SSE   152   9.4     SSE   164   9.14    358      317.6
   10/03/2017 10:50      67.4      66.6       65     55.1      0.00      0.09      75.6     0.36      1011.0     6.5     SSE   152   9.4     SSE   164   9.14    358      317.6
   10/03/2017 10:40      67.2      66.6       67     55.5      0.00      0.09      76.3     0.36      1011.0     6.4     SSE   167  12.4     SSE   151   9.14    365      106.4
   10/03/2017 10:40      67.2      66.6       67     55.5      0.00      0.09      76.3     0.36      1011.0     6.4     SSE   167  12.4     SSE   151   9.14    365      106.4
   10/03/2017 10:30      67.4      67.0       66     55.4      0.00      0.09      75.9     0.36      1011.0     6.4     SSE   149   9.1     SSE   152   9.14    374       72.5
   10/03/2017 10:30      67.4      67.0       66     55.4      0.00      0.09      75.9     0.36      1011.0     6.4     SSE   149   9.1     SSE   152   9.14    374       72.5
   10/03/2017 10:20      68.0      66.8       65     55.5      0.00      0.09      76.3     0.36      1011.0     4.6      SE   125   6.3      SE   129   9.14    390      282.7
   10/03/2017 10:20      68.0      66.8       65     55.5      0.00      0.09      76.3     0.36      1011.0     4.6      SE   125   6.3      SE   129   9.14    390      282.7
   10/03/2017 10:10      67.0      66.7       66     55.1      0.00      0.09      76.1     0.36      1011.0     6.1      SE   130   9.4      SE   129   9.14    414      214.1
   10/03/2017 10:10      67.0      66.7       66     55.1      0.00      0.09      76.1     0.36      1011.0     6.1      SE   130   9.4      SE   129   9.14    414      214.1
   10/03/2017 10:00      67.3      66.5       66     55.3      0.00      0.09      76.2     0.36      1011.0     5.1      SE   128   9.1     ESE   105   9.14    429      223.4
   10/03/2017 10:00      67.3      66.5       66     55.3      0.00      0.09      76.2     0.36      1011.0     5.1      SE   128   9.1     ESE   105   9.14    429      223.4
   10/03/2017 09:50      66.6      66.3       67     55.3      0.00      0.09      76.1     0.36      1011.0     5.1      SE   145   8.2     SSE   162   9.14    445      153.5
   10/03/2017 09:50      66.6      66.3       67     55.3      0.00      0.09      76.1     0.36      1011.0     5.1      SE   145   8.2     SSE   162   9.14    445      153.5
   10/03/2017 09:40      66.3      65.7       70     55.7      0.00      0.09      76.5     0.36      1011.0     3.9     ESE   117   7.2     SSE   156   9.14    460      179.4
   10/03/2017 09:40      66.3      65.7       70     55.7      0.00      0.09      76.5     0.36      1011.0     3.9     ESE   117   7.2     SSE   156   9.14    460      179.4
   10/03/2017 09:30      66.6      65.7       69     55.8      0.00      0.09      76.2     0.36      1011.0     3.7       E    92   7.7     ENE    71   9.14    475      135.7
   10/03/2017 09:30      66.6      65.7       69     55.8      0.00      0.09      76.2     0.36      1011.0     3.7       E    92   7.7     ENE    71   9.14    475      135.7
   10/03/2017 09:20      66.3      65.4       70     55.8      0.00      0.09      76.4     0.36      1011.0     3.1       E    90   5.6       E    98   9.14    491      131.0
   10/03/2017 09:20      66.3      65.4       70     55.8      0.00      0.09      76.4     0.36      1011.0     3.1       E    90   5.6       E    98   9.14    491      131.0
   10/03/2017 09:10      66.7      66.3       68     55.4      0.00      0.09      76.9     0.36      1011.0     2.0      NE    52   4.0     ENE    66   9.14    509      122.6
   10/03/2017 09:10      66.7      66.3       68     55.4      0.00      0.09      76.9     0.36      1011.0     2.0      NE    52   4.0     ENE    66   9.14    509      122.6
   10/03/2017 09:00      66.2      65.8       67     54.8      0.00      0.09      76.2     0.36      1011.0     2.0     NNE    33   3.1       N   355   9.14    511      175.7
   10/03/2017 09:00      66.2      65.8       67     54.8      0.00      0.09      76.2     0.36      1011.0     2.0     NNE    33   3.1       N   355   9.14    511      175.7
   10/03/2017 08:50      65.8      64.2       69     54.5      0.00      0.09      76.6     0.36      1011.0     1.4     ENE    69   2.4     NNW   346   9.14    514      142.0
   10/03/2017 08:50      65.8      64.2       69     54.5      0.00      0.09      76.6     0.36      1011.0     1.4     ENE    69   2.4     NNW   346   9.14    514      142.0
   10/03/2017 08:40      64.7      63.5       70     54.1      0.00      0.09      77.0     0.36      1011.0     1.4     NNE    25   2.6     NNE    28   9.14    519      110.6
   10/03/2017 08:40      64.7      63.5       70     54.1      0.00      0.09      77.0     0.36      1011.0     1.4     NNE    25   2.6     NNE    28   9.14    519      110.6
   10/03/2017 08:30      63.9      63.2       70     53.6      0.00      0.09      76.5     0.35      1011.0     1.4     ESE   105   2.2     ENE    70   9.14    526       67.9
   10/03/2017 08:30      63.9      63.2       70     53.6      0.00      0.09      76.5     0.35      1011.0     1.4     ESE   105   2.2     ENE    70   9.14    526       67.9
   10/03/2017 08:20      64.7      64.0       67     53.4      0.00      0.09      76.7     0.35      1011.0     1.9      NE    54   3.8       E    87   9.14    531       74.2
   10/03/2017 08:20      64.7      64.0       67     53.4      0.00      0.09      76.7     0.35      1011.0     1.9      NE    54   3.8       E    87   9.14    531       74.2
   10/03/2017 08:10      64.3      62.3       70     53.2      0.00      0.09      76.5     0.33      1011.0     0.8     ENE    68   1.5     ESE   109   9.14    545       79.5
   10/03/2017 08:10      64.3      62.3       70     53.2      0.00      0.09      76.5     0.33      1011.0     0.8     ENE    68   1.5     ESE   109   9.14    545       79.5
   10/03/2017 08:00      62.2      61.2       71     52.2      0.00      0.09      76.3     0.31      1011.0     0.8     SSE   164   1.1      SE   134   9.00    272       31.1
   10/03/2017 08:00      62.2      61.2       71     52.2      0.00      0.09      76.3     0.31      1011.0     0.8     SSE   164   1.1      SE   134   9.00    272       31.1
   10/03/2017 07:50      61.3      60.4       72     51.6      0.00      0.09      76.7     0.31      1011.0     1.1     ENE    66   1.9       E    93   9.00    272       23.1
   10/03/2017 07:50      61.3      60.4       72     51.6      0.00      0.09      76.7     0.31      1011.0     1.1     ENE    66   1.9       E    93   9.00    272       23.1
   10/03/2017 07:40      60.5      60.1       72     51.4      0.00      0.09      76.7     0.31      1011.0     0.7     ENE    76   1.3     ESE   103   9.00    272       -0.4
   10/03/2017 07:40      60.5      60.1       72     51.4      0.00      0.09      76.7     0.31      1011.0     0.7     ENE    76   1.3     ESE   103   9.00    272       -0.4
   10/03/2017 07:30      60.1      59.8       72     51.0      0.00      0.09      76.6     0.31      1011.0     0.8     SSW   208   1.1      SW   218   9.00    272        0.5
   10/03/2017 07:30      60.1      59.8       72     51.0      0.00      0.09      76.6     0.31      1011.0     0.8     SSW   208   1.1      SW   218   9.00    272        0.5
   10/03/2017 07:20      59.9      59.5       73     51.1      0.00      0.09      77.1     0.31      1010.0     0.8     SSE   150   1.0      SE   138   9.00    272      -10.8
   10/03/2017 07:20      59.9      59.5       73     51.1      0.00      0.09      77.1     0.31      1010.0     0.8     SSE   150   1.0      SE   138   9.00    272      -10.8
   10/03/2017 07:10      59.6      59.3       74     51.1      0.00      0.09      76.8     0.31      1010.0     0.5     ENE    66   1.0     ESE   113   9.00    272       -5.2
   10/03/2017 07:10      59.6      59.3       74     51.1      0.00      0.09      76.8     0.31      1010.0     0.5     ENE    66   1.0     ESE   113   9.00    272       -5.2
   10/03/2017 07:00      59.6      59.3       74     51.0      0.00      0.09      76.8     0.31      1010.0     0.5      SE   131   0.8     ESE   104   9.01    272       -6.6
   10/03/2017 07:00      59.6      59.3       74     51.0      0.00      0.09      76.8     0.31      1010.0     0.5      SE   131   0.8     ESE   104   9.01    272       -6.6
   10/03/2017 06:50      59.4      59.1       75     51.2      0.00      0.09      76.6     0.31      1010.0     0.5      SE   143   0.8       E    94   9.01    272      -15.2
   10/03/2017 06:50      59.4      59.1       75     51.2      0.00      0.09      76.6     0.31      1010.0     0.5      SE   143   0.8       E    94   9.01    272      -15.2
   10/03/2017 06:40      59.2      58.9       75     51.2      0.00      0.09      76.6     0.31      1010.0     0.8     ENE    77   1.0       E    79   9.01    272      -11.7
   10/03/2017 06:40      59.2      58.9       75     51.2      0.00      0.09      76.6     0.31      1010.0     0.8     ENE    77   1.0       E    79   9.01    272      -11.7
   10/03/2017 06:30      59.0      58.6       75     51.0      0.00      0.09      76.9     0.31      1010.0     0.6       E    91   0.9     ENE    63   9.01    272       -7.4
   10/03/2017 06:30      59.0      58.6       75     51.0      0.00      0.09      76.9     0.31      1010.0     0.6       E    91   0.9     ENE    63   9.01    272       -7.4
   10/03/2017 06:20      58.7      58.4       76     51.0      0.00      0.09      76.7     0.31      1010.0     0.8     SSE   148   1.3     SSE   159   9.01    272       -9.2
   10/03/2017 06:20      58.7      58.4       76     51.0      0.00      0.09      76.7     0.31      1010.0     0.8     SSE   148   1.3     SSE   159   9.01    272       -9.2
   10/03/2017 06:10      58.6      58.3       76     50.9      0.00      0.09      76.6     0.31      1010.0     0.9     ENE    76   1.3     ESE   111   9.01    272      -17.7
   10/03/2017 06:10      58.6      58.3       76     50.9      0.00      0.09      76.6     0.31      1010.0     0.9     ENE    76   1.3     ESE   111   9.01    272      -17.7
   10/03/2017 06:00      58.6      58.0       77     50.9      0.00      0.09      77.1     0.31      1010.0     1.3      SE   129   1.8       S   190   9.01    272      -12.7
   10/03/2017 06:00      58.6      58.0       77     50.9      0.00      0.09      77.1     0.31      1010.0     1.3      SE   129   1.8       S   190   9.01    272      -12.7
   10/03/2017 05:50      58.0      57.5       77     50.5      0.00      0.09      76.9     0.31      1010.0     1.1       S   182   1.8     SSW   202   9.01    272       -9.8
   10/03/2017 05:50      58.0      57.5       77     50.5      0.00      0.09      76.9     0.31      1010.0     1.1       S   182   1.8     SSW   202   9.01    272       -9.8
   10/03/2017 05:40      57.6      57.3       77     50.4      0.00      0.09      76.8     0.31      1010.0     1.6     SSE   165   2.2     SSE   154   9.01    272      -14.1
   10/03/2017 05:40      57.6      57.3       77     50.4      0.00      0.09      76.8     0.31      1010.0     1.6     SSE   165   2.2     SSE   154   9.01    272      -14.1
   10/03/2017 05:30      57.5      57.0       78     50.3      0.00      0.09      76.8     0.31      1010.0     1.6      SE   132   1.7      SE   136   9.01    272       -9.7
   10/03/2017 05:30      57.5      57.0       78     50.3      0.00      0.09      76.8     0.31      1010.0     1.6      SE   132   1.7      SE   136   9.01    272       -9.7
   10/03/2017 05:20      57.1      56.7       79     50.4      0.00      0.09      76.7     0.31      1010.0     0.5     ESE   106   1.1     ESE   114   9.01    271       -8.5
   10/03/2017 05:20      57.1      56.7       79     50.4      0.00      0.09      76.7     0.31      1010.0     0.5     ESE   106   1.1     ESE   114   9.01    271       -8.5
   10/03/2017 05:10      56.7      55.6       83     50.9      0.00      0.09      77.0     0.31      1010.0     1.5      NW   304   2.4     WNW   295   9.01    271      -10.2
   10/03/2017 05:10      56.7      55.6       83     50.9      0.00      0.09      77.0     0.31      1010.0     1.5      NW   304   2.4     WNW   295   9.01    271      -10.2
   10/03/2017 05:00      55.6      54.6       86     50.9      0.00      0.09      76.9     0.31      1010.0     1.3      NW   313   2.5      NW   314   9.01    271      -11.0
   10/03/2017 05:00      55.6      54.6       86     50.9      0.00      0.09      76.9     0.31      1010.0     1.3      NW   313   2.5      NW   314   9.01    271      -11.0
   10/03/2017 04:50      54.6      54.0       86     50.3      0.00      0.09      77.0     0.31      1010.0     0.8     SSW   192   2.0      SE   142   9.01    271      -10.1
   10/03/2017 04:50      54.6      54.0       86     50.3      0.00      0.09      77.0     0.31      1010.0     0.8     SSW   192   2.0      SE   142   9.01    271      -10.1
   10/03/2017 04:40      53.9      53.5       86     49.7      0.00      0.09      77.0     0.31      1009.0     2.2     SSE   149   2.9     SSE   150   9.01    271      -13.7
   10/03/2017 04:40      53.9      53.5       86     49.7      0.00      0.09      77.0     0.31      1009.0     2.2     SSE   149   2.9     SSE   150   9.01    271      -13.7
   10/03/2017 04:30      53.7      53.5       86     49.5      0.00      0.09      77.3     0.31      1009.0     1.8     SSE   163   2.6     SSE   147   9.01    271      -29.0
   10/03/2017 04:30      53.7      53.5       86     49.5      0.00      0.09      77.3     0.31      1009.0     1.8     SSE   163   2.6     SSE   147   9.01    271      -29.0
   10/03/2017 04:20      53.6      53.4       86     49.4      0.00      0.09      77.0     0.31      1009.0     0.6       S   184   1.2     SSW   201   9.01    271      -39.9
   10/03/2017 04:20      53.6      53.4       86     49.4      0.00      0.09      77.0     0.31      1009.0     0.6       S   184   1.2     SSW   201   9.01    271      -39.9
   10/03/2017 04:10      53.7      53.5       85     49.3      0.00      0.09      77.1     0.31      1009.0     1.0      SE   130   1.5      SE   131   9.01    271      -43.4
   10/03/2017 04:10      53.7      53.5       85     49.3      0.00      0.09      77.1     0.31      1009.0     1.0      SE   130   1.5      SE   131   9.01    271      -43.4
   10/03/2017 04:00      53.9      53.6       84     49.1      0.00      0.09      77.2     0.31      1009.0     1.5      SE   140   2.0      SE   140   9.01    271      -45.5
   10/03/2017 04:00      53.9      53.6       84     49.1      0.00      0.09      77.2     0.31      1009.0     1.5      SE   140   2.0      SE   140   9.01    271      -45.5
   10/03/2017 03:50      54.1      53.8       85     49.6      0.00      0.09      77.4     0.31      1009.0     0.7       S   189   0.8     SSE   150   9.01    271      -44.6
   10/03/2017 03:50      54.1      53.8       85     49.6      0.00      0.09      77.4     0.31      1009.0     0.7       S   189   0.8     SSE   150   9.01    271      -44.6
   10/03/2017 03:40      54.2      53.9       85     49.8      0.00      0.09      77.3     0.31      1009.0     0.8     SSE   160   1.1     SSE   168   9.01    271      -45.2
   10/03/2017 03:40      54.2      53.9       85     49.8      0.00      0.09      77.3     0.31      1009.0     0.8     SSE   160   1.1     SSE   168   9.01    271      -45.2
   10/03/2017 03:30      54.6      54.2       85     50.0      0.00      0.09      77.1     0.31      1009.0     0.7      SE   127   1.3      SE   138   9.01    271      -46.3
   10/03/2017 03:30      54.6      54.2       85     50.0      0.00      0.09      77.1     0.31      1009.0     0.7      SE   127   1.3      SE   138   9.01    271      -46.3
   10/03/2017 03:20      54.6      54.4       85     50.0      0.00      0.09      77.7     0.31      1009.0     0.5       S   173   1.1      SE   144   9.01    271      -49.5
   10/03/2017 03:20      54.6      54.4       85     50.0      0.00      0.09      77.7     0.31      1009.0     0.5       S   173   1.1      SE   144   9.01    271      -49.5
   10/03/2017 03:10      54.7      54.4       84     49.8      0.00      0.09      77.1     0.31      1009.0     1.0      SE   146   1.4      SE   143   9.01    271      -52.0
   10/03/2017 03:10      54.7      54.4       84     49.8      0.00      0.09      77.1     0.31      1009.0     1.0      SE   146   1.4      SE   143   9.01    271      -52.0
   10/03/2017 03:00      54.4      54.3       82     49.2      0.00      0.09      77.7     0.31      1009.0     0.9      SE   125   1.8      SE   135   9.01    271      -55.5
   10/03/2017 03:00      54.4      54.3       82     49.2      0.00      0.09      77.7     0.31      1009.0     0.9      SE   125   1.8      SE   135   9.01    271      -55.5
   10/03/2017 02:50      54.9      54.4       81     49.0      0.00      0.09      77.3     0.32      1009.0     1.7      SE   131   2.0      SE   126   9.01    271      -57.2
   10/03/2017 02:50      54.9      54.4       81     49.0      0.00      0.09      77.3     0.32      1009.0     1.7      SE   131   2.0      SE   126   9.01    271      -57.2
   10/03/2017 02:40      55.3      55.0       82     49.7      0.00      0.09      77.5     0.32      1009.0     0.9       S   173   1.3      SE   128   9.01    271      -55.1
   10/03/2017 02:40      55.3      55.0       82     49.7      0.00      0.09      77.5     0.32      1009.0     0.9       S   173   1.3      SE   128   9.01    271      -55.1
   10/03/2017 02:30      55.1      54.7       82     49.3      0.00      0.09      77.2     0.32      1009.0     1.2      SE   139   1.5      SE   141   9.01    271      -57.1
   10/03/2017 02:30      55.1      54.7       82     49.3      0.00      0.09      77.2     0.32      1009.0     1.2      SE   139   1.5      SE   141   9.01    271      -57.1
   10/03/2017 02:20      54.9      54.5       81     49.1      0.00      0.09      77.4     0.31      1009.0     1.6      SE   139   2.1      SE   140   9.01    271      -57.3
   10/03/2017 02:20      54.9      54.5       81     49.1      0.00      0.09      77.4     0.31      1009.0     1.6      SE   139   2.1      SE   140   9.01    271      -57.3
   10/03/2017 02:10      54.9      54.7       80     48.9      0.00      0.09      77.4     0.32      1009.0     1.7      SE   133   2.3      SE   136   9.01    271      -57.9
   10/03/2017 02:10      54.9      54.7       80     48.9      0.00      0.09      77.4     0.32      1009.0     1.7      SE   133   2.3      SE   136   9.01    271      -57.9
   10/03/2017 02:00      55.3      54.9       80     49.2      0.00      0.09      77.3     0.32      1009.0     2.4      SE   146   2.6     SSE   156   9.01    271      -58.5
   10/03/2017 02:00      55.3      54.9       80     49.2      0.00      0.09      77.3     0.32      1009.0     2.4      SE   146   2.6     SSE   156   9.01    271      -58.5
   10/03/2017 01:50      55.5      55.3       80     49.5      0.00      0.09      77.3     0.32      1009.0     1.7      SE   140   2.2      SE   140   9.01    271      -57.5
   10/03/2017 01:50      55.5      55.3       80     49.5      0.00      0.09      77.3     0.32      1009.0     1.7      SE   140   2.2      SE   140   9.01    271      -57.5
   10/03/2017 01:40      55.8      55.5       79     49.2      0.00      0.09      77.3     0.32      1009.0     2.0      SE   137   2.5      SE   135   9.01    271      -58.9
   10/03/2017 01:40      55.8      55.5       79     49.2      0.00      0.09      77.3     0.32      1009.0     2.0      SE   137   2.5      SE   135   9.01    271      -58.9
   10/03/2017 01:30      56.1      55.9       79     49.6      0.00      0.09      77.3     0.32      1009.0     1.3     SSE   160   2.2      SE   133   9.01    270      -57.8
   10/03/2017 01:30      56.1      55.9       79     49.6      0.00      0.09      77.3     0.32      1009.0     1.3     SSE   160   2.2      SE   133   9.01    270      -57.8
   10/03/2017 01:20      56.3      55.9       79     49.7      0.00      0.09      77.9     0.32      1009.0     0.6       S   178   1.1      SE   142   9.01    270      -57.8
   10/03/2017 01:20      56.3      55.9       79     49.7      0.00      0.09      77.9     0.32      1009.0     0.6       S   178   1.1      SE   142   9.01    270      -57.8
   10/03/2017 01:10      56.5      56.0       79     49.9      0.00      0.09      77.5     0.32      1009.0     0.6     SSE   159   1.0      SE   127   9.02    270      -58.2
   10/03/2017 01:10      56.5      56.0       79     49.9      0.00      0.09      77.5     0.32      1009.0     0.6     SSE   159   1.0      SE   127   9.02    270      -58.2
   10/03/2017 01:00      56.6      56.3       79     49.9      0.00      0.09      77.7     0.32      1009.0     0.6     ESE   109   0.9     ESE   112   9.01    270      -57.8
   10/03/2017 01:00      56.6      56.3       79     49.9      0.00      0.09      77.7     0.32      1009.0     0.6     ESE   109   0.9     ESE   112   9.01    270      -57.8
   10/03/2017 00:50      56.9      56.5       78     49.8      0.00      0.09      77.7     0.32      1009.0     0.7      SE   128   1.5     ESE   111   9.02    270      -58.5
   10/03/2017 00:50      56.9      56.5       78     49.8      0.00      0.09      77.7     0.32      1009.0     0.7      SE   128   1.5     ESE   111   9.02    270      -58.5
   10/03/2017 00:40      56.9      56.5       78     49.8      0.00      0.09      77.8     0.32      1009.0     0.5     SSE   167   1.3      SE   125   9.02    270      -58.9
   10/03/2017 00:40      56.9      56.5       78     49.8      0.00      0.09      77.8     0.32      1009.0     0.5     SSE   167   1.3      SE   125   9.02    270      -58.9
   10/03/2017 00:30      56.9      56.4       78     49.6      0.00      0.09      77.6     0.32      1009.0     1.1     SSE   166   2.3      SE   145   9.02    271      -60.5
   10/03/2017 00:30      56.9      56.4       78     49.6      0.00      0.09      77.6     0.32      1009.0     1.1     SSE   166   2.3      SE   145   9.02    271      -60.5
   10/03/2017 00:20      56.5      55.9       77     48.9      0.00      0.09      77.7     0.32      1009.0     1.5       S   177   2.1     SSE   160   9.02    270      -60.8
   10/03/2017 00:20      56.5      55.9       77     48.9      0.00      0.09      77.7     0.32      1009.0     1.5       S   177   2.1     SSE   160   9.02    270      -60.8
   10/03/2017 00:10      57.0      56.3       75     48.7      0.00      0.09      78.0     0.32      1009.0     2.4     SSE   163   3.0     SSE   167   9.02    270      -62.0
   10/03/2017 00:10      57.0      56.3       75     48.7      0.00      0.09      78.0     0.32      1009.0     2.4     SSE   163   3.0     SSE   167   9.02    270      -62.0
   10/03/2017 00:00      57.5      56.9       73     48.7      0.00      0.09      77.8     0.32      1009.0     2.7     SSE   159   3.7     SSE   162   9.02    270      -62.1
   10/03/2017 00:00      57.5      56.9       73     48.7      0.00      0.09      77.8     0.32      1009.0     2.7     SSE   159   3.7     SSE   162   9.02    270      -62.1
   10/02/2017 23:50      57.5      57.2       73     48.9      0.00      0.09      77.6     0.32      1009.0     1.2       S   188   1.7       S   191   9.02    270      -60.7
   10/02/2017 23:50      57.5      57.2       73     48.9      0.00      0.09      77.6     0.32      1009.0     1.2       S   188   1.7       S   191   9.02    270      -60.7
   10/02/2017 23:40      57.6      57.5       73     48.9      0.00      0.09      77.9     0.32      1009.0     0.7       E    99   1.0     ESE   121   9.02    270      -61.0
   10/02/2017 23:40      57.6      57.5       73     48.9      0.00      0.09      77.9     0.32      1009.0     0.7       E    99   1.0     ESE   121   9.02    270      -61.0
   10/02/2017 23:30      58.1      57.5       71     48.5      0.00      0.09      77.9     0.32      1009.0     0.9     ESE   105   1.7      SE   127   9.02    270      -61.8
   10/02/2017 23:30      58.1      57.5       71     48.5      0.00      0.09      77.9     0.32      1009.0     0.9     ESE   105   1.7      SE   127   9.02    270      -61.8
   10/02/2017 23:20      58.2      58.0       72     49.0      0.00      0.09      77.8     0.32      1009.0     1.7      SE   141   2.2      SE   133   9.02    270      -62.5
   10/02/2017 23:20      58.2      58.0       72     49.0      0.00      0.09      77.8     0.32      1009.0     1.7      SE   141   2.2      SE   133   9.02    270      -62.5
   10/02/2017 23:10      58.6      58.3       71     49.2      0.00      0.09      77.8     0.32      1009.0     1.5      SE   131   2.3      SE   135   9.02    270      -63.1
   10/02/2017 23:10      58.6      58.3       71     49.2      0.00      0.09      77.8     0.32      1009.0     1.5      SE   131   2.3      SE   135   9.02    270      -63.1
   10/02/2017 23:00      58.5      58.3       72     49.3      0.00      0.09      77.8     0.32      1009.0     1.4       S   175   1.7      SE   142   9.02    270      -63.0
   10/02/2017 23:00      58.5      58.3       72     49.3      0.00      0.09      77.8     0.32      1009.0     1.4       S   175   1.7      SE   142   9.02    270      -63.0
   10/02/2017 22:50      59.0      58.5       71     49.2      0.00      0.09      77.7     0.32      1009.0     1.8      SE   141   2.1      SE   132   9.02    270      -63.9
   10/02/2017 22:50      59.0      58.5       71     49.2      0.00      0.09      77.7     0.32      1009.0     1.8      SE   141   2.1      SE   132   9.02    270      -63.9
   10/02/2017 22:40      59.6      59.2       69     49.2      0.00      0.09      77.7     0.32      1009.0     1.7      SE   143   2.8     SSE   150   9.02    270      -64.7
   10/02/2017 22:40      59.6      59.2       69     49.2      0.00      0.09      77.7     0.32      1009.0     1.7      SE   143   2.8     SSE   150   9.02    270      -64.7
   10/02/2017 22:30      59.7      59.4       69     49.4      0.00      0.09      77.9     0.32      1009.0     0.4       N   354   0.6     NNW   346   9.02    270      -63.8
   10/02/2017 22:30      59.7      59.4       69     49.4      0.00      0.09      77.9     0.32      1009.0     0.4       N   354   0.6     NNW   346   9.02    270      -63.8
   10/02/2017 22:20      59.9      59.5       68     49.3      0.00      0.09      78.0     0.32      1009.0     0.7     SSE   164   0.9       S   177   9.02    270      -64.2
   10/02/2017 22:20      59.9      59.5       68     49.3      0.00      0.09      78.0     0.32      1009.0     0.7     SSE   164   0.9       S   177   9.02    270      -64.2
   10/02/2017 22:10      60.6      60.0       67     49.1      0.00      0.09      77.5     0.32      1009.0     0.8       E    96   2.3      SE   142   9.02    270      -66.6
   10/02/2017 22:10      60.6      60.0       67     49.1      0.00      0.09      77.5     0.32      1009.0     0.8       E    96   2.3      SE   142   9.02    270      -66.6
   10/02/2017 22:00      61.0      60.9       66     49.6      0.00      0.09      77.8     0.32      1009.0     2.6     SSE   163   3.6     SSE   162   9.02    270      -68.2
   10/02/2017 22:00      61.0      60.9       66     49.6      0.00      0.09      77.8     0.32      1009.0     2.6     SSE   163   3.6     SSE   162   9.02    270      -68.2
   10/02/2017 21:50      61.3      60.9       65     49.5      0.00      0.09      77.6     0.32      1009.0     3.4     SSE   167   4.1       S   174   9.02    270      -68.6
   10/02/2017 21:50      61.3      60.9       65     49.5      0.00      0.09      77.6     0.32      1009.0     3.4     SSE   167   4.1       S   174   9.02    270      -68.6
   10/02/2017 21:40      61.0      60.3       68     50.0      0.00      0.09      78.0     0.32      1009.0     2.9     SSE   165   3.4     SSE   154   9.02    270      -69.5
   10/02/2017 21:40      61.0      60.3       68     50.0      0.00      0.09      78.0     0.32      1009.0     2.9     SSE   165   3.4     SSE   154   9.02    270      -69.5
   10/02/2017 21:30      60.8      60.2       68     49.8      0.00      0.09      78.0     0.32      1009.0     2.7     SSE   160   3.8      SE   146   9.02    269      -68.8
   10/02/2017 21:30      60.8      60.2       68     49.8      0.00      0.09      78.0     0.32      1009.0     2.7     SSE   160   3.8      SE   146   9.02    269      -68.8
   10/02/2017 21:20      61.9      60.8       64     49.1      0.00      0.09      77.9     0.32      1009.0     1.8      SE   137   2.5      SE   141   9.02    269      -69.9
   10/02/2017 21:20      61.9      60.8       64     49.1      0.00      0.09      77.9     0.32      1009.0     1.8      SE   137   2.5      SE   141   9.02    269      -69.9
   10/02/2017 21:10      63.0      61.8       63     49.5      0.00      0.09      77.7     0.32      1009.0     2.0     SSE   153   2.5     SSE   148   9.03    269      -69.9
   10/02/2017 21:10      63.0      61.8       63     49.5      0.00      0.09      77.7     0.32      1009.0     2.0     SSE   153   2.5     SSE   148   9.03    269      -69.9
   10/02/2017 21:00      63.9      63.3       61     50.0      0.00      0.09      77.8     0.32      1009.0     1.0       W   269   1.3      NW   308   9.03    269      -68.8
   10/02/2017 21:00      63.9      63.3       61     50.0      0.00      0.09      77.8     0.32      1009.0     1.0       W   269   1.3      NW   308   9.03    269      -68.8
   10/02/2017 20:50      64.6      63.9       61     50.5      0.00      0.09      77.8     0.32      1008.0     1.8      SW   214   2.8      SW   231   9.03    269      -71.8
   10/02/2017 20:50      64.6      63.9       61     50.5      0.00      0.09      77.8     0.32      1008.0     1.8      SW   214   2.8      SW   231   9.03    269      -71.8
   10/02/2017 20:40      65.6      64.6       59     50.5      0.00      0.09      77.8     0.31      1008.0     2.2      SW   217   3.2      SW   235   9.03    269      -73.4
   10/02/2017 20:40      65.6      64.6       59     50.5      0.00      0.09      77.8     0.31      1008.0     2.2      SW   217   3.2      SW   235   9.03    269      -73.4
   10/02/2017 20:30      65.8      65.6       59     50.8      0.00      0.09      77.9     0.32      1008.0     2.6       W   277   4.1     WNW   295   9.03    269      -74.5
   10/02/2017 20:30      65.8      65.6       59     50.8      0.00      0.09      77.9     0.32      1008.0     2.6       W   277   4.1     WNW   295   9.03    269      -74.5
   10/02/2017 20:20      65.8      65.7       56     49.7      0.00      0.09      78.0     0.32      1008.0     2.4       W   269   4.2      NW   310   9.03    269      -74.7
   10/02/2017 20:20      65.8      65.7       56     49.7      0.00      0.09      78.0     0.32      1008.0     2.4       W   269   4.2      NW   310   9.03    269      -74.7
   10/02/2017 20:10      66.2      65.9       55     49.6      0.00      0.09      77.8     0.32      1008.0     3.0      SW   215   4.7      SW   222   9.03    269      -76.5
   10/02/2017 20:10      66.2      65.9       55     49.6      0.00      0.09      77.8     0.32      1008.0     3.0      SW   215   4.7      SW   222   9.03    269      -76.5
   10/02/2017 20:00      66.2      65.7       56     49.9      0.00      0.09      77.6     0.32      1008.0     3.7      SW   230   5.2     WSW   245   9.03    269      -75.7
   10/02/2017 20:00      66.2      65.7       56     49.9      0.00      0.09      77.6     0.32      1008.0     3.7      SW   230   5.2     WSW   245   9.03    269      -75.7
   10/02/2017 19:50      66.0      65.7       57     50.3      0.00      0.09      77.6     0.32      1008.0     2.0      SW   222   2.5      SW   219   9.03    269      -73.7
   10/02/2017 19:50      66.0      65.7       57     50.3      0.00      0.09      77.6     0.32      1008.0     2.0      SW   222   2.5      SW   219   9.03    269      -73.7
   10/02/2017 19:40      66.4      66.2       56     50.2      0.00      0.09      77.8     0.31      1008.0     2.7     SSW   210   3.7     SSW   197   9.03    269      -75.1
   10/02/2017 19:40      66.4      66.2       56     50.2      0.00      0.09      77.8     0.31      1008.0     2.7     SSW   210   3.7     SSW   197   9.03    269      -75.1
   10/02/2017 19:30      66.6      66.3       55     50.0      0.00      0.09      77.7     0.31      1008.0     1.9      SW   226   3.0      SW   216   9.03    269      -75.9
   10/02/2017 19:30      66.6      66.3       55     50.0      0.00      0.09      77.7     0.31      1008.0     1.9      SW   226   3.0      SW   216   9.03    269      -75.9
   10/02/2017 19:20      66.9      66.6       55     49.9      0.00      0.09      78.0     0.31      1008.0     2.3     SSW   202   3.2      SW   214   9.03    269      -78.8
   10/02/2017 19:20      66.9      66.6       55     49.9      0.00      0.09      78.0     0.31      1008.0     2.3     SSW   202   3.2      SW   214   9.03    269      -78.8
   10/02/2017 19:10      67.3      66.9       53     49.6      0.00      0.09      77.9     0.31      1008.0     4.2       S   187   6.5       S   186   9.03    269      -79.9
   10/02/2017 19:10      67.3      66.9       53     49.6      0.00      0.09      77.9     0.31      1008.0     4.2       S   187   6.5       S   186   9.03    269      -79.9
   10/02/2017 19:00      67.7      67.4       52     49.4      0.00      0.09      77.8     0.31      1008.0     3.6       S   186   5.9     SSW   194   9.03    269      -80.7
   10/02/2017 19:00      67.7      67.4       52     49.4      0.00      0.09      77.8     0.31      1008.0     3.6       S   186   5.9     SSW   194   9.03    269      -80.7
   10/02/2017 18:50      68.3      67.7       52     49.6      0.00      0.09      77.6     0.32      1008.0     4.7     SSE   166   7.5     SSE   165   9.03    268      -80.9
   10/02/2017 18:50      68.3      67.7       52     49.6      0.00      0.09      77.6     0.32      1008.0     4.7     SSE   166   7.5     SSE   165   9.03    268      -80.9
   10/02/2017 18:40      68.6      68.2       51     49.9      0.00      0.09      77.6     0.31      1007.0     3.9     SSE   157   5.5     SSE   164   9.03    269      -79.8
   10/02/2017 18:40      68.6      68.2       51     49.9      0.00      0.09      77.6     0.31      1007.0     3.9     SSE   157   5.5     SSE   164   9.03    269      -79.8
   10/02/2017 18:30      69.3      68.8       51     50.0      0.00      0.09      77.6     0.31      1007.0     6.3     SSE   158   8.3     SSE   156   9.04    268      -76.0
   10/02/2017 18:30      69.3      68.8       51     50.0      0.00      0.09      77.6     0.31      1007.0     6.3     SSE   158   8.3     SSE   156   9.04    268      -76.0
   10/02/2017 18:20      70.1      69.5       50     50.3      0.00      0.09      77.4     0.31      1007.0     4.5     SSE   161   7.8      SE   143   9.04    268      -70.6
   10/02/2017 18:20      70.1      69.5       50     50.3      0.00      0.09      77.4     0.31      1007.0     4.5     SSE   161   7.8      SE   143   9.04    268      -70.6
   10/02/2017 18:10      70.7      70.1       50     50.7      0.00      0.09      77.5     0.31      1007.0     5.7       S   173   7.9     SSE   161   9.04    268      -58.7
   10/02/2017 18:10      70.7      70.1       50     50.7      0.00      0.09      77.5     0.31      1007.0     5.7       S   173   7.9     SSE   161   9.04    268      -58.7
   10/02/2017 18:00      71.2      70.7       50     51.2      0.00      0.09      77.6     0.31      1007.0     5.9     SSE   166   9.9     SSE   155   9.04    268      -40.0
   10/02/2017 18:00      71.2      70.7       50     51.2      0.00      0.09      77.6     0.31      1007.0     5.9     SSE   166   9.9     SSE   155   9.04    268      -40.0
   10/02/2017 17:50      71.8      71.6       49     51.8      0.00      0.09      77.3     0.31      1007.0     5.6     SSE   165   9.0     SSE   160   9.04    268      -22.9
   10/02/2017 17:50      71.8      71.6       49     51.8      0.00      0.09      77.3     0.31      1007.0     5.6     SSE   165   9.0     SSE   160   9.04    268      -22.9
   10/02/2017 17:40      72.1      71.7       50     52.2      0.00      0.09      77.7     0.31      1007.0     6.3     SSE   156   9.0     SSE   151   9.04    268       -2.3
   10/02/2017 17:40      72.1      71.7       50     52.2      0.00      0.09      77.7     0.31      1007.0     6.3     SSE   156   9.0     SSE   151   9.04    268       -2.3
   10/02/2017 17:30      72.3      71.8       50     52.5      0.00      0.09      77.5     0.31      1007.0     5.4       S   186   6.9       S   189   9.04    268       20.1
   10/02/2017 17:30      72.3      71.8       50     52.5      0.00      0.09      77.5     0.31      1007.0     5.4       S   186   6.9       S   189   9.04    268       20.1
   10/02/2017 17:20      72.7      72.1       50     52.7      0.00      0.09      77.3     0.31      1007.0     5.4       S   178   9.6     SSE   149   9.05    268       42.9
   10/02/2017 17:20      72.7      72.1       50     52.7      0.00      0.09      77.3     0.31      1007.0     5.4       S   178   9.6     SSE   149   9.05    268       42.9
   10/02/2017 17:10      73.5      72.5       49     52.8      0.00      0.09      77.5     0.31      1007.0     6.5     SSE   164  10.0      SE   141   9.05    268       66.2
   10/02/2017 17:10      73.5      72.5       49     52.8      0.00      0.09      77.5     0.31      1007.0     6.5     SSE   164  10.0      SE   141   9.05    268       66.2
   10/02/2017 17:00      74.0      73.3       48     53.0      0.00      0.09      77.2     0.31      1007.0     4.3     SSE   165   7.1     SSE   158   9.05    268       90.8
   10/02/2017 17:00      74.0      73.3       48     53.0      0.00      0.09      77.2     0.31      1007.0     4.3     SSE   165   7.1     SSE   158   9.05    268       90.8
   10/02/2017 16:50      73.4      72.8       49     53.0      0.00      0.09      77.2     0.31      1007.0     5.6       S   184   7.6       S   179   9.05    268      117.4
   10/02/2017 16:50      73.4      72.8       49     53.0      0.00      0.09      77.2     0.31      1007.0     5.6       S   184   7.6       S   179   9.05    268      117.4
   10/02/2017 16:40      73.4      72.8       50     53.1      0.00      0.09      77.2     0.31      1007.0     7.8       S   184   9.7       S   176   9.06    268      142.8
   10/02/2017 16:40      73.4      72.8       50     53.1      0.00      0.09      77.2     0.31      1007.0     7.8       S   184   9.7       S   176   9.06    268      142.8
   10/02/2017 16:30      73.8      73.4       49     53.3      0.00      0.09      77.3     0.31      1007.0     6.8       S   175   8.4       S   180   9.06    268      167.5
   10/02/2017 16:30      73.8      73.4       49     53.3      0.00      0.09      77.3     0.31      1007.0     6.8       S   175   8.4       S   180   9.06    268      167.5
   10/02/2017 16:20      73.7      73.2       49     53.2      0.00      0.09      77.1     0.31      1007.0     6.4     SSE   164   9.0     SSW   210   9.07    268      192.9
   10/02/2017 16:20      73.7      73.2       49     53.2      0.00      0.09      77.1     0.31      1007.0     6.4     SSE   164   9.0     SSW   210   9.07    268      192.9
   10/02/2017 16:10      74.6      73.6       47     52.9      0.00      0.09      77.1     0.31      1007.0     6.5       S   172  11.9     SSW   194   9.07    268      207.3
   10/02/2017 16:10      74.6      73.6       47     52.9      0.00      0.09      77.1     0.31      1007.0     6.5       S   172  11.9     SSW   194   9.07    268      207.3
   10/02/2017 16:00      75.2      74.8       46     52.9      0.00      0.09      77.1     0.31      1007.0     7.4     SSE   166  11.7      SE   125   9.07    268      222.9
   10/02/2017 16:00      75.2      74.8       46     52.9      0.00      0.09      77.1     0.31      1007.0     7.4     SSE   166  11.7      SE   125   9.07    268      222.9
   10/02/2017 15:50      75.3      74.1       47     53.0      0.00      0.09      77.0     0.31      1007.0     6.2     SSE   164  10.9      SE   138   9.07    268      247.8
   10/02/2017 15:50      75.3      74.1       47     53.0      0.00      0.09      77.0     0.31      1007.0     6.2     SSE   164  10.9      SE   138   9.07    268      247.8
   10/02/2017 15:40      75.4      74.3       46     52.8      0.00      0.09      77.2     0.31      1007.0     8.8     SSE   148  11.2     SSE   163   9.07    268      267.3
   10/02/2017 15:40      75.4      74.3       46     52.8      0.00      0.09      77.2     0.31      1007.0     8.8     SSE   148  11.2     SSE   163   9.07    268      267.3
   10/02/2017 15:30      75.3      75.0       45     52.6      0.00      0.09      77.0     0.31      1007.0     8.0     SSE   161  10.9     SSE   165   9.07    269      287.0
   10/02/2017 15:30      75.3      75.0       45     52.6      0.00      0.09      77.0     0.31      1007.0     8.0     SSE   161  10.9     SSE   165   9.07    269      287.0
   10/02/2017 15:20      76.8      75.4       43     52.2      0.00      0.09      77.0     0.31      1007.0     8.0     SSE   164  13.9      SE   127   9.07    268      306.6
   10/02/2017 15:20      76.8      75.4       43     52.2      0.00      0.09      77.0     0.31      1007.0     8.0     SSE   164  13.9      SE   127   9.07    268      306.6
   10/02/2017 15:10      76.6      75.8       43     51.8      0.00      0.09      76.8     0.31      1007.0     7.5     SSE   158  10.4     SSE   155   9.07    269      331.9
   10/02/2017 15:10      76.6      75.8       43     51.8      0.00      0.09      76.8     0.31      1007.0     7.5     SSE   158  10.4     SSE   155   9.07    269      331.9
   10/02/2017 15:00      76.8      76.0       42     51.8      0.00      0.09      76.8     0.31      1007.0     6.1     SSE   160   8.1       S   170   9.07    269      349.2
   10/02/2017 15:00      76.8      76.0       42     51.8      0.00      0.09      76.8     0.31      1007.0     6.1     SSE   160   8.1       S   170   9.07    269      349.2
   10/02/2017 14:50      77.5      76.0       41     51.7      0.00      0.09      76.9     0.31      1007.0     6.5     SSE   149  10.0     SSE   157   9.07    269      364.1
   10/02/2017 14:50      77.5      76.0       41     51.7      0.00      0.09      76.9     0.31      1007.0     6.5     SSE   149  10.0     SSE   157   9.07    269      364.1
   10/02/2017 14:40      78.1      77.2       40     51.6      0.00      0.09      76.8     0.31      1007.0     5.8       S   189  10.9      SE   139   9.07    269      376.2
   10/02/2017 14:40      78.1      77.2       40     51.6      0.00      0.09      76.8     0.31      1007.0     5.8       S   189  10.9      SE   139   9.07    269      376.2
   10/02/2017 14:30      77.8      76.9       41     51.6      0.00      0.09      76.8     0.31      1007.0     5.5     SSW   192   8.0      SE   135   9.07    270      392.7
   10/02/2017 14:30      77.8      76.9       41     51.6      0.00      0.09      76.8     0.31      1007.0     5.5     SSW   192   8.0      SE   135   9.07    270      392.7
   10/02/2017 14:20      77.2      76.1       42     52.0      0.00      0.09      76.8     0.31      1007.0     6.2       S   173  14.1     SSE   149   9.07    269      407.7
   10/02/2017 14:20      77.2      76.1       42     52.0      0.00      0.09      76.8     0.31      1007.0     6.2       S   173  14.1     SSE   149   9.07    269      407.7
   10/02/2017 14:10      76.9      75.9       42     52.0      0.00      0.09      76.6     0.31      1007.0     6.2     SSE   157  11.4     SSE   148   9.07    269      420.2
   10/02/2017 14:10      76.9      75.9       42     52.0      0.00      0.09      76.6     0.31      1007.0     6.2     SSE   157  11.4     SSE   148   9.07    269      420.2
   10/02/2017 14:00      77.6      76.3       42     52.1      0.00      0.09      76.6     0.31      1007.0     8.2     SSE   165  14.8     SSE   157   9.07    269      430.0
   10/02/2017 14:00      77.6      76.3       42     52.1      0.00      0.09      76.6     0.31      1007.0     8.2     SSE   165  14.8     SSE   157   9.07    269      430.0
   10/02/2017 13:50      79.4      77.3       38     50.5      0.00      0.09      76.7     0.31      1008.0     6.5       S   176  11.4     SSE   154   9.07    270      429.9
   10/02/2017 13:50      79.4      77.3       38     50.5      0.00      0.09      76.7     0.31      1008.0     6.5       S   176  11.4     SSE   154   9.07    270      429.9
   10/02/2017 13:40      79.0      78.5       32     46.6      0.00      0.09      76.6     0.31      1008.0     3.1     WSW   258   4.2     WSW   242   9.07    269      433.5
   10/02/2017 13:40      79.0      78.5       32     46.6      0.00      0.09      76.6     0.31      1008.0     3.1     WSW   258   4.2     WSW   242   9.07    269      433.5
   10/02/2017 13:30      79.4      78.0       30     44.8      0.00      0.09      76.6     0.31      1008.0     3.9       W   263   5.1     WNW   295   9.07    269      447.3
   10/02/2017 13:30      79.4      78.0       30     44.8      0.00      0.09      76.6     0.31      1008.0     3.9       W   263   5.1     WNW   295   9.07    269      447.3
   10/02/2017 13:20      79.2      77.6       31     44.7      0.00      0.09      76.8     0.31      1008.0     2.7       S   191   4.2     WSW   241   9.07    270      449.3
   10/02/2017 13:20      79.2      77.6       31     44.7      0.00      0.09      76.8     0.31      1008.0     2.7       S   191   4.2     WSW   241   9.07    270      449.3
   10/02/2017 13:10      78.4      77.5       31     44.9      0.00      0.09      76.6     0.31      1008.0     2.8     ENE    74   7.6     WSW   249   9.07    270      458.2
   10/02/2017 13:10      78.4      77.5       31     44.9      0.00      0.09      76.6     0.31      1008.0     2.8     ENE    74   7.6     WSW   249   9.07    270      458.2
   10/02/2017 13:00      78.7      78.0       31     45.1      0.00      0.09      76.8     0.31      1008.0     3.2      NE    47   4.7      NE    41   9.07    270      463.5
   10/02/2017 13:00      78.7      78.0       31     45.1      0.00      0.09      76.8     0.31      1008.0     3.2      NE    47   4.7      NE    41   9.07    270      463.5
   10/02/2017 12:50      78.5      77.0       32     45.5      0.00      0.09      76.6     0.31      1008.0     2.9     NNE    32   4.6     ENE    62   9.07    270      468.8
   10/02/2017 12:50      78.5      77.0       32     45.5      0.00      0.09      76.6     0.31      1008.0     2.9     NNE    32   4.6     ENE    62   9.07    270      468.8
   10/02/2017 12:40      76.7      75.7       34     46.1      0.00      0.09      76.6     0.31      1009.0     2.6     NNW   328   4.1      NW   324   9.07    270      470.1
   10/02/2017 12:40      76.7      75.7       34     46.1      0.00      0.09      76.6     0.31      1009.0     2.6     NNW   328   4.1      NW   324   9.07    270      470.1
   10/02/2017 12:30      76.3      75.3       35     46.3      0.00      0.09      76.7     0.31      1009.0     2.9      SE   138   4.4     ENE    64   9.07    270      472.0
   10/02/2017 12:30      76.3      75.3       35     46.3      0.00      0.09      76.7     0.31      1009.0     2.9      SE   138   4.4     ENE    64   9.07    270      472.0
   10/02/2017 12:20      75.7      74.8       36     46.4      0.00      0.09      76.8     0.31      1009.0     3.9     ENE    58   5.2       E    91   9.07    270      470.6
   10/02/2017 12:20      75.7      74.8       36     46.4      0.00      0.09      76.8     0.31      1009.0     3.9     ENE    58   5.2       E    91   9.07    270      470.6
   10/02/2017 12:10      76.4      75.0       36     46.9      0.00      0.09      76.6     0.31      1009.0     2.9      NE    49   6.8       E    79   9.07    270      467.0
   10/02/2017 12:10      76.4      75.0       36     46.9      0.00      0.09      76.6     0.31      1009.0     2.9      NE    49   6.8       E    79   9.07    270      467.0
   10/02/2017 12:00      74.9      74.0       37     46.1      0.00      0.09      76.8     0.31      1009.0     2.6     WNW   290   3.7     WNW   285   9.07    270      463.8
   10/02/2017 12:00      74.9      74.0       37     46.1      0.00      0.09      76.8     0.31      1009.0     2.6     WNW   290   3.7     WNW   285   9.07    270      463.8
   10/02/2017 11:50      74.5      73.9       37     46.5      0.00      0.09      76.8     0.31      1009.0     3.1       W   268   5.4     WSW   255   9.07    270      460.1
   10/02/2017 11:50      74.5      73.9       37     46.5      0.00      0.09      76.8     0.31      1009.0     3.1       W   268   5.4     WSW   255   9.07    270      460.1
   10/02/2017 11:40      73.9      72.8       40     47.7      0.00      0.09      76.7     0.31      1009.0     2.0       N   349   3.0      NW   319   9.07    271      456.6
   10/02/2017 11:40      73.9      72.8       40     47.7      0.00      0.09      76.7     0.31      1009.0     2.0       N   349   3.0      NW   319   9.07    271      456.6
   10/02/2017 11:30      73.0      72.3       42     48.5      0.00      0.09      76.8     0.31      1009.0     3.0     ESE   107   5.1     SSE   150   9.07    271      448.0
   10/02/2017 11:30      73.0      72.3       42     48.5      0.00      0.09      76.8     0.31      1009.0     3.0     ESE   107   5.1     SSE   150   9.07    271      448.0
   10/02/2017 11:20      72.4      71.6       43     48.5      0.00      0.09      76.8     0.31      1009.0     3.2       N     1   5.5       N     8   9.07    270      439.5
   10/02/2017 11:20      72.4      71.6       43     48.5      0.00      0.09      76.8     0.31      1009.0     3.2       N     1   5.5       N     8   9.07    270      439.5
   10/02/2017 11:10      72.1      71.4       44     49.0      0.00      0.09      76.9     0.31      1009.0     3.4     ESE   107   4.7      SE   129   9.07    271      428.9
   10/02/2017 11:10      72.1      71.4       44     49.0      0.00      0.09      76.9     0.31      1009.0     3.4     ESE   107   4.7      SE   129   9.07    271      428.9
   10/02/2017 11:00      72.1      71.2       44     48.2      0.00      0.09      77.0     0.31      1009.0     3.3       N   360   4.9     NNW   339   9.07    271      417.4
   10/02/2017 11:00      72.1      71.2       44     48.2      0.00      0.09      77.0     0.31      1009.0     3.3       N   360   4.9     NNW   339   9.07    271      417.4
   10/02/2017 10:50      71.4      70.1       46     48.7      0.00      0.09      76.8     0.31      1010.0     2.4     WNW   289   5.8       N     0   9.07    272      406.0
   10/02/2017 10:50      71.4      70.1       46     48.7      0.00      0.09      76.8     0.31      1010.0     2.4     WNW   289   5.8       N     0   9.07    272      406.0
   10/02/2017 10:40      70.1      69.0       51     50.4      0.00      0.09      77.0     0.31      1010.0     3.7     NNW   328   6.0      NW   323   9.07    272      397.1
   10/02/2017 10:40      70.1      69.0       51     50.4      0.00      0.09      77.0     0.31      1010.0     3.7     NNW   328   6.0      NW   323   9.07    272      397.1
   10/02/2017 10:30      69.4      68.2       53     50.8      0.00      0.09      76.8     0.31      1010.0     2.3      NE    46   4.0       N     6   9.07    272      381.2
   10/02/2017 10:30      69.4      68.2       53     50.8      0.00      0.09      76.8     0.31      1010.0     2.3      NE    46   4.0       N     6   9.07    272      381.2
   10/02/2017 10:20      68.3      67.1       57     51.9      0.00      0.09      76.8     0.31      1010.0     2.7       N   355   3.9       N     1   9.07    272      296.2
   10/02/2017 10:20      68.3      67.1       57     51.9      0.00      0.09      76.8     0.31      1010.0     2.7       N   355   3.9       N     1   9.07    272      296.2
   10/02/2017 10:10      68.3      67.1       57     51.9      0.00      0.09      76.4     0.31      1010.0     2.7     ESE   116   3.9     ESE   109   9.07    272      157.4
   10/02/2017 10:10      68.3      67.1       57     51.9      0.00      0.09      76.4     0.31      1010.0     2.7     ESE   116   3.9     ESE   109   9.07    272      157.4
   10/02/2017 10:00      68.1      67.3       59     52.8      0.00      0.09      77.0     0.31      1010.0     3.4      SE   125   4.5     ENE    71   9.07    273      340.9
   10/02/2017 10:00      68.1      67.3       59     52.8      0.00      0.09      77.0     0.31      1010.0     3.4      SE   125   4.5     ENE    71   9.07    273      340.9
   10/02/2017 09:50      68.0      67.1       62     54.3      0.00      0.09      76.6     0.31      1010.0     2.1       E    90   3.7     ESE   113   9.07    273      136.3
   10/02/2017 09:50      68.0      67.1       62     54.3      0.00      0.09      76.6     0.31      1010.0     2.1       E    90   3.7     ESE   113   9.07    273      136.3
   10/02/2017 09:40      66.9      66.1       65     54.6      0.00      0.09      77.2     0.31      1010.0     2.7     NNW   335   4.2       N   355   9.08    273      301.4
   10/02/2017 09:40      66.9      66.1       65     54.6      0.00      0.09      77.2     0.31      1010.0     2.7     NNW   335   4.2       N   355   9.08    273      301.4
   10/02/2017 09:30      66.2      65.9       67     54.8      0.00      0.09      77.2     0.31      1010.0     2.6     NNW   343   4.7       N     2   9.07    273      284.3
   10/02/2017 09:30      66.2      65.9       67     54.8      0.00      0.09      77.2     0.31      1010.0     2.6     NNW   343   4.7       N     2   9.07    273      284.3
   10/02/2017 09:20      66.7      66.4       66     55.0      0.00      0.09      77.4     0.31      1010.0     1.4     NNW   335   2.5     NNE    27   9.07    273      103.6
   10/02/2017 09:20      66.7      66.4       66     55.0      0.00      0.09      77.4     0.31      1010.0     1.4     NNW   335   2.5     NNE    27   9.07    273      103.6
   10/02/2017 09:10      66.6      65.7       67     55.2      0.00      0.09      77.0     0.31      1010.0     1.8     ESE   114   3.4     ESE   105   9.07    273      233.2
   10/02/2017 09:10      66.6      65.7       67     55.2      0.00      0.09      77.0     0.31      1010.0     1.8     ESE   114   3.4     ESE   105   9.07    273      233.2
   10/02/2017 09:00      65.9      65.6       68     55.1      0.00      0.09      77.2     0.31      1010.0     2.8      NE    35   4.4     ENE    69   9.07    273      184.7
   10/02/2017 09:00      65.9      65.6       68     55.1      0.00      0.09      77.2     0.31      1010.0     2.8      NE    35   4.4     ENE    69   9.07    273      184.7
   10/02/2017 08:50      65.9      65.3       69     55.2      0.00      0.09      77.2     0.31      1010.0     2.4      NE    48   3.7     ENE    60   9.07    273      185.7
   10/02/2017 08:50      65.9      65.3       69     55.2      0.00      0.09      77.2     0.31      1010.0     2.4      NE    48   3.7     ENE    60   9.07    273      185.7
   10/02/2017 08:40      65.8      65.2       69     55.2      0.00      0.09      77.3     0.31      1010.0     1.8     NNE    16   2.3      NE    38   9.07    273      169.5
   10/02/2017 08:40      65.8      65.2       69     55.2      0.00      0.09      77.3     0.31      1010.0     1.8     NNE    16   2.3      NE    38   9.07    273      169.5
   10/02/2017 08:30      65.9      65.1       70     55.6      0.00      0.09      77.5     0.31      1009.0     1.7       E   100   2.3      SE   126   9.07    273      174.0
   10/02/2017 08:30      65.9      65.1       70     55.6      0.00      0.09      77.5     0.31      1009.0     1.7       E   100   2.3      SE   126   9.07    273      174.0
   10/02/2017 08:20      65.0      62.9       76     56.2      0.00      0.09      77.3     0.31      1009.0     1.3     ENE    77   2.2      NE    45   9.07    273      152.0
   10/02/2017 08:20      65.0      62.9       76     56.2      0.00      0.09      77.3     0.31      1009.0     1.3     ENE    77   2.2      NE    45   9.07    273      152.0
   10/02/2017 08:10      62.8      60.8       82     56.2      0.00      0.09      77.2     0.31      1009.0     1.2     ENE    67   2.6     NNE    27   7.96    273      125.7
   10/02/2017 08:10      62.8      60.8       82     56.2      0.00      0.09      77.2     0.31      1009.0     1.2     ENE    67   2.6     NNE    27   7.96    273      125.7
   10/02/2017 08:00      60.8      59.1       87     55.8      0.00      0.09      77.4     0.31      1009.0     0.9     SSE   155   1.3      SE   136   7.96    273       96.7
   10/02/2017 08:00      60.8      59.1       87     55.8      0.00      0.09      77.4     0.31      1009.0     0.9     SSE   155   1.3      SE   136   7.96    273       96.7
   10/02/2017 07:50      59.0      57.6       90     55.4      0.00      0.09      77.0     0.32      1009.0     1.2      SE   142   1.5     SSE   148   7.96    273       46.1
   10/02/2017 07:50      59.0      57.6       90     55.4      0.00      0.09      77.0     0.32      1009.0     1.2      SE   142   1.5     SSE   148   7.96    273       46.1
   10/02/2017 07:40      57.5      56.4       92     54.4      0.00      0.09      77.4     0.32      1009.0     1.5     SSE   151   2.3      SE   134   7.96    273       19.1
   10/02/2017 07:40      57.5      56.4       92     54.4      0.00      0.09      77.4     0.32      1009.0     1.5     SSE   151   2.3      SE   134   7.96    273       19.1
   10/02/2017 07:30      56.4      55.5       92     53.5      0.00      0.09      76.7     0.32      1009.0     0.6     ENE    62   1.5      SE   126   7.96    273       14.2
   10/02/2017 07:30      56.4      55.5       92     53.5      0.00      0.09      76.7     0.32      1009.0     0.6     ENE    62   1.5      SE   126   7.96    273       14.2
   10/02/2017 07:20      55.8      55.1       92     53.0      0.00      0.09      77.1     0.32      1009.0     0.9     SSE   165   1.8     SSW   193   7.96    273       -3.7
   10/02/2017 07:20      55.8      55.1       92     53.0      0.00      0.09      77.1     0.32      1009.0     0.9     SSE   165   1.8     SSW   193   7.96    273       -3.7
   10/02/2017 07:10      55.5      55.0       92     52.9      0.00      0.09      77.5     0.32      1009.0     1.4      SE   140   2.9     SSE   164   7.96    272       -6.9
   10/02/2017 07:10      55.5      55.0       92     52.9      0.00      0.09      77.5     0.32      1009.0     1.4      SE   140   2.9     SSE   164   7.96    272       -6.9
   10/02/2017 07:00      55.1      54.8       91     52.6      0.00      0.09      77.5     0.32      1009.0     1.2     SSE   159   2.0      SE   132   7.96    272      -14.1
   10/02/2017 07:00      55.1      54.8       91     52.6      0.00      0.09      77.5     0.32      1009.0     1.2     SSE   159   2.0      SE   132   7.96    272      -14.1
   10/02/2017 06:50      55.7      55.1       91     52.9      0.00      0.09      77.3     0.32      1009.0     1.8      SE   139   2.5      SE   140   7.96    273      -23.6
   10/02/2017 06:50      55.7      55.1       91     52.9      0.00      0.09      77.3     0.32      1009.0     1.8      SE   139   2.5      SE   140   7.96    273      -23.6
   10/02/2017 06:40      55.6      55.4       91     53.0      0.00      0.09      77.5     0.32      1009.0     2.3       S   179   3.1     SSE   162   7.96    272      -26.1
   10/02/2017 06:40      55.6      55.4       91     53.0      0.00      0.09      77.5     0.32      1009.0     2.3       S   179   3.1     SSE   162   7.96    272      -26.1
   10/02/2017 06:30      56.0      55.6       91     53.3      0.00      0.09      77.4     0.32      1009.0     1.6      SE   132   2.4      SE   137   7.96    272      -27.3
   10/02/2017 06:30      56.0      55.6       91     53.3      0.00      0.09      77.4     0.32      1009.0     1.6      SE   132   2.4      SE   137   7.96    272      -27.3
   10/02/2017 06:20      56.2      55.5       92     53.4      0.00      0.09      77.3     0.32      1008.0     1.2     SSW   200   1.5      SW   223   7.96    273      -23.1
   10/02/2017 06:20      56.2      55.5       92     53.4      0.00      0.09      77.3     0.32      1008.0     1.2     SSW   200   1.5      SW   223   7.96    273      -23.1
   10/02/2017 06:10      55.5      55.2       91     52.7      0.00      0.09      77.7     0.32      1008.0     1.9       S   173   2.9      SE   145   7.96    272      -12.4
   10/02/2017 06:10      55.5      55.2       91     52.7      0.00      0.09      77.7     0.32      1008.0     1.9       S   173   2.9      SE   145   7.96    272      -12.4
   10/02/2017 06:00      55.8      55.4       91     52.9      0.00      0.09      77.7     0.32      1008.0     1.6      SE   144   2.0      SE   139   7.96    272      -26.7
   10/02/2017 06:00      55.8      55.4       91     52.9      0.00      0.09      77.7     0.32      1008.0     1.6      SE   144   2.0      SE   139   7.96    272      -26.7
   10/02/2017 05:50      56.1      55.6       91     53.3      0.00      0.09      77.8     0.32      1008.0     1.9       S   186   2.4     SSE   159   7.96    272      -29.0
   10/02/2017 05:50      56.1      55.6       91     53.3      0.00      0.09      77.8     0.32      1008.0     1.9       S   186   2.4     SSE   159   7.96    272      -29.0
   10/02/2017 05:40      56.2      55.8       91     53.4      0.00      0.09      77.4     0.32      1008.0     1.2     SSE   161   2.4      SE   143   7.96    272      -26.7
   10/02/2017 05:40      56.2      55.8       91     53.4      0.00      0.09      77.4     0.32      1008.0     1.2     SSE   161   2.4      SE   143   7.96    272      -26.7
   10/02/2017 05:30      55.8      55.3       91     52.8      0.00      0.09      77.5     0.32      1008.0     1.1     SSE   167   1.7     SSE   163   7.96    272      -15.6
   10/02/2017 05:30      55.8      55.3       91     52.8      0.00      0.09      77.5     0.32      1008.0     1.1     SSE   167   1.7     SSE   163   7.96    272      -15.6
   10/02/2017 05:20      55.6      55.1       90     52.5      0.00      0.09      77.4     0.32      1008.0     1.2      SE   137   2.1      SE   129   7.96    272      -25.6
   10/02/2017 05:20      55.6      55.1       90     52.5      0.00      0.09      77.4     0.32      1008.0     1.2      SE   137   2.1      SE   129   7.96    272      -25.6
   10/02/2017 05:10      56.1      55.5       90     52.9      0.00      0.09      77.6     0.32      1008.0     1.0      SW   226   1.3     WNW   302   7.96    272      -33.6
   10/02/2017 05:10      56.1      55.5       90     52.9      0.00      0.09      77.6     0.32      1008.0     1.0      SW   226   1.3     WNW   302   7.96    272      -33.6
   10/02/2017 05:00      56.4      56.0       89     53.1      0.00      0.09      77.6     0.32      1008.0     1.3       S   171   1.8     SSW   193   7.96    272      -35.1
   10/02/2017 05:00      56.4      56.0       89     53.1      0.00      0.09      77.6     0.32      1008.0     1.3       S   171   1.8     SSW   193   7.96    272      -35.1
   10/02/2017 04:50      56.5      55.9       88     52.7      0.00      0.09      77.6     0.32      1008.0     1.1     ESE   104   1.9       S   175   7.96    272      -39.2
   10/02/2017 04:50      56.5      55.9       88     52.7      0.00      0.09      77.6     0.32      1008.0     1.1     ESE   104   1.9       S   175   7.96    272      -39.2
   10/02/2017 04:40      57.1      56.4       88     53.0      0.00      0.09      77.9     0.32      1008.0     1.2     ESE   117   1.6     SSE   147   7.96    272      -41.3
   10/02/2017 04:40      57.1      56.4       88     53.0      0.00      0.09      77.9     0.32      1008.0     1.2     ESE   117   1.6     SSE   147   7.96    272      -41.3
   10/02/2017 04:30      57.6      57.2       88     53.9      0.00      0.09      77.9     0.32      1008.0     1.6     SSW   198   2.1      SW   226   7.96    272      -41.0
   10/02/2017 04:30      57.6      57.2       88     53.9      0.00      0.09      77.9     0.32      1008.0     1.6     SSW   198   2.1      SW   226   7.96    272      -41.0
   10/02/2017 04:20      58.1      57.7       87     54.2      0.00      0.09      77.8     0.32      1008.0     0.8     SSW   193   1.2      SW   216   7.96    272      -41.8
   10/02/2017 04:20      58.1      57.7       87     54.2      0.00      0.09      77.8     0.32      1008.0     0.8     SSW   193   1.2      SW   216   7.96    272      -41.8
   10/02/2017 04:10      58.4      58.1       88     54.6      0.00      0.09      77.9     0.32      1008.0     0.9     ESE   115   1.2     ENE    76   7.96    272      -36.0
   10/02/2017 04:10      58.4      58.1       88     54.6      0.00      0.09      77.9     0.32      1008.0     0.9     ESE   115   1.2     ENE    76   7.96    272      -36.0
   10/02/2017 04:00      58.5      58.0       88     54.8      0.00      0.09      78.1     0.32      1007.0     0.8       E    99   1.7     ENE    72   7.96    272      -24.1
   10/02/2017 04:00      58.5      58.0       88     54.8      0.00      0.09      78.1     0.32      1007.0     0.8       E    99   1.7     ENE    72   7.96    272      -24.1
   10/02/2017 03:50      58.1      57.5       89     54.5      0.00      0.09      77.7     0.32      1007.0     2.1     ESE   106   3.4     SSE   149   7.96    272      -14.3
   10/02/2017 03:50      58.1      57.5       89     54.5      0.00      0.09      77.7     0.32      1007.0     2.1     ESE   106   3.4     SSE   149   7.96    272      -14.3
   10/02/2017 03:40      57.6      57.4       89     54.4      0.00      0.09      78.0     0.32      1007.0     2.1     SSE   150   2.9     SSE   152   7.96    272      -23.5
   10/02/2017 03:40      57.6      57.4       89     54.4      0.00      0.09      78.0     0.32      1007.0     2.1     SSE   150   2.9     SSE   152   7.96    272      -23.5
   10/02/2017 03:30      57.5      57.1       90     54.2      0.00      0.09      78.2     0.32      1007.0     1.6      SE   137   2.5     SSE   149   7.96    272      -22.0
   10/02/2017 03:30      57.5      57.1       90     54.2      0.00      0.09      78.2     0.32      1007.0     1.6      SE   137   2.5     SSE   149   7.96    272      -22.0
   10/02/2017 03:20      57.2      56.9       90     54.0      0.00      0.09      77.8     0.32      1007.0     0.7       S   191   1.1     SSE   150   7.96    272      -14.9
   10/02/2017 03:20      57.2      56.9       90     54.0      0.00      0.09      77.8     0.32      1007.0     0.7       S   191   1.1     SSE   150   7.96    272      -14.9
   10/02/2017 03:10      56.9      56.5       89     53.4      0.00      0.09      77.9     0.32      1007.0     1.8     SSE   168   3.1     SSE   150   7.96    272      -41.5
   10/02/2017 03:10      56.9      56.5       89     53.4      0.00      0.09      77.9     0.32      1007.0     1.8     SSE   168   3.1     SSE   150   7.96    272      -41.5
   10/02/2017 03:00      57.2      56.5       88     53.4      0.00      0.09      78.1     0.32      1007.0     2.3     SSE   159   3.0     SSE   158   7.96    271      -45.6
   10/02/2017 03:00      57.2      56.5       88     53.4      0.00      0.09      78.1     0.32      1007.0     2.3     SSE   159   3.0     SSE   158   7.96    271      -45.6
   10/02/2017 02:50      57.6      57.2       88     53.7      0.00      0.09      78.1     0.32      1007.0     2.1      SE   142   2.7     SSE   150   7.96    272      -47.4
   10/02/2017 02:50      57.6      57.2       88     53.7      0.00      0.09      78.1     0.32      1007.0     2.1      SE   142   2.7     SSE   150   7.96    272      -47.4
   10/02/2017 02:40      58.0      57.5       87     53.9      0.00      0.09      78.0     0.32      1008.0     1.9       S   171   2.4     SSW   194   7.96    271      -49.0
   10/02/2017 02:40      58.0      57.5       87     53.9      0.00      0.09      78.0     0.32      1008.0     1.9       S   171   2.4     SSW   194   7.96    271      -49.0
   10/02/2017 02:30      58.4      57.5       86     53.7      0.00      0.09      78.0     0.32      1008.0     1.6      SE   143   2.3      SE   133   7.96    272      -52.1
   10/02/2017 02:30      58.4      57.5       86     53.7      0.00      0.09      78.0     0.32      1008.0     1.6      SE   143   2.3      SE   133   7.96    272      -52.1
   10/02/2017 02:20      58.6      58.3       86     54.3      0.00      0.09      78.0     0.32      1008.0     1.0     SSE   167   1.9      SE   140   7.96    272      -51.3
   10/02/2017 02:20      58.6      58.3       86     54.3      0.00      0.09      78.0     0.32      1008.0     1.0     SSE   167   1.9      SE   140   7.96    272      -51.3
   10/02/2017 02:10      58.8      58.6       86     54.6      0.00      0.09      78.4     0.32      1008.0     1.4     SSE   159   1.9       S   181   7.96    272      -44.9
   10/02/2017 02:10      58.8      58.6       86     54.6      0.00      0.09      78.4     0.32      1008.0     1.4     SSE   159   1.9       S   181   7.96    272      -44.9
   10/02/2017 02:00      58.9      58.2       87     54.7      0.00      0.09      78.1     0.32      1008.0     1.5     SSW   196   1.8     SSW   197   7.96    271      -31.4
   10/02/2017 02:00      58.9      58.2       87     54.7      0.00      0.09      78.1     0.32      1008.0     1.5     SSW   196   1.8     SSW   197   7.96    271      -31.4
   10/02/2017 01:50      58.3      57.5       87     54.1      0.00      0.09      78.3     0.32      1008.0     1.0     SSE   155   1.3     SSE   168   7.96    271      -22.4
   10/02/2017 01:50      58.3      57.5       87     54.1      0.00      0.09      78.3     0.32      1008.0     1.0     SSE   155   1.3     SSE   168   7.96    271      -22.4
   10/02/2017 01:40      57.8      57.4       87     53.7      0.00      0.09      78.4     0.32      1008.0     1.3     SSE   150   1.8      SE   142   7.96    271      -23.9
   10/02/2017 01:40      57.8      57.4       87     53.7      0.00      0.09      78.4     0.32      1008.0     1.3     SSE   150   1.8      SE   142   7.96    271      -23.9
   10/02/2017 01:30      58.0      57.8       87     54.1      0.00      0.09      78.2     0.32      1008.0     1.3     SSW   207   1.8     SSW   202   7.96    271      -37.8
   10/02/2017 01:30      58.0      57.8       87     54.1      0.00      0.09      78.2     0.32      1008.0     1.3     SSW   207   1.8     SSW   202   7.96    271      -37.8
   10/02/2017 01:20      58.3      58.0       87     54.2      0.00      0.09      78.1     0.32      1008.0     0.6       S   183   1.1     SSW   205   7.96    271      -50.3
   10/02/2017 01:20      58.3      58.0       87     54.2      0.00      0.09      78.1     0.32      1008.0     0.6       S   183   1.1     SSW   205   7.96    271      -50.3
   10/02/2017 01:10      58.5      58.4       86     54.2      0.00      0.09      78.4     0.32      1008.0     0.9       S   174   1.3       S   187   7.96    271      -51.7
   10/02/2017 01:10      58.5      58.4       86     54.2      0.00      0.09      78.4     0.32      1008.0     0.9       S   174   1.3       S   187   7.96    271      -51.7
   10/02/2017 01:00      59.3      58.7       85     54.4      0.00      0.09      78.2     0.32      1008.0     1.5       S   175   2.0       S   172   7.96    271      -53.5
   10/02/2017 01:00      59.3      58.7       85     54.4      0.00      0.09      78.2     0.32      1008.0     1.5       S   175   2.0       S   172   7.96    271      -53.5
   10/02/2017 00:50      59.4      59.2       84     54.6      0.00      0.09      78.3     0.32      1008.0     1.9     SSE   158   2.6     SSE   167   7.96    271      -56.9
   10/02/2017 00:50      59.4      59.2       84     54.6      0.00      0.09      78.3     0.32      1008.0     1.9     SSE   158   2.6     SSE   167   7.96    271      -56.9
   10/02/2017 00:40      59.2      58.5       85     54.2      0.00      0.09      78.5     0.32      1008.0     2.1     SSE   162   3.6     SSE   165   7.96    271      -58.0
   10/02/2017 00:40      59.2      58.5       85     54.2      0.00      0.09      78.5     0.32      1008.0     2.1     SSE   162   3.6     SSE   165   7.96    271      -58.0
   10/02/2017 00:30      58.9      58.4       84     53.8      0.00      0.09      78.3     0.32      1008.0     1.2       S   177   1.8       S   179   7.96    271      -59.4
   10/02/2017 00:30      58.9      58.4       84     53.8      0.00      0.09      78.3     0.32      1008.0     1.2       S   177   1.8       S   179   7.96    271      -59.4
   10/02/2017 00:20      59.1      58.9       84     54.0      0.00      0.09      78.5     0.32      1008.0     1.7     SSE   153   2.9     SSE   161   7.96    271      -60.1
   10/02/2017 00:20      59.1      58.9       84     54.0      0.00      0.09      78.5     0.32      1008.0     1.7     SSE   153   2.9     SSE   161   7.96    271      -60.1
   10/02/2017 00:10      59.3      59.0       83     54.2      0.00      0.09      78.2     0.32      1008.0     1.0     SSW   205   1.5     SSE   157   7.96    271      -58.8
   10/02/2017 00:10      59.3      59.0       83     54.2      0.00      0.09      78.2     0.32      1008.0     1.0     SSW   205   1.5     SSE   157   7.96    271      -58.8
   10/02/2017 00:00      59.5      59.3       83     54.3      0.00      0.09      78.5     0.32      1008.0     0.8      SE   140   1.4     SSE   159   7.96    271      -58.9
   10/02/2017 00:00      59.5      59.3       83     54.3      0.00      0.09      78.5     0.32      1008.0     0.8      SE   140   1.4     SSE   159   7.96    271      -58.9
   10/01/2017 23:50      59.6      59.4       83     54.2      0.00      0.09      78.6     0.32      1008.0     0.9     SSE   149   1.8     SSE   165   7.96    271      -60.5
   10/01/2017 23:50      59.6      59.4       83     54.2      0.00      0.09      78.6     0.32      1008.0     0.9     SSE   149   1.8     SSE   165   7.96    271      -60.5
   10/01/2017 23:40      59.9      59.5       82     54.3      0.00      0.09      78.6     0.32      1008.0     1.3     SSE   156   2.1      SE   142   7.96    271      -60.4
   10/01/2017 23:40      59.9      59.5       82     54.3      0.00      0.09      78.6     0.32      1008.0     1.3     SSE   156   2.1      SE   142   7.96    271      -60.4
   10/01/2017 23:30      60.1      59.8       81     54.2      0.00      0.09      78.3     0.32      1008.0     0.9     SSW   210   1.6     SSE   148   7.96    271      -60.9
   10/01/2017 23:30      60.1      59.8       81     54.2      0.00      0.09      78.3     0.32      1008.0     0.9     SSW   210   1.6     SSE   148   7.96    271      -60.9
   10/01/2017 23:20      60.4      60.1       80     54.2      0.00      0.09      78.3     0.32      1008.0     1.4      SE   142   1.9      SE   141   7.96    271      -61.3
   10/01/2017 23:20      60.4      60.1       80     54.2      0.00      0.09      78.3     0.32      1008.0     1.4      SE   142   1.9      SE   141   7.96    271      -61.3
   10/01/2017 23:10      60.6      60.4       80     54.3      0.00      0.09      78.6     0.32      1008.0     0.9     SSW   200   1.4       S   188   7.96    271      -61.6
   10/01/2017 23:10      60.6      60.4       80     54.3      0.00      0.09      78.6     0.32      1008.0     0.9     SSW   200   1.4       S   188   7.96    271      -61.6
   10/01/2017 23:00      61.0      60.4       79     54.1      0.00      0.09      78.5     0.32      1008.0     1.7     SSE   163   2.5       S   184   7.96    271      -62.3
   10/01/2017 23:00      61.0      60.4       79     54.1      0.00      0.09      78.5     0.32      1008.0     1.7     SSE   163   2.5       S   184   7.96    271      -62.3
   10/01/2017 22:50      61.3      61.0       78     54.4      0.00      0.09      78.6     0.32      1008.0     0.5     SSE   162   0.8      SW   214   7.96    271      -62.4
   10/01/2017 22:50      61.3      61.0       78     54.4      0.00      0.09      78.6     0.32      1008.0     0.5     SSE   162   0.8      SW   214   7.96    271      -62.4
   10/01/2017 22:40      61.6      61.3       78     54.4      0.00      0.09      78.5     0.32      1007.0     1.0      SE   136   1.3     SSE   163   7.96    271      -63.1
   10/01/2017 22:40      61.6      61.3       78     54.4      0.00      0.09      78.5     0.32      1007.0     1.0      SE   136   1.3     SSE   163   7.96    271      -63.1
   10/01/2017 22:30      61.9      61.6       77     54.6      0.00      0.09      78.7     0.32      1007.0     0.9      SE   133   1.3     SSE   165   7.96    271      -64.4
   10/01/2017 22:30      61.9      61.6       77     54.6      0.00      0.09      78.7     0.32      1007.0     0.9      SE   133   1.3     SSE   165   7.96    271      -64.4
   10/01/2017 22:20      62.7      62.2       76     54.5      0.00      0.09      78.5     0.32      1007.0     1.0      SE   134   1.3      SE   129   7.96    271      -64.7
   10/01/2017 22:20      62.7      62.2       76     54.5      0.00      0.09      78.5     0.32      1007.0     1.0      SE   134   1.3      SE   129   7.96    271      -64.7
   10/01/2017 22:10      63.8      62.7       73     54.5      0.00      0.09      78.7     0.32      1008.0     1.0     SSW   192   1.6       S   171   7.96    271      -65.4
   10/01/2017 22:10      63.8      62.7       73     54.5      0.00      0.09      78.7     0.32      1008.0     1.0     SSW   192   1.6       S   171   7.96    271      -65.4
   10/01/2017 22:00      64.4      63.9       72     54.9      0.00      0.09      78.6     0.32      1008.0     1.2     WSW   247   1.9     WSW   245   7.96    271      -67.2
   10/01/2017 22:00      64.4      63.9       72     54.9      0.00      0.09      78.6     0.32      1008.0     1.2     WSW   247   1.9     WSW   245   7.96    271      -67.2
   10/01/2017 21:50      64.5      64.2       72     55.0      0.00      0.09      78.5     0.32      1008.0     1.2       W   265   2.2       W   280   7.96    271      -68.8
   10/01/2017 21:50      64.5      64.2       72     55.0      0.00      0.09      78.5     0.32      1008.0     1.2       W   265   2.2       W   280   7.96    271      -68.8
   10/01/2017 21:40      64.8      64.4       71     55.1      0.00      0.09      78.6     0.32      1007.0     1.7      SW   215   3.4      SW   214   7.96    271      -68.9
   10/01/2017 21:40      64.8      64.4       71     55.1      0.00      0.09      78.6     0.32      1007.0     1.7      SW   215   3.4      SW   214   7.96    271      -68.9
   10/01/2017 21:30      65.1      64.8       70     55.1      0.00      0.09      78.6     0.32      1007.0     1.3      SW   230   1.9      SW   216   7.96    271      -68.9
   10/01/2017 21:30      65.1      64.8       70     55.1      0.00      0.09      78.6     0.32      1007.0     1.3      SW   230   1.9      SW   216   7.96    271      -68.9
   10/01/2017 21:20      65.3      65.1       70     55.3      0.00      0.09      78.5     0.32      1007.0     1.7      SW   220   2.7      SW   216   7.96    271      -69.5
   10/01/2017 21:20      65.3      65.1       70     55.3      0.00      0.09      78.5     0.32      1007.0     1.7      SW   220   2.7      SW   216   7.96    271      -69.5
   10/01/2017 21:10      65.3      65.2       70     55.2      0.00      0.09      78.2     0.32      1007.0     3.0     SSW   206   4.3      SW   219   7.96    271      -69.8
   10/01/2017 21:10      65.3      65.2       70     55.2      0.00      0.09      78.2     0.32      1007.0     3.0     SSW   206   4.3      SW   219   7.96    271      -69.8
   10/01/2017 21:00      65.4      64.9       70     55.1      0.00      0.09      78.4     0.32      1007.0     2.7     SSW   210   3.7      SW   217   7.96    271      -69.2
   10/01/2017 21:00      65.4      64.9       70     55.1      0.00      0.09      78.4     0.32      1007.0     2.7     SSW   210   3.7      SW   217   7.96    271      -69.2
   10/01/2017 20:50      65.4      65.2       69     55.1      0.00      0.09      78.6     0.32      1007.0     1.6       S   179   2.5       S   169   7.96    270      -69.4
   10/01/2017 20:50      65.4      65.2       69     55.1      0.00      0.09      78.6     0.32      1007.0     1.6       S   179   2.5       S   169   7.96    270      -69.4
   10/01/2017 20:40      66.0      65.6       68     55.0      0.00      0.09      78.4     0.32      1007.0     1.7     SSW   195   2.5       S   186   7.96    270      -69.8
   10/01/2017 20:40      66.0      65.6       68     55.0      0.00      0.09      78.4     0.32      1007.0     1.7     SSW   195   2.5       S   186   7.96    270      -69.8
   10/01/2017 20:30      66.3      65.8       68     55.1      0.00      0.09      78.6     0.32      1007.0     2.1     SSW   194   2.8     SSE   166   7.96    270      -71.0
   10/01/2017 20:30      66.3      65.8       68     55.1      0.00      0.09      78.6     0.32      1007.0     2.1     SSW   194   2.8     SSE   166   7.96    270      -71.0
   10/01/2017 20:20      66.6      66.3       67     55.2      0.00      0.09      78.6     0.32      1007.0     2.3     SSW   200   2.8       S   187   7.96    270      -72.2
   10/01/2017 20:20      66.6      66.3       67     55.2      0.00      0.09      78.6     0.32      1007.0     2.3     SSW   200   2.8       S   187   7.96    270      -72.2
   10/01/2017 20:10      66.9      66.6       66     55.2      0.00      0.09      78.4     0.32      1007.0     1.8      SW   216   2.7     WSW   246   7.96    270      -73.1
   10/01/2017 20:10      66.9      66.6       66     55.2      0.00      0.09      78.4     0.32      1007.0     1.8      SW   216   2.7     WSW   246   7.96    270      -73.1
   10/01/2017 20:00      67.3      67.0       65     55.2      0.00      0.09      78.4     0.32      1007.0     3.1      SW   234   4.3      SW   235   7.96    270      -73.4
   10/01/2017 20:00      67.3      67.0       65     55.2      0.00      0.09      78.4     0.32      1007.0     3.1      SW   234   4.3      SW   235   7.96    270      -73.4
   10/01/2017 19:50      67.7      67.4       65     55.4      0.00      0.09      78.8     0.32      1007.0     3.7      SW   232   5.1      SW   227   7.97    270      -74.1
   10/01/2017 19:50      67.7      67.4       65     55.4      0.00      0.09      78.8     0.32      1007.0     3.7      SW   232   5.1      SW   227   7.97    270      -74.1
   10/01/2017 19:40      67.9      67.8       65     55.5      0.00      0.09      78.4     0.32      1007.0     3.9      SW   233   5.7     WSW   241   7.97    270      -74.0
   10/01/2017 19:40      67.9      67.8       65     55.5      0.00      0.09      78.4     0.32      1007.0     3.9      SW   233   5.7     WSW   241   7.97    270      -74.0
   10/01/2017 19:30      68.2      68.0       64     55.6      0.00      0.09      78.5     0.32      1007.0     4.0     SSW   205   5.6     SSW   202   7.97    270      -74.3
   10/01/2017 19:30      68.2      68.0       64     55.6      0.00      0.09      78.5     0.32      1007.0     4.0     SSW   205   5.6     SSW   202   7.97    270      -74.3
   10/01/2017 19:20      68.2      68.1       64     55.5      0.00      0.09      78.4     0.32      1007.0     2.0     SSW   199   3.8       S   177   7.97    270      -74.5
   10/01/2017 19:20      68.2      68.1       64     55.5      0.00      0.09      78.4     0.32      1007.0     2.0     SSW   199   3.8       S   177   7.97    270      -74.5
   10/01/2017 19:10      69.0      68.2       63     55.6      0.00      0.09      78.4     0.32      1007.0     3.3     SSW   208   4.7     SSW   192   7.97    269      -75.0
   10/01/2017 19:10      69.0      68.2       63     55.6      0.00      0.09      78.4     0.32      1007.0     3.3     SSW   208   4.7     SSW   192   7.97    269      -75.0
   10/01/2017 19:00      69.5      68.9       62     55.6      0.00      0.09      78.2     0.32      1007.0     3.5     SSW   202   5.9     SSW   204   7.97    270      -76.0
   10/01/2017 19:00      69.5      68.9       62     55.6      0.00      0.09      78.2     0.32      1007.0     3.5     SSW   202   5.9     SSW   204   7.97    270      -76.0
   10/01/2017 18:50      69.8      69.4       61     55.8      0.00      0.09      78.3     0.32      1007.0     3.1       S   190   4.6       S   184   7.97    269      -75.7
   10/01/2017 18:50      69.8      69.4       61     55.8      0.00      0.09      78.3     0.32      1007.0     3.1       S   190   4.6       S   184   7.97    269      -75.7
   10/01/2017 18:40      70.4      69.8       60     55.8      0.00      0.09      78.2     0.32      1007.0     3.7       S   178   4.5     SSW   198   7.97    269      -73.2
   10/01/2017 18:40      70.4      69.8       60     55.8      0.00      0.09      78.2     0.32      1007.0     3.7       S   178   4.5     SSW   198   7.97    269      -73.2
   10/01/2017 18:30      70.9      70.6       59     55.9      0.00      0.09      78.4     0.32      1007.0     3.6       S   188   5.7       S   178   7.97    269      -69.0
   10/01/2017 18:30      70.9      70.6       59     55.9      0.00      0.09      78.4     0.32      1007.0     3.6       S   188   5.7       S   178   7.97    269      -69.0
   10/01/2017 18:20      71.5      70.9       59     55.9      0.00      0.09      78.2     0.32      1007.0     5.1     SSE   168   6.0       S   173   7.97    269      -63.2
   10/01/2017 18:20      71.5      70.9       59     55.9      0.00      0.09      78.2     0.32      1007.0     5.1     SSE   168   6.0       S   173   7.97    269      -63.2
   10/01/2017 18:10      72.0      71.5       58     56.0      0.00      0.09      78.0     0.32      1007.0     4.8     SSE   159   6.0     SSE   152   7.97    269      -46.6
   10/01/2017 18:10      72.0      71.5       58     56.0      0.00      0.09      78.0     0.32      1007.0     4.8     SSE   159   6.0     SSE   152   7.97    269      -46.6
   10/01/2017 18:00      72.5      72.0       57     56.1      0.00      0.09      78.2     0.32      1006.0     4.8     SSE   168   6.8     SSE   154   7.97    269      -34.0
   10/01/2017 18:00      72.5      72.0       57     56.1      0.00      0.09      78.2     0.32      1006.0     4.8     SSE   168   6.8     SSE   154   7.97    269      -34.0
   10/01/2017 17:50      73.0      72.4       56     56.2      0.00      0.09      78.0     0.32      1006.0     6.9     SSE   168   9.6       S   170   7.97    269      -17.9
   10/01/2017 17:50      73.0      72.4       56     56.2      0.00      0.09      78.0     0.32      1006.0     6.9     SSE   168   9.6       S   170   7.97    269      -17.9
   10/01/2017 17:40      73.8      72.9       55     56.4      0.00      0.09      78.1     0.32      1007.0     6.0     SSE   168   8.0       S   184   7.98    269        1.1
   10/01/2017 17:40      73.8      72.9       55     56.4      0.00      0.09      78.1     0.32      1007.0     6.0     SSE   168   8.0       S   184   7.98    269        1.1
   10/01/2017 17:30      74.3      73.7       54     56.4      0.00      0.09      78.1     0.32      1007.0     5.1     SSE   157   6.5       S   176   7.98    269       24.2
   10/01/2017 17:30      74.3      73.7       54     56.4      0.00      0.09      78.1     0.32      1007.0     5.1     SSE   157   6.5       S   176   7.98    269       24.2
   10/01/2017 17:20      74.2      73.9       54     56.3      0.00      0.09      78.0     0.32      1007.0     5.8     SSE   153  10.9     SSE   152   7.98    269       46.0
   10/01/2017 17:20      74.2      73.9       54     56.3      0.00      0.09      78.0     0.32      1007.0     5.8     SSE   153  10.9     SSE   152   7.98    269       46.0
   10/01/2017 17:10      74.8      74.1       53     56.1      0.00      0.09      77.9     0.32      1007.0     6.9      SE   146   9.2      SE   130   7.98    269       67.8
   10/01/2017 17:10      74.8      74.1       53     56.1      0.00      0.09      77.9     0.32      1007.0     6.9      SE   146   9.2      SE   130   7.98    269       67.8
   10/01/2017 17:00      75.1      74.8       52     56.2      0.00      0.09      77.9     0.32      1007.0     6.0     SSE   151   8.6      SE   131   7.98    269       91.6
   10/01/2017 17:00      75.1      74.8       52     56.2      0.00      0.09      77.9     0.32      1007.0     6.0     SSE   151   8.6      SE   131   7.98    269       91.6
   10/01/2017 16:50      75.5      75.1       51     56.1      0.00      0.09      77.9     0.31      1007.0     6.1      SE   134   9.6      SE   143   7.98    268      121.6
   10/01/2017 16:50      75.5      75.1       51     56.1      0.00      0.09      77.9     0.31      1007.0     6.1      SE   134   9.6      SE   143   7.98    268      121.6
   10/01/2017 16:40      75.8      75.3       51     56.1      0.00      0.09      77.8     0.31      1007.0     6.9      SE   137   9.0      SE   135   7.98    269      147.0
   10/01/2017 16:40      75.8      75.3       51     56.1      0.00      0.09      77.8     0.31      1007.0     6.9      SE   137   9.0      SE   135   7.98    269      147.0
   10/01/2017 16:30      76.0      75.1       51     56.1      0.00      0.09      77.7     0.31      1007.0     6.9     SSE   154   8.9      SE   131   7.98    268      170.1
   10/01/2017 16:30      76.0      75.1       51     56.1      0.00      0.09      77.7     0.31      1007.0     6.9     SSE   154   8.9      SE   131   7.98    268      170.1
   10/01/2017 16:20      76.4      75.6       50     56.1      0.00      0.09      77.8     0.31      1007.0     7.3      SE   146  13.4      SE   129   7.98    268      197.4
   10/01/2017 16:20      76.4      75.6       50     56.1      0.00      0.09      77.8     0.31      1007.0     7.3      SE   146  13.4      SE   129   7.98    268      197.4
   10/01/2017 16:10      76.8      75.7       50     56.1      0.00      0.09      77.9     0.31      1007.0     7.4      SE   134  11.6     ESE   112   7.98    268      215.9
   10/01/2017 16:10      76.8      75.7       50     56.1      0.00      0.09      77.9     0.31      1007.0     7.4      SE   134  11.6     ESE   112   7.98    268      215.9
   10/01/2017 16:00      77.4      76.4       48     56.1      0.00      0.09      77.6     0.31      1007.0     8.7      SE   146  12.6     SSE   147   7.98    268      225.1
   10/01/2017 16:00      77.4      76.4       48     56.1      0.00      0.09      77.6     0.31      1007.0     8.7      SE   146  12.6     SSE   147   7.98    268      225.1
   10/01/2017 15:50      77.8      77.1       48     56.1      0.00      0.09      77.7     0.31      1007.0     5.7      SE   140   9.2      SE   133   7.98    268      241.4
   10/01/2017 15:50      77.8      77.1       48     56.1      0.00      0.09      77.7     0.31      1007.0     5.7      SE   140   9.2      SE   133   7.98    268      241.4
   10/01/2017 15:40      78.1      77.3       48     56.1      0.00      0.09      77.5     0.31      1007.0     6.5     SSE   149   9.7     SSE   156   7.99    269      261.4
   10/01/2017 15:40      78.1      77.3       48     56.1      0.00      0.09      77.5     0.31      1007.0     6.5     SSE   149   9.7     SSE   156   7.99    269      261.4
   10/01/2017 15:30      79.2      77.6       46     56.1      0.00      0.09      77.5     0.31      1007.0     9.0      SE   143  12.8     SSE   149   7.99    269      284.1
   10/01/2017 15:30      79.2      77.6       46     56.1      0.00      0.09      77.5     0.31      1007.0     9.0      SE   143  12.8     SSE   149   7.99    269      284.1
   10/01/2017 15:20      79.5      78.8       45     56.4      0.00      0.09      77.5     0.31      1007.0     5.1     SSE   149   7.6       S   170   7.99    269      300.3
   10/01/2017 15:20      79.5      78.8       45     56.4      0.00      0.09      77.5     0.31      1007.0     5.1     SSE   149   7.6       S   170   7.99    269      300.3
   10/01/2017 15:10      79.4      78.6       46     56.3      0.00      0.09      77.6     0.31      1007.0     4.9     SSE   159   8.6     SSE   152   7.99    270      328.9
   10/01/2017 15:10      79.4      78.6       46     56.3      0.00      0.09      77.6     0.31      1007.0     4.9     SSE   159   8.6     SSE   152   7.99    270      328.9
   10/01/2017 15:00      79.8      78.9       46     56.8      0.00      0.09      77.3     0.31      1007.0     5.4      SE   127   8.2      SE   138   7.99    270      342.9
   10/01/2017 15:00      79.8      78.9       46     56.8      0.00      0.09      77.3     0.31      1007.0     5.4      SE   127   8.2      SE   138   7.99    270      342.9
   10/01/2017 14:50      80.4      79.2       45     56.7      0.00      0.09      77.2     0.31      1007.0     4.8     ESE   121   8.0     ESE   111   7.99    270      356.6
   10/01/2017 14:50      80.4      79.2       45     56.7      0.00      0.09      77.2     0.31      1007.0     4.8     ESE   121   8.0     ESE   111   7.99    270      356.6
   10/01/2017 14:40      80.5      78.7       46     56.6      0.00      0.09      77.3     0.31      1008.0     3.0       S   176   4.4     SSE   154   7.99    270      368.7
   10/01/2017 14:40      80.5      78.7       46     56.6      0.00      0.09      77.3     0.31      1008.0     3.0       S   176   4.4     SSE   154   7.99    270      368.7
   10/01/2017 14:30      79.3      77.5       48     56.7      0.00      0.09      77.4     0.31      1008.0     3.1     SSE   152   6.6     ESE   117   7.99    270      386.7
   10/01/2017 14:30      79.3      77.5       48     56.7      0.00      0.09      77.4     0.31      1008.0     3.1     SSE   152   6.6     ESE   117   7.99    270      386.7
   10/01/2017 14:20      78.2      77.6       48     56.6      0.00      0.09      77.3     0.31      1008.0     5.7     SSE   162   9.2     SSE   162   7.99    270      403.5
   10/01/2017 14:20      78.2      77.6       48     56.6      0.00      0.09      77.3     0.31      1008.0     5.7     SSE   162   9.2     SSE   162   7.99    270      403.5
   10/01/2017 14:10      80.1      78.1       45     56.5      0.00      0.09      77.2     0.31      1008.0     5.9     SSE   149  10.0       S   183   7.99    270      410.0
   10/01/2017 14:10      80.1      78.1       45     56.5      0.00      0.09      77.2     0.31      1008.0     5.9     SSE   149  10.0       S   183   7.99    270      410.0
   10/01/2017 14:00      80.1      79.7       44     56.3      0.00      0.09      77.2     0.31      1008.0     3.9      NE    36   6.6     ENE    58   7.99    270      420.9
   10/01/2017 14:00      80.1      79.7       44     56.3      0.00      0.09      77.2     0.31      1008.0     3.9      NE    36   6.6     ENE    58   7.99    270      420.9
   10/01/2017 13:50      81.2      80.2       43     55.9      0.00      0.09      77.2     0.31      1008.0     4.8     ENE    65   8.0     ENE    67   7.99    270      429.4
   10/01/2017 13:50      81.2      80.2       43     55.9      0.00      0.09      77.2     0.31      1008.0     4.8     ENE    65   8.0     ENE    67   7.99    270      429.4
   10/01/2017 13:40      81.4      79.5       43     55.6      0.00      0.09      77.2     0.31      1008.0     3.8     NNE    18   6.2     NNE    26   7.99    270      433.9
   10/01/2017 13:40      81.4      79.5       43     55.6      0.00      0.09      77.2     0.31      1008.0     3.8     NNE    18   6.2     NNE    26   7.99    270      433.9
   10/01/2017 13:30      80.0      78.6       44     55.6      0.00      0.09      77.3     0.31      1009.0     3.5     NNE    33   5.9     ENE    72   7.99    270      448.0
   10/01/2017 13:30      80.0      78.6       44     55.6      0.00      0.09      77.3     0.31      1009.0     3.5     NNE    33   5.9     ENE    72   7.99    270      448.0
   10/01/2017 13:20      79.4      77.7       45     55.4      0.00      0.09      77.2     0.31      1009.0     3.6     ESE   111   6.0      SE   134   7.99    270      454.7
   10/01/2017 13:20      79.4      77.7       45     55.4      0.00      0.09      77.2     0.31      1009.0     3.6     ESE   111   6.0      SE   134   7.99    270      454.7
   10/01/2017 13:10      79.9      78.0       44     55.3      0.00      0.09      77.1     0.31      1009.0     3.2     NNE    17   5.3     ENE    73   7.99    270      456.9
   10/01/2017 13:10      79.9      78.0       44     55.3      0.00      0.09      77.1     0.31      1009.0     3.2     NNE    17   5.3     ENE    73   7.99    270      456.9
   10/01/2017 13:00      78.2      77.1       45     54.8      0.00      0.09      77.1     0.31      1009.0     2.4      SW   229   4.0      SW   223   8.00    271      465.6
   10/01/2017 13:00      78.2      77.1       45     54.8      0.00      0.09      77.1     0.31      1009.0     2.4      SW   229   4.0      SW   223   8.00    271      465.6
   10/01/2017 12:50      78.4      76.8       46     55.1      0.00      0.09      77.0     0.31      1009.0     3.4       E   101   7.1       E   100   8.00    271      468.6
   10/01/2017 12:50      78.4      76.8       46     55.1      0.00      0.09      77.0     0.31      1009.0     3.4       E   101   7.1       E   100   8.00    271      468.6
   10/01/2017 12:40      78.5      76.8       47     55.4      0.00      0.09      77.2     0.31      1010.0     3.3     NNW   341   5.7       N   349   8.00    271      459.7
   10/01/2017 12:40      78.5      76.8       47     55.4      0.00      0.09      77.2     0.31      1010.0     3.3     NNW   341   5.7       N   349   8.00    271      459.7
   10/01/2017 12:30      77.8      76.8       47     55.3      0.00      0.09      77.1     0.31      1010.0     3.2     NNW   346   5.0     NNW   341   8.00    271      464.0
   10/01/2017 12:30      77.8      76.8       47     55.3      0.00      0.09      77.1     0.31      1010.0     3.2     NNW   346   5.0     NNW   341   8.00    271      464.0
   10/01/2017 12:20      77.0      76.0       49     55.6      0.00      0.09      77.1     0.31      1010.0     3.1       N     8   5.0      NE    46   8.00    271      465.0
   10/01/2017 12:20      77.0      76.0       49     55.6      0.00      0.09      77.1     0.31      1010.0     3.1       N     8   5.0      NE    46   8.00    271      465.0
   10/01/2017 12:10      76.0      75.2       49     55.1      0.00      0.09      77.2     0.31      1010.0     2.6     NNW   345   4.3     WNW   285   8.00    271      462.7
   10/01/2017 12:10      76.0      75.2       49     55.1      0.00      0.09      77.2     0.31      1010.0     2.6     NNW   345   4.3     WNW   285   8.00    271      462.7
   10/01/2017 12:00      75.7      74.7       49     55.1      0.00      0.09      77.1     0.31      1010.0     3.4     NNE    17   5.4       N     8   8.00    271      460.0
   10/01/2017 12:00      75.7      74.7       49     55.1      0.00      0.09      77.1     0.31      1010.0     3.4     NNE    17   5.4       N     8   8.00    271      460.0
   10/01/2017 11:50      75.8      74.2       50     55.1      0.00      0.09      77.3     0.31      1010.0     3.2     NNE    12   5.4     ENE    73   8.00    271      457.0
   10/01/2017 11:50      75.8      74.2       50     55.1      0.00      0.09      77.3     0.31      1010.0     3.2     NNE    12   5.4     ENE    73   8.00    271      457.0
   10/01/2017 11:40      74.8      74.2       51     55.0      0.00      0.09      77.0     0.31      1011.0     1.9     SSW   193   3.2       S   182   8.00    271      445.0
   10/01/2017 11:40      74.8      74.2       51     55.0      0.00      0.09      77.0     0.31      1011.0     1.9     SSW   193   3.2       S   182   8.00    271      445.0
   10/01/2017 11:30      74.7      74.0       51     55.1      0.00      0.09      77.2     0.31      1011.0     2.1     NNE    26   4.7     ENE    73   8.00    271      435.5
   10/01/2017 11:30      74.7      74.0       51     55.1      0.00      0.09      77.2     0.31      1011.0     2.1     NNE    26   4.7     ENE    73   8.00    271      435.5
   10/01/2017 11:20      73.9      73.1       53     55.0      0.00      0.09      77.3     0.31      1011.0     3.4      NW   321   5.0      NW   304   8.00    271      426.8
   10/01/2017 11:20      73.9      73.1       53     55.0      0.00      0.09      77.3     0.31      1011.0     3.4      NW   321   5.0      NW   304   8.00    271      426.8
   10/01/2017 11:10      73.3      72.3       54     55.2      0.00      0.09      77.2     0.31      1011.0     3.1      NW   319   5.6      NW   305   8.00    271      416.8
   10/01/2017 11:10      73.3      72.3       54     55.2      0.00      0.09      77.2     0.31      1011.0     3.1      NW   319   5.6      NW   305   8.00    271      416.8
   10/01/2017 11:00      72.5      71.9       55     55.2      0.00      0.09      77.3     0.31      1011.0     3.7       N   360   5.9     NNW   348   8.00    271      413.4
   10/01/2017 11:00      72.5      71.9       55     55.2      0.00      0.09      77.3     0.31      1011.0     3.7       N   360   5.9     NNW   348   8.00    271      413.4
   10/01/2017 10:50      71.7      70.5       57     55.0      0.00      0.09      77.3     0.31      1011.0     2.0       S   170   3.6      SW   230   8.00    272      398.9
   10/01/2017 10:50      71.7      70.5       57     55.0      0.00      0.09      77.3     0.31      1011.0     2.0       S   170   3.6      SW   230   8.00    272      398.9
   10/01/2017 10:40      70.9      70.5       58     55.1      0.00      0.09      77.0     0.31      1011.0     3.0       N   351   4.3     NNW   342   8.00    272      382.5
   10/01/2017 10:40      70.9      70.5       58     55.1      0.00      0.09      77.0     0.31      1011.0     3.0       N   351   4.3     NNW   342   8.00    272      382.5
   10/01/2017 10:30      71.1      70.4       58     55.3      0.00      0.09      77.2     0.31      1011.0     3.3     NNW   348   5.9       N     8   8.00    272      366.2
   10/01/2017 10:30      71.1      70.4       58     55.3      0.00      0.09      77.2     0.31      1011.0     3.3     NNW   348   5.9       N     8   8.00    272      366.2
   10/01/2017 10:20      71.8      70.6       58     55.6      0.00      0.09      77.2     0.31      1011.0     3.2     NNE    19   5.1       N   350   8.00    272      344.1
   10/01/2017 10:20      71.8      70.6       58     55.6      0.00      0.09      77.2     0.31      1011.0     3.2     NNE    19   5.1       N   350   8.00    272      344.1
   10/01/2017 10:10      71.8      69.4       59     55.7      0.00      0.09      77.2     0.31      1011.0     1.9     NNE    25   3.4       N     5   8.00    273      367.1
   10/01/2017 10:10      71.8      69.4       59     55.7      0.00      0.09      77.2     0.31      1011.0     1.9     NNE    25   3.4       N     5   8.00    273      367.1
   10/01/2017 10:00      69.6      68.7       61     55.4      0.00      0.09      77.3     0.31      1011.0     1.9     NNW   341   3.2       N   352   8.01    273      332.3
   10/01/2017 10:00      69.6      68.7       61     55.4      0.00      0.09      77.3     0.31      1011.0     1.9     NNW   341   3.2       N   352   8.01    273      332.3
   10/01/2017 09:50      68.7      66.5       66     55.6      0.00      0.09      77.1     0.31      1011.0     1.8       N   357   2.9     WNW   283   8.01    273      253.1
   10/01/2017 09:50      68.7      66.5       66     55.6      0.00      0.09      77.1     0.31      1011.0     1.8       N   357   2.9     WNW   283   8.01    273      253.1
   10/01/2017 09:40      67.8      66.5       66     55.4      0.00      0.09      77.4     0.31      1011.0     2.0     ESE   121   4.0      SE   134   8.01    273       58.5
   10/01/2017 09:40      67.8      66.5       66     55.4      0.00      0.09      77.4     0.31      1011.0     2.0     ESE   121   4.0      SE   134   8.01    273       58.5
   10/01/2017 09:30      68.3      66.2       67     55.7      0.00      0.09      77.0     0.32      1011.0     1.6     NNW   337   3.2       E    83   8.01    273      203.5
   10/01/2017 09:30      68.3      66.2       67     55.7      0.00      0.09      77.0     0.32      1011.0     1.6     NNW   337   3.2       E    83   8.01    273      203.5
   10/01/2017 09:20      66.1      65.3       70     55.5      0.00      0.09      77.2     0.31      1011.0     1.0     SSW   204   1.7     WSW   247   8.01    273       82.8
   10/01/2017 09:20      66.1      65.3       70     55.5      0.00      0.09      77.2     0.31      1011.0     1.0     SSW   204   1.7     WSW   247   8.01    273       82.8
   10/01/2017 09:10      65.8      65.3       71     55.8      0.00      0.09      77.5     0.31      1011.0     2.3      SE   128   3.2     SSE   166   8.01    273      122.8
   10/01/2017 09:10      65.8      65.3       71     55.8      0.00      0.09      77.5     0.31      1011.0     2.3      SE   128   3.2     SSE   166   8.01    273      122.8
   10/01/2017 09:00      65.4      65.0       72     56.1      0.00      0.09      77.2     0.32      1011.0     2.5       E    88   3.6       E    82   8.01    273      137.5
   10/01/2017 09:00      65.4      65.0       72     56.1      0.00      0.09      77.2     0.32      1011.0     2.5       E    88   3.6       E    82   8.01    273      137.5
   10/01/2017 08:50      65.0      64.2       75     56.3      0.00      0.09      77.4     0.32      1011.0     2.4     SSE   165   4.6     SSE   159   8.01    273      144.3
   10/01/2017 08:50      65.0      64.2       75     56.3      0.00      0.09      77.4     0.32      1011.0     2.4     SSE   165   4.6     SSE   159   8.01    273      144.3
   10/01/2017 08:40      64.3      63.5       76     56.2      0.00      0.09      76.8     0.32      1011.0     1.7     SSE   163   4.0     ESE   116   8.01    273       82.2
   10/01/2017 08:40      64.3      63.5       76     56.2      0.00      0.09      76.8     0.32      1011.0     1.7     SSE   163   4.0     ESE   116   8.01    273       82.2
   10/01/2017 08:30      63.7      63.1       77     56.1      0.00      0.09      77.5     0.32      1011.0     2.4      SE   133   3.4     SSE   158   8.01    273       65.3
   10/01/2017 08:30      63.7      63.1       77     56.1      0.00      0.09      77.5     0.32      1011.0     2.4      SE   133   3.4     SSE   158   8.01    273       65.3
   10/01/2017 08:20      63.3      62.9       78     56.1      0.00      0.09      77.5     0.32      1011.0     2.8     ESE   106   3.9     ESE   115   8.01    273       50.2
   10/01/2017 08:20      63.3      62.9       78     56.1      0.00      0.09      77.5     0.32      1011.0     2.8     ESE   106   3.9     ESE   115   8.01    273       50.2
   10/01/2017 08:10      63.0      62.6       79     56.0      0.00      0.09      77.0     0.32      1011.0     2.3      SE   126   3.8      SE   127   8.01    273       29.9
   10/01/2017 08:10      63.0      62.6       79     56.0      0.00      0.09      77.0     0.32      1011.0     2.3      SE   126   3.8      SE   127   8.01    273       29.9
   10/01/2017 08:00      62.5      62.3       79     55.8      0.00      0.09      77.2     0.32      1011.0     1.8     SSE   168   3.7       S   176   8.01    273       22.4
   10/01/2017 08:00      62.5      62.3       79     55.8      0.00      0.09      77.2     0.32      1011.0     1.8     SSE   168   3.7       S   176   8.01    273       22.4
   10/01/2017 07:50      62.3      62.1       79     55.8      0.00      0.09      77.4     0.32      1011.0     2.9     SSE   167   4.1       S   190   8.01    273       20.3
   10/01/2017 07:50      62.3      62.1       79     55.8      0.00      0.09      77.4     0.32      1011.0     2.9     SSE   167   4.1       S   190   8.01    273       20.3
   10/01/2017 07:40      62.4      62.2       79     55.9      0.00      0.09      77.5     0.32      1010.0     3.4     SSE   157   4.9     SSE   168   8.01    273       11.4
   10/01/2017 07:40      62.4      62.2       79     55.9      0.00      0.09      77.5     0.32      1010.0     3.4     SSE   157   4.9     SSE   168   8.01    273       11.4
   10/01/2017 07:30      62.4      62.2       80     56.1      0.00      0.09      77.6     0.32      1010.0     2.6     SSE   164   4.2      SE   142   8.01    273        4.8
   10/01/2017 07:30      62.4      62.2       80     56.1      0.00      0.09      77.6     0.32      1010.0     2.6     SSE   164   4.2      SE   142   8.01    273        4.8
   10/01/2017 07:20      62.5      62.2       81     56.2      0.00      0.09      77.4     0.32      1010.0     3.2     SSE   153   4.4      SE   146   8.01    273       -5.7
   10/01/2017 07:20      62.5      62.2       81     56.2      0.00      0.09      77.4     0.32      1010.0     3.2     SSE   153   4.4      SE   146   8.01    273       -5.7
   10/01/2017 07:10      62.3      62.1       81     56.3      0.00      0.09      77.5     0.32      1011.0     2.3       S   172   3.1       S   174   8.01    273      -14.3
   10/01/2017 07:10      62.3      62.1       81     56.3      0.00      0.09      77.5     0.32      1011.0     2.3       S   172   3.1       S   174   8.01    273      -14.3
   10/01/2017 07:00      62.3      62.0       81     56.4      0.00      0.09      77.5     0.32      1010.0     2.2     SSE   150   2.9       S   173   8.01    273      -25.5
   10/01/2017 07:00      62.3      62.0       81     56.4      0.00      0.09      77.5     0.32      1010.0     2.2     SSE   150   2.9       S   173   8.01    273      -25.5
   10/01/2017 06:50      62.3      62.1       81     56.4      0.00      0.09      77.4     0.32      1010.0     2.0     SSE   152   2.6     SSE   155   8.02    273      -23.9
   10/01/2017 06:50      62.3      62.1       81     56.4      0.00      0.09      77.4     0.32      1010.0     2.0     SSE   152   2.6     SSE   155   8.02    273      -23.9
   10/01/2017 06:40      62.4      62.2       81     56.5      0.00      0.09      77.3     0.32      1010.0     2.3      SE   137   3.4      SE   130   8.01    273      -35.8
   10/01/2017 06:40      62.4      62.2       81     56.5      0.00      0.09      77.3     0.32      1010.0     2.3      SE   137   3.4      SE   130   8.01    273      -35.8
   10/01/2017 06:30      62.4      62.3       81     56.5      0.00      0.09      77.3     0.32      1010.0     1.4     SSE   160   2.0     SSE   153   8.02    273      -29.0
   10/01/2017 06:30      62.4      62.3       81     56.5      0.00      0.09      77.3     0.32      1010.0     1.4     SSE   160   2.0     SSE   153   8.02    273      -29.0
   10/01/2017 06:20      62.5      62.3       81     56.5      0.00      0.09      77.3     0.32      1010.0     0.7     SSE   168   1.1      SE   143   8.02    273      -24.8
   10/01/2017 06:20      62.5      62.3       81     56.5      0.00      0.09      77.3     0.32      1010.0     0.7     SSE   168   1.1      SE   143   8.02    273      -24.8
   10/01/2017 06:10      62.4      62.1       81     56.5      0.00      0.09      77.9     0.32      1010.0     1.3     SSE   158   1.9      SE   127   8.02    273      -21.6
   10/01/2017 06:10      62.4      62.1       81     56.5      0.00      0.09      77.9     0.32      1010.0     1.3     SSE   158   1.9      SE   127   8.02    273      -21.6
   10/01/2017 06:00      62.3      62.0       82     56.5      0.00      0.09      77.6     0.32      1010.0     1.0       S   190   2.3       S   180   8.02    273      -17.0
   10/01/2017 06:00      62.3      62.0       82     56.5      0.00      0.09      77.6     0.32      1010.0     1.0       S   190   2.3       S   180   8.02    273      -17.0
   10/01/2017 05:50      62.3      62.2       81     56.5      0.00      0.09      77.2     0.32      1010.0     2.1     SSE   166   2.7     SSE   159   8.02    273      -31.2
   10/01/2017 05:50      62.3      62.2       81     56.5      0.00      0.09      77.2     0.32      1010.0     2.1     SSE   166   2.7     SSE   159   8.02    273      -31.2
   10/01/2017 05:40      62.4      62.2       81     56.5      0.00      0.09      77.5     0.32      1010.0     2.9      SE   139   4.7      SE   130   8.02    273      -25.7
   10/01/2017 05:40      62.4      62.2       81     56.5      0.00      0.09      77.5     0.32      1010.0     2.9      SE   139   4.7      SE   130   8.02    273      -25.7
   10/01/2017 05:30      62.5      62.3       82     56.6      0.00      0.09      77.6     0.32      1010.0     2.2      SE   124   3.0      SE   129   8.02    273      -21.1
   10/01/2017 05:30      62.5      62.3       82     56.6      0.00      0.09      77.6     0.32      1010.0     2.2      SE   124   3.0      SE   129   8.02    273      -21.1
   10/01/2017 05:20      62.5      62.3       81     56.6      0.00      0.09      77.8     0.32      1010.0     2.1      SE   140   3.9      SE   130   8.02    273      -20.8
   10/01/2017 05:20      62.5      62.3       81     56.6      0.00      0.09      77.8     0.32      1010.0     2.1      SE   140   3.9      SE   130   8.02    273      -20.8
   10/01/2017 05:10      62.5      62.3       81     56.6      0.00      0.09      77.5     0.32      1010.0     1.7     SSE   163   2.5       S   190   8.02    273      -23.8
   10/01/2017 05:10      62.5      62.3       81     56.6      0.00      0.09      77.5     0.32      1010.0     1.7     SSE   163   2.5       S   190   8.02    273      -23.8
   10/01/2017 05:00      62.6      62.3       81     56.7      0.00      0.09      77.9     0.32      1010.0     2.3     ESE   123   3.5      SE   136   8.02    273      -17.8
   10/01/2017 05:00      62.6      62.3       81     56.7      0.00      0.09      77.9     0.32      1010.0     2.3     ESE   123   3.5      SE   136   8.02    273      -17.8
   10/01/2017 04:50      62.6      62.4       82     56.9      0.00      0.09      77.4     0.32      1010.0     2.6     ESE   115   5.0     ESE   113   8.02    273      -14.8
   10/01/2017 04:50      62.6      62.4       82     56.9      0.00      0.09      77.4     0.32      1010.0     2.6     ESE   115   5.0     ESE   113   8.02    273      -14.8
   10/01/2017 04:40      62.8      62.5       82     57.0      0.00      0.09      77.4     0.32      1010.0     3.3      SE   128   5.0      SE   124   8.02    273      -16.3
   10/01/2017 04:40      62.8      62.5       82     57.0      0.00      0.09      77.4     0.32      1010.0     3.3      SE   128   5.0      SE   124   8.02    273      -16.3
   10/01/2017 04:30      62.9      62.6       81     57.0      0.00      0.09      77.7     0.32      1010.0     1.7     ESE   119   2.3      SE   125   8.02    273      -16.9
   10/01/2017 04:30      62.9      62.6       81     57.0      0.00      0.09      77.7     0.32      1010.0     1.7     ESE   119   2.3      SE   125   8.02    273      -16.9
   10/01/2017 04:20      62.9      62.7       81     57.0      0.00      0.09      77.8     0.32      1010.0     1.7     ESE   114   2.4     ESE   116   8.02    273      -17.5
   10/01/2017 04:20      62.9      62.7       81     57.0      0.00      0.09      77.8     0.32      1010.0     1.7     ESE   114   2.4     ESE   116   8.02    273      -17.5
   10/01/2017 04:10      63.0      62.8       81     57.0      0.00      0.09      77.5     0.32      1010.0     1.7     ESE   120   2.7      SE   124   8.02    273      -20.7
   10/01/2017 04:10      63.0      62.8       81     57.0      0.00      0.09      77.5     0.32      1010.0     1.7     ESE   120   2.7      SE   124   8.02    273      -20.7
   10/01/2017 04:00      63.1      62.8       82     57.3      0.00      0.09      78.0     0.32      1010.0     2.3     ESE   116   3.7      SE   141   8.02    272      -21.3
   10/01/2017 04:00      63.1      62.8       82     57.3      0.00      0.09      78.0     0.32      1010.0     2.3     ESE   116   3.7      SE   141   8.02    272      -21.3
   10/01/2017 03:50      63.0      62.8       82     57.3      0.00      0.09      77.5     0.32      1010.0     1.4      SE   128   2.4     SSE   155   8.02    273      -16.6
   10/01/2017 03:50      63.0      62.8       82     57.3      0.00      0.09      77.5     0.32      1010.0     1.4      SE   128   2.4     SSE   155   8.02    273      -16.6
   10/01/2017 03:40      63.0      62.6       83     57.4      0.00      0.09      77.6     0.32      1010.0     2.3     SSE   166   3.4     SSE   161   8.02    272      -18.3
   10/01/2017 03:40      63.0      62.6       83     57.4      0.00      0.09      77.6     0.32      1010.0     2.3     SSE   166   3.4     SSE   161   8.02    272      -18.3
   10/01/2017 03:30      63.0      62.8       82     57.4      0.00      0.09      77.9     0.32      1010.0     1.8      SE   142   2.5     SSE   150   8.02    272      -21.3
   10/01/2017 03:30      63.0      62.8       82     57.4      0.00      0.09      77.9     0.32      1010.0     1.8      SE   142   2.5     SSE   150   8.02    272      -21.3
   10/01/2017 03:20      63.0      62.7       83     57.5      0.00      0.09      77.6     0.32      1010.0     1.3     ESE   124   1.8     ESE   123   8.02    272      -22.8
   10/01/2017 03:20      63.0      62.7       83     57.5      0.00      0.09      77.6     0.32      1010.0     1.3     ESE   124   1.8     ESE   123   8.02    272      -22.8
   10/01/2017 03:10      63.1      62.9       83     57.7      0.00      0.09      77.7     0.32      1010.0     1.2      SE   134   2.1     ESE   118   8.02    272      -20.1
   10/01/2017 03:10      63.1      62.9       83     57.7      0.00      0.09      77.7     0.32      1010.0     1.2      SE   134   2.1     ESE   118   8.02    272      -20.1
   10/01/2017 03:00      63.0      62.9       83     57.7      0.00      0.09      77.6     0.32      1010.0     2.1      SE   133   2.9      SE   130   8.03    272      -16.0
   10/01/2017 03:00      63.0      62.9       83     57.7      0.00      0.09      77.6     0.32      1010.0     2.1      SE   133   2.9      SE   130   8.03    272      -16.0
   10/01/2017 02:50      62.9      62.7       83     57.8      0.00      0.09      77.8     0.32      1010.0     1.9     ESE   122   3.0     ESE   117   8.02    272      -12.7
   10/01/2017 02:50      62.9      62.7       83     57.8      0.00      0.09      77.8     0.32      1010.0     1.9     ESE   122   3.0     ESE   117   8.02    272      -12.7
   10/01/2017 02:40      62.9      62.6       84     57.9      0.00      0.09      78.0     0.32      1010.0     1.5      SE   134   2.3      SE   143   8.03    272      -11.6
   10/01/2017 02:40      62.9      62.6       84     57.9      0.00      0.09      78.0     0.32      1010.0     1.5      SE   134   2.3      SE   143   8.03    272      -11.6
   10/01/2017 02:30      62.8      62.5       84     57.8      0.00      0.09      77.8     0.32      1010.0     0.6     SSE   166   1.4     ESE   122   8.03    272      -16.6
   10/01/2017 02:30      62.8      62.5       84     57.8      0.00      0.09      77.8     0.32      1010.0     0.6     SSE   166   1.4     ESE   122   8.03    272      -16.6
   10/01/2017 02:20      62.8      62.5       84     57.9      0.00      0.09      77.5     0.32      1010.0     1.9     ESE   118   3.0      SE   142   8.03    272      -31.5
   10/01/2017 02:20      62.8      62.5       84     57.9      0.00      0.09      77.5     0.32      1010.0     1.9     ESE   118   3.0      SE   142   8.03    272      -31.5
   10/01/2017 02:10      63.0      62.8       84     58.0      0.00      0.09      78.0     0.32      1010.0     1.8     ESE   102   2.9     ENE    76   8.03    272      -28.9
   10/01/2017 02:10      63.0      62.8       84     58.0      0.00      0.09      78.0     0.32      1010.0     1.8     ESE   102   2.9     ENE    76   8.03    272      -28.9
   10/01/2017 02:00      63.2      62.7       85     58.2      0.00      0.09      77.8     0.32      1010.0     1.8     ENE    68   2.9     ENE    65   8.03    272      -22.7
   10/01/2017 02:00      63.2      62.7       85     58.2      0.00      0.09      77.8     0.32      1010.0     1.8     ENE    68   2.9     ENE    65   8.03    272      -22.7
   10/01/2017 01:50      62.8      62.4       86     58.2      0.00      0.09      78.0     0.32      1010.0     1.7       E    85   3.3       E    84   8.03    272      -20.7
   10/01/2017 01:50      62.8      62.4       86     58.2      0.00      0.09      78.0     0.32      1010.0     1.7       E    85   3.3       E    84   8.03    272      -20.7


Back to data home page